<?xml version="1.0" encoding="UTF-8" standalone="no" ?>
<gpx xmlns="http://www.topografix.com/GPX/1/1" xmlns:xsi="http://www.w3.org/2001/XMLSchema-instance" xsi:schemaLocation="http://www.topografix.com/GPX/1/1 http://www.topografix.com/GPX/1/1/gpx.xsd" version="1.1" creator="VisuGPX - https://www.visugpx.com">
  <metadata>
    <name>Arête Nord de l'Arcalod-2020-09-15</name>
  </metadata>
  <trk>
    <name><![CDATA[TRK-2020-09-15]]></name>
    <trkseg>
      <trkpt lat="45.64573" lon="6.23684">
        <ele>1024.9072</ele>
        <time>2020-09-15 06:38:38</time>
      </trkpt>
      <trkpt lat="45.64572" lon="6.23684">
        <ele>1026.8977</ele>
        <time>2020-09-15 06:39:39</time>
      </trkpt>
      <trkpt lat="45.64571" lon="6.23684">
        <ele>1027.6356</ele>
        <time>2020-09-15 06:39:53</time>
      </trkpt>
      <trkpt lat="45.64571" lon="6.23683">
        <ele>1027.8677</ele>
        <time>2020-09-15 06:39:54</time>
      </trkpt>
      <trkpt lat="45.6457" lon="6.23682">
        <ele>1034.2837</ele>
        <time>2020-09-15 06:40:09</time>
      </trkpt>
      <trkpt lat="45.6457" lon="6.23682">
        <ele>1035.7225</ele>
        <time>2020-09-15 06:40:10</time>
      </trkpt>
      <trkpt lat="45.64569" lon="6.23682">
        <ele>1039.4176</ele>
        <time>2020-09-15 06:40:33</time>
      </trkpt>
      <trkpt lat="45.64569" lon="6.23682">
        <ele>1040.5905</ele>
        <time>2020-09-15 06:40:34</time>
      </trkpt>
      <trkpt lat="45.64569" lon="6.23682">
        <ele>1041.9614</ele>
        <time>2020-09-15 06:40:35</time>
      </trkpt>
      <trkpt lat="45.64569" lon="6.23682">
        <ele>1042.5511</ele>
        <time>2020-09-15 06:40:36</time>
      </trkpt>
      <trkpt lat="45.64568" lon="6.23683">
        <ele>1041.9414</ele>
        <time>2020-09-15 06:40:38</time>
      </trkpt>
      <trkpt lat="45.64568" lon="6.23683">
        <ele>1043.0201</ele>
        <time>2020-09-15 06:40:39</time>
      </trkpt>
      <trkpt lat="45.64567" lon="6.23683">
        <ele>1045.4767</ele>
        <time>2020-09-15 06:40:49</time>
      </trkpt>
      <trkpt lat="45.64567" lon="6.23684">
        <ele>1045.3201</ele>
        <time>2020-09-15 06:40:50</time>
      </trkpt>
      <trkpt lat="45.64567" lon="6.23684">
        <ele>1047.2205</ele>
        <time>2020-09-15 06:41:20</time>
      </trkpt>
      <trkpt lat="45.64567" lon="6.23683">
        <ele>1049.179</ele>
        <time>2020-09-15 06:41:50</time>
      </trkpt>
      <trkpt lat="45.64566" lon="6.23683">
        <ele>1049.7681</ele>
        <time>2020-09-15 06:41:51</time>
      </trkpt>
      <trkpt lat="45.64566" lon="6.23682">
        <ele>1051.4359</ele>
        <time>2020-09-15 06:41:56</time>
      </trkpt>
      <trkpt lat="45.64566" lon="6.23682">
        <ele>1051.5485</ele>
        <time>2020-09-15 06:41:57</time>
      </trkpt>
      <trkpt lat="45.64566" lon="6.23683">
        <ele>1049.4026</ele>
        <time>2020-09-15 06:41:58</time>
      </trkpt>
      <trkpt lat="45.64567" lon="6.23684">
        <ele>1050.0137</ele>
        <time>2020-09-15 06:41:59</time>
      </trkpt>
      <trkpt lat="45.64566" lon="6.23687">
        <ele>1051.5137</ele>
        <time>2020-09-15 06:42:14</time>
      </trkpt>
      <trkpt lat="45.64566" lon="6.23687">
        <ele>1051.6587</ele>
        <time>2020-09-15 06:42:15</time>
      </trkpt>
      <trkpt lat="45.64566" lon="6.23687">
        <ele>1051.7632</ele>
        <time>2020-09-15 06:42:16</time>
      </trkpt>
      <trkpt lat="45.64567" lon="6.23686">
        <ele>1051.1312</ele>
        <time>2020-09-15 06:42:19</time>
      </trkpt>
      <trkpt lat="45.64567" lon="6.23686">
        <ele>1051.9158</ele>
        <time>2020-09-15 06:42:22</time>
      </trkpt>
      <trkpt lat="45.64567" lon="6.23686">
        <ele>1051.2196</ele>
        <time>2020-09-15 06:42:23</time>
      </trkpt>
      <trkpt lat="45.64567" lon="6.23685">
        <ele>1051.5175</ele>
        <time>2020-09-15 06:42:31</time>
      </trkpt>
      <trkpt lat="45.64567" lon="6.23685">
        <ele>1051.6743</ele>
        <time>2020-09-15 06:42:32</time>
      </trkpt>
      <trkpt lat="45.64567" lon="6.23684">
        <ele>1050.4174</ele>
        <time>2020-09-15 06:42:54</time>
      </trkpt>
      <trkpt lat="45.64567" lon="6.23684">
        <ele>1049.8761</ele>
        <time>2020-09-15 06:42:55</time>
      </trkpt>
      <trkpt lat="45.64567" lon="6.23683">
        <ele>1050.8804</ele>
        <time>2020-09-15 06:42:57</time>
      </trkpt>
      <trkpt lat="45.64567" lon="6.23683">
        <ele>1050.7853</ele>
        <time>2020-09-15 06:42:58</time>
      </trkpt>
      <trkpt lat="45.64569" lon="6.23684">
        <ele>1054.7358</ele>
        <time>2020-09-15 06:43:10</time>
      </trkpt>
      <trkpt lat="45.6457" lon="6.23684">
        <ele>1053.9674</ele>
        <time>2020-09-15 06:43:13</time>
      </trkpt>
      <trkpt lat="45.64569" lon="6.23684">
        <ele>1052.4706</ele>
        <time>2020-09-15 06:43:14</time>
      </trkpt>
      <trkpt lat="45.64569" lon="6.23684">
        <ele>1052.0006</ele>
        <time>2020-09-15 06:43:15</time>
      </trkpt>
      <trkpt lat="45.64569" lon="6.23684">
        <ele>1051.8813</ele>
        <time>2020-09-15 06:43:36</time>
      </trkpt>
      <trkpt lat="45.64569" lon="6.23684">
        <ele>1052.3029</ele>
        <time>2020-09-15 06:43:37</time>
      </trkpt>
      <trkpt lat="45.6457" lon="6.23685">
        <ele>1052.5779</ele>
        <time>2020-09-15 06:43:39</time>
      </trkpt>
      <trkpt lat="45.6457" lon="6.23686">
        <ele>1052.5087</ele>
        <time>2020-09-15 06:43:40</time>
      </trkpt>
      <trkpt lat="45.64568" lon="6.23688">
        <ele>1052.1017</ele>
        <time>2020-09-15 06:43:46</time>
      </trkpt>
      <trkpt lat="45.64567" lon="6.23687">
        <ele>1051.8995</ele>
        <time>2020-09-15 06:43:51</time>
      </trkpt>
      <trkpt lat="45.64567" lon="6.23686">
        <ele>1051.0773</ele>
        <time>2020-09-15 06:43:53</time>
      </trkpt>
      <trkpt lat="45.64567" lon="6.23686">
        <ele>1051.3287</ele>
        <time>2020-09-15 06:43:54</time>
      </trkpt>
      <trkpt lat="45.64567" lon="6.23686">
        <ele>1050.5186</ele>
        <time>2020-09-15 06:43:55</time>
      </trkpt>
      <trkpt lat="45.64568" lon="6.23685">
        <ele>1052.1914</ele>
        <time>2020-09-15 06:44:46</time>
      </trkpt>
      <trkpt lat="45.64568" lon="6.23685">
        <ele>1053.4952</ele>
        <time>2020-09-15 06:44:59</time>
      </trkpt>
      <trkpt lat="45.64568" lon="6.23686">
        <ele>1054.2998</ele>
        <time>2020-09-15 06:45:01</time>
      </trkpt>
      <trkpt lat="45.64568" lon="6.23687">
        <ele>1054.8563</ele>
        <time>2020-09-15 06:45:02</time>
      </trkpt>
      <trkpt lat="45.64571" lon="6.23701">
        <ele>1057.8153</ele>
        <time>2020-09-15 06:45:13</time>
      </trkpt>
      <trkpt lat="45.64574" lon="6.23709">
        <ele>1058.5856</ele>
        <time>2020-09-15 06:45:20</time>
      </trkpt>
      <trkpt lat="45.64575" lon="6.23711">
        <ele>1060.0892</ele>
        <time>2020-09-15 06:45:24</time>
      </trkpt>
      <trkpt lat="45.64583" lon="6.23721">
        <ele>1061.3071</ele>
        <time>2020-09-15 06:45:37</time>
      </trkpt>
      <trkpt lat="45.64583" lon="6.23721">
        <ele>1060.4</ele>
        <time>2020-09-15 06:45:38</time>
      </trkpt>
      <trkpt lat="45.64583" lon="6.2372">
        <ele>1059.1198</ele>
        <time>2020-09-15 06:45:39</time>
      </trkpt>
      <trkpt lat="45.64583" lon="6.23719">
        <ele>1058.1166</ele>
        <time>2020-09-15 06:45:41</time>
      </trkpt>
      <trkpt lat="45.64583" lon="6.23714">
        <ele>1056.3463</ele>
        <time>2020-09-15 06:45:46</time>
      </trkpt>
      <trkpt lat="45.64584" lon="6.23712">
        <ele>1056.6864</ele>
        <time>2020-09-15 06:45:49</time>
      </trkpt>
      <trkpt lat="45.64585" lon="6.23711">
        <ele>1056.8678</ele>
        <time>2020-09-15 06:45:50</time>
      </trkpt>
      <trkpt lat="45.64586" lon="6.23711">
        <ele>1057.7607</ele>
        <time>2020-09-15 06:45:52</time>
      </trkpt>
      <trkpt lat="45.64586" lon="6.23711">
        <ele>1059.1516</ele>
        <time>2020-09-15 06:45:57</time>
      </trkpt>
      <trkpt lat="45.64585" lon="6.23713">
        <ele>1058.9622</ele>
        <time>2020-09-15 06:45:59</time>
      </trkpt>
      <trkpt lat="45.64584" lon="6.23716">
        <ele>1059.0739</ele>
        <time>2020-09-15 06:46:01</time>
      </trkpt>
      <trkpt lat="45.64583" lon="6.2372">
        <ele>1060.5349</ele>
        <time>2020-09-15 06:46:04</time>
      </trkpt>
      <trkpt lat="45.64583" lon="6.23724">
        <ele>1061.1067</ele>
        <time>2020-09-15 06:46:07</time>
      </trkpt>
      <trkpt lat="45.64585" lon="6.23727">
        <ele>1062.6273</ele>
        <time>2020-09-15 06:46:10</time>
      </trkpt>
      <trkpt lat="45.64585" lon="6.23727">
        <ele>1063.4352</ele>
        <time>2020-09-15 06:46:11</time>
      </trkpt>
      <trkpt lat="45.64592" lon="6.23734">
        <ele>1066.0895</ele>
        <time>2020-09-15 06:46:20</time>
      </trkpt>
      <trkpt lat="45.64592" lon="6.23735">
        <ele>1065.5891</ele>
        <time>2020-09-15 06:46:21</time>
      </trkpt>
      <trkpt lat="45.64594" lon="6.23737">
        <ele>1063.8536</ele>
        <time>2020-09-15 06:46:23</time>
      </trkpt>
      <trkpt lat="45.64597" lon="6.23741">
        <ele>1064.1241</ele>
        <time>2020-09-15 06:46:28</time>
      </trkpt>
      <trkpt lat="45.64598" lon="6.23742">
        <ele>1064.7104</ele>
        <time>2020-09-15 06:46:30</time>
      </trkpt>
      <trkpt lat="45.64603" lon="6.2375">
        <ele>1065.1827</ele>
        <time>2020-09-15 06:46:39</time>
      </trkpt>
      <trkpt lat="45.64604" lon="6.23752">
        <ele>1064.9326</ele>
        <time>2020-09-15 06:46:41</time>
      </trkpt>
      <trkpt lat="45.6461" lon="6.23765">
        <ele>1067.7305</ele>
        <time>2020-09-15 06:46:51</time>
      </trkpt>
      <trkpt lat="45.64613" lon="6.2377">
        <ele>1067.3375</ele>
        <time>2020-09-15 06:46:55</time>
      </trkpt>
      <trkpt lat="45.64618" lon="6.23783">
        <ele>1069.2333</ele>
        <time>2020-09-15 06:47:06</time>
      </trkpt>
      <trkpt lat="45.64619" lon="6.23787">
        <ele>1068.8113</ele>
        <time>2020-09-15 06:47:09</time>
      </trkpt>
      <trkpt lat="45.64624" lon="6.23793">
        <ele>1073.7502</ele>
        <time>2020-09-15 06:47:18</time>
      </trkpt>
      <trkpt lat="45.64628" lon="6.23799">
        <ele>1074.3123</ele>
        <time>2020-09-15 06:47:23</time>
      </trkpt>
      <trkpt lat="45.64638" lon="6.23811">
        <ele>1083.1713</ele>
        <time>2020-09-15 06:47:36</time>
      </trkpt>
      <trkpt lat="45.64641" lon="6.23816">
        <ele>1084.7708</ele>
        <time>2020-09-15 06:47:40</time>
      </trkpt>
      <trkpt lat="45.64646" lon="6.2382">
        <ele>1087.6115</ele>
        <time>2020-09-15 06:47:45</time>
      </trkpt>
      <trkpt lat="45.64648" lon="6.23822">
        <ele>1087.9872</ele>
        <time>2020-09-15 06:47:47</time>
      </trkpt>
      <trkpt lat="45.64653" lon="6.23825">
        <ele>1088.8682</ele>
        <time>2020-09-15 06:47:52</time>
      </trkpt>
      <trkpt lat="45.6466" lon="6.23827">
        <ele>1090.4663</ele>
        <time>2020-09-15 06:47:58</time>
      </trkpt>
      <trkpt lat="45.64663" lon="6.23828">
        <ele>1091.3157</ele>
        <time>2020-09-15 06:48:01</time>
      </trkpt>
      <trkpt lat="45.64678" lon="6.23832">
        <ele>1083.0133</ele>
        <time>2020-09-15 06:48:16</time>
      </trkpt>
      <trkpt lat="45.64679" lon="6.23833">
        <ele>1083.1348</ele>
        <time>2020-09-15 06:48:17</time>
      </trkpt>
      <trkpt lat="45.64679" lon="6.23833">
        <ele>1081.3612</ele>
        <time>2020-09-15 06:48:18</time>
      </trkpt>
      <trkpt lat="45.64682" lon="6.23835">
        <ele>1077.8789</ele>
        <time>2020-09-15 06:48:22</time>
      </trkpt>
      <trkpt lat="45.64684" lon="6.23837">
        <ele>1077.0455</ele>
        <time>2020-09-15 06:48:25</time>
      </trkpt>
      <trkpt lat="45.64684" lon="6.23838">
        <ele>1077.321</ele>
        <time>2020-09-15 06:48:26</time>
      </trkpt>
      <trkpt lat="45.64684" lon="6.23838">
        <ele>1077.22</ele>
        <time>2020-09-15 06:48:27</time>
      </trkpt>
      <trkpt lat="45.64684" lon="6.23839">
        <ele>1078.15</ele>
        <time>2020-09-15 06:48:28</time>
      </trkpt>
      <trkpt lat="45.64686" lon="6.23842">
        <ele>1078.4143</ele>
        <time>2020-09-15 06:48:31</time>
      </trkpt>
      <trkpt lat="45.64688" lon="6.23847">
        <ele>1078.4774</ele>
        <time>2020-09-15 06:48:35</time>
      </trkpt>
      <trkpt lat="45.64696" lon="6.23864">
        <ele>1087.8518</ele>
        <time>2020-09-15 06:48:53</time>
      </trkpt>
      <trkpt lat="45.64699" lon="6.23869">
        <ele>1089.6619</ele>
        <time>2020-09-15 06:48:59</time>
      </trkpt>
      <trkpt lat="45.647" lon="6.23872">
        <ele>1090.2129</ele>
        <time>2020-09-15 06:49:02</time>
      </trkpt>
      <trkpt lat="45.64703" lon="6.23876">
        <ele>1090.283</ele>
        <time>2020-09-15 06:49:06</time>
      </trkpt>
      <trkpt lat="45.64704" lon="6.2388">
        <ele>1091.5386</ele>
        <time>2020-09-15 06:49:09</time>
      </trkpt>
      <trkpt lat="45.64706" lon="6.23884">
        <ele>1091.5963</ele>
        <time>2020-09-15 06:49:12</time>
      </trkpt>
      <trkpt lat="45.64706" lon="6.23884">
        <ele>1092.0703</ele>
        <time>2020-09-15 06:49:13</time>
      </trkpt>
      <trkpt lat="45.64707" lon="6.23886">
        <ele>1090.6348</ele>
        <time>2020-09-15 06:49:15</time>
      </trkpt>
      <trkpt lat="45.64708" lon="6.23887">
        <ele>1090.6965</ele>
        <time>2020-09-15 06:49:16</time>
      </trkpt>
      <trkpt lat="45.64709" lon="6.2389">
        <ele>1091.1617</ele>
        <time>2020-09-15 06:49:18</time>
      </trkpt>
      <trkpt lat="45.64711" lon="6.23892">
        <ele>1092.1543</ele>
        <time>2020-09-15 06:49:20</time>
      </trkpt>
      <trkpt lat="45.64712" lon="6.23893">
        <ele>1092.8364</ele>
        <time>2020-09-15 06:49:21</time>
      </trkpt>
      <trkpt lat="45.64713" lon="6.23895">
        <ele>1094.3345</ele>
        <time>2020-09-15 06:49:23</time>
      </trkpt>
      <trkpt lat="45.64714" lon="6.23895">
        <ele>1094.9396</ele>
        <time>2020-09-15 06:49:24</time>
      </trkpt>
      <trkpt lat="45.64715" lon="6.23897">
        <ele>1093.9283</ele>
        <time>2020-09-15 06:49:26</time>
      </trkpt>
      <trkpt lat="45.64716" lon="6.23898">
        <ele>1094.9863</ele>
        <time>2020-09-15 06:49:27</time>
      </trkpt>
      <trkpt lat="45.64716" lon="6.23899">
        <ele>1095.0393</ele>
        <time>2020-09-15 06:49:28</time>
      </trkpt>
      <trkpt lat="45.64718" lon="6.23901">
        <ele>1095.9331</ele>
        <time>2020-09-15 06:49:30</time>
      </trkpt>
      <trkpt lat="45.64722" lon="6.23909">
        <ele>1095.2533</ele>
        <time>2020-09-15 06:49:35</time>
      </trkpt>
      <trkpt lat="45.64734" lon="6.2392">
        <ele>1092.4865</ele>
        <time>2020-09-15 06:49:49</time>
      </trkpt>
      <trkpt lat="45.64738" lon="6.23922">
        <ele>1090.4094</ele>
        <time>2020-09-15 06:49:52</time>
      </trkpt>
      <trkpt lat="45.64746" lon="6.2393">
        <ele>1089.191</ele>
        <time>2020-09-15 06:50:00</time>
      </trkpt>
      <trkpt lat="45.6475" lon="6.23938">
        <ele>1089.7615</ele>
        <time>2020-09-15 06:50:06</time>
      </trkpt>
      <trkpt lat="45.64752" lon="6.23943">
        <ele>1090.1084</ele>
        <time>2020-09-15 06:50:10</time>
      </trkpt>
      <trkpt lat="45.64752" lon="6.23945">
        <ele>1091.5889</ele>
        <time>2020-09-15 06:50:12</time>
      </trkpt>
      <trkpt lat="45.64752" lon="6.23951">
        <ele>1093.0724</ele>
        <time>2020-09-15 06:50:16</time>
      </trkpt>
      <trkpt lat="45.64751" lon="6.23958">
        <ele>1094.3057</ele>
        <time>2020-09-15 06:50:21</time>
      </trkpt>
      <trkpt lat="45.64752" lon="6.23961">
        <ele>1090.9131</ele>
        <time>2020-09-15 06:50:23</time>
      </trkpt>
      <trkpt lat="45.64753" lon="6.23969">
        <ele>1093.638</ele>
        <time>2020-09-15 06:50:29</time>
      </trkpt>
      <trkpt lat="45.64753" lon="6.23971">
        <ele>1095.7542</ele>
        <time>2020-09-15 06:50:31</time>
      </trkpt>
      <trkpt lat="45.64754" lon="6.23974">
        <ele>1095.9252</ele>
        <time>2020-09-15 06:50:33</time>
      </trkpt>
      <trkpt lat="45.64754" lon="6.23976">
        <ele>1095.643</ele>
        <time>2020-09-15 06:50:35</time>
      </trkpt>
      <trkpt lat="45.64755" lon="6.23978">
        <ele>1092.6113</ele>
        <time>2020-09-15 06:50:37</time>
      </trkpt>
      <trkpt lat="45.64756" lon="6.23979">
        <ele>1093.198</ele>
        <time>2020-09-15 06:50:38</time>
      </trkpt>
      <trkpt lat="45.64756" lon="6.2398">
        <ele>1094.0857</ele>
        <time>2020-09-15 06:50:39</time>
      </trkpt>
      <trkpt lat="45.64757" lon="6.2398">
        <ele>1096.1055</ele>
        <time>2020-09-15 06:50:40</time>
      </trkpt>
      <trkpt lat="45.6476" lon="6.23982">
        <ele>1093.3188</ele>
        <time>2020-09-15 06:50:44</time>
      </trkpt>
      <trkpt lat="45.64764" lon="6.23982">
        <ele>1092.3738</ele>
        <time>2020-09-15 06:50:48</time>
      </trkpt>
      <trkpt lat="45.64768" lon="6.23984">
        <ele>1092.2122</ele>
        <time>2020-09-15 06:50:53</time>
      </trkpt>
      <trkpt lat="45.6477" lon="6.23984">
        <ele>1092.633</ele>
        <time>2020-09-15 06:50:55</time>
      </trkpt>
      <trkpt lat="45.64779" lon="6.23986">
        <ele>1092.1407</ele>
        <time>2020-09-15 06:51:06</time>
      </trkpt>
      <trkpt lat="45.64782" lon="6.23986">
        <ele>1092.2275</ele>
        <time>2020-09-15 06:51:11</time>
      </trkpt>
      <trkpt lat="45.64788" lon="6.23986">
        <ele>1093.731</ele>
        <time>2020-09-15 06:51:21</time>
      </trkpt>
      <trkpt lat="45.64788" lon="6.23987">
        <ele>1093.5603</ele>
        <time>2020-09-15 06:51:22</time>
      </trkpt>
      <trkpt lat="45.6479" lon="6.23988">
        <ele>1093.8309</ele>
        <time>2020-09-15 06:51:26</time>
      </trkpt>
      <trkpt lat="45.648" lon="6.23992">
        <ele>1099.6073</ele>
        <time>2020-09-15 06:51:44</time>
      </trkpt>
      <trkpt lat="45.648" lon="6.23992">
        <ele>1099.4211</ele>
        <time>2020-09-15 06:51:47</time>
      </trkpt>
      <trkpt lat="45.64802" lon="6.23992">
        <ele>1098.845</ele>
        <time>2020-09-15 06:51:49</time>
      </trkpt>
      <trkpt lat="45.64802" lon="6.23992">
        <ele>1098.6724</ele>
        <time>2020-09-15 06:51:50</time>
      </trkpt>
      <trkpt lat="45.64806" lon="6.23989">
        <ele>1098.0402</ele>
        <time>2020-09-15 06:51:57</time>
      </trkpt>
      <trkpt lat="45.64807" lon="6.23991">
        <ele>1100.8413</ele>
        <time>2020-09-15 06:52:00</time>
      </trkpt>
      <trkpt lat="45.64807" lon="6.23992">
        <ele>1100.8053</ele>
        <time>2020-09-15 06:52:01</time>
      </trkpt>
      <trkpt lat="45.64807" lon="6.23993">
        <ele>1100.622</ele>
        <time>2020-09-15 06:52:02</time>
      </trkpt>
      <trkpt lat="45.64807" lon="6.23994">
        <ele>1101.1464</ele>
        <time>2020-09-15 06:52:04</time>
      </trkpt>
      <trkpt lat="45.64807" lon="6.23995">
        <ele>1102.2478</ele>
        <time>2020-09-15 06:52:05</time>
      </trkpt>
      <trkpt lat="45.64807" lon="6.23996">
        <ele>1102.1261</ele>
        <time>2020-09-15 06:52:06</time>
      </trkpt>
      <trkpt lat="45.64807" lon="6.23997">
        <ele>1101.8137</ele>
        <time>2020-09-15 06:52:07</time>
      </trkpt>
      <trkpt lat="45.64807" lon="6.23999">
        <ele>1101.209</ele>
        <time>2020-09-15 06:52:09</time>
      </trkpt>
      <trkpt lat="45.64808" lon="6.24">
        <ele>1101.2319</ele>
        <time>2020-09-15 06:52:10</time>
      </trkpt>
      <trkpt lat="45.64808" lon="6.24">
        <ele>1101.9424</ele>
        <time>2020-09-15 06:52:11</time>
      </trkpt>
      <trkpt lat="45.64809" lon="6.24">
        <ele>1102.7145</ele>
        <time>2020-09-15 06:52:12</time>
      </trkpt>
      <trkpt lat="45.6481" lon="6.24">
        <ele>1102.7214</ele>
        <time>2020-09-15 06:52:13</time>
      </trkpt>
      <trkpt lat="45.6481" lon="6.24001">
        <ele>1103.9308</ele>
        <time>2020-09-15 06:52:14</time>
      </trkpt>
      <trkpt lat="45.64811" lon="6.24001">
        <ele>1102.7793</ele>
        <time>2020-09-15 06:52:15</time>
      </trkpt>
      <trkpt lat="45.64812" lon="6.24003">
        <ele>1101.3082</ele>
        <time>2020-09-15 06:52:17</time>
      </trkpt>
      <trkpt lat="45.64812" lon="6.24004">
        <ele>1102.0841</ele>
        <time>2020-09-15 06:52:18</time>
      </trkpt>
      <trkpt lat="45.64812" lon="6.24005">
        <ele>1102.5239</ele>
        <time>2020-09-15 06:52:19</time>
      </trkpt>
      <trkpt lat="45.64813" lon="6.24006">
        <ele>1102.6238</ele>
        <time>2020-09-15 06:52:20</time>
      </trkpt>
      <trkpt lat="45.64813" lon="6.24007">
        <ele>1103.1791</ele>
        <time>2020-09-15 06:52:21</time>
      </trkpt>
      <trkpt lat="45.64813" lon="6.24007">
        <ele>1103.3386</ele>
        <time>2020-09-15 06:52:22</time>
      </trkpt>
      <trkpt lat="45.64816" lon="6.2401">
        <ele>1104.6152</ele>
        <time>2020-09-15 06:52:28</time>
      </trkpt>
      <trkpt lat="45.64817" lon="6.24011">
        <ele>1103.3386</ele>
        <time>2020-09-15 06:52:29</time>
      </trkpt>
      <trkpt lat="45.64817" lon="6.24011">
        <ele>1105.4332</ele>
        <time>2020-09-15 06:52:30</time>
      </trkpt>
      <trkpt lat="45.64818" lon="6.24011">
        <ele>1106.6571</ele>
        <time>2020-09-15 06:52:31</time>
      </trkpt>
      <trkpt lat="45.64819" lon="6.24011">
        <ele>1106.3087</ele>
        <time>2020-09-15 06:52:33</time>
      </trkpt>
      <trkpt lat="45.64819" lon="6.24012">
        <ele>1106.1146</ele>
        <time>2020-09-15 06:52:34</time>
      </trkpt>
      <trkpt lat="45.6482" lon="6.24012">
        <ele>1105.7762</ele>
        <time>2020-09-15 06:52:36</time>
      </trkpt>
      <trkpt lat="45.64822" lon="6.24015">
        <ele>1105.87</ele>
        <time>2020-09-15 06:52:40</time>
      </trkpt>
      <trkpt lat="45.64822" lon="6.24015">
        <ele>1106.6989</ele>
        <time>2020-09-15 06:52:41</time>
      </trkpt>
      <trkpt lat="45.64824" lon="6.24015">
        <ele>1108.5688</ele>
        <time>2020-09-15 06:52:46</time>
      </trkpt>
      <trkpt lat="45.64825" lon="6.24015">
        <ele>1107.9583</ele>
        <time>2020-09-15 06:52:47</time>
      </trkpt>
      <trkpt lat="45.64825" lon="6.24015">
        <ele>1108.2284</ele>
        <time>2020-09-15 06:52:48</time>
      </trkpt>
      <trkpt lat="45.64826" lon="6.24015">
        <ele>1109.5492</ele>
        <time>2020-09-15 06:52:50</time>
      </trkpt>
      <trkpt lat="45.64826" lon="6.24015">
        <ele>1109.5446</ele>
        <time>2020-09-15 06:52:51</time>
      </trkpt>
      <trkpt lat="45.64826" lon="6.24015">
        <ele>1109.8617</ele>
        <time>2020-09-15 06:52:52</time>
      </trkpt>
      <trkpt lat="45.64831" lon="6.24017">
        <ele>1110.1084</ele>
        <time>2020-09-15 06:53:00</time>
      </trkpt>
      <trkpt lat="45.64831" lon="6.24017">
        <ele>1109.7356</ele>
        <time>2020-09-15 06:53:01</time>
      </trkpt>
      <trkpt lat="45.64835" lon="6.24021">
        <ele>1109.8684</ele>
        <time>2020-09-15 06:53:06</time>
      </trkpt>
      <trkpt lat="45.64837" lon="6.24022">
        <ele>1113.3656</ele>
        <time>2020-09-15 06:53:13</time>
      </trkpt>
      <trkpt lat="45.6484" lon="6.24022">
        <ele>1110.6116</ele>
        <time>2020-09-15 06:53:19</time>
      </trkpt>
      <trkpt lat="45.6484" lon="6.24022">
        <ele>1115.9722</ele>
        <time>2020-09-15 06:53:21</time>
      </trkpt>
      <trkpt lat="45.64844" lon="6.24024">
        <ele>1115.0986</ele>
        <time>2020-09-15 06:53:26</time>
      </trkpt>
      <trkpt lat="45.64844" lon="6.24024">
        <ele>1117.0599</ele>
        <time>2020-09-15 06:53:27</time>
      </trkpt>
      <trkpt lat="45.64845" lon="6.24024">
        <ele>1118.1368</ele>
        <time>2020-09-15 06:53:28</time>
      </trkpt>
      <trkpt lat="45.64845" lon="6.24025">
        <ele>1116.4468</ele>
        <time>2020-09-15 06:53:29</time>
      </trkpt>
      <trkpt lat="45.64845" lon="6.24025">
        <ele>1119.2706</ele>
        <time>2020-09-15 06:53:30</time>
      </trkpt>
      <trkpt lat="45.64846" lon="6.24025">
        <ele>1118.5541</ele>
        <time>2020-09-15 06:53:32</time>
      </trkpt>
      <trkpt lat="45.64846" lon="6.24025">
        <ele>1119.7997</ele>
        <time>2020-09-15 06:53:33</time>
      </trkpt>
      <trkpt lat="45.64847" lon="6.24025">
        <ele>1121.2301</ele>
        <time>2020-09-15 06:53:37</time>
      </trkpt>
      <trkpt lat="45.64848" lon="6.24026">
        <ele>1122.8634</ele>
        <time>2020-09-15 06:53:40</time>
      </trkpt>
      <trkpt lat="45.64851" lon="6.24029">
        <ele>1124.8489</ele>
        <time>2020-09-15 06:53:46</time>
      </trkpt>
      <trkpt lat="45.64851" lon="6.2403">
        <ele>1125.5643</ele>
        <time>2020-09-15 06:53:48</time>
      </trkpt>
      <trkpt lat="45.64851" lon="6.2403">
        <ele>1124.4644</ele>
        <time>2020-09-15 06:53:50</time>
      </trkpt>
      <trkpt lat="45.64851" lon="6.2403">
        <ele>1124.8644</ele>
        <time>2020-09-15 06:53:52</time>
      </trkpt>
      <trkpt lat="45.64854" lon="6.24032">
        <ele>1124.6991</ele>
        <time>2020-09-15 06:53:56</time>
      </trkpt>
      <trkpt lat="45.64855" lon="6.24032">
        <ele>1124.6647</ele>
        <time>2020-09-15 06:53:57</time>
      </trkpt>
      <trkpt lat="45.64856" lon="6.24032">
        <ele>1125.905</ele>
        <time>2020-09-15 06:54:00</time>
      </trkpt>
      <trkpt lat="45.64857" lon="6.24032">
        <ele>1125.5137</ele>
        <time>2020-09-15 06:54:01</time>
      </trkpt>
      <trkpt lat="45.64858" lon="6.24034">
        <ele>1126.2455</ele>
        <time>2020-09-15 06:54:04</time>
      </trkpt>
      <trkpt lat="45.64862" lon="6.24033">
        <ele>1129.2343</ele>
        <time>2020-09-15 06:54:13</time>
      </trkpt>
      <trkpt lat="45.64863" lon="6.24033">
        <ele>1129.9746</ele>
        <time>2020-09-15 06:54:15</time>
      </trkpt>
      <trkpt lat="45.64865" lon="6.24035">
        <ele>1129.8896</ele>
        <time>2020-09-15 06:54:19</time>
      </trkpt>
      <trkpt lat="45.6487" lon="6.24038">
        <ele>1131.8054</ele>
        <time>2020-09-15 06:54:30</time>
      </trkpt>
      <trkpt lat="45.64873" lon="6.24039">
        <ele>1133.4199</ele>
        <time>2020-09-15 06:54:35</time>
      </trkpt>
      <trkpt lat="45.64873" lon="6.24039">
        <ele>1131.8054</ele>
        <time>2020-09-15 06:54:39</time>
      </trkpt>
      <trkpt lat="45.64874" lon="6.24044">
        <ele>1139.6573</ele>
        <time>2020-09-15 06:54:46</time>
      </trkpt>
      <trkpt lat="45.64875" lon="6.24044">
        <ele>1141.1973</ele>
        <time>2020-09-15 06:54:47</time>
      </trkpt>
      <trkpt lat="45.64875" lon="6.24045">
        <ele>1138.9183</ele>
        <time>2020-09-15 06:54:48</time>
      </trkpt>
      <trkpt lat="45.64876" lon="6.24047">
        <ele>1140.3917</ele>
        <time>2020-09-15 06:54:54</time>
      </trkpt>
      <trkpt lat="45.64879" lon="6.24045">
        <ele>1137.7308</ele>
        <time>2020-09-15 06:54:57</time>
      </trkpt>
      <trkpt lat="45.6488" lon="6.24045">
        <ele>1137.3552</ele>
        <time>2020-09-15 06:54:58</time>
      </trkpt>
      <trkpt lat="45.64881" lon="6.24044">
        <ele>1137.9182</ele>
        <time>2020-09-15 06:54:59</time>
      </trkpt>
      <trkpt lat="45.64881" lon="6.24044">
        <ele>1138.616</ele>
        <time>2020-09-15 06:55:01</time>
      </trkpt>
      <trkpt lat="45.64882" lon="6.24045">
        <ele>1138.8137</ele>
        <time>2020-09-15 06:55:02</time>
      </trkpt>
      <trkpt lat="45.64883" lon="6.24045">
        <ele>1137.2347</ele>
        <time>2020-09-15 06:55:04</time>
      </trkpt>
      <trkpt lat="45.64884" lon="6.24046">
        <ele>1136.0796</ele>
        <time>2020-09-15 06:55:05</time>
      </trkpt>
      <trkpt lat="45.64885" lon="6.24046">
        <ele>1132.9076</ele>
        <time>2020-09-15 06:55:07</time>
      </trkpt>
      <trkpt lat="45.64887" lon="6.24046">
        <ele>1133.6064</ele>
        <time>2020-09-15 06:55:09</time>
      </trkpt>
      <trkpt lat="45.64888" lon="6.24047">
        <ele>1132.5154</ele>
        <time>2020-09-15 06:55:10</time>
      </trkpt>
      <trkpt lat="45.64888" lon="6.24048">
        <ele>1131.3352</ele>
        <time>2020-09-15 06:55:11</time>
      </trkpt>
      <trkpt lat="45.64889" lon="6.24049">
        <ele>1132.3425</ele>
        <time>2020-09-15 06:55:12</time>
      </trkpt>
      <trkpt lat="45.64889" lon="6.2405">
        <ele>1132.842</ele>
        <time>2020-09-15 06:55:13</time>
      </trkpt>
      <trkpt lat="45.6489" lon="6.24052">
        <ele>1133.032</ele>
        <time>2020-09-15 06:55:15</time>
      </trkpt>
      <trkpt lat="45.6489" lon="6.24053">
        <ele>1132.9661</ele>
        <time>2020-09-15 06:55:16</time>
      </trkpt>
      <trkpt lat="45.64891" lon="6.24055">
        <ele>1132.6743</ele>
        <time>2020-09-15 06:55:17</time>
      </trkpt>
      <trkpt lat="45.64891" lon="6.24057">
        <ele>1134.4277</ele>
        <time>2020-09-15 06:55:20</time>
      </trkpt>
      <trkpt lat="45.64892" lon="6.24057">
        <ele>1135.3497</ele>
        <time>2020-09-15 06:55:21</time>
      </trkpt>
      <trkpt lat="45.64892" lon="6.24057">
        <ele>1136.3881</ele>
        <time>2020-09-15 06:55:22</time>
      </trkpt>
      <trkpt lat="45.64894" lon="6.24057">
        <ele>1136.4735</ele>
        <time>2020-09-15 06:55:29</time>
      </trkpt>
      <trkpt lat="45.64902" lon="6.24062">
        <ele>1135.8304</ele>
        <time>2020-09-15 06:55:40</time>
      </trkpt>
      <trkpt lat="45.64911" lon="6.24069">
        <ele>1139.2693</ele>
        <time>2020-09-15 06:56:00</time>
      </trkpt>
      <trkpt lat="45.64913" lon="6.24069">
        <ele>1143.5319</ele>
        <time>2020-09-15 06:56:06</time>
      </trkpt>
      <trkpt lat="45.64914" lon="6.2407">
        <ele>1142.9108</ele>
        <time>2020-09-15 06:56:07</time>
      </trkpt>
      <trkpt lat="45.64915" lon="6.24072">
        <ele>1144.5437</ele>
        <time>2020-09-15 06:56:11</time>
      </trkpt>
      <trkpt lat="45.64917" lon="6.24072">
        <ele>1146.978</ele>
        <time>2020-09-15 06:56:32</time>
      </trkpt>
      <trkpt lat="45.64918" lon="6.24072">
        <ele>1148.4005</ele>
        <time>2020-09-15 06:56:33</time>
      </trkpt>
      <trkpt lat="45.64918" lon="6.24072">
        <ele>1148.9783</ele>
        <time>2020-09-15 06:56:34</time>
      </trkpt>
      <trkpt lat="45.64919" lon="6.24072">
        <ele>1150.3777</ele>
        <time>2020-09-15 06:56:35</time>
      </trkpt>
      <trkpt lat="45.64919" lon="6.24072">
        <ele>1151.0278</ele>
        <time>2020-09-15 06:56:36</time>
      </trkpt>
      <trkpt lat="45.6492" lon="6.24072">
        <ele>1151.8005</ele>
        <time>2020-09-15 06:56:37</time>
      </trkpt>
      <trkpt lat="45.6492" lon="6.24072">
        <ele>1150.6879</ele>
        <time>2020-09-15 06:56:38</time>
      </trkpt>
      <trkpt lat="45.64922" lon="6.24072">
        <ele>1150.6584</ele>
        <time>2020-09-15 06:56:40</time>
      </trkpt>
      <trkpt lat="45.64924" lon="6.24071">
        <ele>1150.4137</ele>
        <time>2020-09-15 06:56:41</time>
      </trkpt>
      <trkpt lat="45.64925" lon="6.24071">
        <ele>1150.8528</ele>
        <time>2020-09-15 06:56:42</time>
      </trkpt>
      <trkpt lat="45.64928" lon="6.24071">
        <ele>1150.8451</ele>
        <time>2020-09-15 06:56:44</time>
      </trkpt>
      <trkpt lat="45.64929" lon="6.24071">
        <ele>1148.5698</ele>
        <time>2020-09-15 06:56:45</time>
      </trkpt>
      <trkpt lat="45.64934" lon="6.24072">
        <ele>1145.8505</ele>
        <time>2020-09-15 06:56:49</time>
      </trkpt>
      <trkpt lat="45.64935" lon="6.24073">
        <ele>1146.6556</ele>
        <time>2020-09-15 06:56:50</time>
      </trkpt>
      <trkpt lat="45.64936" lon="6.24074">
        <ele>1146.9705</ele>
        <time>2020-09-15 06:56:51</time>
      </trkpt>
      <trkpt lat="45.64939" lon="6.24076">
        <ele>1148.3861</ele>
        <time>2020-09-15 06:56:54</time>
      </trkpt>
      <trkpt lat="45.64943" lon="6.24083">
        <ele>1153.4805</ele>
        <time>2020-09-15 06:57:03</time>
      </trkpt>
      <trkpt lat="45.64943" lon="6.24084">
        <ele>1154.8759</ele>
        <time>2020-09-15 06:57:05</time>
      </trkpt>
      <trkpt lat="45.64943" lon="6.24084">
        <ele>1154.8251</ele>
        <time>2020-09-15 06:57:06</time>
      </trkpt>
      <trkpt lat="45.64943" lon="6.24085">
        <ele>1154.7006</ele>
        <time>2020-09-15 06:57:08</time>
      </trkpt>
      <trkpt lat="45.64949" lon="6.2409">
        <ele>1158.6019</ele>
        <time>2020-09-15 06:57:17</time>
      </trkpt>
      <trkpt lat="45.6495" lon="6.24091">
        <ele>1158.2661</ele>
        <time>2020-09-15 06:57:18</time>
      </trkpt>
      <trkpt lat="45.64952" lon="6.24094">
        <ele>1160.5951</ele>
        <time>2020-09-15 06:57:22</time>
      </trkpt>
      <trkpt lat="45.6496" lon="6.24098">
        <ele>1158.1926</ele>
        <time>2020-09-15 06:57:31</time>
      </trkpt>
      <trkpt lat="45.64965" lon="6.24102">
        <ele>1156.606</ele>
        <time>2020-09-15 06:57:37</time>
      </trkpt>
      <trkpt lat="45.64972" lon="6.241">
        <ele>1155.658</ele>
        <time>2020-09-15 06:57:44</time>
      </trkpt>
      <trkpt lat="45.64973" lon="6.241">
        <ele>1155.8809</ele>
        <time>2020-09-15 06:57:47</time>
      </trkpt>
      <trkpt lat="45.64983" lon="6.24097">
        <ele>1157.6713</ele>
        <time>2020-09-15 06:58:00</time>
      </trkpt>
      <trkpt lat="45.64983" lon="6.24097">
        <ele>1157.3817</ele>
        <time>2020-09-15 06:58:01</time>
      </trkpt>
      <trkpt lat="45.64984" lon="6.24096">
        <ele>1156.0896</ele>
        <time>2020-09-15 06:58:02</time>
      </trkpt>
      <trkpt lat="45.64985" lon="6.24096">
        <ele>1156.6234</ele>
        <time>2020-09-15 06:58:03</time>
      </trkpt>
      <trkpt lat="45.64988" lon="6.24095">
        <ele>1155.8986</ele>
        <time>2020-09-15 06:58:06</time>
      </trkpt>
      <trkpt lat="45.64991" lon="6.24094">
        <ele>1156.8711</ele>
        <time>2020-09-15 06:58:08</time>
      </trkpt>
      <trkpt lat="45.64992" lon="6.24093">
        <ele>1157.7039</ele>
        <time>2020-09-15 06:58:10</time>
      </trkpt>
      <trkpt lat="45.64993" lon="6.24093">
        <ele>1158.0308</ele>
        <time>2020-09-15 06:58:11</time>
      </trkpt>
      <trkpt lat="45.64993" lon="6.24092">
        <ele>1158.387</ele>
        <time>2020-09-15 06:58:12</time>
      </trkpt>
      <trkpt lat="45.64994" lon="6.24092">
        <ele>1157.8583</ele>
        <time>2020-09-15 06:58:13</time>
      </trkpt>
      <trkpt lat="45.64995" lon="6.24092">
        <ele>1158.068</ele>
        <time>2020-09-15 06:58:14</time>
      </trkpt>
      <trkpt lat="45.64997" lon="6.24091">
        <ele>1160.1226</ele>
        <time>2020-09-15 06:58:17</time>
      </trkpt>
      <trkpt lat="45.64998" lon="6.24092">
        <ele>1161.0891</ele>
        <time>2020-09-15 06:58:20</time>
      </trkpt>
      <trkpt lat="45.64999" lon="6.24092">
        <ele>1162.3766</ele>
        <time>2020-09-15 06:58:21</time>
      </trkpt>
      <trkpt lat="45.65" lon="6.24094">
        <ele>1159.379</ele>
        <time>2020-09-15 06:58:23</time>
      </trkpt>
      <trkpt lat="45.65001" lon="6.24095">
        <ele>1157.9761</ele>
        <time>2020-09-15 06:58:25</time>
      </trkpt>
      <trkpt lat="45.65003" lon="6.24096">
        <ele>1157.4235</ele>
        <time>2020-09-15 06:58:30</time>
      </trkpt>
      <trkpt lat="45.65004" lon="6.24095">
        <ele>1156.9778</ele>
        <time>2020-09-15 06:58:32</time>
      </trkpt>
      <trkpt lat="45.65005" lon="6.24095">
        <ele>1157.333</ele>
        <time>2020-09-15 06:58:33</time>
      </trkpt>
      <trkpt lat="45.65007" lon="6.24094">
        <ele>1158.1036</ele>
        <time>2020-09-15 06:58:35</time>
      </trkpt>
      <trkpt lat="45.65008" lon="6.24094">
        <ele>1157.9601</ele>
        <time>2020-09-15 06:58:36</time>
      </trkpt>
      <trkpt lat="45.65008" lon="6.24094">
        <ele>1158.6584</ele>
        <time>2020-09-15 06:58:37</time>
      </trkpt>
      <trkpt lat="45.65009" lon="6.24093">
        <ele>1157.6823</ele>
        <time>2020-09-15 06:58:39</time>
      </trkpt>
      <trkpt lat="45.65011" lon="6.24092">
        <ele>1159.0145</ele>
        <time>2020-09-15 06:58:43</time>
      </trkpt>
      <trkpt lat="45.6502" lon="6.24085">
        <ele>1161.3967</ele>
        <time>2020-09-15 06:58:52</time>
      </trkpt>
      <trkpt lat="45.65027" lon="6.24083">
        <ele>1161.5513</ele>
        <time>2020-09-15 06:58:59</time>
      </trkpt>
      <trkpt lat="45.65027" lon="6.24083">
        <ele>1163.4998</ele>
        <time>2020-09-15 06:59:01</time>
      </trkpt>
      <trkpt lat="45.65028" lon="6.24082">
        <ele>1162.0481</ele>
        <time>2020-09-15 06:59:02</time>
      </trkpt>
      <trkpt lat="45.65033" lon="6.24077">
        <ele>1161.2239</ele>
        <time>2020-09-15 06:59:10</time>
      </trkpt>
      <trkpt lat="45.65034" lon="6.24077">
        <ele>1161.3414</ele>
        <time>2020-09-15 06:59:12</time>
      </trkpt>
      <trkpt lat="45.65046" lon="6.24082">
        <ele>1168.0836</ele>
        <time>2020-09-15 06:59:29</time>
      </trkpt>
      <trkpt lat="45.65053" lon="6.24087">
        <ele>1166.3376</ele>
        <time>2020-09-15 06:59:39</time>
      </trkpt>
      <trkpt lat="45.65067" lon="6.24093">
        <ele>1170.6918</ele>
        <time>2020-09-15 06:59:56</time>
      </trkpt>
      <trkpt lat="45.65075" lon="6.241">
        <ele>1172.5555</ele>
        <time>2020-09-15 07:00:05</time>
      </trkpt>
      <trkpt lat="45.65075" lon="6.24101">
        <ele>1173.6147</ele>
        <time>2020-09-15 07:00:07</time>
      </trkpt>
      <trkpt lat="45.65079" lon="6.24107">
        <ele>1171.1603</ele>
        <time>2020-09-15 07:00:19</time>
      </trkpt>
      <trkpt lat="45.6508" lon="6.24107">
        <ele>1170.1724</ele>
        <time>2020-09-15 07:00:20</time>
      </trkpt>
      <trkpt lat="45.65081" lon="6.24109">
        <ele>1167.5028</ele>
        <time>2020-09-15 07:00:23</time>
      </trkpt>
      <trkpt lat="45.65082" lon="6.2411">
        <ele>1167.9114</ele>
        <time>2020-09-15 07:00:24</time>
      </trkpt>
      <trkpt lat="45.65083" lon="6.24111">
        <ele>1173.0303</ele>
        <time>2020-09-15 07:00:28</time>
      </trkpt>
      <trkpt lat="45.65083" lon="6.24111">
        <ele>1173.8547</ele>
        <time>2020-09-15 07:00:29</time>
      </trkpt>
      <trkpt lat="45.65085" lon="6.24114">
        <ele>1179.9557</ele>
        <time>2020-09-15 07:00:38</time>
      </trkpt>
      <trkpt lat="45.65086" lon="6.24115">
        <ele>1181.0856</ele>
        <time>2020-09-15 07:00:40</time>
      </trkpt>
      <trkpt lat="45.65087" lon="6.24117">
        <ele>1182.249</ele>
        <time>2020-09-15 07:00:43</time>
      </trkpt>
      <trkpt lat="45.65088" lon="6.24117">
        <ele>1182.1592</ele>
        <time>2020-09-15 07:00:44</time>
      </trkpt>
      <trkpt lat="45.65089" lon="6.24119">
        <ele>1182.1718</ele>
        <time>2020-09-15 07:00:46</time>
      </trkpt>
      <trkpt lat="45.6509" lon="6.2412">
        <ele>1180.1987</ele>
        <time>2020-09-15 07:00:48</time>
      </trkpt>
      <trkpt lat="45.65091" lon="6.2412">
        <ele>1181.0856</ele>
        <time>2020-09-15 07:00:49</time>
      </trkpt>
      <trkpt lat="45.65093" lon="6.24121">
        <ele>1176.7686</ele>
        <time>2020-09-15 07:00:51</time>
      </trkpt>
      <trkpt lat="45.65094" lon="6.24123">
        <ele>1175.9291</ele>
        <time>2020-09-15 07:00:53</time>
      </trkpt>
      <trkpt lat="45.65095" lon="6.24123">
        <ele>1176.8282</ele>
        <time>2020-09-15 07:00:54</time>
      </trkpt>
      <trkpt lat="45.65096" lon="6.24123">
        <ele>1176.6532</ele>
        <time>2020-09-15 07:00:55</time>
      </trkpt>
      <trkpt lat="45.65096" lon="6.24124">
        <ele>1177.8282</ele>
        <time>2020-09-15 07:00:56</time>
      </trkpt>
      <trkpt lat="45.65097" lon="6.24124">
        <ele>1175.4116</ele>
        <time>2020-09-15 07:00:57</time>
      </trkpt>
      <trkpt lat="45.65099" lon="6.24124">
        <ele>1175.6509</ele>
        <time>2020-09-15 07:00:58</time>
      </trkpt>
      <trkpt lat="45.651" lon="6.24124">
        <ele>1179.0261</ele>
        <time>2020-09-15 07:00:59</time>
      </trkpt>
      <trkpt lat="45.6511" lon="6.24124">
        <ele>1175.5707</ele>
        <time>2020-09-15 07:01:10</time>
      </trkpt>
      <trkpt lat="45.6511" lon="6.24124">
        <ele>1176.1752</ele>
        <time>2020-09-15 07:01:11</time>
      </trkpt>
      <trkpt lat="45.65116" lon="6.24123">
        <ele>1176.4218</ele>
        <time>2020-09-15 07:01:20</time>
      </trkpt>
      <trkpt lat="45.65116" lon="6.24122">
        <ele>1176.4769</ele>
        <time>2020-09-15 07:01:21</time>
      </trkpt>
      <trkpt lat="45.65125" lon="6.24113">
        <ele>1176.3634</ele>
        <time>2020-09-15 07:01:33</time>
      </trkpt>
      <trkpt lat="45.65129" lon="6.24112">
        <ele>1176.1968</ele>
        <time>2020-09-15 07:01:37</time>
      </trkpt>
      <trkpt lat="45.65129" lon="6.24112">
        <ele>1176.9175</ele>
        <time>2020-09-15 07:01:38</time>
      </trkpt>
      <trkpt lat="45.65139" lon="6.24114">
        <ele>1185.6206</ele>
        <time>2020-09-15 07:01:51</time>
      </trkpt>
      <trkpt lat="45.65139" lon="6.24114">
        <ele>1186.5023</ele>
        <time>2020-09-15 07:01:52</time>
      </trkpt>
      <trkpt lat="45.65139" lon="6.24115">
        <ele>1185.3341</ele>
        <time>2020-09-15 07:01:53</time>
      </trkpt>
      <trkpt lat="45.65139" lon="6.24116">
        <ele>1185.0806</ele>
        <time>2020-09-15 07:01:54</time>
      </trkpt>
      <trkpt lat="45.65138" lon="6.24117">
        <ele>1185.5408</ele>
        <time>2020-09-15 07:01:55</time>
      </trkpt>
      <trkpt lat="45.65138" lon="6.24118">
        <ele>1186.3381</ele>
        <time>2020-09-15 07:01:56</time>
      </trkpt>
      <trkpt lat="45.65138" lon="6.2412">
        <ele>1187.2065</ele>
        <time>2020-09-15 07:01:58</time>
      </trkpt>
      <trkpt lat="45.65138" lon="6.24121">
        <ele>1186.3708</ele>
        <time>2020-09-15 07:01:59</time>
      </trkpt>
      <trkpt lat="45.65138" lon="6.24123">
        <ele>1185.4198</ele>
        <time>2020-09-15 07:02:00</time>
      </trkpt>
      <trkpt lat="45.65139" lon="6.24126">
        <ele>1184.761</ele>
        <time>2020-09-15 07:02:02</time>
      </trkpt>
      <trkpt lat="45.6514" lon="6.24127">
        <ele>1184.0061</ele>
        <time>2020-09-15 07:02:03</time>
      </trkpt>
      <trkpt lat="45.65141" lon="6.24128">
        <ele>1184.0005</ele>
        <time>2020-09-15 07:02:04</time>
      </trkpt>
      <trkpt lat="45.65141" lon="6.24128">
        <ele>1185.5106</ele>
        <time>2020-09-15 07:02:05</time>
      </trkpt>
      <trkpt lat="45.65142" lon="6.24129">
        <ele>1184.582</ele>
        <time>2020-09-15 07:02:06</time>
      </trkpt>
      <trkpt lat="45.65143" lon="6.2413">
        <ele>1187.1003</ele>
        <time>2020-09-15 07:02:10</time>
      </trkpt>
      <trkpt lat="45.65169" lon="6.24135">
        <ele>1188.3175</ele>
        <time>2020-09-15 07:02:37</time>
      </trkpt>
      <trkpt lat="45.65171" lon="6.24134">
        <ele>1186.4233</ele>
        <time>2020-09-15 07:02:50</time>
      </trkpt>
      <trkpt lat="45.65173" lon="6.24134">
        <ele>1188.0306</ele>
        <time>2020-09-15 07:02:52</time>
      </trkpt>
      <trkpt lat="45.65184" lon="6.24131">
        <ele>1187.487</ele>
        <time>2020-09-15 07:03:00</time>
      </trkpt>
      <trkpt lat="45.65185" lon="6.2413">
        <ele>1187.3818</ele>
        <time>2020-09-15 07:03:02</time>
      </trkpt>
      <trkpt lat="45.65186" lon="6.24129">
        <ele>1186.8176</ele>
        <time>2020-09-15 07:03:03</time>
      </trkpt>
      <trkpt lat="45.65187" lon="6.24128">
        <ele>1186.9662</ele>
        <time>2020-09-15 07:03:04</time>
      </trkpt>
      <trkpt lat="45.65188" lon="6.24128">
        <ele>1188.406</ele>
        <time>2020-09-15 07:03:06</time>
      </trkpt>
      <trkpt lat="45.65189" lon="6.24127">
        <ele>1187.5707</ele>
        <time>2020-09-15 07:03:08</time>
      </trkpt>
      <trkpt lat="45.6519" lon="6.24126">
        <ele>1187.0613</ele>
        <time>2020-09-15 07:03:09</time>
      </trkpt>
      <trkpt lat="45.65192" lon="6.24125">
        <ele>1187.6964</ele>
        <time>2020-09-15 07:03:11</time>
      </trkpt>
      <trkpt lat="45.65194" lon="6.24123">
        <ele>1183.9945</ele>
        <time>2020-09-15 07:03:13</time>
      </trkpt>
      <trkpt lat="45.65194" lon="6.24122">
        <ele>1183.9854</ele>
        <time>2020-09-15 07:03:14</time>
      </trkpt>
      <trkpt lat="45.65196" lon="6.24121">
        <ele>1184.121</ele>
        <time>2020-09-15 07:03:16</time>
      </trkpt>
      <trkpt lat="45.65199" lon="6.24118">
        <ele>1183.5579</ele>
        <time>2020-09-15 07:03:21</time>
      </trkpt>
      <trkpt lat="45.65203" lon="6.24118">
        <ele>1183.732</ele>
        <time>2020-09-15 07:03:25</time>
      </trkpt>
      <trkpt lat="45.65204" lon="6.24117">
        <ele>1183.231</ele>
        <time>2020-09-15 07:03:26</time>
      </trkpt>
      <trkpt lat="45.65209" lon="6.24116">
        <ele>1184.8405</ele>
        <time>2020-09-15 07:03:33</time>
      </trkpt>
      <trkpt lat="45.65211" lon="6.24116">
        <ele>1184.7188</ele>
        <time>2020-09-15 07:03:35</time>
      </trkpt>
      <trkpt lat="45.65211" lon="6.24116">
        <ele>1184.458</ele>
        <time>2020-09-15 07:03:36</time>
      </trkpt>
      <trkpt lat="45.65213" lon="6.24115">
        <ele>1183.7043</ele>
        <time>2020-09-15 07:03:38</time>
      </trkpt>
      <trkpt lat="45.65215" lon="6.24115">
        <ele>1184.8247</ele>
        <time>2020-09-15 07:03:41</time>
      </trkpt>
      <trkpt lat="45.65217" lon="6.24114">
        <ele>1184.0923</ele>
        <time>2020-09-15 07:03:43</time>
      </trkpt>
      <trkpt lat="45.6522" lon="6.24114">
        <ele>1183.934</ele>
        <time>2020-09-15 07:03:47</time>
      </trkpt>
      <trkpt lat="45.65227" lon="6.2411">
        <ele>1183.1611</ele>
        <time>2020-09-15 07:04:00</time>
      </trkpt>
      <trkpt lat="45.65228" lon="6.24108">
        <ele>1182.9406</ele>
        <time>2020-09-15 07:04:03</time>
      </trkpt>
      <trkpt lat="45.65231" lon="6.24107">
        <ele>1183.7125</ele>
        <time>2020-09-15 07:04:07</time>
      </trkpt>
      <trkpt lat="45.65231" lon="6.24106">
        <ele>1183.7485</ele>
        <time>2020-09-15 07:04:08</time>
      </trkpt>
      <trkpt lat="45.65232" lon="6.24106">
        <ele>1183.8171</ele>
        <time>2020-09-15 07:04:09</time>
      </trkpt>
      <trkpt lat="45.65234" lon="6.24104">
        <ele>1183.5043</ele>
        <time>2020-09-15 07:04:12</time>
      </trkpt>
      <trkpt lat="45.65235" lon="6.24102">
        <ele>1183.7236</ele>
        <time>2020-09-15 07:04:14</time>
      </trkpt>
      <trkpt lat="45.65236" lon="6.24102">
        <ele>1184.2037</ele>
        <time>2020-09-15 07:04:15</time>
      </trkpt>
      <trkpt lat="45.65238" lon="6.24099">
        <ele>1184.6954</ele>
        <time>2020-09-15 07:04:19</time>
      </trkpt>
      <trkpt lat="45.65238" lon="6.24099">
        <ele>1184.8646</ele>
        <time>2020-09-15 07:04:20</time>
      </trkpt>
      <trkpt lat="45.65239" lon="6.24098">
        <ele>1184.9012</ele>
        <time>2020-09-15 07:04:22</time>
      </trkpt>
      <trkpt lat="45.6524" lon="6.24098">
        <ele>1185.0883</ele>
        <time>2020-09-15 07:04:23</time>
      </trkpt>
      <trkpt lat="45.65241" lon="6.24097">
        <ele>1184.5226</ele>
        <time>2020-09-15 07:04:24</time>
      </trkpt>
      <trkpt lat="45.65247" lon="6.24097">
        <ele>1188.2957</ele>
        <time>2020-09-15 07:04:32</time>
      </trkpt>
      <trkpt lat="45.65248" lon="6.24097">
        <ele>1188.1268</ele>
        <time>2020-09-15 07:04:35</time>
      </trkpt>
      <trkpt lat="45.65253" lon="6.24093">
        <ele>1186.7766</ele>
        <time>2020-09-15 07:04:42</time>
      </trkpt>
      <trkpt lat="45.65257" lon="6.24091">
        <ele>1186.6997</ele>
        <time>2020-09-15 07:04:47</time>
      </trkpt>
      <trkpt lat="45.65259" lon="6.24089">
        <ele>1185.1067</ele>
        <time>2020-09-15 07:04:50</time>
      </trkpt>
      <trkpt lat="45.65263" lon="6.24085">
        <ele>1186.2448</ele>
        <time>2020-09-15 07:04:57</time>
      </trkpt>
      <trkpt lat="45.65264" lon="6.24084">
        <ele>1185.8254</ele>
        <time>2020-09-15 07:05:00</time>
      </trkpt>
      <trkpt lat="45.65265" lon="6.24083">
        <ele>1185.7399</ele>
        <time>2020-09-15 07:05:02</time>
      </trkpt>
      <trkpt lat="45.65266" lon="6.24083">
        <ele>1185.5085</ele>
        <time>2020-09-15 07:05:03</time>
      </trkpt>
      <trkpt lat="45.6527" lon="6.24082">
        <ele>1185.8127</ele>
        <time>2020-09-15 07:05:10</time>
      </trkpt>
      <trkpt lat="45.65269" lon="6.24079">
        <ele>1186.667</ele>
        <time>2020-09-15 07:05:16</time>
      </trkpt>
      <trkpt lat="45.6527" lon="6.24078">
        <ele>1185.8127</ele>
        <time>2020-09-15 07:05:19</time>
      </trkpt>
      <trkpt lat="45.65271" lon="6.24078">
        <ele>1184.7521</ele>
        <time>2020-09-15 07:05:20</time>
      </trkpt>
      <trkpt lat="45.65273" lon="6.24078">
        <ele>1184.6089</ele>
        <time>2020-09-15 07:05:22</time>
      </trkpt>
      <trkpt lat="45.65273" lon="6.24077">
        <ele>1185.1504</ele>
        <time>2020-09-15 07:05:23</time>
      </trkpt>
      <trkpt lat="45.65274" lon="6.24075">
        <ele>1184.638</ele>
        <time>2020-09-15 07:05:26</time>
      </trkpt>
      <trkpt lat="45.65276" lon="6.24075">
        <ele>1184.7521</ele>
        <time>2020-09-15 07:05:29</time>
      </trkpt>
      <trkpt lat="45.65276" lon="6.24074">
        <ele>1185.294</ele>
        <time>2020-09-15 07:05:30</time>
      </trkpt>
      <trkpt lat="45.65277" lon="6.24073">
        <ele>1185.7533</ele>
        <time>2020-09-15 07:05:33</time>
      </trkpt>
      <trkpt lat="45.65278" lon="6.24072">
        <ele>1185.6758</ele>
        <time>2020-09-15 07:05:34</time>
      </trkpt>
      <trkpt lat="45.65278" lon="6.24071">
        <ele>1185.8009</ele>
        <time>2020-09-15 07:05:36</time>
      </trkpt>
      <trkpt lat="45.65278" lon="6.24071">
        <ele>1186.1896</ele>
        <time>2020-09-15 07:05:38</time>
      </trkpt>
      <trkpt lat="45.65279" lon="6.24071">
        <ele>1185.294</ele>
        <time>2020-09-15 07:05:39</time>
      </trkpt>
      <trkpt lat="45.6528" lon="6.24071">
        <ele>1187.2723</ele>
        <time>2020-09-15 07:05:41</time>
      </trkpt>
      <trkpt lat="45.65281" lon="6.24072">
        <ele>1187.3035</ele>
        <time>2020-09-15 07:05:42</time>
      </trkpt>
      <trkpt lat="45.65281" lon="6.24073">
        <ele>1187.8356</ele>
        <time>2020-09-15 07:05:44</time>
      </trkpt>
      <trkpt lat="45.65282" lon="6.24073">
        <ele>1188.0676</ele>
        <time>2020-09-15 07:05:46</time>
      </trkpt>
      <trkpt lat="45.65282" lon="6.24073">
        <ele>1186.891</ele>
        <time>2020-09-15 07:05:49</time>
      </trkpt>
      <trkpt lat="45.65285" lon="6.24076">
        <ele>1189.8873</ele>
        <time>2020-09-15 07:05:54</time>
      </trkpt>
      <trkpt lat="45.65285" lon="6.24075">
        <ele>1189.6934</ele>
        <time>2020-09-15 07:05:56</time>
      </trkpt>
      <trkpt lat="45.65286" lon="6.24076">
        <ele>1188.8448</ele>
        <time>2020-09-15 07:05:57</time>
      </trkpt>
      <trkpt lat="45.6529" lon="6.24075">
        <ele>1190.1967</ele>
        <time>2020-09-15 07:06:02</time>
      </trkpt>
      <trkpt lat="45.65291" lon="6.24076">
        <ele>1189.9003</ele>
        <time>2020-09-15 07:06:05</time>
      </trkpt>
      <trkpt lat="45.65293" lon="6.24075">
        <ele>1189.3561</ele>
        <time>2020-09-15 07:06:09</time>
      </trkpt>
      <trkpt lat="45.65296" lon="6.24076">
        <ele>1194.4785</ele>
        <time>2020-09-15 07:06:16</time>
      </trkpt>
      <trkpt lat="45.653" lon="6.24075">
        <ele>1194.4445</ele>
        <time>2020-09-15 07:06:22</time>
      </trkpt>
      <trkpt lat="45.65301" lon="6.24076">
        <ele>1196.1505</ele>
        <time>2020-09-15 07:06:30</time>
      </trkpt>
      <trkpt lat="45.65304" lon="6.24076">
        <ele>1195.8861</ele>
        <time>2020-09-15 07:06:34</time>
      </trkpt>
      <trkpt lat="45.65305" lon="6.24076">
        <ele>1196.134</ele>
        <time>2020-09-15 07:06:35</time>
      </trkpt>
      <trkpt lat="45.65308" lon="6.24076">
        <ele>1196.893</ele>
        <time>2020-09-15 07:06:40</time>
      </trkpt>
      <trkpt lat="45.65308" lon="6.24076">
        <ele>1197.3745</ele>
        <time>2020-09-15 07:06:41</time>
      </trkpt>
      <trkpt lat="45.65309" lon="6.24076">
        <ele>1197.5652</ele>
        <time>2020-09-15 07:06:42</time>
      </trkpt>
      <trkpt lat="45.6531" lon="6.24075">
        <ele>1197.9202</ele>
        <time>2020-09-15 07:06:46</time>
      </trkpt>
      <trkpt lat="45.65313" lon="6.24074">
        <ele>1199.0155</ele>
        <time>2020-09-15 07:06:52</time>
      </trkpt>
      <trkpt lat="45.65313" lon="6.24074">
        <ele>1200.6156</ele>
        <time>2020-09-15 07:06:54</time>
      </trkpt>
      <trkpt lat="45.65314" lon="6.24074">
        <ele>1201.0336</ele>
        <time>2020-09-15 07:06:58</time>
      </trkpt>
      <trkpt lat="45.65314" lon="6.24075">
        <ele>1200.5461</ele>
        <time>2020-09-15 07:07:01</time>
      </trkpt>
      <trkpt lat="45.65315" lon="6.24076">
        <ele>1203.1001</ele>
        <time>2020-09-15 07:07:04</time>
      </trkpt>
      <trkpt lat="45.65315" lon="6.24076">
        <ele>1201.4016</ele>
        <time>2020-09-15 07:07:06</time>
      </trkpt>
      <trkpt lat="45.65316" lon="6.24076">
        <ele>1201.5834</ele>
        <time>2020-09-15 07:07:08</time>
      </trkpt>
      <trkpt lat="45.65317" lon="6.24076">
        <ele>1201.7036</ele>
        <time>2020-09-15 07:07:12</time>
      </trkpt>
      <trkpt lat="45.65319" lon="6.24077">
        <ele>1205.6444</ele>
        <time>2020-09-15 07:07:17</time>
      </trkpt>
      <trkpt lat="45.65318" lon="6.24077">
        <ele>1208.5541</ele>
        <time>2020-09-15 07:07:22</time>
      </trkpt>
      <trkpt lat="45.65319" lon="6.24077">
        <ele>1209.4417</ele>
        <time>2020-09-15 07:07:23</time>
      </trkpt>
      <trkpt lat="45.65319" lon="6.24078">
        <ele>1209.4559</ele>
        <time>2020-09-15 07:07:24</time>
      </trkpt>
      <trkpt lat="45.6532" lon="6.24078">
        <ele>1210.4684</ele>
        <time>2020-09-15 07:07:25</time>
      </trkpt>
      <trkpt lat="45.6532" lon="6.24078">
        <ele>1210.8767</ele>
        <time>2020-09-15 07:07:26</time>
      </trkpt>
      <trkpt lat="45.65322" lon="6.24078">
        <ele>1210.0999</ele>
        <time>2020-09-15 07:07:28</time>
      </trkpt>
      <trkpt lat="45.65324" lon="6.24078">
        <ele>1212.7275</ele>
        <time>2020-09-15 07:07:31</time>
      </trkpt>
      <trkpt lat="45.65326" lon="6.24078">
        <ele>1213.8062</ele>
        <time>2020-09-15 07:07:34</time>
      </trkpt>
      <trkpt lat="45.65328" lon="6.24077">
        <ele>1212.9126</ele>
        <time>2020-09-15 07:07:37</time>
      </trkpt>
      <trkpt lat="45.65329" lon="6.24077">
        <ele>1212.422</ele>
        <time>2020-09-15 07:07:38</time>
      </trkpt>
      <trkpt lat="45.65331" lon="6.24076">
        <ele>1213.0118</ele>
        <time>2020-09-15 07:07:40</time>
      </trkpt>
      <trkpt lat="45.65332" lon="6.24074">
        <ele>1220.5994</ele>
        <time>2020-09-15 07:07:46</time>
      </trkpt>
      <trkpt lat="45.65333" lon="6.24074">
        <ele>1220.1312</ele>
        <time>2020-09-15 07:07:47</time>
      </trkpt>
      <trkpt lat="45.65333" lon="6.24075">
        <ele>1220.4086</ele>
        <time>2020-09-15 07:07:49</time>
      </trkpt>
      <trkpt lat="45.65333" lon="6.24075">
        <ele>1219.971</ele>
        <time>2020-09-15 07:07:51</time>
      </trkpt>
      <trkpt lat="45.65336" lon="6.24073">
        <ele>1220.4685</ele>
        <time>2020-09-15 07:07:54</time>
      </trkpt>
      <trkpt lat="45.6534" lon="6.24072">
        <ele>1219.4651</ele>
        <time>2020-09-15 07:08:01</time>
      </trkpt>
      <trkpt lat="45.65344" lon="6.24072">
        <ele>1214.8458</ele>
        <time>2020-09-15 07:08:04</time>
      </trkpt>
      <trkpt lat="45.65351" lon="6.2407">
        <ele>1213.6099</ele>
        <time>2020-09-15 07:08:10</time>
      </trkpt>
      <trkpt lat="45.65353" lon="6.24069">
        <ele>1214.2773</ele>
        <time>2020-09-15 07:08:13</time>
      </trkpt>
      <trkpt lat="45.65354" lon="6.24069">
        <ele>1215.2878</ele>
        <time>2020-09-15 07:08:15</time>
      </trkpt>
      <trkpt lat="45.65363" lon="6.24067">
        <ele>1216.2734</ele>
        <time>2020-09-15 07:08:30</time>
      </trkpt>
      <trkpt lat="45.65363" lon="6.24067">
        <ele>1215.9928</ele>
        <time>2020-09-15 07:08:31</time>
      </trkpt>
      <trkpt lat="45.65365" lon="6.24067">
        <ele>1214.9017</ele>
        <time>2020-09-15 07:08:33</time>
      </trkpt>
      <trkpt lat="45.65366" lon="6.24068">
        <ele>1215.7018</ele>
        <time>2020-09-15 07:08:34</time>
      </trkpt>
      <trkpt lat="45.65368" lon="6.24069">
        <ele>1212.0812</ele>
        <time>2020-09-15 07:08:37</time>
      </trkpt>
      <trkpt lat="45.65369" lon="6.24069">
        <ele>1210.4338</ele>
        <time>2020-09-15 07:08:38</time>
      </trkpt>
      <trkpt lat="45.65371" lon="6.24069">
        <ele>1209.6627</ele>
        <time>2020-09-15 07:08:39</time>
      </trkpt>
      <trkpt lat="45.65375" lon="6.24069">
        <ele>1206.3264</ele>
        <time>2020-09-15 07:08:43</time>
      </trkpt>
      <trkpt lat="45.65376" lon="6.24069">
        <ele>1205.8972</ele>
        <time>2020-09-15 07:08:44</time>
      </trkpt>
      <trkpt lat="45.65379" lon="6.2407">
        <ele>1206.173</ele>
        <time>2020-09-15 07:08:46</time>
      </trkpt>
      <trkpt lat="45.65381" lon="6.24071">
        <ele>1212.9515</ele>
        <time>2020-09-15 07:08:50</time>
      </trkpt>
      <trkpt lat="45.65381" lon="6.24071">
        <ele>1212.5531</ele>
        <time>2020-09-15 07:08:52</time>
      </trkpt>
      <trkpt lat="45.65382" lon="6.24072">
        <ele>1215.0754</ele>
        <time>2020-09-15 07:08:54</time>
      </trkpt>
      <trkpt lat="45.65382" lon="6.24073">
        <ele>1215.8702</ele>
        <time>2020-09-15 07:08:55</time>
      </trkpt>
      <trkpt lat="45.65382" lon="6.24074">
        <ele>1217.3802</ele>
        <time>2020-09-15 07:08:56</time>
      </trkpt>
      <trkpt lat="45.65383" lon="6.24074">
        <ele>1219.1221</ele>
        <time>2020-09-15 07:08:57</time>
      </trkpt>
      <trkpt lat="45.65383" lon="6.24074">
        <ele>1219.9686</ele>
        <time>2020-09-15 07:08:58</time>
      </trkpt>
      <trkpt lat="45.65383" lon="6.24074">
        <ele>1220.2177</ele>
        <time>2020-09-15 07:08:59</time>
      </trkpt>
      <trkpt lat="45.65384" lon="6.24074">
        <ele>1220.5546</ele>
        <time>2020-09-15 07:09:00</time>
      </trkpt>
      <trkpt lat="45.65386" lon="6.24079">
        <ele>1222.6393</ele>
        <time>2020-09-15 07:09:10</time>
      </trkpt>
      <trkpt lat="45.65388" lon="6.2409">
        <ele>1229.2556</ele>
        <time>2020-09-15 07:09:28</time>
      </trkpt>
      <trkpt lat="45.65396" lon="6.24094">
        <ele>1231.1289</ele>
        <time>2020-09-15 07:09:46</time>
      </trkpt>
      <trkpt lat="45.65396" lon="6.24094">
        <ele>1230.9219</ele>
        <time>2020-09-15 07:09:47</time>
      </trkpt>
      <trkpt lat="45.65397" lon="6.24096">
        <ele>1231.5001</ele>
        <time>2020-09-15 07:09:54</time>
      </trkpt>
      <trkpt lat="45.65397" lon="6.24096">
        <ele>1233.0996</ele>
        <time>2020-09-15 07:10:01</time>
      </trkpt>
      <trkpt lat="45.65398" lon="6.24095">
        <ele>1233.1924</ele>
        <time>2020-09-15 07:10:02</time>
      </trkpt>
      <trkpt lat="45.65398" lon="6.24095">
        <ele>1233.9226</ele>
        <time>2020-09-15 07:10:03</time>
      </trkpt>
      <trkpt lat="45.65399" lon="6.24094">
        <ele>1233.8602</ele>
        <time>2020-09-15 07:10:04</time>
      </trkpt>
      <trkpt lat="45.654" lon="6.24094">
        <ele>1234.3612</ele>
        <time>2020-09-15 07:10:05</time>
      </trkpt>
      <trkpt lat="45.65401" lon="6.24094">
        <ele>1234.6149</ele>
        <time>2020-09-15 07:10:07</time>
      </trkpt>
      <trkpt lat="45.65403" lon="6.24094">
        <ele>1234.8069</ele>
        <time>2020-09-15 07:10:09</time>
      </trkpt>
      <trkpt lat="45.65406" lon="6.24094">
        <ele>1229.0472</ele>
        <time>2020-09-15 07:10:12</time>
      </trkpt>
      <trkpt lat="45.65407" lon="6.24094">
        <ele>1229.1234</ele>
        <time>2020-09-15 07:10:13</time>
      </trkpt>
      <trkpt lat="45.65409" lon="6.24094">
        <ele>1229.993</ele>
        <time>2020-09-15 07:10:16</time>
      </trkpt>
      <trkpt lat="45.6541" lon="6.24094">
        <ele>1231.1653</ele>
        <time>2020-09-15 07:10:18</time>
      </trkpt>
      <trkpt lat="45.65411" lon="6.24095">
        <ele>1230.7758</ele>
        <time>2020-09-15 07:10:19</time>
      </trkpt>
      <trkpt lat="45.65412" lon="6.24095">
        <ele>1230.3784</ele>
        <time>2020-09-15 07:10:20</time>
      </trkpt>
      <trkpt lat="45.65413" lon="6.24095">
        <ele>1233.0352</ele>
        <time>2020-09-15 07:10:22</time>
      </trkpt>
      <trkpt lat="45.65413" lon="6.24096">
        <ele>1234.0306</ele>
        <time>2020-09-15 07:10:23</time>
      </trkpt>
      <trkpt lat="45.65414" lon="6.24096">
        <ele>1233.9863</ele>
        <time>2020-09-15 07:10:24</time>
      </trkpt>
      <trkpt lat="45.65414" lon="6.24096">
        <ele>1233.2395</ele>
        <time>2020-09-15 07:10:25</time>
      </trkpt>
      <trkpt lat="45.65414" lon="6.24095">
        <ele>1233.2649</ele>
        <time>2020-09-15 07:10:26</time>
      </trkpt>
      <trkpt lat="45.65415" lon="6.24095">
        <ele>1232.976</ele>
        <time>2020-09-15 07:10:27</time>
      </trkpt>
      <trkpt lat="45.65415" lon="6.24094">
        <ele>1232.9908</ele>
        <time>2020-09-15 07:10:28</time>
      </trkpt>
      <trkpt lat="45.65416" lon="6.24095">
        <ele>1234.69</ele>
        <time>2020-09-15 07:10:29</time>
      </trkpt>
      <trkpt lat="45.65416" lon="6.24095">
        <ele>1237.1998</ele>
        <time>2020-09-15 07:10:31</time>
      </trkpt>
      <trkpt lat="45.65416" lon="6.24095">
        <ele>1237.8107</ele>
        <time>2020-09-15 07:10:32</time>
      </trkpt>
      <trkpt lat="45.65417" lon="6.24096">
        <ele>1239.9596</ele>
        <time>2020-09-15 07:10:36</time>
      </trkpt>
      <trkpt lat="45.65418" lon="6.24098">
        <ele>1240.4434</ele>
        <time>2020-09-15 07:10:39</time>
      </trkpt>
      <trkpt lat="45.65419" lon="6.24099">
        <ele>1241.2869</ele>
        <time>2020-09-15 07:10:41</time>
      </trkpt>
      <trkpt lat="45.65421" lon="6.24101">
        <ele>1241.6979</ele>
        <time>2020-09-15 07:10:51</time>
      </trkpt>
      <trkpt lat="45.65429" lon="6.24098">
        <ele>1241.8748</ele>
        <time>2020-09-15 07:11:06</time>
      </trkpt>
      <trkpt lat="45.6543" lon="6.24098">
        <ele>1242.0535</ele>
        <time>2020-09-15 07:11:07</time>
      </trkpt>
      <trkpt lat="45.65432" lon="6.24098">
        <ele>1245.94</ele>
        <time>2020-09-15 07:11:13</time>
      </trkpt>
      <trkpt lat="45.65432" lon="6.24098">
        <ele>1246.673</ele>
        <time>2020-09-15 07:11:14</time>
      </trkpt>
      <trkpt lat="45.65433" lon="6.24098">
        <ele>1247.9473</ele>
        <time>2020-09-15 07:11:16</time>
      </trkpt>
      <trkpt lat="45.65432" lon="6.24098">
        <ele>1247.8518</ele>
        <time>2020-09-15 07:11:17</time>
      </trkpt>
      <trkpt lat="45.6543" lon="6.24099">
        <ele>1250.0859</ele>
        <time>2020-09-15 07:11:21</time>
      </trkpt>
      <trkpt lat="45.65431" lon="6.241">
        <ele>1250.4686</ele>
        <time>2020-09-15 07:11:22</time>
      </trkpt>
      <trkpt lat="45.65431" lon="6.24101">
        <ele>1250.5454</ele>
        <time>2020-09-15 07:11:23</time>
      </trkpt>
      <trkpt lat="45.65431" lon="6.24101">
        <ele>1252.257</ele>
        <time>2020-09-15 07:11:24</time>
      </trkpt>
      <trkpt lat="45.65432" lon="6.24102">
        <ele>1251.5906</ele>
        <time>2020-09-15 07:11:25</time>
      </trkpt>
      <trkpt lat="45.65433" lon="6.24103">
        <ele>1251.1611</ele>
        <time>2020-09-15 07:11:27</time>
      </trkpt>
      <trkpt lat="45.65434" lon="6.24104">
        <ele>1250.0859</ele>
        <time>2020-09-15 07:11:29</time>
      </trkpt>
      <trkpt lat="45.65435" lon="6.24104">
        <ele>1250.3417</ele>
        <time>2020-09-15 07:11:31</time>
      </trkpt>
      <trkpt lat="45.65436" lon="6.24103">
        <ele>1251.2231</ele>
        <time>2020-09-15 07:11:33</time>
      </trkpt>
      <trkpt lat="45.65436" lon="6.24103">
        <ele>1250.4401</ele>
        <time>2020-09-15 07:11:34</time>
      </trkpt>
      <trkpt lat="45.65436" lon="6.24102">
        <ele>1251.6411</ele>
        <time>2020-09-15 07:11:35</time>
      </trkpt>
      <trkpt lat="45.65438" lon="6.24101">
        <ele>1246.6559</ele>
        <time>2020-09-15 07:11:37</time>
      </trkpt>
      <trkpt lat="45.65439" lon="6.24101">
        <ele>1245.7136</ele>
        <time>2020-09-15 07:11:38</time>
      </trkpt>
      <trkpt lat="45.65441" lon="6.24102">
        <ele>1247.4265</ele>
        <time>2020-09-15 07:11:41</time>
      </trkpt>
      <trkpt lat="45.65443" lon="6.24102">
        <ele>1247.916</ele>
        <time>2020-09-15 07:11:44</time>
      </trkpt>
      <trkpt lat="45.65443" lon="6.24102">
        <ele>1248.5844</ele>
        <time>2020-09-15 07:11:46</time>
      </trkpt>
      <trkpt lat="45.65444" lon="6.24102">
        <ele>1248.7633</ele>
        <time>2020-09-15 07:11:47</time>
      </trkpt>
      <trkpt lat="45.65444" lon="6.24102">
        <ele>1248.4355</ele>
        <time>2020-09-15 07:11:48</time>
      </trkpt>
      <trkpt lat="45.65445" lon="6.24102">
        <ele>1245.8967</ele>
        <time>2020-09-15 07:11:49</time>
      </trkpt>
      <trkpt lat="45.65445" lon="6.24102">
        <ele>1248.8712</ele>
        <time>2020-09-15 07:11:50</time>
      </trkpt>
      <trkpt lat="45.65447" lon="6.24102">
        <ele>1247.8989</ele>
        <time>2020-09-15 07:11:52</time>
      </trkpt>
      <trkpt lat="45.65447" lon="6.24103">
        <ele>1248.1844</ele>
        <time>2020-09-15 07:11:53</time>
      </trkpt>
      <trkpt lat="45.65448" lon="6.24103">
        <ele>1247.7279</ele>
        <time>2020-09-15 07:11:54</time>
      </trkpt>
      <trkpt lat="45.65449" lon="6.24103">
        <ele>1248.426</ele>
        <time>2020-09-15 07:11:55</time>
      </trkpt>
      <trkpt lat="45.65449" lon="6.24104">
        <ele>1248.7076</ele>
        <time>2020-09-15 07:11:56</time>
      </trkpt>
      <trkpt lat="45.6545" lon="6.24105">
        <ele>1252.0558</ele>
        <time>2020-09-15 07:12:04</time>
      </trkpt>
      <trkpt lat="45.65451" lon="6.24105">
        <ele>1251.6364</ele>
        <time>2020-09-15 07:12:05</time>
      </trkpt>
      <trkpt lat="45.6545" lon="6.24105">
        <ele>1251.5214</ele>
        <time>2020-09-15 07:12:06</time>
      </trkpt>
      <trkpt lat="45.65451" lon="6.24105">
        <ele>1250.7438</ele>
        <time>2020-09-15 07:12:08</time>
      </trkpt>
      <trkpt lat="45.65451" lon="6.24104">
        <ele>1251.3988</ele>
        <time>2020-09-15 07:12:09</time>
      </trkpt>
      <trkpt lat="45.65452" lon="6.24104">
        <ele>1251.5382</ele>
        <time>2020-09-15 07:12:10</time>
      </trkpt>
      <trkpt lat="45.65452" lon="6.24104">
        <ele>1252.0142</ele>
        <time>2020-09-15 07:12:12</time>
      </trkpt>
      <trkpt lat="45.65453" lon="6.24103">
        <ele>1252.3516</ele>
        <time>2020-09-15 07:12:13</time>
      </trkpt>
      <trkpt lat="45.65455" lon="6.24103">
        <ele>1253.6362</ele>
        <time>2020-09-15 07:12:17</time>
      </trkpt>
      <trkpt lat="45.65456" lon="6.24103">
        <ele>1253.4054</ele>
        <time>2020-09-15 07:12:18</time>
      </trkpt>
      <trkpt lat="45.65456" lon="6.24103">
        <ele>1251.638</ele>
        <time>2020-09-15 07:12:19</time>
      </trkpt>
      <trkpt lat="45.65457" lon="6.24103">
        <ele>1254.034</ele>
        <time>2020-09-15 07:12:20</time>
      </trkpt>
      <trkpt lat="45.65457" lon="6.24104">
        <ele>1253.6011</ele>
        <time>2020-09-15 07:12:21</time>
      </trkpt>
      <trkpt lat="45.65458" lon="6.24105">
        <ele>1254.2001</ele>
        <time>2020-09-15 07:12:22</time>
      </trkpt>
      <trkpt lat="45.65458" lon="6.24105">
        <ele>1254.0355</ele>
        <time>2020-09-15 07:12:23</time>
      </trkpt>
      <trkpt lat="45.65458" lon="6.24105">
        <ele>1254.1816</ele>
        <time>2020-09-15 07:12:24</time>
      </trkpt>
      <trkpt lat="45.65459" lon="6.24105">
        <ele>1254.2872</ele>
        <time>2020-09-15 07:12:25</time>
      </trkpt>
      <trkpt lat="45.65459" lon="6.24105">
        <ele>1254.782</ele>
        <time>2020-09-15 07:12:26</time>
      </trkpt>
      <trkpt lat="45.6546" lon="6.24105">
        <ele>1255.0116</ele>
        <time>2020-09-15 07:12:27</time>
      </trkpt>
      <trkpt lat="45.6546" lon="6.24104">
        <ele>1255.1932</ele>
        <time>2020-09-15 07:12:28</time>
      </trkpt>
      <trkpt lat="45.65461" lon="6.24103">
        <ele>1254.9413</ele>
        <time>2020-09-15 07:12:30</time>
      </trkpt>
      <trkpt lat="45.65462" lon="6.24103">
        <ele>1255.6329</ele>
        <time>2020-09-15 07:12:31</time>
      </trkpt>
      <trkpt lat="45.65464" lon="6.24102">
        <ele>1254.9036</ele>
        <time>2020-09-15 07:12:37</time>
      </trkpt>
      <trkpt lat="45.65465" lon="6.24102">
        <ele>1256.3932</ele>
        <time>2020-09-15 07:12:40</time>
      </trkpt>
      <trkpt lat="45.65465" lon="6.24101">
        <ele>1256.5831</ele>
        <time>2020-09-15 07:12:41</time>
      </trkpt>
      <trkpt lat="45.65466" lon="6.241">
        <ele>1256.8777</ele>
        <time>2020-09-15 07:12:50</time>
      </trkpt>
      <trkpt lat="45.65466" lon="6.241">
        <ele>1256.413</ele>
        <time>2020-09-15 07:12:51</time>
      </trkpt>
      <trkpt lat="45.65467" lon="6.241">
        <ele>1255.2941</ele>
        <time>2020-09-15 07:12:54</time>
      </trkpt>
      <trkpt lat="45.65468" lon="6.24099">
        <ele>1256.4636</ele>
        <time>2020-09-15 07:12:55</time>
      </trkpt>
      <trkpt lat="45.65469" lon="6.24099">
        <ele>1255.5222</ele>
        <time>2020-09-15 07:12:56</time>
      </trkpt>
      <trkpt lat="45.6547" lon="6.24098">
        <ele>1251.1012</ele>
        <time>2020-09-15 07:12:57</time>
      </trkpt>
      <trkpt lat="45.65474" lon="6.24098">
        <ele>1252.9467</ele>
        <time>2020-09-15 07:13:01</time>
      </trkpt>
      <trkpt lat="45.65475" lon="6.24097">
        <ele>1255.4061</ele>
        <time>2020-09-15 07:13:03</time>
      </trkpt>
      <trkpt lat="45.65475" lon="6.24096">
        <ele>1256.3818</ele>
        <time>2020-09-15 07:13:05</time>
      </trkpt>
      <trkpt lat="45.65475" lon="6.24096">
        <ele>1257.3639</ele>
        <time>2020-09-15 07:13:06</time>
      </trkpt>
      <trkpt lat="45.65476" lon="6.24096">
        <ele>1257.0559</ele>
        <time>2020-09-15 07:13:07</time>
      </trkpt>
      <trkpt lat="45.65476" lon="6.24096">
        <ele>1258.0116</ele>
        <time>2020-09-15 07:13:08</time>
      </trkpt>
      <trkpt lat="45.65477" lon="6.24096">
        <ele>1258.1572</ele>
        <time>2020-09-15 07:13:09</time>
      </trkpt>
      <trkpt lat="45.65477" lon="6.24096">
        <ele>1257.993</ele>
        <time>2020-09-15 07:13:10</time>
      </trkpt>
      <trkpt lat="45.65477" lon="6.24095">
        <ele>1257.548</ele>
        <time>2020-09-15 07:13:11</time>
      </trkpt>
      <trkpt lat="45.65477" lon="6.24095">
        <ele>1257.4637</ele>
        <time>2020-09-15 07:13:12</time>
      </trkpt>
      <trkpt lat="45.65477" lon="6.24095">
        <ele>1257.7383</ele>
        <time>2020-09-15 07:13:13</time>
      </trkpt>
      <trkpt lat="45.65478" lon="6.24094">
        <ele>1258.4586</ele>
        <time>2020-09-15 07:13:14</time>
      </trkpt>
      <trkpt lat="45.65478" lon="6.24091">
        <ele>1259.3206</ele>
        <time>2020-09-15 07:13:19</time>
      </trkpt>
      <trkpt lat="45.65479" lon="6.24091">
        <ele>1259.1332</ele>
        <time>2020-09-15 07:13:20</time>
      </trkpt>
      <trkpt lat="45.65479" lon="6.24091">
        <ele>1259.819</ele>
        <time>2020-09-15 07:13:21</time>
      </trkpt>
      <trkpt lat="45.6548" lon="6.24091">
        <ele>1259.4636</ele>
        <time>2020-09-15 07:13:22</time>
      </trkpt>
      <trkpt lat="45.65481" lon="6.24091">
        <ele>1258.0544</ele>
        <time>2020-09-15 07:13:24</time>
      </trkpt>
      <trkpt lat="45.65482" lon="6.24091">
        <ele>1257.7488</ele>
        <time>2020-09-15 07:13:25</time>
      </trkpt>
      <trkpt lat="45.65482" lon="6.24091">
        <ele>1258.775</ele>
        <time>2020-09-15 07:13:26</time>
      </trkpt>
      <trkpt lat="45.65482" lon="6.2409">
        <ele>1259.879</ele>
        <time>2020-09-15 07:13:27</time>
      </trkpt>
      <trkpt lat="45.65483" lon="6.2409">
        <ele>1259.3595</ele>
        <time>2020-09-15 07:13:28</time>
      </trkpt>
      <trkpt lat="45.65483" lon="6.2409">
        <ele>1258.6218</ele>
        <time>2020-09-15 07:13:29</time>
      </trkpt>
      <trkpt lat="45.65484" lon="6.24089">
        <ele>1258.2928</ele>
        <time>2020-09-15 07:13:30</time>
      </trkpt>
      <trkpt lat="45.65484" lon="6.24088">
        <ele>1258.86</ele>
        <time>2020-09-15 07:13:31</time>
      </trkpt>
      <trkpt lat="45.65484" lon="6.24088">
        <ele>1259.6333</ele>
        <time>2020-09-15 07:13:32</time>
      </trkpt>
      <trkpt lat="45.65484" lon="6.24089">
        <ele>1258.8036</ele>
        <time>2020-09-15 07:13:33</time>
      </trkpt>
      <trkpt lat="45.65486" lon="6.24089">
        <ele>1257.4532</ele>
        <time>2020-09-15 07:13:36</time>
      </trkpt>
      <trkpt lat="45.65486" lon="6.24088">
        <ele>1257.2054</ele>
        <time>2020-09-15 07:13:37</time>
      </trkpt>
      <trkpt lat="45.65488" lon="6.24087">
        <ele>1256.794</ele>
        <time>2020-09-15 07:13:39</time>
      </trkpt>
      <trkpt lat="45.65488" lon="6.24087">
        <ele>1257.2426</ele>
        <time>2020-09-15 07:13:40</time>
      </trkpt>
      <trkpt lat="45.65489" lon="6.24087">
        <ele>1257.8438</ele>
        <time>2020-09-15 07:13:41</time>
      </trkpt>
      <trkpt lat="45.6549" lon="6.24087">
        <ele>1257.8796</ele>
        <time>2020-09-15 07:13:45</time>
      </trkpt>
      <trkpt lat="45.6549" lon="6.24086">
        <ele>1258.2078</ele>
        <time>2020-09-15 07:13:46</time>
      </trkpt>
      <trkpt lat="45.65491" lon="6.24085">
        <ele>1258.7659</ele>
        <time>2020-09-15 07:13:48</time>
      </trkpt>
      <trkpt lat="45.65491" lon="6.24084">
        <ele>1259.6653</ele>
        <time>2020-09-15 07:13:49</time>
      </trkpt>
      <trkpt lat="45.65492" lon="6.24084">
        <ele>1260.4657</ele>
        <time>2020-09-15 07:13:50</time>
      </trkpt>
      <trkpt lat="45.65493" lon="6.24083">
        <ele>1261.7065</ele>
        <time>2020-09-15 07:13:53</time>
      </trkpt>
      <trkpt lat="45.65493" lon="6.24083">
        <ele>1262.3098</ele>
        <time>2020-09-15 07:13:54</time>
      </trkpt>
      <trkpt lat="45.65493" lon="6.24082">
        <ele>1262.7329</ele>
        <time>2020-09-15 07:13:55</time>
      </trkpt>
      <trkpt lat="45.65494" lon="6.24082">
        <ele>1262.6302</ele>
        <time>2020-09-15 07:13:57</time>
      </trkpt>
      <trkpt lat="45.65494" lon="6.24081">
        <ele>1262.8333</ele>
        <time>2020-09-15 07:13:58</time>
      </trkpt>
      <trkpt lat="45.65494" lon="6.24081">
        <ele>1263.6576</ele>
        <time>2020-09-15 07:14:01</time>
      </trkpt>
      <trkpt lat="45.65494" lon="6.24081">
        <ele>1264.5941</ele>
        <time>2020-09-15 07:14:03</time>
      </trkpt>
      <trkpt lat="45.65494" lon="6.24081">
        <ele>1265.3383</ele>
        <time>2020-09-15 07:14:04</time>
      </trkpt>
      <trkpt lat="45.65496" lon="6.24079">
        <ele>1267.6958</ele>
        <time>2020-09-15 07:14:07</time>
      </trkpt>
      <trkpt lat="45.65496" lon="6.24079">
        <ele>1268.4474</ele>
        <time>2020-09-15 07:14:08</time>
      </trkpt>
      <trkpt lat="45.65496" lon="6.24078">
        <ele>1267.6996</ele>
        <time>2020-09-15 07:14:09</time>
      </trkpt>
      <trkpt lat="45.65497" lon="6.24078">
        <ele>1267.9717</ele>
        <time>2020-09-15 07:14:11</time>
      </trkpt>
      <trkpt lat="45.65499" lon="6.24077">
        <ele>1267.9481</ele>
        <time>2020-09-15 07:14:15</time>
      </trkpt>
      <trkpt lat="45.65502" lon="6.24073">
        <ele>1268.57</ele>
        <time>2020-09-15 07:14:22</time>
      </trkpt>
      <trkpt lat="45.65503" lon="6.24072">
        <ele>1271.0272</ele>
        <time>2020-09-15 07:14:25</time>
      </trkpt>
      <trkpt lat="45.65503" lon="6.24072">
        <ele>1271.3142</ele>
        <time>2020-09-15 07:14:44</time>
      </trkpt>
      <trkpt lat="45.65505" lon="6.24072">
        <ele>1274.7333</ele>
        <time>2020-09-15 07:14:48</time>
      </trkpt>
      <trkpt lat="45.65505" lon="6.24071">
        <ele>1274.1766</ele>
        <time>2020-09-15 07:14:50</time>
      </trkpt>
      <trkpt lat="45.65506" lon="6.24071">
        <ele>1273.8734</ele>
        <time>2020-09-15 07:14:51</time>
      </trkpt>
      <trkpt lat="45.65511" lon="6.2407">
        <ele>1272.3159</ele>
        <time>2020-09-15 07:14:56</time>
      </trkpt>
      <trkpt lat="45.65511" lon="6.24069">
        <ele>1270.3627</ele>
        <time>2020-09-15 07:14:57</time>
      </trkpt>
      <trkpt lat="45.65512" lon="6.24069">
        <ele>1272.4789</ele>
        <time>2020-09-15 07:14:58</time>
      </trkpt>
      <trkpt lat="45.65512" lon="6.24069">
        <ele>1272.9202</ele>
        <time>2020-09-15 07:14:59</time>
      </trkpt>
      <trkpt lat="45.65513" lon="6.24069">
        <ele>1271.4781</ele>
        <time>2020-09-15 07:15:00</time>
      </trkpt>
      <trkpt lat="45.65517" lon="6.24069">
        <ele>1274.6411</ele>
        <time>2020-09-15 07:15:07</time>
      </trkpt>
      <trkpt lat="45.65518" lon="6.24069">
        <ele>1277.7145</ele>
        <time>2020-09-15 07:15:09</time>
      </trkpt>
      <trkpt lat="45.65519" lon="6.24069">
        <ele>1277.5624</ele>
        <time>2020-09-15 07:15:10</time>
      </trkpt>
      <trkpt lat="45.65519" lon="6.2407">
        <ele>1277.3464</ele>
        <time>2020-09-15 07:15:11</time>
      </trkpt>
      <trkpt lat="45.6552" lon="6.24069">
        <ele>1277.7225</ele>
        <time>2020-09-15 07:15:12</time>
      </trkpt>
      <trkpt lat="45.65521" lon="6.24069">
        <ele>1277.7987</ele>
        <time>2020-09-15 07:15:13</time>
      </trkpt>
      <trkpt lat="45.65522" lon="6.24068">
        <ele>1276.8698</ele>
        <time>2020-09-15 07:15:14</time>
      </trkpt>
      <trkpt lat="45.65529" lon="6.24066">
        <ele>1276.9551</ele>
        <time>2020-09-15 07:15:24</time>
      </trkpt>
      <trkpt lat="45.65529" lon="6.24065">
        <ele>1276.6875</ele>
        <time>2020-09-15 07:15:25</time>
      </trkpt>
      <trkpt lat="45.65533" lon="6.24063">
        <ele>1278.2512</ele>
        <time>2020-09-15 07:15:31</time>
      </trkpt>
      <trkpt lat="45.65534" lon="6.24061">
        <ele>1276.629</ele>
        <time>2020-09-15 07:15:35</time>
      </trkpt>
      <trkpt lat="45.65534" lon="6.2406">
        <ele>1276.1882</ele>
        <time>2020-09-15 07:15:36</time>
      </trkpt>
      <trkpt lat="45.65535" lon="6.2406">
        <ele>1275.881</ele>
        <time>2020-09-15 07:15:37</time>
      </trkpt>
      <trkpt lat="45.65536" lon="6.24058">
        <ele>1277.9304</ele>
        <time>2020-09-15 07:15:39</time>
      </trkpt>
      <trkpt lat="45.65537" lon="6.24057">
        <ele>1278.1362</ele>
        <time>2020-09-15 07:15:41</time>
      </trkpt>
      <trkpt lat="45.65539" lon="6.24055">
        <ele>1276.253</ele>
        <time>2020-09-15 07:15:44</time>
      </trkpt>
      <trkpt lat="45.65539" lon="6.24051">
        <ele>1278.3998</ele>
        <time>2020-09-15 07:15:50</time>
      </trkpt>
      <trkpt lat="45.65541" lon="6.24049">
        <ele>1280.7715</ele>
        <time>2020-09-15 07:15:53</time>
      </trkpt>
      <trkpt lat="45.65542" lon="6.24046">
        <ele>1281.8949</ele>
        <time>2020-09-15 07:15:57</time>
      </trkpt>
      <trkpt lat="45.65544" lon="6.24044">
        <ele>1278.3998</ele>
        <time>2020-09-15 07:15:59</time>
      </trkpt>
      <trkpt lat="45.65545" lon="6.24042">
        <ele>1280.3638</ele>
        <time>2020-09-15 07:16:01</time>
      </trkpt>
      <trkpt lat="45.65546" lon="6.24038">
        <ele>1279.5491</ele>
        <time>2020-09-15 07:16:04</time>
      </trkpt>
      <trkpt lat="45.65545" lon="6.24037">
        <ele>1280.9752</ele>
        <time>2020-09-15 07:16:05</time>
      </trkpt>
      <trkpt lat="45.65546" lon="6.24036">
        <ele>1280.5452</ele>
        <time>2020-09-15 07:16:07</time>
      </trkpt>
      <trkpt lat="45.65547" lon="6.24036">
        <ele>1281.801</ele>
        <time>2020-09-15 07:16:08</time>
      </trkpt>
      <trkpt lat="45.65548" lon="6.24035">
        <ele>1281.5754</ele>
        <time>2020-09-15 07:16:10</time>
      </trkpt>
      <trkpt lat="45.6556" lon="6.24034">
        <ele>1282.2974</ele>
        <time>2020-09-15 07:16:22</time>
      </trkpt>
      <trkpt lat="45.65564" lon="6.24035">
        <ele>1280.9629</ele>
        <time>2020-09-15 07:16:26</time>
      </trkpt>
      <trkpt lat="45.65567" lon="6.24036">
        <ele>1282.6755</ele>
        <time>2020-09-15 07:16:29</time>
      </trkpt>
      <trkpt lat="45.65569" lon="6.24036">
        <ele>1281.9447</ele>
        <time>2020-09-15 07:16:31</time>
      </trkpt>
      <trkpt lat="45.65573" lon="6.24037">
        <ele>1280.1217</ele>
        <time>2020-09-15 07:16:35</time>
      </trkpt>
      <trkpt lat="45.65574" lon="6.24036">
        <ele>1280.7451</ele>
        <time>2020-09-15 07:16:36</time>
      </trkpt>
      <trkpt lat="45.65576" lon="6.24034">
        <ele>1284.3951</ele>
        <time>2020-09-15 07:16:40</time>
      </trkpt>
      <trkpt lat="45.65576" lon="6.24033">
        <ele>1284.298</ele>
        <time>2020-09-15 07:16:41</time>
      </trkpt>
      <trkpt lat="45.65578" lon="6.24031">
        <ele>1283.2053</ele>
        <time>2020-09-15 07:16:45</time>
      </trkpt>
      <trkpt lat="45.6558" lon="6.2403">
        <ele>1284.5701</ele>
        <time>2020-09-15 07:16:48</time>
      </trkpt>
      <trkpt lat="45.65585" lon="6.24029">
        <ele>1285.6583</ele>
        <time>2020-09-15 07:16:54</time>
      </trkpt>
      <trkpt lat="45.65599" lon="6.2403">
        <ele>1286.4377</ele>
        <time>2020-09-15 07:17:13</time>
      </trkpt>
      <trkpt lat="45.65602" lon="6.2403">
        <ele>1286.2739</ele>
        <time>2020-09-15 07:17:16</time>
      </trkpt>
      <trkpt lat="45.65604" lon="6.24028">
        <ele>1287.3954</ele>
        <time>2020-09-15 07:17:21</time>
      </trkpt>
      <trkpt lat="45.65604" lon="6.24027">
        <ele>1287.8735</ele>
        <time>2020-09-15 07:17:22</time>
      </trkpt>
      <trkpt lat="45.65605" lon="6.24027">
        <ele>1287.2701</ele>
        <time>2020-09-15 07:17:24</time>
      </trkpt>
      <trkpt lat="45.65606" lon="6.24028">
        <ele>1286.249</ele>
        <time>2020-09-15 07:17:26</time>
      </trkpt>
      <trkpt lat="45.6561" lon="6.2403">
        <ele>1287.9031</ele>
        <time>2020-09-15 07:17:31</time>
      </trkpt>
      <trkpt lat="45.65612" lon="6.24031">
        <ele>1287.8888</ele>
        <time>2020-09-15 07:17:34</time>
      </trkpt>
      <trkpt lat="45.65613" lon="6.24031">
        <ele>1289.2218</ele>
        <time>2020-09-15 07:17:35</time>
      </trkpt>
      <trkpt lat="45.65615" lon="6.24033">
        <ele>1290.661</ele>
        <time>2020-09-15 07:17:38</time>
      </trkpt>
      <trkpt lat="45.65616" lon="6.24033">
        <ele>1286.883</ele>
        <time>2020-09-15 07:17:39</time>
      </trkpt>
      <trkpt lat="45.65617" lon="6.24032">
        <ele>1290.2506</ele>
        <time>2020-09-15 07:17:42</time>
      </trkpt>
      <trkpt lat="45.65618" lon="6.24032">
        <ele>1291.1503</ele>
        <time>2020-09-15 07:17:43</time>
      </trkpt>
      <trkpt lat="45.65618" lon="6.24032">
        <ele>1291.1323</ele>
        <time>2020-09-15 07:17:44</time>
      </trkpt>
      <trkpt lat="45.65619" lon="6.24032">
        <ele>1292.6676</ele>
        <time>2020-09-15 07:17:45</time>
      </trkpt>
      <trkpt lat="45.65621" lon="6.24033">
        <ele>1292.3397</ele>
        <time>2020-09-15 07:17:48</time>
      </trkpt>
      <trkpt lat="45.65622" lon="6.24033">
        <ele>1293.2279</ele>
        <time>2020-09-15 07:17:50</time>
      </trkpt>
      <trkpt lat="45.65622" lon="6.24034">
        <ele>1292.8877</ele>
        <time>2020-09-15 07:17:51</time>
      </trkpt>
      <trkpt lat="45.65623" lon="6.24035">
        <ele>1294.4442</ele>
        <time>2020-09-15 07:17:53</time>
      </trkpt>
      <trkpt lat="45.65623" lon="6.24035">
        <ele>1293.9081</ele>
        <time>2020-09-15 07:17:54</time>
      </trkpt>
      <trkpt lat="45.65623" lon="6.24035">
        <ele>1294.3038</ele>
        <time>2020-09-15 07:17:55</time>
      </trkpt>
      <trkpt lat="45.65624" lon="6.24035">
        <ele>1295.3232</ele>
        <time>2020-09-15 07:17:56</time>
      </trkpt>
      <trkpt lat="45.65625" lon="6.24035">
        <ele>1294.7295</ele>
        <time>2020-09-15 07:17:57</time>
      </trkpt>
      <trkpt lat="45.65627" lon="6.24035">
        <ele>1293.2279</ele>
        <time>2020-09-15 07:17:59</time>
      </trkpt>
      <trkpt lat="45.65628" lon="6.24035">
        <ele>1293.1915</ele>
        <time>2020-09-15 07:18:00</time>
      </trkpt>
      <trkpt lat="45.6563" lon="6.24035">
        <ele>1292.7573</ele>
        <time>2020-09-15 07:18:02</time>
      </trkpt>
      <trkpt lat="45.65631" lon="6.24035">
        <ele>1293.954</ele>
        <time>2020-09-15 07:18:03</time>
      </trkpt>
      <trkpt lat="45.65631" lon="6.24035">
        <ele>1294.8344</ele>
        <time>2020-09-15 07:18:04</time>
      </trkpt>
      <trkpt lat="45.65632" lon="6.24035">
        <ele>1289.8749</ele>
        <time>2020-09-15 07:18:05</time>
      </trkpt>
      <trkpt lat="45.65634" lon="6.24036">
        <ele>1293.1951</ele>
        <time>2020-09-15 07:18:08</time>
      </trkpt>
      <trkpt lat="45.65635" lon="6.24036">
        <ele>1292.6624</ele>
        <time>2020-09-15 07:18:09</time>
      </trkpt>
      <trkpt lat="45.65635" lon="6.24036">
        <ele>1293.2089</ele>
        <time>2020-09-15 07:18:10</time>
      </trkpt>
      <trkpt lat="45.65636" lon="6.24036">
        <ele>1293.693</ele>
        <time>2020-09-15 07:18:11</time>
      </trkpt>
      <trkpt lat="45.65644" lon="6.2404">
        <ele>1296.2179</ele>
        <time>2020-09-15 07:18:22</time>
      </trkpt>
      <trkpt lat="45.65644" lon="6.2404">
        <ele>1297.9543</ele>
        <time>2020-09-15 07:18:23</time>
      </trkpt>
      <trkpt lat="45.65644" lon="6.24039">
        <ele>1298.3984</ele>
        <time>2020-09-15 07:18:24</time>
      </trkpt>
      <trkpt lat="45.65654" lon="6.24038">
        <ele>1297.7965</ele>
        <time>2020-09-15 07:18:41</time>
      </trkpt>
      <trkpt lat="45.65661" lon="6.24038">
        <ele>1298.9156</ele>
        <time>2020-09-15 07:18:51</time>
      </trkpt>
      <trkpt lat="45.65662" lon="6.24038">
        <ele>1300.3591</ele>
        <time>2020-09-15 07:18:53</time>
      </trkpt>
      <trkpt lat="45.65668" lon="6.2404">
        <ele>1303.1394</ele>
        <time>2020-09-15 07:19:01</time>
      </trkpt>
      <trkpt lat="45.6567" lon="6.2404">
        <ele>1304.4796</ele>
        <time>2020-09-15 07:19:03</time>
      </trkpt>
      <trkpt lat="45.6567" lon="6.2404">
        <ele>1305.4127</ele>
        <time>2020-09-15 07:19:05</time>
      </trkpt>
      <trkpt lat="45.6567" lon="6.2404">
        <ele>1301.8795</ele>
        <time>2020-09-15 07:19:09</time>
      </trkpt>
      <trkpt lat="45.65671" lon="6.2404">
        <ele>1306.5875</ele>
        <time>2020-09-15 07:19:10</time>
      </trkpt>
      <trkpt lat="45.65671" lon="6.2404">
        <ele>1306.1713</ele>
        <time>2020-09-15 07:19:11</time>
      </trkpt>
      <trkpt lat="45.65674" lon="6.24042">
        <ele>1305.936</ele>
        <time>2020-09-15 07:19:24</time>
      </trkpt>
      <trkpt lat="45.65675" lon="6.24042">
        <ele>1306.3387</ele>
        <time>2020-09-15 07:19:26</time>
      </trkpt>
      <trkpt lat="45.65677" lon="6.24043">
        <ele>1305.3632</ele>
        <time>2020-09-15 07:19:30</time>
      </trkpt>
      <trkpt lat="45.65681" lon="6.24045">
        <ele>1304.6753</ele>
        <time>2020-09-15 07:19:33</time>
      </trkpt>
      <trkpt lat="45.65681" lon="6.24045">
        <ele>1305.3464</ele>
        <time>2020-09-15 07:19:34</time>
      </trkpt>
      <trkpt lat="45.65682" lon="6.24045">
        <ele>1304.9116</ele>
        <time>2020-09-15 07:19:35</time>
      </trkpt>
      <trkpt lat="45.65682" lon="6.24046">
        <ele>1306.7828</ele>
        <time>2020-09-15 07:19:36</time>
      </trkpt>
      <trkpt lat="45.65683" lon="6.24046">
        <ele>1306.6354</ele>
        <time>2020-09-15 07:19:37</time>
      </trkpt>
      <trkpt lat="45.65683" lon="6.24047">
        <ele>1306.853</ele>
        <time>2020-09-15 07:19:38</time>
      </trkpt>
      <trkpt lat="45.65684" lon="6.24047">
        <ele>1305.7869</ele>
        <time>2020-09-15 07:19:39</time>
      </trkpt>
      <trkpt lat="45.65686" lon="6.24049">
        <ele>1308.1726</ele>
        <time>2020-09-15 07:19:42</time>
      </trkpt>
      <trkpt lat="45.65687" lon="6.24051">
        <ele>1307.617</ele>
        <time>2020-09-15 07:19:45</time>
      </trkpt>
      <trkpt lat="45.65688" lon="6.24051">
        <ele>1305.9044</ele>
        <time>2020-09-15 07:19:46</time>
      </trkpt>
      <trkpt lat="45.65689" lon="6.24052">
        <ele>1305.762</ele>
        <time>2020-09-15 07:19:47</time>
      </trkpt>
      <trkpt lat="45.65689" lon="6.24052">
        <ele>1306.9796</ele>
        <time>2020-09-15 07:19:48</time>
      </trkpt>
      <trkpt lat="45.6569" lon="6.24052">
        <ele>1306.1566</ele>
        <time>2020-09-15 07:19:49</time>
      </trkpt>
      <trkpt lat="45.65692" lon="6.24054">
        <ele>1307.7059</ele>
        <time>2020-09-15 07:19:51</time>
      </trkpt>
      <trkpt lat="45.65694" lon="6.24053">
        <ele>1309.3711</ele>
        <time>2020-09-15 07:19:54</time>
      </trkpt>
      <trkpt lat="45.65697" lon="6.24055">
        <ele>1307.8013</ele>
        <time>2020-09-15 07:19:58</time>
      </trkpt>
      <trkpt lat="45.65698" lon="6.24055">
        <ele>1310.1803</ele>
        <time>2020-09-15 07:20:00</time>
      </trkpt>
      <trkpt lat="45.65699" lon="6.24055">
        <ele>1310.0027</ele>
        <time>2020-09-15 07:20:01</time>
      </trkpt>
      <trkpt lat="45.65699" lon="6.24055">
        <ele>1310.6136</ele>
        <time>2020-09-15 07:20:02</time>
      </trkpt>
      <trkpt lat="45.657" lon="6.24056">
        <ele>1312.0557</ele>
        <time>2020-09-15 07:20:04</time>
      </trkpt>
      <trkpt lat="45.65703" lon="6.24057">
        <ele>1311.3724</ele>
        <time>2020-09-15 07:20:09</time>
      </trkpt>
      <trkpt lat="45.65704" lon="6.24057">
        <ele>1312.4564</ele>
        <time>2020-09-15 07:20:10</time>
      </trkpt>
      <trkpt lat="45.65705" lon="6.24057">
        <ele>1312.181</ele>
        <time>2020-09-15 07:20:12</time>
      </trkpt>
      <trkpt lat="45.65706" lon="6.24057">
        <ele>1312.5837</ele>
        <time>2020-09-15 07:20:13</time>
      </trkpt>
      <trkpt lat="45.65709" lon="6.24059">
        <ele>1312.8134</ele>
        <time>2020-09-15 07:20:16</time>
      </trkpt>
      <trkpt lat="45.6571" lon="6.2406">
        <ele>1312.5338</ele>
        <time>2020-09-15 07:20:17</time>
      </trkpt>
      <trkpt lat="45.6571" lon="6.24061">
        <ele>1312.8467</ele>
        <time>2020-09-15 07:20:18</time>
      </trkpt>
      <trkpt lat="45.65711" lon="6.24061">
        <ele>1312.653</ele>
        <time>2020-09-15 07:20:19</time>
      </trkpt>
      <trkpt lat="45.65711" lon="6.24061">
        <ele>1312.8142</ele>
        <time>2020-09-15 07:20:20</time>
      </trkpt>
      <trkpt lat="45.65712" lon="6.24061">
        <ele>1314.7921</ele>
        <time>2020-09-15 07:20:23</time>
      </trkpt>
      <trkpt lat="45.65724" lon="6.24065">
        <ele>1318.7024</ele>
        <time>2020-09-15 07:20:42</time>
      </trkpt>
      <trkpt lat="45.65724" lon="6.24065">
        <ele>1319.2847</ele>
        <time>2020-09-15 07:20:43</time>
      </trkpt>
      <trkpt lat="45.65725" lon="6.24065">
        <ele>1317.9187</ele>
        <time>2020-09-15 07:20:44</time>
      </trkpt>
      <trkpt lat="45.65728" lon="6.24067">
        <ele>1318.8876</ele>
        <time>2020-09-15 07:20:49</time>
      </trkpt>
      <trkpt lat="45.65732" lon="6.24068">
        <ele>1319.846</ele>
        <time>2020-09-15 07:20:55</time>
      </trkpt>
      <trkpt lat="45.65733" lon="6.24068">
        <ele>1319.2671</ele>
        <time>2020-09-15 07:20:56</time>
      </trkpt>
      <trkpt lat="45.65735" lon="6.24068">
        <ele>1320.0957</ele>
        <time>2020-09-15 07:20:59</time>
      </trkpt>
      <trkpt lat="45.6574" lon="6.24068">
        <ele>1320.0522</ele>
        <time>2020-09-15 07:21:05</time>
      </trkpt>
      <trkpt lat="45.65741" lon="6.24068">
        <ele>1320.7703</ele>
        <time>2020-09-15 07:21:16</time>
      </trkpt>
      <trkpt lat="45.65742" lon="6.24068">
        <ele>1321.4664</ele>
        <time>2020-09-15 07:21:18</time>
      </trkpt>
      <trkpt lat="45.65744" lon="6.24066">
        <ele>1320.9376</ele>
        <time>2020-09-15 07:21:24</time>
      </trkpt>
      <trkpt lat="45.65747" lon="6.24066">
        <ele>1320.6959</ele>
        <time>2020-09-15 07:21:29</time>
      </trkpt>
      <trkpt lat="45.65749" lon="6.24067">
        <ele>1324.1287</ele>
        <time>2020-09-15 07:21:32</time>
      </trkpt>
      <trkpt lat="45.6575" lon="6.24067">
        <ele>1323.779</ele>
        <time>2020-09-15 07:21:33</time>
      </trkpt>
      <trkpt lat="45.65751" lon="6.24068">
        <ele>1324.9</ele>
        <time>2020-09-15 07:21:35</time>
      </trkpt>
      <trkpt lat="45.65752" lon="6.24067">
        <ele>1324.5312</ele>
        <time>2020-09-15 07:21:36</time>
      </trkpt>
      <trkpt lat="45.65753" lon="6.24067">
        <ele>1325.3115</ele>
        <time>2020-09-15 07:21:38</time>
      </trkpt>
      <trkpt lat="45.65753" lon="6.24067">
        <ele>1323.3594</ele>
        <time>2020-09-15 07:21:39</time>
      </trkpt>
      <trkpt lat="45.65754" lon="6.24068">
        <ele>1326.9365</ele>
        <time>2020-09-15 07:21:40</time>
      </trkpt>
      <trkpt lat="45.65756" lon="6.24069">
        <ele>1328.6895</ele>
        <time>2020-09-15 07:21:43</time>
      </trkpt>
      <trkpt lat="45.65756" lon="6.24068">
        <ele>1329.267</ele>
        <time>2020-09-15 07:21:44</time>
      </trkpt>
      <trkpt lat="45.65756" lon="6.24068">
        <ele>1329.8477</ele>
        <time>2020-09-15 07:21:45</time>
      </trkpt>
      <trkpt lat="45.65756" lon="6.24068">
        <ele>1331.0801</ele>
        <time>2020-09-15 07:21:46</time>
      </trkpt>
      <trkpt lat="45.65756" lon="6.24068">
        <ele>1333.0099</ele>
        <time>2020-09-15 07:21:48</time>
      </trkpt>
      <trkpt lat="45.65756" lon="6.24068">
        <ele>1326.9365</ele>
        <time>2020-09-15 07:21:49</time>
      </trkpt>
      <trkpt lat="45.65757" lon="6.24068">
        <ele>1333.2496</ele>
        <time>2020-09-15 07:21:50</time>
      </trkpt>
      <trkpt lat="45.65758" lon="6.24067">
        <ele>1335.0616</ele>
        <time>2020-09-15 07:21:54</time>
      </trkpt>
      <trkpt lat="45.6576" lon="6.24067">
        <ele>1336.2913</ele>
        <time>2020-09-15 07:21:56</time>
      </trkpt>
      <trkpt lat="45.65762" lon="6.24067">
        <ele>1334.2928</ele>
        <time>2020-09-15 07:21:59</time>
      </trkpt>
      <trkpt lat="45.65763" lon="6.24067">
        <ele>1334.8508</ele>
        <time>2020-09-15 07:22:00</time>
      </trkpt>
      <trkpt lat="45.65764" lon="6.24067">
        <ele>1335.1796</ele>
        <time>2020-09-15 07:22:01</time>
      </trkpt>
      <trkpt lat="45.65765" lon="6.24067">
        <ele>1334.3308</ele>
        <time>2020-09-15 07:22:02</time>
      </trkpt>
      <trkpt lat="45.65766" lon="6.24068">
        <ele>1334.4438</ele>
        <time>2020-09-15 07:22:03</time>
      </trkpt>
      <trkpt lat="45.65768" lon="6.24068">
        <ele>1335.0964</ele>
        <time>2020-09-15 07:22:05</time>
      </trkpt>
      <trkpt lat="45.65769" lon="6.24068">
        <ele>1335.6509</ele>
        <time>2020-09-15 07:22:06</time>
      </trkpt>
      <trkpt lat="45.6577" lon="6.24068">
        <ele>1331.6713</ele>
        <time>2020-09-15 07:22:08</time>
      </trkpt>
      <trkpt lat="45.65771" lon="6.24068">
        <ele>1333.5063</ele>
        <time>2020-09-15 07:22:09</time>
      </trkpt>
      <trkpt lat="45.65789" lon="6.2407">
        <ele>1343.2701</ele>
        <time>2020-09-15 07:22:36</time>
      </trkpt>
      <trkpt lat="45.65791" lon="6.24071">
        <ele>1345.179</ele>
        <time>2020-09-15 07:22:41</time>
      </trkpt>
      <trkpt lat="45.65791" lon="6.2407">
        <ele>1344.8835</ele>
        <time>2020-09-15 07:22:42</time>
      </trkpt>
      <trkpt lat="45.65797" lon="6.24069">
        <ele>1346.5309</ele>
        <time>2020-09-15 07:22:54</time>
      </trkpt>
      <trkpt lat="45.65798" lon="6.24069">
        <ele>1347.438</ele>
        <time>2020-09-15 07:22:56</time>
      </trkpt>
      <trkpt lat="45.658" lon="6.24069">
        <ele>1345.1512</ele>
        <time>2020-09-15 07:23:00</time>
      </trkpt>
      <trkpt lat="45.65801" lon="6.24069">
        <ele>1344.3984</ele>
        <time>2020-09-15 07:23:01</time>
      </trkpt>
      <trkpt lat="45.65805" lon="6.2407">
        <ele>1348.1781</ele>
        <time>2020-09-15 07:23:08</time>
      </trkpt>
      <trkpt lat="45.65807" lon="6.2407">
        <ele>1349.7504</ele>
        <time>2020-09-15 07:23:10</time>
      </trkpt>
      <trkpt lat="45.65809" lon="6.24071">
        <ele>1348.8829</ele>
        <time>2020-09-15 07:23:12</time>
      </trkpt>
      <trkpt lat="45.65811" lon="6.24071">
        <ele>1349.2194</ele>
        <time>2020-09-15 07:23:14</time>
      </trkpt>
      <trkpt lat="45.65812" lon="6.2407">
        <ele>1349.8792</ele>
        <time>2020-09-15 07:23:16</time>
      </trkpt>
      <trkpt lat="45.65813" lon="6.2407">
        <ele>1349.31</ele>
        <time>2020-09-15 07:23:17</time>
      </trkpt>
      <trkpt lat="45.65818" lon="6.24071">
        <ele>1349.5731</ele>
        <time>2020-09-15 07:23:24</time>
      </trkpt>
      <trkpt lat="45.65818" lon="6.24071">
        <ele>1349.8805</ele>
        <time>2020-09-15 07:23:25</time>
      </trkpt>
      <trkpt lat="45.6582" lon="6.24072">
        <ele>1349.5717</ele>
        <time>2020-09-15 07:23:27</time>
      </trkpt>
      <trkpt lat="45.6582" lon="6.24072">
        <ele>1349.5471</ele>
        <time>2020-09-15 07:23:28</time>
      </trkpt>
      <trkpt lat="45.65821" lon="6.24072">
        <ele>1351.7083</ele>
        <time>2020-09-15 07:23:29</time>
      </trkpt>
      <trkpt lat="45.65821" lon="6.24072">
        <ele>1350.9017</ele>
        <time>2020-09-15 07:23:30</time>
      </trkpt>
      <trkpt lat="45.65822" lon="6.24073">
        <ele>1350.9485</ele>
        <time>2020-09-15 07:23:31</time>
      </trkpt>
      <trkpt lat="45.65822" lon="6.24072">
        <ele>1350.197</ele>
        <time>2020-09-15 07:23:32</time>
      </trkpt>
      <trkpt lat="45.65823" lon="6.24072">
        <ele>1350.1162</ele>
        <time>2020-09-15 07:23:33</time>
      </trkpt>
      <trkpt lat="45.65823" lon="6.24071">
        <ele>1350.4143</ele>
        <time>2020-09-15 07:23:35</time>
      </trkpt>
      <trkpt lat="45.65824" lon="6.2407">
        <ele>1350.5406</ele>
        <time>2020-09-15 07:23:36</time>
      </trkpt>
      <trkpt lat="45.65824" lon="6.2407">
        <ele>1350.2324</ele>
        <time>2020-09-15 07:23:37</time>
      </trkpt>
      <trkpt lat="45.65824" lon="6.24069">
        <ele>1350.9977</ele>
        <time>2020-09-15 07:23:38</time>
      </trkpt>
      <trkpt lat="45.65825" lon="6.24069">
        <ele>1351.7587</ele>
        <time>2020-09-15 07:23:39</time>
      </trkpt>
      <trkpt lat="45.65825" lon="6.2407">
        <ele>1352.4769</ele>
        <time>2020-09-15 07:23:40</time>
      </trkpt>
      <trkpt lat="45.65827" lon="6.2407">
        <ele>1352.6298</ele>
        <time>2020-09-15 07:23:42</time>
      </trkpt>
      <trkpt lat="45.65835" lon="6.24067">
        <ele>1354.8077</ele>
        <time>2020-09-15 07:23:55</time>
      </trkpt>
      <trkpt lat="45.65835" lon="6.24067">
        <ele>1354.6378</ele>
        <time>2020-09-15 07:23:56</time>
      </trkpt>
      <trkpt lat="45.65837" lon="6.24066">
        <ele>1355.0125</ele>
        <time>2020-09-15 07:23:58</time>
      </trkpt>
      <trkpt lat="45.65848" lon="6.24068">
        <ele>1358.96</ele>
        <time>2020-09-15 07:24:16</time>
      </trkpt>
      <trkpt lat="45.65849" lon="6.24069">
        <ele>1358.9573</ele>
        <time>2020-09-15 07:24:17</time>
      </trkpt>
      <trkpt lat="45.6585" lon="6.24071">
        <ele>1359.4917</ele>
        <time>2020-09-15 07:24:20</time>
      </trkpt>
      <trkpt lat="45.65851" lon="6.24071">
        <ele>1359.8584</ele>
        <time>2020-09-15 07:24:21</time>
      </trkpt>
      <trkpt lat="45.65851" lon="6.24071">
        <ele>1359.8894</ele>
        <time>2020-09-15 07:24:22</time>
      </trkpt>
      <trkpt lat="45.65851" lon="6.24072">
        <ele>1360.4277</ele>
        <time>2020-09-15 07:24:23</time>
      </trkpt>
      <trkpt lat="45.65852" lon="6.24072">
        <ele>1360.6195</ele>
        <time>2020-09-15 07:24:24</time>
      </trkpt>
      <trkpt lat="45.65853" lon="6.24073">
        <ele>1361.728</ele>
        <time>2020-09-15 07:24:26</time>
      </trkpt>
      <trkpt lat="45.65854" lon="6.24074">
        <ele>1359.8998</ele>
        <time>2020-09-15 07:24:27</time>
      </trkpt>
      <trkpt lat="45.65855" lon="6.24072">
        <ele>1358.2747</ele>
        <time>2020-09-15 07:24:28</time>
      </trkpt>
      <trkpt lat="45.65856" lon="6.24072">
        <ele>1359.8584</ele>
        <time>2020-09-15 07:24:29</time>
      </trkpt>
      <trkpt lat="45.65859" lon="6.24071">
        <ele>1355.1274</ele>
        <time>2020-09-15 07:24:31</time>
      </trkpt>
      <trkpt lat="45.65862" lon="6.2407">
        <ele>1349.2758</ele>
        <time>2020-09-15 07:24:33</time>
      </trkpt>
      <trkpt lat="45.65864" lon="6.24069">
        <ele>1345.9916</ele>
        <time>2020-09-15 07:24:35</time>
      </trkpt>
      <trkpt lat="45.65865" lon="6.24068">
        <ele>1344.2672</ele>
        <time>2020-09-15 07:24:36</time>
      </trkpt>
      <trkpt lat="45.65867" lon="6.24067">
        <ele>1343.9507</ele>
        <time>2020-09-15 07:24:37</time>
      </trkpt>
      <trkpt lat="45.65868" lon="6.24067">
        <ele>1344.7181</ele>
        <time>2020-09-15 07:24:38</time>
      </trkpt>
      <trkpt lat="45.65869" lon="6.24066">
        <ele>1356.2694</ele>
        <time>2020-09-15 07:24:39</time>
      </trkpt>
      <trkpt lat="45.65873" lon="6.24065">
        <ele>1346.5522</ele>
        <time>2020-09-15 07:24:43</time>
      </trkpt>
      <trkpt lat="45.65873" lon="6.24065">
        <ele>1348.6371</ele>
        <time>2020-09-15 07:24:45</time>
      </trkpt>
      <trkpt lat="45.65874" lon="6.24064">
        <ele>1348.428</ele>
        <time>2020-09-15 07:24:46</time>
      </trkpt>
      <trkpt lat="45.65875" lon="6.24064">
        <ele>1350.8849</ele>
        <time>2020-09-15 07:24:49</time>
      </trkpt>
      <trkpt lat="45.65875" lon="6.24064">
        <ele>1350.4586</ele>
        <time>2020-09-15 07:24:51</time>
      </trkpt>
      <trkpt lat="45.65876" lon="6.24064">
        <ele>1350.5886</ele>
        <time>2020-09-15 07:24:52</time>
      </trkpt>
      <trkpt lat="45.65877" lon="6.24063">
        <ele>1351.2946</ele>
        <time>2020-09-15 07:24:53</time>
      </trkpt>
      <trkpt lat="45.65877" lon="6.24063">
        <ele>1351.3906</ele>
        <time>2020-09-15 07:24:54</time>
      </trkpt>
      <trkpt lat="45.65878" lon="6.24063">
        <ele>1350.9264</ele>
        <time>2020-09-15 07:24:55</time>
      </trkpt>
      <trkpt lat="45.65878" lon="6.24063">
        <ele>1352.0103</ele>
        <time>2020-09-15 07:24:56</time>
      </trkpt>
      <trkpt lat="45.6588" lon="6.24062">
        <ele>1353.5155</ele>
        <time>2020-09-15 07:24:59</time>
      </trkpt>
      <trkpt lat="45.65882" lon="6.24062">
        <ele>1354.3785</ele>
        <time>2020-09-15 07:25:02</time>
      </trkpt>
      <trkpt lat="45.65882" lon="6.24062">
        <ele>1355.9169</ele>
        <time>2020-09-15 07:25:03</time>
      </trkpt>
      <trkpt lat="45.65883" lon="6.24062">
        <ele>1355.1521</ele>
        <time>2020-09-15 07:25:04</time>
      </trkpt>
      <trkpt lat="45.65885" lon="6.24062">
        <ele>1353.4242</ele>
        <time>2020-09-15 07:25:08</time>
      </trkpt>
      <trkpt lat="45.65886" lon="6.24062">
        <ele>1353.4156</ele>
        <time>2020-09-15 07:25:09</time>
      </trkpt>
      <trkpt lat="45.65887" lon="6.24062">
        <ele>1354.0431</ele>
        <time>2020-09-15 07:25:11</time>
      </trkpt>
      <trkpt lat="45.65887" lon="6.24063">
        <ele>1354.8319</ele>
        <time>2020-09-15 07:25:12</time>
      </trkpt>
      <trkpt lat="45.65888" lon="6.24063">
        <ele>1355.632</ele>
        <time>2020-09-15 07:25:13</time>
      </trkpt>
      <trkpt lat="45.65888" lon="6.24063">
        <ele>1356.6697</ele>
        <time>2020-09-15 07:25:15</time>
      </trkpt>
      <trkpt lat="45.65893" lon="6.24065">
        <ele>1355.525</ele>
        <time>2020-09-15 07:25:20</time>
      </trkpt>
      <trkpt lat="45.65896" lon="6.24064">
        <ele>1359.1835</ele>
        <time>2020-09-15 07:25:25</time>
      </trkpt>
      <trkpt lat="45.65902" lon="6.24065">
        <ele>1362.6433</ele>
        <time>2020-09-15 07:25:34</time>
      </trkpt>
      <trkpt lat="45.65902" lon="6.24065">
        <ele>1363.3862</ele>
        <time>2020-09-15 07:25:35</time>
      </trkpt>
      <trkpt lat="45.65918" lon="6.24066">
        <ele>1362.7408</ele>
        <time>2020-09-15 07:25:55</time>
      </trkpt>
      <trkpt lat="45.65922" lon="6.24069">
        <ele>1365.573</ele>
        <time>2020-09-15 07:26:01</time>
      </trkpt>
      <trkpt lat="45.65922" lon="6.2407">
        <ele>1366.7853</ele>
        <time>2020-09-15 07:26:02</time>
      </trkpt>
      <trkpt lat="45.65923" lon="6.24072">
        <ele>1366.8287</ele>
        <time>2020-09-15 07:26:04</time>
      </trkpt>
      <trkpt lat="45.65923" lon="6.24075">
        <ele>1365.9491</ele>
        <time>2020-09-15 07:26:06</time>
      </trkpt>
      <trkpt lat="45.65925" lon="6.24079">
        <ele>1365.4021</ele>
        <time>2020-09-15 07:26:09</time>
      </trkpt>
      <trkpt lat="45.65926" lon="6.2408">
        <ele>1363.5029</ele>
        <time>2020-09-15 07:26:11</time>
      </trkpt>
      <trkpt lat="45.65926" lon="6.24081">
        <ele>1364.2091</ele>
        <time>2020-09-15 07:26:12</time>
      </trkpt>
      <trkpt lat="45.65927" lon="6.24081">
        <ele>1363.6392</ele>
        <time>2020-09-15 07:26:13</time>
      </trkpt>
      <trkpt lat="45.65928" lon="6.24082">
        <ele>1363.4911</ele>
        <time>2020-09-15 07:26:14</time>
      </trkpt>
      <trkpt lat="45.65928" lon="6.24082">
        <ele>1364.1808</ele>
        <time>2020-09-15 07:26:15</time>
      </trkpt>
      <trkpt lat="45.65932" lon="6.24085">
        <ele>1365.2826</ele>
        <time>2020-09-15 07:26:20</time>
      </trkpt>
      <trkpt lat="45.65933" lon="6.24085">
        <ele>1364.6587</ele>
        <time>2020-09-15 07:26:21</time>
      </trkpt>
      <trkpt lat="45.65933" lon="6.24085">
        <ele>1363.6597</ele>
        <time>2020-09-15 07:26:22</time>
      </trkpt>
      <trkpt lat="45.65934" lon="6.24084">
        <ele>1362.7483</ele>
        <time>2020-09-15 07:26:23</time>
      </trkpt>
      <trkpt lat="45.65935" lon="6.24084">
        <ele>1362.3594</ele>
        <time>2020-09-15 07:26:25</time>
      </trkpt>
      <trkpt lat="45.65937" lon="6.24085">
        <ele>1363.8107</ele>
        <time>2020-09-15 07:26:26</time>
      </trkpt>
      <trkpt lat="45.6594" lon="6.24085">
        <ele>1365.2826</ele>
        <time>2020-09-15 07:26:29</time>
      </trkpt>
      <trkpt lat="45.65941" lon="6.24085">
        <ele>1363.6317</ele>
        <time>2020-09-15 07:26:30</time>
      </trkpt>
      <trkpt lat="45.65947" lon="6.24089">
        <ele>1360.7596</ele>
        <time>2020-09-15 07:26:37</time>
      </trkpt>
      <trkpt lat="45.6595" lon="6.24091">
        <ele>1361.6973</ele>
        <time>2020-09-15 07:26:44</time>
      </trkpt>
      <trkpt lat="45.65951" lon="6.24092">
        <ele>1359.9109</ele>
        <time>2020-09-15 07:26:45</time>
      </trkpt>
      <trkpt lat="45.65951" lon="6.24093">
        <ele>1359.497</ele>
        <time>2020-09-15 07:26:46</time>
      </trkpt>
      <trkpt lat="45.65952" lon="6.24094">
        <ele>1359.7883</ele>
        <time>2020-09-15 07:26:47</time>
      </trkpt>
      <trkpt lat="45.65954" lon="6.24098">
        <ele>1360.4762</ele>
        <time>2020-09-15 07:26:56</time>
      </trkpt>
      <trkpt lat="45.65956" lon="6.24102">
        <ele>1362.6729</ele>
        <time>2020-09-15 07:27:01</time>
      </trkpt>
      <trkpt lat="45.65956" lon="6.24103">
        <ele>1362.5781</ele>
        <time>2020-09-15 07:27:02</time>
      </trkpt>
      <trkpt lat="45.65961" lon="6.24109">
        <ele>1361.5491</ele>
        <time>2020-09-15 07:27:08</time>
      </trkpt>
      <trkpt lat="45.65965" lon="6.24113">
        <ele>1365.2643</ele>
        <time>2020-09-15 07:27:12</time>
      </trkpt>
      <trkpt lat="45.65967" lon="6.24114">
        <ele>1366.7036</ele>
        <time>2020-09-15 07:27:14</time>
      </trkpt>
      <trkpt lat="45.65967" lon="6.24114">
        <ele>1366.7754</ele>
        <time>2020-09-15 07:27:15</time>
      </trkpt>
      <trkpt lat="45.65968" lon="6.24115">
        <ele>1367.8246</ele>
        <time>2020-09-15 07:27:16</time>
      </trkpt>
      <trkpt lat="45.65972" lon="6.2412">
        <ele>1370.2997</ele>
        <time>2020-09-15 07:27:22</time>
      </trkpt>
      <trkpt lat="45.65973" lon="6.24122">
        <ele>1369.2325</ele>
        <time>2020-09-15 07:27:24</time>
      </trkpt>
      <trkpt lat="45.65974" lon="6.24123">
        <ele>1368.754</ele>
        <time>2020-09-15 07:27:26</time>
      </trkpt>
      <trkpt lat="45.65975" lon="6.24123">
        <ele>1370.2997</ele>
        <time>2020-09-15 07:27:29</time>
      </trkpt>
      <trkpt lat="45.65976" lon="6.24123">
        <ele>1368.2638</ele>
        <time>2020-09-15 07:27:30</time>
      </trkpt>
      <trkpt lat="45.65976" lon="6.24123">
        <ele>1367.7878</ele>
        <time>2020-09-15 07:27:31</time>
      </trkpt>
      <trkpt lat="45.65977" lon="6.24123">
        <ele>1369.7069</ele>
        <time>2020-09-15 07:27:32</time>
      </trkpt>
      <trkpt lat="45.65977" lon="6.24123">
        <ele>1370.2362</ele>
        <time>2020-09-15 07:27:33</time>
      </trkpt>
      <trkpt lat="45.65982" lon="6.24122">
        <ele>1368.6655</ele>
        <time>2020-09-15 07:27:40</time>
      </trkpt>
      <trkpt lat="45.65983" lon="6.24122">
        <ele>1368.7075</ele>
        <time>2020-09-15 07:27:42</time>
      </trkpt>
      <trkpt lat="45.65984" lon="6.24122">
        <ele>1368.6179</ele>
        <time>2020-09-15 07:27:43</time>
      </trkpt>
      <trkpt lat="45.65985" lon="6.24123">
        <ele>1367.92</ele>
        <time>2020-09-15 07:27:44</time>
      </trkpt>
      <trkpt lat="45.65986" lon="6.24124">
        <ele>1368.0272</ele>
        <time>2020-09-15 07:27:45</time>
      </trkpt>
      <trkpt lat="45.65987" lon="6.24126">
        <ele>1367.9493</ele>
        <time>2020-09-15 07:27:46</time>
      </trkpt>
      <trkpt lat="45.65991" lon="6.24127">
        <ele>1366.0802</ele>
        <time>2020-09-15 07:27:48</time>
      </trkpt>
      <trkpt lat="45.65992" lon="6.24128">
        <ele>1366.4606</ele>
        <time>2020-09-15 07:27:49</time>
      </trkpt>
      <trkpt lat="45.65995" lon="6.2413">
        <ele>1366.085</ele>
        <time>2020-09-15 07:27:51</time>
      </trkpt>
      <trkpt lat="45.65997" lon="6.2413">
        <ele>1365.9987</ele>
        <time>2020-09-15 07:27:53</time>
      </trkpt>
      <trkpt lat="45.65998" lon="6.24132">
        <ele>1367.9836</ele>
        <time>2020-09-15 07:27:55</time>
      </trkpt>
      <trkpt lat="45.65999" lon="6.24132">
        <ele>1365.893</ele>
        <time>2020-09-15 07:27:56</time>
      </trkpt>
      <trkpt lat="45.66001" lon="6.24134">
        <ele>1364.8914</ele>
        <time>2020-09-15 07:27:58</time>
      </trkpt>
      <trkpt lat="45.66004" lon="6.24135">
        <ele>1363.9907</ele>
        <time>2020-09-15 07:28:01</time>
      </trkpt>
      <trkpt lat="45.66004" lon="6.24136">
        <ele>1363.9061</ele>
        <time>2020-09-15 07:28:03</time>
      </trkpt>
      <trkpt lat="45.66008" lon="6.24138">
        <ele>1365.6825</ele>
        <time>2020-09-15 07:28:08</time>
      </trkpt>
      <trkpt lat="45.6601" lon="6.24141">
        <ele>1365.6871</ele>
        <time>2020-09-15 07:28:11</time>
      </trkpt>
      <trkpt lat="45.66016" lon="6.24147">
        <ele>1364.7487</ele>
        <time>2020-09-15 07:28:17</time>
      </trkpt>
      <trkpt lat="45.66018" lon="6.24148">
        <ele>1365.1993</ele>
        <time>2020-09-15 07:28:20</time>
      </trkpt>
      <trkpt lat="45.66024" lon="6.24152">
        <ele>1366.338</ele>
        <time>2020-09-15 07:28:28</time>
      </trkpt>
      <trkpt lat="45.66025" lon="6.24152">
        <ele>1363.8542</ele>
        <time>2020-09-15 07:28:30</time>
      </trkpt>
      <trkpt lat="45.66027" lon="6.24153">
        <ele>1363.4385</ele>
        <time>2020-09-15 07:28:31</time>
      </trkpt>
      <trkpt lat="45.66033" lon="6.24155">
        <ele>1362.6411</ele>
        <time>2020-09-15 07:28:36</time>
      </trkpt>
      <trkpt lat="45.66033" lon="6.24156">
        <ele>1362.0675</ele>
        <time>2020-09-15 07:28:37</time>
      </trkpt>
      <trkpt lat="45.66034" lon="6.24156">
        <ele>1362.7638</ele>
        <time>2020-09-15 07:28:39</time>
      </trkpt>
      <trkpt lat="45.66056" lon="6.24164">
        <ele>1364.3265</ele>
        <time>2020-09-15 07:28:57</time>
      </trkpt>
      <trkpt lat="45.66061" lon="6.24165">
        <ele>1364.4374</ele>
        <time>2020-09-15 07:29:01</time>
      </trkpt>
      <trkpt lat="45.66067" lon="6.24167">
        <ele>1362.897</ele>
        <time>2020-09-15 07:29:07</time>
      </trkpt>
      <trkpt lat="45.66072" lon="6.2417">
        <ele>1358.6466</ele>
        <time>2020-09-15 07:29:13</time>
      </trkpt>
      <trkpt lat="45.66076" lon="6.24172">
        <ele>1361.3087</ele>
        <time>2020-09-15 07:29:19</time>
      </trkpt>
      <trkpt lat="45.66081" lon="6.24174">
        <ele>1359.8395</ele>
        <time>2020-09-15 07:29:25</time>
      </trkpt>
      <trkpt lat="45.66084" lon="6.24175">
        <ele>1359.6237</ele>
        <time>2020-09-15 07:29:28</time>
      </trkpt>
      <trkpt lat="45.66087" lon="6.24176">
        <ele>1359.9404</ele>
        <time>2020-09-15 07:29:31</time>
      </trkpt>
      <trkpt lat="45.66088" lon="6.24176">
        <ele>1360.0679</ele>
        <time>2020-09-15 07:29:32</time>
      </trkpt>
      <trkpt lat="45.66095" lon="6.24179">
        <ele>1362.2124</ele>
        <time>2020-09-15 07:29:40</time>
      </trkpt>
      <trkpt lat="45.66097" lon="6.2418">
        <ele>1362.2109</ele>
        <time>2020-09-15 07:29:42</time>
      </trkpt>
      <trkpt lat="45.6611" lon="6.24187">
        <ele>1362.4309</ele>
        <time>2020-09-15 07:29:56</time>
      </trkpt>
      <trkpt lat="45.66114" lon="6.24189">
        <ele>1360.3542</ele>
        <time>2020-09-15 07:30:00</time>
      </trkpt>
      <trkpt lat="45.6612" lon="6.2419">
        <ele>1360.7075</ele>
        <time>2020-09-15 07:30:05</time>
      </trkpt>
      <trkpt lat="45.66127" lon="6.24192">
        <ele>1361.222</ele>
        <time>2020-09-15 07:30:11</time>
      </trkpt>
      <trkpt lat="45.66129" lon="6.24193">
        <ele>1361.4863</ele>
        <time>2020-09-15 07:30:13</time>
      </trkpt>
      <trkpt lat="45.6613" lon="6.24194">
        <ele>1360.9519</ele>
        <time>2020-09-15 07:30:15</time>
      </trkpt>
      <trkpt lat="45.66139" lon="6.24198">
        <ele>1358.9552</ele>
        <time>2020-09-15 07:30:24</time>
      </trkpt>
      <trkpt lat="45.66143" lon="6.24201">
        <ele>1358.3938</ele>
        <time>2020-09-15 07:30:28</time>
      </trkpt>
      <trkpt lat="45.66146" lon="6.24203">
        <ele>1359.66</ele>
        <time>2020-09-15 07:30:32</time>
      </trkpt>
      <trkpt lat="45.66155" lon="6.24205">
        <ele>1359.5939</ele>
        <time>2020-09-15 07:30:46</time>
      </trkpt>
      <trkpt lat="45.66156" lon="6.24205">
        <ele>1359.4689</ele>
        <time>2020-09-15 07:30:47</time>
      </trkpt>
      <trkpt lat="45.66157" lon="6.24205">
        <ele>1360.4877</ele>
        <time>2020-09-15 07:30:51</time>
      </trkpt>
      <trkpt lat="45.66157" lon="6.24206">
        <ele>1359.5691</ele>
        <time>2020-09-15 07:30:53</time>
      </trkpt>
      <trkpt lat="45.66158" lon="6.24206">
        <ele>1361.1671</ele>
        <time>2020-09-15 07:30:59</time>
      </trkpt>
      <trkpt lat="45.66159" lon="6.24206">
        <ele>1360.4877</ele>
        <time>2020-09-15 07:31:00</time>
      </trkpt>
      <trkpt lat="45.66161" lon="6.24207">
        <ele>1360.3479</ele>
        <time>2020-09-15 07:31:02</time>
      </trkpt>
      <trkpt lat="45.66161" lon="6.24207">
        <ele>1360.4419</ele>
        <time>2020-09-15 07:31:03</time>
      </trkpt>
      <trkpt lat="45.66163" lon="6.24207">
        <ele>1360.081</ele>
        <time>2020-09-15 07:31:05</time>
      </trkpt>
      <trkpt lat="45.66164" lon="6.24206">
        <ele>1360.6473</ele>
        <time>2020-09-15 07:31:06</time>
      </trkpt>
      <trkpt lat="45.66164" lon="6.24205">
        <ele>1361.3079</ele>
        <time>2020-09-15 07:31:11</time>
      </trkpt>
      <trkpt lat="45.66167" lon="6.24205">
        <ele>1361.8016</ele>
        <time>2020-09-15 07:31:15</time>
      </trkpt>
      <trkpt lat="45.66167" lon="6.24207">
        <ele>1365.417</ele>
        <time>2020-09-15 07:31:25</time>
      </trkpt>
      <trkpt lat="45.66167" lon="6.24207">
        <ele>1365.6564</ele>
        <time>2020-09-15 07:31:27</time>
      </trkpt>
      <trkpt lat="45.66169" lon="6.24208">
        <ele>1365.9209</ele>
        <time>2020-09-15 07:31:32</time>
      </trkpt>
      <trkpt lat="45.66171" lon="6.24211">
        <ele>1365.5721</ele>
        <time>2020-09-15 07:31:35</time>
      </trkpt>
      <trkpt lat="45.66173" lon="6.24212">
        <ele>1365.7797</ele>
        <time>2020-09-15 07:31:39</time>
      </trkpt>
      <trkpt lat="45.66182" lon="6.24217">
        <ele>1364.6686</ele>
        <time>2020-09-15 07:31:49</time>
      </trkpt>
      <trkpt lat="45.66185" lon="6.24218">
        <ele>1364.3582</ele>
        <time>2020-09-15 07:31:52</time>
      </trkpt>
      <trkpt lat="45.66189" lon="6.24219">
        <ele>1364.762</ele>
        <time>2020-09-15 07:31:56</time>
      </trkpt>
      <trkpt lat="45.662" lon="6.24228">
        <ele>1366.5756</ele>
        <time>2020-09-15 07:32:09</time>
      </trkpt>
      <trkpt lat="45.66205" lon="6.24229">
        <ele>1367.4948</ele>
        <time>2020-09-15 07:32:15</time>
      </trkpt>
      <trkpt lat="45.66208" lon="6.24231">
        <ele>1367.5471</ele>
        <time>2020-09-15 07:32:18</time>
      </trkpt>
      <trkpt lat="45.66226" lon="6.24238">
        <ele>1368.6357</ele>
        <time>2020-09-15 07:32:37</time>
      </trkpt>
      <trkpt lat="45.66228" lon="6.24239">
        <ele>1368.3215</ele>
        <time>2020-09-15 07:32:39</time>
      </trkpt>
      <trkpt lat="45.66239" lon="6.24243">
        <ele>1367.2163</ele>
        <time>2020-09-15 07:32:51</time>
      </trkpt>
      <trkpt lat="45.66241" lon="6.24244">
        <ele>1367.8563</ele>
        <time>2020-09-15 07:32:53</time>
      </trkpt>
      <trkpt lat="45.66245" lon="6.24246">
        <ele>1368.4302</ele>
        <time>2020-09-15 07:32:58</time>
      </trkpt>
      <trkpt lat="45.6625" lon="6.24247">
        <ele>1369.2439</ele>
        <time>2020-09-15 07:33:03</time>
      </trkpt>
      <trkpt lat="45.66251" lon="6.24247">
        <ele>1369.2263</ele>
        <time>2020-09-15 07:33:05</time>
      </trkpt>
      <trkpt lat="45.66255" lon="6.24248">
        <ele>1368.8081</ele>
        <time>2020-09-15 07:33:10</time>
      </trkpt>
      <trkpt lat="45.66259" lon="6.24248">
        <ele>1370.9465</ele>
        <time>2020-09-15 07:33:16</time>
      </trkpt>
      <trkpt lat="45.66263" lon="6.24248">
        <ele>1369.7644</ele>
        <time>2020-09-15 07:33:20</time>
      </trkpt>
      <trkpt lat="45.66266" lon="6.24248">
        <ele>1370.9915</ele>
        <time>2020-09-15 07:33:24</time>
      </trkpt>
      <trkpt lat="45.66271" lon="6.24249">
        <ele>1370.4127</ele>
        <time>2020-09-15 07:33:31</time>
      </trkpt>
      <trkpt lat="45.66276" lon="6.24248">
        <ele>1372.2568</ele>
        <time>2020-09-15 07:33:38</time>
      </trkpt>
      <trkpt lat="45.66282" lon="6.24245">
        <ele>1381.7659</ele>
        <time>2020-09-15 07:33:51</time>
      </trkpt>
      <trkpt lat="45.66283" lon="6.24244">
        <ele>1382.4564</ele>
        <time>2020-09-15 07:33:53</time>
      </trkpt>
      <trkpt lat="45.6629" lon="6.24243">
        <ele>1382.8182</ele>
        <time>2020-09-15 07:34:04</time>
      </trkpt>
      <trkpt lat="45.66295" lon="6.24243">
        <ele>1381.6049</ele>
        <time>2020-09-15 07:34:10</time>
      </trkpt>
      <trkpt lat="45.66299" lon="6.24243">
        <ele>1381.8163</ele>
        <time>2020-09-15 07:34:14</time>
      </trkpt>
      <trkpt lat="45.66302" lon="6.24243">
        <ele>1383.1167</ele>
        <time>2020-09-15 07:34:18</time>
      </trkpt>
      <trkpt lat="45.66307" lon="6.24242">
        <ele>1383.4043</ele>
        <time>2020-09-15 07:34:24</time>
      </trkpt>
      <trkpt lat="45.66309" lon="6.24242">
        <ele>1383.6171</ele>
        <time>2020-09-15 07:34:27</time>
      </trkpt>
      <trkpt lat="45.66313" lon="6.24241">
        <ele>1383.6069</ele>
        <time>2020-09-15 07:34:31</time>
      </trkpt>
      <trkpt lat="45.66317" lon="6.2424">
        <ele>1381.4077</ele>
        <time>2020-09-15 07:34:35</time>
      </trkpt>
      <trkpt lat="45.66318" lon="6.2424">
        <ele>1381.7053</ele>
        <time>2020-09-15 07:34:36</time>
      </trkpt>
      <trkpt lat="45.6632" lon="6.24238">
        <ele>1384.7711</ele>
        <time>2020-09-15 07:34:40</time>
      </trkpt>
      <trkpt lat="45.66323" lon="6.24238">
        <ele>1385.0936</ele>
        <time>2020-09-15 07:34:44</time>
      </trkpt>
      <trkpt lat="45.6633" lon="6.24239">
        <ele>1386.444</ele>
        <time>2020-09-15 07:34:53</time>
      </trkpt>
      <trkpt lat="45.66336" lon="6.24238">
        <ele>1389.7183</ele>
        <time>2020-09-15 07:35:01</time>
      </trkpt>
      <trkpt lat="45.66339" lon="6.24236">
        <ele>1391.0321</ele>
        <time>2020-09-15 07:35:05</time>
      </trkpt>
      <trkpt lat="45.66342" lon="6.24235">
        <ele>1390.0721</ele>
        <time>2020-09-15 07:35:09</time>
      </trkpt>
      <trkpt lat="45.66352" lon="6.24231">
        <ele>1393.9943</ele>
        <time>2020-09-15 07:35:21</time>
      </trkpt>
      <trkpt lat="45.66363" lon="6.24223">
        <ele>1397.646</ele>
        <time>2020-09-15 07:35:40</time>
      </trkpt>
      <trkpt lat="45.66365" lon="6.24221">
        <ele>1400.045</ele>
        <time>2020-09-15 07:35:44</time>
      </trkpt>
      <trkpt lat="45.66366" lon="6.24219">
        <ele>1401.0922</ele>
        <time>2020-09-15 07:35:47</time>
      </trkpt>
      <trkpt lat="45.66368" lon="6.24217">
        <ele>1401.6724</ele>
        <time>2020-09-15 07:35:51</time>
      </trkpt>
      <trkpt lat="45.66369" lon="6.24216">
        <ele>1405.4773</ele>
        <time>2020-09-15 07:35:56</time>
      </trkpt>
      <trkpt lat="45.66372" lon="6.24214">
        <ele>1405.4442</ele>
        <time>2020-09-15 07:36:01</time>
      </trkpt>
      <trkpt lat="45.66373" lon="6.24214">
        <ele>1405.4576</ele>
        <time>2020-09-15 07:36:03</time>
      </trkpt>
      <trkpt lat="45.66375" lon="6.24213">
        <ele>1403.997</ele>
        <time>2020-09-15 07:36:07</time>
      </trkpt>
      <trkpt lat="45.66382" lon="6.24209">
        <ele>1403.0503</ele>
        <time>2020-09-15 07:36:17</time>
      </trkpt>
      <trkpt lat="45.66384" lon="6.24208">
        <ele>1405.6005</ele>
        <time>2020-09-15 07:36:21</time>
      </trkpt>
      <trkpt lat="45.66386" lon="6.24207">
        <ele>1406.7571</ele>
        <time>2020-09-15 07:36:24</time>
      </trkpt>
      <trkpt lat="45.66389" lon="6.24206">
        <ele>1405.2599</ele>
        <time>2020-09-15 07:36:28</time>
      </trkpt>
      <trkpt lat="45.66393" lon="6.24205">
        <ele>1405.1492</ele>
        <time>2020-09-15 07:36:32</time>
      </trkpt>
      <trkpt lat="45.66395" lon="6.24206">
        <ele>1404.7471</ele>
        <time>2020-09-15 07:36:34</time>
      </trkpt>
      <trkpt lat="45.66395" lon="6.24206">
        <ele>1405.0938</ele>
        <time>2020-09-15 07:36:35</time>
      </trkpt>
      <trkpt lat="45.66398" lon="6.24205">
        <ele>1405.4801</ele>
        <time>2020-09-15 07:36:38</time>
      </trkpt>
      <trkpt lat="45.664" lon="6.24204">
        <ele>1406.2666</ele>
        <time>2020-09-15 07:36:42</time>
      </trkpt>
      <trkpt lat="45.66404" lon="6.24202">
        <ele>1407.0447</ele>
        <time>2020-09-15 07:36:48</time>
      </trkpt>
      <trkpt lat="45.6642" lon="6.242">
        <ele>1408.1602</ele>
        <time>2020-09-15 07:37:11</time>
      </trkpt>
      <trkpt lat="45.66424" lon="6.24198">
        <ele>1408.632</ele>
        <time>2020-09-15 07:37:18</time>
      </trkpt>
      <trkpt lat="45.66429" lon="6.24196">
        <ele>1407.3811</ele>
        <time>2020-09-15 07:37:25</time>
      </trkpt>
      <trkpt lat="45.66431" lon="6.24196">
        <ele>1406.5558</ele>
        <time>2020-09-15 07:37:28</time>
      </trkpt>
      <trkpt lat="45.66433" lon="6.24195">
        <ele>1407.8628</ele>
        <time>2020-09-15 07:37:32</time>
      </trkpt>
      <trkpt lat="45.66438" lon="6.24194">
        <ele>1406.9816</ele>
        <time>2020-09-15 07:37:40</time>
      </trkpt>
      <trkpt lat="45.66439" lon="6.24194">
        <ele>1406.0884</ele>
        <time>2020-09-15 07:37:42</time>
      </trkpt>
      <trkpt lat="45.66442" lon="6.24192">
        <ele>1405.0702</ele>
        <time>2020-09-15 07:37:48</time>
      </trkpt>
      <trkpt lat="45.66442" lon="6.24192">
        <ele>1405.6863</ele>
        <time>2020-09-15 07:37:49</time>
      </trkpt>
      <trkpt lat="45.66446" lon="6.24191">
        <ele>1407.1627</ele>
        <time>2020-09-15 07:37:55</time>
      </trkpt>
      <trkpt lat="45.66451" lon="6.2419">
        <ele>1408.2966</ele>
        <time>2020-09-15 07:38:01</time>
      </trkpt>
      <trkpt lat="45.66453" lon="6.24191">
        <ele>1407.387</ele>
        <time>2020-09-15 07:38:04</time>
      </trkpt>
      <trkpt lat="45.66455" lon="6.24193">
        <ele>1410.7638</ele>
        <time>2020-09-15 07:38:07</time>
      </trkpt>
      <trkpt lat="45.6646" lon="6.24194">
        <ele>1412.1237</ele>
        <time>2020-09-15 07:38:13</time>
      </trkpt>
      <trkpt lat="45.66477" lon="6.24194">
        <ele>1416.5593</ele>
        <time>2020-09-15 07:38:36</time>
      </trkpt>
      <trkpt lat="45.66482" lon="6.24194">
        <ele>1416.8126</ele>
        <time>2020-09-15 07:38:42</time>
      </trkpt>
      <trkpt lat="45.66488" lon="6.24194">
        <ele>1417.401</ele>
        <time>2020-09-15 07:38:51</time>
      </trkpt>
      <trkpt lat="45.66491" lon="6.24194">
        <ele>1418.6353</ele>
        <time>2020-09-15 07:38:55</time>
      </trkpt>
      <trkpt lat="45.66494" lon="6.24193">
        <ele>1418.5594</ele>
        <time>2020-09-15 07:38:59</time>
      </trkpt>
      <trkpt lat="45.66505" lon="6.24194">
        <ele>1418.5013</ele>
        <time>2020-09-15 07:39:11</time>
      </trkpt>
      <trkpt lat="45.66505" lon="6.24195">
        <ele>1420.3153</ele>
        <time>2020-09-15 07:39:12</time>
      </trkpt>
      <trkpt lat="45.66506" lon="6.24195">
        <ele>1420.2611</ele>
        <time>2020-09-15 07:39:13</time>
      </trkpt>
      <trkpt lat="45.66507" lon="6.24195">
        <ele>1420.5017</ele>
        <time>2020-09-15 07:39:14</time>
      </trkpt>
      <trkpt lat="45.66509" lon="6.24195">
        <ele>1421.6339</ele>
        <time>2020-09-15 07:39:16</time>
      </trkpt>
      <trkpt lat="45.6651" lon="6.24195">
        <ele>1417.9657</ele>
        <time>2020-09-15 07:39:19</time>
      </trkpt>
      <trkpt lat="45.66511" lon="6.24195">
        <ele>1421.6038</ele>
        <time>2020-09-15 07:39:21</time>
      </trkpt>
      <trkpt lat="45.66511" lon="6.24195">
        <ele>1422.6208</ele>
        <time>2020-09-15 07:39:22</time>
      </trkpt>
      <trkpt lat="45.66512" lon="6.24195">
        <ele>1423.1991</ele>
        <time>2020-09-15 07:39:24</time>
      </trkpt>
      <trkpt lat="45.66518" lon="6.24197">
        <ele>1426.7109</ele>
        <time>2020-09-15 07:39:33</time>
      </trkpt>
      <trkpt lat="45.6652" lon="6.24198">
        <ele>1427.1978</ele>
        <time>2020-09-15 07:39:35</time>
      </trkpt>
      <trkpt lat="45.66521" lon="6.24198">
        <ele>1427.5342</ele>
        <time>2020-09-15 07:39:37</time>
      </trkpt>
      <trkpt lat="45.66524" lon="6.24198">
        <ele>1429.0582</ele>
        <time>2020-09-15 07:39:41</time>
      </trkpt>
      <trkpt lat="45.66525" lon="6.24197">
        <ele>1428.9067</ele>
        <time>2020-09-15 07:39:42</time>
      </trkpt>
      <trkpt lat="45.66526" lon="6.24198">
        <ele>1427.9357</ele>
        <time>2020-09-15 07:39:46</time>
      </trkpt>
      <trkpt lat="45.6653" lon="6.24201">
        <ele>1425.672</ele>
        <time>2020-09-15 07:39:52</time>
      </trkpt>
      <trkpt lat="45.66531" lon="6.24201">
        <ele>1428.6108</ele>
        <time>2020-09-15 07:39:53</time>
      </trkpt>
      <trkpt lat="45.66532" lon="6.24201">
        <ele>1428.677</ele>
        <time>2020-09-15 07:39:54</time>
      </trkpt>
      <trkpt lat="45.66536" lon="6.24199">
        <ele>1431.948</ele>
        <time>2020-09-15 07:40:02</time>
      </trkpt>
      <trkpt lat="45.66544" lon="6.24199">
        <ele>1433.3092</ele>
        <time>2020-09-15 07:40:14</time>
      </trkpt>
      <trkpt lat="45.66545" lon="6.24199">
        <ele>1435.2576</ele>
        <time>2020-09-15 07:40:17</time>
      </trkpt>
      <trkpt lat="45.66546" lon="6.24199">
        <ele>1433.1971</ele>
        <time>2020-09-15 07:40:18</time>
      </trkpt>
      <trkpt lat="45.66548" lon="6.242">
        <ele>1433.4683</ele>
        <time>2020-09-15 07:40:20</time>
      </trkpt>
      <trkpt lat="45.66548" lon="6.242">
        <ele>1432.6133</ele>
        <time>2020-09-15 07:40:21</time>
      </trkpt>
      <trkpt lat="45.6655" lon="6.24201">
        <ele>1431.7745</ele>
        <time>2020-09-15 07:40:24</time>
      </trkpt>
      <trkpt lat="45.66551" lon="6.24201">
        <ele>1432.1355</ele>
        <time>2020-09-15 07:40:25</time>
      </trkpt>
      <trkpt lat="45.66552" lon="6.24201">
        <ele>1433.3328</ele>
        <time>2020-09-15 07:40:26</time>
      </trkpt>
      <trkpt lat="45.66555" lon="6.24201">
        <ele>1431.9142</ele>
        <time>2020-09-15 07:40:29</time>
      </trkpt>
      <trkpt lat="45.66563" lon="6.242">
        <ele>1428.7289</ele>
        <time>2020-09-15 07:40:37</time>
      </trkpt>
      <trkpt lat="45.66565" lon="6.242">
        <ele>1431.4698</ele>
        <time>2020-09-15 07:40:39</time>
      </trkpt>
      <trkpt lat="45.66571" lon="6.24201">
        <ele>1432.2557</ele>
        <time>2020-09-15 07:40:45</time>
      </trkpt>
      <trkpt lat="45.66578" lon="6.24201">
        <ele>1431.4414</ele>
        <time>2020-09-15 07:40:53</time>
      </trkpt>
      <trkpt lat="45.6658" lon="6.24202">
        <ele>1435.4586</ele>
        <time>2020-09-15 07:40:55</time>
      </trkpt>
      <trkpt lat="45.66586" lon="6.24199">
        <ele>1433.8174</ele>
        <time>2020-09-15 07:41:08</time>
      </trkpt>
      <trkpt lat="45.66589" lon="6.242">
        <ele>1432.5017</ele>
        <time>2020-09-15 07:41:12</time>
      </trkpt>
      <trkpt lat="45.66593" lon="6.24201">
        <ele>1432.6296</ele>
        <time>2020-09-15 07:41:17</time>
      </trkpt>
      <trkpt lat="45.66597" lon="6.24202">
        <ele>1434.9187</ele>
        <time>2020-09-15 07:41:22</time>
      </trkpt>
      <trkpt lat="45.66598" lon="6.24205">
        <ele>1437.6985</ele>
        <time>2020-09-15 07:41:26</time>
      </trkpt>
      <trkpt lat="45.66602" lon="6.24208">
        <ele>1436.0062</ele>
        <time>2020-09-15 07:41:31</time>
      </trkpt>
      <trkpt lat="45.66612" lon="6.24218">
        <ele>1438.4248</ele>
        <time>2020-09-15 07:41:48</time>
      </trkpt>
      <trkpt lat="45.66613" lon="6.2422">
        <ele>1439.3516</ele>
        <time>2020-09-15 07:41:50</time>
      </trkpt>
      <trkpt lat="45.66614" lon="6.24221">
        <ele>1439.2808</ele>
        <time>2020-09-15 07:41:52</time>
      </trkpt>
      <trkpt lat="45.66617" lon="6.24223">
        <ele>1441.2343</ele>
        <time>2020-09-15 07:41:56</time>
      </trkpt>
      <trkpt lat="45.6662" lon="6.24224">
        <ele>1443.0713</ele>
        <time>2020-09-15 07:42:01</time>
      </trkpt>
      <trkpt lat="45.66621" lon="6.24225">
        <ele>1443.3473</ele>
        <time>2020-09-15 07:42:02</time>
      </trkpt>
      <trkpt lat="45.66621" lon="6.24225">
        <ele>1442.8748</ele>
        <time>2020-09-15 07:42:03</time>
      </trkpt>
      <trkpt lat="45.66622" lon="6.24226">
        <ele>1444.2566</ele>
        <time>2020-09-15 07:42:04</time>
      </trkpt>
      <trkpt lat="45.66624" lon="6.24227">
        <ele>1445.2762</ele>
        <time>2020-09-15 07:42:09</time>
      </trkpt>
      <trkpt lat="45.66625" lon="6.24227">
        <ele>1446.0479</ele>
        <time>2020-09-15 07:42:10</time>
      </trkpt>
      <trkpt lat="45.66626" lon="6.24227">
        <ele>1445.6202</ele>
        <time>2020-09-15 07:42:12</time>
      </trkpt>
      <trkpt lat="45.66627" lon="6.24227">
        <ele>1445.6561</ele>
        <time>2020-09-15 07:42:13</time>
      </trkpt>
      <trkpt lat="45.66629" lon="6.24228">
        <ele>1445.8264</ele>
        <time>2020-09-15 07:42:17</time>
      </trkpt>
      <trkpt lat="45.66632" lon="6.2423">
        <ele>1445.52</ele>
        <time>2020-09-15 07:42:20</time>
      </trkpt>
      <trkpt lat="45.66637" lon="6.24231">
        <ele>1447.9296</ele>
        <time>2020-09-15 07:42:27</time>
      </trkpt>
      <trkpt lat="45.66641" lon="6.2423">
        <ele>1448.0011</ele>
        <time>2020-09-15 07:42:32</time>
      </trkpt>
      <trkpt lat="45.66642" lon="6.2423">
        <ele>1447.7773</ele>
        <time>2020-09-15 07:42:33</time>
      </trkpt>
      <trkpt lat="45.66645" lon="6.24229">
        <ele>1447.2299</ele>
        <time>2020-09-15 07:42:36</time>
      </trkpt>
      <trkpt lat="45.66652" lon="6.24224">
        <ele>1447.3896</ele>
        <time>2020-09-15 07:42:44</time>
      </trkpt>
      <trkpt lat="45.66654" lon="6.24221">
        <ele>1448.3367</ele>
        <time>2020-09-15 07:42:48</time>
      </trkpt>
      <trkpt lat="45.66655" lon="6.24219">
        <ele>1448.8597</ele>
        <time>2020-09-15 07:42:50</time>
      </trkpt>
      <trkpt lat="45.66656" lon="6.24217">
        <ele>1449.0614</ele>
        <time>2020-09-15 07:42:52</time>
      </trkpt>
      <trkpt lat="45.66663" lon="6.24209">
        <ele>1450.4108</ele>
        <time>2020-09-15 07:43:04</time>
      </trkpt>
      <trkpt lat="45.66666" lon="6.24206">
        <ele>1452.1047</ele>
        <time>2020-09-15 07:43:09</time>
      </trkpt>
      <trkpt lat="45.66668" lon="6.24204">
        <ele>1452.2422</ele>
        <time>2020-09-15 07:43:13</time>
      </trkpt>
      <trkpt lat="45.6667" lon="6.24203">
        <ele>1453.1313</ele>
        <time>2020-09-15 07:43:17</time>
      </trkpt>
      <trkpt lat="45.66674" lon="6.242">
        <ele>1453.7711</ele>
        <time>2020-09-15 07:43:21</time>
      </trkpt>
      <trkpt lat="45.66681" lon="6.24196">
        <ele>1454.8865</ele>
        <time>2020-09-15 07:43:30</time>
      </trkpt>
      <trkpt lat="45.66682" lon="6.24196">
        <ele>1456.0376</ele>
        <time>2020-09-15 07:43:33</time>
      </trkpt>
      <trkpt lat="45.66687" lon="6.24194">
        <ele>1454.2708</ele>
        <time>2020-09-15 07:43:40</time>
      </trkpt>
      <trkpt lat="45.66694" lon="6.2419">
        <ele>1454.6217</ele>
        <time>2020-09-15 07:43:52</time>
      </trkpt>
      <trkpt lat="45.66698" lon="6.24186">
        <ele>1454.0503</ele>
        <time>2020-09-15 07:43:59</time>
      </trkpt>
      <trkpt lat="45.66712" lon="6.24178">
        <ele>1454.4988</ele>
        <time>2020-09-15 07:44:22</time>
      </trkpt>
      <trkpt lat="45.66712" lon="6.24178">
        <ele>1454.6147</ele>
        <time>2020-09-15 07:44:23</time>
      </trkpt>
      <trkpt lat="45.66716" lon="6.24178">
        <ele>1453.3529</ele>
        <time>2020-09-15 07:44:31</time>
      </trkpt>
      <trkpt lat="45.66717" lon="6.24177">
        <ele>1453.0638</ele>
        <time>2020-09-15 07:44:34</time>
      </trkpt>
      <trkpt lat="45.66718" lon="6.24176">
        <ele>1453.2263</ele>
        <time>2020-09-15 07:44:36</time>
      </trkpt>
      <trkpt lat="45.66718" lon="6.24176">
        <ele>1453.5654</ele>
        <time>2020-09-15 07:44:37</time>
      </trkpt>
      <trkpt lat="45.66724" lon="6.24171">
        <ele>1457.2383</ele>
        <time>2020-09-15 07:44:49</time>
      </trkpt>
      <trkpt lat="45.66727" lon="6.24169">
        <ele>1460.7836</ele>
        <time>2020-09-15 07:44:55</time>
      </trkpt>
      <trkpt lat="45.66732" lon="6.24168">
        <ele>1461.0516</ele>
        <time>2020-09-15 07:45:01</time>
      </trkpt>
      <trkpt lat="45.66737" lon="6.24165">
        <ele>1461.6172</ele>
        <time>2020-09-15 07:45:07</time>
      </trkpt>
      <trkpt lat="45.66739" lon="6.24164">
        <ele>1462.6979</ele>
        <time>2020-09-15 07:45:10</time>
      </trkpt>
      <trkpt lat="45.66741" lon="6.24162">
        <ele>1461.3162</ele>
        <time>2020-09-15 07:45:13</time>
      </trkpt>
      <trkpt lat="45.66745" lon="6.24158">
        <ele>1461.8246</ele>
        <time>2020-09-15 07:45:20</time>
      </trkpt>
      <trkpt lat="45.66749" lon="6.24153">
        <ele>1461.0571</ele>
        <time>2020-09-15 07:45:26</time>
      </trkpt>
      <trkpt lat="45.66751" lon="6.24148">
        <ele>1462.0795</ele>
        <time>2020-09-15 07:45:30</time>
      </trkpt>
      <trkpt lat="45.66754" lon="6.24147">
        <ele>1463.9115</ele>
        <time>2020-09-15 07:45:37</time>
      </trkpt>
      <trkpt lat="45.66754" lon="6.24147">
        <ele>1463.1416</ele>
        <time>2020-09-15 07:45:38</time>
      </trkpt>
      <trkpt lat="45.66758" lon="6.2414">
        <ele>1467.474</ele>
        <time>2020-09-15 07:45:49</time>
      </trkpt>
      <trkpt lat="45.66763" lon="6.24135">
        <ele>1467.0007</ele>
        <time>2020-09-15 07:45:55</time>
      </trkpt>
      <trkpt lat="45.66766" lon="6.24134">
        <ele>1466.3613</ele>
        <time>2020-09-15 07:45:57</time>
      </trkpt>
      <trkpt lat="45.66767" lon="6.24133">
        <ele>1464.5575</ele>
        <time>2020-09-15 07:45:58</time>
      </trkpt>
      <trkpt lat="45.66768" lon="6.24132">
        <ele>1462.6605</ele>
        <time>2020-09-15 07:45:59</time>
      </trkpt>
      <trkpt lat="45.6677" lon="6.24128">
        <ele>1462.3394</ele>
        <time>2020-09-15 07:46:02</time>
      </trkpt>
      <trkpt lat="45.66773" lon="6.24126">
        <ele>1466.1323</ele>
        <time>2020-09-15 07:46:05</time>
      </trkpt>
      <trkpt lat="45.66777" lon="6.24122">
        <ele>1461.7845</ele>
        <time>2020-09-15 07:46:11</time>
      </trkpt>
      <trkpt lat="45.66778" lon="6.24121">
        <ele>1462.2778</ele>
        <time>2020-09-15 07:46:12</time>
      </trkpt>
      <trkpt lat="45.66779" lon="6.24118">
        <ele>1462.946</ele>
        <time>2020-09-15 07:46:15</time>
      </trkpt>
      <trkpt lat="45.6678" lon="6.24115">
        <ele>1465.2465</ele>
        <time>2020-09-15 07:46:18</time>
      </trkpt>
      <trkpt lat="45.66781" lon="6.24115">
        <ele>1464.7633</ele>
        <time>2020-09-15 07:46:19</time>
      </trkpt>
      <trkpt lat="45.66781" lon="6.24114">
        <ele>1464.526</ele>
        <time>2020-09-15 07:46:20</time>
      </trkpt>
      <trkpt lat="45.66783" lon="6.2411">
        <ele>1468.7141</ele>
        <time>2020-09-15 07:46:24</time>
      </trkpt>
      <trkpt lat="45.66783" lon="6.24109">
        <ele>1469.0021</ele>
        <time>2020-09-15 07:46:25</time>
      </trkpt>
      <trkpt lat="45.66783" lon="6.24105">
        <ele>1470.3336</ele>
        <time>2020-09-15 07:46:28</time>
      </trkpt>
      <trkpt lat="45.66784" lon="6.24104">
        <ele>1470.1334</ele>
        <time>2020-09-15 07:46:29</time>
      </trkpt>
      <trkpt lat="45.66785" lon="6.24092">
        <ele>1469.3265</ele>
        <time>2020-09-15 07:46:38</time>
      </trkpt>
      <trkpt lat="45.66785" lon="6.24091">
        <ele>1469.6741</ele>
        <time>2020-09-15 07:46:39</time>
      </trkpt>
      <trkpt lat="45.66786" lon="6.2409">
        <ele>1471.9698</ele>
        <time>2020-09-15 07:46:41</time>
      </trkpt>
      <trkpt lat="45.66797" lon="6.24066">
        <ele>1471.2743</ele>
        <time>2020-09-15 07:47:02</time>
      </trkpt>
      <trkpt lat="45.66797" lon="6.24065">
        <ele>1470.9706</ele>
        <time>2020-09-15 07:47:03</time>
      </trkpt>
      <trkpt lat="45.66797" lon="6.24064">
        <ele>1469.6648</ele>
        <time>2020-09-15 07:47:06</time>
      </trkpt>
      <trkpt lat="45.66799" lon="6.24062">
        <ele>1472.0161</ele>
        <time>2020-09-15 07:47:08</time>
      </trkpt>
      <trkpt lat="45.66803" lon="6.24056">
        <ele>1473.5282</ele>
        <time>2020-09-15 07:47:14</time>
      </trkpt>
      <trkpt lat="45.66804" lon="6.24055">
        <ele>1473.1616</ele>
        <time>2020-09-15 07:47:15</time>
      </trkpt>
      <trkpt lat="45.66809" lon="6.24051">
        <ele>1472.155</ele>
        <time>2020-09-15 07:47:20</time>
      </trkpt>
      <trkpt lat="45.66814" lon="6.24048">
        <ele>1471.9749</ele>
        <time>2020-09-15 07:47:24</time>
      </trkpt>
      <trkpt lat="45.66815" lon="6.24047">
        <ele>1471.2008</ele>
        <time>2020-09-15 07:47:41</time>
      </trkpt>
      <trkpt lat="45.66815" lon="6.24048">
        <ele>1469.962</ele>
        <time>2020-09-15 07:47:42</time>
      </trkpt>
      <trkpt lat="45.66816" lon="6.24048">
        <ele>1468.4844</ele>
        <time>2020-09-15 07:47:43</time>
      </trkpt>
      <trkpt lat="45.66816" lon="6.24049">
        <ele>1469.9354</ele>
        <time>2020-09-15 07:47:45</time>
      </trkpt>
      <trkpt lat="45.66816" lon="6.24049">
        <ele>1471.245</ele>
        <time>2020-09-15 07:47:46</time>
      </trkpt>
      <trkpt lat="45.66817" lon="6.24049">
        <ele>1468.8086</ele>
        <time>2020-09-15 07:47:50</time>
      </trkpt>
      <trkpt lat="45.66818" lon="6.2405">
        <ele>1469.3789</ele>
        <time>2020-09-15 07:47:51</time>
      </trkpt>
      <trkpt lat="45.66822" lon="6.24054">
        <ele>1475.1545</ele>
        <time>2020-09-15 07:47:55</time>
      </trkpt>
      <trkpt lat="45.66824" lon="6.24056">
        <ele>1474.7273</ele>
        <time>2020-09-15 07:47:58</time>
      </trkpt>
      <trkpt lat="45.66825" lon="6.24056">
        <ele>1474.1675</ele>
        <time>2020-09-15 07:47:59</time>
      </trkpt>
      <trkpt lat="45.66827" lon="6.24057">
        <ele>1473.6959</ele>
        <time>2020-09-15 07:48:01</time>
      </trkpt>
      <trkpt lat="45.66827" lon="6.24057">
        <ele>1473.9487</ele>
        <time>2020-09-15 07:48:02</time>
      </trkpt>
      <trkpt lat="45.66828" lon="6.24058">
        <ele>1473.3296</ele>
        <time>2020-09-15 07:48:03</time>
      </trkpt>
      <trkpt lat="45.66829" lon="6.24059">
        <ele>1474.4579</ele>
        <time>2020-09-15 07:48:08</time>
      </trkpt>
      <trkpt lat="45.66829" lon="6.24059">
        <ele>1474.0874</ele>
        <time>2020-09-15 07:48:09</time>
      </trkpt>
      <trkpt lat="45.66832" lon="6.24064">
        <ele>1476.2325</ele>
        <time>2020-09-15 07:48:22</time>
      </trkpt>
      <trkpt lat="45.66833" lon="6.24065">
        <ele>1475.9152</ele>
        <time>2020-09-15 07:48:23</time>
      </trkpt>
      <trkpt lat="45.66834" lon="6.24067">
        <ele>1476.219</ele>
        <time>2020-09-15 07:48:26</time>
      </trkpt>
      <trkpt lat="45.66839" lon="6.24075">
        <ele>1477.4961</ele>
        <time>2020-09-15 07:48:31</time>
      </trkpt>
      <trkpt lat="45.66842" lon="6.24079">
        <ele>1477.083</ele>
        <time>2020-09-15 07:48:33</time>
      </trkpt>
      <trkpt lat="45.66843" lon="6.24081">
        <ele>1478.2805</ele>
        <time>2020-09-15 07:48:35</time>
      </trkpt>
      <trkpt lat="45.66846" lon="6.24084">
        <ele>1477.0414</ele>
        <time>2020-09-15 07:48:38</time>
      </trkpt>
      <trkpt lat="45.66849" lon="6.24088">
        <ele>1482.1012</ele>
        <time>2020-09-15 07:48:43</time>
      </trkpt>
      <trkpt lat="45.66851" lon="6.2409">
        <ele>1484.2301</ele>
        <time>2020-09-15 07:48:52</time>
      </trkpt>
      <trkpt lat="45.66851" lon="6.2409">
        <ele>1484.5316</ele>
        <time>2020-09-15 07:48:53</time>
      </trkpt>
      <trkpt lat="45.66852" lon="6.24091">
        <ele>1483.0717</ele>
        <time>2020-09-15 07:48:54</time>
      </trkpt>
      <trkpt lat="45.66854" lon="6.24094">
        <ele>1481.2329</ele>
        <time>2020-09-15 07:49:06</time>
      </trkpt>
      <trkpt lat="45.66854" lon="6.24095">
        <ele>1481.2574</ele>
        <time>2020-09-15 07:49:07</time>
      </trkpt>
      <trkpt lat="45.66854" lon="6.24095">
        <ele>1481.9512</ele>
        <time>2020-09-15 07:49:10</time>
      </trkpt>
      <trkpt lat="45.66855" lon="6.24094">
        <ele>1484.2506</ele>
        <time>2020-09-15 07:49:14</time>
      </trkpt>
      <trkpt lat="45.66856" lon="6.24092">
        <ele>1485.3494</ele>
        <time>2020-09-15 07:49:41</time>
      </trkpt>
      <trkpt lat="45.66858" lon="6.24092">
        <ele>1483.2585</ele>
        <time>2020-09-15 07:49:44</time>
      </trkpt>
      <trkpt lat="45.66859" lon="6.24092">
        <ele>1482.4445</ele>
        <time>2020-09-15 07:49:46</time>
      </trkpt>
      <trkpt lat="45.66861" lon="6.24091">
        <ele>1481.1455</ele>
        <time>2020-09-15 07:49:48</time>
      </trkpt>
      <trkpt lat="45.66862" lon="6.24091">
        <ele>1481.2145</ele>
        <time>2020-09-15 07:49:49</time>
      </trkpt>
      <trkpt lat="45.66864" lon="6.24091">
        <ele>1480.7238</ele>
        <time>2020-09-15 07:49:59</time>
      </trkpt>
      <trkpt lat="45.66867" lon="6.24087">
        <ele>1479.5979</ele>
        <time>2020-09-15 07:50:05</time>
      </trkpt>
      <trkpt lat="45.66868" lon="6.24085">
        <ele>1480.8516</ele>
        <time>2020-09-15 07:50:08</time>
      </trkpt>
      <trkpt lat="45.66868" lon="6.24084">
        <ele>1479.9803</ele>
        <time>2020-09-15 07:50:51</time>
      </trkpt>
      <trkpt lat="45.66868" lon="6.24084">
        <ele>1479.9688</ele>
        <time>2020-09-15 07:51:16</time>
      </trkpt>
      <trkpt lat="45.66871" lon="6.24081">
        <ele>1480.77</ele>
        <time>2020-09-15 07:51:20</time>
      </trkpt>
      <trkpt lat="45.66873" lon="6.24079">
        <ele>1480.8098</ele>
        <time>2020-09-15 07:51:23</time>
      </trkpt>
      <trkpt lat="45.66876" lon="6.24077">
        <ele>1479.6721</ele>
        <time>2020-09-15 07:51:26</time>
      </trkpt>
      <trkpt lat="45.66878" lon="6.24074">
        <ele>1480.77</ele>
        <time>2020-09-15 07:51:29</time>
      </trkpt>
      <trkpt lat="45.66881" lon="6.2407">
        <ele>1479.0195</ele>
        <time>2020-09-15 07:51:34</time>
      </trkpt>
      <trkpt lat="45.66883" lon="6.24068">
        <ele>1480.2119</ele>
        <time>2020-09-15 07:51:38</time>
      </trkpt>
      <trkpt lat="45.6689" lon="6.2406">
        <ele>1482.1154</ele>
        <time>2020-09-15 07:51:48</time>
      </trkpt>
      <trkpt lat="45.66892" lon="6.24056">
        <ele>1481.6</ele>
        <time>2020-09-15 07:51:52</time>
      </trkpt>
      <trkpt lat="45.66894" lon="6.24054">
        <ele>1481.229</ele>
        <time>2020-09-15 07:51:56</time>
      </trkpt>
      <trkpt lat="45.66898" lon="6.24049">
        <ele>1480.2222</ele>
        <time>2020-09-15 07:52:04</time>
      </trkpt>
      <trkpt lat="45.669" lon="6.24047">
        <ele>1479.618</ele>
        <time>2020-09-15 07:52:07</time>
      </trkpt>
      <trkpt lat="45.66902" lon="6.24044">
        <ele>1480.304</ele>
        <time>2020-09-15 07:52:11</time>
      </trkpt>
      <trkpt lat="45.66904" lon="6.24043">
        <ele>1480.9469</ele>
        <time>2020-09-15 07:52:14</time>
      </trkpt>
      <trkpt lat="45.6691" lon="6.2404">
        <ele>1483.0651</ele>
        <time>2020-09-15 07:52:22</time>
      </trkpt>
      <trkpt lat="45.6692" lon="6.24042">
        <ele>1485.2985</ele>
        <time>2020-09-15 07:52:35</time>
      </trkpt>
      <trkpt lat="45.66922" lon="6.24044">
        <ele>1484.6571</ele>
        <time>2020-09-15 07:52:39</time>
      </trkpt>
      <trkpt lat="45.66922" lon="6.24044">
        <ele>1487.5428</ele>
        <time>2020-09-15 07:52:40</time>
      </trkpt>
      <trkpt lat="45.66923" lon="6.24044">
        <ele>1488.3461</ele>
        <time>2020-09-15 07:52:55</time>
      </trkpt>
      <trkpt lat="45.66927" lon="6.24048">
        <ele>1487.9211</ele>
        <time>2020-09-15 07:53:00</time>
      </trkpt>
      <trkpt lat="45.66928" lon="6.24051">
        <ele>1487.8535</ele>
        <time>2020-09-15 07:53:03</time>
      </trkpt>
      <trkpt lat="45.66928" lon="6.24052">
        <ele>1488.2294</ele>
        <time>2020-09-15 07:53:04</time>
      </trkpt>
      <trkpt lat="45.66932" lon="6.24057">
        <ele>1487.6099</ele>
        <time>2020-09-15 07:53:11</time>
      </trkpt>
      <trkpt lat="45.66934" lon="6.24059">
        <ele>1487.9424</ele>
        <time>2020-09-15 07:53:15</time>
      </trkpt>
      <trkpt lat="45.66947" lon="6.24076">
        <ele>1490.26</ele>
        <time>2020-09-15 07:53:36</time>
      </trkpt>
      <trkpt lat="45.66957" lon="6.24091">
        <ele>1493.3538</ele>
        <time>2020-09-15 07:53:58</time>
      </trkpt>
      <trkpt lat="45.66963" lon="6.24097">
        <ele>1494.1826</ele>
        <time>2020-09-15 07:54:07</time>
      </trkpt>
      <trkpt lat="45.66975" lon="6.24107">
        <ele>1498.1904</ele>
        <time>2020-09-15 07:54:21</time>
      </trkpt>
      <trkpt lat="45.66978" lon="6.24108">
        <ele>1498.9237</ele>
        <time>2020-09-15 07:54:25</time>
      </trkpt>
      <trkpt lat="45.66981" lon="6.24109">
        <ele>1498.5077</ele>
        <time>2020-09-15 07:54:30</time>
      </trkpt>
      <trkpt lat="45.66988" lon="6.24113">
        <ele>1501.0868</ele>
        <time>2020-09-15 07:54:38</time>
      </trkpt>
      <trkpt lat="45.66992" lon="6.24114">
        <ele>1502.2103</ele>
        <time>2020-09-15 07:54:42</time>
      </trkpt>
      <trkpt lat="45.67" lon="6.24121">
        <ele>1503.9398</ele>
        <time>2020-09-15 07:54:55</time>
      </trkpt>
      <trkpt lat="45.67003" lon="6.24123">
        <ele>1504.9044</ele>
        <time>2020-09-15 07:54:59</time>
      </trkpt>
      <trkpt lat="45.67013" lon="6.24131">
        <ele>1506.5983</ele>
        <time>2020-09-15 07:55:16</time>
      </trkpt>
      <trkpt lat="45.67015" lon="6.24133">
        <ele>1507.632</ele>
        <time>2020-09-15 07:55:23</time>
      </trkpt>
      <trkpt lat="45.67016" lon="6.2413">
        <ele>1509.6923</ele>
        <time>2020-09-15 07:55:29</time>
      </trkpt>
      <trkpt lat="45.67017" lon="6.24126">
        <ele>1510.2144</ele>
        <time>2020-09-15 07:55:33</time>
      </trkpt>
      <trkpt lat="45.67017" lon="6.24121">
        <ele>1508.688</ele>
        <time>2020-09-15 07:55:37</time>
      </trkpt>
      <trkpt lat="45.67016" lon="6.24116">
        <ele>1510.3452</ele>
        <time>2020-09-15 07:55:42</time>
      </trkpt>
      <trkpt lat="45.67016" lon="6.24115">
        <ele>1510.8584</ele>
        <time>2020-09-15 07:55:45</time>
      </trkpt>
      <trkpt lat="45.67016" lon="6.24114">
        <ele>1510.429</ele>
        <time>2020-09-15 07:55:47</time>
      </trkpt>
      <trkpt lat="45.67016" lon="6.2411">
        <ele>1510.0449</ele>
        <time>2020-09-15 07:55:52</time>
      </trkpt>
      <trkpt lat="45.67017" lon="6.24104">
        <ele>1513.2938</ele>
        <time>2020-09-15 07:55:59</time>
      </trkpt>
      <trkpt lat="45.67021" lon="6.24103">
        <ele>1513.9492</ele>
        <time>2020-09-15 07:56:06</time>
      </trkpt>
      <trkpt lat="45.67022" lon="6.24103">
        <ele>1512.3732</ele>
        <time>2020-09-15 07:56:07</time>
      </trkpt>
      <trkpt lat="45.67023" lon="6.24103">
        <ele>1512.3176</ele>
        <time>2020-09-15 07:56:09</time>
      </trkpt>
      <trkpt lat="45.67025" lon="6.24104">
        <ele>1512.4207</ele>
        <time>2020-09-15 07:56:12</time>
      </trkpt>
      <trkpt lat="45.67027" lon="6.24104">
        <ele>1513.9858</ele>
        <time>2020-09-15 07:56:17</time>
      </trkpt>
      <trkpt lat="45.67029" lon="6.24106">
        <ele>1511.3115</ele>
        <time>2020-09-15 07:56:22</time>
      </trkpt>
      <trkpt lat="45.6703" lon="6.24108">
        <ele>1517.534</ele>
        <time>2020-09-15 07:56:26</time>
      </trkpt>
      <trkpt lat="45.67031" lon="6.24108">
        <ele>1517.3615</ele>
        <time>2020-09-15 07:56:27</time>
      </trkpt>
      <trkpt lat="45.67031" lon="6.24109">
        <ele>1518.0757</ele>
        <time>2020-09-15 07:56:28</time>
      </trkpt>
      <trkpt lat="45.67034" lon="6.24108">
        <ele>1516.5721</ele>
        <time>2020-09-15 07:56:34</time>
      </trkpt>
      <trkpt lat="45.67036" lon="6.24104">
        <ele>1520.8185</ele>
        <time>2020-09-15 07:56:38</time>
      </trkpt>
      <trkpt lat="45.67037" lon="6.24101">
        <ele>1521.3317</ele>
        <time>2020-09-15 07:56:41</time>
      </trkpt>
      <trkpt lat="45.67037" lon="6.24098">
        <ele>1521.6624</ele>
        <time>2020-09-15 07:56:46</time>
      </trkpt>
      <trkpt lat="45.67038" lon="6.24096">
        <ele>1522.5817</ele>
        <time>2020-09-15 07:56:50</time>
      </trkpt>
      <trkpt lat="45.6704" lon="6.24093">
        <ele>1522.0068</ele>
        <time>2020-09-15 07:56:54</time>
      </trkpt>
      <trkpt lat="45.67042" lon="6.2409">
        <ele>1522.751</ele>
        <time>2020-09-15 07:56:57</time>
      </trkpt>
      <trkpt lat="45.67053" lon="6.2408">
        <ele>1525.7059</ele>
        <time>2020-09-15 07:57:16</time>
      </trkpt>
      <trkpt lat="45.6706" lon="6.24068">
        <ele>1528.0446</ele>
        <time>2020-09-15 07:57:30</time>
      </trkpt>
      <trkpt lat="45.67059" lon="6.24061">
        <ele>1530.3253</ele>
        <time>2020-09-15 07:57:36</time>
      </trkpt>
      <trkpt lat="45.67067" lon="6.24047">
        <ele>1534.6569</ele>
        <time>2020-09-15 07:57:52</time>
      </trkpt>
      <trkpt lat="45.67069" lon="6.24044">
        <ele>1535.8983</ele>
        <time>2020-09-15 07:57:56</time>
      </trkpt>
      <trkpt lat="45.6707" lon="6.24042">
        <ele>1536.3066</ele>
        <time>2020-09-15 07:57:58</time>
      </trkpt>
      <trkpt lat="45.67076" lon="6.24034">
        <ele>1537.5793</ele>
        <time>2020-09-15 07:58:07</time>
      </trkpt>
      <trkpt lat="45.67085" lon="6.24011">
        <ele>1533.7577</ele>
        <time>2020-09-15 07:58:25</time>
      </trkpt>
      <trkpt lat="45.67085" lon="6.24006">
        <ele>1532.8391</ele>
        <time>2020-09-15 07:58:28</time>
      </trkpt>
      <trkpt lat="45.67085" lon="6.24003">
        <ele>1532.553</ele>
        <time>2020-09-15 07:58:30</time>
      </trkpt>
      <trkpt lat="45.67083" lon="6.23992">
        <ele>1531.704</ele>
        <time>2020-09-15 07:58:37</time>
      </trkpt>
      <trkpt lat="45.6708" lon="6.23977">
        <ele>1531.9067</ele>
        <time>2020-09-15 07:58:47</time>
      </trkpt>
      <trkpt lat="45.67079" lon="6.23974">
        <ele>1532.1249</ele>
        <time>2020-09-15 07:58:49</time>
      </trkpt>
      <trkpt lat="45.67078" lon="6.23968">
        <ele>1531.7784</ele>
        <time>2020-09-15 07:58:54</time>
      </trkpt>
      <trkpt lat="45.6708" lon="6.23952">
        <ele>1532.1803</ele>
        <time>2020-09-15 07:59:06</time>
      </trkpt>
      <trkpt lat="45.67083" lon="6.23938">
        <ele>1533.8301</ele>
        <time>2020-09-15 07:59:17</time>
      </trkpt>
      <trkpt lat="45.67084" lon="6.23937">
        <ele>1533.6998</ele>
        <time>2020-09-15 07:59:19</time>
      </trkpt>
      <trkpt lat="45.67084" lon="6.23936">
        <ele>1533.7556</ele>
        <time>2020-09-15 07:59:20</time>
      </trkpt>
      <trkpt lat="45.67085" lon="6.23935">
        <ele>1534.4059</ele>
        <time>2020-09-15 07:59:21</time>
      </trkpt>
      <trkpt lat="45.67087" lon="6.23931">
        <ele>1532.8961</ele>
        <time>2020-09-15 07:59:24</time>
      </trkpt>
      <trkpt lat="45.67089" lon="6.23927">
        <ele>1534.842</ele>
        <time>2020-09-15 07:59:29</time>
      </trkpt>
      <trkpt lat="45.6709" lon="6.23923">
        <ele>1533.0369</ele>
        <time>2020-09-15 07:59:34</time>
      </trkpt>
      <trkpt lat="45.67091" lon="6.23921">
        <ele>1534.6345</ele>
        <time>2020-09-15 07:59:36</time>
      </trkpt>
      <trkpt lat="45.67093" lon="6.23917">
        <ele>1535.4045</ele>
        <time>2020-09-15 07:59:39</time>
      </trkpt>
      <trkpt lat="45.67095" lon="6.23913">
        <ele>1535.2927</ele>
        <time>2020-09-15 07:59:43</time>
      </trkpt>
      <trkpt lat="45.67096" lon="6.23909">
        <ele>1536.0133</ele>
        <time>2020-09-15 07:59:47</time>
      </trkpt>
      <trkpt lat="45.67103" lon="6.23898">
        <ele>1538.3135</ele>
        <time>2020-09-15 07:59:58</time>
      </trkpt>
      <trkpt lat="45.67105" lon="6.23894">
        <ele>1539.839</ele>
        <time>2020-09-15 08:00:03</time>
      </trkpt>
      <trkpt lat="45.67106" lon="6.23892">
        <ele>1538.7915</ele>
        <time>2020-09-15 08:00:05</time>
      </trkpt>
      <trkpt lat="45.67108" lon="6.23889">
        <ele>1539.7993</ele>
        <time>2020-09-15 08:00:08</time>
      </trkpt>
      <trkpt lat="45.6711" lon="6.23886">
        <ele>1539.1097</ele>
        <time>2020-09-15 08:00:11</time>
      </trkpt>
      <trkpt lat="45.67112" lon="6.23886">
        <ele>1538.7915</ele>
        <time>2020-09-15 08:00:14</time>
      </trkpt>
      <trkpt lat="45.67119" lon="6.23883">
        <ele>1541.3593</ele>
        <time>2020-09-15 08:00:22</time>
      </trkpt>
      <trkpt lat="45.67122" lon="6.23882">
        <ele>1540.9374</ele>
        <time>2020-09-15 08:00:25</time>
      </trkpt>
      <trkpt lat="45.67124" lon="6.23883">
        <ele>1541.8843</ele>
        <time>2020-09-15 08:00:28</time>
      </trkpt>
      <trkpt lat="45.67127" lon="6.23882">
        <ele>1541.2179</ele>
        <time>2020-09-15 08:00:32</time>
      </trkpt>
      <trkpt lat="45.67129" lon="6.23881">
        <ele>1542.4176</ele>
        <time>2020-09-15 08:00:35</time>
      </trkpt>
      <trkpt lat="45.67132" lon="6.23879">
        <ele>1542.8479</ele>
        <time>2020-09-15 08:00:38</time>
      </trkpt>
      <trkpt lat="45.67135" lon="6.23876">
        <ele>1542.4447</ele>
        <time>2020-09-15 08:00:41</time>
      </trkpt>
      <trkpt lat="45.67139" lon="6.23875">
        <ele>1541.1866</ele>
        <time>2020-09-15 08:00:45</time>
      </trkpt>
      <trkpt lat="45.67141" lon="6.23875">
        <ele>1542.8479</ele>
        <time>2020-09-15 08:00:47</time>
      </trkpt>
      <trkpt lat="45.67144" lon="6.23874">
        <ele>1538.0408</ele>
        <time>2020-09-15 08:00:50</time>
      </trkpt>
      <trkpt lat="45.67153" lon="6.23872">
        <ele>1539.6682</ele>
        <time>2020-09-15 08:00:59</time>
      </trkpt>
      <trkpt lat="45.67156" lon="6.2387">
        <ele>1539.5867</ele>
        <time>2020-09-15 08:01:03</time>
      </trkpt>
      <trkpt lat="45.67161" lon="6.23868">
        <ele>1540.212</ele>
        <time>2020-09-15 08:01:08</time>
      </trkpt>
      <trkpt lat="45.67164" lon="6.23866">
        <ele>1540.8573</ele>
        <time>2020-09-15 08:01:11</time>
      </trkpt>
      <trkpt lat="45.6717" lon="6.23864">
        <ele>1540.212</ele>
        <time>2020-09-15 08:01:17</time>
      </trkpt>
      <trkpt lat="45.67176" lon="6.23864">
        <ele>1541.5886</ele>
        <time>2020-09-15 08:01:23</time>
      </trkpt>
      <trkpt lat="45.67178" lon="6.23863">
        <ele>1542.2627</ele>
        <time>2020-09-15 08:01:26</time>
      </trkpt>
      <trkpt lat="45.67183" lon="6.23862">
        <ele>1542.4019</ele>
        <time>2020-09-15 08:01:32</time>
      </trkpt>
      <trkpt lat="45.67191" lon="6.23859">
        <ele>1539.7528</ele>
        <time>2020-09-15 08:01:39</time>
      </trkpt>
      <trkpt lat="45.67193" lon="6.23858">
        <ele>1539.59</ele>
        <time>2020-09-15 08:01:41</time>
      </trkpt>
      <trkpt lat="45.67198" lon="6.23855">
        <ele>1539.811</ele>
        <time>2020-09-15 08:01:46</time>
      </trkpt>
      <trkpt lat="45.67201" lon="6.23855">
        <ele>1540.3038</ele>
        <time>2020-09-15 08:01:49</time>
      </trkpt>
      <trkpt lat="45.67214" lon="6.2385">
        <ele>1536.2837</ele>
        <time>2020-09-15 08:02:01</time>
      </trkpt>
      <trkpt lat="45.6722" lon="6.2385">
        <ele>1536.0062</ele>
        <time>2020-09-15 08:02:06</time>
      </trkpt>
      <trkpt lat="45.67222" lon="6.2385">
        <ele>1536.5225</ele>
        <time>2020-09-15 08:02:08</time>
      </trkpt>
      <trkpt lat="45.67225" lon="6.23849">
        <ele>1530.794</ele>
        <time>2020-09-15 08:02:12</time>
      </trkpt>
      <trkpt lat="45.67228" lon="6.2385">
        <ele>1530.8739</ele>
        <time>2020-09-15 08:02:16</time>
      </trkpt>
      <trkpt lat="45.6723" lon="6.2385">
        <ele>1531.8016</ele>
        <time>2020-09-15 08:02:19</time>
      </trkpt>
      <trkpt lat="45.67235" lon="6.23851">
        <ele>1534.0236</ele>
        <time>2020-09-15 08:02:24</time>
      </trkpt>
      <trkpt lat="45.67238" lon="6.23851">
        <ele>1532.7905</ele>
        <time>2020-09-15 08:02:27</time>
      </trkpt>
      <trkpt lat="45.67245" lon="6.23852">
        <ele>1534.6743</ele>
        <time>2020-09-15 08:02:35</time>
      </trkpt>
      <trkpt lat="45.67247" lon="6.23852">
        <ele>1536.6602</ele>
        <time>2020-09-15 08:02:37</time>
      </trkpt>
      <trkpt lat="45.6725" lon="6.23851">
        <ele>1536.7325</ele>
        <time>2020-09-15 08:02:41</time>
      </trkpt>
      <trkpt lat="45.67252" lon="6.23851">
        <ele>1534.0007</ele>
        <time>2020-09-15 08:02:44</time>
      </trkpt>
      <trkpt lat="45.67255" lon="6.23851">
        <ele>1533.5416</ele>
        <time>2020-09-15 08:02:47</time>
      </trkpt>
      <trkpt lat="45.67264" lon="6.23848">
        <ele>1535.3617</ele>
        <time>2020-09-15 08:02:58</time>
      </trkpt>
      <trkpt lat="45.67266" lon="6.23847">
        <ele>1535.3287</ele>
        <time>2020-09-15 08:03:00</time>
      </trkpt>
      <trkpt lat="45.67271" lon="6.23846">
        <ele>1530.8184</ele>
        <time>2020-09-15 08:03:05</time>
      </trkpt>
      <trkpt lat="45.67272" lon="6.23846">
        <ele>1529.8446</ele>
        <time>2020-09-15 08:03:06</time>
      </trkpt>
      <trkpt lat="45.67274" lon="6.23845">
        <ele>1531.1252</ele>
        <time>2020-09-15 08:03:09</time>
      </trkpt>
      <trkpt lat="45.67276" lon="6.23844">
        <ele>1531.0317</ele>
        <time>2020-09-15 08:03:11</time>
      </trkpt>
      <trkpt lat="45.67279" lon="6.23843">
        <ele>1533.657</ele>
        <time>2020-09-15 08:03:14</time>
      </trkpt>
      <trkpt lat="45.67282" lon="6.23842">
        <ele>1532.2482</ele>
        <time>2020-09-15 08:03:17</time>
      </trkpt>
      <trkpt lat="45.67289" lon="6.2384">
        <ele>1531.6636</ele>
        <time>2020-09-15 08:03:25</time>
      </trkpt>
      <trkpt lat="45.67296" lon="6.2384">
        <ele>1538.7708</ele>
        <time>2020-09-15 08:03:33</time>
      </trkpt>
      <trkpt lat="45.67298" lon="6.2384">
        <ele>1539.8076</ele>
        <time>2020-09-15 08:03:37</time>
      </trkpt>
      <trkpt lat="45.67302" lon="6.2384">
        <ele>1541.0253</ele>
        <time>2020-09-15 08:03:41</time>
      </trkpt>
      <trkpt lat="45.67303" lon="6.2384">
        <ele>1542.8014</ele>
        <time>2020-09-15 08:03:42</time>
      </trkpt>
      <trkpt lat="45.67311" lon="6.2384">
        <ele>1543.8066</ele>
        <time>2020-09-15 08:03:50</time>
      </trkpt>
      <trkpt lat="45.67316" lon="6.23839">
        <ele>1547.51</ele>
        <time>2020-09-15 08:03:57</time>
      </trkpt>
      <trkpt lat="45.6732" lon="6.2384">
        <ele>1544.6606</ele>
        <time>2020-09-15 08:04:02</time>
      </trkpt>
      <trkpt lat="45.67325" lon="6.23843">
        <ele>1547.5688</ele>
        <time>2020-09-15 08:04:08</time>
      </trkpt>
      <trkpt lat="45.67331" lon="6.23845">
        <ele>1545.699</ele>
        <time>2020-09-15 08:04:13</time>
      </trkpt>
      <trkpt lat="45.67334" lon="6.23846">
        <ele>1546.1824</ele>
        <time>2020-09-15 08:04:16</time>
      </trkpt>
      <trkpt lat="45.67337" lon="6.23847">
        <ele>1546.3102</ele>
        <time>2020-09-15 08:04:19</time>
      </trkpt>
      <trkpt lat="45.67342" lon="6.23851">
        <ele>1547.7928</ele>
        <time>2020-09-15 08:04:25</time>
      </trkpt>
      <trkpt lat="45.67344" lon="6.23853">
        <ele>1546.3102</ele>
        <time>2020-09-15 08:04:28</time>
      </trkpt>
      <trkpt lat="45.67348" lon="6.23857">
        <ele>1547.3439</ele>
        <time>2020-09-15 08:04:32</time>
      </trkpt>
      <trkpt lat="45.6735" lon="6.23859">
        <ele>1548.2339</ele>
        <time>2020-09-15 08:04:34</time>
      </trkpt>
      <trkpt lat="45.67353" lon="6.23864">
        <ele>1548.7856</ele>
        <time>2020-09-15 08:04:38</time>
      </trkpt>
      <trkpt lat="45.67358" lon="6.23868">
        <ele>1550.3904</ele>
        <time>2020-09-15 08:04:45</time>
      </trkpt>
      <trkpt lat="45.67362" lon="6.23869">
        <ele>1550.7671</ele>
        <time>2020-09-15 08:04:51</time>
      </trkpt>
      <trkpt lat="45.67362" lon="6.2387">
        <ele>1550.3359</ele>
        <time>2020-09-15 08:04:52</time>
      </trkpt>
      <trkpt lat="45.67366" lon="6.23871">
        <ele>1551.6396</ele>
        <time>2020-09-15 08:04:56</time>
      </trkpt>
      <trkpt lat="45.67369" lon="6.23871">
        <ele>1552.4512</ele>
        <time>2020-09-15 08:04:58</time>
      </trkpt>
      <trkpt lat="45.67376" lon="6.23875">
        <ele>1552.081</ele>
        <time>2020-09-15 08:05:05</time>
      </trkpt>
      <trkpt lat="45.67379" lon="6.23875">
        <ele>1553.2075</ele>
        <time>2020-09-15 08:05:07</time>
      </trkpt>
      <trkpt lat="45.6738" lon="6.23875">
        <ele>1550.9976</ele>
        <time>2020-09-15 08:05:08</time>
      </trkpt>
      <trkpt lat="45.67381" lon="6.23876">
        <ele>1551.5107</ele>
        <time>2020-09-15 08:05:09</time>
      </trkpt>
      <trkpt lat="45.67385" lon="6.23878">
        <ele>1549.8176</ele>
        <time>2020-09-15 08:05:13</time>
      </trkpt>
      <trkpt lat="45.67387" lon="6.23879">
        <ele>1549.9802</ele>
        <time>2020-09-15 08:05:15</time>
      </trkpt>
      <trkpt lat="45.6739" lon="6.2388">
        <ele>1551.5107</ele>
        <time>2020-09-15 08:05:18</time>
      </trkpt>
      <trkpt lat="45.67393" lon="6.23883">
        <ele>1552.5557</ele>
        <time>2020-09-15 08:05:21</time>
      </trkpt>
      <trkpt lat="45.67395" lon="6.23885">
        <ele>1552.9468</ele>
        <time>2020-09-15 08:05:25</time>
      </trkpt>
      <trkpt lat="45.67398" lon="6.23886">
        <ele>1553.0493</ele>
        <time>2020-09-15 08:05:29</time>
      </trkpt>
      <trkpt lat="45.67401" lon="6.23886">
        <ele>1549.2544</ele>
        <time>2020-09-15 08:05:32</time>
      </trkpt>
      <trkpt lat="45.67404" lon="6.23888">
        <ele>1550.1035</ele>
        <time>2020-09-15 08:05:35</time>
      </trkpt>
      <trkpt lat="45.67407" lon="6.23889">
        <ele>1549.9077</ele>
        <time>2020-09-15 08:05:39</time>
      </trkpt>
      <trkpt lat="45.67409" lon="6.2389">
        <ele>1551.001</ele>
        <time>2020-09-15 08:05:42</time>
      </trkpt>
      <trkpt lat="45.67413" lon="6.23889">
        <ele>1551.603</ele>
        <time>2020-09-15 08:05:48</time>
      </trkpt>
      <trkpt lat="45.67429" lon="6.23891">
        <ele>1557.7124</ele>
        <time>2020-09-15 08:06:06</time>
      </trkpt>
      <trkpt lat="45.67432" lon="6.2389">
        <ele>1556.2317</ele>
        <time>2020-09-15 08:06:09</time>
      </trkpt>
      <trkpt lat="45.67434" lon="6.2389">
        <ele>1556.2217</ele>
        <time>2020-09-15 08:06:11</time>
      </trkpt>
      <trkpt lat="45.67438" lon="6.2389">
        <ele>1558.6304</ele>
        <time>2020-09-15 08:06:16</time>
      </trkpt>
      <trkpt lat="45.67441" lon="6.2389">
        <ele>1560.3284</ele>
        <time>2020-09-15 08:06:20</time>
      </trkpt>
      <trkpt lat="45.67444" lon="6.23888">
        <ele>1557.3152</ele>
        <time>2020-09-15 08:06:23</time>
      </trkpt>
      <trkpt lat="45.6745" lon="6.23887">
        <ele>1560.8516</ele>
        <time>2020-09-15 08:06:28</time>
      </trkpt>
      <trkpt lat="45.67454" lon="6.23886">
        <ele>1560.8096</ele>
        <time>2020-09-15 08:06:33</time>
      </trkpt>
      <trkpt lat="45.67458" lon="6.23887">
        <ele>1559.2715</ele>
        <time>2020-09-15 08:06:37</time>
      </trkpt>
      <trkpt lat="45.67459" lon="6.23887">
        <ele>1558.7002</ele>
        <time>2020-09-15 08:06:39</time>
      </trkpt>
      <trkpt lat="45.67462" lon="6.23887">
        <ele>1559.9907</ele>
        <time>2020-09-15 08:06:42</time>
      </trkpt>
      <trkpt lat="45.67474" lon="6.23891">
        <ele>1560.876</ele>
        <time>2020-09-15 08:06:56</time>
      </trkpt>
      <trkpt lat="45.67479" lon="6.23891">
        <ele>1560.7827</ele>
        <time>2020-09-15 08:07:01</time>
      </trkpt>
      <trkpt lat="45.67484" lon="6.23891">
        <ele>1562.0452</ele>
        <time>2020-09-15 08:07:06</time>
      </trkpt>
      <trkpt lat="45.67488" lon="6.23892">
        <ele>1563.2727</ele>
        <time>2020-09-15 08:07:10</time>
      </trkpt>
      <trkpt lat="45.675" lon="6.239">
        <ele>1562.854</ele>
        <time>2020-09-15 08:07:26</time>
      </trkpt>
      <trkpt lat="45.67507" lon="6.2391">
        <ele>1562.2083</ele>
        <time>2020-09-15 08:07:36</time>
      </trkpt>
      <trkpt lat="45.6751" lon="6.23914">
        <ele>1565.1528</ele>
        <time>2020-09-15 08:07:40</time>
      </trkpt>
      <trkpt lat="45.67517" lon="6.23924">
        <ele>1565.0391</ele>
        <time>2020-09-15 08:07:50</time>
      </trkpt>
      <trkpt lat="45.67519" lon="6.23926">
        <ele>1566.1455</ele>
        <time>2020-09-15 08:07:53</time>
      </trkpt>
      <trkpt lat="45.67521" lon="6.23927">
        <ele>1566.106</ele>
        <time>2020-09-15 08:07:56</time>
      </trkpt>
      <trkpt lat="45.6753" lon="6.23933">
        <ele>1566.0293</ele>
        <time>2020-09-15 08:08:09</time>
      </trkpt>
      <trkpt lat="45.67533" lon="6.23934">
        <ele>1567.8816</ele>
        <time>2020-09-15 08:08:15</time>
      </trkpt>
      <trkpt lat="45.67535" lon="6.23934">
        <ele>1568.5571</ele>
        <time>2020-09-15 08:08:17</time>
      </trkpt>
      <trkpt lat="45.67538" lon="6.23936">
        <ele>1571.7251</ele>
        <time>2020-09-15 08:08:21</time>
      </trkpt>
      <trkpt lat="45.67538" lon="6.23936">
        <ele>1570.792</ele>
        <time>2020-09-15 08:08:22</time>
      </trkpt>
      <trkpt lat="45.67542" lon="6.23937">
        <ele>1571.8022</ele>
        <time>2020-09-15 08:08:26</time>
      </trkpt>
      <trkpt lat="45.67548" lon="6.23939">
        <ele>1568.2686</ele>
        <time>2020-09-15 08:08:33</time>
      </trkpt>
      <trkpt lat="45.67551" lon="6.2394">
        <ele>1568.9727</ele>
        <time>2020-09-15 08:08:36</time>
      </trkpt>
      <trkpt lat="45.67556" lon="6.23939">
        <ele>1569.4092</ele>
        <time>2020-09-15 08:08:41</time>
      </trkpt>
      <trkpt lat="45.67559" lon="6.2394">
        <ele>1571.5093</ele>
        <time>2020-09-15 08:08:46</time>
      </trkpt>
      <trkpt lat="45.67565" lon="6.23941">
        <ele>1571.8569</ele>
        <time>2020-09-15 08:08:55</time>
      </trkpt>
      <trkpt lat="45.67573" lon="6.23939">
        <ele>1575.6794</ele>
        <time>2020-09-15 08:09:03</time>
      </trkpt>
      <trkpt lat="45.67575" lon="6.23939">
        <ele>1575.2617</ele>
        <time>2020-09-15 08:09:05</time>
      </trkpt>
      <trkpt lat="45.67583" lon="6.23939">
        <ele>1576.4604</ele>
        <time>2020-09-15 08:09:15</time>
      </trkpt>
      <trkpt lat="45.67583" lon="6.23938">
        <ele>1575.7808</ele>
        <time>2020-09-15 08:09:16</time>
      </trkpt>
      <trkpt lat="45.67586" lon="6.23937">
        <ele>1576.6582</ele>
        <time>2020-09-15 08:09:19</time>
      </trkpt>
      <trkpt lat="45.67594" lon="6.23936">
        <ele>1580.8667</ele>
        <time>2020-09-15 08:09:28</time>
      </trkpt>
      <trkpt lat="45.67599" lon="6.23934">
        <ele>1584.4902</ele>
        <time>2020-09-15 08:09:34</time>
      </trkpt>
      <trkpt lat="45.67606" lon="6.23936">
        <ele>1583.1265</ele>
        <time>2020-09-15 08:09:42</time>
      </trkpt>
      <trkpt lat="45.67609" lon="6.23936">
        <ele>1585.8157</ele>
        <time>2020-09-15 08:09:45</time>
      </trkpt>
      <trkpt lat="45.67611" lon="6.23937">
        <ele>1586.6824</ele>
        <time>2020-09-15 08:09:47</time>
      </trkpt>
      <trkpt lat="45.67619" lon="6.2394">
        <ele>1591.4966</ele>
        <time>2020-09-15 08:09:57</time>
      </trkpt>
      <trkpt lat="45.67622" lon="6.23941">
        <ele>1591.0613</ele>
        <time>2020-09-15 08:10:00</time>
      </trkpt>
      <trkpt lat="45.67626" lon="6.23942">
        <ele>1591.6914</ele>
        <time>2020-09-15 08:10:07</time>
      </trkpt>
      <trkpt lat="45.67629" lon="6.23943">
        <ele>1591.3955</ele>
        <time>2020-09-15 08:10:12</time>
      </trkpt>
      <trkpt lat="45.67637" lon="6.23935">
        <ele>1590.5586</ele>
        <time>2020-09-15 08:10:27</time>
      </trkpt>
      <trkpt lat="45.67638" lon="6.23936">
        <ele>1589.4385</ele>
        <time>2020-09-15 08:10:31</time>
      </trkpt>
      <trkpt lat="45.67638" lon="6.23936">
        <ele>1588.1775</ele>
        <time>2020-09-15 08:10:34</time>
      </trkpt>
      <trkpt lat="45.67638" lon="6.23936">
        <ele>1591.147</ele>
        <time>2020-09-15 08:10:35</time>
      </trkpt>
      <trkpt lat="45.67639" lon="6.23937">
        <ele>1589.4126</ele>
        <time>2020-09-15 08:10:37</time>
      </trkpt>
      <trkpt lat="45.67641" lon="6.23937">
        <ele>1589.5769</ele>
        <time>2020-09-15 08:10:40</time>
      </trkpt>
      <trkpt lat="45.67644" lon="6.23938">
        <ele>1595.7397</ele>
        <time>2020-09-15 08:10:44</time>
      </trkpt>
      <trkpt lat="45.67653" lon="6.23936">
        <ele>1596.7505</ele>
        <time>2020-09-15 08:10:57</time>
      </trkpt>
      <trkpt lat="45.67655" lon="6.23936">
        <ele>1597.7244</ele>
        <time>2020-09-15 08:11:00</time>
      </trkpt>
      <trkpt lat="45.67659" lon="6.23937">
        <ele>1596.4075</ele>
        <time>2020-09-15 08:11:05</time>
      </trkpt>
      <trkpt lat="45.67661" lon="6.2394">
        <ele>1595.8779</ele>
        <time>2020-09-15 08:11:09</time>
      </trkpt>
      <trkpt lat="45.67669" lon="6.23946">
        <ele>1595.8779</ele>
        <time>2020-09-15 08:11:18</time>
      </trkpt>
      <trkpt lat="45.67678" lon="6.23946">
        <ele>1599.4497</ele>
        <time>2020-09-15 08:11:32</time>
      </trkpt>
      <trkpt lat="45.67683" lon="6.23944">
        <ele>1599.6204</ele>
        <time>2020-09-15 08:11:39</time>
      </trkpt>
      <trkpt lat="45.67687" lon="6.23945">
        <ele>1599.1621</ele>
        <time>2020-09-15 08:11:44</time>
      </trkpt>
      <trkpt lat="45.67696" lon="6.23939">
        <ele>1601.3267</ele>
        <time>2020-09-15 08:12:01</time>
      </trkpt>
      <trkpt lat="45.67698" lon="6.23938">
        <ele>1603.8347</ele>
        <time>2020-09-15 08:12:04</time>
      </trkpt>
      <trkpt lat="45.677" lon="6.23936">
        <ele>1602.4414</ele>
        <time>2020-09-15 08:12:08</time>
      </trkpt>
      <trkpt lat="45.67701" lon="6.23936">
        <ele>1601.6792</ele>
        <time>2020-09-15 08:12:11</time>
      </trkpt>
      <trkpt lat="45.67708" lon="6.23934">
        <ele>1601.3381</ele>
        <time>2020-09-15 08:12:21</time>
      </trkpt>
      <trkpt lat="45.67713" lon="6.23936">
        <ele>1601.8032</ele>
        <time>2020-09-15 08:12:27</time>
      </trkpt>
      <trkpt lat="45.67716" lon="6.23935">
        <ele>1604.2666</ele>
        <time>2020-09-15 08:12:32</time>
      </trkpt>
      <trkpt lat="45.67722" lon="6.23934">
        <ele>1603.7012</ele>
        <time>2020-09-15 08:12:39</time>
      </trkpt>
      <trkpt lat="45.67725" lon="6.23934">
        <ele>1606.1411</ele>
        <time>2020-09-15 08:12:43</time>
      </trkpt>
      <trkpt lat="45.67727" lon="6.23931">
        <ele>1607.6475</ele>
        <time>2020-09-15 08:12:47</time>
      </trkpt>
      <trkpt lat="45.67731" lon="6.23929">
        <ele>1608.9844</ele>
        <time>2020-09-15 08:12:52</time>
      </trkpt>
      <trkpt lat="45.67735" lon="6.23929">
        <ele>1608.9199</ele>
        <time>2020-09-15 08:12:58</time>
      </trkpt>
      <trkpt lat="45.67739" lon="6.2393">
        <ele>1608.9844</ele>
        <time>2020-09-15 08:13:02</time>
      </trkpt>
      <trkpt lat="45.67741" lon="6.2393">
        <ele>1605.8018</ele>
        <time>2020-09-15 08:13:06</time>
      </trkpt>
      <trkpt lat="45.67744" lon="6.23927">
        <ele>1607.7305</ele>
        <time>2020-09-15 08:13:11</time>
      </trkpt>
      <trkpt lat="45.67748" lon="6.23927">
        <ele>1609.7671</ele>
        <time>2020-09-15 08:13:15</time>
      </trkpt>
      <trkpt lat="45.67754" lon="6.23925">
        <ele>1610.6494</ele>
        <time>2020-09-15 08:13:24</time>
      </trkpt>
      <trkpt lat="45.67756" lon="6.23924">
        <ele>1608.0039</ele>
        <time>2020-09-15 08:13:27</time>
      </trkpt>
      <trkpt lat="45.67759" lon="6.23925">
        <ele>1609.0608</ele>
        <time>2020-09-15 08:13:30</time>
      </trkpt>
      <trkpt lat="45.67761" lon="6.23925">
        <ele>1608.9421</ele>
        <time>2020-09-15 08:13:33</time>
      </trkpt>
      <trkpt lat="45.67765" lon="6.23925">
        <ele>1610.9993</ele>
        <time>2020-09-15 08:13:38</time>
      </trkpt>
      <trkpt lat="45.67769" lon="6.23925">
        <ele>1609.958</ele>
        <time>2020-09-15 08:13:41</time>
      </trkpt>
      <trkpt lat="45.67773" lon="6.23925">
        <ele>1610.5576</ele>
        <time>2020-09-15 08:13:45</time>
      </trkpt>
      <trkpt lat="45.67775" lon="6.23925">
        <ele>1610.2861</ele>
        <time>2020-09-15 08:13:47</time>
      </trkpt>
      <trkpt lat="45.67779" lon="6.23924">
        <ele>1609.6079</ele>
        <time>2020-09-15 08:13:51</time>
      </trkpt>
      <trkpt lat="45.67782" lon="6.23923">
        <ele>1609.5986</ele>
        <time>2020-09-15 08:13:55</time>
      </trkpt>
      <trkpt lat="45.67785" lon="6.23919">
        <ele>1609.9697</ele>
        <time>2020-09-15 08:14:02</time>
      </trkpt>
      <trkpt lat="45.67789" lon="6.23916">
        <ele>1614.2363</ele>
        <time>2020-09-15 08:14:11</time>
      </trkpt>
      <trkpt lat="45.67795" lon="6.2391">
        <ele>1616.334</ele>
        <time>2020-09-15 08:14:24</time>
      </trkpt>
      <trkpt lat="45.67798" lon="6.23908">
        <ele>1617.927</ele>
        <time>2020-09-15 08:14:29</time>
      </trkpt>
      <trkpt lat="45.67804" lon="6.23901">
        <ele>1619.9609</ele>
        <time>2020-09-15 08:14:42</time>
      </trkpt>
      <trkpt lat="45.67808" lon="6.23898">
        <ele>1622.2373</ele>
        <time>2020-09-15 08:14:52</time>
      </trkpt>
      <trkpt lat="45.67811" lon="6.23895">
        <ele>1623.0586</ele>
        <time>2020-09-15 08:14:57</time>
      </trkpt>
      <trkpt lat="45.67813" lon="6.23893">
        <ele>1624.3887</ele>
        <time>2020-09-15 08:15:03</time>
      </trkpt>
      <trkpt lat="45.67832" lon="6.23877">
        <ele>1625.4404</ele>
        <time>2020-09-15 08:15:36</time>
      </trkpt>
      <trkpt lat="45.67834" lon="6.23876">
        <ele>1624.5918</ele>
        <time>2020-09-15 08:15:38</time>
      </trkpt>
      <trkpt lat="45.67837" lon="6.23874">
        <ele>1625.1975</ele>
        <time>2020-09-15 08:15:42</time>
      </trkpt>
      <trkpt lat="45.67842" lon="6.23872">
        <ele>1623.4641</ele>
        <time>2020-09-15 08:15:46</time>
      </trkpt>
      <trkpt lat="45.67843" lon="6.23872">
        <ele>1624.5918</ele>
        <time>2020-09-15 08:15:47</time>
      </trkpt>
      <trkpt lat="45.67848" lon="6.23872">
        <ele>1620.8618</ele>
        <time>2020-09-15 08:15:51</time>
      </trkpt>
      <trkpt lat="45.6785" lon="6.23871">
        <ele>1617.8042</ele>
        <time>2020-09-15 08:15:54</time>
      </trkpt>
      <trkpt lat="45.6785" lon="6.23871">
        <ele>1616.0044</ele>
        <time>2020-09-15 08:15:55</time>
      </trkpt>
      <trkpt lat="45.67854" lon="6.23871">
        <ele>1615.1052</ele>
        <time>2020-09-15 08:16:00</time>
      </trkpt>
      <trkpt lat="45.6786" lon="6.23871">
        <ele>1618.9209</ele>
        <time>2020-09-15 08:16:09</time>
      </trkpt>
      <trkpt lat="45.67866" lon="6.23872">
        <ele>1617.9714</ele>
        <time>2020-09-15 08:16:17</time>
      </trkpt>
      <trkpt lat="45.6787" lon="6.23873">
        <ele>1625.0327</ele>
        <time>2020-09-15 08:16:22</time>
      </trkpt>
      <trkpt lat="45.67873" lon="6.23873">
        <ele>1624.7041</ele>
        <time>2020-09-15 08:16:26</time>
      </trkpt>
      <trkpt lat="45.67878" lon="6.23872">
        <ele>1626.4526</ele>
        <time>2020-09-15 08:16:31</time>
      </trkpt>
      <trkpt lat="45.67881" lon="6.23872">
        <ele>1626.2881</ele>
        <time>2020-09-15 08:16:35</time>
      </trkpt>
      <trkpt lat="45.67883" lon="6.23871">
        <ele>1626.0742</ele>
        <time>2020-09-15 08:16:38</time>
      </trkpt>
      <trkpt lat="45.67888" lon="6.23869">
        <ele>1625.685</ele>
        <time>2020-09-15 08:16:44</time>
      </trkpt>
      <trkpt lat="45.67892" lon="6.23869">
        <ele>1625.656</ele>
        <time>2020-09-15 08:16:55</time>
      </trkpt>
      <trkpt lat="45.67893" lon="6.23869">
        <ele>1625.438</ele>
        <time>2020-09-15 08:16:56</time>
      </trkpt>
      <trkpt lat="45.67893" lon="6.2387">
        <ele>1624.6777</ele>
        <time>2020-09-15 08:16:57</time>
      </trkpt>
      <trkpt lat="45.67893" lon="6.2387">
        <ele>1624.127</ele>
        <time>2020-09-15 08:17:00</time>
      </trkpt>
      <trkpt lat="45.67897" lon="6.23874">
        <ele>1623.581</ele>
        <time>2020-09-15 08:17:05</time>
      </trkpt>
      <trkpt lat="45.67901" lon="6.23877">
        <ele>1623.5427</ele>
        <time>2020-09-15 08:17:10</time>
      </trkpt>
      <trkpt lat="45.67908" lon="6.23883">
        <ele>1626.2798</ele>
        <time>2020-09-15 08:17:19</time>
      </trkpt>
      <trkpt lat="45.6791" lon="6.23886">
        <ele>1628.5603</ele>
        <time>2020-09-15 08:17:22</time>
      </trkpt>
      <trkpt lat="45.67915" lon="6.23903">
        <ele>1634.417</ele>
        <time>2020-09-15 08:17:36</time>
      </trkpt>
      <trkpt lat="45.6792" lon="6.23913">
        <ele>1633.9414</ele>
        <time>2020-09-15 08:17:44</time>
      </trkpt>
      <trkpt lat="45.67921" lon="6.23915">
        <ele>1633.4229</ele>
        <time>2020-09-15 08:17:47</time>
      </trkpt>
      <trkpt lat="45.67928" lon="6.23917">
        <ele>1629.2742</ele>
        <time>2020-09-15 08:17:55</time>
      </trkpt>
      <trkpt lat="45.67929" lon="6.23917">
        <ele>1630.0991</ele>
        <time>2020-09-15 08:17:57</time>
      </trkpt>
      <trkpt lat="45.6793" lon="6.23917">
        <ele>1629.4082</ele>
        <time>2020-09-15 08:18:01</time>
      </trkpt>
      <trkpt lat="45.67931" lon="6.23915">
        <ele>1630.5938</ele>
        <time>2020-09-15 08:18:05</time>
      </trkpt>
      <trkpt lat="45.67935" lon="6.23912">
        <ele>1633.8503</ele>
        <time>2020-09-15 08:18:12</time>
      </trkpt>
      <trkpt lat="45.67939" lon="6.23912">
        <ele>1632.7764</ele>
        <time>2020-09-15 08:18:19</time>
      </trkpt>
      <trkpt lat="45.67939" lon="6.2391">
        <ele>1633.4287</ele>
        <time>2020-09-15 08:18:22</time>
      </trkpt>
      <trkpt lat="45.67939" lon="6.23908">
        <ele>1631.8008</ele>
        <time>2020-09-15 08:18:35</time>
      </trkpt>
      <trkpt lat="45.67944" lon="6.23909">
        <ele>1631.8271</ele>
        <time>2020-09-15 08:18:43</time>
      </trkpt>
      <trkpt lat="45.67949" lon="6.23909">
        <ele>1629.7163</ele>
        <time>2020-09-15 08:18:48</time>
      </trkpt>
      <trkpt lat="45.67952" lon="6.23914">
        <ele>1628.6582</ele>
        <time>2020-09-15 08:18:53</time>
      </trkpt>
      <trkpt lat="45.67953" lon="6.23917">
        <ele>1626.5762</ele>
        <time>2020-09-15 08:18:59</time>
      </trkpt>
      <trkpt lat="45.67957" lon="6.23916">
        <ele>1628.667</ele>
        <time>2020-09-15 08:19:04</time>
      </trkpt>
      <trkpt lat="45.67963" lon="6.23922">
        <ele>1626.9268</ele>
        <time>2020-09-15 08:19:13</time>
      </trkpt>
      <trkpt lat="45.67966" lon="6.23921">
        <ele>1629.4512</ele>
        <time>2020-09-15 08:19:16</time>
      </trkpt>
      <trkpt lat="45.6797" lon="6.23919">
        <ele>1626.4795</ele>
        <time>2020-09-15 08:19:21</time>
      </trkpt>
      <trkpt lat="45.67973" lon="6.23917">
        <ele>1634.4365</ele>
        <time>2020-09-15 08:19:26</time>
      </trkpt>
      <trkpt lat="45.67978" lon="6.23916">
        <ele>1639.2214</ele>
        <time>2020-09-15 08:19:37</time>
      </trkpt>
      <trkpt lat="45.67983" lon="6.23917">
        <ele>1639.543</ele>
        <time>2020-09-15 08:19:42</time>
      </trkpt>
      <trkpt lat="45.6799" lon="6.23919">
        <ele>1643.5737</ele>
        <time>2020-09-15 08:19:53</time>
      </trkpt>
      <trkpt lat="45.67994" lon="6.2392">
        <ele>1645.6982</ele>
        <time>2020-09-15 08:19:59</time>
      </trkpt>
      <trkpt lat="45.67994" lon="6.2392">
        <ele>1645.906</ele>
        <time>2020-09-15 08:20:00</time>
      </trkpt>
      <trkpt lat="45.67994" lon="6.23921">
        <ele>1646.9543</ele>
        <time>2020-09-15 08:20:03</time>
      </trkpt>
      <trkpt lat="45.67999" lon="6.23924">
        <ele>1648.7422</ele>
        <time>2020-09-15 08:20:12</time>
      </trkpt>
      <trkpt lat="45.68004" lon="6.23926">
        <ele>1644.9575</ele>
        <time>2020-09-15 08:20:19</time>
      </trkpt>
      <trkpt lat="45.68007" lon="6.23929">
        <ele>1645.6582</ele>
        <time>2020-09-15 08:20:22</time>
      </trkpt>
      <trkpt lat="45.68008" lon="6.2393">
        <ele>1644.0215</ele>
        <time>2020-09-15 08:20:24</time>
      </trkpt>
      <trkpt lat="45.6801" lon="6.23933">
        <ele>1642.1753</ele>
        <time>2020-09-15 08:20:29</time>
      </trkpt>
      <trkpt lat="45.68013" lon="6.23934">
        <ele>1640.9297</ele>
        <time>2020-09-15 08:20:33</time>
      </trkpt>
      <trkpt lat="45.68019" lon="6.2394">
        <ele>1644.2773</ele>
        <time>2020-09-15 08:20:48</time>
      </trkpt>
      <trkpt lat="45.6802" lon="6.23939">
        <ele>1644.769</ele>
        <time>2020-09-15 08:20:50</time>
      </trkpt>
      <trkpt lat="45.68025" lon="6.23938">
        <ele>1645.1289</ele>
        <time>2020-09-15 08:20:57</time>
      </trkpt>
      <trkpt lat="45.6803" lon="6.2394">
        <ele>1648.2302</ele>
        <time>2020-09-15 08:21:05</time>
      </trkpt>
      <trkpt lat="45.68033" lon="6.23939">
        <ele>1650.4419</ele>
        <time>2020-09-15 08:21:10</time>
      </trkpt>
      <trkpt lat="45.68046" lon="6.23938">
        <ele>1656.7344</ele>
        <time>2020-09-15 08:21:24</time>
      </trkpt>
      <trkpt lat="45.68049" lon="6.23938">
        <ele>1656.9541</ele>
        <time>2020-09-15 08:21:28</time>
      </trkpt>
      <trkpt lat="45.68053" lon="6.23938">
        <ele>1660.1353</ele>
        <time>2020-09-15 08:21:34</time>
      </trkpt>
      <trkpt lat="45.68056" lon="6.23939">
        <ele>1658.44</ele>
        <time>2020-09-15 08:21:39</time>
      </trkpt>
      <trkpt lat="45.68058" lon="6.23939">
        <ele>1664.6855</ele>
        <time>2020-09-15 08:21:42</time>
      </trkpt>
      <trkpt lat="45.68065" lon="6.2394">
        <ele>1669.8215</ele>
        <time>2020-09-15 08:21:53</time>
      </trkpt>
      <trkpt lat="45.68073" lon="6.23945">
        <ele>1672.7393</ele>
        <time>2020-09-15 08:22:05</time>
      </trkpt>
      <trkpt lat="45.6808" lon="6.23949">
        <ele>1676.2468</ele>
        <time>2020-09-15 08:22:18</time>
      </trkpt>
      <trkpt lat="45.68084" lon="6.23952">
        <ele>1676.7065</ele>
        <time>2020-09-15 08:22:26</time>
      </trkpt>
      <trkpt lat="45.68086" lon="6.23954">
        <ele>1675.2593</ele>
        <time>2020-09-15 08:22:30</time>
      </trkpt>
      <trkpt lat="45.68093" lon="6.23959">
        <ele>1675.7129</ele>
        <time>2020-09-15 08:22:40</time>
      </trkpt>
      <trkpt lat="45.68099" lon="6.23963">
        <ele>1674.8225</ele>
        <time>2020-09-15 08:22:49</time>
      </trkpt>
      <trkpt lat="45.68099" lon="6.23964">
        <ele>1674.8547</ele>
        <time>2020-09-15 08:22:50</time>
      </trkpt>
      <trkpt lat="45.68104" lon="6.23966">
        <ele>1675.2659</ele>
        <time>2020-09-15 08:22:58</time>
      </trkpt>
      <trkpt lat="45.68107" lon="6.23967">
        <ele>1675.0967</ele>
        <time>2020-09-15 08:23:02</time>
      </trkpt>
      <trkpt lat="45.68109" lon="6.23968">
        <ele>1672.3137</ele>
        <time>2020-09-15 08:23:07</time>
      </trkpt>
      <trkpt lat="45.68112" lon="6.23969">
        <ele>1671.5378</ele>
        <time>2020-09-15 08:23:11</time>
      </trkpt>
      <trkpt lat="45.68115" lon="6.2397">
        <ele>1671.7085</ele>
        <time>2020-09-15 08:23:15</time>
      </trkpt>
      <trkpt lat="45.68116" lon="6.23971">
        <ele>1672.1753</ele>
        <time>2020-09-15 08:23:16</time>
      </trkpt>
      <trkpt lat="45.68117" lon="6.23972">
        <ele>1669.6675</ele>
        <time>2020-09-15 08:23:18</time>
      </trkpt>
      <trkpt lat="45.6812" lon="6.23974">
        <ele>1669.0312</ele>
        <time>2020-09-15 08:23:22</time>
      </trkpt>
      <trkpt lat="45.68125" lon="6.23975">
        <ele>1673.0586</ele>
        <time>2020-09-15 08:23:28</time>
      </trkpt>
      <trkpt lat="45.68128" lon="6.23975">
        <ele>1677.5732</ele>
        <time>2020-09-15 08:23:33</time>
      </trkpt>
      <trkpt lat="45.68136" lon="6.23974">
        <ele>1680.1616</ele>
        <time>2020-09-15 08:23:45</time>
      </trkpt>
      <trkpt lat="45.6814" lon="6.23974">
        <ele>1681.5493</ele>
        <time>2020-09-15 08:23:50</time>
      </trkpt>
      <trkpt lat="45.68144" lon="6.23974">
        <ele>1681.8655</ele>
        <time>2020-09-15 08:23:58</time>
      </trkpt>
      <trkpt lat="45.68144" lon="6.23974">
        <ele>1681.7402</ele>
        <time>2020-09-15 08:23:59</time>
      </trkpt>
      <trkpt lat="45.68146" lon="6.23975">
        <ele>1682.6089</ele>
        <time>2020-09-15 08:24:02</time>
      </trkpt>
      <trkpt lat="45.68149" lon="6.23977">
        <ele>1681.4143</ele>
        <time>2020-09-15 08:24:07</time>
      </trkpt>
      <trkpt lat="45.68153" lon="6.23978">
        <ele>1681.0518</ele>
        <time>2020-09-15 08:24:13</time>
      </trkpt>
      <trkpt lat="45.68159" lon="6.23986">
        <ele>1679.4304</ele>
        <time>2020-09-15 08:24:25</time>
      </trkpt>
      <trkpt lat="45.68161" lon="6.23989">
        <ele>1679.0767</ele>
        <time>2020-09-15 08:24:29</time>
      </trkpt>
      <trkpt lat="45.68162" lon="6.23989">
        <ele>1680.29</ele>
        <time>2020-09-15 08:24:31</time>
      </trkpt>
      <trkpt lat="45.6817" lon="6.2399">
        <ele>1682.6641</ele>
        <time>2020-09-15 08:24:44</time>
      </trkpt>
      <trkpt lat="45.68174" lon="6.23995">
        <ele>1682.1968</ele>
        <time>2020-09-15 08:24:51</time>
      </trkpt>
      <trkpt lat="45.68177" lon="6.23997">
        <ele>1683.0061</ele>
        <time>2020-09-15 08:24:54</time>
      </trkpt>
      <trkpt lat="45.68179" lon="6.23998">
        <ele>1680.5593</ele>
        <time>2020-09-15 08:24:59</time>
      </trkpt>
      <trkpt lat="45.68181" lon="6.24">
        <ele>1682.4072</ele>
        <time>2020-09-15 08:25:02</time>
      </trkpt>
      <trkpt lat="45.68181" lon="6.24">
        <ele>1683.2217</ele>
        <time>2020-09-15 08:25:03</time>
      </trkpt>
      <trkpt lat="45.68182" lon="6.24001">
        <ele>1681.7144</ele>
        <time>2020-09-15 08:25:04</time>
      </trkpt>
      <trkpt lat="45.68183" lon="6.24003">
        <ele>1684.3286</ele>
        <time>2020-09-15 08:25:09</time>
      </trkpt>
      <trkpt lat="45.68186" lon="6.24005">
        <ele>1683.1597</ele>
        <time>2020-09-15 08:25:14</time>
      </trkpt>
      <trkpt lat="45.68189" lon="6.24008">
        <ele>1683.4949</ele>
        <time>2020-09-15 08:25:19</time>
      </trkpt>
      <trkpt lat="45.68194" lon="6.24013">
        <ele>1684.2761</ele>
        <time>2020-09-15 08:25:30</time>
      </trkpt>
      <trkpt lat="45.68196" lon="6.24015">
        <ele>1684.6377</ele>
        <time>2020-09-15 08:25:36</time>
      </trkpt>
      <trkpt lat="45.68197" lon="6.24015">
        <ele>1684.1921</ele>
        <time>2020-09-15 08:25:39</time>
      </trkpt>
      <trkpt lat="45.68197" lon="6.24015">
        <ele>1681.0796</ele>
        <time>2020-09-15 08:25:41</time>
      </trkpt>
      <trkpt lat="45.68198" lon="6.24016">
        <ele>1680.2031</ele>
        <time>2020-09-15 08:25:42</time>
      </trkpt>
      <trkpt lat="45.68202" lon="6.24018">
        <ele>1682.685</ele>
        <time>2020-09-15 08:25:49</time>
      </trkpt>
      <trkpt lat="45.68205" lon="6.2402">
        <ele>1682.2861</ele>
        <time>2020-09-15 08:25:54</time>
      </trkpt>
      <trkpt lat="45.68208" lon="6.2402">
        <ele>1683.102</ele>
        <time>2020-09-15 08:25:58</time>
      </trkpt>
      <trkpt lat="45.68209" lon="6.2402">
        <ele>1682.685</ele>
        <time>2020-09-15 08:25:59</time>
      </trkpt>
      <trkpt lat="45.6821" lon="6.24021">
        <ele>1684.6318</ele>
        <time>2020-09-15 08:26:00</time>
      </trkpt>
      <trkpt lat="45.68213" lon="6.24022">
        <ele>1688.3022</ele>
        <time>2020-09-15 08:26:07</time>
      </trkpt>
      <trkpt lat="45.68214" lon="6.24021">
        <ele>1688.2495</ele>
        <time>2020-09-15 08:26:09</time>
      </trkpt>
      <trkpt lat="45.68218" lon="6.24023">
        <ele>1689.6201</ele>
        <time>2020-09-15 08:26:17</time>
      </trkpt>
      <trkpt lat="45.68221" lon="6.24029">
        <ele>1690.936</ele>
        <time>2020-09-15 08:26:25</time>
      </trkpt>
      <trkpt lat="45.68224" lon="6.24031">
        <ele>1694.3862</ele>
        <time>2020-09-15 08:26:32</time>
      </trkpt>
      <trkpt lat="45.68227" lon="6.24031">
        <ele>1694.3755</ele>
        <time>2020-09-15 08:26:42</time>
      </trkpt>
      <trkpt lat="45.68227" lon="6.24031">
        <ele>1695.3901</ele>
        <time>2020-09-15 08:26:43</time>
      </trkpt>
      <trkpt lat="45.68227" lon="6.24032">
        <ele>1695.4458</ele>
        <time>2020-09-15 08:26:44</time>
      </trkpt>
      <trkpt lat="45.68231" lon="6.24034">
        <ele>1694.3755</ele>
        <time>2020-09-15 08:26:51</time>
      </trkpt>
      <trkpt lat="45.68234" lon="6.24035">
        <ele>1704.1294</ele>
        <time>2020-09-15 08:26:58</time>
      </trkpt>
      <trkpt lat="45.68239" lon="6.24035">
        <ele>1703.9414</ele>
        <time>2020-09-15 08:27:03</time>
      </trkpt>
      <trkpt lat="45.68243" lon="6.24039">
        <ele>1702.0693</ele>
        <time>2020-09-15 08:27:07</time>
      </trkpt>
      <trkpt lat="45.68246" lon="6.2404">
        <ele>1704.0303</ele>
        <time>2020-09-15 08:27:11</time>
      </trkpt>
      <trkpt lat="45.68248" lon="6.24036">
        <ele>1706.0906</ele>
        <time>2020-09-15 08:27:15</time>
      </trkpt>
      <trkpt lat="45.68251" lon="6.24035">
        <ele>1705.8164</ele>
        <time>2020-09-15 08:27:22</time>
      </trkpt>
      <trkpt lat="45.68254" lon="6.24037">
        <ele>1709.1216</ele>
        <time>2020-09-15 08:27:27</time>
      </trkpt>
      <trkpt lat="45.68255" lon="6.24038">
        <ele>1709.2832</ele>
        <time>2020-09-15 08:27:28</time>
      </trkpt>
      <trkpt lat="45.6826" lon="6.24041">
        <ele>1709.0942</ele>
        <time>2020-09-15 08:27:32</time>
      </trkpt>
      <trkpt lat="45.68264" lon="6.24039">
        <ele>1704.1084</ele>
        <time>2020-09-15 08:27:38</time>
      </trkpt>
      <trkpt lat="45.68266" lon="6.24035">
        <ele>1704.6445</ele>
        <time>2020-09-15 08:27:42</time>
      </trkpt>
      <trkpt lat="45.68267" lon="6.24035">
        <ele>1706.8247</ele>
        <time>2020-09-15 08:27:43</time>
      </trkpt>
      <trkpt lat="45.68267" lon="6.24034">
        <ele>1705.1809</ele>
        <time>2020-09-15 08:27:44</time>
      </trkpt>
      <trkpt lat="45.68267" lon="6.24034">
        <ele>1704.2417</ele>
        <time>2020-09-15 08:27:48</time>
      </trkpt>
      <trkpt lat="45.68268" lon="6.24036">
        <ele>1703.9695</ele>
        <time>2020-09-15 08:27:51</time>
      </trkpt>
      <trkpt lat="45.68273" lon="6.24038">
        <ele>1703.2998</ele>
        <time>2020-09-15 08:27:57</time>
      </trkpt>
      <trkpt lat="45.6828" lon="6.2404">
        <ele>1708.5078</ele>
        <time>2020-09-15 08:28:08</time>
      </trkpt>
      <trkpt lat="45.68285" lon="6.24044">
        <ele>1709.3284</ele>
        <time>2020-09-15 08:28:17</time>
      </trkpt>
      <trkpt lat="45.68288" lon="6.24046">
        <ele>1708.5383</ele>
        <time>2020-09-15 08:28:21</time>
      </trkpt>
      <trkpt lat="45.68291" lon="6.24048">
        <ele>1711.5073</ele>
        <time>2020-09-15 08:28:25</time>
      </trkpt>
      <trkpt lat="45.68294" lon="6.2405">
        <ele>1710.2432</ele>
        <time>2020-09-15 08:28:29</time>
      </trkpt>
      <trkpt lat="45.68298" lon="6.2405">
        <ele>1711.7954</ele>
        <time>2020-09-15 08:28:33</time>
      </trkpt>
      <trkpt lat="45.68301" lon="6.24051">
        <ele>1711.7441</ele>
        <time>2020-09-15 08:28:39</time>
      </trkpt>
      <trkpt lat="45.68307" lon="6.24053">
        <ele>1713.657</ele>
        <time>2020-09-15 08:28:47</time>
      </trkpt>
      <trkpt lat="45.6831" lon="6.24053">
        <ele>1714.6567</ele>
        <time>2020-09-15 08:28:51</time>
      </trkpt>
      <trkpt lat="45.68311" lon="6.24053">
        <ele>1714.8884</ele>
        <time>2020-09-15 08:28:52</time>
      </trkpt>
      <trkpt lat="45.68313" lon="6.24052">
        <ele>1716.5737</ele>
        <time>2020-09-15 08:28:57</time>
      </trkpt>
      <trkpt lat="45.68314" lon="6.24052">
        <ele>1716.7932</ele>
        <time>2020-09-15 08:28:58</time>
      </trkpt>
      <trkpt lat="45.68315" lon="6.24052">
        <ele>1717.2983</ele>
        <time>2020-09-15 08:28:59</time>
      </trkpt>
      <trkpt lat="45.68315" lon="6.24051">
        <ele>1718.1262</ele>
        <time>2020-09-15 08:29:02</time>
      </trkpt>
      <trkpt lat="45.68315" lon="6.2405">
        <ele>1717.8848</ele>
        <time>2020-09-15 08:29:03</time>
      </trkpt>
      <trkpt lat="45.68318" lon="6.24051">
        <ele>1718.6328</ele>
        <time>2020-09-15 08:29:07</time>
      </trkpt>
      <trkpt lat="45.68319" lon="6.24052">
        <ele>1718.4937</ele>
        <time>2020-09-15 08:29:11</time>
      </trkpt>
      <trkpt lat="45.6832" lon="6.24053">
        <ele>1719.3684</ele>
        <time>2020-09-15 08:29:12</time>
      </trkpt>
      <trkpt lat="45.6832" lon="6.24053">
        <ele>1719.7412</ele>
        <time>2020-09-15 08:29:13</time>
      </trkpt>
      <trkpt lat="45.68322" lon="6.24054">
        <ele>1719.2734</ele>
        <time>2020-09-15 08:29:15</time>
      </trkpt>
      <trkpt lat="45.68324" lon="6.24055">
        <ele>1719.7874</ele>
        <time>2020-09-15 08:29:19</time>
      </trkpt>
      <trkpt lat="45.68331" lon="6.24058">
        <ele>1714.477</ele>
        <time>2020-09-15 08:29:29</time>
      </trkpt>
      <trkpt lat="45.68335" lon="6.2406">
        <ele>1715.7212</ele>
        <time>2020-09-15 08:29:35</time>
      </trkpt>
      <trkpt lat="45.6834" lon="6.24061">
        <ele>1716.689</ele>
        <time>2020-09-15 08:29:41</time>
      </trkpt>
      <trkpt lat="45.68345" lon="6.24062">
        <ele>1717.2356</ele>
        <time>2020-09-15 08:29:47</time>
      </trkpt>
      <trkpt lat="45.68349" lon="6.24066">
        <ele>1718.0186</ele>
        <time>2020-09-15 08:29:54</time>
      </trkpt>
      <trkpt lat="45.68356" lon="6.24067">
        <ele>1719.2141</ele>
        <time>2020-09-15 08:30:06</time>
      </trkpt>
      <trkpt lat="45.68359" lon="6.24065">
        <ele>1721.8926</ele>
        <time>2020-09-15 08:30:13</time>
      </trkpt>
      <trkpt lat="45.68363" lon="6.24066">
        <ele>1725.0205</ele>
        <time>2020-09-15 08:30:19</time>
      </trkpt>
      <trkpt lat="45.68367" lon="6.24066">
        <ele>1727.2786</ele>
        <time>2020-09-15 08:30:25</time>
      </trkpt>
      <trkpt lat="45.68375" lon="6.24069">
        <ele>1727.2639</ele>
        <time>2020-09-15 08:30:37</time>
      </trkpt>
      <trkpt lat="45.68379" lon="6.2407">
        <ele>1732.8948</ele>
        <time>2020-09-15 08:30:42</time>
      </trkpt>
      <trkpt lat="45.68383" lon="6.24071">
        <ele>1731.3542</ele>
        <time>2020-09-15 08:30:47</time>
      </trkpt>
      <trkpt lat="45.68387" lon="6.2407">
        <ele>1738.0742</ele>
        <time>2020-09-15 08:30:53</time>
      </trkpt>
      <trkpt lat="45.68391" lon="6.24066">
        <ele>1732.0869</ele>
        <time>2020-09-15 08:31:01</time>
      </trkpt>
      <trkpt lat="45.68396" lon="6.24062">
        <ele>1730.9106</ele>
        <time>2020-09-15 08:31:09</time>
      </trkpt>
      <trkpt lat="45.684" lon="6.24061">
        <ele>1730.9595</ele>
        <time>2020-09-15 08:31:14</time>
      </trkpt>
      <trkpt lat="45.68403" lon="6.24061">
        <ele>1730.7017</ele>
        <time>2020-09-15 08:31:19</time>
      </trkpt>
      <trkpt lat="45.68406" lon="6.24059">
        <ele>1730.352</ele>
        <time>2020-09-15 08:31:23</time>
      </trkpt>
      <trkpt lat="45.6842" lon="6.24047">
        <ele>1735.3982</ele>
        <time>2020-09-15 08:31:45</time>
      </trkpt>
      <trkpt lat="45.68424" lon="6.24041">
        <ele>1738.4248</ele>
        <time>2020-09-15 08:31:54</time>
      </trkpt>
      <trkpt lat="45.68434" lon="6.24031">
        <ele>1739.6387</ele>
        <time>2020-09-15 08:32:13</time>
      </trkpt>
      <trkpt lat="45.68436" lon="6.24027">
        <ele>1743.3875</ele>
        <time>2020-09-15 08:32:20</time>
      </trkpt>
      <trkpt lat="45.68436" lon="6.24026">
        <ele>1743.4597</ele>
        <time>2020-09-15 08:32:27</time>
      </trkpt>
      <trkpt lat="45.6844" lon="6.24018">
        <ele>1749.2349</ele>
        <time>2020-09-15 08:32:40</time>
      </trkpt>
      <trkpt lat="45.68441" lon="6.24017">
        <ele>1749.9854</ele>
        <time>2020-09-15 08:32:48</time>
      </trkpt>
      <trkpt lat="45.68443" lon="6.24014">
        <ele>1752.9309</ele>
        <time>2020-09-15 08:32:55</time>
      </trkpt>
      <trkpt lat="45.68443" lon="6.24013">
        <ele>1752.8997</ele>
        <time>2020-09-15 08:32:59</time>
      </trkpt>
      <trkpt lat="45.68443" lon="6.24012">
        <ele>1753.1035</ele>
        <time>2020-09-15 08:33:00</time>
      </trkpt>
      <trkpt lat="45.68444" lon="6.24012">
        <ele>1754.0234</ele>
        <time>2020-09-15 08:33:04</time>
      </trkpt>
      <trkpt lat="45.68447" lon="6.24007">
        <ele>1753.6963</ele>
        <time>2020-09-15 08:33:10</time>
      </trkpt>
      <trkpt lat="45.68449" lon="6.24007">
        <ele>1753.7639</ele>
        <time>2020-09-15 08:33:12</time>
      </trkpt>
      <trkpt lat="45.68449" lon="6.24006">
        <ele>1754.2041</ele>
        <time>2020-09-15 08:33:13</time>
      </trkpt>
      <trkpt lat="45.6845" lon="6.24006">
        <ele>1755.6621</ele>
        <time>2020-09-15 08:33:15</time>
      </trkpt>
      <trkpt lat="45.68451" lon="6.24006">
        <ele>1754.2847</ele>
        <time>2020-09-15 08:33:17</time>
      </trkpt>
      <trkpt lat="45.68452" lon="6.24004">
        <ele>1756.7717</ele>
        <time>2020-09-15 08:33:20</time>
      </trkpt>
      <trkpt lat="45.68453" lon="6.24001">
        <ele>1758.5557</ele>
        <time>2020-09-15 08:33:23</time>
      </trkpt>
      <trkpt lat="45.68453" lon="6.24001">
        <ele>1759.6519</ele>
        <time>2020-09-15 08:33:24</time>
      </trkpt>
      <trkpt lat="45.68453" lon="6.24001">
        <ele>1759.6323</ele>
        <time>2020-09-15 08:33:25</time>
      </trkpt>
      <trkpt lat="45.68453" lon="6.24001">
        <ele>1759.2026</ele>
        <time>2020-09-15 08:33:26</time>
      </trkpt>
      <trkpt lat="45.68453" lon="6.24">
        <ele>1756.751</ele>
        <time>2020-09-15 08:33:27</time>
      </trkpt>
      <trkpt lat="45.68454" lon="6.24">
        <ele>1759.4751</ele>
        <time>2020-09-15 08:33:28</time>
      </trkpt>
      <trkpt lat="45.68454" lon="6.24">
        <ele>1759.1523</ele>
        <time>2020-09-15 08:33:29</time>
      </trkpt>
      <trkpt lat="45.68456" lon="6.23997">
        <ele>1759.6714</ele>
        <time>2020-09-15 08:33:36</time>
      </trkpt>
      <trkpt lat="45.68456" lon="6.23996">
        <ele>1758.9795</ele>
        <time>2020-09-15 08:33:39</time>
      </trkpt>
      <trkpt lat="45.68456" lon="6.23995">
        <ele>1757.6709</ele>
        <time>2020-09-15 08:33:40</time>
      </trkpt>
      <trkpt lat="45.68459" lon="6.23991">
        <ele>1758.1782</ele>
        <time>2020-09-15 08:33:46</time>
      </trkpt>
      <trkpt lat="45.68459" lon="6.23991">
        <ele>1758.8862</ele>
        <time>2020-09-15 08:33:47</time>
      </trkpt>
      <trkpt lat="45.6846" lon="6.23989">
        <ele>1760.4365</ele>
        <time>2020-09-15 08:33:50</time>
      </trkpt>
      <trkpt lat="45.68459" lon="6.23988">
        <ele>1762.1382</ele>
        <time>2020-09-15 08:33:56</time>
      </trkpt>
      <trkpt lat="45.6846" lon="6.23987">
        <ele>1762.6406</ele>
        <time>2020-09-15 08:33:58</time>
      </trkpt>
      <trkpt lat="45.68465" lon="6.23982">
        <ele>1763.3643</ele>
        <time>2020-09-15 08:34:08</time>
      </trkpt>
      <trkpt lat="45.68466" lon="6.23981">
        <ele>1763.9976</ele>
        <time>2020-09-15 08:34:12</time>
      </trkpt>
      <trkpt lat="45.68467" lon="6.2398">
        <ele>1763.6753</ele>
        <time>2020-09-15 08:34:13</time>
      </trkpt>
      <trkpt lat="45.68467" lon="6.2398">
        <ele>1764.146</ele>
        <time>2020-09-15 08:34:14</time>
      </trkpt>
      <trkpt lat="45.68468" lon="6.2398">
        <ele>1764.0156</ele>
        <time>2020-09-15 08:34:15</time>
      </trkpt>
      <trkpt lat="45.68471" lon="6.23978">
        <ele>1763.6055</ele>
        <time>2020-09-15 08:34:23</time>
      </trkpt>
      <trkpt lat="45.68473" lon="6.23976">
        <ele>1765.0352</ele>
        <time>2020-09-15 08:34:29</time>
      </trkpt>
      <trkpt lat="45.68476" lon="6.23975">
        <ele>1767.1387</ele>
        <time>2020-09-15 08:34:34</time>
      </trkpt>
      <trkpt lat="45.68477" lon="6.23975">
        <ele>1765.5854</ele>
        <time>2020-09-15 08:34:37</time>
      </trkpt>
      <trkpt lat="45.68477" lon="6.23974">
        <ele>1766.0186</ele>
        <time>2020-09-15 08:34:39</time>
      </trkpt>
      <trkpt lat="45.68478" lon="6.23973">
        <ele>1766.8413</ele>
        <time>2020-09-15 08:34:40</time>
      </trkpt>
      <trkpt lat="45.6848" lon="6.23973">
        <ele>1767.3379</ele>
        <time>2020-09-15 08:34:43</time>
      </trkpt>
      <trkpt lat="45.68481" lon="6.23973">
        <ele>1767.373</ele>
        <time>2020-09-15 08:34:44</time>
      </trkpt>
      <trkpt lat="45.68481" lon="6.23972">
        <ele>1766.8638</ele>
        <time>2020-09-15 08:34:45</time>
      </trkpt>
      <trkpt lat="45.68484" lon="6.23971">
        <ele>1768.9678</ele>
        <time>2020-09-15 08:34:50</time>
      </trkpt>
      <trkpt lat="45.68484" lon="6.2397">
        <ele>1769.0723</ele>
        <time>2020-09-15 08:34:55</time>
      </trkpt>
      <trkpt lat="45.68491" lon="6.23965">
        <ele>1773.7983</ele>
        <time>2020-09-15 08:35:09</time>
      </trkpt>
      <trkpt lat="45.68492" lon="6.23965">
        <ele>1773.4695</ele>
        <time>2020-09-15 08:35:11</time>
      </trkpt>
      <trkpt lat="45.68495" lon="6.23962">
        <ele>1773.5696</ele>
        <time>2020-09-15 08:35:17</time>
      </trkpt>
      <trkpt lat="45.68495" lon="6.23961">
        <ele>1775.73</ele>
        <time>2020-09-15 08:35:19</time>
      </trkpt>
      <trkpt lat="45.68497" lon="6.2396">
        <ele>1773.8955</ele>
        <time>2020-09-15 08:35:22</time>
      </trkpt>
      <trkpt lat="45.68497" lon="6.2396">
        <ele>1773.7617</ele>
        <time>2020-09-15 08:35:23</time>
      </trkpt>
      <trkpt lat="45.68497" lon="6.2396">
        <ele>1774.0732</ele>
        <time>2020-09-15 08:35:24</time>
      </trkpt>
      <trkpt lat="45.68498" lon="6.2396">
        <ele>1774.4009</ele>
        <time>2020-09-15 08:35:26</time>
      </trkpt>
      <trkpt lat="45.68499" lon="6.2396">
        <ele>1775.1465</ele>
        <time>2020-09-15 08:35:28</time>
      </trkpt>
      <trkpt lat="45.68501" lon="6.23959">
        <ele>1775.0396</ele>
        <time>2020-09-15 08:35:34</time>
      </trkpt>
      <trkpt lat="45.68501" lon="6.2396">
        <ele>1775.3975</ele>
        <time>2020-09-15 08:35:38</time>
      </trkpt>
      <trkpt lat="45.68505" lon="6.23961">
        <ele>1777.529</ele>
        <time>2020-09-15 08:35:45</time>
      </trkpt>
      <trkpt lat="45.68507" lon="6.23961">
        <ele>1778.3943</ele>
        <time>2020-09-15 08:35:48</time>
      </trkpt>
      <trkpt lat="45.68507" lon="6.23961">
        <ele>1778.1372</ele>
        <time>2020-09-15 08:35:50</time>
      </trkpt>
      <trkpt lat="45.6851" lon="6.2396">
        <ele>1777.9004</ele>
        <time>2020-09-15 08:35:55</time>
      </trkpt>
      <trkpt lat="45.68514" lon="6.23962">
        <ele>1778.9326</ele>
        <time>2020-09-15 08:36:04</time>
      </trkpt>
      <trkpt lat="45.68519" lon="6.23963">
        <ele>1781.1777</ele>
        <time>2020-09-15 08:36:12</time>
      </trkpt>
      <trkpt lat="45.68523" lon="6.23963">
        <ele>1782.9912</ele>
        <time>2020-09-15 08:36:18</time>
      </trkpt>
      <trkpt lat="45.68526" lon="6.23963">
        <ele>1785.2466</ele>
        <time>2020-09-15 08:36:23</time>
      </trkpt>
      <trkpt lat="45.68526" lon="6.23963">
        <ele>1783.4819</ele>
        <time>2020-09-15 08:36:25</time>
      </trkpt>
      <trkpt lat="45.68527" lon="6.23964">
        <ele>1782.8281</ele>
        <time>2020-09-15 08:36:26</time>
      </trkpt>
      <trkpt lat="45.68528" lon="6.23964">
        <ele>1783.1455</ele>
        <time>2020-09-15 08:36:28</time>
      </trkpt>
      <trkpt lat="45.68528" lon="6.23963">
        <ele>1782.581</ele>
        <time>2020-09-15 08:36:30</time>
      </trkpt>
      <trkpt lat="45.68531" lon="6.23962">
        <ele>1782.3408</ele>
        <time>2020-09-15 08:36:36</time>
      </trkpt>
      <trkpt lat="45.68532" lon="6.23963">
        <ele>1783.0437</ele>
        <time>2020-09-15 08:37:07</time>
      </trkpt>
      <trkpt lat="45.68532" lon="6.23963">
        <ele>1783.3694</ele>
        <time>2020-09-15 08:37:09</time>
      </trkpt>
      <trkpt lat="45.68532" lon="6.23963">
        <ele>1784.114</ele>
        <time>2020-09-15 08:37:10</time>
      </trkpt>
      <trkpt lat="45.68531" lon="6.23961">
        <ele>1782.3132</ele>
        <time>2020-09-15 08:37:15</time>
      </trkpt>
      <trkpt lat="45.68529" lon="6.23962">
        <ele>1783.167</ele>
        <time>2020-09-15 08:37:17</time>
      </trkpt>
      <trkpt lat="45.68527" lon="6.23962">
        <ele>1782.6519</ele>
        <time>2020-09-15 08:37:20</time>
      </trkpt>
      <trkpt lat="45.68527" lon="6.23962">
        <ele>1784.258</ele>
        <time>2020-09-15 08:37:26</time>
      </trkpt>
      <trkpt lat="45.68526" lon="6.23962">
        <ele>1784.5625</ele>
        <time>2020-09-15 08:37:28</time>
      </trkpt>
      <trkpt lat="45.68525" lon="6.23963">
        <ele>1784.7637</ele>
        <time>2020-09-15 08:37:30</time>
      </trkpt>
      <trkpt lat="45.68524" lon="6.23961">
        <ele>1785.3975</ele>
        <time>2020-09-15 08:38:17</time>
      </trkpt>
      <trkpt lat="45.68524" lon="6.23961">
        <ele>1785.1357</ele>
        <time>2020-09-15 08:38:18</time>
      </trkpt>
      <trkpt lat="45.68525" lon="6.23961">
        <ele>1785.1704</ele>
        <time>2020-09-15 08:38:20</time>
      </trkpt>
      <trkpt lat="45.68525" lon="6.23961">
        <ele>1784.9731</ele>
        <time>2020-09-15 08:38:21</time>
      </trkpt>
      <trkpt lat="45.68526" lon="6.23961">
        <ele>1786.3151</ele>
        <time>2020-09-15 08:39:10</time>
      </trkpt>
      <trkpt lat="45.68528" lon="6.23962">
        <ele>1788.1953</ele>
        <time>2020-09-15 08:39:12</time>
      </trkpt>
      <trkpt lat="45.68532" lon="6.23962">
        <ele>1788.1377</ele>
        <time>2020-09-15 08:39:17</time>
      </trkpt>
      <trkpt lat="45.68533" lon="6.23964">
        <ele>1787.9463</ele>
        <time>2020-09-15 08:40:05</time>
      </trkpt>
      <trkpt lat="45.68532" lon="6.23964">
        <ele>1788.3408</ele>
        <time>2020-09-15 08:40:57</time>
      </trkpt>
      <trkpt lat="45.68533" lon="6.23964">
        <ele>1789.2546</ele>
        <time>2020-09-15 08:41:52</time>
      </trkpt>
      <trkpt lat="45.68534" lon="6.23962">
        <ele>1784.1016</ele>
        <time>2020-09-15 08:42:43</time>
      </trkpt>
      <trkpt lat="45.68534" lon="6.23965">
        <ele>1789.3923</ele>
        <time>2020-09-15 08:44:05</time>
      </trkpt>
      <trkpt lat="45.68533" lon="6.23965">
        <ele>1788.6077</ele>
        <time>2020-09-15 08:44:06</time>
      </trkpt>
      <trkpt lat="45.68533" lon="6.23965">
        <ele>1789.3716</ele>
        <time>2020-09-15 08:44:27</time>
      </trkpt>
      <trkpt lat="45.68532" lon="6.23964">
        <ele>1789.3455</ele>
        <time>2020-09-15 08:44:29</time>
      </trkpt>
      <trkpt lat="45.68533" lon="6.23965">
        <ele>1788.2339</ele>
        <time>2020-09-15 08:45:16</time>
      </trkpt>
      <trkpt lat="45.68533" lon="6.23965">
        <ele>1788.2979</ele>
        <time>2020-09-15 08:45:17</time>
      </trkpt>
      <trkpt lat="45.68533" lon="6.23966">
        <ele>1788.3232</ele>
        <time>2020-09-15 08:46:14</time>
      </trkpt>
      <trkpt lat="45.68533" lon="6.23966">
        <ele>1788.4614</ele>
        <time>2020-09-15 08:46:45</time>
      </trkpt>
      <trkpt lat="45.68533" lon="6.23963">
        <ele>1789.1165</ele>
        <time>2020-09-15 08:47:01</time>
      </trkpt>
      <trkpt lat="45.68533" lon="6.23963">
        <ele>1789.7021</ele>
        <time>2020-09-15 08:47:02</time>
      </trkpt>
      <trkpt lat="45.68533" lon="6.23964">
        <ele>1790.8242</ele>
        <time>2020-09-15 08:47:07</time>
      </trkpt>
      <trkpt lat="45.68533" lon="6.23963">
        <ele>1791.3198</ele>
        <time>2020-09-15 08:47:08</time>
      </trkpt>
      <trkpt lat="45.68533" lon="6.23963">
        <ele>1791.9185</ele>
        <time>2020-09-15 08:47:17</time>
      </trkpt>
      <trkpt lat="45.68533" lon="6.23964">
        <ele>1791.6611</ele>
        <time>2020-09-15 08:47:18</time>
      </trkpt>
      <trkpt lat="45.68534" lon="6.23963">
        <ele>1789.4741</ele>
        <time>2020-09-15 08:47:30</time>
      </trkpt>
      <trkpt lat="45.68534" lon="6.23964">
        <ele>1789.2432</ele>
        <time>2020-09-15 08:47:31</time>
      </trkpt>
      <trkpt lat="45.68534" lon="6.23964">
        <ele>1788.2178</ele>
        <time>2020-09-15 08:47:33</time>
      </trkpt>
      <trkpt lat="45.68533" lon="6.23964">
        <ele>1787.9961</ele>
        <time>2020-09-15 08:47:34</time>
      </trkpt>
      <trkpt lat="45.68533" lon="6.23965">
        <ele>1790.6421</ele>
        <time>2020-09-15 08:47:35</time>
      </trkpt>
      <trkpt lat="45.68533" lon="6.23966">
        <ele>1787.9912</ele>
        <time>2020-09-15 08:47:36</time>
      </trkpt>
      <trkpt lat="45.68534" lon="6.23967">
        <ele>1788.0347</ele>
        <time>2020-09-15 08:47:37</time>
      </trkpt>
      <trkpt lat="45.68534" lon="6.23967">
        <ele>1787.936</ele>
        <time>2020-09-15 08:47:38</time>
      </trkpt>
      <trkpt lat="45.68535" lon="6.23967">
        <ele>1787.7954</ele>
        <time>2020-09-15 08:47:39</time>
      </trkpt>
      <trkpt lat="45.68536" lon="6.23967">
        <ele>1785.9194</ele>
        <time>2020-09-15 08:47:41</time>
      </trkpt>
      <trkpt lat="45.68537" lon="6.23967">
        <ele>1786.0737</ele>
        <time>2020-09-15 08:47:42</time>
      </trkpt>
      <trkpt lat="45.68539" lon="6.23966">
        <ele>1787.9912</ele>
        <time>2020-09-15 08:47:45</time>
      </trkpt>
      <trkpt lat="45.6854" lon="6.23962">
        <ele>1786.6125</ele>
        <time>2020-09-15 08:47:50</time>
      </trkpt>
      <trkpt lat="45.6854" lon="6.23962">
        <ele>1786.593</ele>
        <time>2020-09-15 08:47:51</time>
      </trkpt>
      <trkpt lat="45.68542" lon="6.23962">
        <ele>1786.4111</ele>
        <time>2020-09-15 08:47:55</time>
      </trkpt>
      <trkpt lat="45.68546" lon="6.23968">
        <ele>1785.1445</ele>
        <time>2020-09-15 08:48:08</time>
      </trkpt>
      <trkpt lat="45.68547" lon="6.23962">
        <ele>1784.4736</ele>
        <time>2020-09-15 08:48:13</time>
      </trkpt>
      <trkpt lat="45.68549" lon="6.23957">
        <ele>1782.9917</ele>
        <time>2020-09-15 08:48:19</time>
      </trkpt>
      <trkpt lat="45.68551" lon="6.23954">
        <ele>1781.5833</ele>
        <time>2020-09-15 08:48:21</time>
      </trkpt>
      <trkpt lat="45.68552" lon="6.23952">
        <ele>1781.1052</ele>
        <time>2020-09-15 08:48:23</time>
      </trkpt>
      <trkpt lat="45.68554" lon="6.23947">
        <ele>1783.8542</ele>
        <time>2020-09-15 08:48:26</time>
      </trkpt>
      <trkpt lat="45.68554" lon="6.23935">
        <ele>1781.1008</ele>
        <time>2020-09-15 08:48:35</time>
      </trkpt>
      <trkpt lat="45.68553" lon="6.23932">
        <ele>1781.3545</ele>
        <time>2020-09-15 08:48:37</time>
      </trkpt>
      <trkpt lat="45.68553" lon="6.2393">
        <ele>1781.3081</ele>
        <time>2020-09-15 08:48:40</time>
      </trkpt>
      <trkpt lat="45.68552" lon="6.2393">
        <ele>1780.9548</ele>
        <time>2020-09-15 08:48:41</time>
      </trkpt>
      <trkpt lat="45.68552" lon="6.23929">
        <ele>1780.7092</ele>
        <time>2020-09-15 08:48:42</time>
      </trkpt>
      <trkpt lat="45.68554" lon="6.23926">
        <ele>1781.0664</ele>
        <time>2020-09-15 08:48:47</time>
      </trkpt>
      <trkpt lat="45.68557" lon="6.23924">
        <ele>1778.9841</ele>
        <time>2020-09-15 08:48:51</time>
      </trkpt>
      <trkpt lat="45.68563" lon="6.23915">
        <ele>1772.5127</ele>
        <time>2020-09-15 08:49:02</time>
      </trkpt>
      <trkpt lat="45.68567" lon="6.23905">
        <ele>1770.512</ele>
        <time>2020-09-15 08:49:11</time>
      </trkpt>
      <trkpt lat="45.6857" lon="6.23902">
        <ele>1771.1157</ele>
        <time>2020-09-15 08:49:16</time>
      </trkpt>
      <trkpt lat="45.68573" lon="6.23895">
        <ele>1769.634</ele>
        <time>2020-09-15 08:49:25</time>
      </trkpt>
      <trkpt lat="45.68576" lon="6.23892">
        <ele>1770.5686</ele>
        <time>2020-09-15 08:49:29</time>
      </trkpt>
      <trkpt lat="45.68578" lon="6.23893">
        <ele>1770.3213</ele>
        <time>2020-09-15 08:49:32</time>
      </trkpt>
      <trkpt lat="45.68576" lon="6.23903">
        <ele>1769.6333</ele>
        <time>2020-09-15 08:49:41</time>
      </trkpt>
      <trkpt lat="45.68576" lon="6.23907">
        <ele>1769.2378</ele>
        <time>2020-09-15 08:49:44</time>
      </trkpt>
      <trkpt lat="45.68576" lon="6.2391">
        <ele>1769.8452</ele>
        <time>2020-09-15 08:49:46</time>
      </trkpt>
      <trkpt lat="45.68571" lon="6.23914">
        <ele>1771.8298</ele>
        <time>2020-09-15 08:49:52</time>
      </trkpt>
      <trkpt lat="45.68573" lon="6.23916">
        <ele>1770.3384</ele>
        <time>2020-09-15 08:49:59</time>
      </trkpt>
      <trkpt lat="45.68576" lon="6.23915">
        <ele>1772.2388</ele>
        <time>2020-09-15 08:50:02</time>
      </trkpt>
      <trkpt lat="45.68582" lon="6.23912">
        <ele>1768.98</ele>
        <time>2020-09-15 08:50:09</time>
      </trkpt>
      <trkpt lat="45.68584" lon="6.23909">
        <ele>1768.1387</ele>
        <time>2020-09-15 08:50:12</time>
      </trkpt>
      <trkpt lat="45.68587" lon="6.23905">
        <ele>1768.1833</ele>
        <time>2020-09-15 08:50:16</time>
      </trkpt>
      <trkpt lat="45.6859" lon="6.23903">
        <ele>1768.98</ele>
        <time>2020-09-15 08:50:19</time>
      </trkpt>
      <trkpt lat="45.68591" lon="6.239">
        <ele>1769.4023</ele>
        <time>2020-09-15 08:50:22</time>
      </trkpt>
      <trkpt lat="45.68593" lon="6.23899">
        <ele>1767.3398</ele>
        <time>2020-09-15 08:50:24</time>
      </trkpt>
      <trkpt lat="45.68596" lon="6.23897">
        <ele>1766.4836</ele>
        <time>2020-09-15 08:50:27</time>
      </trkpt>
      <trkpt lat="45.68598" lon="6.239">
        <ele>1765.6753</ele>
        <time>2020-09-15 08:50:31</time>
      </trkpt>
      <trkpt lat="45.68595" lon="6.23905">
        <ele>1764.9685</ele>
        <time>2020-09-15 08:50:35</time>
      </trkpt>
      <trkpt lat="45.68593" lon="6.2391">
        <ele>1761.9036</ele>
        <time>2020-09-15 08:50:42</time>
      </trkpt>
      <trkpt lat="45.68592" lon="6.2391">
        <ele>1760.9766</ele>
        <time>2020-09-15 08:50:43</time>
      </trkpt>
      <trkpt lat="45.68591" lon="6.23914">
        <ele>1760.7817</ele>
        <time>2020-09-15 08:50:47</time>
      </trkpt>
      <trkpt lat="45.68588" lon="6.2392">
        <ele>1756.9309</ele>
        <time>2020-09-15 08:50:56</time>
      </trkpt>
      <trkpt lat="45.68588" lon="6.23924">
        <ele>1759.5532</ele>
        <time>2020-09-15 08:51:02</time>
      </trkpt>
      <trkpt lat="45.68598" lon="6.23919">
        <ele>1757.1477</ele>
        <time>2020-09-15 08:51:12</time>
      </trkpt>
      <trkpt lat="45.68599" lon="6.23918">
        <ele>1758.5962</ele>
        <time>2020-09-15 08:51:13</time>
      </trkpt>
      <trkpt lat="45.68605" lon="6.23912">
        <ele>1755.5928</ele>
        <time>2020-09-15 08:51:19</time>
      </trkpt>
      <trkpt lat="45.68607" lon="6.23909">
        <ele>1757.3315</ele>
        <time>2020-09-15 08:51:22</time>
      </trkpt>
      <trkpt lat="45.68608" lon="6.23907">
        <ele>1757.4492</ele>
        <time>2020-09-15 08:51:24</time>
      </trkpt>
      <trkpt lat="45.6861" lon="6.23903">
        <ele>1757.3384</ele>
        <time>2020-09-15 08:51:27</time>
      </trkpt>
      <trkpt lat="45.68611" lon="6.239">
        <ele>1756.5461</ele>
        <time>2020-09-15 08:51:29</time>
      </trkpt>
      <trkpt lat="45.68614" lon="6.23898">
        <ele>1757.4492</ele>
        <time>2020-09-15 08:51:33</time>
      </trkpt>
      <trkpt lat="45.68616" lon="6.23903">
        <ele>1753.4648</ele>
        <time>2020-09-15 08:51:39</time>
      </trkpt>
      <trkpt lat="45.68615" lon="6.23905">
        <ele>1753.669</ele>
        <time>2020-09-15 08:51:40</time>
      </trkpt>
      <trkpt lat="45.68613" lon="6.23908">
        <ele>1753.6064</ele>
        <time>2020-09-15 08:51:42</time>
      </trkpt>
      <trkpt lat="45.68612" lon="6.23911">
        <ele>1753.7485</ele>
        <time>2020-09-15 08:51:44</time>
      </trkpt>
      <trkpt lat="45.68611" lon="6.2392">
        <ele>1751.4111</ele>
        <time>2020-09-15 08:51:50</time>
      </trkpt>
      <trkpt lat="45.68611" lon="6.23923">
        <ele>1749.3354</ele>
        <time>2020-09-15 08:51:54</time>
      </trkpt>
      <trkpt lat="45.6861" lon="6.23933">
        <ele>1745.7935</ele>
        <time>2020-09-15 08:52:05</time>
      </trkpt>
      <trkpt lat="45.68614" lon="6.23929">
        <ele>1746.3179</ele>
        <time>2020-09-15 08:52:09</time>
      </trkpt>
      <trkpt lat="45.6862" lon="6.23922">
        <ele>1747.8359</ele>
        <time>2020-09-15 08:52:17</time>
      </trkpt>
      <trkpt lat="45.68621" lon="6.23919">
        <ele>1748.1895</ele>
        <time>2020-09-15 08:52:19</time>
      </trkpt>
      <trkpt lat="45.68622" lon="6.23915">
        <ele>1748.3999</ele>
        <time>2020-09-15 08:52:21</time>
      </trkpt>
      <trkpt lat="45.68624" lon="6.23913">
        <ele>1747.0283</ele>
        <time>2020-09-15 08:52:24</time>
      </trkpt>
      <trkpt lat="45.68626" lon="6.23912">
        <ele>1746.3247</ele>
        <time>2020-09-15 08:52:26</time>
      </trkpt>
      <trkpt lat="45.68628" lon="6.23911">
        <ele>1745.5859</ele>
        <time>2020-09-15 08:52:28</time>
      </trkpt>
      <trkpt lat="45.68632" lon="6.2391">
        <ele>1745.9746</ele>
        <time>2020-09-15 08:52:32</time>
      </trkpt>
      <trkpt lat="45.68633" lon="6.23907">
        <ele>1743.813</ele>
        <time>2020-09-15 08:52:35</time>
      </trkpt>
      <trkpt lat="45.68638" lon="6.23902">
        <ele>1743.7754</ele>
        <time>2020-09-15 08:52:42</time>
      </trkpt>
      <trkpt lat="45.68641" lon="6.23898">
        <ele>1740.7747</ele>
        <time>2020-09-15 08:52:47</time>
      </trkpt>
      <trkpt lat="45.68643" lon="6.23894">
        <ele>1739.8506</ele>
        <time>2020-09-15 08:52:50</time>
      </trkpt>
      <trkpt lat="45.68649" lon="6.2389">
        <ele>1733.7959</ele>
        <time>2020-09-15 08:52:58</time>
      </trkpt>
      <trkpt lat="45.68652" lon="6.2389">
        <ele>1733.7144</ele>
        <time>2020-09-15 08:53:03</time>
      </trkpt>
      <trkpt lat="45.68652" lon="6.2389">
        <ele>1737.8926</ele>
        <time>2020-09-15 08:53:04</time>
      </trkpt>
      <trkpt lat="45.6865" lon="6.23896">
        <ele>1734.3145</ele>
        <time>2020-09-15 08:53:10</time>
      </trkpt>
      <trkpt lat="45.68648" lon="6.23898">
        <ele>1734.3359</ele>
        <time>2020-09-15 08:53:13</time>
      </trkpt>
      <trkpt lat="45.68645" lon="6.23904">
        <ele>1730.294</ele>
        <time>2020-09-15 08:53:20</time>
      </trkpt>
      <trkpt lat="45.68644" lon="6.23906">
        <ele>1729.4912</ele>
        <time>2020-09-15 08:53:23</time>
      </trkpt>
      <trkpt lat="45.68647" lon="6.23909">
        <ele>1727.9331</ele>
        <time>2020-09-15 08:53:26</time>
      </trkpt>
      <trkpt lat="45.68649" lon="6.23908">
        <ele>1725.9346</ele>
        <time>2020-09-15 08:53:28</time>
      </trkpt>
      <trkpt lat="45.68651" lon="6.23906">
        <ele>1724.2456</ele>
        <time>2020-09-15 08:53:31</time>
      </trkpt>
      <trkpt lat="45.68654" lon="6.23905">
        <ele>1728.815</ele>
        <time>2020-09-15 08:53:34</time>
      </trkpt>
      <trkpt lat="45.68657" lon="6.23903">
        <ele>1723.4985</ele>
        <time>2020-09-15 08:53:37</time>
      </trkpt>
      <trkpt lat="45.68658" lon="6.23902">
        <ele>1723.2461</ele>
        <time>2020-09-15 08:53:39</time>
      </trkpt>
      <trkpt lat="45.68659" lon="6.23902">
        <ele>1723.4954</ele>
        <time>2020-09-15 08:53:43</time>
      </trkpt>
      <trkpt lat="45.6866" lon="6.23902">
        <ele>1723.6353</ele>
        <time>2020-09-15 08:53:44</time>
      </trkpt>
      <trkpt lat="45.68663" lon="6.23901">
        <ele>1722.3809</ele>
        <time>2020-09-15 08:53:47</time>
      </trkpt>
      <trkpt lat="45.68675" lon="6.23893">
        <ele>1725.4634</ele>
        <time>2020-09-15 08:54:00</time>
      </trkpt>
      <trkpt lat="45.68683" lon="6.23886">
        <ele>1722.7402</ele>
        <time>2020-09-15 08:54:10</time>
      </trkpt>
      <trkpt lat="45.68685" lon="6.23884">
        <ele>1721.7261</ele>
        <time>2020-09-15 08:54:14</time>
      </trkpt>
      <trkpt lat="45.68685" lon="6.23885">
        <ele>1721.6677</ele>
        <time>2020-09-15 08:54:17</time>
      </trkpt>
      <trkpt lat="45.68684" lon="6.23887">
        <ele>1722.5024</ele>
        <time>2020-09-15 08:54:19</time>
      </trkpt>
      <trkpt lat="45.6868" lon="6.23892">
        <ele>1719.6582</ele>
        <time>2020-09-15 08:54:26</time>
      </trkpt>
      <trkpt lat="45.68679" lon="6.23894">
        <ele>1721.6677</ele>
        <time>2020-09-15 08:54:27</time>
      </trkpt>
      <trkpt lat="45.68676" lon="6.23899">
        <ele>1718.729</ele>
        <time>2020-09-15 08:54:31</time>
      </trkpt>
      <trkpt lat="45.68673" lon="6.23902">
        <ele>1716.166</ele>
        <time>2020-09-15 08:54:34</time>
      </trkpt>
      <trkpt lat="45.68669" lon="6.23905">
        <ele>1714.4111</ele>
        <time>2020-09-15 08:54:39</time>
      </trkpt>
      <trkpt lat="45.68669" lon="6.23906">
        <ele>1712.7249</ele>
        <time>2020-09-15 08:54:40</time>
      </trkpt>
      <trkpt lat="45.68668" lon="6.23908">
        <ele>1713.6367</ele>
        <time>2020-09-15 08:54:41</time>
      </trkpt>
      <trkpt lat="45.68668" lon="6.23909">
        <ele>1712.6548</ele>
        <time>2020-09-15 08:54:42</time>
      </trkpt>
      <trkpt lat="45.68668" lon="6.2391">
        <ele>1712.9519</ele>
        <time>2020-09-15 08:54:52</time>
      </trkpt>
      <trkpt lat="45.68664" lon="6.23922">
        <ele>1712.5654</ele>
        <time>2020-09-15 08:55:03</time>
      </trkpt>
      <trkpt lat="45.68664" lon="6.23925">
        <ele>1712.7737</ele>
        <time>2020-09-15 08:55:05</time>
      </trkpt>
      <trkpt lat="45.68667" lon="6.23936">
        <ele>1708.4956</ele>
        <time>2020-09-15 08:55:17</time>
      </trkpt>
      <trkpt lat="45.68669" lon="6.23934">
        <ele>1711.5986</ele>
        <time>2020-09-15 08:55:20</time>
      </trkpt>
      <trkpt lat="45.68675" lon="6.23929">
        <ele>1706.1167</ele>
        <time>2020-09-15 08:55:28</time>
      </trkpt>
      <trkpt lat="45.68679" lon="6.23927">
        <ele>1704.1633</ele>
        <time>2020-09-15 08:55:32</time>
      </trkpt>
      <trkpt lat="45.68687" lon="6.23924">
        <ele>1706.7852</ele>
        <time>2020-09-15 08:55:41</time>
      </trkpt>
      <trkpt lat="45.68688" lon="6.23922">
        <ele>1705.4539</ele>
        <time>2020-09-15 08:55:44</time>
      </trkpt>
      <trkpt lat="45.68691" lon="6.23916">
        <ele>1706.7852</ele>
        <time>2020-09-15 08:55:50</time>
      </trkpt>
      <trkpt lat="45.68691" lon="6.23913">
        <ele>1702.3301</ele>
        <time>2020-09-15 08:55:52</time>
      </trkpt>
      <trkpt lat="45.68693" lon="6.23912">
        <ele>1699.2861</ele>
        <time>2020-09-15 08:55:54</time>
      </trkpt>
      <trkpt lat="45.68696" lon="6.23909">
        <ele>1697.9534</ele>
        <time>2020-09-15 08:55:58</time>
      </trkpt>
      <trkpt lat="45.68699" lon="6.23908">
        <ele>1702.4761</ele>
        <time>2020-09-15 08:56:00</time>
      </trkpt>
      <trkpt lat="45.68703" lon="6.23905">
        <ele>1697.4741</ele>
        <time>2020-09-15 08:56:04</time>
      </trkpt>
      <trkpt lat="45.68708" lon="6.239">
        <ele>1695.2617</ele>
        <time>2020-09-15 08:56:09</time>
      </trkpt>
      <trkpt lat="45.68709" lon="6.23899">
        <ele>1697.9692</ele>
        <time>2020-09-15 08:56:10</time>
      </trkpt>
      <trkpt lat="45.68713" lon="6.23893">
        <ele>1693.5059</ele>
        <time>2020-09-15 08:56:15</time>
      </trkpt>
      <trkpt lat="45.68715" lon="6.23891">
        <ele>1695.3594</ele>
        <time>2020-09-15 08:56:19</time>
      </trkpt>
      <trkpt lat="45.68713" lon="6.23896">
        <ele>1695.2444</ele>
        <time>2020-09-15 08:56:22</time>
      </trkpt>
      <trkpt lat="45.68711" lon="6.23899">
        <ele>1695.8853</ele>
        <time>2020-09-15 08:56:25</time>
      </trkpt>
      <trkpt lat="45.68707" lon="6.23907">
        <ele>1696.7095</ele>
        <time>2020-09-15 08:56:32</time>
      </trkpt>
      <trkpt lat="45.68705" lon="6.23911">
        <ele>1697.5947</ele>
        <time>2020-09-15 08:56:36</time>
      </trkpt>
      <trkpt lat="45.68703" lon="6.23915">
        <ele>1697.2307</ele>
        <time>2020-09-15 08:56:40</time>
      </trkpt>
      <trkpt lat="45.68702" lon="6.2392">
        <ele>1698.137</ele>
        <time>2020-09-15 08:56:43</time>
      </trkpt>
      <trkpt lat="45.68702" lon="6.23923">
        <ele>1695.9971</ele>
        <time>2020-09-15 08:56:46</time>
      </trkpt>
      <trkpt lat="45.68702" lon="6.23924">
        <ele>1696.563</ele>
        <time>2020-09-15 08:56:47</time>
      </trkpt>
      <trkpt lat="45.687" lon="6.23929">
        <ele>1696.3354</ele>
        <time>2020-09-15 08:56:52</time>
      </trkpt>
      <trkpt lat="45.68699" lon="6.23933">
        <ele>1698.0972</ele>
        <time>2020-09-15 08:56:56</time>
      </trkpt>
      <trkpt lat="45.68698" lon="6.23935">
        <ele>1696.1758</ele>
        <time>2020-09-15 08:56:58</time>
      </trkpt>
      <trkpt lat="45.687" lon="6.23937">
        <ele>1695.9607</ele>
        <time>2020-09-15 08:57:01</time>
      </trkpt>
      <trkpt lat="45.68704" lon="6.23934">
        <ele>1692.1262</ele>
        <time>2020-09-15 08:57:05</time>
      </trkpt>
      <trkpt lat="45.68706" lon="6.23931">
        <ele>1691.9009</ele>
        <time>2020-09-15 08:57:08</time>
      </trkpt>
      <trkpt lat="45.68709" lon="6.23924">
        <ele>1692.749</ele>
        <time>2020-09-15 08:57:19</time>
      </trkpt>
      <trkpt lat="45.6871" lon="6.23924">
        <ele>1695.1948</ele>
        <time>2020-09-15 08:57:27</time>
      </trkpt>
      <trkpt lat="45.68718" lon="6.23919">
        <ele>1695.7688</ele>
        <time>2020-09-15 08:57:37</time>
      </trkpt>
      <trkpt lat="45.68723" lon="6.23915">
        <ele>1694.2834</ele>
        <time>2020-09-15 08:57:43</time>
      </trkpt>
      <trkpt lat="45.68724" lon="6.23914">
        <ele>1694.5918</ele>
        <time>2020-09-15 08:57:46</time>
      </trkpt>
      <trkpt lat="45.68728" lon="6.2391">
        <ele>1695.0078</ele>
        <time>2020-09-15 08:57:51</time>
      </trkpt>
      <trkpt lat="45.68731" lon="6.23908">
        <ele>1694.3901</ele>
        <time>2020-09-15 08:57:54</time>
      </trkpt>
      <trkpt lat="45.68734" lon="6.23907">
        <ele>1691.4688</ele>
        <time>2020-09-15 08:57:58</time>
      </trkpt>
      <trkpt lat="45.68743" lon="6.23896">
        <ele>1689.3857</ele>
        <time>2020-09-15 08:58:07</time>
      </trkpt>
      <trkpt lat="45.68748" lon="6.23893">
        <ele>1689.6372</ele>
        <time>2020-09-15 08:58:11</time>
      </trkpt>
      <trkpt lat="45.68752" lon="6.2389">
        <ele>1687.4072</ele>
        <time>2020-09-15 08:58:16</time>
      </trkpt>
      <trkpt lat="45.68759" lon="6.23887">
        <ele>1690.0562</ele>
        <time>2020-09-15 08:58:24</time>
      </trkpt>
      <trkpt lat="45.68762" lon="6.23886">
        <ele>1683.9697</ele>
        <time>2020-09-15 08:58:26</time>
      </trkpt>
      <trkpt lat="45.68768" lon="6.23883">
        <ele>1683.5791</ele>
        <time>2020-09-15 08:58:31</time>
      </trkpt>
      <trkpt lat="45.68777" lon="6.23877">
        <ele>1684.7124</ele>
        <time>2020-09-15 08:58:39</time>
      </trkpt>
      <trkpt lat="45.6878" lon="6.23876">
        <ele>1682.7026</ele>
        <time>2020-09-15 08:58:42</time>
      </trkpt>
      <trkpt lat="45.68785" lon="6.23876">
        <ele>1684.0913</ele>
        <time>2020-09-15 08:58:46</time>
      </trkpt>
      <trkpt lat="45.68791" lon="6.23872">
        <ele>1684.2261</ele>
        <time>2020-09-15 08:58:51</time>
      </trkpt>
      <trkpt lat="45.68792" lon="6.23872">
        <ele>1682.0542</ele>
        <time>2020-09-15 08:58:52</time>
      </trkpt>
      <trkpt lat="45.68796" lon="6.23871">
        <ele>1678.019</ele>
        <time>2020-09-15 08:58:55</time>
      </trkpt>
      <trkpt lat="45.68799" lon="6.23872">
        <ele>1677.7598</ele>
        <time>2020-09-15 08:58:58</time>
      </trkpt>
      <trkpt lat="45.68802" lon="6.23872">
        <ele>1676.4233</ele>
        <time>2020-09-15 08:59:00</time>
      </trkpt>
      <trkpt lat="45.68811" lon="6.23871">
        <ele>1673.9353</ele>
        <time>2020-09-15 08:59:06</time>
      </trkpt>
      <trkpt lat="45.68817" lon="6.23872">
        <ele>1672.4937</ele>
        <time>2020-09-15 08:59:11</time>
      </trkpt>
      <trkpt lat="45.68819" lon="6.2387">
        <ele>1669.7393</ele>
        <time>2020-09-15 08:59:13</time>
      </trkpt>
      <trkpt lat="45.68823" lon="6.2387">
        <ele>1669.083</ele>
        <time>2020-09-15 08:59:17</time>
      </trkpt>
      <trkpt lat="45.68824" lon="6.2387">
        <ele>1668.0283</ele>
        <time>2020-09-15 08:59:18</time>
      </trkpt>
      <trkpt lat="45.68825" lon="6.2387">
        <ele>1668.1016</ele>
        <time>2020-09-15 08:59:19</time>
      </trkpt>
      <trkpt lat="45.68827" lon="6.2387">
        <ele>1668.5483</ele>
        <time>2020-09-15 08:59:21</time>
      </trkpt>
      <trkpt lat="45.68833" lon="6.23869">
        <ele>1662.2996</ele>
        <time>2020-09-15 08:59:27</time>
      </trkpt>
      <trkpt lat="45.68839" lon="6.23867">
        <ele>1661.7471</ele>
        <time>2020-09-15 08:59:33</time>
      </trkpt>
      <trkpt lat="45.68847" lon="6.23867">
        <ele>1661.3782</ele>
        <time>2020-09-15 08:59:40</time>
      </trkpt>
      <trkpt lat="45.68848" lon="6.23867">
        <ele>1661.2458</ele>
        <time>2020-09-15 08:59:41</time>
      </trkpt>
      <trkpt lat="45.68851" lon="6.23868">
        <ele>1660.1919</ele>
        <time>2020-09-15 08:59:44</time>
      </trkpt>
      <trkpt lat="45.68857" lon="6.2387">
        <ele>1661.7849</ele>
        <time>2020-09-15 08:59:50</time>
      </trkpt>
      <trkpt lat="45.68864" lon="6.2387">
        <ele>1659.7073</ele>
        <time>2020-09-15 08:59:57</time>
      </trkpt>
      <trkpt lat="45.68868" lon="6.23871">
        <ele>1657.1343</ele>
        <time>2020-09-15 09:00:01</time>
      </trkpt>
      <trkpt lat="45.68872" lon="6.2387">
        <ele>1654.8062</ele>
        <time>2020-09-15 09:00:05</time>
      </trkpt>
      <trkpt lat="45.68874" lon="6.2387">
        <ele>1654.9104</ele>
        <time>2020-09-15 09:00:07</time>
      </trkpt>
      <trkpt lat="45.68878" lon="6.23871">
        <ele>1655.4519</ele>
        <time>2020-09-15 09:00:11</time>
      </trkpt>
      <trkpt lat="45.68881" lon="6.2387">
        <ele>1654.8062</ele>
        <time>2020-09-15 09:00:14</time>
      </trkpt>
      <trkpt lat="45.68887" lon="6.2387">
        <ele>1654.6201</ele>
        <time>2020-09-15 09:00:22</time>
      </trkpt>
      <trkpt lat="45.68888" lon="6.2387">
        <ele>1654.5911</ele>
        <time>2020-09-15 09:00:23</time>
      </trkpt>
      <trkpt lat="45.68889" lon="6.23869">
        <ele>1656.1924</ele>
        <time>2020-09-15 09:00:24</time>
      </trkpt>
      <trkpt lat="45.68892" lon="6.23869">
        <ele>1654.25</ele>
        <time>2020-09-15 09:00:27</time>
      </trkpt>
      <trkpt lat="45.68898" lon="6.23866">
        <ele>1650.4797</ele>
        <time>2020-09-15 09:00:35</time>
      </trkpt>
      <trkpt lat="45.68897" lon="6.23864">
        <ele>1650.2217</ele>
        <time>2020-09-15 09:00:37</time>
      </trkpt>
      <trkpt lat="45.68894" lon="6.23858">
        <ele>1649.2427</ele>
        <time>2020-09-15 09:00:41</time>
      </trkpt>
      <trkpt lat="45.68891" lon="6.23853">
        <ele>1650.4797</ele>
        <time>2020-09-15 09:00:44</time>
      </trkpt>
      <trkpt lat="45.68888" lon="6.23845">
        <ele>1650.5508</ele>
        <time>2020-09-15 09:00:49</time>
      </trkpt>
      <trkpt lat="45.68885" lon="6.2384">
        <ele>1650.1821</ele>
        <time>2020-09-15 09:00:53</time>
      </trkpt>
      <trkpt lat="45.68883" lon="6.2383">
        <ele>1651.0999</ele>
        <time>2020-09-15 09:01:01</time>
      </trkpt>
      <trkpt lat="45.68886" lon="6.23824">
        <ele>1650.9922</ele>
        <time>2020-09-15 09:01:06</time>
      </trkpt>
      <trkpt lat="45.68887" lon="6.23823">
        <ele>1651.1145</ele>
        <time>2020-09-15 09:01:07</time>
      </trkpt>
      <trkpt lat="45.68889" lon="6.23822">
        <ele>1648.873</ele>
        <time>2020-09-15 09:01:09</time>
      </trkpt>
      <trkpt lat="45.689" lon="6.23809">
        <ele>1644.7524</ele>
        <time>2020-09-15 09:01:23</time>
      </trkpt>
      <trkpt lat="45.6891" lon="6.23809">
        <ele>1642.5779</ele>
        <time>2020-09-15 09:01:30</time>
      </trkpt>
      <trkpt lat="45.68912" lon="6.23807">
        <ele>1641.1631</ele>
        <time>2020-09-15 09:01:32</time>
      </trkpt>
      <trkpt lat="45.68914" lon="6.23808">
        <ele>1636.2695</ele>
        <time>2020-09-15 09:01:35</time>
      </trkpt>
      <trkpt lat="45.68917" lon="6.23808">
        <ele>1636.5845</ele>
        <time>2020-09-15 09:01:38</time>
      </trkpt>
      <trkpt lat="45.68918" lon="6.23808">
        <ele>1636.616</ele>
        <time>2020-09-15 09:01:39</time>
      </trkpt>
      <trkpt lat="45.68925" lon="6.23805">
        <ele>1637.0605</ele>
        <time>2020-09-15 09:01:46</time>
      </trkpt>
      <trkpt lat="45.68926" lon="6.23806">
        <ele>1635.7915</ele>
        <time>2020-09-15 09:01:47</time>
      </trkpt>
      <trkpt lat="45.68927" lon="6.23806">
        <ele>1635.9741</ele>
        <time>2020-09-15 09:01:48</time>
      </trkpt>
      <trkpt lat="45.68932" lon="6.23806">
        <ele>1637.0457</ele>
        <time>2020-09-15 09:01:52</time>
      </trkpt>
      <trkpt lat="45.68935" lon="6.23805">
        <ele>1636.8867</ele>
        <time>2020-09-15 09:01:54</time>
      </trkpt>
      <trkpt lat="45.68939" lon="6.23805">
        <ele>1634.8257</ele>
        <time>2020-09-15 09:01:58</time>
      </trkpt>
      <trkpt lat="45.68942" lon="6.23806">
        <ele>1636.352</ele>
        <time>2020-09-15 09:02:01</time>
      </trkpt>
      <trkpt lat="45.68945" lon="6.23805">
        <ele>1636.3162</ele>
        <time>2020-09-15 09:02:04</time>
      </trkpt>
      <trkpt lat="45.68947" lon="6.23803">
        <ele>1635.3647</ele>
        <time>2020-09-15 09:02:06</time>
      </trkpt>
      <trkpt lat="45.68947" lon="6.23793">
        <ele>1634.6489</ele>
        <time>2020-09-15 09:02:14</time>
      </trkpt>
      <trkpt lat="45.68946" lon="6.23785">
        <ele>1634.7617</ele>
        <time>2020-09-15 09:02:20</time>
      </trkpt>
      <trkpt lat="45.68949" lon="6.23775">
        <ele>1633.9521</ele>
        <time>2020-09-15 09:02:27</time>
      </trkpt>
      <trkpt lat="45.68951" lon="6.2377">
        <ele>1634.1729</ele>
        <time>2020-09-15 09:02:31</time>
      </trkpt>
      <trkpt lat="45.68952" lon="6.23769">
        <ele>1635.3169</ele>
        <time>2020-09-15 09:02:32</time>
      </trkpt>
      <trkpt lat="45.68954" lon="6.23767">
        <ele>1636.9624</ele>
        <time>2020-09-15 09:02:35</time>
      </trkpt>
      <trkpt lat="45.68957" lon="6.23763">
        <ele>1636.7998</ele>
        <time>2020-09-15 09:02:40</time>
      </trkpt>
      <trkpt lat="45.68972" lon="6.23764">
        <ele>1647.5186</ele>
        <time>2020-09-15 09:02:58</time>
      </trkpt>
      <trkpt lat="45.68978" lon="6.23764">
        <ele>1646.9443</ele>
        <time>2020-09-15 09:03:03</time>
      </trkpt>
      <trkpt lat="45.6898" lon="6.23762">
        <ele>1646.6353</ele>
        <time>2020-09-15 09:03:06</time>
      </trkpt>
      <trkpt lat="45.68982" lon="6.23758">
        <ele>1644.0151</ele>
        <time>2020-09-15 09:03:12</time>
      </trkpt>
      <trkpt lat="45.68983" lon="6.23758">
        <ele>1643.0791</ele>
        <time>2020-09-15 09:03:14</time>
      </trkpt>
      <trkpt lat="45.68986" lon="6.23754">
        <ele>1639.0481</ele>
        <time>2020-09-15 09:03:18</time>
      </trkpt>
      <trkpt lat="45.68987" lon="6.23754">
        <ele>1636.6802</ele>
        <time>2020-09-15 09:03:19</time>
      </trkpt>
      <trkpt lat="45.68988" lon="6.23752">
        <ele>1637.9817</ele>
        <time>2020-09-15 09:03:21</time>
      </trkpt>
      <trkpt lat="45.68989" lon="6.23751">
        <ele>1630.752</ele>
        <time>2020-09-15 09:03:22</time>
      </trkpt>
      <trkpt lat="45.68989" lon="6.23749">
        <ele>1629.491</ele>
        <time>2020-09-15 09:03:33</time>
      </trkpt>
      <trkpt lat="45.68989" lon="6.23749">
        <ele>1629.6887</ele>
        <time>2020-09-15 09:03:35</time>
      </trkpt>
      <trkpt lat="45.6899" lon="6.2375">
        <ele>1628.4053</ele>
        <time>2020-09-15 09:03:44</time>
      </trkpt>
      <trkpt lat="45.6899" lon="6.23751">
        <ele>1627.0312</ele>
        <time>2020-09-15 09:03:45</time>
      </trkpt>
      <trkpt lat="45.6899" lon="6.23751">
        <ele>1625.4746</ele>
        <time>2020-09-15 09:03:46</time>
      </trkpt>
      <trkpt lat="45.68991" lon="6.2375">
        <ele>1625.3232</ele>
        <time>2020-09-15 09:03:48</time>
      </trkpt>
      <trkpt lat="45.68993" lon="6.23749">
        <ele>1625.4739</ele>
        <time>2020-09-15 09:04:00</time>
      </trkpt>
      <trkpt lat="45.68993" lon="6.23749">
        <ele>1625.5264</ele>
        <time>2020-09-15 09:04:01</time>
      </trkpt>
      <trkpt lat="45.68996" lon="6.23744">
        <ele>1623.687</ele>
        <time>2020-09-15 09:04:55</time>
      </trkpt>
      <trkpt lat="45.68996" lon="6.2374">
        <ele>1617.7769</ele>
        <time>2020-09-15 09:05:35</time>
      </trkpt>
      <trkpt lat="45.68996" lon="6.2374">
        <ele>1618.0566</ele>
        <time>2020-09-15 09:06:06</time>
      </trkpt>
      <trkpt lat="45.68996" lon="6.23739">
        <ele>1617.8018</ele>
        <time>2020-09-15 09:06:07</time>
      </trkpt>
      <trkpt lat="45.68995" lon="6.23738">
        <ele>1618.8286</ele>
        <time>2020-09-15 09:06:13</time>
      </trkpt>
      <trkpt lat="45.68993" lon="6.23741">
        <ele>1616.5923</ele>
        <time>2020-09-15 09:06:15</time>
      </trkpt>
      <trkpt lat="45.6899" lon="6.23745">
        <ele>1614.6997</ele>
        <time>2020-09-15 09:06:23</time>
      </trkpt>
      <trkpt lat="45.6899" lon="6.23745">
        <ele>1615.1914</ele>
        <time>2020-09-15 09:06:24</time>
      </trkpt>
      <trkpt lat="45.68991" lon="6.23745">
        <ele>1614.4492</ele>
        <time>2020-09-15 09:07:08</time>
      </trkpt>
      <trkpt lat="45.68991" lon="6.23745">
        <ele>1612.9829</ele>
        <time>2020-09-15 09:07:09</time>
      </trkpt>
      <trkpt lat="45.68991" lon="6.23745">
        <ele>1614.1411</ele>
        <time>2020-09-15 09:07:10</time>
      </trkpt>
      <trkpt lat="45.68991" lon="6.23745">
        <ele>1614.6792</ele>
        <time>2020-09-15 09:07:12</time>
      </trkpt>
      <trkpt lat="45.68991" lon="6.23743">
        <ele>1615.8755</ele>
        <time>2020-09-15 09:07:14</time>
      </trkpt>
      <trkpt lat="45.68992" lon="6.23742">
        <ele>1615.4985</ele>
        <time>2020-09-15 09:07:44</time>
      </trkpt>
      <trkpt lat="45.68992" lon="6.23742">
        <ele>1618.0728</ele>
        <time>2020-09-15 09:07:59</time>
      </trkpt>
      <trkpt lat="45.68991" lon="6.23741">
        <ele>1615.729</ele>
        <time>2020-09-15 09:08:00</time>
      </trkpt>
      <trkpt lat="45.6899" lon="6.2374">
        <ele>1616.3579</ele>
        <time>2020-09-15 09:08:07</time>
      </trkpt>
      <trkpt lat="45.6899" lon="6.23739">
        <ele>1618.0728</ele>
        <time>2020-09-15 09:08:08</time>
      </trkpt>
      <trkpt lat="45.68992" lon="6.23746">
        <ele>1618.7676</ele>
        <time>2020-09-15 09:08:21</time>
      </trkpt>
      <trkpt lat="45.68992" lon="6.23745">
        <ele>1618.6484</ele>
        <time>2020-09-15 09:08:22</time>
      </trkpt>
      <trkpt lat="45.6899" lon="6.23743">
        <ele>1612.8074</ele>
        <time>2020-09-15 09:08:47</time>
      </trkpt>
      <trkpt lat="45.6899" lon="6.23741">
        <ele>1614.8511</ele>
        <time>2020-09-15 09:08:49</time>
      </trkpt>
      <trkpt lat="45.68991" lon="6.23738">
        <ele>1615.0371</ele>
        <time>2020-09-15 09:08:52</time>
      </trkpt>
      <trkpt lat="45.68992" lon="6.23735">
        <ele>1615.6094</ele>
        <time>2020-09-15 09:08:54</time>
      </trkpt>
      <trkpt lat="45.68991" lon="6.23733">
        <ele>1615.6104</ele>
        <time>2020-09-15 09:08:55</time>
      </trkpt>
      <trkpt lat="45.68989" lon="6.23715">
        <ele>1617.354</ele>
        <time>2020-09-15 09:09:05</time>
      </trkpt>
      <trkpt lat="45.68989" lon="6.237">
        <ele>1623.1113</ele>
        <time>2020-09-15 09:09:15</time>
      </trkpt>
      <trkpt lat="45.68989" lon="6.23691">
        <ele>1621.6472</ele>
        <time>2020-09-15 09:09:21</time>
      </trkpt>
      <trkpt lat="45.68989" lon="6.23681">
        <ele>1621.2383</ele>
        <time>2020-09-15 09:09:28</time>
      </trkpt>
      <trkpt lat="45.68989" lon="6.2368">
        <ele>1620.8076</ele>
        <time>2020-09-15 09:09:29</time>
      </trkpt>
      <trkpt lat="45.68988" lon="6.23679">
        <ele>1621.1743</ele>
        <time>2020-09-15 09:09:30</time>
      </trkpt>
      <trkpt lat="45.68987" lon="6.23675">
        <ele>1622.1943</ele>
        <time>2020-09-15 09:09:32</time>
      </trkpt>
      <trkpt lat="45.68987" lon="6.23673">
        <ele>1622.0356</ele>
        <time>2020-09-15 09:09:33</time>
      </trkpt>
      <trkpt lat="45.68987" lon="6.2367">
        <ele>1622.4907</ele>
        <time>2020-09-15 09:09:36</time>
      </trkpt>
      <trkpt lat="45.68986" lon="6.23662">
        <ele>1622.1943</ele>
        <time>2020-09-15 09:09:41</time>
      </trkpt>
      <trkpt lat="45.68985" lon="6.23653">
        <ele>1624.5107</ele>
        <time>2020-09-15 09:09:47</time>
      </trkpt>
      <trkpt lat="45.68985" lon="6.2365">
        <ele>1623.4072</ele>
        <time>2020-09-15 09:09:49</time>
      </trkpt>
      <trkpt lat="45.68985" lon="6.23648">
        <ele>1623.1833</ele>
        <time>2020-09-15 09:09:50</time>
      </trkpt>
      <trkpt lat="45.68989" lon="6.23646">
        <ele>1622.4902</ele>
        <time>2020-09-15 09:09:54</time>
      </trkpt>
      <trkpt lat="45.68993" lon="6.23643">
        <ele>1619.604</ele>
        <time>2020-09-15 09:09:58</time>
      </trkpt>
      <trkpt lat="45.69002" lon="6.23641">
        <ele>1617.4849</ele>
        <time>2020-09-15 09:10:05</time>
      </trkpt>
      <trkpt lat="45.69004" lon="6.23641">
        <ele>1617.1328</ele>
        <time>2020-09-15 09:10:07</time>
      </trkpt>
      <trkpt lat="45.69017" lon="6.23632">
        <ele>1608.3772</ele>
        <time>2020-09-15 09:10:16</time>
      </trkpt>
      <trkpt lat="45.69022" lon="6.23627">
        <ele>1606.1616</ele>
        <time>2020-09-15 09:10:20</time>
      </trkpt>
      <trkpt lat="45.69024" lon="6.23628">
        <ele>1607.157</ele>
        <time>2020-09-15 09:10:23</time>
      </trkpt>
      <trkpt lat="45.69024" lon="6.23632">
        <ele>1605.9167</ele>
        <time>2020-09-15 09:10:27</time>
      </trkpt>
      <trkpt lat="45.69021" lon="6.23635">
        <ele>1604.7737</ele>
        <time>2020-09-15 09:10:30</time>
      </trkpt>
      <trkpt lat="45.69021" lon="6.23636">
        <ele>1605.4937</ele>
        <time>2020-09-15 09:10:31</time>
      </trkpt>
      <trkpt lat="45.69021" lon="6.23637">
        <ele>1604.9961</ele>
        <time>2020-09-15 09:10:32</time>
      </trkpt>
      <trkpt lat="45.69021" lon="6.2364">
        <ele>1605.1763</ele>
        <time>2020-09-15 09:10:34</time>
      </trkpt>
      <trkpt lat="45.69024" lon="6.23643">
        <ele>1606.439</ele>
        <time>2020-09-15 09:10:39</time>
      </trkpt>
      <trkpt lat="45.69025" lon="6.23642">
        <ele>1605.1763</ele>
        <time>2020-09-15 09:10:42</time>
      </trkpt>
      <trkpt lat="45.69029" lon="6.23643">
        <ele>1605.9392</ele>
        <time>2020-09-15 09:10:45</time>
      </trkpt>
      <trkpt lat="45.69034" lon="6.23646">
        <ele>1609.2239</ele>
        <time>2020-09-15 09:10:51</time>
      </trkpt>
      <trkpt lat="45.69038" lon="6.23647">
        <ele>1607.8401</ele>
        <time>2020-09-15 09:10:58</time>
      </trkpt>
      <trkpt lat="45.69039" lon="6.23649">
        <ele>1608.502</ele>
        <time>2020-09-15 09:11:02</time>
      </trkpt>
      <trkpt lat="45.69041" lon="6.2365">
        <ele>1608.2598</ele>
        <time>2020-09-15 09:11:04</time>
      </trkpt>
      <trkpt lat="45.69043" lon="6.23653">
        <ele>1606.4814</ele>
        <time>2020-09-15 09:11:06</time>
      </trkpt>
      <trkpt lat="45.69044" lon="6.23655">
        <ele>1606.9155</ele>
        <time>2020-09-15 09:11:08</time>
      </trkpt>
      <trkpt lat="45.69044" lon="6.23658">
        <ele>1608.5979</ele>
        <time>2020-09-15 09:11:10</time>
      </trkpt>
      <trkpt lat="45.69045" lon="6.23658">
        <ele>1609.3022</ele>
        <time>2020-09-15 09:11:11</time>
      </trkpt>
      <trkpt lat="45.69046" lon="6.23661">
        <ele>1609.7637</ele>
        <time>2020-09-15 09:11:13</time>
      </trkpt>
      <trkpt lat="45.69048" lon="6.23662">
        <ele>1609.7842</ele>
        <time>2020-09-15 09:11:15</time>
      </trkpt>
      <trkpt lat="45.69048" lon="6.23662">
        <ele>1609.6909</ele>
        <time>2020-09-15 09:11:16</time>
      </trkpt>
      <trkpt lat="45.6905" lon="6.23665">
        <ele>1609.658</ele>
        <time>2020-09-15 09:11:19</time>
      </trkpt>
      <trkpt lat="45.69051" lon="6.23665">
        <ele>1608.896</ele>
        <time>2020-09-15 09:11:20</time>
      </trkpt>
      <trkpt lat="45.69054" lon="6.23667">
        <ele>1612.6997</ele>
        <time>2020-09-15 09:11:24</time>
      </trkpt>
      <trkpt lat="45.69057" lon="6.23676">
        <ele>1613.5745</ele>
        <time>2020-09-15 09:11:31</time>
      </trkpt>
      <trkpt lat="45.69057" lon="6.23678">
        <ele>1611.06</ele>
        <time>2020-09-15 09:11:32</time>
      </trkpt>
      <trkpt lat="45.69057" lon="6.23679">
        <ele>1612.6997</ele>
        <time>2020-09-15 09:11:33</time>
      </trkpt>
      <trkpt lat="45.69058" lon="6.23679">
        <ele>1609.8215</ele>
        <time>2020-09-15 09:11:34</time>
      </trkpt>
      <trkpt lat="45.69062" lon="6.23667">
        <ele>1611.468</ele>
        <time>2020-09-15 09:11:48</time>
      </trkpt>
      <trkpt lat="45.69062" lon="6.23663">
        <ele>1610.5254</ele>
        <time>2020-09-15 09:11:50</time>
      </trkpt>
      <trkpt lat="45.69065" lon="6.2366">
        <ele>1608.0029</ele>
        <time>2020-09-15 09:11:53</time>
      </trkpt>
      <trkpt lat="45.69066" lon="6.23653">
        <ele>1605.449</ele>
        <time>2020-09-15 09:12:00</time>
      </trkpt>
      <trkpt lat="45.69071" lon="6.23653">
        <ele>1605.2439</ele>
        <time>2020-09-15 09:12:05</time>
      </trkpt>
      <trkpt lat="45.69074" lon="6.23658">
        <ele>1605.2339</ele>
        <time>2020-09-15 09:12:08</time>
      </trkpt>
      <trkpt lat="45.69076" lon="6.23661">
        <ele>1603.9053</ele>
        <time>2020-09-15 09:12:11</time>
      </trkpt>
      <trkpt lat="45.69077" lon="6.23665">
        <ele>1605.3765</ele>
        <time>2020-09-15 09:12:15</time>
      </trkpt>
      <trkpt lat="45.6908" lon="6.2367">
        <ele>1604.0332</ele>
        <time>2020-09-15 09:12:20</time>
      </trkpt>
      <trkpt lat="45.69082" lon="6.23673">
        <ele>1603.5486</ele>
        <time>2020-09-15 09:12:23</time>
      </trkpt>
      <trkpt lat="45.69089" lon="6.23676">
        <ele>1599.8962</ele>
        <time>2020-09-15 09:12:33</time>
      </trkpt>
      <trkpt lat="45.69095" lon="6.2368">
        <ele>1601.2192</ele>
        <time>2020-09-15 09:12:40</time>
      </trkpt>
      <trkpt lat="45.69098" lon="6.23682">
        <ele>1598.508</ele>
        <time>2020-09-15 09:12:42</time>
      </trkpt>
      <trkpt lat="45.69103" lon="6.23687">
        <ele>1594.8066</ele>
        <time>2020-09-15 09:12:49</time>
      </trkpt>
      <trkpt lat="45.69105" lon="6.2369">
        <ele>1593.3813</ele>
        <time>2020-09-15 09:12:51</time>
      </trkpt>
      <trkpt lat="45.69106" lon="6.23691">
        <ele>1594.1567</ele>
        <time>2020-09-15 09:12:52</time>
      </trkpt>
      <trkpt lat="45.69111" lon="6.23696">
        <ele>1595.3389</ele>
        <time>2020-09-15 09:12:58</time>
      </trkpt>
      <trkpt lat="45.69112" lon="6.23698">
        <ele>1593.3813</ele>
        <time>2020-09-15 09:13:00</time>
      </trkpt>
      <trkpt lat="45.69117" lon="6.23703">
        <ele>1594.2686</ele>
        <time>2020-09-15 09:13:04</time>
      </trkpt>
      <trkpt lat="45.6912" lon="6.23706">
        <ele>1592.5244</ele>
        <time>2020-09-15 09:13:10</time>
      </trkpt>
      <trkpt lat="45.69121" lon="6.23707">
        <ele>1590.7827</ele>
        <time>2020-09-15 09:13:11</time>
      </trkpt>
      <trkpt lat="45.69128" lon="6.237">
        <ele>1597.446</ele>
        <time>2020-09-15 09:13:25</time>
      </trkpt>
      <trkpt lat="45.69129" lon="6.23699">
        <ele>1599.606</ele>
        <time>2020-09-15 09:13:26</time>
      </trkpt>
      <trkpt lat="45.69128" lon="6.23699">
        <ele>1598.5332</ele>
        <time>2020-09-15 09:13:27</time>
      </trkpt>
      <trkpt lat="45.69128" lon="6.23696">
        <ele>1598.1499</ele>
        <time>2020-09-15 09:13:29</time>
      </trkpt>
      <trkpt lat="45.69127" lon="6.23693">
        <ele>1596.0552</ele>
        <time>2020-09-15 09:13:31</time>
      </trkpt>
      <trkpt lat="45.69131" lon="6.23688">
        <ele>1595.811</ele>
        <time>2020-09-15 09:13:35</time>
      </trkpt>
      <trkpt lat="45.69138" lon="6.23689">
        <ele>1594.6956</ele>
        <time>2020-09-15 09:13:41</time>
      </trkpt>
      <trkpt lat="45.69142" lon="6.23689">
        <ele>1596.0664</ele>
        <time>2020-09-15 09:13:46</time>
      </trkpt>
      <trkpt lat="45.69147" lon="6.23688">
        <ele>1594.9829</ele>
        <time>2020-09-15 09:13:52</time>
      </trkpt>
      <trkpt lat="45.69148" lon="6.23688">
        <ele>1593.3037</ele>
        <time>2020-09-15 09:13:53</time>
      </trkpt>
      <trkpt lat="45.69149" lon="6.23688">
        <ele>1593.77</ele>
        <time>2020-09-15 09:13:54</time>
      </trkpt>
      <trkpt lat="45.69149" lon="6.23687">
        <ele>1592.4214</ele>
        <time>2020-09-15 09:13:55</time>
      </trkpt>
      <trkpt lat="45.69152" lon="6.23685">
        <ele>1587.2644</ele>
        <time>2020-09-15 09:13:58</time>
      </trkpt>
      <trkpt lat="45.69157" lon="6.23683">
        <ele>1593.3037</ele>
        <time>2020-09-15 09:14:02</time>
      </trkpt>
      <trkpt lat="45.69162" lon="6.23681">
        <ele>1587.2249</ele>
        <time>2020-09-15 09:14:06</time>
      </trkpt>
      <trkpt lat="45.69167" lon="6.23675">
        <ele>1586.5376</ele>
        <time>2020-09-15 09:14:12</time>
      </trkpt>
      <trkpt lat="45.69171" lon="6.23668">
        <ele>1588.8452</ele>
        <time>2020-09-15 09:14:17</time>
      </trkpt>
      <trkpt lat="45.69172" lon="6.23665">
        <ele>1587.4248</ele>
        <time>2020-09-15 09:14:19</time>
      </trkpt>
      <trkpt lat="45.69175" lon="6.23661">
        <ele>1579.7073</ele>
        <time>2020-09-15 09:14:24</time>
      </trkpt>
      <trkpt lat="45.69175" lon="6.23656">
        <ele>1579.9634</ele>
        <time>2020-09-15 09:14:27</time>
      </trkpt>
      <trkpt lat="45.69173" lon="6.23649">
        <ele>1579.5322</ele>
        <time>2020-09-15 09:14:33</time>
      </trkpt>
      <trkpt lat="45.69173" lon="6.23645">
        <ele>1577.7144</ele>
        <time>2020-09-15 09:14:35</time>
      </trkpt>
      <trkpt lat="45.69177" lon="6.23633">
        <ele>1576.8276</ele>
        <time>2020-09-15 09:14:41</time>
      </trkpt>
      <trkpt lat="45.69178" lon="6.23628">
        <ele>1577.1431</ele>
        <time>2020-09-15 09:14:44</time>
      </trkpt>
      <trkpt lat="45.6918" lon="6.23626">
        <ele>1575.6575</ele>
        <time>2020-09-15 09:14:46</time>
      </trkpt>
      <trkpt lat="45.69184" lon="6.23621">
        <ele>1573.0449</ele>
        <time>2020-09-15 09:14:52</time>
      </trkpt>
      <trkpt lat="45.69183" lon="6.23619">
        <ele>1577.1431</ele>
        <time>2020-09-15 09:14:54</time>
      </trkpt>
      <trkpt lat="45.69182" lon="6.23618">
        <ele>1572.6436</ele>
        <time>2020-09-15 09:14:56</time>
      </trkpt>
      <trkpt lat="45.69182" lon="6.23615">
        <ele>1572.227</ele>
        <time>2020-09-15 09:14:59</time>
      </trkpt>
      <trkpt lat="45.69187" lon="6.23611">
        <ele>1569.887</ele>
        <time>2020-09-15 09:15:06</time>
      </trkpt>
      <trkpt lat="45.69192" lon="6.23611">
        <ele>1570.3489</ele>
        <time>2020-09-15 09:15:12</time>
      </trkpt>
      <trkpt lat="45.69192" lon="6.23611">
        <ele>1570.9087</ele>
        <time>2020-09-15 09:15:13</time>
      </trkpt>
      <trkpt lat="45.69193" lon="6.23612">
        <ele>1571.5293</ele>
        <time>2020-09-15 09:15:14</time>
      </trkpt>
      <trkpt lat="45.69197" lon="6.23612">
        <ele>1573.4463</ele>
        <time>2020-09-15 09:15:18</time>
      </trkpt>
      <trkpt lat="45.69206" lon="6.23613">
        <ele>1574.8652</ele>
        <time>2020-09-15 09:15:30</time>
      </trkpt>
      <trkpt lat="45.69209" lon="6.23615">
        <ele>1574.2881</ele>
        <time>2020-09-15 09:15:34</time>
      </trkpt>
      <trkpt lat="45.69209" lon="6.23616">
        <ele>1575.7434</ele>
        <time>2020-09-15 09:15:35</time>
      </trkpt>
      <trkpt lat="45.69212" lon="6.23618">
        <ele>1577.5225</ele>
        <time>2020-09-15 09:15:39</time>
      </trkpt>
      <trkpt lat="45.69213" lon="6.23618">
        <ele>1577.1201</ele>
        <time>2020-09-15 09:15:40</time>
      </trkpt>
      <trkpt lat="45.69216" lon="6.23621">
        <ele>1576.7012</ele>
        <time>2020-09-15 09:15:44</time>
      </trkpt>
      <trkpt lat="45.69217" lon="6.23621">
        <ele>1576.7747</ele>
        <time>2020-09-15 09:15:45</time>
      </trkpt>
      <trkpt lat="45.69219" lon="6.23625">
        <ele>1576.689</ele>
        <time>2020-09-15 09:15:52</time>
      </trkpt>
      <trkpt lat="45.6922" lon="6.23625">
        <ele>1573.9663</ele>
        <time>2020-09-15 09:15:56</time>
      </trkpt>
      <trkpt lat="45.69224" lon="6.23625">
        <ele>1575.4548</ele>
        <time>2020-09-15 09:16:00</time>
      </trkpt>
      <trkpt lat="45.69225" lon="6.23627">
        <ele>1578.3162</ele>
        <time>2020-09-15 09:16:03</time>
      </trkpt>
      <trkpt lat="45.69228" lon="6.2363">
        <ele>1578.6807</ele>
        <time>2020-09-15 09:16:08</time>
      </trkpt>
      <trkpt lat="45.69231" lon="6.23631">
        <ele>1582.1841</ele>
        <time>2020-09-15 09:16:13</time>
      </trkpt>
      <trkpt lat="45.69238" lon="6.23634">
        <ele>1582.0483</ele>
        <time>2020-09-15 09:16:23</time>
      </trkpt>
      <trkpt lat="45.69238" lon="6.23634">
        <ele>1580.8335</ele>
        <time>2020-09-15 09:16:24</time>
      </trkpt>
      <trkpt lat="45.69239" lon="6.23633">
        <ele>1579.5923</ele>
        <time>2020-09-15 09:16:25</time>
      </trkpt>
      <trkpt lat="45.6924" lon="6.23633">
        <ele>1574.9658</ele>
        <time>2020-09-15 09:16:26</time>
      </trkpt>
      <trkpt lat="45.6924" lon="6.23632">
        <ele>1572.5107</ele>
        <time>2020-09-15 09:16:27</time>
      </trkpt>
      <trkpt lat="45.69241" lon="6.23625">
        <ele>1564.8931</ele>
        <time>2020-09-15 09:16:31</time>
      </trkpt>
      <trkpt lat="45.6924" lon="6.23622">
        <ele>1564.7397</ele>
        <time>2020-09-15 09:16:35</time>
      </trkpt>
      <trkpt lat="45.6924" lon="6.2362">
        <ele>1561.9541</ele>
        <time>2020-09-15 09:16:37</time>
      </trkpt>
      <trkpt lat="45.69239" lon="6.23615">
        <ele>1558.4302</ele>
        <time>2020-09-15 09:16:40</time>
      </trkpt>
      <trkpt lat="45.69238" lon="6.23601">
        <ele>1553.3813</ele>
        <time>2020-09-15 09:16:49</time>
      </trkpt>
      <trkpt lat="45.69241" lon="6.23592">
        <ele>1553.0771</ele>
        <time>2020-09-15 09:16:58</time>
      </trkpt>
      <trkpt lat="45.69244" lon="6.2359">
        <ele>1551.1685</ele>
        <time>2020-09-15 09:17:03</time>
      </trkpt>
      <trkpt lat="45.69247" lon="6.23588">
        <ele>1550.2021</ele>
        <time>2020-09-15 09:17:06</time>
      </trkpt>
      <trkpt lat="45.69254" lon="6.23588">
        <ele>1548.6284</ele>
        <time>2020-09-15 09:17:14</time>
      </trkpt>
      <trkpt lat="45.69257" lon="6.23589">
        <ele>1546.2506</ele>
        <time>2020-09-15 09:17:17</time>
      </trkpt>
      <trkpt lat="45.69258" lon="6.23588">
        <ele>1545.9994</ele>
        <time>2020-09-15 09:17:18</time>
      </trkpt>
      <trkpt lat="45.6926" lon="6.23588">
        <ele>1546.1718</ele>
        <time>2020-09-15 09:17:20</time>
      </trkpt>
      <trkpt lat="45.69268" lon="6.23583">
        <ele>1544.7023</ele>
        <time>2020-09-15 09:17:29</time>
      </trkpt>
      <trkpt lat="45.69269" lon="6.23581">
        <ele>1544.1946</ele>
        <time>2020-09-15 09:17:30</time>
      </trkpt>
      <trkpt lat="45.69276" lon="6.23573">
        <ele>1544.4298</ele>
        <time>2020-09-15 09:17:37</time>
      </trkpt>
      <trkpt lat="45.69288" lon="6.23567">
        <ele>1540.401</ele>
        <time>2020-09-15 09:17:48</time>
      </trkpt>
      <trkpt lat="45.69289" lon="6.23565">
        <ele>1540.8055</ele>
        <time>2020-09-15 09:17:49</time>
      </trkpt>
      <trkpt lat="45.6929" lon="6.23564">
        <ele>1541.3851</ele>
        <time>2020-09-15 09:17:50</time>
      </trkpt>
      <trkpt lat="45.69292" lon="6.23559">
        <ele>1541.5864</ele>
        <time>2020-09-15 09:17:54</time>
      </trkpt>
      <trkpt lat="45.69296" lon="6.23556">
        <ele>1541.3851</ele>
        <time>2020-09-15 09:17:59</time>
      </trkpt>
      <trkpt lat="45.69299" lon="6.23551">
        <ele>1538.5924</ele>
        <time>2020-09-15 09:18:03</time>
      </trkpt>
      <trkpt lat="45.69299" lon="6.2355">
        <ele>1539.0289</ele>
        <time>2020-09-15 09:18:04</time>
      </trkpt>
      <trkpt lat="45.69302" lon="6.23542">
        <ele>1536.0885</ele>
        <time>2020-09-15 09:18:10</time>
      </trkpt>
      <trkpt lat="45.69302" lon="6.23542">
        <ele>1536.3563</ele>
        <time>2020-09-15 09:18:11</time>
      </trkpt>
      <trkpt lat="45.69306" lon="6.23538">
        <ele>1540.023</ele>
        <time>2020-09-15 09:18:15</time>
      </trkpt>
      <trkpt lat="45.69307" lon="6.23538">
        <ele>1539.3741</ele>
        <time>2020-09-15 09:18:16</time>
      </trkpt>
      <trkpt lat="45.69308" lon="6.23537">
        <ele>1539.651</ele>
        <time>2020-09-15 09:18:17</time>
      </trkpt>
      <trkpt lat="45.69308" lon="6.23536">
        <ele>1539.0082</ele>
        <time>2020-09-15 09:18:18</time>
      </trkpt>
      <trkpt lat="45.69314" lon="6.23536">
        <ele>1537.7086</ele>
        <time>2020-09-15 09:18:25</time>
      </trkpt>
      <trkpt lat="45.69317" lon="6.23535">
        <ele>1537.1833</ele>
        <time>2020-09-15 09:18:28</time>
      </trkpt>
      <trkpt lat="45.69323" lon="6.23533">
        <ele>1539.743</ele>
        <time>2020-09-15 09:18:33</time>
      </trkpt>
      <trkpt lat="45.69325" lon="6.23533">
        <ele>1538.7896</ele>
        <time>2020-09-15 09:18:35</time>
      </trkpt>
      <trkpt lat="45.69331" lon="6.2353">
        <ele>1540.603</ele>
        <time>2020-09-15 09:18:42</time>
      </trkpt>
      <trkpt lat="45.69332" lon="6.23527">
        <ele>1539.4537</ele>
        <time>2020-09-15 09:18:45</time>
      </trkpt>
      <trkpt lat="45.69332" lon="6.23527">
        <ele>1539.4677</ele>
        <time>2020-09-15 09:18:46</time>
      </trkpt>
      <trkpt lat="45.69332" lon="6.23527">
        <ele>1538.7683</ele>
        <time>2020-09-15 09:18:47</time>
      </trkpt>
      <trkpt lat="45.69331" lon="6.23528">
        <ele>1540.253</ele>
        <time>2020-09-15 09:19:18</time>
      </trkpt>
      <trkpt lat="45.69331" lon="6.23528">
        <ele>1539.7765</ele>
        <time>2020-09-15 09:19:20</time>
      </trkpt>
      <trkpt lat="45.69333" lon="6.23527">
        <ele>1540.7131</ele>
        <time>2020-09-15 09:19:22</time>
      </trkpt>
      <trkpt lat="45.69334" lon="6.23527">
        <ele>1539.9586</ele>
        <time>2020-09-15 09:19:23</time>
      </trkpt>
      <trkpt lat="45.69334" lon="6.23526">
        <ele>1540.6013</ele>
        <time>2020-09-15 09:19:24</time>
      </trkpt>
      <trkpt lat="45.69336" lon="6.23525">
        <ele>1539.5161</ele>
        <time>2020-09-15 09:19:26</time>
      </trkpt>
      <trkpt lat="45.69341" lon="6.2352">
        <ele>1540.4004</ele>
        <time>2020-09-15 09:19:32</time>
      </trkpt>
      <trkpt lat="45.69341" lon="6.23519">
        <ele>1540.3414</ele>
        <time>2020-09-15 09:19:33</time>
      </trkpt>
      <trkpt lat="45.69345" lon="6.23517">
        <ele>1537.4949</ele>
        <time>2020-09-15 09:19:38</time>
      </trkpt>
      <trkpt lat="45.69348" lon="6.23513">
        <ele>1538.8344</ele>
        <time>2020-09-15 09:19:43</time>
      </trkpt>
      <trkpt lat="45.6935" lon="6.23512">
        <ele>1537.9967</ele>
        <time>2020-09-15 09:19:46</time>
      </trkpt>
      <trkpt lat="45.69352" lon="6.23511">
        <ele>1537.7522</ele>
        <time>2020-09-15 09:19:49</time>
      </trkpt>
      <trkpt lat="45.69357" lon="6.23511">
        <ele>1535.3824</ele>
        <time>2020-09-15 09:19:57</time>
      </trkpt>
      <trkpt lat="45.69358" lon="6.23509">
        <ele>1533.6268</ele>
        <time>2020-09-15 09:20:00</time>
      </trkpt>
      <trkpt lat="45.6936" lon="6.2351">
        <ele>1533.4598</ele>
        <time>2020-09-15 09:20:04</time>
      </trkpt>
      <trkpt lat="45.6936" lon="6.23509">
        <ele>1533.0037</ele>
        <time>2020-09-15 09:20:05</time>
      </trkpt>
      <trkpt lat="45.69362" lon="6.23506">
        <ele>1532.6393</ele>
        <time>2020-09-15 09:21:06</time>
      </trkpt>
      <trkpt lat="45.69362" lon="6.23506">
        <ele>1532.6498</ele>
        <time>2020-09-15 09:21:38</time>
      </trkpt>
      <trkpt lat="45.69362" lon="6.23505">
        <ele>1532.4435</ele>
        <time>2020-09-15 09:21:42</time>
      </trkpt>
      <trkpt lat="45.69363" lon="6.23505">
        <ele>1533.4728</ele>
        <time>2020-09-15 09:21:43</time>
      </trkpt>
      <trkpt lat="45.69363" lon="6.23505">
        <ele>1533.2267</ele>
        <time>2020-09-15 09:21:44</time>
      </trkpt>
      <trkpt lat="45.69363" lon="6.23505">
        <ele>1532.389</ele>
        <time>2020-09-15 09:21:45</time>
      </trkpt>
      <trkpt lat="45.69362" lon="6.2351">
        <ele>1532.2817</ele>
        <time>2020-09-15 09:22:16</time>
      </trkpt>
      <trkpt lat="45.69363" lon="6.2351">
        <ele>1532.9227</ele>
        <time>2020-09-15 09:22:17</time>
      </trkpt>
      <trkpt lat="45.69364" lon="6.23509">
        <ele>1535.572</ele>
        <time>2020-09-15 09:22:19</time>
      </trkpt>
      <trkpt lat="45.69366" lon="6.23509">
        <ele>1534.403</ele>
        <time>2020-09-15 09:22:21</time>
      </trkpt>
      <trkpt lat="45.69368" lon="6.23509">
        <ele>1531.8094</ele>
        <time>2020-09-15 09:22:23</time>
      </trkpt>
      <trkpt lat="45.6937" lon="6.2351">
        <ele>1538.5693</ele>
        <time>2020-09-15 09:22:25</time>
      </trkpt>
      <trkpt lat="45.69371" lon="6.2351">
        <ele>1538.58</ele>
        <time>2020-09-15 09:22:26</time>
      </trkpt>
      <trkpt lat="45.69376" lon="6.23509">
        <ele>1540.3805</ele>
        <time>2020-09-15 09:22:31</time>
      </trkpt>
      <trkpt lat="45.69381" lon="6.23507">
        <ele>1541.5488</ele>
        <time>2020-09-15 09:22:38</time>
      </trkpt>
      <trkpt lat="45.69387" lon="6.23505">
        <ele>1542.8726</ele>
        <time>2020-09-15 09:22:45</time>
      </trkpt>
      <trkpt lat="45.69399" lon="6.23505">
        <ele>1544.8043</ele>
        <time>2020-09-15 09:22:59</time>
      </trkpt>
      <trkpt lat="45.69401" lon="6.23505">
        <ele>1546.4751</ele>
        <time>2020-09-15 09:23:02</time>
      </trkpt>
      <trkpt lat="45.69415" lon="6.23505">
        <ele>1548.669</ele>
        <time>2020-09-15 09:23:21</time>
      </trkpt>
      <trkpt lat="45.69417" lon="6.23506">
        <ele>1549.883</ele>
        <time>2020-09-15 09:23:24</time>
      </trkpt>
      <trkpt lat="45.69422" lon="6.23506">
        <ele>1548.4299</ele>
        <time>2020-09-15 09:23:31</time>
      </trkpt>
      <trkpt lat="45.69425" lon="6.23506">
        <ele>1548.0369</ele>
        <time>2020-09-15 09:23:34</time>
      </trkpt>
      <trkpt lat="45.6943" lon="6.23504">
        <ele>1548.853</ele>
        <time>2020-09-15 09:23:41</time>
      </trkpt>
      <trkpt lat="45.69431" lon="6.23504">
        <ele>1548.7893</ele>
        <time>2020-09-15 09:23:43</time>
      </trkpt>
      <trkpt lat="45.69435" lon="6.23507">
        <ele>1550.728</ele>
        <time>2020-09-15 09:23:50</time>
      </trkpt>
      <trkpt lat="45.69436" lon="6.23509">
        <ele>1554.3972</ele>
        <time>2020-09-15 09:23:55</time>
      </trkpt>
      <trkpt lat="45.69437" lon="6.23509">
        <ele>1554.7676</ele>
        <time>2020-09-15 09:23:57</time>
      </trkpt>
      <trkpt lat="45.69437" lon="6.23509">
        <ele>1555.2261</ele>
        <time>2020-09-15 09:24:00</time>
      </trkpt>
      <trkpt lat="45.6944" lon="6.23509">
        <ele>1555.7896</ele>
        <time>2020-09-15 09:24:05</time>
      </trkpt>
      <trkpt lat="45.69441" lon="6.2351">
        <ele>1558.1743</ele>
        <time>2020-09-15 09:24:08</time>
      </trkpt>
      <trkpt lat="45.69441" lon="6.2351">
        <ele>1558.5874</ele>
        <time>2020-09-15 09:24:09</time>
      </trkpt>
      <trkpt lat="45.69442" lon="6.2351">
        <ele>1558.6252</ele>
        <time>2020-09-15 09:24:10</time>
      </trkpt>
      <trkpt lat="45.69442" lon="6.2351">
        <ele>1558.4226</ele>
        <time>2020-09-15 09:24:11</time>
      </trkpt>
      <trkpt lat="45.69444" lon="6.23511">
        <ele>1559.6963</ele>
        <time>2020-09-15 09:24:15</time>
      </trkpt>
      <trkpt lat="45.69448" lon="6.23515">
        <ele>1562.3247</ele>
        <time>2020-09-15 09:24:22</time>
      </trkpt>
      <trkpt lat="45.6945" lon="6.23516">
        <ele>1559.6709</ele>
        <time>2020-09-15 09:24:25</time>
      </trkpt>
      <trkpt lat="45.69454" lon="6.23518">
        <ele>1561.3008</ele>
        <time>2020-09-15 09:24:30</time>
      </trkpt>
      <trkpt lat="45.69456" lon="6.23519">
        <ele>1559.9993</ele>
        <time>2020-09-15 09:24:33</time>
      </trkpt>
      <trkpt lat="45.6946" lon="6.23522">
        <ele>1561.0635</ele>
        <time>2020-09-15 09:24:38</time>
      </trkpt>
      <trkpt lat="45.69476" lon="6.23524">
        <ele>1561.8213</ele>
        <time>2020-09-15 09:24:56</time>
      </trkpt>
      <trkpt lat="45.69477" lon="6.23524">
        <ele>1561.2009</ele>
        <time>2020-09-15 09:24:57</time>
      </trkpt>
      <trkpt lat="45.69479" lon="6.23523">
        <ele>1560.1401</ele>
        <time>2020-09-15 09:24:59</time>
      </trkpt>
      <trkpt lat="45.69481" lon="6.23523">
        <ele>1559.4194</ele>
        <time>2020-09-15 09:25:01</time>
      </trkpt>
      <trkpt lat="45.69484" lon="6.23524">
        <ele>1558.0364</ele>
        <time>2020-09-15 09:25:05</time>
      </trkpt>
      <trkpt lat="45.69487" lon="6.23525">
        <ele>1559.0374</ele>
        <time>2020-09-15 09:25:08</time>
      </trkpt>
      <trkpt lat="45.69493" lon="6.23526">
        <ele>1559.8167</ele>
        <time>2020-09-15 09:25:14</time>
      </trkpt>
      <trkpt lat="45.69495" lon="6.23527">
        <ele>1558.2412</ele>
        <time>2020-09-15 09:25:16</time>
      </trkpt>
      <trkpt lat="45.69496" lon="6.23528">
        <ele>1558.4438</ele>
        <time>2020-09-15 09:25:17</time>
      </trkpt>
      <trkpt lat="45.69498" lon="6.23528">
        <ele>1557.3508</ele>
        <time>2020-09-15 09:25:19</time>
      </trkpt>
      <trkpt lat="45.69506" lon="6.23528">
        <ele>1555.5645</ele>
        <time>2020-09-15 09:25:27</time>
      </trkpt>
      <trkpt lat="45.69508" lon="6.23529">
        <ele>1555.5857</ele>
        <time>2020-09-15 09:25:29</time>
      </trkpt>
      <trkpt lat="45.6951" lon="6.2353">
        <ele>1555.7339</ele>
        <time>2020-09-15 09:25:31</time>
      </trkpt>
      <trkpt lat="45.69513" lon="6.23531">
        <ele>1555.0154</ele>
        <time>2020-09-15 09:25:34</time>
      </trkpt>
      <trkpt lat="45.69518" lon="6.23533">
        <ele>1554.1914</ele>
        <time>2020-09-15 09:25:39</time>
      </trkpt>
      <trkpt lat="45.69521" lon="6.23533">
        <ele>1554.8257</ele>
        <time>2020-09-15 09:25:41</time>
      </trkpt>
      <trkpt lat="45.69524" lon="6.23534">
        <ele>1554.9136</ele>
        <time>2020-09-15 09:25:44</time>
      </trkpt>
      <trkpt lat="45.69528" lon="6.23532">
        <ele>1554.8035</ele>
        <time>2020-09-15 09:25:48</time>
      </trkpt>
      <trkpt lat="45.69532" lon="6.23533">
        <ele>1555.762</ele>
        <time>2020-09-15 09:25:52</time>
      </trkpt>
      <trkpt lat="45.69543" lon="6.2354">
        <ele>1557.4758</ele>
        <time>2020-09-15 09:26:04</time>
      </trkpt>
      <trkpt lat="45.69549" lon="6.23543">
        <ele>1559.7627</ele>
        <time>2020-09-15 09:26:12</time>
      </trkpt>
      <trkpt lat="45.69555" lon="6.23546">
        <ele>1561.8357</ele>
        <time>2020-09-15 09:26:20</time>
      </trkpt>
      <trkpt lat="45.69557" lon="6.23546">
        <ele>1560.3774</ele>
        <time>2020-09-15 09:26:22</time>
      </trkpt>
      <trkpt lat="45.69564" lon="6.23554">
        <ele>1563.959</ele>
        <time>2020-09-15 09:26:34</time>
      </trkpt>
      <trkpt lat="45.69565" lon="6.23556">
        <ele>1561.6238</ele>
        <time>2020-09-15 09:26:36</time>
      </trkpt>
      <trkpt lat="45.69577" lon="6.23561">
        <ele>1557.9824</ele>
        <time>2020-09-15 09:26:46</time>
      </trkpt>
      <trkpt lat="45.69583" lon="6.23566">
        <ele>1557.0488</ele>
        <time>2020-09-15 09:26:51</time>
      </trkpt>
      <trkpt lat="45.69592" lon="6.23577">
        <ele>1557.1248</ele>
        <time>2020-09-15 09:27:02</time>
      </trkpt>
      <trkpt lat="45.69601" lon="6.23577">
        <ele>1552.0308</ele>
        <time>2020-09-15 09:27:12</time>
      </trkpt>
      <trkpt lat="45.69606" lon="6.23573">
        <ele>1554.2168</ele>
        <time>2020-09-15 09:27:17</time>
      </trkpt>
      <trkpt lat="45.69606" lon="6.23572">
        <ele>1550.6167</ele>
        <time>2020-09-15 09:27:18</time>
      </trkpt>
      <trkpt lat="45.69608" lon="6.23569">
        <ele>1551.3442</ele>
        <time>2020-09-15 09:27:21</time>
      </trkpt>
      <trkpt lat="45.69613" lon="6.23566">
        <ele>1550.4045</ele>
        <time>2020-09-15 09:27:25</time>
      </trkpt>
      <trkpt lat="45.69613" lon="6.23565">
        <ele>1551.5461</ele>
        <time>2020-09-15 09:27:26</time>
      </trkpt>
      <trkpt lat="45.69615" lon="6.23565">
        <ele>1552.8477</ele>
        <time>2020-09-15 09:27:28</time>
      </trkpt>
      <trkpt lat="45.69619" lon="6.23566">
        <ele>1553.168</ele>
        <time>2020-09-15 09:27:31</time>
      </trkpt>
      <trkpt lat="45.69626" lon="6.23566">
        <ele>1557.7666</ele>
        <time>2020-09-15 09:27:39</time>
      </trkpt>
      <trkpt lat="45.69633" lon="6.23565">
        <ele>1557.8843</ele>
        <time>2020-09-15 09:27:45</time>
      </trkpt>
      <trkpt lat="45.69633" lon="6.23565">
        <ele>1558.6572</ele>
        <time>2020-09-15 09:27:47</time>
      </trkpt>
      <trkpt lat="45.69634" lon="6.23565">
        <ele>1559.023</ele>
        <time>2020-09-15 09:27:48</time>
      </trkpt>
      <trkpt lat="45.69637" lon="6.23565">
        <ele>1559.1143</ele>
        <time>2020-09-15 09:27:51</time>
      </trkpt>
      <trkpt lat="45.69638" lon="6.23565">
        <ele>1559.2224</ele>
        <time>2020-09-15 09:27:52</time>
      </trkpt>
      <trkpt lat="45.69641" lon="6.23566">
        <ele>1560.1987</ele>
        <time>2020-09-15 09:27:55</time>
      </trkpt>
      <trkpt lat="45.69643" lon="6.23567">
        <ele>1559.023</ele>
        <time>2020-09-15 09:27:57</time>
      </trkpt>
      <trkpt lat="45.69651" lon="6.23567">
        <ele>1565.0562</ele>
        <time>2020-09-15 09:28:05</time>
      </trkpt>
      <trkpt lat="45.69656" lon="6.23564">
        <ele>1564.9653</ele>
        <time>2020-09-15 09:28:12</time>
      </trkpt>
      <trkpt lat="45.69663" lon="6.23562">
        <ele>1561.8618</ele>
        <time>2020-09-15 09:28:23</time>
      </trkpt>
      <trkpt lat="45.69663" lon="6.23562">
        <ele>1560.6726</ele>
        <time>2020-09-15 09:28:25</time>
      </trkpt>
      <trkpt lat="45.69664" lon="6.23563">
        <ele>1560.9634</ele>
        <time>2020-09-15 09:28:30</time>
      </trkpt>
      <trkpt lat="45.69672" lon="6.2356">
        <ele>1564.0933</ele>
        <time>2020-09-15 09:28:41</time>
      </trkpt>
      <trkpt lat="45.69672" lon="6.2356">
        <ele>1562.7437</ele>
        <time>2020-09-15 09:28:42</time>
      </trkpt>
      <trkpt lat="45.69675" lon="6.23558">
        <ele>1565.4204</ele>
        <time>2020-09-15 09:28:47</time>
      </trkpt>
      <trkpt lat="45.69678" lon="6.23559">
        <ele>1562.3086</ele>
        <time>2020-09-15 09:28:51</time>
      </trkpt>
      <trkpt lat="45.69689" lon="6.23553">
        <ele>1562.5806</ele>
        <time>2020-09-15 09:29:05</time>
      </trkpt>
      <trkpt lat="45.69697" lon="6.23545">
        <ele>1564.4297</ele>
        <time>2020-09-15 09:29:23</time>
      </trkpt>
      <trkpt lat="45.69701" lon="6.23545">
        <ele>1560.685</ele>
        <time>2020-09-15 09:29:27</time>
      </trkpt>
      <trkpt lat="45.69706" lon="6.23544">
        <ele>1565.6309</ele>
        <time>2020-09-15 09:29:31</time>
      </trkpt>
      <trkpt lat="45.69709" lon="6.23543">
        <ele>1565.9023</ele>
        <time>2020-09-15 09:29:35</time>
      </trkpt>
      <trkpt lat="45.69714" lon="6.23542">
        <ele>1568.3315</ele>
        <time>2020-09-15 09:29:41</time>
      </trkpt>
      <trkpt lat="45.6973" lon="6.23536">
        <ele>1569.7739</ele>
        <time>2020-09-15 09:30:01</time>
      </trkpt>
      <trkpt lat="45.69732" lon="6.23535">
        <ele>1568.2725</ele>
        <time>2020-09-15 09:30:04</time>
      </trkpt>
      <trkpt lat="45.69749" lon="6.23527">
        <ele>1569.9062</ele>
        <time>2020-09-15 09:30:27</time>
      </trkpt>
      <trkpt lat="45.69752" lon="6.23527">
        <ele>1570.6082</ele>
        <time>2020-09-15 09:30:32</time>
      </trkpt>
      <trkpt lat="45.69758" lon="6.23525">
        <ele>1570.0127</ele>
        <time>2020-09-15 09:30:41</time>
      </trkpt>
      <trkpt lat="45.69763" lon="6.23523">
        <ele>1568.8623</ele>
        <time>2020-09-15 09:30:48</time>
      </trkpt>
      <trkpt lat="45.69766" lon="6.23518">
        <ele>1571.2661</ele>
        <time>2020-09-15 09:30:56</time>
      </trkpt>
      <trkpt lat="45.69768" lon="6.23513">
        <ele>1569.6382</ele>
        <time>2020-09-15 09:31:04</time>
      </trkpt>
      <trkpt lat="45.6977" lon="6.23513">
        <ele>1572.0591</ele>
        <time>2020-09-15 09:31:08</time>
      </trkpt>
      <trkpt lat="45.69769" lon="6.23512">
        <ele>1573.3564</ele>
        <time>2020-09-15 09:31:10</time>
      </trkpt>
      <trkpt lat="45.69769" lon="6.23512">
        <ele>1572.4619</ele>
        <time>2020-09-15 09:31:11</time>
      </trkpt>
      <trkpt lat="45.69774" lon="6.23504">
        <ele>1572.2373</ele>
        <time>2020-09-15 09:31:23</time>
      </trkpt>
      <trkpt lat="45.69774" lon="6.235">
        <ele>1581.5132</ele>
        <time>2020-09-15 09:31:43</time>
      </trkpt>
      <trkpt lat="45.69775" lon="6.23496">
        <ele>1582.012</ele>
        <time>2020-09-15 09:31:47</time>
      </trkpt>
      <trkpt lat="45.69779" lon="6.23491">
        <ele>1583.0925</ele>
        <time>2020-09-15 09:31:53</time>
      </trkpt>
      <trkpt lat="45.69781" lon="6.23491">
        <ele>1581.9697</ele>
        <time>2020-09-15 09:31:56</time>
      </trkpt>
      <trkpt lat="45.69785" lon="6.23491">
        <ele>1580.9033</ele>
        <time>2020-09-15 09:32:00</time>
      </trkpt>
      <trkpt lat="45.69789" lon="6.23488">
        <ele>1580.0688</ele>
        <time>2020-09-15 09:32:06</time>
      </trkpt>
      <trkpt lat="45.69794" lon="6.23482">
        <ele>1578.647</ele>
        <time>2020-09-15 09:32:13</time>
      </trkpt>
      <trkpt lat="45.69801" lon="6.23474">
        <ele>1582.2637</ele>
        <time>2020-09-15 09:32:24</time>
      </trkpt>
      <trkpt lat="45.69802" lon="6.2347">
        <ele>1580.9487</ele>
        <time>2020-09-15 09:32:31</time>
      </trkpt>
      <trkpt lat="45.69802" lon="6.23471">
        <ele>1585.5586</ele>
        <time>2020-09-15 09:32:32</time>
      </trkpt>
      <trkpt lat="45.69802" lon="6.23471">
        <ele>1584.9495</ele>
        <time>2020-09-15 09:32:33</time>
      </trkpt>
      <trkpt lat="45.69802" lon="6.23471">
        <ele>1585.1411</ele>
        <time>2020-09-15 09:32:34</time>
      </trkpt>
      <trkpt lat="45.69802" lon="6.2347">
        <ele>1585.8384</ele>
        <time>2020-09-15 09:32:35</time>
      </trkpt>
      <trkpt lat="45.69803" lon="6.23469">
        <ele>1586.6152</ele>
        <time>2020-09-15 09:32:37</time>
      </trkpt>
      <trkpt lat="45.69812" lon="6.23458">
        <ele>1593.1995</ele>
        <time>2020-09-15 09:32:53</time>
      </trkpt>
      <trkpt lat="45.69817" lon="6.23452">
        <ele>1592.0161</ele>
        <time>2020-09-15 09:33:02</time>
      </trkpt>
      <trkpt lat="45.69823" lon="6.23447">
        <ele>1590.813</ele>
        <time>2020-09-15 09:33:10</time>
      </trkpt>
      <trkpt lat="45.69826" lon="6.23441">
        <ele>1593.022</ele>
        <time>2020-09-15 09:33:21</time>
      </trkpt>
      <trkpt lat="45.69826" lon="6.23441">
        <ele>1595.4448</ele>
        <time>2020-09-15 09:33:23</time>
      </trkpt>
      <trkpt lat="45.69825" lon="6.2344">
        <ele>1596.0588</ele>
        <time>2020-09-15 09:33:24</time>
      </trkpt>
      <trkpt lat="45.69825" lon="6.23441">
        <ele>1595.5378</ele>
        <time>2020-09-15 09:33:27</time>
      </trkpt>
      <trkpt lat="45.69826" lon="6.23441">
        <ele>1594.9854</ele>
        <time>2020-09-15 09:33:28</time>
      </trkpt>
      <trkpt lat="45.69825" lon="6.23441">
        <ele>1596.1699</ele>
        <time>2020-09-15 09:33:30</time>
      </trkpt>
      <trkpt lat="45.69825" lon="6.23442">
        <ele>1594.7534</ele>
        <time>2020-09-15 09:33:31</time>
      </trkpt>
      <trkpt lat="45.69823" lon="6.23443">
        <ele>1596.9819</ele>
        <time>2020-09-15 09:33:41</time>
      </trkpt>
      <trkpt lat="45.69823" lon="6.23442">
        <ele>1595.3936</ele>
        <time>2020-09-15 09:33:42</time>
      </trkpt>
      <trkpt lat="45.69823" lon="6.23442">
        <ele>1596.6235</ele>
        <time>2020-09-15 09:33:43</time>
      </trkpt>
      <trkpt lat="45.69823" lon="6.23442">
        <ele>1597.1318</ele>
        <time>2020-09-15 09:33:44</time>
      </trkpt>
      <trkpt lat="45.69823" lon="6.23441">
        <ele>1601.064</ele>
        <time>2020-09-15 09:34:15</time>
      </trkpt>
      <trkpt lat="45.69823" lon="6.23441">
        <ele>1601.8384</ele>
        <time>2020-09-15 09:34:16</time>
      </trkpt>
      <trkpt lat="45.69822" lon="6.23441">
        <ele>1601.9365</ele>
        <time>2020-09-15 09:34:51</time>
      </trkpt>
      <trkpt lat="45.69822" lon="6.23439">
        <ele>1602.6636</ele>
        <time>2020-09-15 09:35:12</time>
      </trkpt>
      <trkpt lat="45.69821" lon="6.23436">
        <ele>1601.7842</ele>
        <time>2020-09-15 09:35:15</time>
      </trkpt>
      <trkpt lat="45.69821" lon="6.23435">
        <ele>1602.5679</ele>
        <time>2020-09-15 09:35:28</time>
      </trkpt>
      <trkpt lat="45.69817" lon="6.23434">
        <ele>1603.6392</ele>
        <time>2020-09-15 09:35:33</time>
      </trkpt>
      <trkpt lat="45.69817" lon="6.23435">
        <ele>1604.1797</ele>
        <time>2020-09-15 09:35:34</time>
      </trkpt>
      <trkpt lat="45.69817" lon="6.23435">
        <ele>1602.0884</ele>
        <time>2020-09-15 09:35:35</time>
      </trkpt>
      <trkpt lat="45.69817" lon="6.23435">
        <ele>1605.6921</ele>
        <time>2020-09-15 09:35:36</time>
      </trkpt>
      <trkpt lat="45.69817" lon="6.23435">
        <ele>1606.6506</ele>
        <time>2020-09-15 09:35:37</time>
      </trkpt>
      <trkpt lat="45.69817" lon="6.23436">
        <ele>1606.8828</ele>
        <time>2020-09-15 09:35:38</time>
      </trkpt>
      <trkpt lat="45.69816" lon="6.23435">
        <ele>1607.0581</ele>
        <time>2020-09-15 09:35:40</time>
      </trkpt>
      <trkpt lat="45.69814" lon="6.23433">
        <ele>1608.5115</ele>
        <time>2020-09-15 09:35:45</time>
      </trkpt>
      <trkpt lat="45.69814" lon="6.23432">
        <ele>1605.6921</ele>
        <time>2020-09-15 09:35:46</time>
      </trkpt>
      <trkpt lat="45.69812" lon="6.23426">
        <ele>1608.3469</ele>
        <time>2020-09-15 09:35:52</time>
      </trkpt>
      <trkpt lat="45.69812" lon="6.23426">
        <ele>1608.0479</ele>
        <time>2020-09-15 09:35:53</time>
      </trkpt>
      <trkpt lat="45.69812" lon="6.23425">
        <ele>1608.6177</ele>
        <time>2020-09-15 09:35:54</time>
      </trkpt>
      <trkpt lat="45.69812" lon="6.23425">
        <ele>1608.3694</ele>
        <time>2020-09-15 09:35:56</time>
      </trkpt>
      <trkpt lat="45.69812" lon="6.23426">
        <ele>1611.3696</ele>
        <time>2020-09-15 09:35:59</time>
      </trkpt>
      <trkpt lat="45.6981" lon="6.23426">
        <ele>1609.3608</ele>
        <time>2020-09-15 09:36:05</time>
      </trkpt>
      <trkpt lat="45.69809" lon="6.23425">
        <ele>1608.2207</ele>
        <time>2020-09-15 09:36:07</time>
      </trkpt>
      <trkpt lat="45.69809" lon="6.23424">
        <ele>1607.5073</ele>
        <time>2020-09-15 09:36:09</time>
      </trkpt>
      <trkpt lat="45.69808" lon="6.23423">
        <ele>1608.5215</ele>
        <time>2020-09-15 09:36:10</time>
      </trkpt>
      <trkpt lat="45.69807" lon="6.23421">
        <ele>1608.7908</ele>
        <time>2020-09-15 09:36:13</time>
      </trkpt>
      <trkpt lat="45.69807" lon="6.2342">
        <ele>1608.0938</ele>
        <time>2020-09-15 09:36:15</time>
      </trkpt>
      <trkpt lat="45.69807" lon="6.23419">
        <ele>1608.2207</ele>
        <time>2020-09-15 09:36:16</time>
      </trkpt>
      <trkpt lat="45.69807" lon="6.23419">
        <ele>1609.3035</ele>
        <time>2020-09-15 09:36:18</time>
      </trkpt>
      <trkpt lat="45.69807" lon="6.23417">
        <ele>1610.2046</ele>
        <time>2020-09-15 09:36:23</time>
      </trkpt>
      <trkpt lat="45.69807" lon="6.23417">
        <ele>1610.3638</ele>
        <time>2020-09-15 09:36:24</time>
      </trkpt>
      <trkpt lat="45.69805" lon="6.23415">
        <ele>1609.7964</ele>
        <time>2020-09-15 09:36:31</time>
      </trkpt>
      <trkpt lat="45.69806" lon="6.23416">
        <ele>1610.1587</ele>
        <time>2020-09-15 09:36:34</time>
      </trkpt>
      <trkpt lat="45.69804" lon="6.23414">
        <ele>1609.605</ele>
        <time>2020-09-15 09:36:39</time>
      </trkpt>
      <trkpt lat="45.69803" lon="6.23413">
        <ele>1609.5415</ele>
        <time>2020-09-15 09:36:42</time>
      </trkpt>
      <trkpt lat="45.69804" lon="6.23409">
        <ele>1611.676</ele>
        <time>2020-09-15 09:36:47</time>
      </trkpt>
      <trkpt lat="45.69805" lon="6.23408">
        <ele>1611.3218</ele>
        <time>2020-09-15 09:36:49</time>
      </trkpt>
      <trkpt lat="45.69804" lon="6.23406">
        <ele>1609.5879</ele>
        <time>2020-09-15 09:36:50</time>
      </trkpt>
      <trkpt lat="45.69804" lon="6.23405">
        <ele>1609.2598</ele>
        <time>2020-09-15 09:36:51</time>
      </trkpt>
      <trkpt lat="45.69804" lon="6.23403">
        <ele>1611.584</ele>
        <time>2020-09-15 09:36:53</time>
      </trkpt>
      <trkpt lat="45.69804" lon="6.23401">
        <ele>1611.7771</ele>
        <time>2020-09-15 09:36:57</time>
      </trkpt>
      <trkpt lat="45.69804" lon="6.234">
        <ele>1611.3557</ele>
        <time>2020-09-15 09:37:00</time>
      </trkpt>
      <trkpt lat="45.69804" lon="6.23399">
        <ele>1612.303</ele>
        <time>2020-09-15 09:37:02</time>
      </trkpt>
      <trkpt lat="45.69804" lon="6.23398">
        <ele>1613.2495</ele>
        <time>2020-09-15 09:37:04</time>
      </trkpt>
      <trkpt lat="45.69804" lon="6.23398">
        <ele>1612.9805</ele>
        <time>2020-09-15 09:37:05</time>
      </trkpt>
      <trkpt lat="45.69803" lon="6.23397">
        <ele>1612.0073</ele>
        <time>2020-09-15 09:37:07</time>
      </trkpt>
      <trkpt lat="45.698" lon="6.23394">
        <ele>1610.6133</ele>
        <time>2020-09-15 09:37:14</time>
      </trkpt>
      <trkpt lat="45.698" lon="6.23393">
        <ele>1609.8181</ele>
        <time>2020-09-15 09:37:17</time>
      </trkpt>
      <trkpt lat="45.69801" lon="6.23391">
        <ele>1611.582</ele>
        <time>2020-09-15 09:37:28</time>
      </trkpt>
      <trkpt lat="45.69801" lon="6.23391">
        <ele>1612.4292</ele>
        <time>2020-09-15 09:37:30</time>
      </trkpt>
      <trkpt lat="45.69801" lon="6.23392">
        <ele>1612.9834</ele>
        <time>2020-09-15 09:37:31</time>
      </trkpt>
      <trkpt lat="45.69799" lon="6.23391">
        <ele>1612.7007</ele>
        <time>2020-09-15 09:37:35</time>
      </trkpt>
      <trkpt lat="45.69797" lon="6.2339">
        <ele>1610.7427</ele>
        <time>2020-09-15 09:37:38</time>
      </trkpt>
      <trkpt lat="45.69795" lon="6.23388">
        <ele>1608.6411</ele>
        <time>2020-09-15 09:37:43</time>
      </trkpt>
      <trkpt lat="45.69795" lon="6.23388">
        <ele>1608.4695</ele>
        <time>2020-09-15 09:37:44</time>
      </trkpt>
      <trkpt lat="45.69795" lon="6.23387">
        <ele>1609.23</ele>
        <time>2020-09-15 09:37:47</time>
      </trkpt>
      <trkpt lat="45.69795" lon="6.23387">
        <ele>1609.9277</ele>
        <time>2020-09-15 09:37:48</time>
      </trkpt>
      <trkpt lat="45.69795" lon="6.23386">
        <ele>1609.7451</ele>
        <time>2020-09-15 09:37:49</time>
      </trkpt>
      <trkpt lat="45.69795" lon="6.23386">
        <ele>1610.4458</ele>
        <time>2020-09-15 09:37:51</time>
      </trkpt>
      <trkpt lat="45.69795" lon="6.23385">
        <ele>1611.8218</ele>
        <time>2020-09-15 09:37:55</time>
      </trkpt>
      <trkpt lat="45.69794" lon="6.23383">
        <ele>1609.23</ele>
        <time>2020-09-15 09:37:57</time>
      </trkpt>
      <trkpt lat="45.69794" lon="6.23383">
        <ele>1613.2263</ele>
        <time>2020-09-15 09:37:58</time>
      </trkpt>
      <trkpt lat="45.69795" lon="6.23381">
        <ele>1615.1943</ele>
        <time>2020-09-15 09:38:02</time>
      </trkpt>
      <trkpt lat="45.69796" lon="6.2338">
        <ele>1617.8477</ele>
        <time>2020-09-15 09:38:05</time>
      </trkpt>
      <trkpt lat="45.69797" lon="6.23376">
        <ele>1619.0127</ele>
        <time>2020-09-15 09:38:11</time>
      </trkpt>
      <trkpt lat="45.69797" lon="6.23376">
        <ele>1620.0591</ele>
        <time>2020-09-15 09:38:13</time>
      </trkpt>
      <trkpt lat="45.69797" lon="6.23375">
        <ele>1620.8267</ele>
        <time>2020-09-15 09:38:14</time>
      </trkpt>
      <trkpt lat="45.69797" lon="6.23374">
        <ele>1620.1885</ele>
        <time>2020-09-15 09:38:15</time>
      </trkpt>
      <trkpt lat="45.69796" lon="6.23373">
        <ele>1621.187</ele>
        <time>2020-09-15 09:38:18</time>
      </trkpt>
      <trkpt lat="45.69796" lon="6.23372">
        <ele>1621.8169</ele>
        <time>2020-09-15 09:38:19</time>
      </trkpt>
      <trkpt lat="45.69796" lon="6.23371">
        <ele>1622.98</ele>
        <time>2020-09-15 09:38:22</time>
      </trkpt>
      <trkpt lat="45.69796" lon="6.2337">
        <ele>1623.0479</ele>
        <time>2020-09-15 09:38:24</time>
      </trkpt>
      <trkpt lat="45.69796" lon="6.23369">
        <ele>1624.2539</ele>
        <time>2020-09-15 09:38:26</time>
      </trkpt>
      <trkpt lat="45.69795" lon="6.23368">
        <ele>1625.7979</ele>
        <time>2020-09-15 09:38:29</time>
      </trkpt>
      <trkpt lat="45.69795" lon="6.23366">
        <ele>1627.1353</ele>
        <time>2020-09-15 09:38:31</time>
      </trkpt>
      <trkpt lat="45.69795" lon="6.23366">
        <ele>1628.363</ele>
        <time>2020-09-15 09:38:33</time>
      </trkpt>
      <trkpt lat="45.69795" lon="6.23364">
        <ele>1627.5237</ele>
        <time>2020-09-15 09:38:34</time>
      </trkpt>
      <trkpt lat="45.69794" lon="6.23363">
        <ele>1629.8535</ele>
        <time>2020-09-15 09:38:42</time>
      </trkpt>
      <trkpt lat="45.69795" lon="6.23361">
        <ele>1630.6047</ele>
        <time>2020-09-15 09:38:45</time>
      </trkpt>
      <trkpt lat="45.69795" lon="6.23361">
        <ele>1629.6436</ele>
        <time>2020-09-15 09:38:46</time>
      </trkpt>
      <trkpt lat="45.69796" lon="6.23361">
        <ele>1630.6382</ele>
        <time>2020-09-15 09:38:48</time>
      </trkpt>
      <trkpt lat="45.69795" lon="6.23361">
        <ele>1631.1653</ele>
        <time>2020-09-15 09:38:49</time>
      </trkpt>
      <trkpt lat="45.69795" lon="6.23361">
        <ele>1632.2397</ele>
        <time>2020-09-15 09:38:51</time>
      </trkpt>
      <trkpt lat="45.69795" lon="6.23361">
        <ele>1632.8887</ele>
        <time>2020-09-15 09:38:52</time>
      </trkpt>
      <trkpt lat="45.69795" lon="6.23361">
        <ele>1631.6172</ele>
        <time>2020-09-15 09:38:53</time>
      </trkpt>
      <trkpt lat="45.69793" lon="6.23359">
        <ele>1630.846</ele>
        <time>2020-09-15 09:38:59</time>
      </trkpt>
      <trkpt lat="45.69791" lon="6.23357">
        <ele>1631.6033</ele>
        <time>2020-09-15 09:39:05</time>
      </trkpt>
      <trkpt lat="45.69788" lon="6.23357">
        <ele>1631.3013</ele>
        <time>2020-09-15 09:39:09</time>
      </trkpt>
      <trkpt lat="45.69787" lon="6.23356">
        <ele>1633.1445</ele>
        <time>2020-09-15 09:39:13</time>
      </trkpt>
      <trkpt lat="45.69786" lon="6.23352">
        <ele>1633.3018</ele>
        <time>2020-09-15 09:39:16</time>
      </trkpt>
      <trkpt lat="45.69785" lon="6.23351">
        <ele>1632.2573</ele>
        <time>2020-09-15 09:39:20</time>
      </trkpt>
      <trkpt lat="45.69784" lon="6.23351">
        <ele>1632.9067</ele>
        <time>2020-09-15 09:39:21</time>
      </trkpt>
      <trkpt lat="45.69784" lon="6.23351">
        <ele>1633.5679</ele>
        <time>2020-09-15 09:39:22</time>
      </trkpt>
      <trkpt lat="45.69784" lon="6.23349">
        <ele>1634.4102</ele>
        <time>2020-09-15 09:39:24</time>
      </trkpt>
      <trkpt lat="45.69785" lon="6.23348">
        <ele>1636.1208</ele>
        <time>2020-09-15 09:39:29</time>
      </trkpt>
      <trkpt lat="45.69782" lon="6.23346">
        <ele>1635.9397</ele>
        <time>2020-09-15 09:39:36</time>
      </trkpt>
      <trkpt lat="45.69782" lon="6.23345">
        <ele>1636.0483</ele>
        <time>2020-09-15 09:39:38</time>
      </trkpt>
      <trkpt lat="45.69782" lon="6.23341">
        <ele>1635.6433</ele>
        <time>2020-09-15 09:39:41</time>
      </trkpt>
      <trkpt lat="45.69782" lon="6.23341">
        <ele>1636.2041</ele>
        <time>2020-09-15 09:39:42</time>
      </trkpt>
      <trkpt lat="45.69782" lon="6.2334">
        <ele>1636.519</ele>
        <time>2020-09-15 09:39:43</time>
      </trkpt>
      <trkpt lat="45.69783" lon="6.2334">
        <ele>1637.2126</ele>
        <time>2020-09-15 09:39:45</time>
      </trkpt>
      <trkpt lat="45.69783" lon="6.2334">
        <ele>1636.5259</ele>
        <time>2020-09-15 09:39:46</time>
      </trkpt>
      <trkpt lat="45.69783" lon="6.23339">
        <ele>1636.0483</ele>
        <time>2020-09-15 09:39:47</time>
      </trkpt>
      <trkpt lat="45.69783" lon="6.23339">
        <ele>1635.7988</ele>
        <time>2020-09-15 09:39:48</time>
      </trkpt>
      <trkpt lat="45.69782" lon="6.23339">
        <ele>1635.9822</ele>
        <time>2020-09-15 09:39:51</time>
      </trkpt>
      <trkpt lat="45.69782" lon="6.23339">
        <ele>1636.3687</ele>
        <time>2020-09-15 09:39:53</time>
      </trkpt>
      <trkpt lat="45.69782" lon="6.23339">
        <ele>1632.5745</ele>
        <time>2020-09-15 09:39:59</time>
      </trkpt>
      <trkpt lat="45.69779" lon="6.23339">
        <ele>1630.0442</ele>
        <time>2020-09-15 09:40:01</time>
      </trkpt>
      <trkpt lat="45.69779" lon="6.23339">
        <ele>1630.8291</ele>
        <time>2020-09-15 09:40:02</time>
      </trkpt>
      <trkpt lat="45.69778" lon="6.23339">
        <ele>1631.7014</ele>
        <time>2020-09-15 09:40:03</time>
      </trkpt>
      <trkpt lat="45.69778" lon="6.23339">
        <ele>1631.4312</ele>
        <time>2020-09-15 09:40:04</time>
      </trkpt>
      <trkpt lat="45.69778" lon="6.23339">
        <ele>1632.0801</ele>
        <time>2020-09-15 09:40:05</time>
      </trkpt>
      <trkpt lat="45.69777" lon="6.23339">
        <ele>1633.1292</ele>
        <time>2020-09-15 09:40:08</time>
      </trkpt>
      <trkpt lat="45.69777" lon="6.23338">
        <ele>1633.8181</ele>
        <time>2020-09-15 09:40:09</time>
      </trkpt>
      <trkpt lat="45.69778" lon="6.23335">
        <ele>1634.0249</ele>
        <time>2020-09-15 09:40:19</time>
      </trkpt>
      <trkpt lat="45.69778" lon="6.23335">
        <ele>1634.1106</ele>
        <time>2020-09-15 09:40:20</time>
      </trkpt>
      <trkpt lat="45.69778" lon="6.23333">
        <ele>1634.8276</ele>
        <time>2020-09-15 09:40:27</time>
      </trkpt>
      <trkpt lat="45.69778" lon="6.23333">
        <ele>1636.521</ele>
        <time>2020-09-15 09:40:28</time>
      </trkpt>
      <trkpt lat="45.69779" lon="6.23332">
        <ele>1637.2134</ele>
        <time>2020-09-15 09:40:29</time>
      </trkpt>
      <trkpt lat="45.69778" lon="6.23332">
        <ele>1636.1562</ele>
        <time>2020-09-15 09:40:30</time>
      </trkpt>
      <trkpt lat="45.69779" lon="6.23331">
        <ele>1636.8013</ele>
        <time>2020-09-15 09:40:32</time>
      </trkpt>
      <trkpt lat="45.69779" lon="6.23332">
        <ele>1637.0605</ele>
        <time>2020-09-15 09:40:33</time>
      </trkpt>
      <trkpt lat="45.6978" lon="6.23331">
        <ele>1637.8936</ele>
        <time>2020-09-15 09:40:34</time>
      </trkpt>
      <trkpt lat="45.6978" lon="6.23331">
        <ele>1638.5425</ele>
        <time>2020-09-15 09:40:35</time>
      </trkpt>
      <trkpt lat="45.6978" lon="6.23331">
        <ele>1639.1284</ele>
        <time>2020-09-15 09:40:40</time>
      </trkpt>
      <trkpt lat="45.6978" lon="6.2333">
        <ele>1639.9265</ele>
        <time>2020-09-15 09:40:42</time>
      </trkpt>
      <trkpt lat="45.6978" lon="6.23329">
        <ele>1640.1528</ele>
        <time>2020-09-15 09:40:43</time>
      </trkpt>
      <trkpt lat="45.6978" lon="6.23327">
        <ele>1638.7874</ele>
        <time>2020-09-15 09:40:46</time>
      </trkpt>
      <trkpt lat="45.6978" lon="6.23326">
        <ele>1639.1572</ele>
        <time>2020-09-15 09:40:47</time>
      </trkpt>
      <trkpt lat="45.6978" lon="6.23325">
        <ele>1639.2373</ele>
        <time>2020-09-15 09:40:48</time>
      </trkpt>
      <trkpt lat="45.6978" lon="6.23321">
        <ele>1638.4004</ele>
        <time>2020-09-15 09:40:53</time>
      </trkpt>
      <trkpt lat="45.6978" lon="6.23321">
        <ele>1639.8076</ele>
        <time>2020-09-15 09:40:54</time>
      </trkpt>
      <trkpt lat="45.6978" lon="6.2332">
        <ele>1640.123</ele>
        <time>2020-09-15 09:40:55</time>
      </trkpt>
      <trkpt lat="45.69779" lon="6.23317">
        <ele>1640.6304</ele>
        <time>2020-09-15 09:40:58</time>
      </trkpt>
      <trkpt lat="45.69778" lon="6.23317">
        <ele>1641.2085</ele>
        <time>2020-09-15 09:40:59</time>
      </trkpt>
      <trkpt lat="45.69777" lon="6.23314">
        <ele>1640.0193</ele>
        <time>2020-09-15 09:41:08</time>
      </trkpt>
      <trkpt lat="45.69777" lon="6.23313">
        <ele>1642.2051</ele>
        <time>2020-09-15 09:41:10</time>
      </trkpt>
      <trkpt lat="45.69778" lon="6.23313">
        <ele>1643.1257</ele>
        <time>2020-09-15 09:41:13</time>
      </trkpt>
      <trkpt lat="45.69777" lon="6.23312">
        <ele>1644.0771</ele>
        <time>2020-09-15 09:41:14</time>
      </trkpt>
      <trkpt lat="45.69777" lon="6.23312">
        <ele>1643.8813</ele>
        <time>2020-09-15 09:41:15</time>
      </trkpt>
      <trkpt lat="45.69777" lon="6.23313">
        <ele>1645.7568</ele>
        <time>2020-09-15 09:41:21</time>
      </trkpt>
      <trkpt lat="45.69775" lon="6.23313">
        <ele>1643.1135</ele>
        <time>2020-09-15 09:41:23</time>
      </trkpt>
      <trkpt lat="45.69773" lon="6.23312">
        <ele>1642.5771</ele>
        <time>2020-09-15 09:41:26</time>
      </trkpt>
      <trkpt lat="45.69773" lon="6.23311">
        <ele>1644.4236</ele>
        <time>2020-09-15 09:41:27</time>
      </trkpt>
      <trkpt lat="45.69772" lon="6.2331">
        <ele>1641.1787</ele>
        <time>2020-09-15 09:41:37</time>
      </trkpt>
      <trkpt lat="45.69773" lon="6.2331">
        <ele>1645.3418</ele>
        <time>2020-09-15 09:41:39</time>
      </trkpt>
      <trkpt lat="45.69773" lon="6.23309">
        <ele>1645.583</ele>
        <time>2020-09-15 09:41:40</time>
      </trkpt>
      <trkpt lat="45.69773" lon="6.23306">
        <ele>1646.2424</ele>
        <time>2020-09-15 09:41:43</time>
      </trkpt>
      <trkpt lat="45.69773" lon="6.23306">
        <ele>1647.8745</ele>
        <time>2020-09-15 09:41:45</time>
      </trkpt>
      <trkpt lat="45.69773" lon="6.23303">
        <ele>1645.3723</ele>
        <time>2020-09-15 09:41:49</time>
      </trkpt>
      <trkpt lat="45.69772" lon="6.23303">
        <ele>1645.874</ele>
        <time>2020-09-15 09:41:52</time>
      </trkpt>
      <trkpt lat="45.69771" lon="6.23304">
        <ele>1646.1145</ele>
        <time>2020-09-15 09:41:54</time>
      </trkpt>
      <trkpt lat="45.6977" lon="6.23304">
        <ele>1646.4673</ele>
        <time>2020-09-15 09:41:55</time>
      </trkpt>
      <trkpt lat="45.69769" lon="6.23304">
        <ele>1647.7817</ele>
        <time>2020-09-15 09:41:56</time>
      </trkpt>
      <trkpt lat="45.69767" lon="6.23304">
        <ele>1647.2949</ele>
        <time>2020-09-15 09:41:58</time>
      </trkpt>
      <trkpt lat="45.69768" lon="6.23303">
        <ele>1645.8135</ele>
        <time>2020-09-15 09:42:02</time>
      </trkpt>
      <trkpt lat="45.69768" lon="6.23303">
        <ele>1646.6711</ele>
        <time>2020-09-15 09:42:03</time>
      </trkpt>
      <trkpt lat="45.69768" lon="6.23303">
        <ele>1646.4746</ele>
        <time>2020-09-15 09:42:04</time>
      </trkpt>
      <trkpt lat="45.69767" lon="6.23303">
        <ele>1648.2842</ele>
        <time>2020-09-15 09:42:08</time>
      </trkpt>
      <trkpt lat="45.69767" lon="6.23303">
        <ele>1648.4829</ele>
        <time>2020-09-15 09:42:09</time>
      </trkpt>
      <trkpt lat="45.69767" lon="6.23303">
        <ele>1648.8108</ele>
        <time>2020-09-15 09:42:10</time>
      </trkpt>
      <trkpt lat="45.69766" lon="6.23303">
        <ele>1649.5767</ele>
        <time>2020-09-15 09:42:11</time>
      </trkpt>
      <trkpt lat="45.69766" lon="6.23301">
        <ele>1648.2842</ele>
        <time>2020-09-15 09:42:17</time>
      </trkpt>
      <trkpt lat="45.69766" lon="6.23301">
        <ele>1649.2668</ele>
        <time>2020-09-15 09:42:18</time>
      </trkpt>
      <trkpt lat="45.69765" lon="6.23301">
        <ele>1650.0315</ele>
        <time>2020-09-15 09:42:19</time>
      </trkpt>
      <trkpt lat="45.69763" lon="6.233">
        <ele>1650.8059</ele>
        <time>2020-09-15 09:42:22</time>
      </trkpt>
      <trkpt lat="45.69763" lon="6.233">
        <ele>1651.46</ele>
        <time>2020-09-15 09:42:24</time>
      </trkpt>
      <trkpt lat="45.69763" lon="6.23298">
        <ele>1649.2668</ele>
        <time>2020-09-15 09:42:27</time>
      </trkpt>
      <trkpt lat="45.69763" lon="6.23297">
        <ele>1652.6758</ele>
        <time>2020-09-15 09:42:28</time>
      </trkpt>
      <trkpt lat="45.69764" lon="6.23293">
        <ele>1652.7305</ele>
        <time>2020-09-15 09:42:34</time>
      </trkpt>
      <trkpt lat="45.69763" lon="6.23292">
        <ele>1652.8174</ele>
        <time>2020-09-15 09:42:38</time>
      </trkpt>
      <trkpt lat="45.69763" lon="6.23292">
        <ele>1653.2405</ele>
        <time>2020-09-15 09:42:39</time>
      </trkpt>
      <trkpt lat="45.69763" lon="6.23291">
        <ele>1655.105</ele>
        <time>2020-09-15 09:42:40</time>
      </trkpt>
      <trkpt lat="45.69763" lon="6.23291">
        <ele>1655.7246</ele>
        <time>2020-09-15 09:42:41</time>
      </trkpt>
      <trkpt lat="45.69762" lon="6.2329">
        <ele>1655.4993</ele>
        <time>2020-09-15 09:42:44</time>
      </trkpt>
      <trkpt lat="45.69762" lon="6.23287">
        <ele>1658.9087</ele>
        <time>2020-09-15 09:42:48</time>
      </trkpt>
      <trkpt lat="45.69761" lon="6.23287">
        <ele>1658.9663</ele>
        <time>2020-09-15 09:42:51</time>
      </trkpt>
      <trkpt lat="45.69761" lon="6.23287">
        <ele>1659.3843</ele>
        <time>2020-09-15 09:42:52</time>
      </trkpt>
      <trkpt lat="45.6976" lon="6.23287">
        <ele>1659.4868</ele>
        <time>2020-09-15 09:42:53</time>
      </trkpt>
      <trkpt lat="45.6976" lon="6.23285">
        <ele>1658.9087</ele>
        <time>2020-09-15 09:42:57</time>
      </trkpt>
      <trkpt lat="45.6976" lon="6.23285">
        <ele>1660.4766</ele>
        <time>2020-09-15 09:42:59</time>
      </trkpt>
      <trkpt lat="45.69759" lon="6.23284">
        <ele>1661.6702</ele>
        <time>2020-09-15 09:43:01</time>
      </trkpt>
      <trkpt lat="45.69759" lon="6.23283">
        <ele>1662.0376</ele>
        <time>2020-09-15 09:43:02</time>
      </trkpt>
      <trkpt lat="45.69759" lon="6.23278">
        <ele>1659.939</ele>
        <time>2020-09-15 09:43:11</time>
      </trkpt>
      <trkpt lat="45.69758" lon="6.23276">
        <ele>1659.565</ele>
        <time>2020-09-15 09:43:15</time>
      </trkpt>
      <trkpt lat="45.69757" lon="6.23276">
        <ele>1660.6118</ele>
        <time>2020-09-15 09:43:16</time>
      </trkpt>
      <trkpt lat="45.69757" lon="6.23275">
        <ele>1661.0393</ele>
        <time>2020-09-15 09:43:18</time>
      </trkpt>
      <trkpt lat="45.69758" lon="6.23274">
        <ele>1660.1353</ele>
        <time>2020-09-15 09:43:25</time>
      </trkpt>
      <trkpt lat="45.69758" lon="6.23273">
        <ele>1660.3862</ele>
        <time>2020-09-15 09:43:29</time>
      </trkpt>
      <trkpt lat="45.69757" lon="6.23272">
        <ele>1659.0337</ele>
        <time>2020-09-15 09:43:31</time>
      </trkpt>
      <trkpt lat="45.69757" lon="6.23272">
        <ele>1659.3789</ele>
        <time>2020-09-15 09:43:32</time>
      </trkpt>
      <trkpt lat="45.69757" lon="6.23272">
        <ele>1660.1143</ele>
        <time>2020-09-15 09:43:34</time>
      </trkpt>
      <trkpt lat="45.69755" lon="6.2327">
        <ele>1660.4766</ele>
        <time>2020-09-15 09:43:37</time>
      </trkpt>
      <trkpt lat="45.69755" lon="6.23269">
        <ele>1658.5947</ele>
        <time>2020-09-15 09:43:38</time>
      </trkpt>
      <trkpt lat="45.69754" lon="6.23268">
        <ele>1659.3901</ele>
        <time>2020-09-15 09:43:39</time>
      </trkpt>
      <trkpt lat="45.69755" lon="6.23267">
        <ele>1657.8186</ele>
        <time>2020-09-15 09:43:40</time>
      </trkpt>
      <trkpt lat="45.69754" lon="6.23266">
        <ele>1657.1838</ele>
        <time>2020-09-15 09:43:41</time>
      </trkpt>
      <trkpt lat="45.69753" lon="6.23265">
        <ele>1658.3728</ele>
        <time>2020-09-15 09:43:43</time>
      </trkpt>
      <trkpt lat="45.69753" lon="6.23265">
        <ele>1659.8154</ele>
        <time>2020-09-15 09:43:45</time>
      </trkpt>
      <trkpt lat="45.69753" lon="6.23264">
        <ele>1660.1489</ele>
        <time>2020-09-15 09:43:46</time>
      </trkpt>
      <trkpt lat="45.69754" lon="6.23263">
        <ele>1661.9443</ele>
        <time>2020-09-15 09:43:48</time>
      </trkpt>
      <trkpt lat="45.69754" lon="6.23262">
        <ele>1661.1768</ele>
        <time>2020-09-15 09:43:49</time>
      </trkpt>
      <trkpt lat="45.69755" lon="6.23261">
        <ele>1662.0918</ele>
        <time>2020-09-15 09:43:52</time>
      </trkpt>
      <trkpt lat="45.69755" lon="6.2326">
        <ele>1663.0146</ele>
        <time>2020-09-15 09:43:55</time>
      </trkpt>
      <trkpt lat="45.69755" lon="6.2326">
        <ele>1661.9443</ele>
        <time>2020-09-15 09:43:57</time>
      </trkpt>
      <trkpt lat="45.69756" lon="6.23259">
        <ele>1663.4614</ele>
        <time>2020-09-15 09:43:59</time>
      </trkpt>
      <trkpt lat="45.69756" lon="6.23257">
        <ele>1663.6797</ele>
        <time>2020-09-15 09:44:03</time>
      </trkpt>
      <trkpt lat="45.69755" lon="6.23256">
        <ele>1664.1982</ele>
        <time>2020-09-15 09:44:05</time>
      </trkpt>
      <trkpt lat="45.69755" lon="6.23256">
        <ele>1664.6367</ele>
        <time>2020-09-15 09:44:06</time>
      </trkpt>
      <trkpt lat="45.69755" lon="6.23256">
        <ele>1662.3403</ele>
        <time>2020-09-15 09:44:07</time>
      </trkpt>
      <trkpt lat="45.69754" lon="6.23256">
        <ele>1665.4102</ele>
        <time>2020-09-15 09:44:08</time>
      </trkpt>
      <trkpt lat="45.69754" lon="6.23255">
        <ele>1665.9058</ele>
        <time>2020-09-15 09:44:09</time>
      </trkpt>
      <trkpt lat="45.69755" lon="6.23255">
        <ele>1666.4807</ele>
        <time>2020-09-15 09:44:10</time>
      </trkpt>
      <trkpt lat="45.69753" lon="6.23254">
        <ele>1666.6482</ele>
        <time>2020-09-15 09:44:14</time>
      </trkpt>
      <trkpt lat="45.69753" lon="6.23253">
        <ele>1666.9619</ele>
        <time>2020-09-15 09:44:15</time>
      </trkpt>
      <trkpt lat="45.69752" lon="6.2325">
        <ele>1667.2275</ele>
        <time>2020-09-15 09:44:18</time>
      </trkpt>
      <trkpt lat="45.69752" lon="6.23249">
        <ele>1668.0625</ele>
        <time>2020-09-15 09:44:21</time>
      </trkpt>
      <trkpt lat="45.69751" lon="6.23249">
        <ele>1669.1609</ele>
        <time>2020-09-15 09:44:23</time>
      </trkpt>
      <trkpt lat="45.69751" lon="6.23249">
        <ele>1669.6462</ele>
        <time>2020-09-15 09:44:26</time>
      </trkpt>
      <trkpt lat="45.6975" lon="6.23248">
        <ele>1669.0591</ele>
        <time>2020-09-15 09:44:28</time>
      </trkpt>
      <trkpt lat="45.6975" lon="6.23247">
        <ele>1669.2185</ele>
        <time>2020-09-15 09:44:30</time>
      </trkpt>
      <trkpt lat="45.69751" lon="6.23245">
        <ele>1667.6943</ele>
        <time>2020-09-15 09:44:32</time>
      </trkpt>
      <trkpt lat="45.69751" lon="6.23245">
        <ele>1668.0364</ele>
        <time>2020-09-15 09:44:33</time>
      </trkpt>
      <trkpt lat="45.69751" lon="6.23245">
        <ele>1670.2944</ele>
        <time>2020-09-15 09:44:36</time>
      </trkpt>
      <trkpt lat="45.6975" lon="6.23245">
        <ele>1669.0591</ele>
        <time>2020-09-15 09:44:37</time>
      </trkpt>
      <trkpt lat="45.6975" lon="6.23244">
        <ele>1670.9294</ele>
        <time>2020-09-15 09:44:38</time>
      </trkpt>
      <trkpt lat="45.69752" lon="6.2324">
        <ele>1671.5981</ele>
        <time>2020-09-15 09:44:42</time>
      </trkpt>
      <trkpt lat="45.69752" lon="6.2324">
        <ele>1671.8398</ele>
        <time>2020-09-15 09:44:44</time>
      </trkpt>
      <trkpt lat="45.69754" lon="6.23237">
        <ele>1669.1655</ele>
        <time>2020-09-15 09:44:46</time>
      </trkpt>
      <trkpt lat="45.69754" lon="6.23237">
        <ele>1671.6069</ele>
        <time>2020-09-15 09:44:47</time>
      </trkpt>
      <trkpt lat="45.69755" lon="6.23235">
        <ele>1671.8442</ele>
        <time>2020-09-15 09:44:51</time>
      </trkpt>
      <trkpt lat="45.69754" lon="6.23236">
        <ele>1674.4778</ele>
        <time>2020-09-15 09:44:57</time>
      </trkpt>
      <trkpt lat="45.69754" lon="6.23234">
        <ele>1675.6772</ele>
        <time>2020-09-15 09:44:59</time>
      </trkpt>
      <trkpt lat="45.69755" lon="6.23231">
        <ele>1677.0508</ele>
        <time>2020-09-15 09:45:04</time>
      </trkpt>
      <trkpt lat="45.69755" lon="6.23231">
        <ele>1677.5088</ele>
        <time>2020-09-15 09:45:05</time>
      </trkpt>
      <trkpt lat="45.69755" lon="6.2323">
        <ele>1677.4326</ele>
        <time>2020-09-15 09:45:06</time>
      </trkpt>
      <trkpt lat="45.69754" lon="6.2323">
        <ele>1675.6772</ele>
        <time>2020-09-15 09:45:08</time>
      </trkpt>
      <trkpt lat="45.69753" lon="6.23231">
        <ele>1681.2109</ele>
        <time>2020-09-15 09:45:12</time>
      </trkpt>
      <trkpt lat="45.69753" lon="6.2323">
        <ele>1680.3755</ele>
        <time>2020-09-15 09:45:13</time>
      </trkpt>
      <trkpt lat="45.69753" lon="6.2323">
        <ele>1680.5029</ele>
        <time>2020-09-15 09:45:14</time>
      </trkpt>
      <trkpt lat="45.69753" lon="6.23229">
        <ele>1679.9165</ele>
        <time>2020-09-15 09:45:15</time>
      </trkpt>
      <trkpt lat="45.69753" lon="6.23229">
        <ele>1678.3188</ele>
        <time>2020-09-15 09:45:16</time>
      </trkpt>
      <trkpt lat="45.69753" lon="6.23228">
        <ele>1678.8733</ele>
        <time>2020-09-15 09:45:17</time>
      </trkpt>
      <trkpt lat="45.69754" lon="6.23227">
        <ele>1679.8198</ele>
        <time>2020-09-15 09:45:18</time>
      </trkpt>
      <trkpt lat="45.69755" lon="6.23225">
        <ele>1683.1255</ele>
        <time>2020-09-15 09:45:23</time>
      </trkpt>
      <trkpt lat="45.69755" lon="6.23223">
        <ele>1682.3423</ele>
        <time>2020-09-15 09:45:25</time>
      </trkpt>
      <trkpt lat="45.69754" lon="6.23221">
        <ele>1681.3271</ele>
        <time>2020-09-15 09:45:29</time>
      </trkpt>
      <trkpt lat="45.69754" lon="6.23221">
        <ele>1682.3882</ele>
        <time>2020-09-15 09:45:30</time>
      </trkpt>
      <trkpt lat="45.69754" lon="6.2322">
        <ele>1682.1589</ele>
        <time>2020-09-15 09:45:31</time>
      </trkpt>
      <trkpt lat="45.69754" lon="6.2322">
        <ele>1681.6467</ele>
        <time>2020-09-15 09:45:32</time>
      </trkpt>
      <trkpt lat="45.69753" lon="6.23218">
        <ele>1681.4009</ele>
        <time>2020-09-15 09:45:36</time>
      </trkpt>
      <trkpt lat="45.69753" lon="6.23218">
        <ele>1682.709</ele>
        <time>2020-09-15 09:45:37</time>
      </trkpt>
      <trkpt lat="45.69753" lon="6.23217">
        <ele>1681.3271</ele>
        <time>2020-09-15 09:45:38</time>
      </trkpt>
      <trkpt lat="45.69753" lon="6.23217">
        <ele>1684.0996</ele>
        <time>2020-09-15 09:45:39</time>
      </trkpt>
      <trkpt lat="45.69752" lon="6.23218">
        <ele>1688.0356</ele>
        <time>2020-09-15 09:45:44</time>
      </trkpt>
      <trkpt lat="45.69752" lon="6.23218">
        <ele>1687.4941</ele>
        <time>2020-09-15 09:45:45</time>
      </trkpt>
      <trkpt lat="45.6975" lon="6.23217">
        <ele>1685.5176</ele>
        <time>2020-09-15 09:45:47</time>
      </trkpt>
      <trkpt lat="45.6975" lon="6.23216">
        <ele>1687.3032</ele>
        <time>2020-09-15 09:45:51</time>
      </trkpt>
      <trkpt lat="45.6975" lon="6.23215">
        <ele>1687.856</ele>
        <time>2020-09-15 09:45:52</time>
      </trkpt>
      <trkpt lat="45.69751" lon="6.23215">
        <ele>1688.8213</ele>
        <time>2020-09-15 09:45:53</time>
      </trkpt>
      <trkpt lat="45.69751" lon="6.23215">
        <ele>1689.3091</ele>
        <time>2020-09-15 09:45:54</time>
      </trkpt>
      <trkpt lat="45.6975" lon="6.23212">
        <ele>1683.3013</ele>
        <time>2020-09-15 09:46:05</time>
      </trkpt>
      <trkpt lat="45.6975" lon="6.23211">
        <ele>1682.4946</ele>
        <time>2020-09-15 09:46:06</time>
      </trkpt>
      <trkpt lat="45.69749" lon="6.2321">
        <ele>1682.406</ele>
        <time>2020-09-15 09:46:07</time>
      </trkpt>
      <trkpt lat="45.69748" lon="6.23209">
        <ele>1684.4849</ele>
        <time>2020-09-15 09:46:09</time>
      </trkpt>
      <trkpt lat="45.69748" lon="6.23207">
        <ele>1684.7046</ele>
        <time>2020-09-15 09:46:12</time>
      </trkpt>
      <trkpt lat="45.69748" lon="6.23207">
        <ele>1686.3943</ele>
        <time>2020-09-15 09:46:14</time>
      </trkpt>
      <trkpt lat="45.69748" lon="6.23207">
        <ele>1686.0022</ele>
        <time>2020-09-15 09:46:16</time>
      </trkpt>
      <trkpt lat="45.69748" lon="6.23206">
        <ele>1687.1477</ele>
        <time>2020-09-15 09:46:17</time>
      </trkpt>
      <trkpt lat="45.69748" lon="6.23206">
        <ele>1684.4849</ele>
        <time>2020-09-15 09:46:19</time>
      </trkpt>
      <trkpt lat="45.69748" lon="6.23206">
        <ele>1687.4736</ele>
        <time>2020-09-15 09:46:21</time>
      </trkpt>
      <trkpt lat="45.69747" lon="6.23205">
        <ele>1688.1514</ele>
        <time>2020-09-15 09:46:23</time>
      </trkpt>
      <trkpt lat="45.69746" lon="6.23204">
        <ele>1688.2017</ele>
        <time>2020-09-15 09:46:25</time>
      </trkpt>
      <trkpt lat="45.69745" lon="6.23201">
        <ele>1686.9136</ele>
        <time>2020-09-15 09:46:28</time>
      </trkpt>
      <trkpt lat="45.69745" lon="6.23199">
        <ele>1686.5593</ele>
        <time>2020-09-15 09:46:30</time>
      </trkpt>
      <trkpt lat="45.69745" lon="6.23198">
        <ele>1687.4583</ele>
        <time>2020-09-15 09:46:34</time>
      </trkpt>
      <trkpt lat="45.69745" lon="6.23198">
        <ele>1687.9507</ele>
        <time>2020-09-15 09:46:35</time>
      </trkpt>
      <trkpt lat="45.69745" lon="6.23198">
        <ele>1688.7983</ele>
        <time>2020-09-15 09:46:37</time>
      </trkpt>
      <trkpt lat="45.69745" lon="6.23198">
        <ele>1689.6389</ele>
        <time>2020-09-15 09:46:38</time>
      </trkpt>
      <trkpt lat="45.69745" lon="6.23199">
        <ele>1690.5078</ele>
        <time>2020-09-15 09:46:40</time>
      </trkpt>
      <trkpt lat="45.69744" lon="6.23199">
        <ele>1691.7859</ele>
        <time>2020-09-15 09:46:41</time>
      </trkpt>
      <trkpt lat="45.69744" lon="6.23198">
        <ele>1687.0728</ele>
        <time>2020-09-15 09:46:42</time>
      </trkpt>
      <trkpt lat="45.69744" lon="6.23199">
        <ele>1693.2141</ele>
        <time>2020-09-15 09:46:43</time>
      </trkpt>
      <trkpt lat="45.69744" lon="6.23199">
        <ele>1692.2815</ele>
        <time>2020-09-15 09:46:45</time>
      </trkpt>
      <trkpt lat="45.69744" lon="6.23198">
        <ele>1692.2676</ele>
        <time>2020-09-15 09:46:46</time>
      </trkpt>
      <trkpt lat="45.69744" lon="6.23199">
        <ele>1693.2141</ele>
        <time>2020-09-15 09:46:52</time>
      </trkpt>
      <trkpt lat="45.69743" lon="6.23199">
        <ele>1693.9231</ele>
        <time>2020-09-15 09:46:53</time>
      </trkpt>
      <trkpt lat="45.69743" lon="6.23199">
        <ele>1694.8823</ele>
        <time>2020-09-15 09:46:54</time>
      </trkpt>
      <trkpt lat="45.69743" lon="6.23198">
        <ele>1695.4602</ele>
        <time>2020-09-15 09:46:55</time>
      </trkpt>
      <trkpt lat="45.69742" lon="6.23198">
        <ele>1696.1982</ele>
        <time>2020-09-15 09:46:59</time>
      </trkpt>
      <trkpt lat="45.69741" lon="6.23198">
        <ele>1697.44</ele>
        <time>2020-09-15 09:47:01</time>
      </trkpt>
      <trkpt lat="45.69741" lon="6.23198">
        <ele>1693.9231</ele>
        <time>2020-09-15 09:47:02</time>
      </trkpt>
      <trkpt lat="45.6974" lon="6.23198">
        <ele>1698.6846</ele>
        <time>2020-09-15 09:47:03</time>
      </trkpt>
      <trkpt lat="45.6974" lon="6.23198">
        <ele>1699.2168</ele>
        <time>2020-09-15 09:47:04</time>
      </trkpt>
      <trkpt lat="45.69741" lon="6.23198">
        <ele>1698.6394</ele>
        <time>2020-09-15 09:47:06</time>
      </trkpt>
      <trkpt lat="45.69742" lon="6.23197">
        <ele>1698.4961</ele>
        <time>2020-09-15 09:47:08</time>
      </trkpt>
      <trkpt lat="45.69742" lon="6.23197">
        <ele>1698.7275</ele>
        <time>2020-09-15 09:47:09</time>
      </trkpt>
      <trkpt lat="45.69742" lon="6.23196">
        <ele>1699.7896</ele>
        <time>2020-09-15 09:47:11</time>
      </trkpt>
      <trkpt lat="45.69742" lon="6.23195">
        <ele>1698.6846</ele>
        <time>2020-09-15 09:47:12</time>
      </trkpt>
      <trkpt lat="45.69742" lon="6.23191">
        <ele>1701.6096</ele>
        <time>2020-09-15 09:47:17</time>
      </trkpt>
      <trkpt lat="45.69742" lon="6.2319">
        <ele>1701.9907</ele>
        <time>2020-09-15 09:47:18</time>
      </trkpt>
      <trkpt lat="45.69741" lon="6.23189">
        <ele>1704.3218</ele>
        <time>2020-09-15 09:47:21</time>
      </trkpt>
      <trkpt lat="45.6974" lon="6.2319">
        <ele>1704.8574</ele>
        <time>2020-09-15 09:47:25</time>
      </trkpt>
      <trkpt lat="45.69739" lon="6.23189">
        <ele>1705.1519</ele>
        <time>2020-09-15 09:47:28</time>
      </trkpt>
      <trkpt lat="45.69738" lon="6.23188">
        <ele>1704.2522</ele>
        <time>2020-09-15 09:47:33</time>
      </trkpt>
      <trkpt lat="45.69738" lon="6.23188">
        <ele>1704.627</ele>
        <time>2020-09-15 09:47:34</time>
      </trkpt>
      <trkpt lat="45.69738" lon="6.23187">
        <ele>1704.9951</ele>
        <time>2020-09-15 09:47:35</time>
      </trkpt>
      <trkpt lat="45.69736" lon="6.23187">
        <ele>1706.3228</ele>
        <time>2020-09-15 09:47:37</time>
      </trkpt>
      <trkpt lat="45.69736" lon="6.23187">
        <ele>1706.3564</ele>
        <time>2020-09-15 09:47:39</time>
      </trkpt>
      <trkpt lat="45.69735" lon="6.23187">
        <ele>1707.6221</ele>
        <time>2020-09-15 09:47:41</time>
      </trkpt>
      <trkpt lat="45.69735" lon="6.23185">
        <ele>1708.542</ele>
        <time>2020-09-15 09:47:43</time>
      </trkpt>
      <trkpt lat="45.69737" lon="6.23183">
        <ele>1708.6147</ele>
        <time>2020-09-15 09:47:49</time>
      </trkpt>
      <trkpt lat="45.69737" lon="6.23182">
        <ele>1706.7852</ele>
        <time>2020-09-15 09:47:51</time>
      </trkpt>
      <trkpt lat="45.69738" lon="6.23183">
        <ele>1708.8071</ele>
        <time>2020-09-15 09:47:53</time>
      </trkpt>
      <trkpt lat="45.69737" lon="6.23182">
        <ele>1709.2063</ele>
        <time>2020-09-15 09:47:54</time>
      </trkpt>
      <trkpt lat="45.69737" lon="6.23183">
        <ele>1711.3633</ele>
        <time>2020-09-15 09:47:57</time>
      </trkpt>
      <trkpt lat="45.69736" lon="6.23184">
        <ele>1712.1187</ele>
        <time>2020-09-15 09:47:58</time>
      </trkpt>
      <trkpt lat="45.69736" lon="6.23184">
        <ele>1711.6677</ele>
        <time>2020-09-15 09:47:59</time>
      </trkpt>
      <trkpt lat="45.69735" lon="6.23185">
        <ele>1711.439</ele>
        <time>2020-09-15 09:48:00</time>
      </trkpt>
      <trkpt lat="45.69734" lon="6.23185">
        <ele>1708.8071</ele>
        <time>2020-09-15 09:48:03</time>
      </trkpt>
      <trkpt lat="45.69733" lon="6.23184">
        <ele>1711.7002</ele>
        <time>2020-09-15 09:48:04</time>
      </trkpt>
      <trkpt lat="45.69733" lon="6.23184">
        <ele>1712.5293</ele>
        <time>2020-09-15 09:48:05</time>
      </trkpt>
      <trkpt lat="45.69733" lon="6.23183">
        <ele>1710.1345</ele>
        <time>2020-09-15 09:48:06</time>
      </trkpt>
      <trkpt lat="45.69733" lon="6.23182">
        <ele>1711.147</ele>
        <time>2020-09-15 09:48:11</time>
      </trkpt>
      <trkpt lat="45.69732" lon="6.2318">
        <ele>1711.3887</ele>
        <time>2020-09-15 09:48:17</time>
      </trkpt>
      <trkpt lat="45.69732" lon="6.23179">
        <ele>1711.2126</ele>
        <time>2020-09-15 09:48:18</time>
      </trkpt>
      <trkpt lat="45.69732" lon="6.23179">
        <ele>1712.044</ele>
        <time>2020-09-15 09:48:19</time>
      </trkpt>
      <trkpt lat="45.69732" lon="6.23178">
        <ele>1712.1982</ele>
        <time>2020-09-15 09:48:20</time>
      </trkpt>
      <trkpt lat="45.69731" lon="6.23178">
        <ele>1713.4019</ele>
        <time>2020-09-15 09:48:24</time>
      </trkpt>
      <trkpt lat="45.6973" lon="6.23176">
        <ele>1714.8916</ele>
        <time>2020-09-15 09:48:27</time>
      </trkpt>
      <trkpt lat="45.69729" lon="6.23174">
        <ele>1714.1299</ele>
        <time>2020-09-15 09:48:31</time>
      </trkpt>
      <trkpt lat="45.69728" lon="6.23172">
        <ele>1714.863</ele>
        <time>2020-09-15 09:48:33</time>
      </trkpt>
      <trkpt lat="45.69728" lon="6.23172">
        <ele>1716.5771</ele>
        <time>2020-09-15 09:48:36</time>
      </trkpt>
      <trkpt lat="45.69727" lon="6.23171">
        <ele>1717.2339</ele>
        <time>2020-09-15 09:48:38</time>
      </trkpt>
      <trkpt lat="45.69727" lon="6.23172">
        <ele>1717.1396</ele>
        <time>2020-09-15 09:48:41</time>
      </trkpt>
      <trkpt lat="45.69727" lon="6.23172">
        <ele>1715.2974</ele>
        <time>2020-09-15 09:48:42</time>
      </trkpt>
      <trkpt lat="45.69727" lon="6.23171">
        <ele>1716.9751</ele>
        <time>2020-09-15 09:48:47</time>
      </trkpt>
      <trkpt lat="45.69727" lon="6.23169">
        <ele>1718.7583</ele>
        <time>2020-09-15 09:48:51</time>
      </trkpt>
      <trkpt lat="45.69727" lon="6.23168">
        <ele>1719.2668</ele>
        <time>2020-09-15 09:48:52</time>
      </trkpt>
      <trkpt lat="45.69727" lon="6.23166">
        <ele>1719.9287</ele>
        <time>2020-09-15 09:48:54</time>
      </trkpt>
      <trkpt lat="45.69727" lon="6.23164">
        <ele>1720.533</ele>
        <time>2020-09-15 09:48:57</time>
      </trkpt>
      <trkpt lat="45.69728" lon="6.23164">
        <ele>1721.1685</ele>
        <time>2020-09-15 09:48:59</time>
      </trkpt>
      <trkpt lat="45.69728" lon="6.23164">
        <ele>1721.4543</ele>
        <time>2020-09-15 09:49:01</time>
      </trkpt>
      <trkpt lat="45.69729" lon="6.23161">
        <ele>1719.9287</ele>
        <time>2020-09-15 09:49:03</time>
      </trkpt>
      <trkpt lat="45.69728" lon="6.23161">
        <ele>1722.0894</ele>
        <time>2020-09-15 09:49:07</time>
      </trkpt>
      <trkpt lat="45.6973" lon="6.23159">
        <ele>1719.2114</ele>
        <time>2020-09-15 09:49:10</time>
      </trkpt>
      <trkpt lat="45.69731" lon="6.23159">
        <ele>1720.1802</ele>
        <time>2020-09-15 09:49:12</time>
      </trkpt>
      <trkpt lat="45.6973" lon="6.23159">
        <ele>1719.8628</ele>
        <time>2020-09-15 09:49:14</time>
      </trkpt>
      <trkpt lat="45.6973" lon="6.23159">
        <ele>1720.4688</ele>
        <time>2020-09-15 09:49:16</time>
      </trkpt>
      <trkpt lat="45.6973" lon="6.23159">
        <ele>1720.5488</ele>
        <time>2020-09-15 09:49:17</time>
      </trkpt>
      <trkpt lat="45.69729" lon="6.23158">
        <ele>1719.6448</ele>
        <time>2020-09-15 09:49:19</time>
      </trkpt>
      <trkpt lat="45.69729" lon="6.23158">
        <ele>1720.2778</ele>
        <time>2020-09-15 09:49:20</time>
      </trkpt>
      <trkpt lat="45.69728" lon="6.23148">
        <ele>1724.815</ele>
        <time>2020-09-15 09:49:50</time>
      </trkpt>
      <trkpt lat="45.69726" lon="6.23146">
        <ele>1727.2676</ele>
        <time>2020-09-15 09:50:01</time>
      </trkpt>
      <trkpt lat="45.69727" lon="6.23145">
        <ele>1724.8853</ele>
        <time>2020-09-15 09:50:02</time>
      </trkpt>
      <trkpt lat="45.69729" lon="6.23143">
        <ele>1727.562</ele>
        <time>2020-09-15 09:50:27</time>
      </trkpt>
      <trkpt lat="45.69729" lon="6.23142">
        <ele>1727.865</ele>
        <time>2020-09-15 09:50:28</time>
      </trkpt>
      <trkpt lat="45.69729" lon="6.23143">
        <ele>1730.8872</ele>
        <time>2020-09-15 09:50:32</time>
      </trkpt>
      <trkpt lat="45.69729" lon="6.23143">
        <ele>1725.956</ele>
        <time>2020-09-15 09:50:33</time>
      </trkpt>
      <trkpt lat="45.69728" lon="6.23141">
        <ele>1730.8328</ele>
        <time>2020-09-15 09:50:44</time>
      </trkpt>
      <trkpt lat="45.69726" lon="6.2314">
        <ele>1732.002</ele>
        <time>2020-09-15 09:50:48</time>
      </trkpt>
      <trkpt lat="45.69726" lon="6.2314">
        <ele>1733.0376</ele>
        <time>2020-09-15 09:50:52</time>
      </trkpt>
      <trkpt lat="45.69725" lon="6.2314">
        <ele>1730.8328</ele>
        <time>2020-09-15 09:50:53</time>
      </trkpt>
      <trkpt lat="45.69725" lon="6.2314">
        <ele>1732.6279</ele>
        <time>2020-09-15 09:50:54</time>
      </trkpt>
      <trkpt lat="45.69724" lon="6.23139">
        <ele>1732.0562</ele>
        <time>2020-09-15 09:50:55</time>
      </trkpt>
      <trkpt lat="45.69721" lon="6.23135">
        <ele>1732.2407</ele>
        <time>2020-09-15 09:51:04</time>
      </trkpt>
      <trkpt lat="45.69721" lon="6.23135">
        <ele>1732.0149</ele>
        <time>2020-09-15 09:51:05</time>
      </trkpt>
      <trkpt lat="45.69721" lon="6.23134">
        <ele>1732.9929</ele>
        <time>2020-09-15 09:51:06</time>
      </trkpt>
      <trkpt lat="45.6972" lon="6.23134">
        <ele>1734.3804</ele>
        <time>2020-09-15 09:51:08</time>
      </trkpt>
      <trkpt lat="45.69721" lon="6.23134">
        <ele>1734.7402</ele>
        <time>2020-09-15 09:51:12</time>
      </trkpt>
      <trkpt lat="45.69719" lon="6.23135">
        <ele>1736.2524</ele>
        <time>2020-09-15 09:51:15</time>
      </trkpt>
      <trkpt lat="45.69718" lon="6.23135">
        <ele>1735.1255</ele>
        <time>2020-09-15 09:51:18</time>
      </trkpt>
      <trkpt lat="45.69716" lon="6.23133">
        <ele>1737.4556</ele>
        <time>2020-09-15 09:51:25</time>
      </trkpt>
      <trkpt lat="45.69715" lon="6.23133">
        <ele>1737.3652</ele>
        <time>2020-09-15 09:51:28</time>
      </trkpt>
      <trkpt lat="45.69714" lon="6.23133">
        <ele>1737.3994</ele>
        <time>2020-09-15 09:51:30</time>
      </trkpt>
      <trkpt lat="45.69714" lon="6.23132">
        <ele>1737.1221</ele>
        <time>2020-09-15 09:51:32</time>
      </trkpt>
      <trkpt lat="45.69713" lon="6.23132">
        <ele>1737.0005</ele>
        <time>2020-09-15 09:51:33</time>
      </trkpt>
      <trkpt lat="45.69711" lon="6.23132">
        <ele>1740.5288</ele>
        <time>2020-09-15 09:51:46</time>
      </trkpt>
      <trkpt lat="45.69711" lon="6.23131">
        <ele>1740.8042</ele>
        <time>2020-09-15 09:51:47</time>
      </trkpt>
      <trkpt lat="45.69709" lon="6.23129">
        <ele>1738.2188</ele>
        <time>2020-09-15 09:51:51</time>
      </trkpt>
      <trkpt lat="45.6971" lon="6.23128">
        <ele>1738.4575</ele>
        <time>2020-09-15 09:51:52</time>
      </trkpt>
      <trkpt lat="45.6971" lon="6.23127">
        <ele>1738.9165</ele>
        <time>2020-09-15 09:51:55</time>
      </trkpt>
      <trkpt lat="45.69709" lon="6.23126">
        <ele>1737.9119</ele>
        <time>2020-09-15 09:51:56</time>
      </trkpt>
      <trkpt lat="45.69709" lon="6.23125">
        <ele>1737.4893</ele>
        <time>2020-09-15 09:51:57</time>
      </trkpt>
      <trkpt lat="45.69709" lon="6.23124">
        <ele>1737.5706</ele>
        <time>2020-09-15 09:51:58</time>
      </trkpt>
      <trkpt lat="45.69709" lon="6.23122">
        <ele>1737.7402</ele>
        <time>2020-09-15 09:51:59</time>
      </trkpt>
      <trkpt lat="45.69709" lon="6.23121">
        <ele>1737.8652</ele>
        <time>2020-09-15 09:52:01</time>
      </trkpt>
      <trkpt lat="45.69708" lon="6.23121">
        <ele>1738.1865</ele>
        <time>2020-09-15 09:52:05</time>
      </trkpt>
      <trkpt lat="45.69709" lon="6.2312">
        <ele>1737.6755</ele>
        <time>2020-09-15 09:52:06</time>
      </trkpt>
      <trkpt lat="45.69708" lon="6.2312">
        <ele>1738.8804</ele>
        <time>2020-09-15 09:52:10</time>
      </trkpt>
      <trkpt lat="45.69707" lon="6.23119">
        <ele>1738.5181</ele>
        <time>2020-09-15 09:52:14</time>
      </trkpt>
      <trkpt lat="45.69707" lon="6.23118">
        <ele>1739.2466</ele>
        <time>2020-09-15 09:52:16</time>
      </trkpt>
      <trkpt lat="45.69708" lon="6.23117">
        <ele>1738.5181</ele>
        <time>2020-09-15 09:52:23</time>
      </trkpt>
      <trkpt lat="45.69708" lon="6.23116">
        <ele>1741.4785</ele>
        <time>2020-09-15 09:52:25</time>
      </trkpt>
      <trkpt lat="45.69708" lon="6.23114">
        <ele>1742.6516</ele>
        <time>2020-09-15 09:52:35</time>
      </trkpt>
      <trkpt lat="45.69708" lon="6.23114">
        <ele>1742.685</ele>
        <time>2020-09-15 09:52:36</time>
      </trkpt>
      <trkpt lat="45.69707" lon="6.23114">
        <ele>1744.31</ele>
        <time>2020-09-15 09:52:44</time>
      </trkpt>
      <trkpt lat="45.69712" lon="6.23115">
        <ele>1744.31</ele>
        <time>2020-09-15 09:52:53</time>
      </trkpt>
      <trkpt lat="45.69713" lon="6.23114">
        <ele>1745.8647</ele>
        <time>2020-09-15 09:53:03</time>
      </trkpt>
      <trkpt lat="45.69713" lon="6.23114">
        <ele>1746.0884</ele>
        <time>2020-09-15 09:53:04</time>
      </trkpt>
      <trkpt lat="45.69714" lon="6.23112">
        <ele>1746.0386</ele>
        <time>2020-09-15 09:53:07</time>
      </trkpt>
      <trkpt lat="45.69715" lon="6.23112">
        <ele>1746.772</ele>
        <time>2020-09-15 09:53:08</time>
      </trkpt>
      <trkpt lat="45.69716" lon="6.23107">
        <ele>1746.0884</ele>
        <time>2020-09-15 09:53:13</time>
      </trkpt>
      <trkpt lat="45.69716" lon="6.23107">
        <ele>1747.263</ele>
        <time>2020-09-15 09:53:14</time>
      </trkpt>
      <trkpt lat="45.69716" lon="6.23106">
        <ele>1749.0547</ele>
        <time>2020-09-15 09:53:17</time>
      </trkpt>
      <trkpt lat="45.69716" lon="6.23103">
        <ele>1747.1812</ele>
        <time>2020-09-15 09:53:26</time>
      </trkpt>
      <trkpt lat="45.69716" lon="6.23103">
        <ele>1747.6753</ele>
        <time>2020-09-15 09:53:27</time>
      </trkpt>
      <trkpt lat="45.69716" lon="6.23103">
        <ele>1747.5171</ele>
        <time>2020-09-15 09:53:28</time>
      </trkpt>
      <trkpt lat="45.69715" lon="6.23102">
        <ele>1746.7969</ele>
        <time>2020-09-15 09:53:30</time>
      </trkpt>
      <trkpt lat="45.69715" lon="6.23101">
        <ele>1746.7429</ele>
        <time>2020-09-15 09:53:32</time>
      </trkpt>
      <trkpt lat="45.69714" lon="6.231">
        <ele>1747.1045</ele>
        <time>2020-09-15 09:53:35</time>
      </trkpt>
      <trkpt lat="45.69714" lon="6.23099">
        <ele>1747.3794</ele>
        <time>2020-09-15 09:53:39</time>
      </trkpt>
      <trkpt lat="45.69713" lon="6.23098">
        <ele>1747.5493</ele>
        <time>2020-09-15 09:53:40</time>
      </trkpt>
      <trkpt lat="45.69713" lon="6.23096">
        <ele>1748.835</ele>
        <time>2020-09-15 09:53:49</time>
      </trkpt>
      <trkpt lat="45.69712" lon="6.23095">
        <ele>1748.4797</ele>
        <time>2020-09-15 09:53:50</time>
      </trkpt>
      <trkpt lat="45.69712" lon="6.23092">
        <ele>1748.1191</ele>
        <time>2020-09-15 09:53:54</time>
      </trkpt>
      <trkpt lat="45.69712" lon="6.23091">
        <ele>1746.2971</ele>
        <time>2020-09-15 09:53:55</time>
      </trkpt>
      <trkpt lat="45.69712" lon="6.2309">
        <ele>1746.4004</ele>
        <time>2020-09-15 09:53:57</time>
      </trkpt>
      <trkpt lat="45.69714" lon="6.23089">
        <ele>1746.0337</ele>
        <time>2020-09-15 09:53:59</time>
      </trkpt>
      <trkpt lat="45.69714" lon="6.23089">
        <ele>1746.2754</ele>
        <time>2020-09-15 09:54:01</time>
      </trkpt>
      <trkpt lat="45.69714" lon="6.23088">
        <ele>1745.9648</ele>
        <time>2020-09-15 09:54:02</time>
      </trkpt>
      <trkpt lat="45.69716" lon="6.23087">
        <ele>1744.4448</ele>
        <time>2020-09-15 09:54:07</time>
      </trkpt>
      <trkpt lat="45.6972" lon="6.23083">
        <ele>1743.792</ele>
        <time>2020-09-15 09:54:11</time>
      </trkpt>
      <trkpt lat="45.6972" lon="6.23082">
        <ele>1745.9696</ele>
        <time>2020-09-15 09:54:14</time>
      </trkpt>
      <trkpt lat="45.69724" lon="6.23081">
        <ele>1744.7029</ele>
        <time>2020-09-15 09:54:18</time>
      </trkpt>
      <trkpt lat="45.69724" lon="6.2308">
        <ele>1742.9717</ele>
        <time>2020-09-15 09:54:21</time>
      </trkpt>
      <trkpt lat="45.69724" lon="6.2308">
        <ele>1743.4578</ele>
        <time>2020-09-15 09:54:22</time>
      </trkpt>
      <trkpt lat="45.69725" lon="6.23077">
        <ele>1745.4639</ele>
        <time>2020-09-15 09:54:26</time>
      </trkpt>
      <trkpt lat="45.69725" lon="6.23076">
        <ele>1745.1553</ele>
        <time>2020-09-15 09:54:29</time>
      </trkpt>
      <trkpt lat="45.69724" lon="6.23076">
        <ele>1745.0376</ele>
        <time>2020-09-15 09:54:31</time>
      </trkpt>
      <trkpt lat="45.69723" lon="6.23075">
        <ele>1745.5659</ele>
        <time>2020-09-15 09:54:36</time>
      </trkpt>
      <trkpt lat="45.69723" lon="6.23074">
        <ele>1745.3613</ele>
        <time>2020-09-15 09:54:37</time>
      </trkpt>
      <trkpt lat="45.69724" lon="6.23071">
        <ele>1745.7979</ele>
        <time>2020-09-15 09:54:39</time>
      </trkpt>
      <trkpt lat="45.69725" lon="6.2307">
        <ele>1746.1841</ele>
        <time>2020-09-15 09:54:40</time>
      </trkpt>
      <trkpt lat="45.69725" lon="6.23069">
        <ele>1746.4736</ele>
        <time>2020-09-15 09:54:42</time>
      </trkpt>
      <trkpt lat="45.69726" lon="6.23069">
        <ele>1746.7656</ele>
        <time>2020-09-15 09:54:47</time>
      </trkpt>
      <trkpt lat="45.69726" lon="6.23069">
        <ele>1746.3381</ele>
        <time>2020-09-15 09:54:49</time>
      </trkpt>
      <trkpt lat="45.69725" lon="6.23069">
        <ele>1750.3667</ele>
        <time>2020-09-15 09:54:59</time>
      </trkpt>
      <trkpt lat="45.69725" lon="6.23069">
        <ele>1751.3096</ele>
        <time>2020-09-15 09:55:00</time>
      </trkpt>
      <trkpt lat="45.69724" lon="6.23069">
        <ele>1751.831</ele>
        <time>2020-09-15 09:55:01</time>
      </trkpt>
      <trkpt lat="45.69723" lon="6.23068">
        <ele>1748.852</ele>
        <time>2020-09-15 09:55:06</time>
      </trkpt>
      <trkpt lat="45.69725" lon="6.23065">
        <ele>1754.4585</ele>
        <time>2020-09-15 09:55:09</time>
      </trkpt>
      <trkpt lat="45.69727" lon="6.23063">
        <ele>1754.0093</ele>
        <time>2020-09-15 09:55:13</time>
      </trkpt>
      <trkpt lat="45.69728" lon="6.23063">
        <ele>1755.2456</ele>
        <time>2020-09-15 09:55:17</time>
      </trkpt>
      <trkpt lat="45.69728" lon="6.23063">
        <ele>1755.3191</ele>
        <time>2020-09-15 09:55:18</time>
      </trkpt>
      <trkpt lat="45.69729" lon="6.23063">
        <ele>1755.5676</ele>
        <time>2020-09-15 09:55:19</time>
      </trkpt>
      <trkpt lat="45.69729" lon="6.23064">
        <ele>1755.2397</ele>
        <time>2020-09-15 09:55:20</time>
      </trkpt>
      <trkpt lat="45.69727" lon="6.23065">
        <ele>1755.96</ele>
        <time>2020-09-15 09:55:29</time>
      </trkpt>
      <trkpt lat="45.69727" lon="6.23063">
        <ele>1754.8564</ele>
        <time>2020-09-15 09:55:33</time>
      </trkpt>
      <trkpt lat="45.69726" lon="6.23062">
        <ele>1754.939</ele>
        <time>2020-09-15 09:55:38</time>
      </trkpt>
      <trkpt lat="45.69726" lon="6.23062">
        <ele>1755.2412</ele>
        <time>2020-09-15 09:55:40</time>
      </trkpt>
      <trkpt lat="45.69726" lon="6.23061">
        <ele>1755.9092</ele>
        <time>2020-09-15 09:55:42</time>
      </trkpt>
      <trkpt lat="45.69726" lon="6.2306">
        <ele>1756.2837</ele>
        <time>2020-09-15 09:55:43</time>
      </trkpt>
      <trkpt lat="45.69726" lon="6.23062">
        <ele>1756.4844</ele>
        <time>2020-09-15 09:55:49</time>
      </trkpt>
      <trkpt lat="45.69719" lon="6.23063">
        <ele>1758.1489</ele>
        <time>2020-09-15 09:55:58</time>
      </trkpt>
      <trkpt lat="45.69718" lon="6.23063">
        <ele>1758.7898</ele>
        <time>2020-09-15 09:55:59</time>
      </trkpt>
      <trkpt lat="45.69717" lon="6.23063">
        <ele>1758.8442</ele>
        <time>2020-09-15 09:56:00</time>
      </trkpt>
      <trkpt lat="45.69716" lon="6.23063">
        <ele>1758.9058</ele>
        <time>2020-09-15 09:56:01</time>
      </trkpt>
      <trkpt lat="45.69715" lon="6.23063">
        <ele>1757.738</ele>
        <time>2020-09-15 09:56:02</time>
      </trkpt>
      <trkpt lat="45.69713" lon="6.23062">
        <ele>1758.2207</ele>
        <time>2020-09-15 09:56:04</time>
      </trkpt>
      <trkpt lat="45.69711" lon="6.23059">
        <ele>1759.1255</ele>
        <time>2020-09-15 09:56:10</time>
      </trkpt>
      <trkpt lat="45.69711" lon="6.23058">
        <ele>1759.6758</ele>
        <time>2020-09-15 09:56:11</time>
      </trkpt>
      <trkpt lat="45.69711" lon="6.23058">
        <ele>1760.3926</ele>
        <time>2020-09-15 09:56:12</time>
      </trkpt>
      <trkpt lat="45.69712" lon="6.23057">
        <ele>1759.3289</ele>
        <time>2020-09-15 09:56:13</time>
      </trkpt>
      <trkpt lat="45.69715" lon="6.23056">
        <ele>1761.7207</ele>
        <time>2020-09-15 09:56:22</time>
      </trkpt>
      <trkpt lat="45.69716" lon="6.23055">
        <ele>1762.1108</ele>
        <time>2020-09-15 09:56:23</time>
      </trkpt>
      <trkpt lat="45.69717" lon="6.23054">
        <ele>1759.6902</ele>
        <time>2020-09-15 09:56:27</time>
      </trkpt>
      <trkpt lat="45.69717" lon="6.23053">
        <ele>1760.9678</ele>
        <time>2020-09-15 09:56:28</time>
      </trkpt>
      <trkpt lat="45.69717" lon="6.23053">
        <ele>1761.6597</ele>
        <time>2020-09-15 09:56:31</time>
      </trkpt>
      <trkpt lat="45.69717" lon="6.23053">
        <ele>1762.0483</ele>
        <time>2020-09-15 09:56:32</time>
      </trkpt>
      <trkpt lat="45.69717" lon="6.23053">
        <ele>1762.1406</ele>
        <time>2020-09-15 09:56:37</time>
      </trkpt>
      <trkpt lat="45.69718" lon="6.23052">
        <ele>1762.7922</ele>
        <time>2020-09-15 09:56:38</time>
      </trkpt>
      <trkpt lat="45.69718" lon="6.23052">
        <ele>1760.0032</ele>
        <time>2020-09-15 09:56:39</time>
      </trkpt>
      <trkpt lat="45.69716" lon="6.23052">
        <ele>1765.562</ele>
        <time>2020-09-15 09:56:47</time>
      </trkpt>
      <trkpt lat="45.69716" lon="6.23051">
        <ele>1766.8582</ele>
        <time>2020-09-15 09:56:48</time>
      </trkpt>
      <trkpt lat="45.69717" lon="6.2305">
        <ele>1763.4585</ele>
        <time>2020-09-15 09:56:49</time>
      </trkpt>
      <trkpt lat="45.69717" lon="6.2305">
        <ele>1767.9009</ele>
        <time>2020-09-15 09:56:50</time>
      </trkpt>
      <trkpt lat="45.69717" lon="6.2305">
        <ele>1769.2341</ele>
        <time>2020-09-15 09:56:53</time>
      </trkpt>
      <trkpt lat="45.69718" lon="6.23049">
        <ele>1769.9104</ele>
        <time>2020-09-15 09:56:54</time>
      </trkpt>
      <trkpt lat="45.69718" lon="6.23048">
        <ele>1769.8193</ele>
        <time>2020-09-15 09:56:55</time>
      </trkpt>
      <trkpt lat="45.69718" lon="6.23049">
        <ele>1770.3655</ele>
        <time>2020-09-15 09:56:56</time>
      </trkpt>
      <trkpt lat="45.6972" lon="6.23049">
        <ele>1772.5283</ele>
        <time>2020-09-15 09:57:02</time>
      </trkpt>
      <trkpt lat="45.6972" lon="6.23048">
        <ele>1772.9614</ele>
        <time>2020-09-15 09:57:03</time>
      </trkpt>
      <trkpt lat="45.69721" lon="6.23046">
        <ele>1772.5073</ele>
        <time>2020-09-15 09:57:08</time>
      </trkpt>
      <trkpt lat="45.69721" lon="6.23045">
        <ele>1772.4373</ele>
        <time>2020-09-15 09:57:10</time>
      </trkpt>
      <trkpt lat="45.69722" lon="6.23044">
        <ele>1772.2317</ele>
        <time>2020-09-15 09:57:11</time>
      </trkpt>
      <trkpt lat="45.69722" lon="6.23044">
        <ele>1771.2822</ele>
        <time>2020-09-15 09:57:12</time>
      </trkpt>
      <trkpt lat="45.69722" lon="6.23043">
        <ele>1772.4373</ele>
        <time>2020-09-15 09:57:19</time>
      </trkpt>
      <trkpt lat="45.69722" lon="6.23042">
        <ele>1771.8398</ele>
        <time>2020-09-15 09:57:20</time>
      </trkpt>
      <trkpt lat="45.69719" lon="6.23039">
        <ele>1771.2515</ele>
        <time>2020-09-15 09:57:28</time>
      </trkpt>
      <trkpt lat="45.69719" lon="6.23039">
        <ele>1771.5928</ele>
        <time>2020-09-15 09:57:29</time>
      </trkpt>
      <trkpt lat="45.69718" lon="6.23039">
        <ele>1771.8398</ele>
        <time>2020-09-15 09:57:30</time>
      </trkpt>
      <trkpt lat="45.69718" lon="6.23039">
        <ele>1773.4141</ele>
        <time>2020-09-15 09:57:31</time>
      </trkpt>
      <trkpt lat="45.69718" lon="6.23038">
        <ele>1773.8904</ele>
        <time>2020-09-15 09:57:33</time>
      </trkpt>
      <trkpt lat="45.69718" lon="6.23037">
        <ele>1773.5139</ele>
        <time>2020-09-15 09:57:34</time>
      </trkpt>
      <trkpt lat="45.69719" lon="6.23037">
        <ele>1773.6799</ele>
        <time>2020-09-15 09:57:37</time>
      </trkpt>
      <trkpt lat="45.69719" lon="6.23037">
        <ele>1774.45</ele>
        <time>2020-09-15 09:57:38</time>
      </trkpt>
      <trkpt lat="45.69718" lon="6.23035">
        <ele>1774.4634</ele>
        <time>2020-09-15 09:57:46</time>
      </trkpt>
      <trkpt lat="45.69718" lon="6.23034">
        <ele>1773.9731</ele>
        <time>2020-09-15 09:57:47</time>
      </trkpt>
      <trkpt lat="45.69718" lon="6.23033">
        <ele>1774.7002</ele>
        <time>2020-09-15 09:57:52</time>
      </trkpt>
      <trkpt lat="45.69718" lon="6.23031">
        <ele>1772.2434</ele>
        <time>2020-09-15 09:57:54</time>
      </trkpt>
      <trkpt lat="45.69717" lon="6.23031">
        <ele>1773.8667</ele>
        <time>2020-09-15 09:57:58</time>
      </trkpt>
      <trkpt lat="45.69717" lon="6.23031">
        <ele>1774.0361</ele>
        <time>2020-09-15 09:57:59</time>
      </trkpt>
      <trkpt lat="45.69716" lon="6.23032">
        <ele>1774.707</ele>
        <time>2020-09-15 09:58:07</time>
      </trkpt>
      <trkpt lat="45.69716" lon="6.23032">
        <ele>1774.8806</ele>
        <time>2020-09-15 09:58:08</time>
      </trkpt>
      <trkpt lat="45.69716" lon="6.23031">
        <ele>1776.7563</ele>
        <time>2020-09-15 09:58:11</time>
      </trkpt>
      <trkpt lat="45.69717" lon="6.2303">
        <ele>1779.4187</ele>
        <time>2020-09-15 09:58:14</time>
      </trkpt>
      <trkpt lat="45.69717" lon="6.2303">
        <ele>1779.6575</ele>
        <time>2020-09-15 09:58:15</time>
      </trkpt>
      <trkpt lat="45.69717" lon="6.23028">
        <ele>1777.3811</ele>
        <time>2020-09-15 09:58:17</time>
      </trkpt>
      <trkpt lat="45.69717" lon="6.23028">
        <ele>1778.2129</ele>
        <time>2020-09-15 09:58:18</time>
      </trkpt>
      <trkpt lat="45.69716" lon="6.23028">
        <ele>1779.3396</ele>
        <time>2020-09-15 09:58:19</time>
      </trkpt>
      <trkpt lat="45.69717" lon="6.23027">
        <ele>1778.6245</ele>
        <time>2020-09-15 09:58:23</time>
      </trkpt>
      <trkpt lat="45.69716" lon="6.23024">
        <ele>1779.9204</ele>
        <time>2020-09-15 09:58:27</time>
      </trkpt>
      <trkpt lat="45.69716" lon="6.23024">
        <ele>1777.6143</ele>
        <time>2020-09-15 09:58:30</time>
      </trkpt>
      <trkpt lat="45.69714" lon="6.23024">
        <ele>1782.5923</ele>
        <time>2020-09-15 09:58:32</time>
      </trkpt>
      <trkpt lat="45.69715" lon="6.23025">
        <ele>1781.8105</ele>
        <time>2020-09-15 09:58:38</time>
      </trkpt>
      <trkpt lat="45.69715" lon="6.23025">
        <ele>1782.0889</ele>
        <time>2020-09-15 09:58:39</time>
      </trkpt>
      <trkpt lat="45.69715" lon="6.23024">
        <ele>1784.4617</ele>
        <time>2020-09-15 09:58:43</time>
      </trkpt>
      <trkpt lat="45.69714" lon="6.23024">
        <ele>1784.9458</ele>
        <time>2020-09-15 09:58:44</time>
      </trkpt>
      <trkpt lat="45.69715" lon="6.23024">
        <ele>1785.8955</ele>
        <time>2020-09-15 09:58:45</time>
      </trkpt>
      <trkpt lat="45.69715" lon="6.23025">
        <ele>1785.1992</ele>
        <time>2020-09-15 09:58:46</time>
      </trkpt>
      <trkpt lat="45.69715" lon="6.23023">
        <ele>1785.8848</ele>
        <time>2020-09-15 09:58:51</time>
      </trkpt>
      <trkpt lat="45.69715" lon="6.23022">
        <ele>1786.4844</ele>
        <time>2020-09-15 09:58:53</time>
      </trkpt>
      <trkpt lat="45.69715" lon="6.23021">
        <ele>1787.0337</ele>
        <time>2020-09-15 09:58:55</time>
      </trkpt>
      <trkpt lat="45.69715" lon="6.2302">
        <ele>1787.605</ele>
        <time>2020-09-15 09:58:56</time>
      </trkpt>
      <trkpt lat="45.69713" lon="6.23019">
        <ele>1789.3325</ele>
        <time>2020-09-15 09:59:02</time>
      </trkpt>
      <trkpt lat="45.69714" lon="6.23019">
        <ele>1788.3384</ele>
        <time>2020-09-15 09:59:07</time>
      </trkpt>
      <trkpt lat="45.69714" lon="6.23019">
        <ele>1788.7014</ele>
        <time>2020-09-15 09:59:08</time>
      </trkpt>
      <trkpt lat="45.69713" lon="6.23018">
        <ele>1789.1877</ele>
        <time>2020-09-15 09:59:18</time>
      </trkpt>
      <trkpt lat="45.69714" lon="6.23018">
        <ele>1789.2766</ele>
        <time>2020-09-15 09:59:19</time>
      </trkpt>
      <trkpt lat="45.69713" lon="6.23018">
        <ele>1789.5881</ele>
        <time>2020-09-15 09:59:21</time>
      </trkpt>
      <trkpt lat="45.69713" lon="6.23019">
        <ele>1787.7368</ele>
        <time>2020-09-15 09:59:22</time>
      </trkpt>
      <trkpt lat="45.69713" lon="6.2302">
        <ele>1790.0383</ele>
        <time>2020-09-15 09:59:25</time>
      </trkpt>
      <trkpt lat="45.69713" lon="6.23021">
        <ele>1790.249</ele>
        <time>2020-09-15 09:59:26</time>
      </trkpt>
      <trkpt lat="45.69713" lon="6.23021">
        <ele>1791.3257</ele>
        <time>2020-09-15 09:59:30</time>
      </trkpt>
      <trkpt lat="45.69712" lon="6.2302">
        <ele>1788.895</ele>
        <time>2020-09-15 09:59:32</time>
      </trkpt>
      <trkpt lat="45.69712" lon="6.2302">
        <ele>1789.2598</ele>
        <time>2020-09-15 09:59:42</time>
      </trkpt>
      <trkpt lat="45.69712" lon="6.2302">
        <ele>1791.7285</ele>
        <time>2020-09-15 09:59:43</time>
      </trkpt>
      <trkpt lat="45.69711" lon="6.2302">
        <ele>1792.3379</ele>
        <time>2020-09-15 09:59:45</time>
      </trkpt>
      <trkpt lat="45.69711" lon="6.23019">
        <ele>1792.8396</ele>
        <time>2020-09-15 09:59:46</time>
      </trkpt>
      <trkpt lat="45.6971" lon="6.23019">
        <ele>1793.7102</ele>
        <time>2020-09-15 09:59:47</time>
      </trkpt>
      <trkpt lat="45.69711" lon="6.23019">
        <ele>1792.7651</ele>
        <time>2020-09-15 09:59:48</time>
      </trkpt>
      <trkpt lat="45.6971" lon="6.23018">
        <ele>1792.5354</ele>
        <time>2020-09-15 09:59:49</time>
      </trkpt>
      <trkpt lat="45.6971" lon="6.23017">
        <ele>1791.8491</ele>
        <time>2020-09-15 09:59:50</time>
      </trkpt>
      <trkpt lat="45.69709" lon="6.23016">
        <ele>1791.7285</ele>
        <time>2020-09-15 09:59:52</time>
      </trkpt>
      <trkpt lat="45.69709" lon="6.23016">
        <ele>1793.356</ele>
        <time>2020-09-15 09:59:53</time>
      </trkpt>
      <trkpt lat="45.69709" lon="6.23016">
        <ele>1794.2773</ele>
        <time>2020-09-15 09:59:54</time>
      </trkpt>
      <trkpt lat="45.69708" lon="6.23015">
        <ele>1793.3623</ele>
        <time>2020-09-15 09:59:55</time>
      </trkpt>
      <trkpt lat="45.69708" lon="6.23015">
        <ele>1793.2671</ele>
        <time>2020-09-15 09:59:56</time>
      </trkpt>
      <trkpt lat="45.69708" lon="6.23014">
        <ele>1794.6643</ele>
        <time>2020-09-15 09:59:57</time>
      </trkpt>
      <trkpt lat="45.69708" lon="6.23014">
        <ele>1795.7266</ele>
        <time>2020-09-15 09:59:59</time>
      </trkpt>
      <trkpt lat="45.69708" lon="6.23012">
        <ele>1796.5371</ele>
        <time>2020-09-15 10:00:06</time>
      </trkpt>
      <trkpt lat="45.69708" lon="6.23011">
        <ele>1796.3467</ele>
        <time>2020-09-15 10:00:07</time>
      </trkpt>
      <trkpt lat="45.69708" lon="6.2301">
        <ele>1797.4282</ele>
        <time>2020-09-15 10:00:09</time>
      </trkpt>
      <trkpt lat="45.69708" lon="6.2301">
        <ele>1797.3711</ele>
        <time>2020-09-15 10:00:10</time>
      </trkpt>
      <trkpt lat="45.69707" lon="6.23009">
        <ele>1795.3057</ele>
        <time>2020-09-15 10:00:12</time>
      </trkpt>
      <trkpt lat="45.69707" lon="6.23009">
        <ele>1795.3604</ele>
        <time>2020-09-15 10:00:14</time>
      </trkpt>
      <trkpt lat="45.69707" lon="6.23007">
        <ele>1793.718</ele>
        <time>2020-09-15 10:00:16</time>
      </trkpt>
      <trkpt lat="45.69709" lon="6.23004">
        <ele>1792.7922</ele>
        <time>2020-09-15 10:00:18</time>
      </trkpt>
      <trkpt lat="45.6971" lon="6.23004">
        <ele>1793.8818</ele>
        <time>2020-09-15 10:00:20</time>
      </trkpt>
      <trkpt lat="45.6971" lon="6.23003">
        <ele>1795.4707</ele>
        <time>2020-09-15 10:00:22</time>
      </trkpt>
      <trkpt lat="45.6971" lon="6.23003">
        <ele>1794.4536</ele>
        <time>2020-09-15 10:00:23</time>
      </trkpt>
      <trkpt lat="45.6971" lon="6.23003">
        <ele>1796.4365</ele>
        <time>2020-09-15 10:00:25</time>
      </trkpt>
      <trkpt lat="45.6971" lon="6.23003">
        <ele>1794.4673</ele>
        <time>2020-09-15 10:00:29</time>
      </trkpt>
      <trkpt lat="45.6971" lon="6.23003">
        <ele>1794.6416</ele>
        <time>2020-09-15 10:00:30</time>
      </trkpt>
      <trkpt lat="45.69709" lon="6.23002">
        <ele>1796.314</ele>
        <time>2020-09-15 10:00:39</time>
      </trkpt>
      <trkpt lat="45.69709" lon="6.23002">
        <ele>1796.5015</ele>
        <time>2020-09-15 10:00:40</time>
      </trkpt>
      <trkpt lat="45.69708" lon="6.23002">
        <ele>1796.2053</ele>
        <time>2020-09-15 10:00:47</time>
      </trkpt>
      <trkpt lat="45.69707" lon="6.23004">
        <ele>1795.9873</ele>
        <time>2020-09-15 10:00:52</time>
      </trkpt>
      <trkpt lat="45.69707" lon="6.23005">
        <ele>1802.146</ele>
        <time>2020-09-15 10:00:54</time>
      </trkpt>
      <trkpt lat="45.69707" lon="6.23007">
        <ele>1802.7617</ele>
        <time>2020-09-15 10:00:55</time>
      </trkpt>
      <trkpt lat="45.69707" lon="6.23007">
        <ele>1803.3711</ele>
        <time>2020-09-15 10:00:56</time>
      </trkpt>
      <trkpt lat="45.69706" lon="6.23008">
        <ele>1804.1033</ele>
        <time>2020-09-15 10:00:58</time>
      </trkpt>
      <trkpt lat="45.69706" lon="6.23008">
        <ele>1804.0574</ele>
        <time>2020-09-15 10:01:01</time>
      </trkpt>
      <trkpt lat="45.69705" lon="6.23008">
        <ele>1805.1414</ele>
        <time>2020-09-15 10:01:03</time>
      </trkpt>
      <trkpt lat="45.69705" lon="6.23007">
        <ele>1805.4277</ele>
        <time>2020-09-15 10:01:04</time>
      </trkpt>
      <trkpt lat="45.69704" lon="6.23007">
        <ele>1805.2456</ele>
        <time>2020-09-15 10:01:05</time>
      </trkpt>
      <trkpt lat="45.69703" lon="6.23005">
        <ele>1802.1863</ele>
        <time>2020-09-15 10:01:07</time>
      </trkpt>
      <trkpt lat="45.69703" lon="6.23001">
        <ele>1805.1414</ele>
        <time>2020-09-15 10:01:12</time>
      </trkpt>
      <trkpt lat="45.69704" lon="6.23">
        <ele>1799.7471</ele>
        <time>2020-09-15 10:01:13</time>
      </trkpt>
      <trkpt lat="45.69704" lon="6.22999">
        <ele>1799.4199</ele>
        <time>2020-09-15 10:01:14</time>
      </trkpt>
      <trkpt lat="45.69703" lon="6.22998">
        <ele>1798.3691</ele>
        <time>2020-09-15 10:01:15</time>
      </trkpt>
      <trkpt lat="45.69702" lon="6.22997">
        <ele>1798.532</ele>
        <time>2020-09-15 10:01:18</time>
      </trkpt>
      <trkpt lat="45.69703" lon="6.22997">
        <ele>1798.4922</ele>
        <time>2020-09-15 10:01:19</time>
      </trkpt>
      <trkpt lat="45.69702" lon="6.22997">
        <ele>1799.5063</ele>
        <time>2020-09-15 10:01:21</time>
      </trkpt>
      <trkpt lat="45.697" lon="6.22998">
        <ele>1803.8721</ele>
        <time>2020-09-15 10:01:27</time>
      </trkpt>
      <trkpt lat="45.697" lon="6.22998">
        <ele>1804.9048</ele>
        <time>2020-09-15 10:01:36</time>
      </trkpt>
      <trkpt lat="45.69699" lon="6.22999">
        <ele>1806.8452</ele>
        <time>2020-09-15 10:01:38</time>
      </trkpt>
      <trkpt lat="45.69699" lon="6.22999">
        <ele>1806.7778</ele>
        <time>2020-09-15 10:01:40</time>
      </trkpt>
      <trkpt lat="45.69699" lon="6.22999">
        <ele>1806.1924</ele>
        <time>2020-09-15 10:01:41</time>
      </trkpt>
      <trkpt lat="45.69698" lon="6.22998">
        <ele>1806.4741</ele>
        <time>2020-09-15 10:02:28</time>
      </trkpt>
      <trkpt lat="45.69698" lon="6.22998">
        <ele>1806.7249</ele>
        <time>2020-09-15 10:02:59</time>
      </trkpt>
      <trkpt lat="45.69698" lon="6.22998">
        <ele>1806.7217</ele>
        <time>2020-09-15 10:03:35</time>
      </trkpt>
      <trkpt lat="45.69698" lon="6.22998">
        <ele>1806.7117</ele>
        <time>2020-09-15 10:04:13</time>
      </trkpt>
      <trkpt lat="45.69698" lon="6.22998">
        <ele>1806.7876</ele>
        <time>2020-09-15 10:05:24</time>
      </trkpt>
      <trkpt lat="45.69698" lon="6.22997">
        <ele>1806.7764</ele>
        <time>2020-09-15 10:06:09</time>
      </trkpt>
      <trkpt lat="45.69698" lon="6.22997">
        <ele>1806.8127</ele>
        <time>2020-09-15 10:06:39</time>
      </trkpt>
      <trkpt lat="45.69698" lon="6.22997">
        <ele>1806.7952</ele>
        <time>2020-09-15 10:07:09</time>
      </trkpt>
      <trkpt lat="45.69698" lon="6.22997">
        <ele>1806.6206</ele>
        <time>2020-09-15 10:07:35</time>
      </trkpt>
      <trkpt lat="45.69697" lon="6.22997">
        <ele>1807.2573</ele>
        <time>2020-09-15 10:07:36</time>
      </trkpt>
      <trkpt lat="45.69696" lon="6.22999">
        <ele>1808.4722</ele>
        <time>2020-09-15 10:07:43</time>
      </trkpt>
      <trkpt lat="45.69696" lon="6.22999">
        <ele>1807.2573</ele>
        <time>2020-09-15 10:07:45</time>
      </trkpt>
      <trkpt lat="45.69695" lon="6.22999">
        <ele>1807.5127</ele>
        <time>2020-09-15 10:07:46</time>
      </trkpt>
      <trkpt lat="45.69695" lon="6.23">
        <ele>1808.1414</ele>
        <time>2020-09-15 10:07:47</time>
      </trkpt>
      <trkpt lat="45.69695" lon="6.23">
        <ele>1808.679</ele>
        <time>2020-09-15 10:07:48</time>
      </trkpt>
      <trkpt lat="45.69694" lon="6.23">
        <ele>1808.9431</ele>
        <time>2020-09-15 10:07:50</time>
      </trkpt>
      <trkpt lat="45.69693" lon="6.23">
        <ele>1807.3135</ele>
        <time>2020-09-15 10:07:51</time>
      </trkpt>
      <trkpt lat="45.69691" lon="6.23">
        <ele>1805.7766</ele>
        <time>2020-09-15 10:07:53</time>
      </trkpt>
      <trkpt lat="45.6969" lon="6.23">
        <ele>1807.5127</ele>
        <time>2020-09-15 10:07:55</time>
      </trkpt>
      <trkpt lat="45.6969" lon="6.23">
        <ele>1804.0664</ele>
        <time>2020-09-15 10:07:56</time>
      </trkpt>
      <trkpt lat="45.69689" lon="6.22999">
        <ele>1803.9165</ele>
        <time>2020-09-15 10:07:58</time>
      </trkpt>
      <trkpt lat="45.69689" lon="6.22998">
        <ele>1803.7639</ele>
        <time>2020-09-15 10:08:02</time>
      </trkpt>
      <trkpt lat="45.69688" lon="6.22998">
        <ele>1806.9849</ele>
        <time>2020-09-15 10:08:04</time>
      </trkpt>
      <trkpt lat="45.69688" lon="6.22998">
        <ele>1804.0664</ele>
        <time>2020-09-15 10:08:05</time>
      </trkpt>
      <trkpt lat="45.69685" lon="6.22998">
        <ele>1805.2673</ele>
        <time>2020-09-15 10:08:10</time>
      </trkpt>
      <trkpt lat="45.69684" lon="6.22998">
        <ele>1805.6118</ele>
        <time>2020-09-15 10:08:11</time>
      </trkpt>
      <trkpt lat="45.69683" lon="6.22999">
        <ele>1804.2068</ele>
        <time>2020-09-15 10:08:17</time>
      </trkpt>
      <trkpt lat="45.69682" lon="6.22999">
        <ele>1803.1145</ele>
        <time>2020-09-15 10:08:18</time>
      </trkpt>
      <trkpt lat="45.69682" lon="6.22999">
        <ele>1804.686</ele>
        <time>2020-09-15 10:08:19</time>
      </trkpt>
      <trkpt lat="45.6968" lon="6.22998">
        <ele>1804.1333</ele>
        <time>2020-09-15 10:08:20</time>
      </trkpt>
      <trkpt lat="45.69679" lon="6.22998">
        <ele>1805.2178</ele>
        <time>2020-09-15 10:08:22</time>
      </trkpt>
      <trkpt lat="45.69675" lon="6.22998">
        <ele>1800.7461</ele>
        <time>2020-09-15 10:08:26</time>
      </trkpt>
      <trkpt lat="45.69674" lon="6.22998">
        <ele>1800.8088</ele>
        <time>2020-09-15 10:08:27</time>
      </trkpt>
      <trkpt lat="45.69674" lon="6.22998">
        <ele>1800.6094</ele>
        <time>2020-09-15 10:08:28</time>
      </trkpt>
      <trkpt lat="45.69671" lon="6.22999">
        <ele>1798.8599</ele>
        <time>2020-09-15 10:08:31</time>
      </trkpt>
      <trkpt lat="45.6967" lon="6.23">
        <ele>1801.999</ele>
        <time>2020-09-15 10:08:34</time>
      </trkpt>
      <trkpt lat="45.6967" lon="6.23">
        <ele>1800.7461</ele>
        <time>2020-09-15 10:08:35</time>
      </trkpt>
      <trkpt lat="45.69669" lon="6.23001">
        <ele>1802.4509</ele>
        <time>2020-09-15 10:08:37</time>
      </trkpt>
      <trkpt lat="45.69667" lon="6.23001">
        <ele>1802.5259</ele>
        <time>2020-09-15 10:08:41</time>
      </trkpt>
      <trkpt lat="45.69667" lon="6.23001">
        <ele>1802.6982</ele>
        <time>2020-09-15 10:08:42</time>
      </trkpt>
      <trkpt lat="45.69667" lon="6.23">
        <ele>1801.5278</ele>
        <time>2020-09-15 10:08:43</time>
      </trkpt>
      <trkpt lat="45.69666" lon="6.23">
        <ele>1801.3296</ele>
        <time>2020-09-15 10:08:45</time>
      </trkpt>
      <trkpt lat="45.69662" lon="6.23001">
        <ele>1799.2173</ele>
        <time>2020-09-15 10:08:50</time>
      </trkpt>
      <trkpt lat="45.69662" lon="6.23001">
        <ele>1799.7842</ele>
        <time>2020-09-15 10:08:53</time>
      </trkpt>
      <trkpt lat="45.6966" lon="6.23002">
        <ele>1800.2307</ele>
        <time>2020-09-15 10:08:56</time>
      </trkpt>
      <trkpt lat="45.69659" lon="6.23002">
        <ele>1800.7585</ele>
        <time>2020-09-15 10:08:58</time>
      </trkpt>
      <trkpt lat="45.69654" lon="6.23001">
        <ele>1795.2466</ele>
        <time>2020-09-15 10:09:04</time>
      </trkpt>
      <trkpt lat="45.69651" lon="6.23">
        <ele>1792.9656</ele>
        <time>2020-09-15 10:09:06</time>
      </trkpt>
      <trkpt lat="45.69649" lon="6.23">
        <ele>1794.7151</ele>
        <time>2020-09-15 10:09:08</time>
      </trkpt>
      <trkpt lat="45.69648" lon="6.23">
        <ele>1796.502</ele>
        <time>2020-09-15 10:09:09</time>
      </trkpt>
      <trkpt lat="45.69647" lon="6.23">
        <ele>1797.2046</ele>
        <time>2020-09-15 10:09:10</time>
      </trkpt>
      <trkpt lat="45.69647" lon="6.23001">
        <ele>1797.6519</ele>
        <time>2020-09-15 10:09:12</time>
      </trkpt>
      <trkpt lat="45.69645" lon="6.23002">
        <ele>1792.9656</ele>
        <time>2020-09-15 10:09:16</time>
      </trkpt>
      <trkpt lat="45.69645" lon="6.23002">
        <ele>1801.3335</ele>
        <time>2020-09-15 10:09:17</time>
      </trkpt>
      <trkpt lat="45.69645" lon="6.23003">
        <ele>1800.9507</ele>
        <time>2020-09-15 10:09:18</time>
      </trkpt>
      <trkpt lat="45.69645" lon="6.23003">
        <ele>1803.1426</ele>
        <time>2020-09-15 10:09:24</time>
      </trkpt>
      <trkpt lat="45.69644" lon="6.23003">
        <ele>1804.8486</ele>
        <time>2020-09-15 10:09:27</time>
      </trkpt>
      <trkpt lat="45.69644" lon="6.23004">
        <ele>1805.6628</ele>
        <time>2020-09-15 10:09:29</time>
      </trkpt>
      <trkpt lat="45.69644" lon="6.23004">
        <ele>1805.794</ele>
        <time>2020-09-15 10:09:30</time>
      </trkpt>
      <trkpt lat="45.69645" lon="6.23004">
        <ele>1807.2451</ele>
        <time>2020-09-15 10:09:31</time>
      </trkpt>
      <trkpt lat="45.69645" lon="6.23005">
        <ele>1808.4707</ele>
        <time>2020-09-15 10:09:32</time>
      </trkpt>
      <trkpt lat="45.69644" lon="6.23005">
        <ele>1809.3857</ele>
        <time>2020-09-15 10:09:33</time>
      </trkpt>
      <trkpt lat="45.69644" lon="6.23005">
        <ele>1809.9526</ele>
        <time>2020-09-15 10:09:35</time>
      </trkpt>
      <trkpt lat="45.69643" lon="6.23005">
        <ele>1804.8486</ele>
        <time>2020-09-15 10:09:36</time>
      </trkpt>
      <trkpt lat="45.69642" lon="6.23006">
        <ele>1811.2861</ele>
        <time>2020-09-15 10:09:38</time>
      </trkpt>
      <trkpt lat="45.69642" lon="6.23007">
        <ele>1812.28</ele>
        <time>2020-09-15 10:09:46</time>
      </trkpt>
      <trkpt lat="45.69641" lon="6.23006">
        <ele>1812.8096</ele>
        <time>2020-09-15 10:09:48</time>
      </trkpt>
      <trkpt lat="45.6964" lon="6.23005">
        <ele>1813.793</ele>
        <time>2020-09-15 10:09:49</time>
      </trkpt>
      <trkpt lat="45.6964" lon="6.23005">
        <ele>1814.44</ele>
        <time>2020-09-15 10:09:50</time>
      </trkpt>
      <trkpt lat="45.69639" lon="6.23005">
        <ele>1814.3928</ele>
        <time>2020-09-15 10:09:54</time>
      </trkpt>
      <trkpt lat="45.69639" lon="6.23003">
        <ele>1813.2422</ele>
        <time>2020-09-15 10:09:56</time>
      </trkpt>
      <trkpt lat="45.69638" lon="6.23003">
        <ele>1812.8096</ele>
        <time>2020-09-15 10:09:57</time>
      </trkpt>
      <trkpt lat="45.69638" lon="6.23003">
        <ele>1814.554</ele>
        <time>2020-09-15 10:09:58</time>
      </trkpt>
      <trkpt lat="45.69637" lon="6.23003">
        <ele>1815.1382</ele>
        <time>2020-09-15 10:10:01</time>
      </trkpt>
      <trkpt lat="45.69638" lon="6.23004">
        <ele>1815.5674</ele>
        <time>2020-09-15 10:10:02</time>
      </trkpt>
      <trkpt lat="45.69637" lon="6.23004">
        <ele>1814.5913</ele>
        <time>2020-09-15 10:10:03</time>
      </trkpt>
      <trkpt lat="45.69637" lon="6.23004">
        <ele>1814.9932</ele>
        <time>2020-09-15 10:10:04</time>
      </trkpt>
      <trkpt lat="45.69635" lon="6.23004">
        <ele>1814.7466</ele>
        <time>2020-09-15 10:10:08</time>
      </trkpt>
      <trkpt lat="45.69635" lon="6.23004">
        <ele>1814.6987</ele>
        <time>2020-09-15 10:10:09</time>
      </trkpt>
      <trkpt lat="45.69634" lon="6.23005">
        <ele>1814.459</ele>
        <time>2020-09-15 10:10:12</time>
      </trkpt>
      <trkpt lat="45.69633" lon="6.23005">
        <ele>1815.5415</ele>
        <time>2020-09-15 10:10:14</time>
      </trkpt>
      <trkpt lat="45.69632" lon="6.23005">
        <ele>1815.6738</ele>
        <time>2020-09-15 10:10:16</time>
      </trkpt>
      <trkpt lat="45.69631" lon="6.23006">
        <ele>1814.7466</ele>
        <time>2020-09-15 10:10:17</time>
      </trkpt>
      <trkpt lat="45.6963" lon="6.23005">
        <ele>1816.0918</ele>
        <time>2020-09-15 10:10:35</time>
      </trkpt>
      <trkpt lat="45.69628" lon="6.23006">
        <ele>1817.315</ele>
        <time>2020-09-15 10:10:38</time>
      </trkpt>
      <trkpt lat="45.69627" lon="6.23006">
        <ele>1817.4438</ele>
        <time>2020-09-15 10:10:39</time>
      </trkpt>
      <trkpt lat="45.69627" lon="6.23006">
        <ele>1818.2329</ele>
        <time>2020-09-15 10:10:40</time>
      </trkpt>
      <trkpt lat="45.69626" lon="6.23006">
        <ele>1816.6538</ele>
        <time>2020-09-15 10:10:41</time>
      </trkpt>
      <trkpt lat="45.69625" lon="6.23006">
        <ele>1817.478</ele>
        <time>2020-09-15 10:10:42</time>
      </trkpt>
      <trkpt lat="45.69624" lon="6.23006">
        <ele>1815.7905</ele>
        <time>2020-09-15 10:10:43</time>
      </trkpt>
      <trkpt lat="45.69623" lon="6.23006">
        <ele>1816.5825</ele>
        <time>2020-09-15 10:10:44</time>
      </trkpt>
      <trkpt lat="45.69623" lon="6.23007">
        <ele>1817.5696</ele>
        <time>2020-09-15 10:10:45</time>
      </trkpt>
      <trkpt lat="45.69623" lon="6.23007">
        <ele>1818.6455</ele>
        <time>2020-09-15 10:10:46</time>
      </trkpt>
      <trkpt lat="45.69622" lon="6.23009">
        <ele>1817.4438</ele>
        <time>2020-09-15 10:10:48</time>
      </trkpt>
      <trkpt lat="45.69622" lon="6.23009">
        <ele>1820.971</ele>
        <time>2020-09-15 10:10:49</time>
      </trkpt>
      <trkpt lat="45.69622" lon="6.2301">
        <ele>1821.5161</ele>
        <time>2020-09-15 10:10:50</time>
      </trkpt>
      <trkpt lat="45.69621" lon="6.23009">
        <ele>1820.7251</ele>
        <time>2020-09-15 10:10:56</time>
      </trkpt>
      <trkpt lat="45.6962" lon="6.23008">
        <ele>1819.355</ele>
        <time>2020-09-15 10:10:57</time>
      </trkpt>
      <trkpt lat="45.69619" lon="6.23009">
        <ele>1820.971</ele>
        <time>2020-09-15 10:10:58</time>
      </trkpt>
      <trkpt lat="45.69616" lon="6.23009">
        <ele>1815.6548</ele>
        <time>2020-09-15 10:11:01</time>
      </trkpt>
      <trkpt lat="45.69615" lon="6.23008">
        <ele>1817.1357</ele>
        <time>2020-09-15 10:11:08</time>
      </trkpt>
      <trkpt lat="45.69615" lon="6.23008">
        <ele>1817.7749</ele>
        <time>2020-09-15 10:11:09</time>
      </trkpt>
      <trkpt lat="45.69614" lon="6.23008">
        <ele>1818.9268</ele>
        <time>2020-09-15 10:11:17</time>
      </trkpt>
      <trkpt lat="45.69614" lon="6.23008">
        <ele>1819.3845</ele>
        <time>2020-09-15 10:11:18</time>
      </trkpt>
      <trkpt lat="45.69612" lon="6.23006">
        <ele>1818.8967</ele>
        <time>2020-09-15 10:11:22</time>
      </trkpt>
      <trkpt lat="45.69611" lon="6.23006">
        <ele>1818.6387</ele>
        <time>2020-09-15 10:11:23</time>
      </trkpt>
      <trkpt lat="45.6961" lon="6.23005">
        <ele>1819.331</ele>
        <time>2020-09-15 10:11:26</time>
      </trkpt>
      <trkpt lat="45.69609" lon="6.23005">
        <ele>1819.6584</ele>
        <time>2020-09-15 10:11:27</time>
      </trkpt>
      <trkpt lat="45.69607" lon="6.23005">
        <ele>1823.1125</ele>
        <time>2020-09-15 10:11:42</time>
      </trkpt>
      <trkpt lat="45.69606" lon="6.23006">
        <ele>1823.2505</ele>
        <time>2020-09-15 10:11:43</time>
      </trkpt>
      <trkpt lat="45.69606" lon="6.23005">
        <ele>1824.4895</ele>
        <time>2020-09-15 10:11:46</time>
      </trkpt>
      <trkpt lat="45.69605" lon="6.23005">
        <ele>1821.9102</ele>
        <time>2020-09-15 10:11:47</time>
      </trkpt>
      <trkpt lat="45.69604" lon="6.23005">
        <ele>1823.5955</ele>
        <time>2020-09-15 10:11:50</time>
      </trkpt>
      <trkpt lat="45.69603" lon="6.23005">
        <ele>1823.1125</ele>
        <time>2020-09-15 10:11:51</time>
      </trkpt>
      <trkpt lat="45.69602" lon="6.23005">
        <ele>1821.5742</ele>
        <time>2020-09-15 10:11:52</time>
      </trkpt>
      <trkpt lat="45.696" lon="6.23005">
        <ele>1820.9836</ele>
        <time>2020-09-15 10:11:53</time>
      </trkpt>
      <trkpt lat="45.69599" lon="6.23005">
        <ele>1820.1301</ele>
        <time>2020-09-15 10:11:54</time>
      </trkpt>
      <trkpt lat="45.69588" lon="6.2301">
        <ele>1825.0093</ele>
        <time>2020-09-15 10:12:06</time>
      </trkpt>
      <trkpt lat="45.69587" lon="6.23012">
        <ele>1825.6743</ele>
        <time>2020-09-15 10:12:09</time>
      </trkpt>
      <trkpt lat="45.69585" lon="6.23011">
        <ele>1828.7566</ele>
        <time>2020-09-15 10:12:12</time>
      </trkpt>
      <trkpt lat="45.69584" lon="6.23011">
        <ele>1829.1094</ele>
        <time>2020-09-15 10:12:13</time>
      </trkpt>
      <trkpt lat="45.69583" lon="6.23012">
        <ele>1830.458</ele>
        <time>2020-09-15 10:12:14</time>
      </trkpt>
      <trkpt lat="45.69583" lon="6.23012">
        <ele>1831.0698</ele>
        <time>2020-09-15 10:12:15</time>
      </trkpt>
      <trkpt lat="45.69582" lon="6.23012">
        <ele>1831.6948</ele>
        <time>2020-09-15 10:12:16</time>
      </trkpt>
      <trkpt lat="45.69582" lon="6.23012">
        <ele>1832.1987</ele>
        <time>2020-09-15 10:12:17</time>
      </trkpt>
      <trkpt lat="45.69581" lon="6.23011">
        <ele>1831.7888</ele>
        <time>2020-09-15 10:12:18</time>
      </trkpt>
      <trkpt lat="45.6958" lon="6.2301">
        <ele>1832.4214</ele>
        <time>2020-09-15 10:12:20</time>
      </trkpt>
      <trkpt lat="45.6958" lon="6.2301">
        <ele>1828.7566</ele>
        <time>2020-09-15 10:12:21</time>
      </trkpt>
      <trkpt lat="45.6958" lon="6.2301">
        <ele>1833.8213</ele>
        <time>2020-09-15 10:12:22</time>
      </trkpt>
      <trkpt lat="45.6958" lon="6.23011">
        <ele>1834.8059</ele>
        <time>2020-09-15 10:12:23</time>
      </trkpt>
      <trkpt lat="45.69579" lon="6.23011">
        <ele>1836.2207</ele>
        <time>2020-09-15 10:12:26</time>
      </trkpt>
      <trkpt lat="45.69579" lon="6.23011">
        <ele>1836.8362</ele>
        <time>2020-09-15 10:12:27</time>
      </trkpt>
      <trkpt lat="45.69575" lon="6.23012">
        <ele>1836.8799</ele>
        <time>2020-09-15 10:12:31</time>
      </trkpt>
      <trkpt lat="45.69574" lon="6.23011">
        <ele>1838.9487</ele>
        <time>2020-09-15 10:12:46</time>
      </trkpt>
      <trkpt lat="45.69574" lon="6.23012">
        <ele>1839.4341</ele>
        <time>2020-09-15 10:12:47</time>
      </trkpt>
      <trkpt lat="45.69573" lon="6.23012">
        <ele>1839.9128</ele>
        <time>2020-09-15 10:12:50</time>
      </trkpt>
      <trkpt lat="45.6957" lon="6.2301">
        <ele>1838.6985</ele>
        <time>2020-09-15 10:12:55</time>
      </trkpt>
      <trkpt lat="45.69569" lon="6.23009">
        <ele>1839.3701</ele>
        <time>2020-09-15 10:12:59</time>
      </trkpt>
      <trkpt lat="45.69569" lon="6.23009">
        <ele>1839.6265</ele>
        <time>2020-09-15 10:13:01</time>
      </trkpt>
      <trkpt lat="45.69568" lon="6.23011">
        <ele>1842.0803</ele>
        <time>2020-09-15 10:13:13</time>
      </trkpt>
      <trkpt lat="45.69567" lon="6.23012">
        <ele>1843.1577</ele>
        <time>2020-09-15 10:13:14</time>
      </trkpt>
      <trkpt lat="45.69565" lon="6.23013">
        <ele>1840.6658</ele>
        <time>2020-09-15 10:13:17</time>
      </trkpt>
      <trkpt lat="45.69562" lon="6.23014">
        <ele>1839.9431</ele>
        <time>2020-09-15 10:13:19</time>
      </trkpt>
      <trkpt lat="45.69559" lon="6.23015">
        <ele>1840.758</ele>
        <time>2020-09-15 10:13:28</time>
      </trkpt>
      <trkpt lat="45.69559" lon="6.23016">
        <ele>1841.2292</ele>
        <time>2020-09-15 10:13:29</time>
      </trkpt>
      <trkpt lat="45.69558" lon="6.23015">
        <ele>1841.2388</ele>
        <time>2020-09-15 10:13:36</time>
      </trkpt>
      <trkpt lat="45.69557" lon="6.23016">
        <ele>1842.0215</ele>
        <time>2020-09-15 10:13:37</time>
      </trkpt>
      <trkpt lat="45.69555" lon="6.23015">
        <ele>1840.4673</ele>
        <time>2020-09-15 10:13:48</time>
      </trkpt>
      <trkpt lat="45.69553" lon="6.23015">
        <ele>1840.4934</ele>
        <time>2020-09-15 10:13:50</time>
      </trkpt>
      <trkpt lat="45.69552" lon="6.23015">
        <ele>1842.5728</ele>
        <time>2020-09-15 10:13:54</time>
      </trkpt>
      <trkpt lat="45.69551" lon="6.23015">
        <ele>1843.9392</ele>
        <time>2020-09-15 10:13:55</time>
      </trkpt>
      <trkpt lat="45.69546" lon="6.23017">
        <ele>1846.489</ele>
        <time>2020-09-15 10:14:00</time>
      </trkpt>
      <trkpt lat="45.69544" lon="6.23019">
        <ele>1846.6821</ele>
        <time>2020-09-15 10:14:03</time>
      </trkpt>
      <trkpt lat="45.69543" lon="6.23018">
        <ele>1846.75</ele>
        <time>2020-09-15 10:14:04</time>
      </trkpt>
      <trkpt lat="45.69541" lon="6.23019">
        <ele>1848.7278</ele>
        <time>2020-09-15 10:14:07</time>
      </trkpt>
      <trkpt lat="45.6954" lon="6.23019">
        <ele>1849.5483</ele>
        <time>2020-09-15 10:14:08</time>
      </trkpt>
      <trkpt lat="45.69539" lon="6.23019">
        <ele>1852.3999</ele>
        <time>2020-09-15 10:14:11</time>
      </trkpt>
      <trkpt lat="45.69538" lon="6.23019">
        <ele>1853.221</ele>
        <time>2020-09-15 10:14:14</time>
      </trkpt>
      <trkpt lat="45.69538" lon="6.23019">
        <ele>1853.6226</ele>
        <time>2020-09-15 10:14:15</time>
      </trkpt>
      <trkpt lat="45.69536" lon="6.23019">
        <ele>1853.7708</ele>
        <time>2020-09-15 10:14:19</time>
      </trkpt>
      <trkpt lat="45.69535" lon="6.23019">
        <ele>1852.69</ele>
        <time>2020-09-15 10:14:20</time>
      </trkpt>
      <trkpt lat="45.69533" lon="6.2302">
        <ele>1852.935</ele>
        <time>2020-09-15 10:14:22</time>
      </trkpt>
      <trkpt lat="45.69523" lon="6.23025">
        <ele>1855.4797</ele>
        <time>2020-09-15 10:14:40</time>
      </trkpt>
      <trkpt lat="45.69523" lon="6.23025">
        <ele>1855.7424</ele>
        <time>2020-09-15 10:14:41</time>
      </trkpt>
      <trkpt lat="45.69522" lon="6.23025">
        <ele>1856.4614</ele>
        <time>2020-09-15 10:14:42</time>
      </trkpt>
      <trkpt lat="45.69522" lon="6.23026">
        <ele>1857.044</ele>
        <time>2020-09-15 10:14:44</time>
      </trkpt>
      <trkpt lat="45.69519" lon="6.23026">
        <ele>1858.7236</ele>
        <time>2020-09-15 10:14:50</time>
      </trkpt>
      <trkpt lat="45.69518" lon="6.23026">
        <ele>1859.5454</ele>
        <time>2020-09-15 10:14:57</time>
      </trkpt>
      <trkpt lat="45.69517" lon="6.23025">
        <ele>1859.1675</ele>
        <time>2020-09-15 10:14:59</time>
      </trkpt>
      <trkpt lat="45.69516" lon="6.23025">
        <ele>1859.5989</ele>
        <time>2020-09-15 10:15:01</time>
      </trkpt>
      <trkpt lat="45.69515" lon="6.23025">
        <ele>1859.5593</ele>
        <time>2020-09-15 10:15:02</time>
      </trkpt>
      <trkpt lat="45.69515" lon="6.23024">
        <ele>1860.1208</ele>
        <time>2020-09-15 10:15:03</time>
      </trkpt>
      <trkpt lat="45.69514" lon="6.23025">
        <ele>1859.2632</ele>
        <time>2020-09-15 10:15:06</time>
      </trkpt>
      <trkpt lat="45.69512" lon="6.23024">
        <ele>1856.8774</ele>
        <time>2020-09-15 10:15:09</time>
      </trkpt>
      <trkpt lat="45.69511" lon="6.23024">
        <ele>1855.9854</ele>
        <time>2020-09-15 10:15:10</time>
      </trkpt>
      <trkpt lat="45.69508" lon="6.23024">
        <ele>1856.9287</ele>
        <time>2020-09-15 10:15:14</time>
      </trkpt>
      <trkpt lat="45.69505" lon="6.23025">
        <ele>1855.5312</ele>
        <time>2020-09-15 10:15:22</time>
      </trkpt>
      <trkpt lat="45.69504" lon="6.23026">
        <ele>1857.0688</ele>
        <time>2020-09-15 10:15:24</time>
      </trkpt>
      <trkpt lat="45.69501" lon="6.23024">
        <ele>1855.0928</ele>
        <time>2020-09-15 10:15:36</time>
      </trkpt>
      <trkpt lat="45.695" lon="6.23024">
        <ele>1854.7244</ele>
        <time>2020-09-15 10:15:37</time>
      </trkpt>
      <trkpt lat="45.695" lon="6.23024">
        <ele>1854.9966</ele>
        <time>2020-09-15 10:15:38</time>
      </trkpt>
      <trkpt lat="45.69496" lon="6.23023">
        <ele>1856.6597</ele>
        <time>2020-09-15 10:15:43</time>
      </trkpt>
      <trkpt lat="45.69495" lon="6.23023">
        <ele>1856.7373</ele>
        <time>2020-09-15 10:15:46</time>
      </trkpt>
      <trkpt lat="45.69495" lon="6.23023">
        <ele>1857.9087</ele>
        <time>2020-09-15 10:15:47</time>
      </trkpt>
      <trkpt lat="45.69495" lon="6.23023">
        <ele>1853.3748</ele>
        <time>2020-09-15 10:15:49</time>
      </trkpt>
      <trkpt lat="45.69493" lon="6.23025">
        <ele>1860.7368</ele>
        <time>2020-09-15 10:15:54</time>
      </trkpt>
      <trkpt lat="45.69492" lon="6.23026">
        <ele>1860.8896</ele>
        <time>2020-09-15 10:15:58</time>
      </trkpt>
      <trkpt lat="45.69491" lon="6.23027">
        <ele>1857.7302</ele>
        <time>2020-09-15 10:15:59</time>
      </trkpt>
      <trkpt lat="45.69491" lon="6.23027">
        <ele>1862.3103</ele>
        <time>2020-09-15 10:16:00</time>
      </trkpt>
      <trkpt lat="45.69489" lon="6.23026">
        <ele>1863.4607</ele>
        <time>2020-09-15 10:16:03</time>
      </trkpt>
      <trkpt lat="45.69488" lon="6.23026">
        <ele>1863.3589</ele>
        <time>2020-09-15 10:16:04</time>
      </trkpt>
      <trkpt lat="45.69486" lon="6.23025">
        <ele>1863.4585</ele>
        <time>2020-09-15 10:16:08</time>
      </trkpt>
      <trkpt lat="45.69485" lon="6.23025">
        <ele>1864.4258</ele>
        <time>2020-09-15 10:16:10</time>
      </trkpt>
      <trkpt lat="45.69485" lon="6.23025">
        <ele>1864.7954</ele>
        <time>2020-09-15 10:16:11</time>
      </trkpt>
      <trkpt lat="45.69485" lon="6.23026">
        <ele>1866.196</ele>
        <time>2020-09-15 10:16:16</time>
      </trkpt>
      <trkpt lat="45.69484" lon="6.23026">
        <ele>1866.5168</ele>
        <time>2020-09-15 10:16:17</time>
      </trkpt>
      <trkpt lat="45.69483" lon="6.23027">
        <ele>1864.6722</ele>
        <time>2020-09-15 10:16:19</time>
      </trkpt>
      <trkpt lat="45.69483" lon="6.23027">
        <ele>1870.8667</ele>
        <time>2020-09-15 10:16:21</time>
      </trkpt>
      <trkpt lat="45.69483" lon="6.23029">
        <ele>1873.3254</ele>
        <time>2020-09-15 10:16:26</time>
      </trkpt>
      <trkpt lat="45.69482" lon="6.23029">
        <ele>1874.1777</ele>
        <time>2020-09-15 10:16:27</time>
      </trkpt>
      <trkpt lat="45.69482" lon="6.23029">
        <ele>1874.4092</ele>
        <time>2020-09-15 10:16:28</time>
      </trkpt>
      <trkpt lat="45.69481" lon="6.23029">
        <ele>1876.5247</ele>
        <time>2020-09-15 10:16:33</time>
      </trkpt>
      <trkpt lat="45.69481" lon="6.2303">
        <ele>1877.1941</ele>
        <time>2020-09-15 10:16:34</time>
      </trkpt>
      <trkpt lat="45.69481" lon="6.23029">
        <ele>1877.4387</ele>
        <time>2020-09-15 10:16:36</time>
      </trkpt>
      <trkpt lat="45.69478" lon="6.23027">
        <ele>1868.9526</ele>
        <time>2020-09-15 10:16:38</time>
      </trkpt>
      <trkpt lat="45.69475" lon="6.23025">
        <ele>1874.2764</ele>
        <time>2020-09-15 10:16:39</time>
      </trkpt>
      <trkpt lat="45.69473" lon="6.23023">
        <ele>1872.8545</ele>
        <time>2020-09-15 10:16:43</time>
      </trkpt>
      <trkpt lat="45.69472" lon="6.23023">
        <ele>1873.1328</ele>
        <time>2020-09-15 10:16:44</time>
      </trkpt>
      <trkpt lat="45.69471" lon="6.23023">
        <ele>1871.0564</ele>
        <time>2020-09-15 10:16:47</time>
      </trkpt>
      <trkpt lat="45.6947" lon="6.23023">
        <ele>1871.6758</ele>
        <time>2020-09-15 10:16:48</time>
      </trkpt>
      <trkpt lat="45.6947" lon="6.23022">
        <ele>1871.8853</ele>
        <time>2020-09-15 10:16:49</time>
      </trkpt>
      <trkpt lat="45.6947" lon="6.23022">
        <ele>1870.0024</ele>
        <time>2020-09-15 10:16:50</time>
      </trkpt>
      <trkpt lat="45.69469" lon="6.23021">
        <ele>1871.406</ele>
        <time>2020-09-15 10:16:51</time>
      </trkpt>
      <trkpt lat="45.69469" lon="6.23021">
        <ele>1872.915</ele>
        <time>2020-09-15 10:16:52</time>
      </trkpt>
      <trkpt lat="45.69469" lon="6.2302">
        <ele>1872.4592</ele>
        <time>2020-09-15 10:16:53</time>
      </trkpt>
      <trkpt lat="45.69468" lon="6.23019">
        <ele>1872.2637</ele>
        <time>2020-09-15 10:16:54</time>
      </trkpt>
      <trkpt lat="45.69468" lon="6.23018">
        <ele>1870.9651</ele>
        <time>2020-09-15 10:16:56</time>
      </trkpt>
      <trkpt lat="45.69468" lon="6.23016">
        <ele>1874.9878</ele>
        <time>2020-09-15 10:16:59</time>
      </trkpt>
      <trkpt lat="45.69468" lon="6.23015">
        <ele>1874.4839</ele>
        <time>2020-09-15 10:17:01</time>
      </trkpt>
      <trkpt lat="45.69468" lon="6.23015">
        <ele>1874.0264</ele>
        <time>2020-09-15 10:17:02</time>
      </trkpt>
      <trkpt lat="45.69467" lon="6.23015">
        <ele>1874.2617</ele>
        <time>2020-09-15 10:17:04</time>
      </trkpt>
      <trkpt lat="45.69467" lon="6.23014">
        <ele>1873.125</ele>
        <time>2020-09-15 10:17:05</time>
      </trkpt>
      <trkpt lat="45.69466" lon="6.23014">
        <ele>1873.5391</ele>
        <time>2020-09-15 10:17:06</time>
      </trkpt>
      <trkpt lat="45.69466" lon="6.23014">
        <ele>1872.2354</ele>
        <time>2020-09-15 10:17:07</time>
      </trkpt>
      <trkpt lat="45.69466" lon="6.23014">
        <ele>1871.896</ele>
        <time>2020-09-15 10:17:08</time>
      </trkpt>
      <trkpt lat="45.69466" lon="6.23013">
        <ele>1872.3696</ele>
        <time>2020-09-15 10:17:09</time>
      </trkpt>
      <trkpt lat="45.69466" lon="6.23014">
        <ele>1873.4641</ele>
        <time>2020-09-15 10:17:13</time>
      </trkpt>
      <trkpt lat="45.69466" lon="6.23014">
        <ele>1873.935</ele>
        <time>2020-09-15 10:17:14</time>
      </trkpt>
      <trkpt lat="45.69465" lon="6.23014">
        <ele>1872.6946</ele>
        <time>2020-09-15 10:17:21</time>
      </trkpt>
      <trkpt lat="45.69464" lon="6.23014">
        <ele>1874.6475</ele>
        <time>2020-09-15 10:17:22</time>
      </trkpt>
      <trkpt lat="45.69464" lon="6.23013">
        <ele>1875.6204</ele>
        <time>2020-09-15 10:17:23</time>
      </trkpt>
      <trkpt lat="45.69464" lon="6.23014">
        <ele>1876.2617</ele>
        <time>2020-09-15 10:17:24</time>
      </trkpt>
      <trkpt lat="45.69462" lon="6.23015">
        <ele>1874.6475</ele>
        <time>2020-09-15 10:17:31</time>
      </trkpt>
      <trkpt lat="45.69461" lon="6.23016">
        <ele>1876.7766</ele>
        <time>2020-09-15 10:17:32</time>
      </trkpt>
      <trkpt lat="45.69461" lon="6.23017">
        <ele>1877.3804</ele>
        <time>2020-09-15 10:17:33</time>
      </trkpt>
      <trkpt lat="45.6946" lon="6.23017">
        <ele>1876.134</ele>
        <time>2020-09-15 10:17:34</time>
      </trkpt>
      <trkpt lat="45.69459" lon="6.23017">
        <ele>1878.5854</ele>
        <time>2020-09-15 10:17:36</time>
      </trkpt>
      <trkpt lat="45.69459" lon="6.23017">
        <ele>1879.146</ele>
        <time>2020-09-15 10:17:37</time>
      </trkpt>
      <trkpt lat="45.69459" lon="6.23017">
        <ele>1877.7095</ele>
        <time>2020-09-15 10:17:38</time>
      </trkpt>
      <trkpt lat="45.69458" lon="6.23017">
        <ele>1879.4084</ele>
        <time>2020-09-15 10:17:40</time>
      </trkpt>
      <trkpt lat="45.69458" lon="6.23018">
        <ele>1876.7766</ele>
        <time>2020-09-15 10:17:41</time>
      </trkpt>
      <trkpt lat="45.69458" lon="6.23018">
        <ele>1880.8359</ele>
        <time>2020-09-15 10:17:42</time>
      </trkpt>
      <trkpt lat="45.69456" lon="6.23019">
        <ele>1880.5024</ele>
        <time>2020-09-15 10:17:48</time>
      </trkpt>
      <trkpt lat="45.69456" lon="6.23017">
        <ele>1880.6802</ele>
        <time>2020-09-15 10:17:49</time>
      </trkpt>
      <trkpt lat="45.69457" lon="6.23016">
        <ele>1881.606</ele>
        <time>2020-09-15 10:17:50</time>
      </trkpt>
      <trkpt lat="45.69458" lon="6.23013">
        <ele>1881.5142</ele>
        <time>2020-09-15 10:17:52</time>
      </trkpt>
      <trkpt lat="45.69458" lon="6.23007">
        <ele>1881.4697</ele>
        <time>2020-09-15 10:17:56</time>
      </trkpt>
      <trkpt lat="45.69458" lon="6.23006">
        <ele>1882.0464</ele>
        <time>2020-09-15 10:18:00</time>
      </trkpt>
      <trkpt lat="45.69459" lon="6.23007">
        <ele>1882.1029</ele>
        <time>2020-09-15 10:18:01</time>
      </trkpt>
      <trkpt lat="45.69459" lon="6.23006">
        <ele>1882.2998</ele>
        <time>2020-09-15 10:18:02</time>
      </trkpt>
      <trkpt lat="45.69459" lon="6.23006">
        <ele>1882.8413</ele>
        <time>2020-09-15 10:18:03</time>
      </trkpt>
      <trkpt lat="45.69459" lon="6.23005">
        <ele>1886.1929</ele>
        <time>2020-09-15 10:18:19</time>
      </trkpt>
      <trkpt lat="45.69458" lon="6.23006">
        <ele>1886.2559</ele>
        <time>2020-09-15 10:18:20</time>
      </trkpt>
      <trkpt lat="45.69458" lon="6.23007">
        <ele>1886.0354</ele>
        <time>2020-09-15 10:18:23</time>
      </trkpt>
      <trkpt lat="45.69458" lon="6.23006">
        <ele>1885.7734</ele>
        <time>2020-09-15 10:18:24</time>
      </trkpt>
      <trkpt lat="45.69457" lon="6.23007">
        <ele>1886.7085</ele>
        <time>2020-09-15 10:18:27</time>
      </trkpt>
      <trkpt lat="45.69456" lon="6.23007">
        <ele>1886.4998</ele>
        <time>2020-09-15 10:18:29</time>
      </trkpt>
      <trkpt lat="45.69456" lon="6.23007">
        <ele>1888.1824</ele>
        <time>2020-09-15 10:18:30</time>
      </trkpt>
      <trkpt lat="45.69456" lon="6.23007">
        <ele>1886.4546</ele>
        <time>2020-09-15 10:18:31</time>
      </trkpt>
      <trkpt lat="45.69456" lon="6.23007">
        <ele>1889.3059</ele>
        <time>2020-09-15 10:18:32</time>
      </trkpt>
      <trkpt lat="45.69456" lon="6.23007">
        <ele>1888.4688</ele>
        <time>2020-09-15 10:18:34</time>
      </trkpt>
      <trkpt lat="45.69455" lon="6.23007">
        <ele>1888.7727</ele>
        <time>2020-09-15 10:18:35</time>
      </trkpt>
      <trkpt lat="45.69455" lon="6.23008">
        <ele>1889.6248</ele>
        <time>2020-09-15 10:18:36</time>
      </trkpt>
      <trkpt lat="45.69455" lon="6.23008">
        <ele>1890.2437</ele>
        <time>2020-09-15 10:18:44</time>
      </trkpt>
      <trkpt lat="45.69454" lon="6.23008">
        <ele>1891.5259</ele>
        <time>2020-09-15 10:18:46</time>
      </trkpt>
      <trkpt lat="45.69454" lon="6.23007">
        <ele>1889.7026</ele>
        <time>2020-09-15 10:18:48</time>
      </trkpt>
      <trkpt lat="45.69454" lon="6.23005">
        <ele>1889.6045</ele>
        <time>2020-09-15 10:18:49</time>
      </trkpt>
      <trkpt lat="45.69454" lon="6.23003">
        <ele>1887.1235</ele>
        <time>2020-09-15 10:18:55</time>
      </trkpt>
      <trkpt lat="45.69454" lon="6.23003">
        <ele>1887.7114</ele>
        <time>2020-09-15 10:18:56</time>
      </trkpt>
      <trkpt lat="45.69454" lon="6.23003">
        <ele>1889.3252</ele>
        <time>2020-09-15 10:18:58</time>
      </trkpt>
      <trkpt lat="45.69454" lon="6.23004">
        <ele>1890.4067</ele>
        <time>2020-09-15 10:18:59</time>
      </trkpt>
      <trkpt lat="45.69454" lon="6.23005">
        <ele>1891.1865</ele>
        <time>2020-09-15 10:19:01</time>
      </trkpt>
      <trkpt lat="45.69453" lon="6.23004">
        <ele>1888.8132</ele>
        <time>2020-09-15 10:19:02</time>
      </trkpt>
      <trkpt lat="45.69452" lon="6.23004">
        <ele>1890.0276</ele>
        <time>2020-09-15 10:19:03</time>
      </trkpt>
      <trkpt lat="45.69451" lon="6.23003">
        <ele>1891.0659</ele>
        <time>2020-09-15 10:19:06</time>
      </trkpt>
      <trkpt lat="45.6945" lon="6.23004">
        <ele>1891.0718</ele>
        <time>2020-09-15 10:19:07</time>
      </trkpt>
      <trkpt lat="45.69449" lon="6.23003">
        <ele>1891.625</ele>
        <time>2020-09-15 10:19:09</time>
      </trkpt>
      <trkpt lat="45.69448" lon="6.23002">
        <ele>1890.9819</ele>
        <time>2020-09-15 10:19:10</time>
      </trkpt>
      <trkpt lat="45.69447" lon="6.23002">
        <ele>1890.0276</ele>
        <time>2020-09-15 10:19:12</time>
      </trkpt>
      <trkpt lat="45.69445" lon="6.23002">
        <ele>1891.5171</ele>
        <time>2020-09-15 10:19:14</time>
      </trkpt>
      <trkpt lat="45.69444" lon="6.23002">
        <ele>1892.7056</ele>
        <time>2020-09-15 10:19:15</time>
      </trkpt>
      <trkpt lat="45.69443" lon="6.23002">
        <ele>1892.5122</ele>
        <time>2020-09-15 10:19:16</time>
      </trkpt>
      <trkpt lat="45.69442" lon="6.23003">
        <ele>1894.488</ele>
        <time>2020-09-15 10:19:20</time>
      </trkpt>
      <trkpt lat="45.69441" lon="6.23003">
        <ele>1895.2151</ele>
        <time>2020-09-15 10:19:21</time>
      </trkpt>
      <trkpt lat="45.69441" lon="6.23002">
        <ele>1895.3447</ele>
        <time>2020-09-15 10:19:22</time>
      </trkpt>
      <trkpt lat="45.69439" lon="6.23001">
        <ele>1895.5955</ele>
        <time>2020-09-15 10:19:25</time>
      </trkpt>
      <trkpt lat="45.69439" lon="6.23">
        <ele>1895.4014</ele>
        <time>2020-09-15 10:19:26</time>
      </trkpt>
      <trkpt lat="45.69439" lon="6.22999">
        <ele>1895.1924</ele>
        <time>2020-09-15 10:19:27</time>
      </trkpt>
      <trkpt lat="45.69438" lon="6.22998">
        <ele>1894.3345</ele>
        <time>2020-09-15 10:19:31</time>
      </trkpt>
      <trkpt lat="45.69438" lon="6.22996">
        <ele>1895.3501</ele>
        <time>2020-09-15 10:19:34</time>
      </trkpt>
      <trkpt lat="45.69437" lon="6.22993">
        <ele>1894.5044</ele>
        <time>2020-09-15 10:19:37</time>
      </trkpt>
      <trkpt lat="45.69436" lon="6.22993">
        <ele>1895.8208</ele>
        <time>2020-09-15 10:19:41</time>
      </trkpt>
      <trkpt lat="45.69433" lon="6.22992">
        <ele>1897.148</ele>
        <time>2020-09-15 10:19:44</time>
      </trkpt>
      <trkpt lat="45.69433" lon="6.22992">
        <ele>1897.1797</ele>
        <time>2020-09-15 10:19:45</time>
      </trkpt>
      <trkpt lat="45.69432" lon="6.22991">
        <ele>1897.3567</ele>
        <time>2020-09-15 10:19:46</time>
      </trkpt>
      <trkpt lat="45.69431" lon="6.22991">
        <ele>1898.0168</ele>
        <time>2020-09-15 10:19:47</time>
      </trkpt>
      <trkpt lat="45.69431" lon="6.22992">
        <ele>1898.3721</ele>
        <time>2020-09-15 10:19:48</time>
      </trkpt>
      <trkpt lat="45.6943" lon="6.22994">
        <ele>1897.148</ele>
        <time>2020-09-15 10:19:53</time>
      </trkpt>
      <trkpt lat="45.69429" lon="6.22993">
        <ele>1901.7852</ele>
        <time>2020-09-15 10:19:57</time>
      </trkpt>
      <trkpt lat="45.69429" lon="6.22994">
        <ele>1903.5688</ele>
        <time>2020-09-15 10:20:01</time>
      </trkpt>
      <trkpt lat="45.69427" lon="6.22992">
        <ele>1904.4951</ele>
        <time>2020-09-15 10:20:04</time>
      </trkpt>
      <trkpt lat="45.69426" lon="6.22992">
        <ele>1904.948</ele>
        <time>2020-09-15 10:20:05</time>
      </trkpt>
      <trkpt lat="45.69425" lon="6.22993">
        <ele>1905.0093</ele>
        <time>2020-09-15 10:20:07</time>
      </trkpt>
      <trkpt lat="45.69424" lon="6.22994">
        <ele>1903.4224</ele>
        <time>2020-09-15 10:20:08</time>
      </trkpt>
      <trkpt lat="45.69422" lon="6.22994">
        <ele>1902.5635</ele>
        <time>2020-09-15 10:20:10</time>
      </trkpt>
      <trkpt lat="45.69419" lon="6.22996">
        <ele>1901.9321</ele>
        <time>2020-09-15 10:20:16</time>
      </trkpt>
      <trkpt lat="45.69419" lon="6.22997">
        <ele>1901.1133</ele>
        <time>2020-09-15 10:20:17</time>
      </trkpt>
      <trkpt lat="45.69417" lon="6.22997">
        <ele>1902.6016</ele>
        <time>2020-09-15 10:20:22</time>
      </trkpt>
      <trkpt lat="45.69417" lon="6.22996">
        <ele>1901.685</ele>
        <time>2020-09-15 10:20:25</time>
      </trkpt>
      <trkpt lat="45.69416" lon="6.22994">
        <ele>1904.636</ele>
        <time>2020-09-15 10:20:28</time>
      </trkpt>
      <trkpt lat="45.69417" lon="6.22994">
        <ele>1903.9414</ele>
        <time>2020-09-15 10:20:30</time>
      </trkpt>
      <trkpt lat="45.69417" lon="6.22995">
        <ele>1904.1377</ele>
        <time>2020-09-15 10:20:31</time>
      </trkpt>
      <trkpt lat="45.69417" lon="6.22996">
        <ele>1906.9233</ele>
        <time>2020-09-15 10:20:34</time>
      </trkpt>
      <trkpt lat="45.69416" lon="6.22997">
        <ele>1903.5146</ele>
        <time>2020-09-15 10:20:36</time>
      </trkpt>
      <trkpt lat="45.69417" lon="6.22997">
        <ele>1909.1064</ele>
        <time>2020-09-15 10:20:37</time>
      </trkpt>
      <trkpt lat="45.69417" lon="6.22998">
        <ele>1910.3477</ele>
        <time>2020-09-15 10:20:45</time>
      </trkpt>
      <trkpt lat="45.69417" lon="6.22999">
        <ele>1909.058</ele>
        <time>2020-09-15 10:20:46</time>
      </trkpt>
      <trkpt lat="45.69416" lon="6.22999">
        <ele>1909.2468</ele>
        <time>2020-09-15 10:20:47</time>
      </trkpt>
      <trkpt lat="45.69411" lon="6.23001">
        <ele>1906.5718</ele>
        <time>2020-09-15 10:20:52</time>
      </trkpt>
      <trkpt lat="45.6941" lon="6.23001">
        <ele>1907.262</ele>
        <time>2020-09-15 10:20:53</time>
      </trkpt>
      <trkpt lat="45.6941" lon="6.23001">
        <ele>1906.6311</ele>
        <time>2020-09-15 10:20:54</time>
      </trkpt>
      <trkpt lat="45.69407" lon="6.22999">
        <ele>1906.6782</ele>
        <time>2020-09-15 10:20:58</time>
      </trkpt>
      <trkpt lat="45.69408" lon="6.22998">
        <ele>1907.583</ele>
        <time>2020-09-15 10:21:01</time>
      </trkpt>
      <trkpt lat="45.69408" lon="6.22997">
        <ele>1907.8279</ele>
        <time>2020-09-15 10:21:03</time>
      </trkpt>
      <trkpt lat="45.69409" lon="6.22996">
        <ele>1910.043</ele>
        <time>2020-09-15 10:21:05</time>
      </trkpt>
      <trkpt lat="45.6941" lon="6.22992">
        <ele>1912.0767</ele>
        <time>2020-09-15 10:21:12</time>
      </trkpt>
      <trkpt lat="45.69411" lon="6.22991">
        <ele>1911.0635</ele>
        <time>2020-09-15 10:21:16</time>
      </trkpt>
      <trkpt lat="45.69411" lon="6.22991">
        <ele>1914.9951</ele>
        <time>2020-09-15 10:21:18</time>
      </trkpt>
      <trkpt lat="45.69411" lon="6.22991">
        <ele>1914.429</ele>
        <time>2020-09-15 10:21:19</time>
      </trkpt>
      <trkpt lat="45.69412" lon="6.22986">
        <ele>1914.0242</ele>
        <time>2020-09-15 10:21:26</time>
      </trkpt>
      <trkpt lat="45.6941" lon="6.22985">
        <ele>1912.0474</ele>
        <time>2020-09-15 10:21:36</time>
      </trkpt>
      <trkpt lat="45.6941" lon="6.22985">
        <ele>1912.5244</ele>
        <time>2020-09-15 10:21:37</time>
      </trkpt>
      <trkpt lat="45.69409" lon="6.22986">
        <ele>1912.2551</ele>
        <time>2020-09-15 10:21:38</time>
      </trkpt>
      <trkpt lat="45.69409" lon="6.22988">
        <ele>1913.0098</ele>
        <time>2020-09-15 10:21:42</time>
      </trkpt>
      <trkpt lat="45.69408" lon="6.22995">
        <ele>1914.3965</ele>
        <time>2020-09-15 10:21:49</time>
      </trkpt>
      <trkpt lat="45.69405" lon="6.22999">
        <ele>1913.969</ele>
        <time>2020-09-15 10:21:57</time>
      </trkpt>
      <trkpt lat="45.69403" lon="6.23005">
        <ele>1912.8999</ele>
        <time>2020-09-15 10:22:05</time>
      </trkpt>
      <trkpt lat="45.69402" lon="6.23006">
        <ele>1912.8594</ele>
        <time>2020-09-15 10:22:06</time>
      </trkpt>
      <trkpt lat="45.69402" lon="6.23009">
        <ele>1909.5779</ele>
        <time>2020-09-15 10:22:11</time>
      </trkpt>
      <trkpt lat="45.69402" lon="6.2301">
        <ele>1912.2422</ele>
        <time>2020-09-15 10:22:17</time>
      </trkpt>
      <trkpt lat="45.69399" lon="6.23014">
        <ele>1912.7246</ele>
        <time>2020-09-15 10:22:25</time>
      </trkpt>
      <trkpt lat="45.69399" lon="6.23014">
        <ele>1913.0186</ele>
        <time>2020-09-15 10:22:26</time>
      </trkpt>
      <trkpt lat="45.69399" lon="6.23018">
        <ele>1915.9539</ele>
        <time>2020-09-15 10:22:36</time>
      </trkpt>
      <trkpt lat="45.694" lon="6.23019">
        <ele>1915.5806</ele>
        <time>2020-09-15 10:22:38</time>
      </trkpt>
      <trkpt lat="45.69399" lon="6.2302">
        <ele>1916.1411</ele>
        <time>2020-09-15 10:22:39</time>
      </trkpt>
      <trkpt lat="45.69399" lon="6.23019">
        <ele>1916.4961</ele>
        <time>2020-09-15 10:22:43</time>
      </trkpt>
      <trkpt lat="45.69398" lon="6.2302">
        <ele>1915.4656</ele>
        <time>2020-09-15 10:22:44</time>
      </trkpt>
      <trkpt lat="45.69397" lon="6.2302">
        <ele>1916.2461</ele>
        <time>2020-09-15 10:22:45</time>
      </trkpt>
      <trkpt lat="45.69397" lon="6.2302">
        <ele>1915.5806</ele>
        <time>2020-09-15 10:22:47</time>
      </trkpt>
      <trkpt lat="45.69395" lon="6.23023">
        <ele>1917.9492</ele>
        <time>2020-09-15 10:22:51</time>
      </trkpt>
      <trkpt lat="45.69395" lon="6.23024">
        <ele>1919.1792</ele>
        <time>2020-09-15 10:22:52</time>
      </trkpt>
      <trkpt lat="45.69395" lon="6.23024">
        <ele>1918.772</ele>
        <time>2020-09-15 10:22:53</time>
      </trkpt>
      <trkpt lat="45.69395" lon="6.23033">
        <ele>1919.8862</ele>
        <time>2020-09-15 10:23:05</time>
      </trkpt>
      <trkpt lat="45.69394" lon="6.23031">
        <ele>1921.0264</ele>
        <time>2020-09-15 10:23:12</time>
      </trkpt>
      <trkpt lat="45.69394" lon="6.23034">
        <ele>1922.2695</ele>
        <time>2020-09-15 10:23:16</time>
      </trkpt>
      <trkpt lat="45.69394" lon="6.23035">
        <ele>1922.4148</ele>
        <time>2020-09-15 10:23:18</time>
      </trkpt>
      <trkpt lat="45.69395" lon="6.23035">
        <ele>1922.6406</ele>
        <time>2020-09-15 10:23:19</time>
      </trkpt>
      <trkpt lat="45.69391" lon="6.23037">
        <ele>1925.415</ele>
        <time>2020-09-15 10:23:25</time>
      </trkpt>
      <trkpt lat="45.6939" lon="6.23036">
        <ele>1922.5653</ele>
        <time>2020-09-15 10:23:27</time>
      </trkpt>
      <trkpt lat="45.6939" lon="6.23036">
        <ele>1924.8042</ele>
        <time>2020-09-15 10:23:29</time>
      </trkpt>
      <trkpt lat="45.6939" lon="6.23037">
        <ele>1923.5854</ele>
        <time>2020-09-15 10:23:30</time>
      </trkpt>
      <trkpt lat="45.6939" lon="6.23039">
        <ele>1925.8606</ele>
        <time>2020-09-15 10:23:33</time>
      </trkpt>
      <trkpt lat="45.6939" lon="6.2304">
        <ele>1923.9402</ele>
        <time>2020-09-15 10:23:35</time>
      </trkpt>
      <trkpt lat="45.6939" lon="6.23041">
        <ele>1924.4961</ele>
        <time>2020-09-15 10:23:37</time>
      </trkpt>
      <trkpt lat="45.69391" lon="6.23044">
        <ele>1924.9712</ele>
        <time>2020-09-15 10:23:40</time>
      </trkpt>
      <trkpt lat="45.69391" lon="6.23045">
        <ele>1924.1892</ele>
        <time>2020-09-15 10:23:41</time>
      </trkpt>
      <trkpt lat="45.69392" lon="6.23046">
        <ele>1924.0247</ele>
        <time>2020-09-15 10:23:42</time>
      </trkpt>
      <trkpt lat="45.69392" lon="6.23046">
        <ele>1925.3384</ele>
        <time>2020-09-15 10:23:43</time>
      </trkpt>
      <trkpt lat="45.69392" lon="6.23047">
        <ele>1925.6377</ele>
        <time>2020-09-15 10:23:45</time>
      </trkpt>
      <trkpt lat="45.69393" lon="6.23047">
        <ele>1926.1064</ele>
        <time>2020-09-15 10:23:48</time>
      </trkpt>
      <trkpt lat="45.69393" lon="6.23047">
        <ele>1926.2012</ele>
        <time>2020-09-15 10:23:49</time>
      </trkpt>
      <trkpt lat="45.69393" lon="6.23048">
        <ele>1926.7197</ele>
        <time>2020-09-15 10:23:51</time>
      </trkpt>
      <trkpt lat="45.69393" lon="6.2305">
        <ele>1927.5867</ele>
        <time>2020-09-15 10:23:56</time>
      </trkpt>
      <trkpt lat="45.694" lon="6.23054">
        <ele>1923.916</ele>
        <time>2020-09-15 10:24:04</time>
      </trkpt>
      <trkpt lat="45.694" lon="6.23054">
        <ele>1924.3838</ele>
        <time>2020-09-15 10:24:07</time>
      </trkpt>
      <trkpt lat="45.69399" lon="6.23055">
        <ele>1926.6118</ele>
        <time>2020-09-15 10:24:09</time>
      </trkpt>
      <trkpt lat="45.69396" lon="6.23056">
        <ele>1930.6553</ele>
        <time>2020-09-15 10:24:14</time>
      </trkpt>
      <trkpt lat="45.69392" lon="6.23057">
        <ele>1929.6638</ele>
        <time>2020-09-15 10:24:20</time>
      </trkpt>
      <trkpt lat="45.69392" lon="6.23056">
        <ele>1930.105</ele>
        <time>2020-09-15 10:24:21</time>
      </trkpt>
      <trkpt lat="45.69388" lon="6.23059">
        <ele>1929.9614</ele>
        <time>2020-09-15 10:24:27</time>
      </trkpt>
      <trkpt lat="45.69386" lon="6.2306">
        <ele>1932.9797</ele>
        <time>2020-09-15 10:24:32</time>
      </trkpt>
      <trkpt lat="45.69386" lon="6.2306">
        <ele>1933.6165</ele>
        <time>2020-09-15 10:24:33</time>
      </trkpt>
      <trkpt lat="45.69384" lon="6.23059">
        <ele>1935.648</ele>
        <time>2020-09-15 10:24:36</time>
      </trkpt>
      <trkpt lat="45.69384" lon="6.2306">
        <ele>1932.2778</ele>
        <time>2020-09-15 10:24:38</time>
      </trkpt>
      <trkpt lat="45.69383" lon="6.2306">
        <ele>1936.2871</ele>
        <time>2020-09-15 10:24:39</time>
      </trkpt>
      <trkpt lat="45.69383" lon="6.2306">
        <ele>1936.251</ele>
        <time>2020-09-15 10:24:40</time>
      </trkpt>
      <trkpt lat="45.69382" lon="6.23066">
        <ele>1936.7944</ele>
        <time>2020-09-15 10:24:47</time>
      </trkpt>
      <trkpt lat="45.69381" lon="6.23066">
        <ele>1936.7283</ele>
        <time>2020-09-15 10:24:50</time>
      </trkpt>
      <trkpt lat="45.69381" lon="6.23067">
        <ele>1937.2285</ele>
        <time>2020-09-15 10:24:51</time>
      </trkpt>
      <trkpt lat="45.6938" lon="6.23067">
        <ele>1937.6475</ele>
        <time>2020-09-15 10:24:52</time>
      </trkpt>
      <trkpt lat="45.6938" lon="6.23067">
        <ele>1937.3494</ele>
        <time>2020-09-15 10:24:53</time>
      </trkpt>
      <trkpt lat="45.69379" lon="6.23069">
        <ele>1937.8623</ele>
        <time>2020-09-15 10:24:56</time>
      </trkpt>
      <trkpt lat="45.69377" lon="6.23074">
        <ele>1941.0244</ele>
        <time>2020-09-15 10:25:05</time>
      </trkpt>
      <trkpt lat="45.69376" lon="6.23074">
        <ele>1939.7046</ele>
        <time>2020-09-15 10:25:08</time>
      </trkpt>
      <trkpt lat="45.69376" lon="6.23074">
        <ele>1942.8721</ele>
        <time>2020-09-15 10:25:09</time>
      </trkpt>
      <trkpt lat="45.69375" lon="6.23074">
        <ele>1943.8579</ele>
        <time>2020-09-15 10:25:11</time>
      </trkpt>
      <trkpt lat="45.69374" lon="6.23074">
        <ele>1944.9802</ele>
        <time>2020-09-15 10:25:15</time>
      </trkpt>
      <trkpt lat="45.69374" lon="6.23075">
        <ele>1945.3027</ele>
        <time>2020-09-15 10:25:16</time>
      </trkpt>
      <trkpt lat="45.69373" lon="6.23075">
        <ele>1945.9146</ele>
        <time>2020-09-15 10:25:17</time>
      </trkpt>
      <trkpt lat="45.69371" lon="6.23076">
        <ele>1946.2236</ele>
        <time>2020-09-15 10:25:20</time>
      </trkpt>
      <trkpt lat="45.69371" lon="6.23076">
        <ele>1946.3018</ele>
        <time>2020-09-15 10:25:21</time>
      </trkpt>
      <trkpt lat="45.69371" lon="6.23076">
        <ele>1946.398</ele>
        <time>2020-09-15 10:25:22</time>
      </trkpt>
      <trkpt lat="45.6937" lon="6.23077">
        <ele>1945.7168</ele>
        <time>2020-09-15 10:25:23</time>
      </trkpt>
      <trkpt lat="45.6937" lon="6.23077">
        <ele>1945.0793</ele>
        <time>2020-09-15 10:25:24</time>
      </trkpt>
      <trkpt lat="45.6937" lon="6.23076">
        <ele>1944.9924</ele>
        <time>2020-09-15 10:25:28</time>
      </trkpt>
      <trkpt lat="45.69369" lon="6.23075">
        <ele>1946.2236</ele>
        <time>2020-09-15 10:25:29</time>
      </trkpt>
      <trkpt lat="45.69368" lon="6.23074">
        <ele>1945.176</ele>
        <time>2020-09-15 10:25:32</time>
      </trkpt>
      <trkpt lat="45.69368" lon="6.23074">
        <ele>1943.6399</ele>
        <time>2020-09-15 10:25:33</time>
      </trkpt>
      <trkpt lat="45.69366" lon="6.23073">
        <ele>1944.2812</ele>
        <time>2020-09-15 10:25:36</time>
      </trkpt>
      <trkpt lat="45.69364" lon="6.23074">
        <ele>1946.0767</ele>
        <time>2020-09-15 10:25:40</time>
      </trkpt>
      <trkpt lat="45.69364" lon="6.23074">
        <ele>1949.7449</ele>
        <time>2020-09-15 10:25:48</time>
      </trkpt>
      <trkpt lat="45.69363" lon="6.23075">
        <ele>1949.429</ele>
        <time>2020-09-15 10:25:51</time>
      </trkpt>
      <trkpt lat="45.69364" lon="6.23075">
        <ele>1950.1597</ele>
        <time>2020-09-15 10:25:57</time>
      </trkpt>
      <trkpt lat="45.69362" lon="6.23076">
        <ele>1950.6558</ele>
        <time>2020-09-15 10:26:00</time>
      </trkpt>
      <trkpt lat="45.69361" lon="6.23075">
        <ele>1950.8774</ele>
        <time>2020-09-15 10:26:01</time>
      </trkpt>
      <trkpt lat="45.69361" lon="6.23076">
        <ele>1951.6411</ele>
        <time>2020-09-15 10:26:02</time>
      </trkpt>
      <trkpt lat="45.6936" lon="6.23075">
        <ele>1952.5376</ele>
        <time>2020-09-15 10:26:03</time>
      </trkpt>
      <trkpt lat="45.6936" lon="6.23075">
        <ele>1953.3394</ele>
        <time>2020-09-15 10:26:04</time>
      </trkpt>
      <trkpt lat="45.69357" lon="6.23076">
        <ele>1953.406</ele>
        <time>2020-09-15 10:26:08</time>
      </trkpt>
      <trkpt lat="45.69356" lon="6.23076">
        <ele>1950.6558</ele>
        <time>2020-09-15 10:26:09</time>
      </trkpt>
      <trkpt lat="45.69353" lon="6.23077">
        <ele>1950.656</ele>
        <time>2020-09-15 10:26:14</time>
      </trkpt>
      <trkpt lat="45.69352" lon="6.23076">
        <ele>1950.7144</ele>
        <time>2020-09-15 10:26:16</time>
      </trkpt>
      <trkpt lat="45.69352" lon="6.23075">
        <ele>1950.2964</ele>
        <time>2020-09-15 10:26:18</time>
      </trkpt>
      <trkpt lat="45.69351" lon="6.23075">
        <ele>1954.1682</ele>
        <time>2020-09-15 10:26:19</time>
      </trkpt>
      <trkpt lat="45.69351" lon="6.23074">
        <ele>1950.2803</ele>
        <time>2020-09-15 10:26:20</time>
      </trkpt>
      <trkpt lat="45.69351" lon="6.23074">
        <ele>1949.7954</ele>
        <time>2020-09-15 10:26:21</time>
      </trkpt>
      <trkpt lat="45.69348" lon="6.23073">
        <ele>1948.5415</ele>
        <time>2020-09-15 10:26:24</time>
      </trkpt>
      <trkpt lat="45.69346" lon="6.23073">
        <ele>1950.2803</ele>
        <time>2020-09-15 10:26:29</time>
      </trkpt>
      <trkpt lat="45.69346" lon="6.23073">
        <ele>1950.7148</ele>
        <time>2020-09-15 10:26:30</time>
      </trkpt>
      <trkpt lat="45.69346" lon="6.23072">
        <ele>1950.9238</ele>
        <time>2020-09-15 10:26:31</time>
      </trkpt>
      <trkpt lat="45.69345" lon="6.23072">
        <ele>1950.3977</ele>
        <time>2020-09-15 10:26:32</time>
      </trkpt>
      <trkpt lat="45.69345" lon="6.23072">
        <ele>1951.4038</ele>
        <time>2020-09-15 10:26:33</time>
      </trkpt>
      <trkpt lat="45.69343" lon="6.23071">
        <ele>1948.4807</ele>
        <time>2020-09-15 10:26:37</time>
      </trkpt>
      <trkpt lat="45.69342" lon="6.23071">
        <ele>1950.7148</ele>
        <time>2020-09-15 10:26:39</time>
      </trkpt>
      <trkpt lat="45.6934" lon="6.23071">
        <ele>1949.3701</ele>
        <time>2020-09-15 10:26:40</time>
      </trkpt>
      <trkpt lat="45.69339" lon="6.23071">
        <ele>1949.6902</ele>
        <time>2020-09-15 10:26:41</time>
      </trkpt>
      <trkpt lat="45.69338" lon="6.23072">
        <ele>1950.2021</ele>
        <time>2020-09-15 10:26:42</time>
      </trkpt>
      <trkpt lat="45.69337" lon="6.23073">
        <ele>1950.5835</ele>
        <time>2020-09-15 10:26:43</time>
      </trkpt>
      <trkpt lat="45.69337" lon="6.23074">
        <ele>1952.0259</ele>
        <time>2020-09-15 10:26:45</time>
      </trkpt>
      <trkpt lat="45.69335" lon="6.23075">
        <ele>1953.0679</ele>
        <time>2020-09-15 10:26:48</time>
      </trkpt>
      <trkpt lat="45.69334" lon="6.23075">
        <ele>1954.1077</ele>
        <time>2020-09-15 10:26:52</time>
      </trkpt>
      <trkpt lat="45.69335" lon="6.23074">
        <ele>1956.8628</ele>
        <time>2020-09-15 10:27:04</time>
      </trkpt>
      <trkpt lat="45.69334" lon="6.23074">
        <ele>1957.125</ele>
        <time>2020-09-15 10:27:05</time>
      </trkpt>
      <trkpt lat="45.69332" lon="6.23074">
        <ele>1957.145</ele>
        <time>2020-09-15 10:27:07</time>
      </trkpt>
      <trkpt lat="45.6933" lon="6.23074">
        <ele>1956.0757</ele>
        <time>2020-09-15 10:27:08</time>
      </trkpt>
      <trkpt lat="45.69328" lon="6.23073">
        <ele>1956.7246</ele>
        <time>2020-09-15 10:27:10</time>
      </trkpt>
      <trkpt lat="45.69328" lon="6.23073">
        <ele>1958.1309</ele>
        <time>2020-09-15 10:27:13</time>
      </trkpt>
      <trkpt lat="45.69326" lon="6.23073">
        <ele>1958.446</ele>
        <time>2020-09-15 10:27:15</time>
      </trkpt>
      <trkpt lat="45.69325" lon="6.23073">
        <ele>1958.2549</ele>
        <time>2020-09-15 10:27:16</time>
      </trkpt>
      <trkpt lat="45.69324" lon="6.23073">
        <ele>1958.9546</ele>
        <time>2020-09-15 10:27:18</time>
      </trkpt>
      <trkpt lat="45.69323" lon="6.23074">
        <ele>1957.8633</ele>
        <time>2020-09-15 10:27:21</time>
      </trkpt>
      <trkpt lat="45.69322" lon="6.23074">
        <ele>1960.356</ele>
        <time>2020-09-15 10:27:22</time>
      </trkpt>
      <trkpt lat="45.6932" lon="6.23074">
        <ele>1963.5674</ele>
        <time>2020-09-15 10:27:26</time>
      </trkpt>
      <trkpt lat="45.69317" lon="6.23073">
        <ele>1963.833</ele>
        <time>2020-09-15 10:27:31</time>
      </trkpt>
      <trkpt lat="45.69316" lon="6.23073">
        <ele>1965.5298</ele>
        <time>2020-09-15 10:27:36</time>
      </trkpt>
      <trkpt lat="45.69316" lon="6.23073">
        <ele>1967.0911</ele>
        <time>2020-09-15 10:27:41</time>
      </trkpt>
      <trkpt lat="45.69316" lon="6.23073">
        <ele>1967.4031</ele>
        <time>2020-09-15 10:27:42</time>
      </trkpt>
      <trkpt lat="45.69316" lon="6.23073">
        <ele>1964.7979</ele>
        <time>2020-09-15 10:27:43</time>
      </trkpt>
      <trkpt lat="45.69316" lon="6.23074">
        <ele>1968.3132</ele>
        <time>2020-09-15 10:27:44</time>
      </trkpt>
      <trkpt lat="45.69315" lon="6.23075">
        <ele>1968.7856</ele>
        <time>2020-09-15 10:27:51</time>
      </trkpt>
      <trkpt lat="45.69313" lon="6.23071">
        <ele>1967.6401</ele>
        <time>2020-09-15 10:27:56</time>
      </trkpt>
      <trkpt lat="45.69312" lon="6.23071">
        <ele>1968.831</ele>
        <time>2020-09-15 10:27:59</time>
      </trkpt>
      <trkpt lat="45.69312" lon="6.23071">
        <ele>1969.5928</ele>
        <time>2020-09-15 10:28:00</time>
      </trkpt>
      <trkpt lat="45.69311" lon="6.2307">
        <ele>1970.2095</ele>
        <time>2020-09-15 10:28:15</time>
      </trkpt>
      <trkpt lat="45.69311" lon="6.2307">
        <ele>1969.2368</ele>
        <time>2020-09-15 10:28:16</time>
      </trkpt>
      <trkpt lat="45.69309" lon="6.23072">
        <ele>1971.1084</ele>
        <time>2020-09-15 10:28:33</time>
      </trkpt>
      <trkpt lat="45.69309" lon="6.23072">
        <ele>1970.0659</ele>
        <time>2020-09-15 10:28:34</time>
      </trkpt>
      <trkpt lat="45.69308" lon="6.23073">
        <ele>1972.5547</ele>
        <time>2020-09-15 10:29:12</time>
      </trkpt>
      <trkpt lat="45.69308" lon="6.23073">
        <ele>1972.7007</ele>
        <time>2020-09-15 10:29:14</time>
      </trkpt>
      <trkpt lat="45.69306" lon="6.23074">
        <ele>1972.9622</ele>
        <time>2020-09-15 10:29:18</time>
      </trkpt>
      <trkpt lat="45.69306" lon="6.23074">
        <ele>1973.0344</ele>
        <time>2020-09-15 10:29:19</time>
      </trkpt>
      <trkpt lat="45.69311" lon="6.23077">
        <ele>1966.269</ele>
        <time>2020-09-15 10:32:36</time>
      </trkpt>
      <trkpt lat="45.6931" lon="6.23076">
        <ele>1967.6672</ele>
        <time>2020-09-15 10:33:03</time>
      </trkpt>
      <trkpt lat="45.6931" lon="6.23073">
        <ele>1971.7124</ele>
        <time>2020-09-15 10:45:53</time>
      </trkpt>
      <trkpt lat="45.6931" lon="6.23074">
        <ele>1970.7554</ele>
        <time>2020-09-15 10:45:54</time>
      </trkpt>
      <trkpt lat="45.69309" lon="6.23074">
        <ele>1970.5903</ele>
        <time>2020-09-15 10:45:55</time>
      </trkpt>
      <trkpt lat="45.69308" lon="6.23075">
        <ele>1970.3857</ele>
        <time>2020-09-15 10:45:56</time>
      </trkpt>
      <trkpt lat="45.6931" lon="6.23074">
        <ele>1971.5859</ele>
        <time>2020-09-15 10:46:27</time>
      </trkpt>
      <trkpt lat="45.69309" lon="6.23074">
        <ele>1971.6064</ele>
        <time>2020-09-15 10:46:57</time>
      </trkpt>
      <trkpt lat="45.69309" lon="6.23074">
        <ele>1971.6431</ele>
        <time>2020-09-15 10:47:27</time>
      </trkpt>
      <trkpt lat="45.69308" lon="6.23072">
        <ele>1971.3901</ele>
        <time>2020-09-15 10:48:34</time>
      </trkpt>
      <trkpt lat="45.69308" lon="6.23073">
        <ele>1971.6367</ele>
        <time>2020-09-15 10:48:39</time>
      </trkpt>
      <trkpt lat="45.69308" lon="6.23073">
        <ele>1971.2437</ele>
        <time>2020-09-15 10:48:40</time>
      </trkpt>
      <trkpt lat="45.69308" lon="6.23073">
        <ele>1970.4883</ele>
        <time>2020-09-15 10:48:44</time>
      </trkpt>
      <trkpt lat="45.69308" lon="6.23073">
        <ele>1970.2876</ele>
        <time>2020-09-15 10:48:45</time>
      </trkpt>
      <trkpt lat="45.69309" lon="6.23073">
        <ele>1970.3164</ele>
        <time>2020-09-15 10:49:00</time>
      </trkpt>
      <trkpt lat="45.6931" lon="6.23073">
        <ele>1968.4077</ele>
        <time>2020-09-15 10:49:01</time>
      </trkpt>
      <trkpt lat="45.69309" lon="6.23072">
        <ele>1968.0239</ele>
        <time>2020-09-15 10:50:15</time>
      </trkpt>
      <trkpt lat="45.69309" lon="6.23072">
        <ele>1968.0483</ele>
        <time>2020-09-15 10:50:46</time>
      </trkpt>
      <trkpt lat="45.69309" lon="6.23074">
        <ele>1969.1538</ele>
        <time>2020-09-15 10:53:32</time>
      </trkpt>
      <trkpt lat="45.69309" lon="6.23074">
        <ele>1968.3848</ele>
        <time>2020-09-15 10:53:33</time>
      </trkpt>
      <trkpt lat="45.69309" lon="6.23074">
        <ele>1968.4089</ele>
        <time>2020-09-15 10:53:37</time>
      </trkpt>
      <trkpt lat="45.69308" lon="6.23074">
        <ele>1969.0308</ele>
        <time>2020-09-15 10:53:38</time>
      </trkpt>
      <trkpt lat="45.69308" lon="6.23074">
        <ele>1970.2192</ele>
        <time>2020-09-15 10:53:39</time>
      </trkpt>
      <trkpt lat="45.69308" lon="6.23074">
        <ele>1970.44</ele>
        <time>2020-09-15 10:53:40</time>
      </trkpt>
      <trkpt lat="45.69307" lon="6.23074">
        <ele>1971.2236</ele>
        <time>2020-09-15 10:53:44</time>
      </trkpt>
      <trkpt lat="45.69307" lon="6.23074">
        <ele>1970.665</ele>
        <time>2020-09-15 10:53:45</time>
      </trkpt>
      <trkpt lat="45.69307" lon="6.23073">
        <ele>1971.6816</ele>
        <time>2020-09-15 10:54:15</time>
      </trkpt>
      <trkpt lat="45.69308" lon="6.23073">
        <ele>1971.0288</ele>
        <time>2020-09-15 10:54:27</time>
      </trkpt>
      <trkpt lat="45.69308" lon="6.23074">
        <ele>1970.6274</ele>
        <time>2020-09-15 10:54:28</time>
      </trkpt>
      <trkpt lat="45.69308" lon="6.23075">
        <ele>1971.0142</ele>
        <time>2020-09-15 10:54:58</time>
      </trkpt>
      <trkpt lat="45.69308" lon="6.23075">
        <ele>1971.0737</ele>
        <time>2020-09-15 10:55:28</time>
      </trkpt>
      <trkpt lat="45.69308" lon="6.23075">
        <ele>1971.1497</ele>
        <time>2020-09-15 10:55:59</time>
      </trkpt>
      <trkpt lat="45.69308" lon="6.23075">
        <ele>1971.6501</ele>
        <time>2020-09-15 10:56:02</time>
      </trkpt>
      <trkpt lat="45.69308" lon="6.23075">
        <ele>1971.1494</ele>
        <time>2020-09-15 10:56:04</time>
      </trkpt>
      <trkpt lat="45.69308" lon="6.23074">
        <ele>1972.9241</ele>
        <time>2020-09-15 10:56:35</time>
      </trkpt>
      <trkpt lat="45.69308" lon="6.23074">
        <ele>1972.9253</ele>
        <time>2020-09-15 10:57:05</time>
      </trkpt>
      <trkpt lat="45.69308" lon="6.23073">
        <ele>1973.1338</ele>
        <time>2020-09-15 10:57:13</time>
      </trkpt>
      <trkpt lat="45.69308" lon="6.23072">
        <ele>1973.373</ele>
        <time>2020-09-15 10:57:14</time>
      </trkpt>
      <trkpt lat="45.69308" lon="6.23071">
        <ele>1974.2251</ele>
        <time>2020-09-15 10:57:18</time>
      </trkpt>
      <trkpt lat="45.69307" lon="6.2307">
        <ele>1974.6904</ele>
        <time>2020-09-15 10:57:20</time>
      </trkpt>
      <trkpt lat="45.69306" lon="6.2307">
        <ele>1975.9897</ele>
        <time>2020-09-15 10:57:23</time>
      </trkpt>
      <trkpt lat="45.69306" lon="6.2307">
        <ele>1976.0813</ele>
        <time>2020-09-15 10:57:24</time>
      </trkpt>
      <trkpt lat="45.69306" lon="6.23071">
        <ele>1975.6992</ele>
        <time>2020-09-15 10:57:28</time>
      </trkpt>
      <trkpt lat="45.69306" lon="6.23072">
        <ele>1976.3354</ele>
        <time>2020-09-15 10:57:30</time>
      </trkpt>
      <trkpt lat="45.69306" lon="6.23074">
        <ele>1976.1064</ele>
        <time>2020-09-15 10:57:44</time>
      </trkpt>
      <trkpt lat="45.69306" lon="6.23074">
        <ele>1976.5215</ele>
        <time>2020-09-15 10:57:45</time>
      </trkpt>
      <trkpt lat="45.69305" lon="6.23075">
        <ele>1975.5288</ele>
        <time>2020-09-15 10:57:47</time>
      </trkpt>
      <trkpt lat="45.69305" lon="6.23076">
        <ele>1975.1426</ele>
        <time>2020-09-15 10:57:48</time>
      </trkpt>
      <trkpt lat="45.69305" lon="6.23076">
        <ele>1974.8193</ele>
        <time>2020-09-15 10:57:50</time>
      </trkpt>
      <trkpt lat="45.69304" lon="6.23076">
        <ele>1974.833</ele>
        <time>2020-09-15 10:57:51</time>
      </trkpt>
      <trkpt lat="45.69303" lon="6.23077">
        <ele>1976.5276</ele>
        <time>2020-09-15 10:58:12</time>
      </trkpt>
      <trkpt lat="45.69301" lon="6.23077">
        <ele>1977.0396</ele>
        <time>2020-09-15 10:58:14</time>
      </trkpt>
      <trkpt lat="45.69298" lon="6.23077">
        <ele>1977.2773</ele>
        <time>2020-09-15 10:58:19</time>
      </trkpt>
      <trkpt lat="45.69296" lon="6.23078">
        <ele>1976.7253</ele>
        <time>2020-09-15 10:58:25</time>
      </trkpt>
      <trkpt lat="45.69295" lon="6.23078">
        <ele>1976.7964</ele>
        <time>2020-09-15 10:58:26</time>
      </trkpt>
      <trkpt lat="45.69295" lon="6.23079">
        <ele>1976.1543</ele>
        <time>2020-09-15 10:58:27</time>
      </trkpt>
      <trkpt lat="45.69294" lon="6.23079">
        <ele>1976.0625</ele>
        <time>2020-09-15 10:58:28</time>
      </trkpt>
      <trkpt lat="45.69294" lon="6.23078">
        <ele>1978.9326</ele>
        <time>2020-09-15 10:58:43</time>
      </trkpt>
      <trkpt lat="45.69294" lon="6.23079">
        <ele>1978.8838</ele>
        <time>2020-09-15 10:58:44</time>
      </trkpt>
      <trkpt lat="45.69292" lon="6.23078">
        <ele>1978.158</ele>
        <time>2020-09-15 10:59:17</time>
      </trkpt>
      <trkpt lat="45.69292" lon="6.23078">
        <ele>1978.1428</ele>
        <time>2020-09-15 11:00:11</time>
      </trkpt>
      <trkpt lat="45.69291" lon="6.23078">
        <ele>1977.9258</ele>
        <time>2020-09-15 11:00:19</time>
      </trkpt>
      <trkpt lat="45.69291" lon="6.23079">
        <ele>1978.2314</ele>
        <time>2020-09-15 11:00:21</time>
      </trkpt>
      <trkpt lat="45.69289" lon="6.23079">
        <ele>1976.6006</ele>
        <time>2020-09-15 11:00:37</time>
      </trkpt>
      <trkpt lat="45.69289" lon="6.23079">
        <ele>1976.3638</ele>
        <time>2020-09-15 11:00:38</time>
      </trkpt>
      <trkpt lat="45.69288" lon="6.23079">
        <ele>1976.7664</ele>
        <time>2020-09-15 11:00:39</time>
      </trkpt>
      <trkpt lat="45.69288" lon="6.23079">
        <ele>1976.7085</ele>
        <time>2020-09-15 11:00:40</time>
      </trkpt>
      <trkpt lat="45.69287" lon="6.2308">
        <ele>1975.0564</ele>
        <time>2020-09-15 11:01:26</time>
      </trkpt>
      <trkpt lat="45.69287" lon="6.23079">
        <ele>1975.1138</ele>
        <time>2020-09-15 11:01:57</time>
      </trkpt>
      <trkpt lat="45.69287" lon="6.2308">
        <ele>1976.2983</ele>
        <time>2020-09-15 11:01:58</time>
      </trkpt>
      <trkpt lat="45.69286" lon="6.23081">
        <ele>1977.2983</ele>
        <time>2020-09-15 11:02:28</time>
      </trkpt>
      <trkpt lat="45.69286" lon="6.23081">
        <ele>1977.3579</ele>
        <time>2020-09-15 11:02:59</time>
      </trkpt>
      <trkpt lat="45.69286" lon="6.23081">
        <ele>1977.3911</ele>
        <time>2020-09-15 11:03:37</time>
      </trkpt>
      <trkpt lat="45.69286" lon="6.23081">
        <ele>1977.3884</ele>
        <time>2020-09-15 11:04:18</time>
      </trkpt>
      <trkpt lat="45.69286" lon="6.23081">
        <ele>1977.3608</ele>
        <time>2020-09-15 11:04:58</time>
      </trkpt>
      <trkpt lat="45.69286" lon="6.23081">
        <ele>1977.3911</ele>
        <time>2020-09-15 11:05:28</time>
      </trkpt>
      <trkpt lat="45.69286" lon="6.23081">
        <ele>1977.3755</ele>
        <time>2020-09-15 11:05:58</time>
      </trkpt>
      <trkpt lat="45.69285" lon="6.23081">
        <ele>1977.2576</ele>
        <time>2020-09-15 11:06:19</time>
      </trkpt>
      <trkpt lat="45.69285" lon="6.23081">
        <ele>1977.2776</ele>
        <time>2020-09-15 11:06:20</time>
      </trkpt>
      <trkpt lat="45.69284" lon="6.23081">
        <ele>1976.981</ele>
        <time>2020-09-15 11:06:22</time>
      </trkpt>
      <trkpt lat="45.69283" lon="6.23082">
        <ele>1978.2178</ele>
        <time>2020-09-15 11:07:03</time>
      </trkpt>
      <trkpt lat="45.69283" lon="6.23083">
        <ele>1978.9204</ele>
        <time>2020-09-15 11:07:13</time>
      </trkpt>
      <trkpt lat="45.69282" lon="6.23083">
        <ele>1979.3591</ele>
        <time>2020-09-15 11:07:14</time>
      </trkpt>
      <trkpt lat="45.69281" lon="6.23083">
        <ele>1980.4995</ele>
        <time>2020-09-15 11:07:44</time>
      </trkpt>
      <trkpt lat="45.69281" lon="6.23083">
        <ele>1979.1384</ele>
        <time>2020-09-15 11:08:02</time>
      </trkpt>
      <trkpt lat="45.6928" lon="6.23083">
        <ele>1979.105</ele>
        <time>2020-09-15 11:08:03</time>
      </trkpt>
      <trkpt lat="45.69279" lon="6.23084">
        <ele>1980.0938</ele>
        <time>2020-09-15 11:08:08</time>
      </trkpt>
      <trkpt lat="45.69279" lon="6.23084">
        <ele>1980.1665</ele>
        <time>2020-09-15 11:08:09</time>
      </trkpt>
      <trkpt lat="45.69279" lon="6.23084">
        <ele>1980.6104</ele>
        <time>2020-09-15 11:08:10</time>
      </trkpt>
      <trkpt lat="45.69278" lon="6.23084">
        <ele>1978.7126</ele>
        <time>2020-09-15 11:08:16</time>
      </trkpt>
      <trkpt lat="45.69278" lon="6.23084">
        <ele>1978.4106</ele>
        <time>2020-09-15 11:08:17</time>
      </trkpt>
      <trkpt lat="45.69277" lon="6.23085">
        <ele>1979.4951</ele>
        <time>2020-09-15 11:08:47</time>
      </trkpt>
      <trkpt lat="45.69277" lon="6.23085">
        <ele>1979.3579</ele>
        <time>2020-09-15 11:08:53</time>
      </trkpt>
      <trkpt lat="45.69277" lon="6.23085">
        <ele>1979.6763</ele>
        <time>2020-09-15 11:08:54</time>
      </trkpt>
      <trkpt lat="45.69275" lon="6.23085">
        <ele>1982.6914</ele>
        <time>2020-09-15 11:08:58</time>
      </trkpt>
      <trkpt lat="45.69274" lon="6.23085">
        <ele>1979.5234</ele>
        <time>2020-09-15 11:09:00</time>
      </trkpt>
      <trkpt lat="45.69274" lon="6.23085">
        <ele>1982.7188</ele>
        <time>2020-09-15 11:09:01</time>
      </trkpt>
      <trkpt lat="45.69273" lon="6.23085">
        <ele>1985.4211</ele>
        <time>2020-09-15 11:09:03</time>
      </trkpt>
      <trkpt lat="45.69272" lon="6.23086">
        <ele>1986.0654</ele>
        <time>2020-09-15 11:09:04</time>
      </trkpt>
      <trkpt lat="45.69272" lon="6.23086">
        <ele>1985.721</ele>
        <time>2020-09-15 11:09:05</time>
      </trkpt>
      <trkpt lat="45.6927" lon="6.23085">
        <ele>1985.0029</ele>
        <time>2020-09-15 11:09:15</time>
      </trkpt>
      <trkpt lat="45.69269" lon="6.23085">
        <ele>1985.9492</ele>
        <time>2020-09-15 11:09:16</time>
      </trkpt>
      <trkpt lat="45.69269" lon="6.23085">
        <ele>1986.3193</ele>
        <time>2020-09-15 11:09:17</time>
      </trkpt>
      <trkpt lat="45.69268" lon="6.23085">
        <ele>1989.3667</ele>
        <time>2020-09-15 11:09:19</time>
      </trkpt>
      <trkpt lat="45.69266" lon="6.23084">
        <ele>1990.3003</ele>
        <time>2020-09-15 11:09:40</time>
      </trkpt>
      <trkpt lat="45.69266" lon="6.23084">
        <ele>1990.1528</ele>
        <time>2020-09-15 11:09:41</time>
      </trkpt>
      <trkpt lat="45.69264" lon="6.23081">
        <ele>1989.477</ele>
        <time>2020-09-15 11:10:13</time>
      </trkpt>
      <trkpt lat="45.69264" lon="6.2308">
        <ele>1990.5476</ele>
        <time>2020-09-15 11:10:57</time>
      </trkpt>
      <trkpt lat="45.69264" lon="6.23078">
        <ele>1990.3584</ele>
        <time>2020-09-15 11:11:12</time>
      </trkpt>
      <trkpt lat="45.69263" lon="6.23077">
        <ele>1991.5254</ele>
        <time>2020-09-15 11:11:13</time>
      </trkpt>
      <trkpt lat="45.69263" lon="6.23077">
        <ele>1993.6011</ele>
        <time>2020-09-15 11:11:36</time>
      </trkpt>
      <trkpt lat="45.69263" lon="6.23077">
        <ele>1992.4019</ele>
        <time>2020-09-15 11:11:37</time>
      </trkpt>
      <trkpt lat="45.69262" lon="6.23075">
        <ele>1994.2673</ele>
        <time>2020-09-15 11:11:41</time>
      </trkpt>
      <trkpt lat="45.69262" lon="6.23074">
        <ele>1994.9165</ele>
        <time>2020-09-15 11:11:42</time>
      </trkpt>
      <trkpt lat="45.69261" lon="6.23074">
        <ele>1996.7913</ele>
        <time>2020-09-15 11:11:45</time>
      </trkpt>
      <trkpt lat="45.69261" lon="6.23074">
        <ele>1996.9033</ele>
        <time>2020-09-15 11:11:46</time>
      </trkpt>
      <trkpt lat="45.6926" lon="6.23073">
        <ele>1993.6011</ele>
        <time>2020-09-15 11:11:47</time>
      </trkpt>
      <trkpt lat="45.69259" lon="6.23072">
        <ele>1998.7246</ele>
        <time>2020-09-15 11:11:50</time>
      </trkpt>
      <trkpt lat="45.69259" lon="6.23071">
        <ele>1998.5234</ele>
        <time>2020-09-15 11:11:51</time>
      </trkpt>
      <trkpt lat="45.69259" lon="6.2307">
        <ele>1998.4292</ele>
        <time>2020-09-15 11:11:52</time>
      </trkpt>
      <trkpt lat="45.69258" lon="6.23069">
        <ele>1997.3047</ele>
        <time>2020-09-15 11:11:57</time>
      </trkpt>
      <trkpt lat="45.69258" lon="6.23069">
        <ele>1998.2578</ele>
        <time>2020-09-15 11:11:58</time>
      </trkpt>
      <trkpt lat="45.69258" lon="6.23069">
        <ele>1998.2764</ele>
        <time>2020-09-15 11:11:59</time>
      </trkpt>
      <trkpt lat="45.69258" lon="6.23068">
        <ele>1999.0474</ele>
        <time>2020-09-15 11:12:00</time>
      </trkpt>
      <trkpt lat="45.69258" lon="6.23067">
        <ele>1999.0332</ele>
        <time>2020-09-15 11:12:02</time>
      </trkpt>
      <trkpt lat="45.69259" lon="6.23066">
        <ele>1999.3052</ele>
        <time>2020-09-15 11:12:25</time>
      </trkpt>
      <trkpt lat="45.69259" lon="6.23065">
        <ele>1999.3147</ele>
        <time>2020-09-15 11:12:26</time>
      </trkpt>
      <trkpt lat="45.69259" lon="6.2306">
        <ele>2002.6704</ele>
        <time>2020-09-15 11:14:03</time>
      </trkpt>
      <trkpt lat="45.69259" lon="6.23059">
        <ele>2002.8689</ele>
        <time>2020-09-15 11:14:04</time>
      </trkpt>
      <trkpt lat="45.69259" lon="6.23058">
        <ele>2002.2385</ele>
        <time>2020-09-15 11:14:05</time>
      </trkpt>
      <trkpt lat="45.69254" lon="6.23057">
        <ele>2002.0034</ele>
        <time>2020-09-15 11:14:12</time>
      </trkpt>
      <trkpt lat="45.69254" lon="6.23057">
        <ele>2001.0874</ele>
        <time>2020-09-15 11:14:13</time>
      </trkpt>
      <trkpt lat="45.69254" lon="6.23057">
        <ele>2000.3572</ele>
        <time>2020-09-15 11:14:14</time>
      </trkpt>
      <trkpt lat="45.69253" lon="6.23058">
        <ele>2001.6855</ele>
        <time>2020-09-15 11:14:17</time>
      </trkpt>
      <trkpt lat="45.69253" lon="6.23058">
        <ele>2001.7712</ele>
        <time>2020-09-15 11:14:21</time>
      </trkpt>
      <trkpt lat="45.69253" lon="6.23058">
        <ele>2001.9802</ele>
        <time>2020-09-15 11:14:22</time>
      </trkpt>
      <trkpt lat="45.69253" lon="6.23057">
        <ele>2001.604</ele>
        <time>2020-09-15 11:14:24</time>
      </trkpt>
      <trkpt lat="45.69253" lon="6.23057">
        <ele>2001.06</ele>
        <time>2020-09-15 11:14:25</time>
      </trkpt>
      <trkpt lat="45.69253" lon="6.23056">
        <ele>2001.2241</ele>
        <time>2020-09-15 11:14:27</time>
      </trkpt>
      <trkpt lat="45.69252" lon="6.23056">
        <ele>2001.8347</ele>
        <time>2020-09-15 11:14:28</time>
      </trkpt>
      <trkpt lat="45.69248" lon="6.23053">
        <ele>1998.8066</ele>
        <time>2020-09-15 11:14:35</time>
      </trkpt>
      <trkpt lat="45.69247" lon="6.23053">
        <ele>1998.9243</ele>
        <time>2020-09-15 11:15:06</time>
      </trkpt>
      <trkpt lat="45.69247" lon="6.23052">
        <ele>1998.4302</ele>
        <time>2020-09-15 11:15:07</time>
      </trkpt>
      <trkpt lat="45.69245" lon="6.23051">
        <ele>2000.0078</ele>
        <time>2020-09-15 11:15:39</time>
      </trkpt>
      <trkpt lat="45.69244" lon="6.23051">
        <ele>1999.6475</ele>
        <time>2020-09-15 11:15:58</time>
      </trkpt>
      <trkpt lat="45.69244" lon="6.23051">
        <ele>2000.352</ele>
        <time>2020-09-15 11:16:00</time>
      </trkpt>
      <trkpt lat="45.69245" lon="6.23052">
        <ele>2001.5117</ele>
        <time>2020-09-15 11:16:09</time>
      </trkpt>
      <trkpt lat="45.69244" lon="6.23051">
        <ele>2000.8647</ele>
        <time>2020-09-15 11:16:12</time>
      </trkpt>
      <trkpt lat="45.69244" lon="6.2305">
        <ele>2000.8647</ele>
        <time>2020-09-15 11:16:21</time>
      </trkpt>
      <trkpt lat="45.69244" lon="6.23051">
        <ele>2000.7676</ele>
        <time>2020-09-15 11:16:22</time>
      </trkpt>
      <trkpt lat="45.69243" lon="6.2305">
        <ele>1998.2847</ele>
        <time>2020-09-15 11:16:29</time>
      </trkpt>
      <trkpt lat="45.69243" lon="6.2305">
        <ele>1997.5522</ele>
        <time>2020-09-15 11:16:30</time>
      </trkpt>
      <trkpt lat="45.69242" lon="6.23049">
        <ele>1995.5747</ele>
        <time>2020-09-15 11:16:59</time>
      </trkpt>
      <trkpt lat="45.69242" lon="6.23049">
        <ele>1995.5996</ele>
        <time>2020-09-15 11:17:01</time>
      </trkpt>
      <trkpt lat="45.69242" lon="6.23049">
        <ele>1996.7517</ele>
        <time>2020-09-15 11:17:06</time>
      </trkpt>
      <trkpt lat="45.69243" lon="6.2305">
        <ele>1997.6401</ele>
        <time>2020-09-15 11:17:07</time>
      </trkpt>
      <trkpt lat="45.69245" lon="6.2305">
        <ele>1996.4729</ele>
        <time>2020-09-15 11:17:14</time>
      </trkpt>
      <trkpt lat="45.69244" lon="6.2305">
        <ele>1995.508</ele>
        <time>2020-09-15 11:17:18</time>
      </trkpt>
      <trkpt lat="45.69244" lon="6.2305">
        <ele>1995.759</ele>
        <time>2020-09-15 11:17:49</time>
      </trkpt>
      <trkpt lat="45.69244" lon="6.2305">
        <ele>1995.1777</ele>
        <time>2020-09-15 11:17:50</time>
      </trkpt>
      <trkpt lat="45.69243" lon="6.23052">
        <ele>1995.2734</ele>
        <time>2020-09-15 11:18:03</time>
      </trkpt>
      <trkpt lat="45.69243" lon="6.23051">
        <ele>1994.5977</ele>
        <time>2020-09-15 11:18:04</time>
      </trkpt>
      <trkpt lat="45.69243" lon="6.23052">
        <ele>1994.7476</ele>
        <time>2020-09-15 11:18:06</time>
      </trkpt>
      <trkpt lat="45.69243" lon="6.23052">
        <ele>1994.9458</ele>
        <time>2020-09-15 11:18:07</time>
      </trkpt>
      <trkpt lat="45.69244" lon="6.23053">
        <ele>1995.0107</ele>
        <time>2020-09-15 11:18:31</time>
      </trkpt>
      <trkpt lat="45.69243" lon="6.23054">
        <ele>1994.8884</ele>
        <time>2020-09-15 11:18:32</time>
      </trkpt>
      <trkpt lat="45.69243" lon="6.23054">
        <ele>1994.7119</ele>
        <time>2020-09-15 11:18:34</time>
      </trkpt>
      <trkpt lat="45.69242" lon="6.23052">
        <ele>1996.1792</ele>
        <time>2020-09-15 11:19:05</time>
      </trkpt>
      <trkpt lat="45.69242" lon="6.23052">
        <ele>1996.1743</ele>
        <time>2020-09-15 11:19:35</time>
      </trkpt>
      <trkpt lat="45.69242" lon="6.23053">
        <ele>1996.7449</ele>
        <time>2020-09-15 11:19:43</time>
      </trkpt>
      <trkpt lat="45.69241" lon="6.23053">
        <ele>1996.1743</ele>
        <time>2020-09-15 11:19:44</time>
      </trkpt>
      <trkpt lat="45.69241" lon="6.23053">
        <ele>1997.7607</ele>
        <time>2020-09-15 11:19:46</time>
      </trkpt>
      <trkpt lat="45.6924" lon="6.23053">
        <ele>1998.322</ele>
        <time>2020-09-15 11:19:47</time>
      </trkpt>
      <trkpt lat="45.69239" lon="6.23053">
        <ele>1999.145</ele>
        <time>2020-09-15 11:19:48</time>
      </trkpt>
      <trkpt lat="45.69239" lon="6.23053">
        <ele>1999.154</ele>
        <time>2020-09-15 11:19:49</time>
      </trkpt>
      <trkpt lat="45.69236" lon="6.23052">
        <ele>2002.8445</ele>
        <time>2020-09-15 11:20:00</time>
      </trkpt>
      <trkpt lat="45.69235" lon="6.23052">
        <ele>2002.0303</ele>
        <time>2020-09-15 11:20:01</time>
      </trkpt>
      <trkpt lat="45.69234" lon="6.23052">
        <ele>2000.438</ele>
        <time>2020-09-15 11:20:04</time>
      </trkpt>
      <trkpt lat="45.69234" lon="6.23053">
        <ele>2002.3148</ele>
        <time>2020-09-15 11:20:05</time>
      </trkpt>
      <trkpt lat="45.69233" lon="6.23053">
        <ele>1999.9441</ele>
        <time>2020-09-15 11:20:32</time>
      </trkpt>
      <trkpt lat="45.69233" lon="6.23054">
        <ele>2000.9556</ele>
        <time>2020-09-15 11:20:33</time>
      </trkpt>
      <trkpt lat="45.69232" lon="6.23054">
        <ele>2000.9121</ele>
        <time>2020-09-15 11:20:40</time>
      </trkpt>
      <trkpt lat="45.69231" lon="6.23055">
        <ele>2000.0049</ele>
        <time>2020-09-15 11:20:41</time>
      </trkpt>
      <trkpt lat="45.6923" lon="6.23055">
        <ele>2001.311</ele>
        <time>2020-09-15 11:20:46</time>
      </trkpt>
      <trkpt lat="45.69229" lon="6.23056">
        <ele>2001.0632</ele>
        <time>2020-09-15 11:20:48</time>
      </trkpt>
      <trkpt lat="45.69228" lon="6.23057">
        <ele>2000.1699</ele>
        <time>2020-09-15 11:20:49</time>
      </trkpt>
      <trkpt lat="45.69227" lon="6.23057">
        <ele>2000.7051</ele>
        <time>2020-09-15 11:20:50</time>
      </trkpt>
      <trkpt lat="45.69226" lon="6.23057">
        <ele>2003.2495</ele>
        <time>2020-09-15 11:21:07</time>
      </trkpt>
      <trkpt lat="45.69225" lon="6.23058">
        <ele>2003.7917</ele>
        <time>2020-09-15 11:21:08</time>
      </trkpt>
      <trkpt lat="45.69225" lon="6.23058">
        <ele>2002.0083</ele>
        <time>2020-09-15 11:21:42</time>
      </trkpt>
      <trkpt lat="45.69224" lon="6.23058">
        <ele>2002.8127</ele>
        <time>2020-09-15 11:21:44</time>
      </trkpt>
      <trkpt lat="45.69224" lon="6.23059">
        <ele>2001.9653</ele>
        <time>2020-09-15 11:21:45</time>
      </trkpt>
      <trkpt lat="45.69223" lon="6.23059">
        <ele>2004.2056</ele>
        <time>2020-09-15 11:21:46</time>
      </trkpt>
      <trkpt lat="45.69224" lon="6.23058">
        <ele>2002.7007</ele>
        <time>2020-09-15 11:22:17</time>
      </trkpt>
      <trkpt lat="45.69224" lon="6.23059">
        <ele>2002.925</ele>
        <time>2020-09-15 11:22:45</time>
      </trkpt>
      <trkpt lat="45.69224" lon="6.23059">
        <ele>2003.5615</ele>
        <time>2020-09-15 11:22:46</time>
      </trkpt>
      <trkpt lat="45.69224" lon="6.2306">
        <ele>2002.749</ele>
        <time>2020-09-15 11:22:48</time>
      </trkpt>
      <trkpt lat="45.69224" lon="6.2306">
        <ele>2004.4551</ele>
        <time>2020-09-15 11:22:50</time>
      </trkpt>
      <trkpt lat="45.69223" lon="6.2306">
        <ele>2004.1736</ele>
        <time>2020-09-15 11:22:51</time>
      </trkpt>
      <trkpt lat="45.69222" lon="6.23061">
        <ele>2004.2083</ele>
        <time>2020-09-15 11:22:56</time>
      </trkpt>
      <trkpt lat="45.69221" lon="6.23062">
        <ele>2004.678</ele>
        <time>2020-09-15 11:22:57</time>
      </trkpt>
      <trkpt lat="45.69221" lon="6.23062">
        <ele>2004.9788</ele>
        <time>2020-09-15 11:22:58</time>
      </trkpt>
      <trkpt lat="45.69221" lon="6.23064">
        <ele>2002.5972</ele>
        <time>2020-09-15 11:23:09</time>
      </trkpt>
      <trkpt lat="45.69221" lon="6.23064">
        <ele>2003.5608</ele>
        <time>2020-09-15 11:23:10</time>
      </trkpt>
      <trkpt lat="45.69222" lon="6.23063">
        <ele>1999.019</ele>
        <time>2020-09-15 11:23:58</time>
      </trkpt>
      <trkpt lat="45.69222" lon="6.23062">
        <ele>1997.165</ele>
        <time>2020-09-15 11:24:02</time>
      </trkpt>
      <trkpt lat="45.69221" lon="6.23061">
        <ele>1998.1797</ele>
        <time>2020-09-15 11:24:04</time>
      </trkpt>
      <trkpt lat="45.6922" lon="6.23062">
        <ele>1998.4038</ele>
        <time>2020-09-15 11:24:05</time>
      </trkpt>
      <trkpt lat="45.6922" lon="6.23062">
        <ele>1997.0535</ele>
        <time>2020-09-15 11:24:07</time>
      </trkpt>
      <trkpt lat="45.69219" lon="6.23061">
        <ele>1997.0919</ele>
        <time>2020-09-15 11:24:08</time>
      </trkpt>
      <trkpt lat="45.69219" lon="6.23061">
        <ele>1998.6538</ele>
        <time>2020-09-15 11:24:10</time>
      </trkpt>
      <trkpt lat="45.69218" lon="6.23061">
        <ele>1998.1499</ele>
        <time>2020-09-15 11:24:13</time>
      </trkpt>
      <trkpt lat="45.69216" lon="6.2306">
        <ele>1996.1216</ele>
        <time>2020-09-15 11:24:16</time>
      </trkpt>
      <trkpt lat="45.69216" lon="6.23059">
        <ele>1996.835</ele>
        <time>2020-09-15 11:24:17</time>
      </trkpt>
      <trkpt lat="45.69215" lon="6.2306">
        <ele>1996.4902</ele>
        <time>2020-09-15 11:24:18</time>
      </trkpt>
      <trkpt lat="45.69215" lon="6.2306">
        <ele>1998.6538</ele>
        <time>2020-09-15 11:24:19</time>
      </trkpt>
      <trkpt lat="45.69214" lon="6.2306">
        <ele>1999.9053</ele>
        <time>2020-09-15 11:24:22</time>
      </trkpt>
      <trkpt lat="45.69214" lon="6.2306">
        <ele>2001.1714</ele>
        <time>2020-09-15 11:24:30</time>
      </trkpt>
      <trkpt lat="45.69214" lon="6.23057">
        <ele>2002.4075</ele>
        <time>2020-09-15 11:24:34</time>
      </trkpt>
      <trkpt lat="45.69214" lon="6.23057">
        <ele>2003.1138</ele>
        <time>2020-09-15 11:24:35</time>
      </trkpt>
      <trkpt lat="45.69214" lon="6.23057">
        <ele>2003.7336</ele>
        <time>2020-09-15 11:24:36</time>
      </trkpt>
      <trkpt lat="45.69214" lon="6.23056">
        <ele>2003.2632</ele>
        <time>2020-09-15 11:24:37</time>
      </trkpt>
      <trkpt lat="45.69214" lon="6.23056">
        <ele>2001.1714</ele>
        <time>2020-09-15 11:24:39</time>
      </trkpt>
      <trkpt lat="45.69211" lon="6.23055">
        <ele>2006.1304</ele>
        <time>2020-09-15 11:24:43</time>
      </trkpt>
      <trkpt lat="45.69209" lon="6.23055">
        <ele>2006.3384</ele>
        <time>2020-09-15 11:24:47</time>
      </trkpt>
      <trkpt lat="45.69205" lon="6.23055">
        <ele>2009.6658</ele>
        <time>2020-09-15 11:24:53</time>
      </trkpt>
      <trkpt lat="45.69202" lon="6.23055">
        <ele>2008.8567</ele>
        <time>2020-09-15 11:24:58</time>
      </trkpt>
      <trkpt lat="45.69201" lon="6.23055">
        <ele>2008.7925</ele>
        <time>2020-09-15 11:24:59</time>
      </trkpt>
      <trkpt lat="45.69199" lon="6.23056">
        <ele>2011.3779</ele>
        <time>2020-09-15 11:25:04</time>
      </trkpt>
      <trkpt lat="45.69197" lon="6.23055">
        <ele>2011.3188</ele>
        <time>2020-09-15 11:25:12</time>
      </trkpt>
      <trkpt lat="45.69195" lon="6.23053">
        <ele>2012.5088</ele>
        <time>2020-09-15 11:25:18</time>
      </trkpt>
      <trkpt lat="45.69195" lon="6.23053">
        <ele>2012.6807</ele>
        <time>2020-09-15 11:25:23</time>
      </trkpt>
      <trkpt lat="45.69194" lon="6.23052">
        <ele>2014.06</ele>
        <time>2020-09-15 11:25:25</time>
      </trkpt>
      <trkpt lat="45.69193" lon="6.23052">
        <ele>2012.9956</ele>
        <time>2020-09-15 11:25:26</time>
      </trkpt>
      <trkpt lat="45.69193" lon="6.23052">
        <ele>2013.0996</ele>
        <time>2020-09-15 11:25:27</time>
      </trkpt>
      <trkpt lat="45.69192" lon="6.23052">
        <ele>2013.812</ele>
        <time>2020-09-15 11:25:28</time>
      </trkpt>
      <trkpt lat="45.69192" lon="6.23052">
        <ele>2014.5422</ele>
        <time>2020-09-15 11:25:29</time>
      </trkpt>
      <trkpt lat="45.69191" lon="6.23052">
        <ele>2015.9873</ele>
        <time>2020-09-15 11:25:32</time>
      </trkpt>
      <trkpt lat="45.69186" lon="6.23052">
        <ele>2015.7661</ele>
        <time>2020-09-15 11:25:40</time>
      </trkpt>
      <trkpt lat="45.69185" lon="6.23052">
        <ele>2015.9644</ele>
        <time>2020-09-15 11:25:41</time>
      </trkpt>
      <trkpt lat="45.69185" lon="6.23051">
        <ele>2016.3735</ele>
        <time>2020-09-15 11:25:42</time>
      </trkpt>
      <trkpt lat="45.69179" lon="6.23052">
        <ele>2017.7178</ele>
        <time>2020-09-15 11:25:50</time>
      </trkpt>
      <trkpt lat="45.69177" lon="6.23053">
        <ele>2018.5393</ele>
        <time>2020-09-15 11:25:53</time>
      </trkpt>
      <trkpt lat="45.69177" lon="6.23053">
        <ele>2018.6404</ele>
        <time>2020-09-15 11:25:54</time>
      </trkpt>
      <trkpt lat="45.69176" lon="6.23053">
        <ele>2018.4832</ele>
        <time>2020-09-15 11:25:55</time>
      </trkpt>
      <trkpt lat="45.69173" lon="6.23054">
        <ele>2018.0952</ele>
        <time>2020-09-15 11:25:58</time>
      </trkpt>
      <trkpt lat="45.6917" lon="6.23053">
        <ele>2018.4651</ele>
        <time>2020-09-15 11:26:02</time>
      </trkpt>
      <trkpt lat="45.6917" lon="6.23053">
        <ele>2019.208</ele>
        <time>2020-09-15 11:26:03</time>
      </trkpt>
      <trkpt lat="45.69169" lon="6.23053">
        <ele>2019.0259</ele>
        <time>2020-09-15 11:26:04</time>
      </trkpt>
      <trkpt lat="45.69168" lon="6.23054">
        <ele>2019.0986</ele>
        <time>2020-09-15 11:26:06</time>
      </trkpt>
      <trkpt lat="45.6916" lon="6.23058">
        <ele>2020.1953</ele>
        <time>2020-09-15 11:26:15</time>
      </trkpt>
      <trkpt lat="45.69158" lon="6.2306">
        <ele>2020.3218</ele>
        <time>2020-09-15 11:26:19</time>
      </trkpt>
      <trkpt lat="45.69153" lon="6.23064">
        <ele>2024.0454</ele>
        <time>2020-09-15 11:26:27</time>
      </trkpt>
      <trkpt lat="45.69151" lon="6.23067">
        <ele>2023.3262</ele>
        <time>2020-09-15 11:26:32</time>
      </trkpt>
      <trkpt lat="45.69151" lon="6.23067">
        <ele>2023.7195</ele>
        <time>2020-09-15 11:26:34</time>
      </trkpt>
      <trkpt lat="45.6915" lon="6.23067">
        <ele>2023.9248</ele>
        <time>2020-09-15 11:26:35</time>
      </trkpt>
      <trkpt lat="45.6915" lon="6.23068">
        <ele>2024.2292</ele>
        <time>2020-09-15 11:26:36</time>
      </trkpt>
      <trkpt lat="45.6915" lon="6.23068">
        <ele>2024.1187</ele>
        <time>2020-09-15 11:26:37</time>
      </trkpt>
      <trkpt lat="45.69147" lon="6.23069">
        <ele>2025.3499</ele>
        <time>2020-09-15 11:26:41</time>
      </trkpt>
      <trkpt lat="45.69148" lon="6.23069">
        <ele>2023.7195</ele>
        <time>2020-09-15 11:26:43</time>
      </trkpt>
      <trkpt lat="45.69147" lon="6.23069">
        <ele>2026.3098</ele>
        <time>2020-09-15 11:26:44</time>
      </trkpt>
      <trkpt lat="45.69145" lon="6.2307">
        <ele>2028.2158</ele>
        <time>2020-09-15 11:26:51</time>
      </trkpt>
      <trkpt lat="45.69145" lon="6.23069">
        <ele>2028.2522</ele>
        <time>2020-09-15 11:26:52</time>
      </trkpt>
      <trkpt lat="45.69145" lon="6.23069">
        <ele>2026.3098</ele>
        <time>2020-09-15 11:26:53</time>
      </trkpt>
      <trkpt lat="45.69143" lon="6.23068">
        <ele>2028.7466</ele>
        <time>2020-09-15 11:26:57</time>
      </trkpt>
      <trkpt lat="45.69142" lon="6.23068">
        <ele>2029.4917</ele>
        <time>2020-09-15 11:26:59</time>
      </trkpt>
      <trkpt lat="45.69141" lon="6.23069">
        <ele>2028.7646</ele>
        <time>2020-09-15 11:27:02</time>
      </trkpt>
      <trkpt lat="45.6914" lon="6.2307">
        <ele>2028.6653</ele>
        <time>2020-09-15 11:27:04</time>
      </trkpt>
      <trkpt lat="45.69139" lon="6.23071">
        <ele>2028.7012</ele>
        <time>2020-09-15 11:27:05</time>
      </trkpt>
      <trkpt lat="45.69137" lon="6.23073">
        <ele>2029.3433</ele>
        <time>2020-09-15 11:27:09</time>
      </trkpt>
      <trkpt lat="45.69135" lon="6.2308">
        <ele>2028.9443</ele>
        <time>2020-09-15 11:27:20</time>
      </trkpt>
      <trkpt lat="45.69135" lon="6.2308">
        <ele>2029.7046</ele>
        <time>2020-09-15 11:27:22</time>
      </trkpt>
      <trkpt lat="45.69135" lon="6.23079">
        <ele>2031.4419</ele>
        <time>2020-09-15 11:28:00</time>
      </trkpt>
      <trkpt lat="45.69135" lon="6.23079">
        <ele>2032.583</ele>
        <time>2020-09-15 11:28:01</time>
      </trkpt>
      <trkpt lat="45.69135" lon="6.2308">
        <ele>2032.4028</ele>
        <time>2020-09-15 11:28:02</time>
      </trkpt>
      <trkpt lat="45.69133" lon="6.23081">
        <ele>2030.4438</ele>
        <time>2020-09-15 11:28:24</time>
      </trkpt>
      <trkpt lat="45.69133" lon="6.23081">
        <ele>2031.0063</ele>
        <time>2020-09-15 11:28:25</time>
      </trkpt>
      <trkpt lat="45.69133" lon="6.23081">
        <ele>2033.0557</ele>
        <time>2020-09-15 11:28:28</time>
      </trkpt>
      <trkpt lat="45.69132" lon="6.23082">
        <ele>2031.6572</ele>
        <time>2020-09-15 11:28:29</time>
      </trkpt>
      <trkpt lat="45.69132" lon="6.23083">
        <ele>2031.6279</ele>
        <time>2020-09-15 11:28:30</time>
      </trkpt>
      <trkpt lat="45.69131" lon="6.23084">
        <ele>2032.1602</ele>
        <time>2020-09-15 11:28:31</time>
      </trkpt>
      <trkpt lat="45.6913" lon="6.23085">
        <ele>2032.5801</ele>
        <time>2020-09-15 11:28:33</time>
      </trkpt>
      <trkpt lat="45.6913" lon="6.23086">
        <ele>2032.2319</ele>
        <time>2020-09-15 11:28:34</time>
      </trkpt>
      <trkpt lat="45.6913" lon="6.23087">
        <ele>2033.0557</ele>
        <time>2020-09-15 11:28:37</time>
      </trkpt>
      <trkpt lat="45.69129" lon="6.23088">
        <ele>2031.7324</ele>
        <time>2020-09-15 11:28:38</time>
      </trkpt>
      <trkpt lat="45.69128" lon="6.23089">
        <ele>2032.1575</ele>
        <time>2020-09-15 11:28:40</time>
      </trkpt>
      <trkpt lat="45.69128" lon="6.23089">
        <ele>2032.6616</ele>
        <time>2020-09-15 11:28:52</time>
      </trkpt>
      <trkpt lat="45.69127" lon="6.2309">
        <ele>2032.5483</ele>
        <time>2020-09-15 11:28:54</time>
      </trkpt>
      <trkpt lat="45.69127" lon="6.23089">
        <ele>2033.6597</ele>
        <time>2020-09-15 11:28:59</time>
      </trkpt>
      <trkpt lat="45.69126" lon="6.23091">
        <ele>2033.1938</ele>
        <time>2020-09-15 11:29:02</time>
      </trkpt>
      <trkpt lat="45.69124" lon="6.23092">
        <ele>2031.6599</ele>
        <time>2020-09-15 11:29:12</time>
      </trkpt>
      <trkpt lat="45.69124" lon="6.23092">
        <ele>2031.4377</ele>
        <time>2020-09-15 11:29:13</time>
      </trkpt>
      <trkpt lat="45.69123" lon="6.23094">
        <ele>2032.4893</ele>
        <time>2020-09-15 11:29:24</time>
      </trkpt>
      <trkpt lat="45.69123" lon="6.23094">
        <ele>2033.0659</ele>
        <time>2020-09-15 11:29:25</time>
      </trkpt>
      <trkpt lat="45.69122" lon="6.23094">
        <ele>2033.479</ele>
        <time>2020-09-15 11:29:46</time>
      </trkpt>
      <trkpt lat="45.69122" lon="6.23093">
        <ele>2034.77</ele>
        <time>2020-09-15 11:29:47</time>
      </trkpt>
      <trkpt lat="45.69122" lon="6.23093">
        <ele>2034.617</ele>
        <time>2020-09-15 11:29:48</time>
      </trkpt>
      <trkpt lat="45.69121" lon="6.23092">
        <ele>2034.6787</ele>
        <time>2020-09-15 11:29:53</time>
      </trkpt>
      <trkpt lat="45.69121" lon="6.23092">
        <ele>2035.1484</ele>
        <time>2020-09-15 11:29:54</time>
      </trkpt>
      <trkpt lat="45.6912" lon="6.23092">
        <ele>2035.4377</ele>
        <time>2020-09-15 11:30:00</time>
      </trkpt>
      <trkpt lat="45.6912" lon="6.23092">
        <ele>2036.0532</ele>
        <time>2020-09-15 11:30:01</time>
      </trkpt>
      <trkpt lat="45.69119" lon="6.23093">
        <ele>2036.657</ele>
        <time>2020-09-15 11:30:06</time>
      </trkpt>
      <trkpt lat="45.69119" lon="6.23094">
        <ele>2036.5474</ele>
        <time>2020-09-15 11:30:07</time>
      </trkpt>
      <trkpt lat="45.69118" lon="6.23094">
        <ele>2036.6589</ele>
        <time>2020-09-15 11:30:10</time>
      </trkpt>
      <trkpt lat="45.69117" lon="6.23095">
        <ele>2037.2832</ele>
        <time>2020-09-15 11:30:11</time>
      </trkpt>
      <trkpt lat="45.69117" lon="6.23095">
        <ele>2038.5144</ele>
        <time>2020-09-15 11:30:14</time>
      </trkpt>
      <trkpt lat="45.69117" lon="6.23095">
        <ele>2039.0059</ele>
        <time>2020-09-15 11:30:16</time>
      </trkpt>
      <trkpt lat="45.69116" lon="6.23095">
        <ele>2040.1079</ele>
        <time>2020-09-15 11:30:17</time>
      </trkpt>
      <trkpt lat="45.69116" lon="6.23095">
        <ele>2040.9971</ele>
        <time>2020-09-15 11:30:18</time>
      </trkpt>
      <trkpt lat="45.69116" lon="6.23094">
        <ele>2036.6589</ele>
        <time>2020-09-15 11:30:19</time>
      </trkpt>
      <trkpt lat="45.69116" lon="6.23094">
        <ele>2041.0347</ele>
        <time>2020-09-15 11:30:20</time>
      </trkpt>
      <trkpt lat="45.69115" lon="6.23095">
        <ele>2040.8501</ele>
        <time>2020-09-15 11:30:22</time>
      </trkpt>
      <trkpt lat="45.69114" lon="6.23097">
        <ele>2043.5303</ele>
        <time>2020-09-15 11:30:26</time>
      </trkpt>
      <trkpt lat="45.69114" lon="6.23098">
        <ele>2041.0347</ele>
        <time>2020-09-15 11:30:29</time>
      </trkpt>
      <trkpt lat="45.69114" lon="6.23099">
        <ele>2042.9219</ele>
        <time>2020-09-15 11:30:30</time>
      </trkpt>
      <trkpt lat="45.69114" lon="6.231">
        <ele>2043.4131</ele>
        <time>2020-09-15 11:30:32</time>
      </trkpt>
      <trkpt lat="45.69114" lon="6.231">
        <ele>2044.5674</ele>
        <time>2020-09-15 11:30:36</time>
      </trkpt>
      <trkpt lat="45.69113" lon="6.23101">
        <ele>2042.9219</ele>
        <time>2020-09-15 11:30:39</time>
      </trkpt>
      <trkpt lat="45.69112" lon="6.23102">
        <ele>2046.4038</ele>
        <time>2020-09-15 11:30:50</time>
      </trkpt>
      <trkpt lat="45.69112" lon="6.23102">
        <ele>2047.0254</ele>
        <time>2020-09-15 11:30:51</time>
      </trkpt>
      <trkpt lat="45.69114" lon="6.23104">
        <ele>2049.4878</ele>
        <time>2020-09-15 11:31:22</time>
      </trkpt>
      <trkpt lat="45.69114" lon="6.23104">
        <ele>2048.8525</ele>
        <time>2020-09-15 11:31:25</time>
      </trkpt>
      <trkpt lat="45.69113" lon="6.23105">
        <ele>2051.1018</ele>
        <time>2020-09-15 11:31:28</time>
      </trkpt>
      <trkpt lat="45.69114" lon="6.23105">
        <ele>2050.444</ele>
        <time>2020-09-15 11:31:29</time>
      </trkpt>
      <trkpt lat="45.69113" lon="6.23104">
        <ele>2051.4648</ele>
        <time>2020-09-15 11:32:05</time>
      </trkpt>
      <trkpt lat="45.69113" lon="6.23104">
        <ele>2051.515</ele>
        <time>2020-09-15 11:32:35</time>
      </trkpt>
      <trkpt lat="45.69113" lon="6.23106">
        <ele>2053.1663</ele>
        <time>2020-09-15 11:32:57</time>
      </trkpt>
      <trkpt lat="45.69113" lon="6.23106">
        <ele>2053.433</ele>
        <time>2020-09-15 11:32:58</time>
      </trkpt>
      <trkpt lat="45.69112" lon="6.23108">
        <ele>2051.3154</ele>
        <time>2020-09-15 11:33:11</time>
      </trkpt>
      <trkpt lat="45.69112" lon="6.23108">
        <ele>2051.7515</ele>
        <time>2020-09-15 11:33:12</time>
      </trkpt>
      <trkpt lat="45.69111" lon="6.23112">
        <ele>2051.1663</ele>
        <time>2020-09-15 11:33:44</time>
      </trkpt>
      <trkpt lat="45.69111" lon="6.23111">
        <ele>2051.168</ele>
        <time>2020-09-15 11:34:16</time>
      </trkpt>
      <trkpt lat="45.69111" lon="6.23111">
        <ele>2050.1077</ele>
        <time>2020-09-15 11:34:17</time>
      </trkpt>
      <trkpt lat="45.6911" lon="6.23106">
        <ele>2053.5276</ele>
        <time>2020-09-15 11:34:43</time>
      </trkpt>
      <trkpt lat="45.6911" lon="6.23106">
        <ele>2054.4841</ele>
        <time>2020-09-15 11:34:44</time>
      </trkpt>
      <trkpt lat="45.69109" lon="6.23106">
        <ele>2053.6545</ele>
        <time>2020-09-15 11:35:01</time>
      </trkpt>
      <trkpt lat="45.69109" lon="6.23105">
        <ele>2054.4036</ele>
        <time>2020-09-15 11:35:02</time>
      </trkpt>
      <trkpt lat="45.69108" lon="6.23107">
        <ele>2053.7913</ele>
        <time>2020-09-15 11:35:35</time>
      </trkpt>
      <trkpt lat="45.69108" lon="6.23107">
        <ele>2053.7566</ele>
        <time>2020-09-15 11:36:06</time>
      </trkpt>
      <trkpt lat="45.69108" lon="6.23107">
        <ele>2054.718</ele>
        <time>2020-09-15 11:36:13</time>
      </trkpt>
      <trkpt lat="45.69108" lon="6.23106">
        <ele>2053.7566</ele>
        <time>2020-09-15 11:36:14</time>
      </trkpt>
      <trkpt lat="45.69108" lon="6.23105">
        <ele>2053.9143</ele>
        <time>2020-09-15 11:36:16</time>
      </trkpt>
      <trkpt lat="45.69108" lon="6.23106">
        <ele>2053.8022</ele>
        <time>2020-09-15 11:36:17</time>
      </trkpt>
      <trkpt lat="45.69109" lon="6.23106">
        <ele>2053.6838</ele>
        <time>2020-09-15 11:36:43</time>
      </trkpt>
      <trkpt lat="45.69109" lon="6.23106">
        <ele>2052.4167</ele>
        <time>2020-09-15 11:36:44</time>
      </trkpt>
      <trkpt lat="45.6911" lon="6.23107">
        <ele>2050.224</ele>
        <time>2020-09-15 11:37:15</time>
      </trkpt>
      <trkpt lat="45.6911" lon="6.23109">
        <ele>2049.38</ele>
        <time>2020-09-15 11:37:16</time>
      </trkpt>
      <trkpt lat="45.69109" lon="6.23114">
        <ele>2045.2612</ele>
        <time>2020-09-15 11:37:51</time>
      </trkpt>
      <trkpt lat="45.69109" lon="6.23114">
        <ele>2045.5444</ele>
        <time>2020-09-15 11:38:28</time>
      </trkpt>
      <trkpt lat="45.69109" lon="6.23113">
        <ele>2045.7183</ele>
        <time>2020-09-15 11:38:59</time>
      </trkpt>
      <trkpt lat="45.69109" lon="6.23113">
        <ele>2045.7764</ele>
        <time>2020-09-15 11:39:29</time>
      </trkpt>
      <trkpt lat="45.69109" lon="6.23113">
        <ele>2045.8652</ele>
        <time>2020-09-15 11:40:15</time>
      </trkpt>
      <trkpt lat="45.69108" lon="6.23114">
        <ele>2044.8047</ele>
        <time>2020-09-15 11:40:20</time>
      </trkpt>
      <trkpt lat="45.69108" lon="6.23114">
        <ele>2044.3115</ele>
        <time>2020-09-15 11:40:21</time>
      </trkpt>
      <trkpt lat="45.69109" lon="6.23115">
        <ele>2044.3604</ele>
        <time>2020-09-15 11:40:58</time>
      </trkpt>
      <trkpt lat="45.69108" lon="6.23114">
        <ele>2042.8982</ele>
        <time>2020-09-15 11:41:14</time>
      </trkpt>
      <trkpt lat="45.69108" lon="6.23114">
        <ele>2041.9297</ele>
        <time>2020-09-15 11:41:15</time>
      </trkpt>
      <trkpt lat="45.69109" lon="6.23114">
        <ele>2043.4194</ele>
        <time>2020-09-15 11:41:48</time>
      </trkpt>
      <trkpt lat="45.69108" lon="6.23112">
        <ele>2047.2078</ele>
        <time>2020-09-15 11:42:19</time>
      </trkpt>
      <trkpt lat="45.69108" lon="6.23112">
        <ele>2047.8052</ele>
        <time>2020-09-15 11:42:21</time>
      </trkpt>
      <trkpt lat="45.69108" lon="6.23112">
        <ele>2049.2334</ele>
        <time>2020-09-15 11:43:03</time>
      </trkpt>
      <trkpt lat="45.69108" lon="6.23112">
        <ele>2049.8054</ele>
        <time>2020-09-15 11:43:04</time>
      </trkpt>
      <trkpt lat="45.69108" lon="6.23111">
        <ele>2050.4531</ele>
        <time>2020-09-15 11:43:06</time>
      </trkpt>
      <trkpt lat="45.69109" lon="6.2311">
        <ele>2052.4272</ele>
        <time>2020-09-15 11:43:22</time>
      </trkpt>
      <trkpt lat="45.69108" lon="6.2311">
        <ele>2051.4695</ele>
        <time>2020-09-15 11:43:23</time>
      </trkpt>
      <trkpt lat="45.69108" lon="6.2311">
        <ele>2052.5986</ele>
        <time>2020-09-15 11:43:25</time>
      </trkpt>
      <trkpt lat="45.69108" lon="6.2311">
        <ele>2052.5833</ele>
        <time>2020-09-15 11:43:26</time>
      </trkpt>
      <trkpt lat="45.69108" lon="6.2311">
        <ele>2052.5984</ele>
        <time>2020-09-15 11:43:27</time>
      </trkpt>
      <trkpt lat="45.69108" lon="6.23111">
        <ele>2052.4712</ele>
        <time>2020-09-15 11:43:29</time>
      </trkpt>
      <trkpt lat="45.69108" lon="6.2311">
        <ele>2052.5461</ele>
        <time>2020-09-15 11:43:30</time>
      </trkpt>
      <trkpt lat="45.69108" lon="6.2311">
        <ele>2053.2217</ele>
        <time>2020-09-15 11:43:50</time>
      </trkpt>
      <trkpt lat="45.69108" lon="6.2311">
        <ele>2053.3196</ele>
        <time>2020-09-15 11:43:51</time>
      </trkpt>
      <trkpt lat="45.69108" lon="6.23111">
        <ele>2053.37</ele>
        <time>2020-09-15 11:43:52</time>
      </trkpt>
      <trkpt lat="45.69108" lon="6.23113">
        <ele>2054.5464</ele>
        <time>2020-09-15 11:43:58</time>
      </trkpt>
      <trkpt lat="45.69108" lon="6.23113">
        <ele>2054.5015</ele>
        <time>2020-09-15 11:43:59</time>
      </trkpt>
      <trkpt lat="45.69109" lon="6.23113">
        <ele>2054.2537</ele>
        <time>2020-09-15 11:44:01</time>
      </trkpt>
      <trkpt lat="45.69109" lon="6.23113">
        <ele>2055.2166</ele>
        <time>2020-09-15 11:44:05</time>
      </trkpt>
      <trkpt lat="45.69109" lon="6.23113">
        <ele>2054.8906</ele>
        <time>2020-09-15 11:44:06</time>
      </trkpt>
      <trkpt lat="45.69108" lon="6.23113">
        <ele>2054.7412</ele>
        <time>2020-09-15 11:44:10</time>
      </trkpt>
      <trkpt lat="45.69108" lon="6.23113">
        <ele>2054.3882</ele>
        <time>2020-09-15 11:44:11</time>
      </trkpt>
      <trkpt lat="45.69108" lon="6.23114">
        <ele>2053.243</ele>
        <time>2020-09-15 11:44:14</time>
      </trkpt>
      <trkpt lat="45.69108" lon="6.23115">
        <ele>2053.369</ele>
        <time>2020-09-15 11:44:16</time>
      </trkpt>
      <trkpt lat="45.69109" lon="6.23115">
        <ele>2053.8997</ele>
        <time>2020-09-15 11:44:25</time>
      </trkpt>
      <trkpt lat="45.69108" lon="6.23115">
        <ele>2053.6758</ele>
        <time>2020-09-15 11:44:26</time>
      </trkpt>
      <trkpt lat="45.69108" lon="6.23115">
        <ele>2053.6472</ele>
        <time>2020-09-15 11:44:47</time>
      </trkpt>
      <trkpt lat="45.69108" lon="6.23115">
        <ele>2054.262</ele>
        <time>2020-09-15 11:44:49</time>
      </trkpt>
      <trkpt lat="45.69108" lon="6.23116">
        <ele>2054.8162</ele>
        <time>2020-09-15 11:44:54</time>
      </trkpt>
      <trkpt lat="45.69108" lon="6.23117">
        <ele>2055.2007</ele>
        <time>2020-09-15 11:44:56</time>
      </trkpt>
      <trkpt lat="45.69108" lon="6.23117">
        <ele>2058.2517</ele>
        <time>2020-09-15 11:45:30</time>
      </trkpt>
      <trkpt lat="45.69108" lon="6.23117">
        <ele>2057.8606</ele>
        <time>2020-09-15 11:45:33</time>
      </trkpt>
      <trkpt lat="45.69108" lon="6.23117">
        <ele>2056.3582</ele>
        <time>2020-09-15 11:45:42</time>
      </trkpt>
      <trkpt lat="45.69108" lon="6.23117">
        <ele>2056.3657</ele>
        <time>2020-09-15 11:45:43</time>
      </trkpt>
      <trkpt lat="45.69108" lon="6.23116">
        <ele>2057.5183</ele>
        <time>2020-09-15 11:45:59</time>
      </trkpt>
      <trkpt lat="45.69107" lon="6.23116">
        <ele>2058.4355</ele>
        <time>2020-09-15 11:46:02</time>
      </trkpt>
      <trkpt lat="45.69103" lon="6.23116">
        <ele>2059.4856</ele>
        <time>2020-09-15 11:46:08</time>
      </trkpt>
      <trkpt lat="45.691" lon="6.23118">
        <ele>2059.2422</ele>
        <time>2020-09-15 11:46:18</time>
      </trkpt>
      <trkpt lat="45.691" lon="6.23118">
        <ele>2062.0686</ele>
        <time>2020-09-15 11:46:22</time>
      </trkpt>
      <trkpt lat="45.69099" lon="6.23118">
        <ele>2062.1675</ele>
        <time>2020-09-15 11:46:23</time>
      </trkpt>
      <trkpt lat="45.69099" lon="6.23118">
        <ele>2062.2944</ele>
        <time>2020-09-15 11:46:28</time>
      </trkpt>
      <trkpt lat="45.69099" lon="6.23118">
        <ele>2061.721</ele>
        <time>2020-09-15 11:46:32</time>
      </trkpt>
      <trkpt lat="45.69099" lon="6.23118">
        <ele>2062.9631</ele>
        <time>2020-09-15 11:46:37</time>
      </trkpt>
      <trkpt lat="45.69098" lon="6.23118">
        <ele>2063.7075</ele>
        <time>2020-09-15 11:46:39</time>
      </trkpt>
      <trkpt lat="45.69098" lon="6.23118">
        <ele>2064.271</ele>
        <time>2020-09-15 11:46:43</time>
      </trkpt>
      <trkpt lat="45.69096" lon="6.23118">
        <ele>2065.3506</ele>
        <time>2020-09-15 11:46:49</time>
      </trkpt>
      <trkpt lat="45.69095" lon="6.23119">
        <ele>2065.7039</ele>
        <time>2020-09-15 11:46:50</time>
      </trkpt>
      <trkpt lat="45.69093" lon="6.23118">
        <ele>2067.7485</ele>
        <time>2020-09-15 11:46:58</time>
      </trkpt>
      <trkpt lat="45.69093" lon="6.23118">
        <ele>2067.9626</ele>
        <time>2020-09-15 11:47:04</time>
      </trkpt>
      <trkpt lat="45.69093" lon="6.23117">
        <ele>2067.781</ele>
        <time>2020-09-15 11:47:06</time>
      </trkpt>
      <trkpt lat="45.69093" lon="6.23117">
        <ele>2067.8396</ele>
        <time>2020-09-15 11:47:07</time>
      </trkpt>
      <trkpt lat="45.69093" lon="6.23117">
        <ele>2067.8308</ele>
        <time>2020-09-15 11:47:10</time>
      </trkpt>
      <trkpt lat="45.69092" lon="6.23118">
        <ele>2068.6526</ele>
        <time>2020-09-15 11:47:17</time>
      </trkpt>
      <trkpt lat="45.69092" lon="6.23118">
        <ele>2068.6301</ele>
        <time>2020-09-15 11:47:18</time>
      </trkpt>
      <trkpt lat="45.69092" lon="6.23118">
        <ele>2068.986</ele>
        <time>2020-09-15 11:47:19</time>
      </trkpt>
      <trkpt lat="45.69092" lon="6.23119">
        <ele>2068.8027</ele>
        <time>2020-09-15 11:47:22</time>
      </trkpt>
      <trkpt lat="45.69092" lon="6.23119">
        <ele>2067.511</ele>
        <time>2020-09-15 11:47:53</time>
      </trkpt>
      <trkpt lat="45.69092" lon="6.2312">
        <ele>2068.6284</ele>
        <time>2020-09-15 11:47:55</time>
      </trkpt>
      <trkpt lat="45.69091" lon="6.2312">
        <ele>2068.7966</ele>
        <time>2020-09-15 11:47:57</time>
      </trkpt>
      <trkpt lat="45.69091" lon="6.23119">
        <ele>2068.9202</ele>
        <time>2020-09-15 11:48:00</time>
      </trkpt>
      <trkpt lat="45.69091" lon="6.23118">
        <ele>2069.2112</ele>
        <time>2020-09-15 11:48:05</time>
      </trkpt>
      <trkpt lat="45.69092" lon="6.23117">
        <ele>2069.6848</ele>
        <time>2020-09-15 11:48:14</time>
      </trkpt>
      <trkpt lat="45.69091" lon="6.23117">
        <ele>2069.295</ele>
        <time>2020-09-15 11:48:16</time>
      </trkpt>
      <trkpt lat="45.69091" lon="6.23117">
        <ele>2069.411</ele>
        <time>2020-09-15 11:48:17</time>
      </trkpt>
      <trkpt lat="45.69091" lon="6.23116">
        <ele>2070.9695</ele>
        <time>2020-09-15 11:48:21</time>
      </trkpt>
      <trkpt lat="45.69091" lon="6.23116">
        <ele>2071.3218</ele>
        <time>2020-09-15 11:48:22</time>
      </trkpt>
      <trkpt lat="45.69091" lon="6.23115">
        <ele>2071.5325</ele>
        <time>2020-09-15 11:48:26</time>
      </trkpt>
      <trkpt lat="45.6909" lon="6.23114">
        <ele>2071.9722</ele>
        <time>2020-09-15 11:48:33</time>
      </trkpt>
      <trkpt lat="45.6909" lon="6.23114">
        <ele>2072.2144</ele>
        <time>2020-09-15 11:48:35</time>
      </trkpt>
      <trkpt lat="45.6909" lon="6.23113">
        <ele>2072.7056</ele>
        <time>2020-09-15 11:48:41</time>
      </trkpt>
      <trkpt lat="45.6909" lon="6.23113">
        <ele>2071.989</ele>
        <time>2020-09-15 11:48:42</time>
      </trkpt>
      <trkpt lat="45.6909" lon="6.23111">
        <ele>2072.7102</ele>
        <time>2020-09-15 11:48:44</time>
      </trkpt>
      <trkpt lat="45.6909" lon="6.2311">
        <ele>2073.636</ele>
        <time>2020-09-15 11:48:46</time>
      </trkpt>
      <trkpt lat="45.6909" lon="6.23111">
        <ele>2073.182</ele>
        <time>2020-09-15 11:48:48</time>
      </trkpt>
      <trkpt lat="45.6909" lon="6.2311">
        <ele>2073.204</ele>
        <time>2020-09-15 11:48:51</time>
      </trkpt>
      <trkpt lat="45.6909" lon="6.2311">
        <ele>2072.5771</ele>
        <time>2020-09-15 11:48:52</time>
      </trkpt>
      <trkpt lat="45.6909" lon="6.2311">
        <ele>2073.5513</ele>
        <time>2020-09-15 11:48:53</time>
      </trkpt>
      <trkpt lat="45.69089" lon="6.2311">
        <ele>2073.6663</ele>
        <time>2020-09-15 11:48:54</time>
      </trkpt>
      <trkpt lat="45.69089" lon="6.2311">
        <ele>2073.7317</ele>
        <time>2020-09-15 11:48:56</time>
      </trkpt>
      <trkpt lat="45.69089" lon="6.2311">
        <ele>2073.8804</ele>
        <time>2020-09-15 11:48:57</time>
      </trkpt>
      <trkpt lat="45.69089" lon="6.23109">
        <ele>2073.7676</ele>
        <time>2020-09-15 11:48:59</time>
      </trkpt>
      <trkpt lat="45.69088" lon="6.2311">
        <ele>2074.9373</ele>
        <time>2020-09-15 11:49:08</time>
      </trkpt>
      <trkpt lat="45.69088" lon="6.23111">
        <ele>2075.1638</ele>
        <time>2020-09-15 11:49:11</time>
      </trkpt>
      <trkpt lat="45.69088" lon="6.23111">
        <ele>2074.4875</ele>
        <time>2020-09-15 11:49:12</time>
      </trkpt>
      <trkpt lat="45.69088" lon="6.23111">
        <ele>2075.2207</ele>
        <time>2020-09-15 11:49:13</time>
      </trkpt>
      <trkpt lat="45.69088" lon="6.23111">
        <ele>2074.7173</ele>
        <time>2020-09-15 11:49:37</time>
      </trkpt>
      <trkpt lat="45.69088" lon="6.2311">
        <ele>2074.6511</ele>
        <time>2020-09-15 11:49:38</time>
      </trkpt>
      <trkpt lat="45.69088" lon="6.2311">
        <ele>2074.2354</ele>
        <time>2020-09-15 11:49:42</time>
      </trkpt>
      <trkpt lat="45.69088" lon="6.2311">
        <ele>2074.4758</ele>
        <time>2020-09-15 11:49:43</time>
      </trkpt>
      <trkpt lat="45.69087" lon="6.23112">
        <ele>2075.6328</ele>
        <time>2020-09-15 11:50:09</time>
      </trkpt>
      <trkpt lat="45.69083" lon="6.2311">
        <ele>2076.3726</ele>
        <time>2020-09-15 11:50:17</time>
      </trkpt>
      <trkpt lat="45.69081" lon="6.23109">
        <ele>2077.247</ele>
        <time>2020-09-15 11:50:20</time>
      </trkpt>
      <trkpt lat="45.6908" lon="6.23109">
        <ele>2077.5503</ele>
        <time>2020-09-15 11:50:24</time>
      </trkpt>
      <trkpt lat="45.69079" lon="6.23109">
        <ele>2077.7383</ele>
        <time>2020-09-15 11:50:25</time>
      </trkpt>
      <trkpt lat="45.69079" lon="6.23109">
        <ele>2077.2603</ele>
        <time>2020-09-15 11:50:27</time>
      </trkpt>
      <trkpt lat="45.69079" lon="6.23109">
        <ele>2076.4604</ele>
        <time>2020-09-15 11:50:28</time>
      </trkpt>
      <trkpt lat="45.69078" lon="6.23109">
        <ele>2075.9387</ele>
        <time>2020-09-15 11:50:33</time>
      </trkpt>
      <trkpt lat="45.69078" lon="6.23109">
        <ele>2075.9592</ele>
        <time>2020-09-15 11:50:34</time>
      </trkpt>
      <trkpt lat="45.69076" lon="6.23108">
        <ele>2077.7544</ele>
        <time>2020-09-15 11:50:42</time>
      </trkpt>
      <trkpt lat="45.69076" lon="6.23108">
        <ele>2078.9019</ele>
        <time>2020-09-15 11:50:55</time>
      </trkpt>
      <trkpt lat="45.69075" lon="6.2311">
        <ele>2078.7952</ele>
        <time>2020-09-15 11:51:02</time>
      </trkpt>
      <trkpt lat="45.69075" lon="6.2311">
        <ele>2078.616</ele>
        <time>2020-09-15 11:51:03</time>
      </trkpt>
      <trkpt lat="45.69075" lon="6.2311">
        <ele>2078.5713</ele>
        <time>2020-09-15 11:51:04</time>
      </trkpt>
      <trkpt lat="45.69075" lon="6.2311">
        <ele>2078.5425</ele>
        <time>2020-09-15 11:51:05</time>
      </trkpt>
      <trkpt lat="45.69073" lon="6.23109">
        <ele>2079.0945</ele>
        <time>2020-09-15 11:51:10</time>
      </trkpt>
      <trkpt lat="45.69073" lon="6.23109">
        <ele>2079.0945</ele>
        <time>2020-09-15 11:51:19</time>
      </trkpt>
      <trkpt lat="45.69073" lon="6.23109">
        <ele>2079.378</ele>
        <time>2020-09-15 11:51:20</time>
      </trkpt>
      <trkpt lat="45.69073" lon="6.23109">
        <ele>2079.599</ele>
        <time>2020-09-15 11:51:21</time>
      </trkpt>
      <trkpt lat="45.69072" lon="6.23109">
        <ele>2080.7004</ele>
        <time>2020-09-15 11:51:24</time>
      </trkpt>
      <trkpt lat="45.69071" lon="6.23108">
        <ele>2079.9263</ele>
        <time>2020-09-15 11:51:43</time>
      </trkpt>
      <trkpt lat="45.69071" lon="6.23108">
        <ele>2080.335</ele>
        <time>2020-09-15 11:51:46</time>
      </trkpt>
      <trkpt lat="45.6907" lon="6.23109">
        <ele>2080.2712</ele>
        <time>2020-09-15 11:52:13</time>
      </trkpt>
      <trkpt lat="45.6907" lon="6.23109">
        <ele>2080.0305</ele>
        <time>2020-09-15 11:52:15</time>
      </trkpt>
      <trkpt lat="45.6907" lon="6.23109">
        <ele>2080.4087</ele>
        <time>2020-09-15 11:52:26</time>
      </trkpt>
      <trkpt lat="45.69069" lon="6.23108">
        <ele>2080.765</ele>
        <time>2020-09-15 11:52:29</time>
      </trkpt>
      <trkpt lat="45.6907" lon="6.23108">
        <ele>2079.8896</ele>
        <time>2020-09-15 11:53:24</time>
      </trkpt>
      <trkpt lat="45.6907" lon="6.23108">
        <ele>2079.908</ele>
        <time>2020-09-15 11:54:08</time>
      </trkpt>
      <trkpt lat="45.6907" lon="6.23108">
        <ele>2080.0059</ele>
        <time>2020-09-15 11:54:21</time>
      </trkpt>
      <trkpt lat="45.69069" lon="6.23109">
        <ele>2079.916</ele>
        <time>2020-09-15 11:54:22</time>
      </trkpt>
      <trkpt lat="45.69069" lon="6.23109">
        <ele>2079.7485</ele>
        <time>2020-09-15 11:54:25</time>
      </trkpt>
      <trkpt lat="45.69069" lon="6.23109">
        <ele>2080.3179</ele>
        <time>2020-09-15 11:54:33</time>
      </trkpt>
      <trkpt lat="45.69069" lon="6.23109">
        <ele>2080.4622</ele>
        <time>2020-09-15 11:54:34</time>
      </trkpt>
      <trkpt lat="45.69069" lon="6.23109">
        <ele>2080.4377</ele>
        <time>2020-09-15 11:54:36</time>
      </trkpt>
      <trkpt lat="45.69065" lon="6.2311">
        <ele>2078.6367</ele>
        <time>2020-09-15 11:54:45</time>
      </trkpt>
      <trkpt lat="45.69063" lon="6.2311">
        <ele>2080.4377</ele>
        <time>2020-09-15 11:54:50</time>
      </trkpt>
      <trkpt lat="45.69063" lon="6.2311">
        <ele>2078.9087</ele>
        <time>2020-09-15 11:54:51</time>
      </trkpt>
      <trkpt lat="45.69061" lon="6.23111">
        <ele>2078.6602</ele>
        <time>2020-09-15 11:54:54</time>
      </trkpt>
      <trkpt lat="45.69061" lon="6.23111">
        <ele>2078.4216</ele>
        <time>2020-09-15 11:54:56</time>
      </trkpt>
      <trkpt lat="45.69061" lon="6.23111">
        <ele>2078.6006</ele>
        <time>2020-09-15 11:54:57</time>
      </trkpt>
      <trkpt lat="45.69061" lon="6.2311">
        <ele>2079.4497</ele>
        <time>2020-09-15 11:54:59</time>
      </trkpt>
      <trkpt lat="45.69061" lon="6.2311">
        <ele>2079.1492</ele>
        <time>2020-09-15 11:55:00</time>
      </trkpt>
      <trkpt lat="45.6906" lon="6.23109">
        <ele>2079.0908</ele>
        <time>2020-09-15 11:55:04</time>
      </trkpt>
      <trkpt lat="45.6906" lon="6.23109">
        <ele>2078.737</ele>
        <time>2020-09-15 11:55:06</time>
      </trkpt>
      <trkpt lat="45.6906" lon="6.23109">
        <ele>2078.229</ele>
        <time>2020-09-15 11:55:07</time>
      </trkpt>
      <trkpt lat="45.69056" lon="6.23107">
        <ele>2078.3396</ele>
        <time>2020-09-15 11:55:18</time>
      </trkpt>
      <trkpt lat="45.69055" lon="6.23106">
        <ele>2078.2441</ele>
        <time>2020-09-15 11:55:23</time>
      </trkpt>
      <trkpt lat="45.69054" lon="6.23106">
        <ele>2078.4443</ele>
        <time>2020-09-15 11:55:27</time>
      </trkpt>
      <trkpt lat="45.69046" lon="6.23103">
        <ele>2079.8047</ele>
        <time>2020-09-15 11:55:43</time>
      </trkpt>
      <trkpt lat="45.69043" lon="6.23101">
        <ele>2079.7446</ele>
        <time>2020-09-15 11:55:50</time>
      </trkpt>
      <trkpt lat="45.69044" lon="6.23101">
        <ele>2081.7148</ele>
        <time>2020-09-15 11:56:05</time>
      </trkpt>
      <trkpt lat="45.69043" lon="6.23101">
        <ele>2081.1997</ele>
        <time>2020-09-15 11:56:08</time>
      </trkpt>
      <trkpt lat="45.69043" lon="6.23102">
        <ele>2082.379</ele>
        <time>2020-09-15 11:56:24</time>
      </trkpt>
      <trkpt lat="45.69041" lon="6.23102">
        <ele>2082.845</ele>
        <time>2020-09-15 11:56:27</time>
      </trkpt>
      <trkpt lat="45.69037" lon="6.23101">
        <ele>2082.2385</ele>
        <time>2020-09-15 11:56:35</time>
      </trkpt>
      <trkpt lat="45.69034" lon="6.231">
        <ele>2080.7354</ele>
        <time>2020-09-15 11:56:40</time>
      </trkpt>
      <trkpt lat="45.6903" lon="6.23099">
        <ele>2081.536</ele>
        <time>2020-09-15 11:56:46</time>
      </trkpt>
      <trkpt lat="45.69027" lon="6.23097">
        <ele>2082.7673</ele>
        <time>2020-09-15 11:56:57</time>
      </trkpt>
      <trkpt lat="45.69027" lon="6.23097">
        <ele>2083.105</ele>
        <time>2020-09-15 11:56:58</time>
      </trkpt>
      <trkpt lat="45.69027" lon="6.23097">
        <ele>2082.9631</ele>
        <time>2020-09-15 11:57:00</time>
      </trkpt>
      <trkpt lat="45.69027" lon="6.23097">
        <ele>2081.2502</ele>
        <time>2020-09-15 11:57:02</time>
      </trkpt>
      <trkpt lat="45.69027" lon="6.23097">
        <ele>2082.7097</ele>
        <time>2020-09-15 11:57:03</time>
      </trkpt>
      <trkpt lat="45.69027" lon="6.23097">
        <ele>2082.672</ele>
        <time>2020-09-15 11:57:21</time>
      </trkpt>
      <trkpt lat="45.69026" lon="6.23097">
        <ele>2082.7761</ele>
        <time>2020-09-15 11:57:22</time>
      </trkpt>
      <trkpt lat="45.69022" lon="6.23097">
        <ele>2081.9858</ele>
        <time>2020-09-15 11:57:28</time>
      </trkpt>
      <trkpt lat="45.69021" lon="6.23097">
        <ele>2082.39</ele>
        <time>2020-09-15 11:57:29</time>
      </trkpt>
      <trkpt lat="45.6902" lon="6.23097">
        <ele>2082.312</ele>
        <time>2020-09-15 11:57:30</time>
      </trkpt>
      <trkpt lat="45.69019" lon="6.23096">
        <ele>2082.5154</ele>
        <time>2020-09-15 11:57:32</time>
      </trkpt>
      <trkpt lat="45.69012" lon="6.23096">
        <ele>2083.6235</ele>
        <time>2020-09-15 11:57:56</time>
      </trkpt>
      <trkpt lat="45.69011" lon="6.23097">
        <ele>2085.6838</ele>
        <time>2020-09-15 11:57:58</time>
      </trkpt>
      <trkpt lat="45.69011" lon="6.23097">
        <ele>2086.0107</ele>
        <time>2020-09-15 11:57:59</time>
      </trkpt>
      <trkpt lat="45.69012" lon="6.23098">
        <ele>2084.3787</ele>
        <time>2020-09-15 11:58:07</time>
      </trkpt>
      <trkpt lat="45.69012" lon="6.23098">
        <ele>2084.0183</ele>
        <time>2020-09-15 11:58:08</time>
      </trkpt>
      <trkpt lat="45.69011" lon="6.23098">
        <ele>2083.719</ele>
        <time>2020-09-15 11:58:27</time>
      </trkpt>
      <trkpt lat="45.69011" lon="6.23099">
        <ele>2083.0574</ele>
        <time>2020-09-15 11:58:30</time>
      </trkpt>
      <trkpt lat="45.69012" lon="6.23098">
        <ele>2082.969</ele>
        <time>2020-09-15 11:58:35</time>
      </trkpt>
      <trkpt lat="45.69012" lon="6.23097">
        <ele>2083.2832</ele>
        <time>2020-09-15 11:58:36</time>
      </trkpt>
      <trkpt lat="45.69013" lon="6.23097">
        <ele>2084.0232</ele>
        <time>2020-09-15 11:58:52</time>
      </trkpt>
      <trkpt lat="45.69013" lon="6.23097">
        <ele>2085.4387</ele>
        <time>2020-09-15 11:58:53</time>
      </trkpt>
      <trkpt lat="45.69012" lon="6.23098">
        <ele>2086.2556</ele>
        <time>2020-09-15 11:59:09</time>
      </trkpt>
      <trkpt lat="45.69012" lon="6.23098">
        <ele>2086.0918</ele>
        <time>2020-09-15 11:59:10</time>
      </trkpt>
      <trkpt lat="45.69012" lon="6.23098">
        <ele>2086.4485</ele>
        <time>2020-09-15 11:59:52</time>
      </trkpt>
      <trkpt lat="45.69012" lon="6.23098">
        <ele>2086.4868</ele>
        <time>2020-09-15 12:00:30</time>
      </trkpt>
      <trkpt lat="45.69013" lon="6.23098">
        <ele>2085.1467</ele>
        <time>2020-09-15 12:01:09</time>
      </trkpt>
      <trkpt lat="45.69013" lon="6.23098">
        <ele>2085.2373</ele>
        <time>2020-09-15 12:01:10</time>
      </trkpt>
      <trkpt lat="45.69012" lon="6.23098">
        <ele>2086.151</ele>
        <time>2020-09-15 12:01:22</time>
      </trkpt>
      <trkpt lat="45.69012" lon="6.23098">
        <ele>2086.0781</ele>
        <time>2020-09-15 12:01:23</time>
      </trkpt>
      <trkpt lat="45.69012" lon="6.23099">
        <ele>2087.0994</ele>
        <time>2020-09-15 12:01:33</time>
      </trkpt>
      <trkpt lat="45.69012" lon="6.23099">
        <ele>2087.702</ele>
        <time>2020-09-15 12:01:36</time>
      </trkpt>
      <trkpt lat="45.69012" lon="6.23099">
        <ele>2088.3796</ele>
        <time>2020-09-15 12:01:37</time>
      </trkpt>
      <trkpt lat="45.69012" lon="6.231">
        <ele>2089.1992</ele>
        <time>2020-09-15 12:01:38</time>
      </trkpt>
      <trkpt lat="45.69014" lon="6.23101">
        <ele>2090.92</ele>
        <time>2020-09-15 12:01:43</time>
      </trkpt>
      <trkpt lat="45.69014" lon="6.23101">
        <ele>2090.999</ele>
        <time>2020-09-15 12:01:45</time>
      </trkpt>
      <trkpt lat="45.69015" lon="6.23102">
        <ele>2091.4038</ele>
        <time>2020-09-15 12:01:57</time>
      </trkpt>
      <trkpt lat="45.69015" lon="6.23103">
        <ele>2091.5063</ele>
        <time>2020-09-15 12:01:59</time>
      </trkpt>
      <trkpt lat="45.69015" lon="6.23104">
        <ele>2091.8765</ele>
        <time>2020-09-15 12:02:01</time>
      </trkpt>
      <trkpt lat="45.69018" lon="6.23107">
        <ele>2093.3745</ele>
        <time>2020-09-15 12:02:11</time>
      </trkpt>
      <trkpt lat="45.69018" lon="6.23108">
        <ele>2094.2883</ele>
        <time>2020-09-15 12:02:15</time>
      </trkpt>
      <trkpt lat="45.69018" lon="6.23108">
        <ele>2094.4016</ele>
        <time>2020-09-15 12:02:16</time>
      </trkpt>
      <trkpt lat="45.69019" lon="6.23109">
        <ele>2094.4456</ele>
        <time>2020-09-15 12:02:19</time>
      </trkpt>
      <trkpt lat="45.69019" lon="6.23109">
        <ele>2095.2961</ele>
        <time>2020-09-15 12:02:21</time>
      </trkpt>
      <trkpt lat="45.69018" lon="6.23111">
        <ele>2094.5908</ele>
        <time>2020-09-15 12:02:28</time>
      </trkpt>
      <trkpt lat="45.69015" lon="6.23113">
        <ele>2093.9478</ele>
        <time>2020-09-15 12:02:36</time>
      </trkpt>
      <trkpt lat="45.69012" lon="6.23115">
        <ele>2093.975</ele>
        <time>2020-09-15 12:02:42</time>
      </trkpt>
      <trkpt lat="45.6901" lon="6.23117">
        <ele>2093.6006</ele>
        <time>2020-09-15 12:02:47</time>
      </trkpt>
      <trkpt lat="45.69008" lon="6.2312">
        <ele>2093.26</ele>
        <time>2020-09-15 12:02:54</time>
      </trkpt>
      <trkpt lat="45.69007" lon="6.2312">
        <ele>2093.7214</ele>
        <time>2020-09-15 12:02:57</time>
      </trkpt>
      <trkpt lat="45.69007" lon="6.23121">
        <ele>2094.071</ele>
        <time>2020-09-15 12:02:59</time>
      </trkpt>
      <trkpt lat="45.69005" lon="6.23121">
        <ele>2095.7969</ele>
        <time>2020-09-15 12:03:07</time>
      </trkpt>
      <trkpt lat="45.69004" lon="6.23119">
        <ele>2096.5852</ele>
        <time>2020-09-15 12:03:11</time>
      </trkpt>
      <trkpt lat="45.69004" lon="6.23118">
        <ele>2096.9407</ele>
        <time>2020-09-15 12:03:13</time>
      </trkpt>
      <trkpt lat="45.69002" lon="6.23118">
        <ele>2097.5742</ele>
        <time>2020-09-15 12:03:19</time>
      </trkpt>
      <trkpt lat="45.69001" lon="6.23119">
        <ele>2098.8594</ele>
        <time>2020-09-15 12:03:25</time>
      </trkpt>
      <trkpt lat="45.69001" lon="6.2312">
        <ele>2098.1167</ele>
        <time>2020-09-15 12:03:29</time>
      </trkpt>
      <trkpt lat="45.69" lon="6.23124">
        <ele>2101.0962</ele>
        <time>2020-09-15 12:03:37</time>
      </trkpt>
      <trkpt lat="45.69" lon="6.23125">
        <ele>2101.188</ele>
        <time>2020-09-15 12:03:38</time>
      </trkpt>
      <trkpt lat="45.69" lon="6.23126">
        <ele>2100.7236</ele>
        <time>2020-09-15 12:03:40</time>
      </trkpt>
      <trkpt lat="45.69" lon="6.23126">
        <ele>2100.9338</ele>
        <time>2020-09-15 12:03:41</time>
      </trkpt>
      <trkpt lat="45.69" lon="6.23126">
        <ele>2098.8132</ele>
        <time>2020-09-15 12:03:42</time>
      </trkpt>
      <trkpt lat="45.69" lon="6.23127">
        <ele>2101.7708</ele>
        <time>2020-09-15 12:03:45</time>
      </trkpt>
      <trkpt lat="45.68999" lon="6.23128">
        <ele>2100.3723</ele>
        <time>2020-09-15 12:03:49</time>
      </trkpt>
      <trkpt lat="45.68999" lon="6.23129">
        <ele>2100.782</ele>
        <time>2020-09-15 12:03:51</time>
      </trkpt>
      <trkpt lat="45.68998" lon="6.23129">
        <ele>2100.711</ele>
        <time>2020-09-15 12:03:52</time>
      </trkpt>
      <trkpt lat="45.68995" lon="6.23131">
        <ele>2099.5842</ele>
        <time>2020-09-15 12:03:59</time>
      </trkpt>
      <trkpt lat="45.68994" lon="6.23131">
        <ele>2099.27</ele>
        <time>2020-09-15 12:04:00</time>
      </trkpt>
      <trkpt lat="45.68992" lon="6.23133">
        <ele>2100.642</ele>
        <time>2020-09-15 12:04:09</time>
      </trkpt>
      <trkpt lat="45.68992" lon="6.23133">
        <ele>2100.6284</ele>
        <time>2020-09-15 12:04:11</time>
      </trkpt>
      <trkpt lat="45.68992" lon="6.23133">
        <ele>2100.6577</ele>
        <time>2020-09-15 12:04:12</time>
      </trkpt>
      <trkpt lat="45.68992" lon="6.23133">
        <ele>2101.0503</ele>
        <time>2020-09-15 12:04:15</time>
      </trkpt>
      <trkpt lat="45.68991" lon="6.23133">
        <ele>2100.935</ele>
        <time>2020-09-15 12:04:19</time>
      </trkpt>
      <trkpt lat="45.68991" lon="6.23134">
        <ele>2102.4612</ele>
        <time>2020-09-15 12:05:02</time>
      </trkpt>
      <trkpt lat="45.68991" lon="6.23134">
        <ele>2101.7637</ele>
        <time>2020-09-15 12:05:03</time>
      </trkpt>
      <trkpt lat="45.68992" lon="6.23134">
        <ele>2101.7554</ele>
        <time>2020-09-15 12:05:07</time>
      </trkpt>
      <trkpt lat="45.68993" lon="6.23134">
        <ele>2101.453</ele>
        <time>2020-09-15 12:05:10</time>
      </trkpt>
      <trkpt lat="45.68992" lon="6.23134">
        <ele>2101.7822</ele>
        <time>2020-09-15 12:05:48</time>
      </trkpt>
      <trkpt lat="45.68991" lon="6.23134">
        <ele>2101.7227</ele>
        <time>2020-09-15 12:06:14</time>
      </trkpt>
      <trkpt lat="45.68991" lon="6.23134">
        <ele>2101.55</ele>
        <time>2020-09-15 12:06:15</time>
      </trkpt>
      <trkpt lat="45.68991" lon="6.23134">
        <ele>2101.1206</ele>
        <time>2020-09-15 12:07:30</time>
      </trkpt>
      <trkpt lat="45.68991" lon="6.23134">
        <ele>2101.305</ele>
        <time>2020-09-15 12:08:21</time>
      </trkpt>
      <trkpt lat="45.68991" lon="6.23134">
        <ele>2100.8008</ele>
        <time>2020-09-15 12:09:33</time>
      </trkpt>
      <trkpt lat="45.6899" lon="6.23134">
        <ele>2100.873</ele>
        <time>2020-09-15 12:09:37</time>
      </trkpt>
      <trkpt lat="45.6899" lon="6.23134">
        <ele>2100.6482</ele>
        <time>2020-09-15 12:09:39</time>
      </trkpt>
      <trkpt lat="45.68991" lon="6.23134">
        <ele>2101.253</ele>
        <time>2020-09-15 12:09:50</time>
      </trkpt>
      <trkpt lat="45.68987" lon="6.23135">
        <ele>2102.9607</ele>
        <time>2020-09-15 12:10:00</time>
      </trkpt>
      <trkpt lat="45.68987" lon="6.23136">
        <ele>2103.4158</ele>
        <time>2020-09-15 12:10:01</time>
      </trkpt>
      <trkpt lat="45.68983" lon="6.23136">
        <ele>2102.185</ele>
        <time>2020-09-15 12:10:09</time>
      </trkpt>
      <trkpt lat="45.68982" lon="6.23136">
        <ele>2106.8076</ele>
        <time>2020-09-15 12:10:12</time>
      </trkpt>
      <trkpt lat="45.68982" lon="6.23136">
        <ele>2107.2031</ele>
        <time>2020-09-15 12:10:14</time>
      </trkpt>
      <trkpt lat="45.6898" lon="6.23137">
        <ele>2107.154</ele>
        <time>2020-09-15 12:10:19</time>
      </trkpt>
      <trkpt lat="45.68978" lon="6.23137">
        <ele>2107.0613</ele>
        <time>2020-09-15 12:10:21</time>
      </trkpt>
      <trkpt lat="45.68976" lon="6.23133">
        <ele>2111.3486</ele>
        <time>2020-09-15 12:10:33</time>
      </trkpt>
      <trkpt lat="45.68973" lon="6.23132">
        <ele>2111.6067</ele>
        <time>2020-09-15 12:10:39</time>
      </trkpt>
      <trkpt lat="45.68971" lon="6.23131">
        <ele>2111.8972</ele>
        <time>2020-09-15 12:10:45</time>
      </trkpt>
      <trkpt lat="45.6897" lon="6.2313">
        <ele>2112.178</ele>
        <time>2020-09-15 12:10:47</time>
      </trkpt>
      <trkpt lat="45.68969" lon="6.23129">
        <ele>2111.6067</ele>
        <time>2020-09-15 12:10:51</time>
      </trkpt>
      <trkpt lat="45.68968" lon="6.23128">
        <ele>2113.2852</ele>
        <time>2020-09-15 12:10:56</time>
      </trkpt>
      <trkpt lat="45.68964" lon="6.23126">
        <ele>2116.868</ele>
        <time>2020-09-15 12:11:09</time>
      </trkpt>
      <trkpt lat="45.68961" lon="6.23125">
        <ele>2118.761</ele>
        <time>2020-09-15 12:11:17</time>
      </trkpt>
      <trkpt lat="45.68961" lon="6.23125">
        <ele>2118.9756</ele>
        <time>2020-09-15 12:11:22</time>
      </trkpt>
      <trkpt lat="45.68961" lon="6.23125">
        <ele>2119.1223</ele>
        <time>2020-09-15 12:11:23</time>
      </trkpt>
      <trkpt lat="45.6896" lon="6.23125">
        <ele>2120.083</ele>
        <time>2020-09-15 12:11:26</time>
      </trkpt>
      <trkpt lat="45.68956" lon="6.23123">
        <ele>2118.9756</ele>
        <time>2020-09-15 12:11:34</time>
      </trkpt>
      <trkpt lat="45.68952" lon="6.23123">
        <ele>2121.4995</ele>
        <time>2020-09-15 12:11:44</time>
      </trkpt>
      <trkpt lat="45.6895" lon="6.23117">
        <ele>2123.7236</ele>
        <time>2020-09-15 12:11:55</time>
      </trkpt>
      <trkpt lat="45.68949" lon="6.23117">
        <ele>2124.3865</ele>
        <time>2020-09-15 12:11:58</time>
      </trkpt>
      <trkpt lat="45.68945" lon="6.23118">
        <ele>2124.4531</ele>
        <time>2020-09-15 12:12:05</time>
      </trkpt>
      <trkpt lat="45.68943" lon="6.23115">
        <ele>2124.4336</ele>
        <time>2020-09-15 12:12:11</time>
      </trkpt>
      <trkpt lat="45.68934" lon="6.2311">
        <ele>2129.2388</ele>
        <time>2020-09-15 12:12:30</time>
      </trkpt>
      <trkpt lat="45.6893" lon="6.23109">
        <ele>2132.127</ele>
        <time>2020-09-15 12:12:39</time>
      </trkpt>
      <trkpt lat="45.68925" lon="6.23109">
        <ele>2133.4873</ele>
        <time>2020-09-15 12:12:46</time>
      </trkpt>
      <trkpt lat="45.68922" lon="6.23109">
        <ele>2133.091</ele>
        <time>2020-09-15 12:12:52</time>
      </trkpt>
      <trkpt lat="45.68919" lon="6.23109">
        <ele>2132.6814</ele>
        <time>2020-09-15 12:12:57</time>
      </trkpt>
      <trkpt lat="45.68914" lon="6.23109">
        <ele>2133.3325</ele>
        <time>2020-09-15 12:13:07</time>
      </trkpt>
      <trkpt lat="45.68911" lon="6.23108">
        <ele>2134.2258</ele>
        <time>2020-09-15 12:13:14</time>
      </trkpt>
      <trkpt lat="45.68909" lon="6.23108">
        <ele>2134.1377</ele>
        <time>2020-09-15 12:13:18</time>
      </trkpt>
      <trkpt lat="45.68907" lon="6.2311">
        <ele>2135.1584</ele>
        <time>2020-09-15 12:13:21</time>
      </trkpt>
      <trkpt lat="45.68904" lon="6.23111">
        <ele>2134.299</ele>
        <time>2020-09-15 12:13:25</time>
      </trkpt>
      <trkpt lat="45.68901" lon="6.23112">
        <ele>2133.86</ele>
        <time>2020-09-15 12:13:28</time>
      </trkpt>
      <trkpt lat="45.68899" lon="6.23111">
        <ele>2135.5269</ele>
        <time>2020-09-15 12:13:34</time>
      </trkpt>
      <trkpt lat="45.68898" lon="6.23111">
        <ele>2135.361</ele>
        <time>2020-09-15 12:14:07</time>
      </trkpt>
      <trkpt lat="45.6889" lon="6.23111">
        <ele>2136.4424</ele>
        <time>2020-09-15 12:14:17</time>
      </trkpt>
      <trkpt lat="45.68887" lon="6.23112">
        <ele>2136.1953</ele>
        <time>2020-09-15 12:14:20</time>
      </trkpt>
      <trkpt lat="45.68883" lon="6.23113">
        <ele>2136.6235</ele>
        <time>2020-09-15 12:14:25</time>
      </trkpt>
      <trkpt lat="45.68881" lon="6.23114">
        <ele>2136.6086</ele>
        <time>2020-09-15 12:14:28</time>
      </trkpt>
      <trkpt lat="45.68877" lon="6.23114">
        <ele>2137.2905</ele>
        <time>2020-09-15 12:14:32</time>
      </trkpt>
      <trkpt lat="45.68874" lon="6.23112">
        <ele>2136.6582</ele>
        <time>2020-09-15 12:14:36</time>
      </trkpt>
      <trkpt lat="45.6887" lon="6.23111">
        <ele>2136.591</ele>
        <time>2020-09-15 12:14:42</time>
      </trkpt>
      <trkpt lat="45.68867" lon="6.2311">
        <ele>2137.5073</ele>
        <time>2020-09-15 12:14:48</time>
      </trkpt>
      <trkpt lat="45.68864" lon="6.2311">
        <ele>2137.3508</ele>
        <time>2020-09-15 12:14:55</time>
      </trkpt>
      <trkpt lat="45.68863" lon="6.2311">
        <ele>2137.2844</ele>
        <time>2020-09-15 12:14:56</time>
      </trkpt>
      <trkpt lat="45.68862" lon="6.2311">
        <ele>2137.5513</ele>
        <time>2020-09-15 12:14:58</time>
      </trkpt>
      <trkpt lat="45.68861" lon="6.2311">
        <ele>2137.3936</ele>
        <time>2020-09-15 12:15:04</time>
      </trkpt>
      <trkpt lat="45.68861" lon="6.2311">
        <ele>2137.321</ele>
        <time>2020-09-15 12:15:06</time>
      </trkpt>
      <trkpt lat="45.6886" lon="6.2311">
        <ele>2137.3254</ele>
        <time>2020-09-15 12:15:09</time>
      </trkpt>
      <trkpt lat="45.6886" lon="6.2311">
        <ele>2137.374</ele>
        <time>2020-09-15 12:15:10</time>
      </trkpt>
      <trkpt lat="45.6886" lon="6.2311">
        <ele>2137.5256</ele>
        <time>2020-09-15 12:15:12</time>
      </trkpt>
      <trkpt lat="45.6886" lon="6.2311">
        <ele>2137.4854</ele>
        <time>2020-09-15 12:15:14</time>
      </trkpt>
      <trkpt lat="45.6886" lon="6.23109">
        <ele>2137.7742</ele>
        <time>2020-09-15 12:15:18</time>
      </trkpt>
      <trkpt lat="45.68859" lon="6.23109">
        <ele>2137.8147</ele>
        <time>2020-09-15 12:15:20</time>
      </trkpt>
      <trkpt lat="45.68859" lon="6.23108">
        <ele>2137.734</ele>
        <time>2020-09-15 12:15:21</time>
      </trkpt>
      <trkpt lat="45.68859" lon="6.23108">
        <ele>2136.6597</ele>
        <time>2020-09-15 12:15:42</time>
      </trkpt>
      <trkpt lat="45.68859" lon="6.23108">
        <ele>2136.678</ele>
        <time>2020-09-15 12:15:45</time>
      </trkpt>
      <trkpt lat="45.68859" lon="6.23108">
        <ele>2136.6633</ele>
        <time>2020-09-15 12:15:46</time>
      </trkpt>
      <trkpt lat="45.68859" lon="6.23108">
        <ele>2136.863</ele>
        <time>2020-09-15 12:15:47</time>
      </trkpt>
      <trkpt lat="45.6886" lon="6.23109">
        <ele>2137.35</ele>
        <time>2020-09-15 12:16:28</time>
      </trkpt>
      <trkpt lat="45.6886" lon="6.23109">
        <ele>2137.6526</ele>
        <time>2020-09-15 12:16:59</time>
      </trkpt>
      <trkpt lat="45.68859" lon="6.23109">
        <ele>2137.4897</ele>
        <time>2020-09-15 12:17:01</time>
      </trkpt>
      <trkpt lat="45.6886" lon="6.23109">
        <ele>2137.8564</ele>
        <time>2020-09-15 12:17:05</time>
      </trkpt>
      <trkpt lat="45.6886" lon="6.23109">
        <ele>2137.3699</ele>
        <time>2020-09-15 12:17:07</time>
      </trkpt>
      <trkpt lat="45.68859" lon="6.2311">
        <ele>2138.444</ele>
        <time>2020-09-15 12:17:46</time>
      </trkpt>
      <trkpt lat="45.68859" lon="6.23109">
        <ele>2138.5637</ele>
        <time>2020-09-15 12:17:55</time>
      </trkpt>
      <trkpt lat="45.68859" lon="6.23109">
        <ele>2138.4424</ele>
        <time>2020-09-15 12:17:59</time>
      </trkpt>
      <trkpt lat="45.68859" lon="6.23109">
        <ele>2138.5999</ele>
        <time>2020-09-15 12:18:01</time>
      </trkpt>
      <trkpt lat="45.68859" lon="6.23109">
        <ele>2138.392</ele>
        <time>2020-09-15 12:18:02</time>
      </trkpt>
      <trkpt lat="45.68859" lon="6.23109">
        <ele>2138.4746</ele>
        <time>2020-09-15 12:18:03</time>
      </trkpt>
      <trkpt lat="45.68859" lon="6.23108">
        <ele>2138.1067</ele>
        <time>2020-09-15 12:18:04</time>
      </trkpt>
      <trkpt lat="45.68858" lon="6.23109">
        <ele>2138.6426</ele>
        <time>2020-09-15 12:18:15</time>
      </trkpt>
      <trkpt lat="45.68858" lon="6.23108">
        <ele>2138.7705</ele>
        <time>2020-09-15 12:18:16</time>
      </trkpt>
      <trkpt lat="45.68858" lon="6.23109">
        <ele>2139.2583</ele>
        <time>2020-09-15 12:18:18</time>
      </trkpt>
      <trkpt lat="45.68858" lon="6.23109">
        <ele>2139.1191</ele>
        <time>2020-09-15 12:18:21</time>
      </trkpt>
      <trkpt lat="45.68859" lon="6.23109">
        <ele>2141.1338</ele>
        <time>2020-09-15 12:19:01</time>
      </trkpt>
      <trkpt lat="45.68858" lon="6.23109">
        <ele>2139.7466</ele>
        <time>2020-09-15 12:19:25</time>
      </trkpt>
      <trkpt lat="45.68858" lon="6.23109">
        <ele>2140.036</ele>
        <time>2020-09-15 12:19:26</time>
      </trkpt>
      <trkpt lat="45.68858" lon="6.2311">
        <ele>2139.7527</ele>
        <time>2020-09-15 12:20:06</time>
      </trkpt>
      <trkpt lat="45.68858" lon="6.2311">
        <ele>2139.614</ele>
        <time>2020-09-15 12:20:15</time>
      </trkpt>
      <trkpt lat="45.68858" lon="6.2311">
        <ele>2139.9785</ele>
        <time>2020-09-15 12:20:16</time>
      </trkpt>
      <trkpt lat="45.68858" lon="6.23109">
        <ele>2139.7114</ele>
        <time>2020-09-15 12:20:26</time>
      </trkpt>
      <trkpt lat="45.68858" lon="6.23109">
        <ele>2139.9277</ele>
        <time>2020-09-15 12:20:29</time>
      </trkpt>
      <trkpt lat="45.68858" lon="6.23109">
        <ele>2139.8855</ele>
        <time>2020-09-15 12:20:30</time>
      </trkpt>
      <trkpt lat="45.68858" lon="6.23109">
        <ele>2139.745</ele>
        <time>2020-09-15 12:20:31</time>
      </trkpt>
      <trkpt lat="45.68858" lon="6.2311">
        <ele>2138.9116</ele>
        <time>2020-09-15 12:20:35</time>
      </trkpt>
      <trkpt lat="45.68858" lon="6.23109">
        <ele>2138.701</ele>
        <time>2020-09-15 12:20:37</time>
      </trkpt>
      <trkpt lat="45.68858" lon="6.23109">
        <ele>2137.5393</ele>
        <time>2020-09-15 12:20:42</time>
      </trkpt>
      <trkpt lat="45.68858" lon="6.23109">
        <ele>2137.6155</ele>
        <time>2020-09-15 12:20:43</time>
      </trkpt>
      <trkpt lat="45.68858" lon="6.23109">
        <ele>2137.6619</ele>
        <time>2020-09-15 12:20:44</time>
      </trkpt>
      <trkpt lat="45.68858" lon="6.23109">
        <ele>2136.881</ele>
        <time>2020-09-15 12:20:46</time>
      </trkpt>
      <trkpt lat="45.68858" lon="6.23109">
        <ele>2138.9116</ele>
        <time>2020-09-15 12:20:47</time>
      </trkpt>
      <trkpt lat="45.68858" lon="6.23108">
        <ele>2136.1172</ele>
        <time>2020-09-15 12:20:48</time>
      </trkpt>
      <trkpt lat="45.68858" lon="6.23109">
        <ele>2135.5752</ele>
        <time>2020-09-15 12:20:49</time>
      </trkpt>
      <trkpt lat="45.68858" lon="6.23109">
        <ele>2134.8762</ele>
        <time>2020-09-15 12:20:51</time>
      </trkpt>
      <trkpt lat="45.68858" lon="6.23108">
        <ele>2134.3708</ele>
        <time>2020-09-15 12:20:55</time>
      </trkpt>
      <trkpt lat="45.68858" lon="6.23108">
        <ele>2133.983</ele>
        <time>2020-09-15 12:20:57</time>
      </trkpt>
      <trkpt lat="45.68858" lon="6.23108">
        <ele>2136.1172</ele>
        <time>2020-09-15 12:21:01</time>
      </trkpt>
      <trkpt lat="45.68858" lon="6.23108">
        <ele>2133.4927</ele>
        <time>2020-09-15 12:21:02</time>
      </trkpt>
      <trkpt lat="45.68858" lon="6.23109">
        <ele>2132.3525</ele>
        <time>2020-09-15 12:21:05</time>
      </trkpt>
      <trkpt lat="45.68858" lon="6.23108">
        <ele>2131.6038</ele>
        <time>2020-09-15 12:21:07</time>
      </trkpt>
      <trkpt lat="45.68858" lon="6.23108">
        <ele>2131.3716</ele>
        <time>2020-09-15 12:21:44</time>
      </trkpt>
      <trkpt lat="45.68859" lon="6.2311">
        <ele>2131.7236</ele>
        <time>2020-09-15 12:21:46</time>
      </trkpt>
      <trkpt lat="45.68858" lon="6.23113">
        <ele>2132.1306</ele>
        <time>2020-09-15 12:22:23</time>
      </trkpt>
      <trkpt lat="45.68858" lon="6.23113">
        <ele>2132.216</ele>
        <time>2020-09-15 12:23:09</time>
      </trkpt>
      <trkpt lat="45.68857" lon="6.23113">
        <ele>2130.4065</ele>
        <time>2020-09-15 12:23:30</time>
      </trkpt>
      <trkpt lat="45.68858" lon="6.23113">
        <ele>2131.6338</ele>
        <time>2020-09-15 12:23:31</time>
      </trkpt>
      <trkpt lat="45.68856" lon="6.23118">
        <ele>2132.145</ele>
        <time>2020-09-15 12:24:13</time>
      </trkpt>
      <trkpt lat="45.68861" lon="6.23111">
        <ele>2125.2507</ele>
        <time>2020-09-15 12:25:38</time>
      </trkpt>
      <trkpt lat="45.6886" lon="6.23113">
        <ele>2126.5378</ele>
        <time>2020-09-15 12:26:24</time>
      </trkpt>
      <trkpt lat="45.6886" lon="6.23113">
        <ele>2126.66</ele>
        <time>2020-09-15 12:27:06</time>
      </trkpt>
      <trkpt lat="45.6886" lon="6.23113">
        <ele>2128.7122</ele>
        <time>2020-09-15 12:27:21</time>
      </trkpt>
      <trkpt lat="45.6886" lon="6.23112">
        <ele>2127.7688</ele>
        <time>2020-09-15 12:27:22</time>
      </trkpt>
      <trkpt lat="45.68861" lon="6.23108">
        <ele>2127.2969</ele>
        <time>2020-09-15 12:28:10</time>
      </trkpt>
      <trkpt lat="45.68862" lon="6.23105">
        <ele>2125.4941</ele>
        <time>2020-09-15 12:29:08</time>
      </trkpt>
      <trkpt lat="45.68862" lon="6.23106">
        <ele>2126.1853</ele>
        <time>2020-09-15 12:30:17</time>
      </trkpt>
      <trkpt lat="45.68859" lon="6.23109">
        <ele>2128.772</ele>
        <time>2020-09-15 12:30:58</time>
      </trkpt>
      <trkpt lat="45.68859" lon="6.23109">
        <ele>2128.816</ele>
        <time>2020-09-15 12:31:14</time>
      </trkpt>
      <trkpt lat="45.6886" lon="6.23109">
        <ele>2128.3694</ele>
        <time>2020-09-15 12:31:15</time>
      </trkpt>
      <trkpt lat="45.68858" lon="6.23109">
        <ele>2129.8306</ele>
        <time>2020-09-15 12:31:45</time>
      </trkpt>
      <trkpt lat="45.68858" lon="6.2311">
        <ele>2129.8013</ele>
        <time>2020-09-15 12:32:47</time>
      </trkpt>
      <trkpt lat="45.68858" lon="6.2311">
        <ele>2129.8318</ele>
        <time>2020-09-15 12:33:44</time>
      </trkpt>
      <trkpt lat="45.68858" lon="6.2311">
        <ele>2129.8384</ele>
        <time>2020-09-15 12:34:20</time>
      </trkpt>
      <trkpt lat="45.68858" lon="6.2311">
        <ele>2129.8425</ele>
        <time>2020-09-15 12:35:01</time>
      </trkpt>
      <trkpt lat="45.68858" lon="6.2311">
        <ele>2129.6963</ele>
        <time>2020-09-15 12:35:45</time>
      </trkpt>
      <trkpt lat="45.68858" lon="6.2311">
        <ele>2129.7256</ele>
        <time>2020-09-15 12:36:38</time>
      </trkpt>
      <trkpt lat="45.68858" lon="6.2311">
        <ele>2129.7217</ele>
        <time>2020-09-15 12:37:57</time>
      </trkpt>
      <trkpt lat="45.68858" lon="6.2311">
        <ele>2129.7144</ele>
        <time>2020-09-15 12:38:50</time>
      </trkpt>
      <trkpt lat="45.68858" lon="6.2311">
        <ele>2130.2368</ele>
        <time>2020-09-15 12:39:22</time>
      </trkpt>
      <trkpt lat="45.68858" lon="6.2311">
        <ele>2129.6194</ele>
        <time>2020-09-15 12:39:23</time>
      </trkpt>
      <trkpt lat="45.68856" lon="6.2311">
        <ele>2129.7334</ele>
        <time>2020-09-15 12:39:41</time>
      </trkpt>
      <trkpt lat="45.68856" lon="6.2311">
        <ele>2129.834</ele>
        <time>2020-09-15 12:39:43</time>
      </trkpt>
      <trkpt lat="45.68854" lon="6.23111">
        <ele>2131.1838</ele>
        <time>2020-09-15 12:39:52</time>
      </trkpt>
      <trkpt lat="45.68854" lon="6.2311">
        <ele>2130.7568</ele>
        <time>2020-09-15 12:39:53</time>
      </trkpt>
      <trkpt lat="45.68854" lon="6.2311">
        <ele>2131.1118</ele>
        <time>2020-09-15 12:39:56</time>
      </trkpt>
      <trkpt lat="45.68854" lon="6.23109">
        <ele>2130.9385</ele>
        <time>2020-09-15 12:39:57</time>
      </trkpt>
      <trkpt lat="45.68853" lon="6.23109">
        <ele>2131.2783</ele>
        <time>2020-09-15 12:39:59</time>
      </trkpt>
      <trkpt lat="45.68853" lon="6.23109">
        <ele>2131.0498</ele>
        <time>2020-09-15 12:40:01</time>
      </trkpt>
      <trkpt lat="45.68852" lon="6.23109">
        <ele>2131.079</ele>
        <time>2020-09-15 12:40:02</time>
      </trkpt>
      <trkpt lat="45.68853" lon="6.23108">
        <ele>2130.5522</ele>
        <time>2020-09-15 12:40:03</time>
      </trkpt>
      <trkpt lat="45.68853" lon="6.23108">
        <ele>2130.5264</ele>
        <time>2020-09-15 12:40:05</time>
      </trkpt>
      <trkpt lat="45.68853" lon="6.23107">
        <ele>2129.5786</ele>
        <time>2020-09-15 12:40:11</time>
      </trkpt>
      <trkpt lat="45.68853" lon="6.23107">
        <ele>2129.5066</ele>
        <time>2020-09-15 12:40:12</time>
      </trkpt>
      <trkpt lat="45.68853" lon="6.23106">
        <ele>2129.245</ele>
        <time>2020-09-15 12:40:23</time>
      </trkpt>
      <trkpt lat="45.68853" lon="6.23106">
        <ele>2128.8025</ele>
        <time>2020-09-15 12:40:24</time>
      </trkpt>
      <trkpt lat="45.68853" lon="6.23106">
        <ele>2129.2026</ele>
        <time>2020-09-15 12:40:25</time>
      </trkpt>
      <trkpt lat="45.68854" lon="6.23107">
        <ele>2128.7031</ele>
        <time>2020-09-15 12:40:28</time>
      </trkpt>
      <trkpt lat="45.68854" lon="6.23107">
        <ele>2129.7732</ele>
        <time>2020-09-15 12:40:29</time>
      </trkpt>
      <trkpt lat="45.68854" lon="6.23107">
        <ele>2127.8513</ele>
        <time>2020-09-15 12:40:32</time>
      </trkpt>
      <trkpt lat="45.68854" lon="6.23107">
        <ele>2129.1665</ele>
        <time>2020-09-15 12:40:33</time>
      </trkpt>
      <trkpt lat="45.68854" lon="6.23106">
        <ele>2128.3372</ele>
        <time>2020-09-15 12:40:36</time>
      </trkpt>
      <trkpt lat="45.68854" lon="6.23106">
        <ele>2130.336</ele>
        <time>2020-09-15 12:40:39</time>
      </trkpt>
      <trkpt lat="45.68853" lon="6.23106">
        <ele>2131.471</ele>
        <time>2020-09-15 12:40:42</time>
      </trkpt>
      <trkpt lat="45.68853" lon="6.23106">
        <ele>2131.6462</ele>
        <time>2020-09-15 12:40:45</time>
      </trkpt>
      <trkpt lat="45.68852" lon="6.23106">
        <ele>2131.8423</ele>
        <time>2020-09-15 12:40:46</time>
      </trkpt>
      <trkpt lat="45.68852" lon="6.23106">
        <ele>2128.7764</ele>
        <time>2020-09-15 12:40:47</time>
      </trkpt>
      <trkpt lat="45.68852" lon="6.23106">
        <ele>2132.412</ele>
        <time>2020-09-15 12:40:49</time>
      </trkpt>
      <trkpt lat="45.68852" lon="6.23105">
        <ele>2131.5667</ele>
        <time>2020-09-15 12:40:52</time>
      </trkpt>
      <trkpt lat="45.68851" lon="6.23105">
        <ele>2132.6772</ele>
        <time>2020-09-15 12:40:55</time>
      </trkpt>
      <trkpt lat="45.68851" lon="6.23105">
        <ele>2133.5232</ele>
        <time>2020-09-15 12:40:57</time>
      </trkpt>
      <trkpt lat="45.6885" lon="6.23104">
        <ele>2133.5898</ele>
        <time>2020-09-15 12:41:22</time>
      </trkpt>
      <trkpt lat="45.6885" lon="6.23104">
        <ele>2133.4434</ele>
        <time>2020-09-15 12:41:24</time>
      </trkpt>
      <trkpt lat="45.68849" lon="6.23104">
        <ele>2132.814</ele>
        <time>2020-09-15 12:41:25</time>
      </trkpt>
      <trkpt lat="45.68849" lon="6.23104">
        <ele>2134.6772</ele>
        <time>2020-09-15 12:41:27</time>
      </trkpt>
      <trkpt lat="45.68849" lon="6.23104">
        <ele>2135.0276</ele>
        <time>2020-09-15 12:41:28</time>
      </trkpt>
      <trkpt lat="45.68849" lon="6.23104">
        <ele>2135.494</ele>
        <time>2020-09-15 12:41:30</time>
      </trkpt>
      <trkpt lat="45.68849" lon="6.23105">
        <ele>2136.5967</ele>
        <time>2020-09-15 12:41:34</time>
      </trkpt>
      <trkpt lat="45.68849" lon="6.23105">
        <ele>2136.673</ele>
        <time>2020-09-15 12:41:36</time>
      </trkpt>
      <trkpt lat="45.68849" lon="6.23105">
        <ele>2136.982</ele>
        <time>2020-09-15 12:41:37</time>
      </trkpt>
      <trkpt lat="45.68849" lon="6.23105">
        <ele>2134.6772</ele>
        <time>2020-09-15 12:41:39</time>
      </trkpt>
      <trkpt lat="45.6885" lon="6.23104">
        <ele>2137.669</ele>
        <time>2020-09-15 12:42:05</time>
      </trkpt>
      <trkpt lat="45.6885" lon="6.23104">
        <ele>2137.8972</ele>
        <time>2020-09-15 12:42:06</time>
      </trkpt>
      <trkpt lat="45.6885" lon="6.23105">
        <ele>2138.5535</ele>
        <time>2020-09-15 12:42:08</time>
      </trkpt>
      <trkpt lat="45.68849" lon="6.23105">
        <ele>2139.014</ele>
        <time>2020-09-15 12:42:10</time>
      </trkpt>
      <trkpt lat="45.68848" lon="6.23105">
        <ele>2139.7727</ele>
        <time>2020-09-15 12:42:12</time>
      </trkpt>
      <trkpt lat="45.68848" lon="6.23105">
        <ele>2139.9512</ele>
        <time>2020-09-15 12:42:13</time>
      </trkpt>
      <trkpt lat="45.68842" lon="6.23104">
        <ele>2141.9492</ele>
        <time>2020-09-15 12:42:23</time>
      </trkpt>
      <trkpt lat="45.68841" lon="6.23103">
        <ele>2142.4824</ele>
        <time>2020-09-15 12:42:27</time>
      </trkpt>
      <trkpt lat="45.68841" lon="6.23103">
        <ele>2141.9565</ele>
        <time>2020-09-15 12:42:31</time>
      </trkpt>
      <trkpt lat="45.68838" lon="6.23103">
        <ele>2143.4937</ele>
        <time>2020-09-15 12:42:37</time>
      </trkpt>
      <trkpt lat="45.68833" lon="6.23102">
        <ele>2144.2974</ele>
        <time>2020-09-15 12:42:49</time>
      </trkpt>
      <trkpt lat="45.68829" lon="6.23101">
        <ele>2145.9478</ele>
        <time>2020-09-15 12:42:57</time>
      </trkpt>
      <trkpt lat="45.68824" lon="6.23098">
        <ele>2147.4443</ele>
        <time>2020-09-15 12:43:07</time>
      </trkpt>
      <trkpt lat="45.68807" lon="6.23091">
        <ele>2152.5427</ele>
        <time>2020-09-15 12:43:44</time>
      </trkpt>
      <trkpt lat="45.68805" lon="6.23091">
        <ele>2154.1345</ele>
        <time>2020-09-15 12:43:50</time>
      </trkpt>
      <trkpt lat="45.68804" lon="6.23089">
        <ele>2155.4468</ele>
        <time>2020-09-15 12:44:00</time>
      </trkpt>
      <trkpt lat="45.68804" lon="6.23089">
        <ele>2155.734</ele>
        <time>2020-09-15 12:44:02</time>
      </trkpt>
      <trkpt lat="45.68805" lon="6.23089">
        <ele>2153.654</ele>
        <time>2020-09-15 12:44:05</time>
      </trkpt>
      <trkpt lat="45.68804" lon="6.23089">
        <ele>2155.8333</ele>
        <time>2020-09-15 12:44:07</time>
      </trkpt>
      <trkpt lat="45.68803" lon="6.23088">
        <ele>2155.3464</ele>
        <time>2020-09-15 12:44:21</time>
      </trkpt>
      <trkpt lat="45.68802" lon="6.23087">
        <ele>2155.358</ele>
        <time>2020-09-15 12:44:23</time>
      </trkpt>
      <trkpt lat="45.68802" lon="6.23086">
        <ele>2155.8735</ele>
        <time>2020-09-15 12:44:25</time>
      </trkpt>
      <trkpt lat="45.68802" lon="6.23086">
        <ele>2156.2522</ele>
        <time>2020-09-15 12:44:29</time>
      </trkpt>
      <trkpt lat="45.68799" lon="6.23083">
        <ele>2155.972</ele>
        <time>2020-09-15 12:44:36</time>
      </trkpt>
      <trkpt lat="45.68799" lon="6.23081">
        <ele>2157.9172</ele>
        <time>2020-09-15 12:44:42</time>
      </trkpt>
      <trkpt lat="45.68799" lon="6.23081">
        <ele>2158.1487</ele>
        <time>2020-09-15 12:44:43</time>
      </trkpt>
      <trkpt lat="45.688" lon="6.2308">
        <ele>2156.13</ele>
        <time>2020-09-15 12:44:46</time>
      </trkpt>
      <trkpt lat="45.688" lon="6.23081">
        <ele>2157.3594</ele>
        <time>2020-09-15 12:45:22</time>
      </trkpt>
      <trkpt lat="45.688" lon="6.23081">
        <ele>2157.2988</ele>
        <time>2020-09-15 12:46:06</time>
      </trkpt>
      <trkpt lat="45.688" lon="6.2308">
        <ele>2157.8325</ele>
        <time>2020-09-15 12:46:17</time>
      </trkpt>
      <trkpt lat="45.68801" lon="6.2308">
        <ele>2157.9563</ele>
        <time>2020-09-15 12:46:18</time>
      </trkpt>
      <trkpt lat="45.688" lon="6.2308">
        <ele>2158.5078</ele>
        <time>2020-09-15 12:46:21</time>
      </trkpt>
      <trkpt lat="45.68799" lon="6.2308">
        <ele>2158.0447</ele>
        <time>2020-09-15 12:46:31</time>
      </trkpt>
      <trkpt lat="45.68798" lon="6.23079">
        <ele>2158.5234</ele>
        <time>2020-09-15 12:46:36</time>
      </trkpt>
      <trkpt lat="45.68798" lon="6.23079">
        <ele>2158.6252</ele>
        <time>2020-09-15 12:46:37</time>
      </trkpt>
      <trkpt lat="45.68798" lon="6.23079">
        <ele>2158.925</ele>
        <time>2020-09-15 12:46:38</time>
      </trkpt>
      <trkpt lat="45.68798" lon="6.23078">
        <ele>2159.272</ele>
        <time>2020-09-15 12:46:39</time>
      </trkpt>
      <trkpt lat="45.68798" lon="6.23078">
        <ele>2159.705</ele>
        <time>2020-09-15 12:46:40</time>
      </trkpt>
      <trkpt lat="45.68798" lon="6.23078">
        <ele>2158.0447</ele>
        <time>2020-09-15 12:46:42</time>
      </trkpt>
      <trkpt lat="45.68797" lon="6.23077">
        <ele>2160.2832</ele>
        <time>2020-09-15 12:46:44</time>
      </trkpt>
      <trkpt lat="45.68797" lon="6.23076">
        <ele>2160.5105</ele>
        <time>2020-09-15 12:46:49</time>
      </trkpt>
      <trkpt lat="45.68796" lon="6.23075">
        <ele>2161.1975</ele>
        <time>2020-09-15 12:46:53</time>
      </trkpt>
      <trkpt lat="45.68794" lon="6.23076">
        <ele>2161.9229</ele>
        <time>2020-09-15 12:47:00</time>
      </trkpt>
      <trkpt lat="45.68794" lon="6.23076">
        <ele>2162.0847</ele>
        <time>2020-09-15 12:47:03</time>
      </trkpt>
      <trkpt lat="45.68794" lon="6.23076">
        <ele>2162.457</ele>
        <time>2020-09-15 12:47:04</time>
      </trkpt>
      <trkpt lat="45.68794" lon="6.23076">
        <ele>2162.567</ele>
        <time>2020-09-15 12:47:06</time>
      </trkpt>
      <trkpt lat="45.68794" lon="6.23076">
        <ele>2161.9854</ele>
        <time>2020-09-15 12:47:08</time>
      </trkpt>
      <trkpt lat="45.68792" lon="6.23075">
        <ele>2162.8877</ele>
        <time>2020-09-15 12:47:23</time>
      </trkpt>
      <trkpt lat="45.68792" lon="6.23074">
        <ele>2163.489</ele>
        <time>2020-09-15 12:47:24</time>
      </trkpt>
      <trkpt lat="45.68792" lon="6.23074">
        <ele>2163.3882</ele>
        <time>2020-09-15 12:47:25</time>
      </trkpt>
      <trkpt lat="45.68792" lon="6.23074">
        <ele>2163.4158</ele>
        <time>2020-09-15 12:47:26</time>
      </trkpt>
      <trkpt lat="45.68792" lon="6.23074">
        <ele>2163.9111</ele>
        <time>2020-09-15 12:47:27</time>
      </trkpt>
      <trkpt lat="45.68793" lon="6.23074">
        <ele>2163.5537</ele>
        <time>2020-09-15 12:47:28</time>
      </trkpt>
      <trkpt lat="45.68793" lon="6.23074">
        <ele>2164.561</ele>
        <time>2020-09-15 12:47:37</time>
      </trkpt>
      <trkpt lat="45.68792" lon="6.23074">
        <ele>2163.7966</ele>
        <time>2020-09-15 12:47:40</time>
      </trkpt>
      <trkpt lat="45.68792" lon="6.23074">
        <ele>2163.7134</ele>
        <time>2020-09-15 12:48:19</time>
      </trkpt>
      <trkpt lat="45.68792" lon="6.23074">
        <ele>2163.7095</ele>
        <time>2020-09-15 12:49:10</time>
      </trkpt>
      <trkpt lat="45.68793" lon="6.23075">
        <ele>2163.6968</ele>
        <time>2020-09-15 12:50:31</time>
      </trkpt>
      <trkpt lat="45.68792" lon="6.23075">
        <ele>2164.7627</ele>
        <time>2020-09-15 12:50:33</time>
      </trkpt>
      <trkpt lat="45.68792" lon="6.23075">
        <ele>2165.0627</ele>
        <time>2020-09-15 12:50:34</time>
      </trkpt>
      <trkpt lat="45.68791" lon="6.23075">
        <ele>2165.3032</ele>
        <time>2020-09-15 12:50:36</time>
      </trkpt>
      <trkpt lat="45.68791" lon="6.23075">
        <ele>2165.4033</ele>
        <time>2020-09-15 12:50:42</time>
      </trkpt>
      <trkpt lat="45.6879" lon="6.23074">
        <ele>2166.0552</ele>
        <time>2020-09-15 12:50:46</time>
      </trkpt>
      <trkpt lat="45.68789" lon="6.23074">
        <ele>2166.1052</ele>
        <time>2020-09-15 12:50:47</time>
      </trkpt>
      <trkpt lat="45.68787" lon="6.23073">
        <ele>2166.259</ele>
        <time>2020-09-15 12:50:50</time>
      </trkpt>
      <trkpt lat="45.6878" lon="6.23071">
        <ele>2166.5537</ele>
        <time>2020-09-15 12:51:05</time>
      </trkpt>
      <trkpt lat="45.68778" lon="6.23071">
        <ele>2165.9976</ele>
        <time>2020-09-15 12:51:10</time>
      </trkpt>
      <trkpt lat="45.68778" lon="6.23072">
        <ele>2165.751</ele>
        <time>2020-09-15 12:51:14</time>
      </trkpt>
      <trkpt lat="45.68776" lon="6.2307">
        <ele>2166.612</ele>
        <time>2020-09-15 12:51:19</time>
      </trkpt>
      <trkpt lat="45.68767" lon="6.23067">
        <ele>2165.868</ele>
        <time>2020-09-15 12:51:31</time>
      </trkpt>
      <trkpt lat="45.68765" lon="6.23066">
        <ele>2164.229</ele>
        <time>2020-09-15 12:51:36</time>
      </trkpt>
      <trkpt lat="45.68764" lon="6.23067">
        <ele>2163.5625</ele>
        <time>2020-09-15 12:51:40</time>
      </trkpt>
      <trkpt lat="45.68763" lon="6.23068">
        <ele>2163.048</ele>
        <time>2020-09-15 12:51:42</time>
      </trkpt>
      <trkpt lat="45.68758" lon="6.23066">
        <ele>2163.345</ele>
        <time>2020-09-15 12:51:48</time>
      </trkpt>
      <trkpt lat="45.68755" lon="6.23064">
        <ele>2163.9993</ele>
        <time>2020-09-15 12:51:51</time>
      </trkpt>
      <trkpt lat="45.68753" lon="6.23061">
        <ele>2165.357</ele>
        <time>2020-09-15 12:51:56</time>
      </trkpt>
      <trkpt lat="45.68752" lon="6.23058">
        <ele>2165.6392</ele>
        <time>2020-09-15 12:51:59</time>
      </trkpt>
      <trkpt lat="45.6875" lon="6.23056">
        <ele>2165.8652</ele>
        <time>2020-09-15 12:52:02</time>
      </trkpt>
      <trkpt lat="45.68747" lon="6.23053">
        <ele>2165.1047</ele>
        <time>2020-09-15 12:52:07</time>
      </trkpt>
      <trkpt lat="45.68743" lon="6.2305">
        <ele>2164.7979</ele>
        <time>2020-09-15 12:52:12</time>
      </trkpt>
      <trkpt lat="45.68736" lon="6.23049">
        <ele>2163.8394</ele>
        <time>2020-09-15 12:52:20</time>
      </trkpt>
      <trkpt lat="45.68733" lon="6.23049">
        <ele>2162.7878</ele>
        <time>2020-09-15 12:52:23</time>
      </trkpt>
      <trkpt lat="45.68731" lon="6.23049">
        <ele>2162.3318</ele>
        <time>2020-09-15 12:52:26</time>
      </trkpt>
      <trkpt lat="45.68731" lon="6.23049">
        <ele>2163.0066</ele>
        <time>2020-09-15 12:52:27</time>
      </trkpt>
      <trkpt lat="45.68727" lon="6.23046">
        <ele>2163.2969</ele>
        <time>2020-09-15 12:52:32</time>
      </trkpt>
      <trkpt lat="45.68725" lon="6.23046">
        <ele>2163.2808</ele>
        <time>2020-09-15 12:52:34</time>
      </trkpt>
      <trkpt lat="45.68722" lon="6.23045">
        <ele>2163.3132</ele>
        <time>2020-09-15 12:52:38</time>
      </trkpt>
      <trkpt lat="45.68719" lon="6.23045">
        <ele>2163.6675</ele>
        <time>2020-09-15 12:52:43</time>
      </trkpt>
      <trkpt lat="45.68711" lon="6.23039">
        <ele>2168.336</ele>
        <time>2020-09-15 12:52:57</time>
      </trkpt>
      <trkpt lat="45.68707" lon="6.23036">
        <ele>2168.018</ele>
        <time>2020-09-15 12:53:06</time>
      </trkpt>
      <trkpt lat="45.68698" lon="6.23033">
        <ele>2168.6006</ele>
        <time>2020-09-15 12:53:20</time>
      </trkpt>
      <trkpt lat="45.6869" lon="6.23033">
        <ele>2172.9888</ele>
        <time>2020-09-15 12:53:31</time>
      </trkpt>
      <trkpt lat="45.68687" lon="6.23032">
        <ele>2173.4077</ele>
        <time>2020-09-15 12:53:35</time>
      </trkpt>
      <trkpt lat="45.68676" lon="6.23031">
        <ele>2177.0078</ele>
        <time>2020-09-15 12:53:54</time>
      </trkpt>
      <trkpt lat="45.68672" lon="6.23028">
        <ele>2176.7893</ele>
        <time>2020-09-15 12:54:01</time>
      </trkpt>
      <trkpt lat="45.68669" lon="6.23028">
        <ele>2177.8105</ele>
        <time>2020-09-15 12:54:09</time>
      </trkpt>
      <trkpt lat="45.68666" lon="6.23026">
        <ele>2178.503</ele>
        <time>2020-09-15 12:54:14</time>
      </trkpt>
      <trkpt lat="45.68662" lon="6.23026">
        <ele>2178.9473</ele>
        <time>2020-09-15 12:54:21</time>
      </trkpt>
      <trkpt lat="45.68659" lon="6.23024">
        <ele>2181.152</ele>
        <time>2020-09-15 12:54:30</time>
      </trkpt>
      <trkpt lat="45.68657" lon="6.23021">
        <ele>2178.6135</ele>
        <time>2020-09-15 12:54:34</time>
      </trkpt>
      <trkpt lat="45.68652" lon="6.23016">
        <ele>2187.6477</ele>
        <time>2020-09-15 12:54:52</time>
      </trkpt>
      <trkpt lat="45.68646" lon="6.23014">
        <ele>2188.7383</ele>
        <time>2020-09-15 12:55:03</time>
      </trkpt>
      <trkpt lat="45.68645" lon="6.23009">
        <ele>2189.7427</ele>
        <time>2020-09-15 12:55:11</time>
      </trkpt>
      <trkpt lat="45.68644" lon="6.23007">
        <ele>2188.9072</ele>
        <time>2020-09-15 12:55:17</time>
      </trkpt>
      <trkpt lat="45.68644" lon="6.23007">
        <ele>2188.6584</ele>
        <time>2020-09-15 12:55:18</time>
      </trkpt>
      <trkpt lat="45.68643" lon="6.23">
        <ele>2188.7175</ele>
        <time>2020-09-15 12:55:33</time>
      </trkpt>
      <trkpt lat="45.68642" lon="6.22997">
        <ele>2188.307</ele>
        <time>2020-09-15 12:55:37</time>
      </trkpt>
      <trkpt lat="45.68636" lon="6.22992">
        <ele>2188.235</ele>
        <time>2020-09-15 12:55:50</time>
      </trkpt>
      <trkpt lat="45.68635" lon="6.22992">
        <ele>2188.6445</ele>
        <time>2020-09-15 12:55:54</time>
      </trkpt>
      <trkpt lat="45.68635" lon="6.22992">
        <ele>2186.9277</ele>
        <time>2020-09-15 12:55:58</time>
      </trkpt>
      <trkpt lat="45.68634" lon="6.22992">
        <ele>2188.8452</ele>
        <time>2020-09-15 12:55:59</time>
      </trkpt>
      <trkpt lat="45.68634" lon="6.22992">
        <ele>2189.0435</ele>
        <time>2020-09-15 12:56:01</time>
      </trkpt>
      <trkpt lat="45.68634" lon="6.22992">
        <ele>2188.4343</ele>
        <time>2020-09-15 12:56:04</time>
      </trkpt>
      <trkpt lat="45.68633" lon="6.22992">
        <ele>2188.2258</ele>
        <time>2020-09-15 12:56:05</time>
      </trkpt>
      <trkpt lat="45.68633" lon="6.22992">
        <ele>2188.2222</ele>
        <time>2020-09-15 12:56:06</time>
      </trkpt>
      <trkpt lat="45.68633" lon="6.22992">
        <ele>2188.3123</ele>
        <time>2020-09-15 12:56:07</time>
      </trkpt>
      <trkpt lat="45.68633" lon="6.22992">
        <ele>2188.5383</ele>
        <time>2020-09-15 12:56:08</time>
      </trkpt>
      <trkpt lat="45.6863" lon="6.2299">
        <ele>2188.2605</ele>
        <time>2020-09-15 12:56:12</time>
      </trkpt>
      <trkpt lat="45.68628" lon="6.22985">
        <ele>2191.481</ele>
        <time>2020-09-15 12:56:25</time>
      </trkpt>
      <trkpt lat="45.68626" lon="6.22983">
        <ele>2194.2046</ele>
        <time>2020-09-15 12:56:35</time>
      </trkpt>
      <trkpt lat="45.68626" lon="6.22982">
        <ele>2194.145</ele>
        <time>2020-09-15 12:56:36</time>
      </trkpt>
      <trkpt lat="45.68625" lon="6.2298">
        <ele>2194.3618</ele>
        <time>2020-09-15 12:56:41</time>
      </trkpt>
      <trkpt lat="45.68625" lon="6.2298">
        <ele>2194.5042</ele>
        <time>2020-09-15 12:56:42</time>
      </trkpt>
      <trkpt lat="45.68624" lon="6.22979">
        <ele>2194.8894</ele>
        <time>2020-09-15 12:56:45</time>
      </trkpt>
      <trkpt lat="45.68624" lon="6.22978">
        <ele>2195.0803</ele>
        <time>2020-09-15 12:56:47</time>
      </trkpt>
      <trkpt lat="45.68624" lon="6.22978">
        <ele>2195.037</ele>
        <time>2020-09-15 12:56:48</time>
      </trkpt>
      <trkpt lat="45.68624" lon="6.22978">
        <ele>2195.3403</ele>
        <time>2020-09-15 12:56:50</time>
      </trkpt>
      <trkpt lat="45.68622" lon="6.22977">
        <ele>2195.1255</ele>
        <time>2020-09-15 12:56:54</time>
      </trkpt>
      <trkpt lat="45.68622" lon="6.22976">
        <ele>2194.6533</ele>
        <time>2020-09-15 12:56:56</time>
      </trkpt>
      <trkpt lat="45.68621" lon="6.22976">
        <ele>2194.0713</ele>
        <time>2020-09-15 12:56:58</time>
      </trkpt>
      <trkpt lat="45.68621" lon="6.22971">
        <ele>2191.7166</ele>
        <time>2020-09-15 12:57:05</time>
      </trkpt>
      <trkpt lat="45.6862" lon="6.22969">
        <ele>2190.4473</ele>
        <time>2020-09-15 12:57:08</time>
      </trkpt>
      <trkpt lat="45.68619" lon="6.22966">
        <ele>2189.5608</ele>
        <time>2020-09-15 12:57:11</time>
      </trkpt>
      <trkpt lat="45.68617" lon="6.22963">
        <ele>2189.222</ele>
        <time>2020-09-15 12:57:14</time>
      </trkpt>
      <trkpt lat="45.68614" lon="6.2296">
        <ele>2190.1409</ele>
        <time>2020-09-15 12:57:21</time>
      </trkpt>
      <trkpt lat="45.68612" lon="6.2296">
        <ele>2190.1196</ele>
        <time>2020-09-15 12:57:26</time>
      </trkpt>
      <trkpt lat="45.68609" lon="6.22959">
        <ele>2189.257</ele>
        <time>2020-09-15 12:57:31</time>
      </trkpt>
      <trkpt lat="45.68606" lon="6.22957">
        <ele>2191.0022</ele>
        <time>2020-09-15 12:57:35</time>
      </trkpt>
      <trkpt lat="45.68603" lon="6.22957">
        <ele>2190.6965</ele>
        <time>2020-09-15 12:57:38</time>
      </trkpt>
      <trkpt lat="45.68599" lon="6.22954">
        <ele>2189.7222</ele>
        <time>2020-09-15 12:57:43</time>
      </trkpt>
      <trkpt lat="45.68597" lon="6.22951">
        <ele>2189.866</ele>
        <time>2020-09-15 12:57:47</time>
      </trkpt>
      <trkpt lat="45.68595" lon="6.22948">
        <ele>2190.4817</ele>
        <time>2020-09-15 12:57:51</time>
      </trkpt>
      <trkpt lat="45.68592" lon="6.22945">
        <ele>2190.1914</ele>
        <time>2020-09-15 12:57:56</time>
      </trkpt>
      <trkpt lat="45.6859" lon="6.22944">
        <ele>2189.3281</ele>
        <time>2020-09-15 12:57:59</time>
      </trkpt>
      <trkpt lat="45.68585" lon="6.22942">
        <ele>2188.5962</ele>
        <time>2020-09-15 12:58:06</time>
      </trkpt>
      <trkpt lat="45.68581" lon="6.2294">
        <ele>2190.109</ele>
        <time>2020-09-15 12:58:13</time>
      </trkpt>
      <trkpt lat="45.68578" lon="6.22939">
        <ele>2190.2664</ele>
        <time>2020-09-15 12:58:16</time>
      </trkpt>
      <trkpt lat="45.68572" lon="6.22937">
        <ele>2190.9978</ele>
        <time>2020-09-15 12:58:23</time>
      </trkpt>
      <trkpt lat="45.6857" lon="6.22934">
        <ele>2191.3618</ele>
        <time>2020-09-15 12:58:26</time>
      </trkpt>
      <trkpt lat="45.68559" lon="6.22926">
        <ele>2193.0374</ele>
        <time>2020-09-15 12:58:43</time>
      </trkpt>
      <trkpt lat="45.68558" lon="6.22925">
        <ele>2192.5393</ele>
        <time>2020-09-15 12:58:48</time>
      </trkpt>
      <trkpt lat="45.68558" lon="6.22925">
        <ele>2192.3928</ele>
        <time>2020-09-15 12:58:49</time>
      </trkpt>
      <trkpt lat="45.68556" lon="6.22924">
        <ele>2192.655</ele>
        <time>2020-09-15 12:58:54</time>
      </trkpt>
      <trkpt lat="45.68556" lon="6.22924">
        <ele>2192.9326</ele>
        <time>2020-09-15 12:58:56</time>
      </trkpt>
      <trkpt lat="45.68556" lon="6.22923">
        <ele>2192.9548</ele>
        <time>2020-09-15 12:58:58</time>
      </trkpt>
      <trkpt lat="45.68556" lon="6.22923">
        <ele>2193.0916</ele>
        <time>2020-09-15 12:58:59</time>
      </trkpt>
      <trkpt lat="45.68555" lon="6.22923">
        <ele>2192.4026</ele>
        <time>2020-09-15 12:59:01</time>
      </trkpt>
      <trkpt lat="45.68555" lon="6.22923">
        <ele>2194.4026</ele>
        <time>2020-09-15 12:59:02</time>
      </trkpt>
      <trkpt lat="45.68552" lon="6.22919">
        <ele>2194.4026</ele>
        <time>2020-09-15 12:59:11</time>
      </trkpt>
      <trkpt lat="45.68549" lon="6.22915">
        <ele>2199.446</ele>
        <time>2020-09-15 12:59:25</time>
      </trkpt>
      <trkpt lat="45.68548" lon="6.22915">
        <ele>2199.0706</ele>
        <time>2020-09-15 12:59:26</time>
      </trkpt>
      <trkpt lat="45.68547" lon="6.22914">
        <ele>2198.9539</ele>
        <time>2020-09-15 12:59:31</time>
      </trkpt>
      <trkpt lat="45.68547" lon="6.22914">
        <ele>2200.7683</ele>
        <time>2020-09-15 12:59:37</time>
      </trkpt>
      <trkpt lat="45.68547" lon="6.22913">
        <ele>2200.9495</ele>
        <time>2020-09-15 12:59:40</time>
      </trkpt>
      <trkpt lat="45.68547" lon="6.22912">
        <ele>2201.1558</ele>
        <time>2020-09-15 13:00:31</time>
      </trkpt>
      <trkpt lat="45.68547" lon="6.22912">
        <ele>2201.1533</ele>
        <time>2020-09-15 13:01:18</time>
      </trkpt>
      <trkpt lat="45.68547" lon="6.22912">
        <ele>2201.662</ele>
        <time>2020-09-15 13:01:49</time>
      </trkpt>
      <trkpt lat="45.68544" lon="6.22913">
        <ele>2203.3809</ele>
        <time>2020-09-15 13:01:56</time>
      </trkpt>
      <trkpt lat="45.6854" lon="6.22913">
        <ele>2202.9446</ele>
        <time>2020-09-15 13:02:00</time>
      </trkpt>
      <trkpt lat="45.68537" lon="6.2291">
        <ele>2203.0596</ele>
        <time>2020-09-15 13:02:07</time>
      </trkpt>
      <trkpt lat="45.68531" lon="6.22907">
        <ele>2207.5435</ele>
        <time>2020-09-15 13:02:22</time>
      </trkpt>
      <trkpt lat="45.6853" lon="6.22907">
        <ele>2208.5662</ele>
        <time>2020-09-15 13:02:26</time>
      </trkpt>
      <trkpt lat="45.68529" lon="6.22904">
        <ele>2210.2458</ele>
        <time>2020-09-15 13:02:36</time>
      </trkpt>
      <trkpt lat="45.68526" lon="6.22903">
        <ele>2210.7683</ele>
        <time>2020-09-15 13:02:42</time>
      </trkpt>
      <trkpt lat="45.68524" lon="6.22902">
        <ele>2211.179</ele>
        <time>2020-09-15 13:02:47</time>
      </trkpt>
      <trkpt lat="45.68524" lon="6.22902">
        <ele>2211.3428</ele>
        <time>2020-09-15 13:02:48</time>
      </trkpt>
      <trkpt lat="45.68523" lon="6.22902">
        <ele>2211.197</ele>
        <time>2020-09-15 13:02:53</time>
      </trkpt>
      <trkpt lat="45.68522" lon="6.22903">
        <ele>2211.1016</ele>
        <time>2020-09-15 13:02:56</time>
      </trkpt>
      <trkpt lat="45.68522" lon="6.22902">
        <ele>2211.535</ele>
        <time>2020-09-15 13:02:57</time>
      </trkpt>
      <trkpt lat="45.6852" lon="6.22902">
        <ele>2211.5422</ele>
        <time>2020-09-15 13:03:02</time>
      </trkpt>
      <trkpt lat="45.6852" lon="6.22902">
        <ele>2210.9595</ele>
        <time>2020-09-15 13:03:03</time>
      </trkpt>
      <trkpt lat="45.6852" lon="6.22902">
        <ele>2211.5615</ele>
        <time>2020-09-15 13:03:04</time>
      </trkpt>
      <trkpt lat="45.6852" lon="6.22902">
        <ele>2211.5864</ele>
        <time>2020-09-15 13:03:06</time>
      </trkpt>
      <trkpt lat="45.6852" lon="6.22902">
        <ele>2211.9412</ele>
        <time>2020-09-15 13:03:07</time>
      </trkpt>
      <trkpt lat="45.6852" lon="6.22902">
        <ele>2212.1687</ele>
        <time>2020-09-15 13:03:11</time>
      </trkpt>
      <trkpt lat="45.68519" lon="6.22901">
        <ele>2212.4207</ele>
        <time>2020-09-15 13:03:13</time>
      </trkpt>
      <trkpt lat="45.68519" lon="6.22901">
        <ele>2212.1343</ele>
        <time>2020-09-15 13:03:14</time>
      </trkpt>
      <trkpt lat="45.68518" lon="6.229">
        <ele>2211.5615</ele>
        <time>2020-09-15 13:03:17</time>
      </trkpt>
      <trkpt lat="45.68517" lon="6.22899">
        <ele>2212.6174</ele>
        <time>2020-09-15 13:03:27</time>
      </trkpt>
      <trkpt lat="45.68517" lon="6.22899">
        <ele>2212.635</ele>
        <time>2020-09-15 13:03:28</time>
      </trkpt>
      <trkpt lat="45.68517" lon="6.22899">
        <ele>2213.4075</ele>
        <time>2020-09-15 13:03:33</time>
      </trkpt>
      <trkpt lat="45.68515" lon="6.22897">
        <ele>2214.8772</ele>
        <time>2020-09-15 13:03:39</time>
      </trkpt>
      <trkpt lat="45.68511" lon="6.22894">
        <ele>2215.2805</ele>
        <time>2020-09-15 13:03:56</time>
      </trkpt>
      <trkpt lat="45.68509" lon="6.2289">
        <ele>2219.1653</ele>
        <time>2020-09-15 13:04:06</time>
      </trkpt>
      <trkpt lat="45.68507" lon="6.22887">
        <ele>2219.4143</ele>
        <time>2020-09-15 13:04:10</time>
      </trkpt>
      <trkpt lat="45.68504" lon="6.22886">
        <ele>2218.682</ele>
        <time>2020-09-15 13:04:16</time>
      </trkpt>
      <trkpt lat="45.68502" lon="6.22887">
        <ele>2217.534</ele>
        <time>2020-09-15 13:04:21</time>
      </trkpt>
      <trkpt lat="45.68502" lon="6.22887">
        <ele>2217.3777</ele>
        <time>2020-09-15 13:04:24</time>
      </trkpt>
      <trkpt lat="45.68501" lon="6.22886">
        <ele>2217.5925</ele>
        <time>2020-09-15 13:04:26</time>
      </trkpt>
      <trkpt lat="45.68501" lon="6.22886">
        <ele>2217.5557</ele>
        <time>2020-09-15 13:04:28</time>
      </trkpt>
      <trkpt lat="45.68501" lon="6.22885">
        <ele>2216.9612</ele>
        <time>2020-09-15 13:04:32</time>
      </trkpt>
      <trkpt lat="45.685" lon="6.22884">
        <ele>2217.1858</ele>
        <time>2020-09-15 13:04:35</time>
      </trkpt>
      <trkpt lat="45.685" lon="6.22884">
        <ele>2217.288</ele>
        <time>2020-09-15 13:04:36</time>
      </trkpt>
      <trkpt lat="45.685" lon="6.22884">
        <ele>2218.1436</ele>
        <time>2020-09-15 13:04:38</time>
      </trkpt>
      <trkpt lat="45.685" lon="6.22884">
        <ele>2218.3237</ele>
        <time>2020-09-15 13:04:39</time>
      </trkpt>
      <trkpt lat="45.685" lon="6.22884">
        <ele>2218.3079</ele>
        <time>2020-09-15 13:04:40</time>
      </trkpt>
      <trkpt lat="45.68499" lon="6.22884">
        <ele>2217.8103</ele>
        <time>2020-09-15 13:04:41</time>
      </trkpt>
      <trkpt lat="45.68498" lon="6.22882">
        <ele>2218.135</ele>
        <time>2020-09-15 13:04:45</time>
      </trkpt>
      <trkpt lat="45.68497" lon="6.22882">
        <ele>2217.1858</ele>
        <time>2020-09-15 13:04:46</time>
      </trkpt>
      <trkpt lat="45.68497" lon="6.22881">
        <ele>2219.7039</ele>
        <time>2020-09-15 13:04:48</time>
      </trkpt>
      <trkpt lat="45.68496" lon="6.22881">
        <ele>2219.583</ele>
        <time>2020-09-15 13:04:49</time>
      </trkpt>
      <trkpt lat="45.68496" lon="6.22881">
        <ele>2219.9688</ele>
        <time>2020-09-15 13:04:51</time>
      </trkpt>
      <trkpt lat="45.68496" lon="6.22881">
        <ele>2220.113</ele>
        <time>2020-09-15 13:04:54</time>
      </trkpt>
      <trkpt lat="45.68496" lon="6.2288">
        <ele>2219.0564</ele>
        <time>2020-09-15 13:05:06</time>
      </trkpt>
      <trkpt lat="45.68495" lon="6.2288">
        <ele>2218.2844</ele>
        <time>2020-09-15 13:05:09</time>
      </trkpt>
      <trkpt lat="45.68495" lon="6.2288">
        <ele>2217.5776</ele>
        <time>2020-09-15 13:05:13</time>
      </trkpt>
      <trkpt lat="45.68493" lon="6.2288">
        <ele>2216.7952</ele>
        <time>2020-09-15 13:05:19</time>
      </trkpt>
      <trkpt lat="45.68493" lon="6.22879">
        <ele>2217.4045</ele>
        <time>2020-09-15 13:05:20</time>
      </trkpt>
      <trkpt lat="45.6849" lon="6.22877">
        <ele>2218.757</ele>
        <time>2020-09-15 13:05:26</time>
      </trkpt>
      <trkpt lat="45.68487" lon="6.22878">
        <ele>2219.5864</ele>
        <time>2020-09-15 13:05:31</time>
      </trkpt>
      <trkpt lat="45.68487" lon="6.22878">
        <ele>2219.405</ele>
        <time>2020-09-15 13:05:32</time>
      </trkpt>
      <trkpt lat="45.68486" lon="6.22878">
        <ele>2219.288</ele>
        <time>2020-09-15 13:05:34</time>
      </trkpt>
      <trkpt lat="45.68486" lon="6.22878">
        <ele>2218.5364</ele>
        <time>2020-09-15 13:05:36</time>
      </trkpt>
      <trkpt lat="45.68485" lon="6.22877">
        <ele>2217.9238</ele>
        <time>2020-09-15 13:05:46</time>
      </trkpt>
      <trkpt lat="45.68485" lon="6.22877">
        <ele>2217.6611</ele>
        <time>2020-09-15 13:05:47</time>
      </trkpt>
      <trkpt lat="45.68485" lon="6.22877">
        <ele>2217.9023</ele>
        <time>2020-09-15 13:05:48</time>
      </trkpt>
      <trkpt lat="45.68484" lon="6.22877">
        <ele>2217.3213</ele>
        <time>2020-09-15 13:05:50</time>
      </trkpt>
      <trkpt lat="45.68484" lon="6.22876">
        <ele>2218.3193</ele>
        <time>2020-09-15 13:05:53</time>
      </trkpt>
      <trkpt lat="45.68484" lon="6.22877">
        <ele>2217.2324</ele>
        <time>2020-09-15 13:05:55</time>
      </trkpt>
      <trkpt lat="45.68483" lon="6.22877">
        <ele>2217.0544</ele>
        <time>2020-09-15 13:05:56</time>
      </trkpt>
      <trkpt lat="45.68483" lon="6.22875">
        <ele>2218.0674</ele>
        <time>2020-09-15 13:05:59</time>
      </trkpt>
      <trkpt lat="45.68484" lon="6.22874">
        <ele>2217.2324</ele>
        <time>2020-09-15 13:06:07</time>
      </trkpt>
      <trkpt lat="45.68483" lon="6.22873">
        <ele>2217.1477</ele>
        <time>2020-09-15 13:06:09</time>
      </trkpt>
      <trkpt lat="45.68484" lon="6.22872">
        <ele>2218.3157</ele>
        <time>2020-09-15 13:06:15</time>
      </trkpt>
      <trkpt lat="45.68484" lon="6.22872">
        <ele>2218.5215</ele>
        <time>2020-09-15 13:06:16</time>
      </trkpt>
      <trkpt lat="45.68484" lon="6.22871">
        <ele>2219.325</ele>
        <time>2020-09-15 13:06:19</time>
      </trkpt>
      <trkpt lat="45.68484" lon="6.22871">
        <ele>2217.1477</ele>
        <time>2020-09-15 13:06:21</time>
      </trkpt>
      <trkpt lat="45.68484" lon="6.22871">
        <ele>2219.6882</ele>
        <time>2020-09-15 13:06:25</time>
      </trkpt>
      <trkpt lat="45.68485" lon="6.22871">
        <ele>2219.6238</ele>
        <time>2020-09-15 13:06:27</time>
      </trkpt>
      <trkpt lat="45.68485" lon="6.22872">
        <ele>2219.796</ele>
        <time>2020-09-15 13:06:37</time>
      </trkpt>
      <trkpt lat="45.68486" lon="6.22873">
        <ele>2219.633</ele>
        <time>2020-09-15 13:06:41</time>
      </trkpt>
      <trkpt lat="45.68487" lon="6.22873">
        <ele>2219.8342</ele>
        <time>2020-09-15 13:06:47</time>
      </trkpt>
      <trkpt lat="45.68487" lon="6.22873">
        <ele>2219.7747</ele>
        <time>2020-09-15 13:06:48</time>
      </trkpt>
      <trkpt lat="45.68485" lon="6.22874">
        <ele>2222.091</ele>
        <time>2020-09-15 13:07:32</time>
      </trkpt>
      <trkpt lat="45.68485" lon="6.22874">
        <ele>2222.2268</ele>
        <time>2020-09-15 13:07:33</time>
      </trkpt>
      <trkpt lat="45.68485" lon="6.22874">
        <ele>2222.2424</ele>
        <time>2020-09-15 13:07:34</time>
      </trkpt>
      <trkpt lat="45.68485" lon="6.22874">
        <ele>2222.6855</ele>
        <time>2020-09-15 13:07:37</time>
      </trkpt>
      <trkpt lat="45.68485" lon="6.22873">
        <ele>2222.1235</ele>
        <time>2020-09-15 13:07:39</time>
      </trkpt>
      <trkpt lat="45.68485" lon="6.22873">
        <ele>2222.5024</ele>
        <time>2020-09-15 13:07:40</time>
      </trkpt>
      <trkpt lat="45.68485" lon="6.22872">
        <ele>2223.3977</ele>
        <time>2020-09-15 13:07:42</time>
      </trkpt>
      <trkpt lat="45.68485" lon="6.22871">
        <ele>2223.5088</ele>
        <time>2020-09-15 13:07:43</time>
      </trkpt>
      <trkpt lat="45.68486" lon="6.2287">
        <ele>2225.4702</ele>
        <time>2020-09-15 13:07:50</time>
      </trkpt>
      <trkpt lat="45.68485" lon="6.22871">
        <ele>2226.6414</ele>
        <time>2020-09-15 13:08:00</time>
      </trkpt>
      <trkpt lat="45.68482" lon="6.22869">
        <ele>2225.9268</ele>
        <time>2020-09-15 13:08:05</time>
      </trkpt>
      <trkpt lat="45.68479" lon="6.22868">
        <ele>2228.7942</ele>
        <time>2020-09-15 13:08:09</time>
      </trkpt>
      <trkpt lat="45.68476" lon="6.22866">
        <ele>2229.4512</ele>
        <time>2020-09-15 13:08:15</time>
      </trkpt>
      <trkpt lat="45.68472" lon="6.22865">
        <ele>2229.027</ele>
        <time>2020-09-15 13:08:20</time>
      </trkpt>
      <trkpt lat="45.68471" lon="6.22863">
        <ele>2229.196</ele>
        <time>2020-09-15 13:08:23</time>
      </trkpt>
      <trkpt lat="45.68467" lon="6.2286">
        <ele>2230.3323</ele>
        <time>2020-09-15 13:08:32</time>
      </trkpt>
      <trkpt lat="45.68465" lon="6.22859">
        <ele>2230.2903</ele>
        <time>2020-09-15 13:08:36</time>
      </trkpt>
      <trkpt lat="45.68462" lon="6.22856">
        <ele>2230.4187</ele>
        <time>2020-09-15 13:08:43</time>
      </trkpt>
      <trkpt lat="45.68462" lon="6.22857">
        <ele>2230.168</ele>
        <time>2020-09-15 13:08:46</time>
      </trkpt>
      <trkpt lat="45.68461" lon="6.22857">
        <ele>2231.0105</ele>
        <time>2020-09-15 13:08:47</time>
      </trkpt>
      <trkpt lat="45.6846" lon="6.22856">
        <ele>2231.362</ele>
        <time>2020-09-15 13:08:49</time>
      </trkpt>
      <trkpt lat="45.6846" lon="6.22856">
        <ele>2231.6353</ele>
        <time>2020-09-15 13:08:52</time>
      </trkpt>
      <trkpt lat="45.6846" lon="6.22856">
        <ele>2231.9795</ele>
        <time>2020-09-15 13:08:53</time>
      </trkpt>
      <trkpt lat="45.68461" lon="6.22856">
        <ele>2232.2012</ele>
        <time>2020-09-15 13:08:54</time>
      </trkpt>
      <trkpt lat="45.68461" lon="6.22856">
        <ele>2232.9502</ele>
        <time>2020-09-15 13:08:55</time>
      </trkpt>
      <trkpt lat="45.68461" lon="6.22858">
        <ele>2233.0786</ele>
        <time>2020-09-15 13:08:59</time>
      </trkpt>
      <trkpt lat="45.68459" lon="6.22858">
        <ele>2232.5713</ele>
        <time>2020-09-15 13:09:03</time>
      </trkpt>
      <trkpt lat="45.68459" lon="6.22857">
        <ele>2232.2283</ele>
        <time>2020-09-15 13:09:05</time>
      </trkpt>
      <trkpt lat="45.68459" lon="6.22857">
        <ele>2232.4417</ele>
        <time>2020-09-15 13:09:07</time>
      </trkpt>
      <trkpt lat="45.68459" lon="6.22856">
        <ele>2232.7676</ele>
        <time>2020-09-15 13:09:09</time>
      </trkpt>
      <trkpt lat="45.68458" lon="6.22856">
        <ele>2233.071</ele>
        <time>2020-09-15 13:09:11</time>
      </trkpt>
      <trkpt lat="45.68455" lon="6.22856">
        <ele>2233.7922</ele>
        <time>2020-09-15 13:09:14</time>
      </trkpt>
      <trkpt lat="45.68453" lon="6.22854">
        <ele>2232.6516</ele>
        <time>2020-09-15 13:09:20</time>
      </trkpt>
      <trkpt lat="45.68449" lon="6.22853">
        <ele>2232.5986</ele>
        <time>2020-09-15 13:09:27</time>
      </trkpt>
      <trkpt lat="45.68446" lon="6.22849">
        <ele>2231.84</ele>
        <time>2020-09-15 13:09:34</time>
      </trkpt>
      <trkpt lat="45.68446" lon="6.22848">
        <ele>2233.0999</ele>
        <time>2020-09-15 13:09:36</time>
      </trkpt>
      <trkpt lat="45.68445" lon="6.22848">
        <ele>2231.4563</ele>
        <time>2020-09-15 13:09:40</time>
      </trkpt>
      <trkpt lat="45.68444" lon="6.22848">
        <ele>2231.2146</ele>
        <time>2020-09-15 13:09:50</time>
      </trkpt>
      <trkpt lat="45.68444" lon="6.22847">
        <ele>2231.6963</ele>
        <time>2020-09-15 13:09:53</time>
      </trkpt>
      <trkpt lat="45.68444" lon="6.22847">
        <ele>2231.2075</ele>
        <time>2020-09-15 13:09:58</time>
      </trkpt>
      <trkpt lat="45.68445" lon="6.22848">
        <ele>2231.7068</ele>
        <time>2020-09-15 13:10:01</time>
      </trkpt>
      <trkpt lat="45.68446" lon="6.22848">
        <ele>2231.1636</ele>
        <time>2020-09-15 13:10:09</time>
      </trkpt>
      <trkpt lat="45.68446" lon="6.22848">
        <ele>2231.1555</ele>
        <time>2020-09-15 13:10:10</time>
      </trkpt>
      <trkpt lat="45.68446" lon="6.22848">
        <ele>2231.4954</ele>
        <time>2020-09-15 13:10:12</time>
      </trkpt>
      <trkpt lat="45.68445" lon="6.22848">
        <ele>2231.451</ele>
        <time>2020-09-15 13:10:43</time>
      </trkpt>
      <trkpt lat="45.68445" lon="6.22848">
        <ele>2231.257</ele>
        <time>2020-09-15 13:10:44</time>
      </trkpt>
      <trkpt lat="45.68445" lon="6.22847">
        <ele>2231.3792</ele>
        <time>2020-09-15 13:10:46</time>
      </trkpt>
      <trkpt lat="45.68445" lon="6.22847">
        <ele>2231.543</ele>
        <time>2020-09-15 13:10:50</time>
      </trkpt>
      <trkpt lat="45.68445" lon="6.22846">
        <ele>2231.257</ele>
        <time>2020-09-15 13:10:53</time>
      </trkpt>
      <trkpt lat="45.68445" lon="6.22846">
        <ele>2231.9375</ele>
        <time>2020-09-15 13:10:54</time>
      </trkpt>
      <trkpt lat="45.68445" lon="6.22847">
        <ele>2231.9375</ele>
        <time>2020-09-15 13:11:05</time>
      </trkpt>
      <trkpt lat="45.68444" lon="6.22848">
        <ele>2232.019</ele>
        <time>2020-09-15 13:11:07</time>
      </trkpt>
      <trkpt lat="45.68444" lon="6.22848">
        <ele>2232.3284</ele>
        <time>2020-09-15 13:11:08</time>
      </trkpt>
      <trkpt lat="45.68445" lon="6.22848">
        <ele>2232.1917</ele>
        <time>2020-09-15 13:11:09</time>
      </trkpt>
      <trkpt lat="45.68445" lon="6.22849">
        <ele>2231.5261</ele>
        <time>2020-09-15 13:11:29</time>
      </trkpt>
      <trkpt lat="45.68446" lon="6.2285">
        <ele>2232.0393</ele>
        <time>2020-09-15 13:11:33</time>
      </trkpt>
      <trkpt lat="45.68446" lon="6.2285">
        <ele>2230.6663</ele>
        <time>2020-09-15 13:11:39</time>
      </trkpt>
      <trkpt lat="45.68448" lon="6.2285">
        <ele>2230.0996</ele>
        <time>2020-09-15 13:11:43</time>
      </trkpt>
      <trkpt lat="45.68448" lon="6.2285">
        <ele>2230.0908</ele>
        <time>2020-09-15 13:11:46</time>
      </trkpt>
      <trkpt lat="45.68448" lon="6.2285">
        <ele>2230.6309</ele>
        <time>2020-09-15 13:11:47</time>
      </trkpt>
      <trkpt lat="45.68448" lon="6.2285">
        <ele>2230.0908</ele>
        <time>2020-09-15 13:11:52</time>
      </trkpt>
      <trkpt lat="45.68449" lon="6.2285">
        <ele>2230.4097</ele>
        <time>2020-09-15 13:11:53</time>
      </trkpt>
      <trkpt lat="45.68449" lon="6.2285">
        <ele>2229.9275</ele>
        <time>2020-09-15 13:11:55</time>
      </trkpt>
      <trkpt lat="45.68449" lon="6.22849">
        <ele>2229.8955</ele>
        <time>2020-09-15 13:11:56</time>
      </trkpt>
      <trkpt lat="45.68449" lon="6.22849">
        <ele>2229.277</ele>
        <time>2020-09-15 13:11:57</time>
      </trkpt>
      <trkpt lat="45.68449" lon="6.22849">
        <ele>2229.0664</ele>
        <time>2020-09-15 13:11:58</time>
      </trkpt>
      <trkpt lat="45.68449" lon="6.22849">
        <ele>2230.0046</ele>
        <time>2020-09-15 13:12:00</time>
      </trkpt>
      <trkpt lat="45.6845" lon="6.22849">
        <ele>2230.7727</ele>
        <time>2020-09-15 13:12:02</time>
      </trkpt>
      <trkpt lat="45.6845" lon="6.22848">
        <ele>2230.862</ele>
        <time>2020-09-15 13:12:04</time>
      </trkpt>
      <trkpt lat="45.6845" lon="6.22848">
        <ele>2230.7917</ele>
        <time>2020-09-15 13:12:05</time>
      </trkpt>
      <trkpt lat="45.68451" lon="6.22848">
        <ele>2231.3848</ele>
        <time>2020-09-15 13:12:08</time>
      </trkpt>
      <trkpt lat="45.68451" lon="6.22848">
        <ele>2230.4473</ele>
        <time>2020-09-15 13:12:10</time>
      </trkpt>
      <trkpt lat="45.68451" lon="6.22848">
        <ele>2230.3047</ele>
        <time>2020-09-15 13:12:11</time>
      </trkpt>
      <trkpt lat="45.6845" lon="6.22847">
        <ele>2230.4697</ele>
        <time>2020-09-15 13:12:13</time>
      </trkpt>
      <trkpt lat="45.6845" lon="6.22847">
        <ele>2230.5857</ele>
        <time>2020-09-15 13:12:14</time>
      </trkpt>
      <trkpt lat="45.6845" lon="6.22846">
        <ele>2230.1504</ele>
        <time>2020-09-15 13:12:15</time>
      </trkpt>
      <trkpt lat="45.6845" lon="6.22846">
        <ele>2229.9</ele>
        <time>2020-09-15 13:12:16</time>
      </trkpt>
      <trkpt lat="45.68449" lon="6.22846">
        <ele>2230.5234</ele>
        <time>2020-09-15 13:12:18</time>
      </trkpt>
      <trkpt lat="45.68449" lon="6.22845">
        <ele>2230.9683</ele>
        <time>2020-09-15 13:12:19</time>
      </trkpt>
      <trkpt lat="45.68449" lon="6.22844">
        <ele>2230.3047</ele>
        <time>2020-09-15 13:12:20</time>
      </trkpt>
      <trkpt lat="45.68449" lon="6.22843">
        <ele>2230.4883</ele>
        <time>2020-09-15 13:12:22</time>
      </trkpt>
      <trkpt lat="45.68449" lon="6.22843">
        <ele>2230.7236</ele>
        <time>2020-09-15 13:12:24</time>
      </trkpt>
      <trkpt lat="45.6845" lon="6.22843">
        <ele>2230.7798</ele>
        <time>2020-09-15 13:12:27</time>
      </trkpt>
      <trkpt lat="45.68449" lon="6.22844">
        <ele>2230.462</ele>
        <time>2020-09-15 13:12:30</time>
      </trkpt>
      <trkpt lat="45.6845" lon="6.22843">
        <ele>2231.8408</ele>
        <time>2020-09-15 13:12:32</time>
      </trkpt>
      <trkpt lat="45.68451" lon="6.22843">
        <ele>2233.7039</ele>
        <time>2020-09-15 13:12:41</time>
      </trkpt>
      <trkpt lat="45.6845" lon="6.22843">
        <ele>2233.099</ele>
        <time>2020-09-15 13:12:43</time>
      </trkpt>
      <trkpt lat="45.6845" lon="6.22842">
        <ele>2231.8408</ele>
        <time>2020-09-15 13:12:45</time>
      </trkpt>
      <trkpt lat="45.6845" lon="6.22842">
        <ele>2233.8096</ele>
        <time>2020-09-15 13:12:46</time>
      </trkpt>
      <trkpt lat="45.68449" lon="6.22843">
        <ele>2232.2617</ele>
        <time>2020-09-15 13:12:57</time>
      </trkpt>
      <trkpt lat="45.68449" lon="6.22843">
        <ele>2233.8096</ele>
        <time>2020-09-15 13:12:59</time>
      </trkpt>
      <trkpt lat="45.68448" lon="6.22843">
        <ele>2231.6846</ele>
        <time>2020-09-15 13:13:01</time>
      </trkpt>
      <trkpt lat="45.68448" lon="6.22842">
        <ele>2231.6843</ele>
        <time>2020-09-15 13:13:02</time>
      </trkpt>
      <trkpt lat="45.68449" lon="6.22842">
        <ele>2232.316</ele>
        <time>2020-09-15 13:13:09</time>
      </trkpt>
      <trkpt lat="45.68448" lon="6.22842">
        <ele>2232.083</ele>
        <time>2020-09-15 13:13:14</time>
      </trkpt>
      <trkpt lat="45.68447" lon="6.22842">
        <ele>2232.0762</ele>
        <time>2020-09-15 13:13:22</time>
      </trkpt>
      <trkpt lat="45.68447" lon="6.22841">
        <ele>2231.6484</ele>
        <time>2020-09-15 13:13:23</time>
      </trkpt>
      <trkpt lat="45.68447" lon="6.22841">
        <ele>2231.7817</ele>
        <time>2020-09-15 13:13:24</time>
      </trkpt>
      <trkpt lat="45.68446" lon="6.22841">
        <ele>2231.8894</ele>
        <time>2020-09-15 13:13:36</time>
      </trkpt>
      <trkpt lat="45.68445" lon="6.22841">
        <ele>2230.6477</ele>
        <time>2020-09-15 13:13:38</time>
      </trkpt>
      <trkpt lat="45.68444" lon="6.22841">
        <ele>2231.0613</ele>
        <time>2020-09-15 13:13:48</time>
      </trkpt>
      <trkpt lat="45.68444" lon="6.22841">
        <ele>2230.7546</ele>
        <time>2020-09-15 13:13:50</time>
      </trkpt>
      <trkpt lat="45.68444" lon="6.22841">
        <ele>2230.5496</ele>
        <time>2020-09-15 13:13:52</time>
      </trkpt>
      <trkpt lat="45.68443" lon="6.22841">
        <ele>2230.4465</ele>
        <time>2020-09-15 13:13:53</time>
      </trkpt>
      <trkpt lat="45.68442" lon="6.22841">
        <ele>2229.237</ele>
        <time>2020-09-15 13:14:23</time>
      </trkpt>
      <trkpt lat="45.68442" lon="6.22841">
        <ele>2229.3923</ele>
        <time>2020-09-15 13:14:24</time>
      </trkpt>
      <trkpt lat="45.68442" lon="6.2284">
        <ele>2229.3247</ele>
        <time>2020-09-15 13:15:02</time>
      </trkpt>
      <trkpt lat="45.68442" lon="6.2284">
        <ele>2229.3313</ele>
        <time>2020-09-15 13:15:03</time>
      </trkpt>
      <trkpt lat="45.68443" lon="6.22842">
        <ele>2227.9465</ele>
        <time>2020-09-15 13:15:25</time>
      </trkpt>
      <trkpt lat="45.68443" lon="6.22842">
        <ele>2228.1658</ele>
        <time>2020-09-15 13:15:26</time>
      </trkpt>
      <trkpt lat="45.68442" lon="6.22842">
        <ele>2228.86</ele>
        <time>2020-09-15 13:15:42</time>
      </trkpt>
      <trkpt lat="45.68442" lon="6.22842">
        <ele>2228.944</ele>
        <time>2020-09-15 13:15:43</time>
      </trkpt>
      <trkpt lat="45.68442" lon="6.22842">
        <ele>2228.4846</ele>
        <time>2020-09-15 13:15:52</time>
      </trkpt>
      <trkpt lat="45.68442" lon="6.22842">
        <ele>2228.4414</ele>
        <time>2020-09-15 13:15:53</time>
      </trkpt>
      <trkpt lat="45.68442" lon="6.22841">
        <ele>2229.0967</ele>
        <time>2020-09-15 13:16:00</time>
      </trkpt>
      <trkpt lat="45.68442" lon="6.22841">
        <ele>2229.0293</ele>
        <time>2020-09-15 13:16:01</time>
      </trkpt>
      <trkpt lat="45.68441" lon="6.22841">
        <ele>2228.9773</ele>
        <time>2020-09-15 13:16:05</time>
      </trkpt>
      <trkpt lat="45.68441" lon="6.22841">
        <ele>2229.2654</ele>
        <time>2020-09-15 13:16:08</time>
      </trkpt>
      <trkpt lat="45.68442" lon="6.22841">
        <ele>2229.3564</ele>
        <time>2020-09-15 13:16:45</time>
      </trkpt>
      <trkpt lat="45.68442" lon="6.22841">
        <ele>2230.2227</ele>
        <time>2020-09-15 13:16:47</time>
      </trkpt>
      <trkpt lat="45.68441" lon="6.22841">
        <ele>2230.2756</ele>
        <time>2020-09-15 13:16:51</time>
      </trkpt>
      <trkpt lat="45.68439" lon="6.22836">
        <ele>2232.2803</ele>
        <time>2020-09-15 13:17:02</time>
      </trkpt>
      <trkpt lat="45.68438" lon="6.22836">
        <ele>2232.5193</ele>
        <time>2020-09-15 13:17:06</time>
      </trkpt>
      <trkpt lat="45.68437" lon="6.22836">
        <ele>2232.4258</ele>
        <time>2020-09-15 13:17:10</time>
      </trkpt>
      <trkpt lat="45.68437" lon="6.22836">
        <ele>2231.7603</ele>
        <time>2020-09-15 13:17:13</time>
      </trkpt>
      <trkpt lat="45.68437" lon="6.22836">
        <ele>2232.2803</ele>
        <time>2020-09-15 13:17:15</time>
      </trkpt>
      <trkpt lat="45.68436" lon="6.22836">
        <ele>2231.4282</ele>
        <time>2020-09-15 13:17:17</time>
      </trkpt>
      <trkpt lat="45.68435" lon="6.22837">
        <ele>2231.8113</ele>
        <time>2020-09-15 13:17:19</time>
      </trkpt>
      <trkpt lat="45.68434" lon="6.22837">
        <ele>2232.4795</ele>
        <time>2020-09-15 13:17:22</time>
      </trkpt>
      <trkpt lat="45.68434" lon="6.22837">
        <ele>2232.3684</ele>
        <time>2020-09-15 13:17:23</time>
      </trkpt>
      <trkpt lat="45.68434" lon="6.22836">
        <ele>2232.529</ele>
        <time>2020-09-15 13:17:27</time>
      </trkpt>
      <trkpt lat="45.68434" lon="6.22835">
        <ele>2231.59</ele>
        <time>2020-09-15 13:17:28</time>
      </trkpt>
      <trkpt lat="45.68432" lon="6.22834">
        <ele>2232.0288</ele>
        <time>2020-09-15 13:17:34</time>
      </trkpt>
      <trkpt lat="45.68432" lon="6.22834">
        <ele>2231.9224</ele>
        <time>2020-09-15 13:17:35</time>
      </trkpt>
      <trkpt lat="45.6843" lon="6.22833">
        <ele>2231.3247</ele>
        <time>2020-09-15 13:17:42</time>
      </trkpt>
      <trkpt lat="45.68429" lon="6.22833">
        <ele>2231.8025</ele>
        <time>2020-09-15 13:17:45</time>
      </trkpt>
      <trkpt lat="45.68429" lon="6.22832">
        <ele>2232.7097</ele>
        <time>2020-09-15 13:17:48</time>
      </trkpt>
      <trkpt lat="45.68429" lon="6.22832">
        <ele>2232.3484</ele>
        <time>2020-09-15 13:17:49</time>
      </trkpt>
      <trkpt lat="45.68429" lon="6.2283">
        <ele>2232.1133</ele>
        <time>2020-09-15 13:17:54</time>
      </trkpt>
      <trkpt lat="45.68429" lon="6.22829">
        <ele>2231.6</ele>
        <time>2020-09-15 13:17:57</time>
      </trkpt>
      <trkpt lat="45.68429" lon="6.22829">
        <ele>2232.183</ele>
        <time>2020-09-15 13:18:00</time>
      </trkpt>
      <trkpt lat="45.68429" lon="6.22829">
        <ele>2231.6</ele>
        <time>2020-09-15 13:18:06</time>
      </trkpt>
      <trkpt lat="45.68429" lon="6.22829">
        <ele>2232.6409</ele>
        <time>2020-09-15 13:18:07</time>
      </trkpt>
      <trkpt lat="45.68429" lon="6.22828">
        <ele>2232.3455</ele>
        <time>2020-09-15 13:18:11</time>
      </trkpt>
      <trkpt lat="45.68428" lon="6.22828">
        <ele>2232.092</ele>
        <time>2020-09-15 13:18:12</time>
      </trkpt>
      <trkpt lat="45.68428" lon="6.22828">
        <ele>2232.101</ele>
        <time>2020-09-15 13:18:13</time>
      </trkpt>
      <trkpt lat="45.68428" lon="6.22827">
        <ele>2231.4316</ele>
        <time>2020-09-15 13:18:22</time>
      </trkpt>
      <trkpt lat="45.68428" lon="6.22827">
        <ele>2230.9136</ele>
        <time>2020-09-15 13:18:23</time>
      </trkpt>
      <trkpt lat="45.68428" lon="6.22827">
        <ele>2230.6843</ele>
        <time>2020-09-15 13:18:25</time>
      </trkpt>
      <trkpt lat="45.68426" lon="6.22827">
        <ele>2230.8152</ele>
        <time>2020-09-15 13:18:30</time>
      </trkpt>
      <trkpt lat="45.68426" lon="6.22827">
        <ele>2232.191</ele>
        <time>2020-09-15 13:18:31</time>
      </trkpt>
      <trkpt lat="45.68426" lon="6.22827">
        <ele>2230.4707</ele>
        <time>2020-09-15 13:18:32</time>
      </trkpt>
      <trkpt lat="45.68426" lon="6.22827">
        <ele>2230.6638</ele>
        <time>2020-09-15 13:18:34</time>
      </trkpt>
      <trkpt lat="45.68426" lon="6.22826">
        <ele>2230.5889</ele>
        <time>2020-09-15 13:18:36</time>
      </trkpt>
      <trkpt lat="45.68426" lon="6.22826">
        <ele>2230.469</ele>
        <time>2020-09-15 13:18:37</time>
      </trkpt>
      <trkpt lat="45.68426" lon="6.22826">
        <ele>2230.6208</ele>
        <time>2020-09-15 13:18:38</time>
      </trkpt>
      <trkpt lat="45.68426" lon="6.22824">
        <ele>2229.2825</ele>
        <time>2020-09-15 13:18:51</time>
      </trkpt>
      <trkpt lat="45.68426" lon="6.22825">
        <ele>2229.4255</ele>
        <time>2020-09-15 13:18:52</time>
      </trkpt>
      <trkpt lat="45.68426" lon="6.22826">
        <ele>2229.5227</ele>
        <time>2020-09-15 13:18:58</time>
      </trkpt>
      <trkpt lat="45.68426" lon="6.22826">
        <ele>2229.508</ele>
        <time>2020-09-15 13:18:59</time>
      </trkpt>
      <trkpt lat="45.68426" lon="6.22827">
        <ele>2229.3352</ele>
        <time>2020-09-15 13:19:04</time>
      </trkpt>
      <trkpt lat="45.68425" lon="6.22829">
        <ele>2230.162</ele>
        <time>2020-09-15 13:19:10</time>
      </trkpt>
      <trkpt lat="45.68424" lon="6.22829">
        <ele>2229.5027</ele>
        <time>2020-09-15 13:19:12</time>
      </trkpt>
      <trkpt lat="45.6842" lon="6.22829">
        <ele>2232.4407</ele>
        <time>2020-09-15 13:19:28</time>
      </trkpt>
      <trkpt lat="45.6842" lon="6.2283">
        <ele>2232.7827</ele>
        <time>2020-09-15 13:19:31</time>
      </trkpt>
      <trkpt lat="45.68418" lon="6.2283">
        <ele>2232.8193</ele>
        <time>2020-09-15 13:19:36</time>
      </trkpt>
      <trkpt lat="45.68418" lon="6.22831">
        <ele>2232.528</ele>
        <time>2020-09-15 13:19:37</time>
      </trkpt>
      <trkpt lat="45.68418" lon="6.22831">
        <ele>2232.7437</ele>
        <time>2020-09-15 13:19:38</time>
      </trkpt>
      <trkpt lat="45.68418" lon="6.22831">
        <ele>2233.2737</ele>
        <time>2020-09-15 13:19:40</time>
      </trkpt>
      <trkpt lat="45.68418" lon="6.22829">
        <ele>2232.4082</ele>
        <time>2020-09-15 13:19:43</time>
      </trkpt>
      <trkpt lat="45.68418" lon="6.22828">
        <ele>2233.3464</ele>
        <time>2020-09-15 13:19:46</time>
      </trkpt>
      <trkpt lat="45.68418" lon="6.22827">
        <ele>2233.362</ele>
        <time>2020-09-15 13:19:49</time>
      </trkpt>
      <trkpt lat="45.68418" lon="6.22828">
        <ele>2233.279</ele>
        <time>2020-09-15 13:19:52</time>
      </trkpt>
      <trkpt lat="45.68418" lon="6.22828">
        <ele>2233.1357</ele>
        <time>2020-09-15 13:19:55</time>
      </trkpt>
      <trkpt lat="45.68418" lon="6.22829">
        <ele>2233.6653</ele>
        <time>2020-09-15 13:19:58</time>
      </trkpt>
      <trkpt lat="45.68417" lon="6.2283">
        <ele>2233.5615</ele>
        <time>2020-09-15 13:20:02</time>
      </trkpt>
      <trkpt lat="45.68416" lon="6.22829">
        <ele>2233.489</ele>
        <time>2020-09-15 13:20:05</time>
      </trkpt>
      <trkpt lat="45.68416" lon="6.22829">
        <ele>2234.0352</ele>
        <time>2020-09-15 13:20:06</time>
      </trkpt>
      <trkpt lat="45.68416" lon="6.22829">
        <ele>2233.624</ele>
        <time>2020-09-15 13:20:09</time>
      </trkpt>
      <trkpt lat="45.68417" lon="6.22829">
        <ele>2233.6653</ele>
        <time>2020-09-15 13:20:10</time>
      </trkpt>
      <trkpt lat="45.68417" lon="6.22828">
        <ele>2233.6702</ele>
        <time>2020-09-15 13:20:13</time>
      </trkpt>
      <trkpt lat="45.68416" lon="6.22827">
        <ele>2233.6245</ele>
        <time>2020-09-15 13:20:15</time>
      </trkpt>
      <trkpt lat="45.68416" lon="6.22827">
        <ele>2233.892</ele>
        <time>2020-09-15 13:20:19</time>
      </trkpt>
      <trkpt lat="45.68415" lon="6.22826">
        <ele>2232.8772</ele>
        <time>2020-09-15 13:20:21</time>
      </trkpt>
      <trkpt lat="45.68415" lon="6.22826">
        <ele>2234.2532</ele>
        <time>2020-09-15 13:20:24</time>
      </trkpt>
      <trkpt lat="45.68414" lon="6.22825">
        <ele>2234.8267</ele>
        <time>2020-09-15 13:20:27</time>
      </trkpt>
      <trkpt lat="45.68413" lon="6.22825">
        <ele>2234.0325</ele>
        <time>2020-09-15 13:20:30</time>
      </trkpt>
      <trkpt lat="45.68412" lon="6.22825">
        <ele>2232.833</ele>
        <time>2020-09-15 13:20:34</time>
      </trkpt>
      <trkpt lat="45.68412" lon="6.22825">
        <ele>2232.8792</ele>
        <time>2020-09-15 13:20:35</time>
      </trkpt>
      <trkpt lat="45.68412" lon="6.22824">
        <ele>2233.338</ele>
        <time>2020-09-15 13:20:39</time>
      </trkpt>
      <trkpt lat="45.6841" lon="6.22823">
        <ele>2234.1758</ele>
        <time>2020-09-15 13:20:45</time>
      </trkpt>
      <trkpt lat="45.68409" lon="6.22823">
        <ele>2234.4485</ele>
        <time>2020-09-15 13:20:47</time>
      </trkpt>
      <trkpt lat="45.68409" lon="6.22823">
        <ele>2234.3699</ele>
        <time>2020-09-15 13:20:50</time>
      </trkpt>
      <trkpt lat="45.68409" lon="6.22823">
        <ele>2234.3735</ele>
        <time>2020-09-15 13:20:52</time>
      </trkpt>
      <trkpt lat="45.68409" lon="6.22822">
        <ele>2234.3774</ele>
        <time>2020-09-15 13:20:54</time>
      </trkpt>
      <trkpt lat="45.68409" lon="6.22822">
        <ele>2235.225</ele>
        <time>2020-09-15 13:20:55</time>
      </trkpt>
      <trkpt lat="45.68409" lon="6.22821">
        <ele>2235.042</ele>
        <time>2020-09-15 13:20:59</time>
      </trkpt>
      <trkpt lat="45.6841" lon="6.22822">
        <ele>2234.7502</ele>
        <time>2020-09-15 13:21:03</time>
      </trkpt>
      <trkpt lat="45.6841" lon="6.22821">
        <ele>2234.6738</ele>
        <time>2020-09-15 13:21:05</time>
      </trkpt>
      <trkpt lat="45.6841" lon="6.22821">
        <ele>2235.5376</ele>
        <time>2020-09-15 13:21:06</time>
      </trkpt>
      <trkpt lat="45.6841" lon="6.2282">
        <ele>2235.5955</ele>
        <time>2020-09-15 13:21:07</time>
      </trkpt>
      <trkpt lat="45.6841" lon="6.2282">
        <ele>2235.6643</ele>
        <time>2020-09-15 13:21:11</time>
      </trkpt>
      <trkpt lat="45.6841" lon="6.2282">
        <ele>2234.7502</ele>
        <time>2020-09-15 13:21:12</time>
      </trkpt>
      <trkpt lat="45.6841" lon="6.22821">
        <ele>2236.2983</ele>
        <time>2020-09-15 13:21:17</time>
      </trkpt>
      <trkpt lat="45.6841" lon="6.2282">
        <ele>2236.9326</ele>
        <time>2020-09-15 13:21:19</time>
      </trkpt>
      <trkpt lat="45.6841" lon="6.2282">
        <ele>2237.354</ele>
        <time>2020-09-15 13:21:20</time>
      </trkpt>
      <trkpt lat="45.6841" lon="6.2282">
        <ele>2237.5273</ele>
        <time>2020-09-15 13:21:21</time>
      </trkpt>
      <trkpt lat="45.6841" lon="6.2282">
        <ele>2236.053</ele>
        <time>2020-09-15 13:21:22</time>
      </trkpt>
      <trkpt lat="45.68412" lon="6.2282">
        <ele>2237.9907</ele>
        <time>2020-09-15 13:21:28</time>
      </trkpt>
      <trkpt lat="45.68413" lon="6.2282">
        <ele>2237.3586</ele>
        <time>2020-09-15 13:21:33</time>
      </trkpt>
      <trkpt lat="45.68413" lon="6.2282">
        <ele>2236.792</ele>
        <time>2020-09-15 13:21:34</time>
      </trkpt>
      <trkpt lat="45.68413" lon="6.2282">
        <ele>2236.976</ele>
        <time>2020-09-15 13:21:35</time>
      </trkpt>
      <trkpt lat="45.68413" lon="6.22819">
        <ele>2236.0876</ele>
        <time>2020-09-15 13:21:37</time>
      </trkpt>
      <trkpt lat="45.68414" lon="6.2282">
        <ele>2234.192</ele>
        <time>2020-09-15 13:21:53</time>
      </trkpt>
      <trkpt lat="45.68414" lon="6.2282">
        <ele>2234.1257</ele>
        <time>2020-09-15 13:21:54</time>
      </trkpt>
      <trkpt lat="45.68415" lon="6.22819">
        <ele>2234.6833</ele>
        <time>2020-09-15 13:22:01</time>
      </trkpt>
      <trkpt lat="45.68415" lon="6.22819">
        <ele>2232.9998</ele>
        <time>2020-09-15 13:22:02</time>
      </trkpt>
      <trkpt lat="45.68415" lon="6.22819">
        <ele>2233.031</ele>
        <time>2020-09-15 13:22:03</time>
      </trkpt>
      <trkpt lat="45.68414" lon="6.22819">
        <ele>2233.951</ele>
        <time>2020-09-15 13:22:05</time>
      </trkpt>
      <trkpt lat="45.68414" lon="6.22819">
        <ele>2234.7683</ele>
        <time>2020-09-15 13:22:06</time>
      </trkpt>
      <trkpt lat="45.68413" lon="6.22818">
        <ele>2235.039</ele>
        <time>2020-09-15 13:22:08</time>
      </trkpt>
      <trkpt lat="45.68411" lon="6.22817">
        <ele>2232.9998</ele>
        <time>2020-09-15 13:22:15</time>
      </trkpt>
      <trkpt lat="45.68411" lon="6.22816">
        <ele>2237.2036</ele>
        <time>2020-09-15 13:22:18</time>
      </trkpt>
      <trkpt lat="45.6841" lon="6.22815">
        <ele>2236.7964</ele>
        <time>2020-09-15 13:22:24</time>
      </trkpt>
      <trkpt lat="45.6841" lon="6.22815">
        <ele>2237.227</ele>
        <time>2020-09-15 13:22:25</time>
      </trkpt>
      <trkpt lat="45.68411" lon="6.22814">
        <ele>2239.1035</ele>
        <time>2020-09-15 13:22:43</time>
      </trkpt>
      <trkpt lat="45.68411" lon="6.22814">
        <ele>2238.1948</ele>
        <time>2020-09-15 13:22:44</time>
      </trkpt>
      <trkpt lat="45.6841" lon="6.22814">
        <ele>2241.0132</ele>
        <time>2020-09-15 13:23:25</time>
      </trkpt>
      <trkpt lat="45.68409" lon="6.22815">
        <ele>2240.8755</ele>
        <time>2020-09-15 13:23:40</time>
      </trkpt>
      <trkpt lat="45.68409" lon="6.22815">
        <ele>2241.1274</ele>
        <time>2020-09-15 13:23:42</time>
      </trkpt>
      <trkpt lat="45.68409" lon="6.22814">
        <ele>2242.114</ele>
        <time>2020-09-15 13:23:47</time>
      </trkpt>
      <trkpt lat="45.68409" lon="6.22813">
        <ele>2242.3752</ele>
        <time>2020-09-15 13:23:48</time>
      </trkpt>
      <trkpt lat="45.6841" lon="6.22813">
        <ele>2243.52</ele>
        <time>2020-09-15 13:23:52</time>
      </trkpt>
      <trkpt lat="45.68414" lon="6.22816">
        <ele>2243.7563</ele>
        <time>2020-09-15 13:23:57</time>
      </trkpt>
      <trkpt lat="45.68414" lon="6.22817">
        <ele>2245.1255</ele>
        <time>2020-09-15 13:24:03</time>
      </trkpt>
      <trkpt lat="45.68413" lon="6.22817">
        <ele>2246.4807</ele>
        <time>2020-09-15 13:24:15</time>
      </trkpt>
      <trkpt lat="45.68412" lon="6.22817">
        <ele>2246.6606</ele>
        <time>2020-09-15 13:24:19</time>
      </trkpt>
      <trkpt lat="45.68412" lon="6.22817">
        <ele>2246.8022</ele>
        <time>2020-09-15 13:24:20</time>
      </trkpt>
      <trkpt lat="45.68412" lon="6.22817">
        <ele>2246.6685</ele>
        <time>2020-09-15 13:24:21</time>
      </trkpt>
      <trkpt lat="45.68412" lon="6.22817">
        <ele>2246.7693</ele>
        <time>2020-09-15 13:24:27</time>
      </trkpt>
      <trkpt lat="45.6841" lon="6.22815">
        <ele>2246.4666</ele>
        <time>2020-09-15 13:24:33</time>
      </trkpt>
      <trkpt lat="45.6841" lon="6.22813">
        <ele>2245.4524</ele>
        <time>2020-09-15 13:24:36</time>
      </trkpt>
      <trkpt lat="45.68411" lon="6.22813">
        <ele>2243.6587</ele>
        <time>2020-09-15 13:25:45</time>
      </trkpt>
      <trkpt lat="45.68411" lon="6.22813">
        <ele>2243.4753</ele>
        <time>2020-09-15 13:25:47</time>
      </trkpt>
      <trkpt lat="45.68412" lon="6.22813">
        <ele>2242.7288</ele>
        <time>2020-09-15 13:25:48</time>
      </trkpt>
      <trkpt lat="45.68412" lon="6.22811">
        <ele>2241.558</ele>
        <time>2020-09-15 13:25:50</time>
      </trkpt>
      <trkpt lat="45.68413" lon="6.22811">
        <ele>2244.6162</ele>
        <time>2020-09-15 13:25:51</time>
      </trkpt>
      <trkpt lat="45.68413" lon="6.22811">
        <ele>2240.8442</ele>
        <time>2020-09-15 13:25:52</time>
      </trkpt>
      <trkpt lat="45.68413" lon="6.22811">
        <ele>2241.7607</ele>
        <time>2020-09-15 13:25:57</time>
      </trkpt>
      <trkpt lat="45.68412" lon="6.22811">
        <ele>2242.7297</ele>
        <time>2020-09-15 13:26:00</time>
      </trkpt>
      <trkpt lat="45.68411" lon="6.22811">
        <ele>2240.8442</ele>
        <time>2020-09-15 13:26:01</time>
      </trkpt>
      <trkpt lat="45.68411" lon="6.22811">
        <ele>2242.3398</ele>
        <time>2020-09-15 13:26:03</time>
      </trkpt>
      <trkpt lat="45.68412" lon="6.22814">
        <ele>2243.1987</ele>
        <time>2020-09-15 13:27:11</time>
      </trkpt>
      <trkpt lat="45.68413" lon="6.22817">
        <ele>2243.6453</ele>
        <time>2020-09-15 13:27:21</time>
      </trkpt>
      <trkpt lat="45.68413" lon="6.22816">
        <ele>2243.8096</ele>
        <time>2020-09-15 13:27:22</time>
      </trkpt>
      <trkpt lat="45.68413" lon="6.22817">
        <ele>2245.4348</ele>
        <time>2020-09-15 13:27:27</time>
      </trkpt>
      <trkpt lat="45.68412" lon="6.22817">
        <ele>2245.7952</ele>
        <time>2020-09-15 13:27:29</time>
      </trkpt>
      <trkpt lat="45.68412" lon="6.22817">
        <ele>2245.4175</ele>
        <time>2020-09-15 13:27:30</time>
      </trkpt>
      <trkpt lat="45.68412" lon="6.22816">
        <ele>2246.1006</ele>
        <time>2020-09-15 13:27:35</time>
      </trkpt>
      <trkpt lat="45.68412" lon="6.22817">
        <ele>2246.1868</ele>
        <time>2020-09-15 13:27:37</time>
      </trkpt>
      <trkpt lat="45.68412" lon="6.22817">
        <ele>2246.2363</ele>
        <time>2020-09-15 13:27:57</time>
      </trkpt>
      <trkpt lat="45.68412" lon="6.22817">
        <ele>2246.142</ele>
        <time>2020-09-15 13:27:59</time>
      </trkpt>
      <trkpt lat="45.68412" lon="6.22816">
        <ele>2246.2793</ele>
        <time>2020-09-15 13:28:32</time>
      </trkpt>
      <trkpt lat="45.68412" lon="6.22817">
        <ele>2246.5872</ele>
        <time>2020-09-15 13:28:33</time>
      </trkpt>
      <trkpt lat="45.68412" lon="6.22816">
        <ele>2246.924</ele>
        <time>2020-09-15 13:28:35</time>
      </trkpt>
      <trkpt lat="45.68413" lon="6.22816">
        <ele>2246.5908</ele>
        <time>2020-09-15 13:28:57</time>
      </trkpt>
      <trkpt lat="45.68413" lon="6.22816">
        <ele>2246.3452</ele>
        <time>2020-09-15 13:28:59</time>
      </trkpt>
      <trkpt lat="45.68412" lon="6.22817">
        <ele>2245.8823</ele>
        <time>2020-09-15 13:29:32</time>
      </trkpt>
      <trkpt lat="45.68413" lon="6.22817">
        <ele>2245.4968</ele>
        <time>2020-09-15 13:29:34</time>
      </trkpt>
      <trkpt lat="45.68413" lon="6.22818">
        <ele>2246.0366</ele>
        <time>2020-09-15 13:29:46</time>
      </trkpt>
      <trkpt lat="45.68413" lon="6.22817">
        <ele>2245.8833</ele>
        <time>2020-09-15 13:29:47</time>
      </trkpt>
      <trkpt lat="45.68413" lon="6.22817">
        <ele>2245.8428</ele>
        <time>2020-09-15 13:30:08</time>
      </trkpt>
      <trkpt lat="45.68412" lon="6.22816">
        <ele>2245.8591</ele>
        <time>2020-09-15 13:30:10</time>
      </trkpt>
      <trkpt lat="45.68412" lon="6.22816">
        <ele>2245.8208</ele>
        <time>2020-09-15 13:30:37</time>
      </trkpt>
      <trkpt lat="45.68413" lon="6.22817">
        <ele>2245.4883</ele>
        <time>2020-09-15 13:30:38</time>
      </trkpt>
      <trkpt lat="45.68413" lon="6.22816">
        <ele>2244.8572</ele>
        <time>2020-09-15 13:31:30</time>
      </trkpt>
      <trkpt lat="45.68413" lon="6.22817">
        <ele>2244.5085</ele>
        <time>2020-09-15 13:31:31</time>
      </trkpt>
      <trkpt lat="45.68413" lon="6.22818">
        <ele>2245.2234</ele>
        <time>2020-09-15 13:31:34</time>
      </trkpt>
      <trkpt lat="45.68413" lon="6.22817">
        <ele>2245.2676</ele>
        <time>2020-09-15 13:31:35</time>
      </trkpt>
      <trkpt lat="45.68413" lon="6.22817">
        <ele>2245.3674</ele>
        <time>2020-09-15 13:31:39</time>
      </trkpt>
      <trkpt lat="45.68413" lon="6.22817">
        <ele>2245.2437</ele>
        <time>2020-09-15 13:31:40</time>
      </trkpt>
      <trkpt lat="45.68413" lon="6.22819">
        <ele>2244.7466</ele>
        <time>2020-09-15 13:32:32</time>
      </trkpt>
      <trkpt lat="45.68413" lon="6.22819">
        <ele>2243.6162</ele>
        <time>2020-09-15 13:32:33</time>
      </trkpt>
      <trkpt lat="45.68412" lon="6.22819">
        <ele>2244.7087</ele>
        <time>2020-09-15 13:32:36</time>
      </trkpt>
      <trkpt lat="45.68411" lon="6.22817">
        <ele>2245.6353</ele>
        <time>2020-09-15 13:32:40</time>
      </trkpt>
      <trkpt lat="45.68411" lon="6.22816">
        <ele>2245.8186</ele>
        <time>2020-09-15 13:32:44</time>
      </trkpt>
      <trkpt lat="45.68409" lon="6.22814">
        <ele>2245.6892</ele>
        <time>2020-09-15 13:32:49</time>
      </trkpt>
      <trkpt lat="45.68409" lon="6.22811">
        <ele>2246.324</ele>
        <time>2020-09-15 13:33:21</time>
      </trkpt>
      <trkpt lat="45.68409" lon="6.22811">
        <ele>2246.113</ele>
        <time>2020-09-15 13:33:22</time>
      </trkpt>
      <trkpt lat="45.68409" lon="6.22811">
        <ele>2246.0803</ele>
        <time>2020-09-15 13:33:24</time>
      </trkpt>
      <trkpt lat="45.68408" lon="6.2281">
        <ele>2246.8447</ele>
        <time>2020-09-15 13:33:28</time>
      </trkpt>
      <trkpt lat="45.68408" lon="6.2281">
        <ele>2246.4001</ele>
        <time>2020-09-15 13:33:30</time>
      </trkpt>
      <trkpt lat="45.68408" lon="6.2281">
        <ele>2247.0376</ele>
        <time>2020-09-15 13:33:42</time>
      </trkpt>
      <trkpt lat="45.68408" lon="6.2281">
        <ele>2247.1504</ele>
        <time>2020-09-15 13:33:43</time>
      </trkpt>
      <trkpt lat="45.68408" lon="6.2281">
        <ele>2246.9868</ele>
        <time>2020-09-15 13:34:20</time>
      </trkpt>
      <trkpt lat="45.68408" lon="6.2281">
        <ele>2246.7515</ele>
        <time>2020-09-15 13:34:54</time>
      </trkpt>
      <trkpt lat="45.68408" lon="6.22811">
        <ele>2246.8743</ele>
        <time>2020-09-15 13:34:56</time>
      </trkpt>
      <trkpt lat="45.68408" lon="6.22811">
        <ele>2247.2087</ele>
        <time>2020-09-15 13:34:57</time>
      </trkpt>
      <trkpt lat="45.68408" lon="6.22811">
        <ele>2247.2485</ele>
        <time>2020-09-15 13:34:59</time>
      </trkpt>
      <trkpt lat="45.68408" lon="6.22811">
        <ele>2247.336</ele>
        <time>2020-09-15 13:35:01</time>
      </trkpt>
      <trkpt lat="45.68404" lon="6.22808">
        <ele>2247.5505</ele>
        <time>2020-09-15 13:35:10</time>
      </trkpt>
      <trkpt lat="45.68404" lon="6.22809">
        <ele>2248.7737</ele>
        <time>2020-09-15 13:35:51</time>
      </trkpt>
      <trkpt lat="45.68403" lon="6.22808">
        <ele>2249.092</ele>
        <time>2020-09-15 13:37:52</time>
      </trkpt>
      <trkpt lat="45.68403" lon="6.22808">
        <ele>2249.1833</ele>
        <time>2020-09-15 13:37:53</time>
      </trkpt>
      <trkpt lat="45.68403" lon="6.22807">
        <ele>2249.7275</ele>
        <time>2020-09-15 13:37:56</time>
      </trkpt>
      <trkpt lat="45.68403" lon="6.22806">
        <ele>2250.042</ele>
        <time>2020-09-15 13:37:58</time>
      </trkpt>
      <trkpt lat="45.68402" lon="6.22806">
        <ele>2249.2896</ele>
        <time>2020-09-15 13:37:59</time>
      </trkpt>
      <trkpt lat="45.68402" lon="6.22806">
        <ele>2248.599</ele>
        <time>2020-09-15 13:38:05</time>
      </trkpt>
      <trkpt lat="45.68402" lon="6.22806">
        <ele>2248.9192</ele>
        <time>2020-09-15 13:38:07</time>
      </trkpt>
      <trkpt lat="45.68403" lon="6.22807">
        <ele>2250.3516</ele>
        <time>2020-09-15 13:38:31</time>
      </trkpt>
      <trkpt lat="45.68403" lon="6.22807">
        <ele>2250.2764</ele>
        <time>2020-09-15 13:38:32</time>
      </trkpt>
      <trkpt lat="45.68403" lon="6.22807">
        <ele>2250.7356</ele>
        <time>2020-09-15 13:38:56</time>
      </trkpt>
      <trkpt lat="45.68403" lon="6.22807">
        <ele>2250.954</ele>
        <time>2020-09-15 13:38:57</time>
      </trkpt>
      <trkpt lat="45.68403" lon="6.22806">
        <ele>2250.9478</ele>
        <time>2020-09-15 13:39:19</time>
      </trkpt>
      <trkpt lat="45.68403" lon="6.22807">
        <ele>2250.6643</ele>
        <time>2020-09-15 13:39:20</time>
      </trkpt>
      <trkpt lat="45.68402" lon="6.22805">
        <ele>2250.4834</ele>
        <time>2020-09-15 13:40:34</time>
      </trkpt>
      <trkpt lat="45.68402" lon="6.22805">
        <ele>2250.2656</ele>
        <time>2020-09-15 13:40:37</time>
      </trkpt>
      <trkpt lat="45.68402" lon="6.22805">
        <ele>2249.5327</ele>
        <time>2020-09-15 13:40:38</time>
      </trkpt>
      <trkpt lat="45.68401" lon="6.22805">
        <ele>2249.1067</ele>
        <time>2020-09-15 13:42:32</time>
      </trkpt>
      <trkpt lat="45.68401" lon="6.22804">
        <ele>2250.3628</ele>
        <time>2020-09-15 13:43:13</time>
      </trkpt>
      <trkpt lat="45.68401" lon="6.22803">
        <ele>2250.519</ele>
        <time>2020-09-15 13:43:43</time>
      </trkpt>
      <trkpt lat="45.68401" lon="6.22803">
        <ele>2249.817</ele>
        <time>2020-09-15 13:43:44</time>
      </trkpt>
      <trkpt lat="45.68402" lon="6.22804">
        <ele>2248.353</ele>
        <time>2020-09-15 13:44:24</time>
      </trkpt>
      <trkpt lat="45.68402" lon="6.22804">
        <ele>2247.9214</ele>
        <time>2020-09-15 13:44:41</time>
      </trkpt>
      <trkpt lat="45.68402" lon="6.22804">
        <ele>2248.4854</ele>
        <time>2020-09-15 13:44:44</time>
      </trkpt>
      <trkpt lat="45.68403" lon="6.22805">
        <ele>2248.9714</ele>
        <time>2020-09-15 13:45:15</time>
      </trkpt>
      <trkpt lat="45.68403" lon="6.22805">
        <ele>2248.9727</ele>
        <time>2020-09-15 13:45:16</time>
      </trkpt>
      <trkpt lat="45.68403" lon="6.22805">
        <ele>2249.1729</ele>
        <time>2020-09-15 13:45:19</time>
      </trkpt>
      <trkpt lat="45.68403" lon="6.22805">
        <ele>2249.24</ele>
        <time>2020-09-15 13:45:21</time>
      </trkpt>
      <trkpt lat="45.68402" lon="6.22805">
        <ele>2248.9524</ele>
        <time>2020-09-15 13:45:24</time>
      </trkpt>
      <trkpt lat="45.68402" lon="6.22805">
        <ele>2249.0767</ele>
        <time>2020-09-15 13:45:25</time>
      </trkpt>
      <trkpt lat="45.68402" lon="6.22805">
        <ele>2249.6038</ele>
        <time>2020-09-15 13:45:27</time>
      </trkpt>
      <trkpt lat="45.68402" lon="6.22805">
        <ele>2249.193</ele>
        <time>2020-09-15 13:45:28</time>
      </trkpt>
      <trkpt lat="45.68402" lon="6.22805">
        <ele>2249.7659</ele>
        <time>2020-09-15 13:45:30</time>
      </trkpt>
      <trkpt lat="45.68402" lon="6.22805">
        <ele>2249.688</ele>
        <time>2020-09-15 13:45:31</time>
      </trkpt>
      <trkpt lat="45.68402" lon="6.22805">
        <ele>2250.0564</ele>
        <time>2020-09-15 13:45:33</time>
      </trkpt>
      <trkpt lat="45.68402" lon="6.22805">
        <ele>2250.4158</ele>
        <time>2020-09-15 13:45:37</time>
      </trkpt>
      <trkpt lat="45.68402" lon="6.22805">
        <ele>2250.6304</ele>
        <time>2020-09-15 13:45:38</time>
      </trkpt>
      <trkpt lat="45.68401" lon="6.22804">
        <ele>2251.2385</ele>
        <time>2020-09-15 13:45:41</time>
      </trkpt>
      <trkpt lat="45.68401" lon="6.22804">
        <ele>2249.7659</ele>
        <time>2020-09-15 13:45:42</time>
      </trkpt>
      <trkpt lat="45.684" lon="6.22803">
        <ele>2251.9626</ele>
        <time>2020-09-15 13:45:44</time>
      </trkpt>
      <trkpt lat="45.684" lon="6.22803">
        <ele>2251.9163</ele>
        <time>2020-09-15 13:45:47</time>
      </trkpt>
      <trkpt lat="45.68399" lon="6.22802">
        <ele>2252.07</ele>
        <time>2020-09-15 13:45:53</time>
      </trkpt>
      <trkpt lat="45.68398" lon="6.22802">
        <ele>2251.8208</ele>
        <time>2020-09-15 13:45:56</time>
      </trkpt>
      <trkpt lat="45.68398" lon="6.22802">
        <ele>2251.5388</ele>
        <time>2020-09-15 13:45:59</time>
      </trkpt>
      <trkpt lat="45.68398" lon="6.22802">
        <ele>2251.3792</ele>
        <time>2020-09-15 13:46:10</time>
      </trkpt>
      <trkpt lat="45.68398" lon="6.22803">
        <ele>2251.1619</ele>
        <time>2020-09-15 13:46:11</time>
      </trkpt>
      <trkpt lat="45.68398" lon="6.22803">
        <ele>2250.7449</ele>
        <time>2020-09-15 13:46:12</time>
      </trkpt>
      <trkpt lat="45.68399" lon="6.22803">
        <ele>2250.8513</ele>
        <time>2020-09-15 13:46:14</time>
      </trkpt>
      <trkpt lat="45.68399" lon="6.22803">
        <ele>2251.1758</ele>
        <time>2020-09-15 13:46:15</time>
      </trkpt>
      <trkpt lat="45.684" lon="6.22803">
        <ele>2250.9167</ele>
        <time>2020-09-15 13:46:16</time>
      </trkpt>
      <trkpt lat="45.684" lon="6.22803">
        <ele>2251.0608</ele>
        <time>2020-09-15 13:46:19</time>
      </trkpt>
      <trkpt lat="45.68401" lon="6.22804">
        <ele>2252.4553</ele>
        <time>2020-09-15 13:46:24</time>
      </trkpt>
      <trkpt lat="45.684" lon="6.22804">
        <ele>2252.622</ele>
        <time>2020-09-15 13:46:25</time>
      </trkpt>
      <trkpt lat="45.68401" lon="6.22803">
        <ele>2252.6367</ele>
        <time>2020-09-15 13:46:34</time>
      </trkpt>
      <trkpt lat="45.684" lon="6.22804">
        <ele>2252.554</ele>
        <time>2020-09-15 13:46:36</time>
      </trkpt>
      <trkpt lat="45.684" lon="6.22804">
        <ele>2253.387</ele>
        <time>2020-09-15 13:46:41</time>
      </trkpt>
      <trkpt lat="45.68401" lon="6.22804">
        <ele>2253.4631</ele>
        <time>2020-09-15 13:46:42</time>
      </trkpt>
      <trkpt lat="45.68401" lon="6.22803">
        <ele>2253.932</ele>
        <time>2020-09-15 13:46:44</time>
      </trkpt>
      <trkpt lat="45.68399" lon="6.22801">
        <ele>2255.2893</ele>
        <time>2020-09-15 13:46:49</time>
      </trkpt>
      <trkpt lat="45.68399" lon="6.22801">
        <ele>2255.1755</ele>
        <time>2020-09-15 13:46:51</time>
      </trkpt>
      <trkpt lat="45.68399" lon="6.22802">
        <ele>2255.0884</ele>
        <time>2020-09-15 13:46:54</time>
      </trkpt>
      <trkpt lat="45.68398" lon="6.22801">
        <ele>2254.1558</ele>
        <time>2020-09-15 13:47:00</time>
      </trkpt>
      <trkpt lat="45.68397" lon="6.22801">
        <ele>2254.6804</ele>
        <time>2020-09-15 13:47:04</time>
      </trkpt>
      <trkpt lat="45.68396" lon="6.22799">
        <ele>2255.9746</ele>
        <time>2020-09-15 13:47:08</time>
      </trkpt>
      <trkpt lat="45.68396" lon="6.22798">
        <ele>2255.3743</ele>
        <time>2020-09-15 13:47:20</time>
      </trkpt>
      <trkpt lat="45.68394" lon="6.22797">
        <ele>2255.8015</ele>
        <time>2020-09-15 13:47:24</time>
      </trkpt>
      <trkpt lat="45.68393" lon="6.22796">
        <ele>2258.423</ele>
        <time>2020-09-15 13:47:26</time>
      </trkpt>
      <trkpt lat="45.68391" lon="6.22793">
        <ele>2259.0896</ele>
        <time>2020-09-15 13:47:35</time>
      </trkpt>
      <trkpt lat="45.68391" lon="6.22793">
        <ele>2258.9895</ele>
        <time>2020-09-15 13:47:36</time>
      </trkpt>
      <trkpt lat="45.68391" lon="6.22791">
        <ele>2259.7405</ele>
        <time>2020-09-15 13:48:05</time>
      </trkpt>
      <trkpt lat="45.68387" lon="6.2279">
        <ele>2261.3982</ele>
        <time>2020-09-15 13:48:10</time>
      </trkpt>
      <trkpt lat="45.68383" lon="6.22791">
        <ele>2259.1506</ele>
        <time>2020-09-15 13:48:16</time>
      </trkpt>
      <trkpt lat="45.6838" lon="6.22791">
        <ele>2261.7585</ele>
        <time>2020-09-15 13:48:21</time>
      </trkpt>
      <trkpt lat="45.68373" lon="6.2279">
        <ele>2264.0068</ele>
        <time>2020-09-15 13:48:32</time>
      </trkpt>
      <trkpt lat="45.68373" lon="6.2279">
        <ele>2264.0684</ele>
        <time>2020-09-15 13:48:33</time>
      </trkpt>
      <trkpt lat="45.68372" lon="6.2279">
        <ele>2263.4739</ele>
        <time>2020-09-15 13:48:55</time>
      </trkpt>
      <trkpt lat="45.68369" lon="6.2279">
        <ele>2263.893</ele>
        <time>2020-09-15 13:49:01</time>
      </trkpt>
      <trkpt lat="45.68368" lon="6.2279">
        <ele>2263.4443</ele>
        <time>2020-09-15 13:49:02</time>
      </trkpt>
      <trkpt lat="45.68367" lon="6.2279">
        <ele>2263.851</ele>
        <time>2020-09-15 13:49:04</time>
      </trkpt>
      <trkpt lat="45.68362" lon="6.22792">
        <ele>2263.9785</ele>
        <time>2020-09-15 13:49:11</time>
      </trkpt>
      <trkpt lat="45.68359" lon="6.22792">
        <ele>2264.3865</ele>
        <time>2020-09-15 13:49:15</time>
      </trkpt>
      <trkpt lat="45.68358" lon="6.22791">
        <ele>2264.6792</ele>
        <time>2020-09-15 13:49:18</time>
      </trkpt>
      <trkpt lat="45.68356" lon="6.22791">
        <ele>2264.0095</ele>
        <time>2020-09-15 13:49:21</time>
      </trkpt>
      <trkpt lat="45.68356" lon="6.22791">
        <ele>2263.539</ele>
        <time>2020-09-15 13:49:23</time>
      </trkpt>
      <trkpt lat="45.68358" lon="6.22791">
        <ele>2264.6536</ele>
        <time>2020-09-15 13:49:26</time>
      </trkpt>
      <trkpt lat="45.68358" lon="6.22791">
        <ele>2264.8975</ele>
        <time>2020-09-15 13:49:44</time>
      </trkpt>
      <trkpt lat="45.68359" lon="6.2279">
        <ele>2262.563</ele>
        <time>2020-09-15 13:49:48</time>
      </trkpt>
      <trkpt lat="45.68359" lon="6.22789">
        <ele>2263.2554</ele>
        <time>2020-09-15 13:49:50</time>
      </trkpt>
      <trkpt lat="45.68355" lon="6.22792">
        <ele>2263.672</ele>
        <time>2020-09-15 13:49:59</time>
      </trkpt>
      <trkpt lat="45.68351" lon="6.2279">
        <ele>2263.1553</ele>
        <time>2020-09-15 13:50:05</time>
      </trkpt>
      <trkpt lat="45.68351" lon="6.2279">
        <ele>2263.5022</ele>
        <time>2020-09-15 13:50:06</time>
      </trkpt>
      <trkpt lat="45.68351" lon="6.2279">
        <ele>2264.0103</ele>
        <time>2020-09-15 13:50:16</time>
      </trkpt>
      <trkpt lat="45.68349" lon="6.2279">
        <ele>2264.1445</ele>
        <time>2020-09-15 13:50:20</time>
      </trkpt>
      <trkpt lat="45.68349" lon="6.2279">
        <ele>2264.212</ele>
        <time>2020-09-15 13:50:23</time>
      </trkpt>
      <trkpt lat="45.68347" lon="6.2279">
        <ele>2262.7656</ele>
        <time>2020-09-15 13:50:27</time>
      </trkpt>
      <trkpt lat="45.68347" lon="6.22791">
        <ele>2262.8047</ele>
        <time>2020-09-15 13:50:30</time>
      </trkpt>
      <trkpt lat="45.68344" lon="6.22791">
        <ele>2262.2776</ele>
        <time>2020-09-15 13:50:35</time>
      </trkpt>
      <trkpt lat="45.68343" lon="6.22791">
        <ele>2262.3047</ele>
        <time>2020-09-15 13:50:38</time>
      </trkpt>
      <trkpt lat="45.68343" lon="6.22791">
        <ele>2262.4712</ele>
        <time>2020-09-15 13:50:39</time>
      </trkpt>
      <trkpt lat="45.68344" lon="6.22791">
        <ele>2262.2568</ele>
        <time>2020-09-15 13:50:52</time>
      </trkpt>
      <trkpt lat="45.68343" lon="6.2279">
        <ele>2262.391</ele>
        <time>2020-09-15 13:50:53</time>
      </trkpt>
      <trkpt lat="45.68344" lon="6.2279">
        <ele>2262.5742</ele>
        <time>2020-09-15 13:50:55</time>
      </trkpt>
      <trkpt lat="45.68345" lon="6.22792">
        <ele>2264.4417</ele>
        <time>2020-09-15 13:50:58</time>
      </trkpt>
      <trkpt lat="45.68346" lon="6.22792">
        <ele>2264.2412</ele>
        <time>2020-09-15 13:51:01</time>
      </trkpt>
      <trkpt lat="45.68347" lon="6.22792">
        <ele>2264.3218</ele>
        <time>2020-09-15 13:51:02</time>
      </trkpt>
      <trkpt lat="45.6835" lon="6.22791">
        <ele>2265.831</ele>
        <time>2020-09-15 13:51:10</time>
      </trkpt>
      <trkpt lat="45.68356" lon="6.2279">
        <ele>2264.4055</ele>
        <time>2020-09-15 13:51:19</time>
      </trkpt>
      <trkpt lat="45.68358" lon="6.2279">
        <ele>2264.246</ele>
        <time>2020-09-15 13:51:24</time>
      </trkpt>
      <trkpt lat="45.68358" lon="6.2279">
        <ele>2264.2522</ele>
        <time>2020-09-15 13:51:25</time>
      </trkpt>
      <trkpt lat="45.68357" lon="6.22789">
        <ele>2265.585</ele>
        <time>2020-09-15 13:51:40</time>
      </trkpt>
      <trkpt lat="45.68357" lon="6.22789">
        <ele>2265.5925</ele>
        <time>2020-09-15 13:51:41</time>
      </trkpt>
      <trkpt lat="45.68357" lon="6.22789">
        <ele>2265.6528</ele>
        <time>2020-09-15 13:51:49</time>
      </trkpt>
      <trkpt lat="45.68357" lon="6.22789">
        <ele>2265.4604</ele>
        <time>2020-09-15 13:51:50</time>
      </trkpt>
      <trkpt lat="45.68357" lon="6.22789">
        <ele>2264.5234</ele>
        <time>2020-09-15 13:51:53</time>
      </trkpt>
      <trkpt lat="45.68357" lon="6.22788">
        <ele>2265.9277</ele>
        <time>2020-09-15 13:57:02</time>
      </trkpt>
      <trkpt lat="45.68357" lon="6.22788">
        <ele>2265.5012</ele>
        <time>2020-09-15 13:57:59</time>
      </trkpt>
      <trkpt lat="45.68357" lon="6.22788">
        <ele>2265.5066</ele>
        <time>2020-09-15 13:58:44</time>
      </trkpt>
      <trkpt lat="45.68357" lon="6.22788">
        <ele>2265.7385</ele>
        <time>2020-09-15 14:00:59</time>
      </trkpt>
      <trkpt lat="45.68357" lon="6.22789">
        <ele>2265.8416</ele>
        <time>2020-09-15 14:01:00</time>
      </trkpt>
      <trkpt lat="45.68357" lon="6.22789">
        <ele>2265.4414</ele>
        <time>2020-09-15 14:01:01</time>
      </trkpt>
      <trkpt lat="45.68356" lon="6.22789">
        <ele>2265.3533</ele>
        <time>2020-09-15 14:01:03</time>
      </trkpt>
      <trkpt lat="45.68355" lon="6.22789">
        <ele>2265.4998</ele>
        <time>2020-09-15 14:01:07</time>
      </trkpt>
      <trkpt lat="45.68355" lon="6.22789">
        <ele>2265.8416</ele>
        <time>2020-09-15 14:01:09</time>
      </trkpt>
      <trkpt lat="45.68355" lon="6.22789">
        <ele>2265.394</ele>
        <time>2020-09-15 14:01:10</time>
      </trkpt>
      <trkpt lat="45.68355" lon="6.22789">
        <ele>2265.3918</ele>
        <time>2020-09-15 14:01:19</time>
      </trkpt>
      <trkpt lat="45.68355" lon="6.22789">
        <ele>2265.7979</ele>
        <time>2020-09-15 14:01:20</time>
      </trkpt>
      <trkpt lat="45.68355" lon="6.2279">
        <ele>2265.6152</ele>
        <time>2020-09-15 14:01:23</time>
      </trkpt>
      <trkpt lat="45.68355" lon="6.2279">
        <ele>2265.455</ele>
        <time>2020-09-15 14:01:26</time>
      </trkpt>
      <trkpt lat="45.68355" lon="6.2279">
        <ele>2265.4663</ele>
        <time>2020-09-15 14:01:47</time>
      </trkpt>
      <trkpt lat="45.68355" lon="6.22791">
        <ele>2265.477</ele>
        <time>2020-09-15 14:01:48</time>
      </trkpt>
      <trkpt lat="45.68355" lon="6.22791">
        <ele>2265.3027</ele>
        <time>2020-09-15 14:01:49</time>
      </trkpt>
      <trkpt lat="45.68353" lon="6.22792">
        <ele>2264.135</ele>
        <time>2020-09-15 14:01:53</time>
      </trkpt>
      <trkpt lat="45.68349" lon="6.22791">
        <ele>2264.1516</ele>
        <time>2020-09-15 14:02:00</time>
      </trkpt>
      <trkpt lat="45.68349" lon="6.22791">
        <ele>2264.0864</ele>
        <time>2020-09-15 14:02:01</time>
      </trkpt>
      <trkpt lat="45.68349" lon="6.22791">
        <ele>2264.128</ele>
        <time>2020-09-15 14:02:02</time>
      </trkpt>
      <trkpt lat="45.68347" lon="6.22791">
        <ele>2264.4136</ele>
        <time>2020-09-15 14:02:07</time>
      </trkpt>
      <trkpt lat="45.68347" lon="6.22791">
        <ele>2263.0063</ele>
        <time>2020-09-15 14:02:09</time>
      </trkpt>
      <trkpt lat="45.68346" lon="6.22791">
        <ele>2262.3325</ele>
        <time>2020-09-15 14:02:11</time>
      </trkpt>
      <trkpt lat="45.68345" lon="6.22791">
        <ele>2261.9739</ele>
        <time>2020-09-15 14:02:13</time>
      </trkpt>
      <trkpt lat="45.68343" lon="6.22791">
        <ele>2261.2944</ele>
        <time>2020-09-15 14:02:17</time>
      </trkpt>
      <trkpt lat="45.6834" lon="6.22791">
        <ele>2260.7012</ele>
        <time>2020-09-15 14:02:23</time>
      </trkpt>
      <trkpt lat="45.6834" lon="6.22791">
        <ele>2260.6226</ele>
        <time>2020-09-15 14:02:24</time>
      </trkpt>
      <trkpt lat="45.6834" lon="6.22792">
        <ele>2260.7466</ele>
        <time>2020-09-15 14:02:27</time>
      </trkpt>
      <trkpt lat="45.68339" lon="6.22792">
        <ele>2260.8064</ele>
        <time>2020-09-15 14:02:28</time>
      </trkpt>
      <trkpt lat="45.68339" lon="6.22792">
        <ele>2260.098</ele>
        <time>2020-09-15 14:02:31</time>
      </trkpt>
      <trkpt lat="45.68338" lon="6.22792">
        <ele>2260.12</ele>
        <time>2020-09-15 14:02:33</time>
      </trkpt>
      <trkpt lat="45.68337" lon="6.22793">
        <ele>2259.936</ele>
        <time>2020-09-15 14:02:37</time>
      </trkpt>
      <trkpt lat="45.68337" lon="6.22793">
        <ele>2259.8303</ele>
        <time>2020-09-15 14:02:39</time>
      </trkpt>
      <trkpt lat="45.68337" lon="6.22793">
        <ele>2259.7761</ele>
        <time>2020-09-15 14:02:40</time>
      </trkpt>
      <trkpt lat="45.68337" lon="6.22793">
        <ele>2259.6877</ele>
        <time>2020-09-15 14:02:43</time>
      </trkpt>
      <trkpt lat="45.68337" lon="6.22792">
        <ele>2259.579</ele>
        <time>2020-09-15 14:02:44</time>
      </trkpt>
      <trkpt lat="45.68337" lon="6.22792">
        <ele>2259.2126</ele>
        <time>2020-09-15 14:02:46</time>
      </trkpt>
      <trkpt lat="45.68336" lon="6.22792">
        <ele>2259.3472</ele>
        <time>2020-09-15 14:02:49</time>
      </trkpt>
      <trkpt lat="45.68335" lon="6.22793">
        <ele>2258.6475</ele>
        <time>2020-09-15 14:02:51</time>
      </trkpt>
      <trkpt lat="45.68335" lon="6.22793">
        <ele>2258.6345</ele>
        <time>2020-09-15 14:02:53</time>
      </trkpt>
      <trkpt lat="45.68335" lon="6.22793">
        <ele>2258.51</ele>
        <time>2020-09-15 14:02:56</time>
      </trkpt>
      <trkpt lat="45.68333" lon="6.22793">
        <ele>2258.5952</ele>
        <time>2020-09-15 14:02:59</time>
      </trkpt>
      <trkpt lat="45.68331" lon="6.22793">
        <ele>2259.133</ele>
        <time>2020-09-15 14:03:01</time>
      </trkpt>
      <trkpt lat="45.68331" lon="6.22793">
        <ele>2258.3972</ele>
        <time>2020-09-15 14:03:04</time>
      </trkpt>
      <trkpt lat="45.6833" lon="6.22793">
        <ele>2258.312</ele>
        <time>2020-09-15 14:03:06</time>
      </trkpt>
      <trkpt lat="45.6833" lon="6.22793">
        <ele>2258.2063</ele>
        <time>2020-09-15 14:03:07</time>
      </trkpt>
      <trkpt lat="45.68329" lon="6.22793">
        <ele>2258.8674</ele>
        <time>2020-09-15 14:03:12</time>
      </trkpt>
      <trkpt lat="45.68327" lon="6.22792">
        <ele>2258.418</ele>
        <time>2020-09-15 14:03:18</time>
      </trkpt>
      <trkpt lat="45.68327" lon="6.22792">
        <ele>2257.9675</ele>
        <time>2020-09-15 14:03:23</time>
      </trkpt>
      <trkpt lat="45.68325" lon="6.22793">
        <ele>2256.7017</ele>
        <time>2020-09-15 14:03:29</time>
      </trkpt>
      <trkpt lat="45.68325" lon="6.22793">
        <ele>2256.4165</ele>
        <time>2020-09-15 14:03:31</time>
      </trkpt>
      <trkpt lat="45.68325" lon="6.22793">
        <ele>2256.4133</ele>
        <time>2020-09-15 14:03:32</time>
      </trkpt>
      <trkpt lat="45.68325" lon="6.22793">
        <ele>2256.3298</ele>
        <time>2020-09-15 14:03:33</time>
      </trkpt>
      <trkpt lat="45.68325" lon="6.22794">
        <ele>2256.269</ele>
        <time>2020-09-15 14:03:35</time>
      </trkpt>
      <trkpt lat="45.68324" lon="6.22794">
        <ele>2256.2236</ele>
        <time>2020-09-15 14:03:36</time>
      </trkpt>
      <trkpt lat="45.68324" lon="6.22794">
        <ele>2256.1506</ele>
        <time>2020-09-15 14:03:37</time>
      </trkpt>
      <trkpt lat="45.68324" lon="6.22793">
        <ele>2256.1145</ele>
        <time>2020-09-15 14:03:42</time>
      </trkpt>
      <trkpt lat="45.68323" lon="6.22794">
        <ele>2255.3906</ele>
        <time>2020-09-15 14:03:50</time>
      </trkpt>
      <trkpt lat="45.68323" lon="6.22794">
        <ele>2256.1965</ele>
        <time>2020-09-15 14:03:51</time>
      </trkpt>
      <trkpt lat="45.68322" lon="6.22795">
        <ele>2255.4272</ele>
        <time>2020-09-15 14:03:57</time>
      </trkpt>
      <trkpt lat="45.68322" lon="6.22796">
        <ele>2254.379</ele>
        <time>2020-09-15 14:04:08</time>
      </trkpt>
      <trkpt lat="45.68321" lon="6.22796">
        <ele>2253.612</ele>
        <time>2020-09-15 14:04:12</time>
      </trkpt>
      <trkpt lat="45.68321" lon="6.22797">
        <ele>2254.0205</ele>
        <time>2020-09-15 14:04:13</time>
      </trkpt>
      <trkpt lat="45.6832" lon="6.22797">
        <ele>2254.0918</ele>
        <time>2020-09-15 14:04:15</time>
      </trkpt>
      <trkpt lat="45.6832" lon="6.22797">
        <ele>2254.4104</ele>
        <time>2020-09-15 14:04:17</time>
      </trkpt>
      <trkpt lat="45.6832" lon="6.22797">
        <ele>2253.7812</ele>
        <time>2020-09-15 14:04:18</time>
      </trkpt>
      <trkpt lat="45.6832" lon="6.22797">
        <ele>2253.4778</ele>
        <time>2020-09-15 14:04:22</time>
      </trkpt>
      <trkpt lat="45.6832" lon="6.22797">
        <ele>2252.31</ele>
        <time>2020-09-15 14:04:27</time>
      </trkpt>
      <trkpt lat="45.6832" lon="6.22797">
        <ele>2252.0886</ele>
        <time>2020-09-15 14:04:32</time>
      </trkpt>
      <trkpt lat="45.6832" lon="6.22798">
        <ele>2252.4746</ele>
        <time>2020-09-15 14:04:34</time>
      </trkpt>
      <trkpt lat="45.6832" lon="6.22797">
        <ele>2252.1294</ele>
        <time>2020-09-15 14:04:40</time>
      </trkpt>
      <trkpt lat="45.6832" lon="6.22798">
        <ele>2252.2966</ele>
        <time>2020-09-15 14:04:42</time>
      </trkpt>
      <trkpt lat="45.6832" lon="6.22799">
        <ele>2251.8362</ele>
        <time>2020-09-15 14:04:49</time>
      </trkpt>
      <trkpt lat="45.6832" lon="6.22799">
        <ele>2251.6985</ele>
        <time>2020-09-15 14:04:51</time>
      </trkpt>
      <trkpt lat="45.68321" lon="6.22799">
        <ele>2251.8872</ele>
        <time>2020-09-15 14:04:58</time>
      </trkpt>
      <trkpt lat="45.68321" lon="6.22799">
        <ele>2250.7021</ele>
        <time>2020-09-15 14:05:00</time>
      </trkpt>
      <trkpt lat="45.68321" lon="6.228">
        <ele>2250.4595</ele>
        <time>2020-09-15 14:05:01</time>
      </trkpt>
      <trkpt lat="45.6832" lon="6.228">
        <ele>2250.8333</ele>
        <time>2020-09-15 14:05:04</time>
      </trkpt>
      <trkpt lat="45.68319" lon="6.22801">
        <ele>2250.9253</ele>
        <time>2020-09-15 14:05:07</time>
      </trkpt>
      <trkpt lat="45.68319" lon="6.22801">
        <ele>2250.455</ele>
        <time>2020-09-15 14:05:10</time>
      </trkpt>
      <trkpt lat="45.68319" lon="6.22802">
        <ele>2250.1057</ele>
        <time>2020-09-15 14:05:12</time>
      </trkpt>
      <trkpt lat="45.68318" lon="6.22802">
        <ele>2250.4048</ele>
        <time>2020-09-15 14:05:22</time>
      </trkpt>
      <trkpt lat="45.68315" lon="6.22801">
        <ele>2250.1833</ele>
        <time>2020-09-15 14:05:29</time>
      </trkpt>
      <trkpt lat="45.68316" lon="6.22801">
        <ele>2249.708</ele>
        <time>2020-09-15 14:05:32</time>
      </trkpt>
      <trkpt lat="45.68318" lon="6.228">
        <ele>2249.5938</ele>
        <time>2020-09-15 14:05:37</time>
      </trkpt>
      <trkpt lat="45.68319" lon="6.22799">
        <ele>2248.719</ele>
        <time>2020-09-15 14:06:12</time>
      </trkpt>
      <trkpt lat="45.68319" lon="6.22799">
        <ele>2249.4407</ele>
        <time>2020-09-15 14:06:16</time>
      </trkpt>
      <trkpt lat="45.6832" lon="6.22801">
        <ele>2248.647</ele>
        <time>2020-09-15 14:06:39</time>
      </trkpt>
      <trkpt lat="45.68321" lon="6.22801">
        <ele>2249.3003</ele>
        <time>2020-09-15 14:06:43</time>
      </trkpt>
      <trkpt lat="45.68321" lon="6.22801">
        <ele>2249.448</ele>
        <time>2020-09-15 14:06:44</time>
      </trkpt>
      <trkpt lat="45.68319" lon="6.228">
        <ele>2249.968</ele>
        <time>2020-09-15 14:06:49</time>
      </trkpt>
      <trkpt lat="45.68319" lon="6.228">
        <ele>2248.817</ele>
        <time>2020-09-15 14:07:31</time>
      </trkpt>
      <trkpt lat="45.68319" lon="6.228">
        <ele>2249.398</ele>
        <time>2020-09-15 14:07:32</time>
      </trkpt>
      <trkpt lat="45.68322" lon="6.22799">
        <ele>2251.1238</ele>
        <time>2020-09-15 14:07:39</time>
      </trkpt>
      <trkpt lat="45.68322" lon="6.22799">
        <ele>2248.811</ele>
        <time>2020-09-15 14:07:42</time>
      </trkpt>
      <trkpt lat="45.68322" lon="6.22799">
        <ele>2251.7742</ele>
        <time>2020-09-15 14:07:43</time>
      </trkpt>
      <trkpt lat="45.68322" lon="6.22799">
        <ele>2251.5054</ele>
        <time>2020-09-15 14:07:44</time>
      </trkpt>
      <trkpt lat="45.68319" lon="6.22799">
        <ele>2251.3855</ele>
        <time>2020-09-15 14:07:50</time>
      </trkpt>
      <trkpt lat="45.68319" lon="6.228">
        <ele>2249.9727</ele>
        <time>2020-09-15 14:07:56</time>
      </trkpt>
      <trkpt lat="45.68319" lon="6.228">
        <ele>2249.975</ele>
        <time>2020-09-15 14:07:57</time>
      </trkpt>
      <trkpt lat="45.68319" lon="6.228">
        <ele>2250.1934</ele>
        <time>2020-09-15 14:07:58</time>
      </trkpt>
      <trkpt lat="45.68319" lon="6.228">
        <ele>2250.3179</ele>
        <time>2020-09-15 14:08:00</time>
      </trkpt>
      <trkpt lat="45.68319" lon="6.22803">
        <ele>2249.0735</ele>
        <time>2020-09-15 14:08:09</time>
      </trkpt>
      <trkpt lat="45.68319" lon="6.22803">
        <ele>2248.947</ele>
        <time>2020-09-15 14:08:10</time>
      </trkpt>
      <trkpt lat="45.68318" lon="6.22804">
        <ele>2247.827</ele>
        <time>2020-09-15 14:08:17</time>
      </trkpt>
      <trkpt lat="45.68318" lon="6.22804">
        <ele>2249.6584</ele>
        <time>2020-09-15 14:08:19</time>
      </trkpt>
      <trkpt lat="45.68318" lon="6.22805">
        <ele>2248.0972</ele>
        <time>2020-09-15 14:08:30</time>
      </trkpt>
      <trkpt lat="45.68319" lon="6.22805">
        <ele>2248.6113</ele>
        <time>2020-09-15 14:08:33</time>
      </trkpt>
      <trkpt lat="45.68319" lon="6.22804">
        <ele>2249.2627</ele>
        <time>2020-09-15 14:08:37</time>
      </trkpt>
      <trkpt lat="45.68319" lon="6.22804">
        <ele>2249.4424</ele>
        <time>2020-09-15 14:08:39</time>
      </trkpt>
      <trkpt lat="45.68319" lon="6.22804">
        <ele>2249.6763</ele>
        <time>2020-09-15 14:09:09</time>
      </trkpt>
      <trkpt lat="45.68319" lon="6.22804">
        <ele>2249.6843</ele>
        <time>2020-09-15 14:09:10</time>
      </trkpt>
      <trkpt lat="45.68319" lon="6.22804">
        <ele>2249.4622</ele>
        <time>2020-09-15 14:09:13</time>
      </trkpt>
      <trkpt lat="45.68319" lon="6.22804">
        <ele>2249.2937</ele>
        <time>2020-09-15 14:09:14</time>
      </trkpt>
      <trkpt lat="45.6832" lon="6.22802">
        <ele>2249.759</ele>
        <time>2020-09-15 14:09:54</time>
      </trkpt>
      <trkpt lat="45.6832" lon="6.22802">
        <ele>2249.7583</ele>
        <time>2020-09-15 14:10:29</time>
      </trkpt>
      <trkpt lat="45.68318" lon="6.22804">
        <ele>2251.8262</ele>
        <time>2020-09-15 14:11:09</time>
      </trkpt>
      <trkpt lat="45.68318" lon="6.22804">
        <ele>2250.049</ele>
        <time>2020-09-15 14:11:11</time>
      </trkpt>
      <trkpt lat="45.68318" lon="6.22804">
        <ele>2251.8147</ele>
        <time>2020-09-15 14:11:12</time>
      </trkpt>
      <trkpt lat="45.68318" lon="6.22803">
        <ele>2251.7092</ele>
        <time>2020-09-15 14:11:14</time>
      </trkpt>
      <trkpt lat="45.68319" lon="6.228">
        <ele>2251.3987</ele>
        <time>2020-09-15 14:11:23</time>
      </trkpt>
      <trkpt lat="45.68318" lon="6.228">
        <ele>2251.561</ele>
        <time>2020-09-15 14:11:25</time>
      </trkpt>
      <trkpt lat="45.68318" lon="6.228">
        <ele>2251.8362</ele>
        <time>2020-09-15 14:11:26</time>
      </trkpt>
      <trkpt lat="45.68318" lon="6.228">
        <ele>2250.751</ele>
        <time>2020-09-15 14:11:29</time>
      </trkpt>
      <trkpt lat="45.68317" lon="6.22803">
        <ele>2252.055</ele>
        <time>2020-09-15 14:11:54</time>
      </trkpt>
      <trkpt lat="45.68318" lon="6.22804">
        <ele>2251.7095</ele>
        <time>2020-09-15 14:11:58</time>
      </trkpt>
      <trkpt lat="45.68317" lon="6.22802">
        <ele>2251.8047</ele>
        <time>2020-09-15 14:13:03</time>
      </trkpt>
      <trkpt lat="45.68317" lon="6.22802">
        <ele>2252.0596</ele>
        <time>2020-09-15 14:13:57</time>
      </trkpt>
      <trkpt lat="45.68317" lon="6.22802">
        <ele>2252.1472</ele>
        <time>2020-09-15 14:14:42</time>
      </trkpt>
      <trkpt lat="45.68318" lon="6.22802">
        <ele>2253.3477</ele>
        <time>2020-09-15 14:14:55</time>
      </trkpt>
      <trkpt lat="45.68318" lon="6.22803">
        <ele>2254.9126</ele>
        <time>2020-09-15 14:14:57</time>
      </trkpt>
      <trkpt lat="45.68317" lon="6.22803">
        <ele>2255.4556</ele>
        <time>2020-09-15 14:15:23</time>
      </trkpt>
      <trkpt lat="45.68317" lon="6.22803">
        <ele>2254.326</ele>
        <time>2020-09-15 14:15:24</time>
      </trkpt>
      <trkpt lat="45.68316" lon="6.22804">
        <ele>2254.1086</ele>
        <time>2020-09-15 14:16:01</time>
      </trkpt>
      <trkpt lat="45.68316" lon="6.22804">
        <ele>2253.8225</ele>
        <time>2020-09-15 14:16:37</time>
      </trkpt>
      <trkpt lat="45.68316" lon="6.22806">
        <ele>2253.349</ele>
        <time>2020-09-15 14:16:40</time>
      </trkpt>
      <trkpt lat="45.68317" lon="6.22807">
        <ele>2253.3384</ele>
        <time>2020-09-15 14:17:13</time>
      </trkpt>
      <trkpt lat="45.68317" lon="6.22806">
        <ele>2253.4023</ele>
        <time>2020-09-15 14:17:15</time>
      </trkpt>
      <trkpt lat="45.68316" lon="6.22806">
        <ele>2252.841</ele>
        <time>2020-09-15 14:17:28</time>
      </trkpt>
      <trkpt lat="45.68316" lon="6.22805">
        <ele>2252.8647</ele>
        <time>2020-09-15 14:17:30</time>
      </trkpt>
      <trkpt lat="45.68317" lon="6.22804">
        <ele>2252.6846</ele>
        <time>2020-09-15 14:17:35</time>
      </trkpt>
      <trkpt lat="45.68317" lon="6.22804">
        <ele>2252.5789</ele>
        <time>2020-09-15 14:17:36</time>
      </trkpt>
      <trkpt lat="45.68318" lon="6.22804">
        <ele>2251.5498</ele>
        <time>2020-09-15 14:17:37</time>
      </trkpt>
      <trkpt lat="45.68318" lon="6.22804">
        <ele>2251.562</ele>
        <time>2020-09-15 14:17:38</time>
      </trkpt>
      <trkpt lat="45.68319" lon="6.22803">
        <ele>2251.5598</ele>
        <time>2020-09-15 14:17:44</time>
      </trkpt>
      <trkpt lat="45.68318" lon="6.22801">
        <ele>2251.2285</ele>
        <time>2020-09-15 14:17:47</time>
      </trkpt>
      <trkpt lat="45.68317" lon="6.22801">
        <ele>2251.6458</ele>
        <time>2020-09-15 14:17:51</time>
      </trkpt>
      <trkpt lat="45.68317" lon="6.22801">
        <ele>2251.9614</ele>
        <time>2020-09-15 14:17:53</time>
      </trkpt>
      <trkpt lat="45.68317" lon="6.22801">
        <ele>2251.92</ele>
        <time>2020-09-15 14:17:54</time>
      </trkpt>
      <trkpt lat="45.68317" lon="6.22801">
        <ele>2251.958</ele>
        <time>2020-09-15 14:17:55</time>
      </trkpt>
      <trkpt lat="45.68316" lon="6.22801">
        <ele>2251.303</ele>
        <time>2020-09-15 14:17:56</time>
      </trkpt>
      <trkpt lat="45.68316" lon="6.22801">
        <ele>2252.0413</ele>
        <time>2020-09-15 14:17:57</time>
      </trkpt>
      <trkpt lat="45.68316" lon="6.22801">
        <ele>2251.9573</ele>
        <time>2020-09-15 14:17:58</time>
      </trkpt>
      <trkpt lat="45.68316" lon="6.22802">
        <ele>2251.726</ele>
        <time>2020-09-15 14:18:00</time>
      </trkpt>
      <trkpt lat="45.68316" lon="6.22802">
        <ele>2251.3203</ele>
        <time>2020-09-15 14:18:01</time>
      </trkpt>
      <trkpt lat="45.68316" lon="6.22802">
        <ele>2251.3357</ele>
        <time>2020-09-15 14:18:02</time>
      </trkpt>
      <trkpt lat="45.68316" lon="6.22802">
        <ele>2252.0413</ele>
        <time>2020-09-15 14:18:06</time>
      </trkpt>
      <trkpt lat="45.68316" lon="6.22802">
        <ele>2250.9678</ele>
        <time>2020-09-15 14:18:07</time>
      </trkpt>
      <trkpt lat="45.68316" lon="6.22802">
        <ele>2250.745</ele>
        <time>2020-09-15 14:18:09</time>
      </trkpt>
      <trkpt lat="45.68315" lon="6.22802">
        <ele>2250.936</ele>
        <time>2020-09-15 14:18:11</time>
      </trkpt>
      <trkpt lat="45.68315" lon="6.22802">
        <ele>2249.615</ele>
        <time>2020-09-15 14:18:20</time>
      </trkpt>
      <trkpt lat="45.68315" lon="6.22802">
        <ele>2249.5374</ele>
        <time>2020-09-15 14:18:21</time>
      </trkpt>
      <trkpt lat="45.68315" lon="6.22802">
        <ele>2249.818</ele>
        <time>2020-09-15 14:18:35</time>
      </trkpt>
      <trkpt lat="45.68314" lon="6.22802">
        <ele>2248.2222</ele>
        <time>2020-09-15 14:18:38</time>
      </trkpt>
      <trkpt lat="45.68312" lon="6.228">
        <ele>2246.4583</ele>
        <time>2020-09-15 14:18:43</time>
      </trkpt>
      <trkpt lat="45.6831" lon="6.22802">
        <ele>2245.0598</ele>
        <time>2020-09-15 14:18:47</time>
      </trkpt>
      <trkpt lat="45.6831" lon="6.22802">
        <ele>2246.685</ele>
        <time>2020-09-15 14:18:58</time>
      </trkpt>
      <trkpt lat="45.6831" lon="6.22802">
        <ele>2246.7676</ele>
        <time>2020-09-15 14:19:00</time>
      </trkpt>
      <trkpt lat="45.68309" lon="6.22801">
        <ele>2246.3435</ele>
        <time>2020-09-15 14:19:07</time>
      </trkpt>
      <trkpt lat="45.68309" lon="6.22801">
        <ele>2246.0464</ele>
        <time>2020-09-15 14:19:08</time>
      </trkpt>
      <trkpt lat="45.68308" lon="6.22801">
        <ele>2245.9294</ele>
        <time>2020-09-15 14:19:22</time>
      </trkpt>
      <trkpt lat="45.68308" lon="6.228">
        <ele>2246.371</ele>
        <time>2020-09-15 14:19:23</time>
      </trkpt>
      <trkpt lat="45.68308" lon="6.228">
        <ele>2246.8054</ele>
        <time>2020-09-15 14:19:29</time>
      </trkpt>
      <trkpt lat="45.68308" lon="6.228">
        <ele>2246.7158</ele>
        <time>2020-09-15 14:19:30</time>
      </trkpt>
      <trkpt lat="45.68308" lon="6.22799">
        <ele>2246.2766</ele>
        <time>2020-09-15 14:19:47</time>
      </trkpt>
      <trkpt lat="45.68307" lon="6.22799">
        <ele>2246.729</ele>
        <time>2020-09-15 14:19:49</time>
      </trkpt>
      <trkpt lat="45.68307" lon="6.22799">
        <ele>2247.579</ele>
        <time>2020-09-15 14:19:59</time>
      </trkpt>
      <trkpt lat="45.68307" lon="6.22799">
        <ele>2246.9275</ele>
        <time>2020-09-15 14:20:01</time>
      </trkpt>
      <trkpt lat="45.68307" lon="6.22799">
        <ele>2245.5144</ele>
        <time>2020-09-15 14:21:07</time>
      </trkpt>
      <trkpt lat="45.68307" lon="6.22799">
        <ele>2245.4912</ele>
        <time>2020-09-15 14:22:03</time>
      </trkpt>
      <trkpt lat="45.68307" lon="6.22799">
        <ele>2245.379</ele>
        <time>2020-09-15 14:22:05</time>
      </trkpt>
      <trkpt lat="45.68306" lon="6.228">
        <ele>2243.7097</ele>
        <time>2020-09-15 14:23:00</time>
      </trkpt>
      <trkpt lat="45.68306" lon="6.228">
        <ele>2243.9631</ele>
        <time>2020-09-15 14:23:56</time>
      </trkpt>
      <trkpt lat="45.68306" lon="6.228">
        <ele>2244.274</ele>
        <time>2020-09-15 14:23:58</time>
      </trkpt>
      <trkpt lat="45.68306" lon="6.228">
        <ele>2243.704</ele>
        <time>2020-09-15 14:24:07</time>
      </trkpt>
      <trkpt lat="45.68306" lon="6.228">
        <ele>2244.9448</ele>
        <time>2020-09-15 14:24:09</time>
      </trkpt>
      <trkpt lat="45.68306" lon="6.228">
        <ele>2245.1567</ele>
        <time>2020-09-15 14:24:10</time>
      </trkpt>
      <trkpt lat="45.68306" lon="6.228">
        <ele>2244.8528</ele>
        <time>2020-09-15 14:24:12</time>
      </trkpt>
      <trkpt lat="45.68306" lon="6.228">
        <ele>2244.4104</ele>
        <time>2020-09-15 14:24:13</time>
      </trkpt>
      <trkpt lat="45.68306" lon="6.22799">
        <ele>2244.466</ele>
        <time>2020-09-15 14:24:16</time>
      </trkpt>
      <trkpt lat="45.68306" lon="6.22799">
        <ele>2244.6396</ele>
        <time>2020-09-15 14:24:17</time>
      </trkpt>
      <trkpt lat="45.68306" lon="6.22799">
        <ele>2244.157</ele>
        <time>2020-09-15 14:24:19</time>
      </trkpt>
      <trkpt lat="45.68303" lon="6.22799">
        <ele>2243.1375</ele>
        <time>2020-09-15 14:24:26</time>
      </trkpt>
      <trkpt lat="45.68303" lon="6.22799">
        <ele>2243.829</ele>
        <time>2020-09-15 14:24:30</time>
      </trkpt>
      <trkpt lat="45.68303" lon="6.22799">
        <ele>2244.0427</ele>
        <time>2020-09-15 14:24:32</time>
      </trkpt>
      <trkpt lat="45.68302" lon="6.22799">
        <ele>2244.2798</ele>
        <time>2020-09-15 14:24:37</time>
      </trkpt>
      <trkpt lat="45.683" lon="6.22799">
        <ele>2244.8381</ele>
        <time>2020-09-15 14:24:43</time>
      </trkpt>
      <trkpt lat="45.683" lon="6.22799">
        <ele>2244.7292</ele>
        <time>2020-09-15 14:24:44</time>
      </trkpt>
      <trkpt lat="45.68299" lon="6.22799">
        <ele>2244.0347</ele>
        <time>2020-09-15 14:24:49</time>
      </trkpt>
      <trkpt lat="45.68298" lon="6.22799">
        <ele>2242.1968</ele>
        <time>2020-09-15 14:24:56</time>
      </trkpt>
      <trkpt lat="45.68298" lon="6.22799">
        <ele>2241.7996</ele>
        <time>2020-09-15 14:24:57</time>
      </trkpt>
      <trkpt lat="45.68298" lon="6.22799">
        <ele>2241.2346</ele>
        <time>2020-09-15 14:24:58</time>
      </trkpt>
      <trkpt lat="45.68297" lon="6.228">
        <ele>2240.9678</ele>
        <time>2020-09-15 14:25:01</time>
      </trkpt>
      <trkpt lat="45.68296" lon="6.22799">
        <ele>2241.1094</ele>
        <time>2020-09-15 14:25:04</time>
      </trkpt>
      <trkpt lat="45.68296" lon="6.22799">
        <ele>2241.4417</ele>
        <time>2020-09-15 14:25:05</time>
      </trkpt>
      <trkpt lat="45.68296" lon="6.22799">
        <ele>2241.5002</ele>
        <time>2020-09-15 14:25:06</time>
      </trkpt>
      <trkpt lat="45.68295" lon="6.22799">
        <ele>2241.4849</ele>
        <time>2020-09-15 14:25:09</time>
      </trkpt>
      <trkpt lat="45.68295" lon="6.22799">
        <ele>2240.9678</ele>
        <time>2020-09-15 14:25:10</time>
      </trkpt>
      <trkpt lat="45.68294" lon="6.22799">
        <ele>2241.8335</ele>
        <time>2020-09-15 14:25:11</time>
      </trkpt>
      <trkpt lat="45.68294" lon="6.22799">
        <ele>2242.4187</ele>
        <time>2020-09-15 14:25:22</time>
      </trkpt>
      <trkpt lat="45.68294" lon="6.22799">
        <ele>2241.8335</ele>
        <time>2020-09-15 14:25:23</time>
      </trkpt>
      <trkpt lat="45.68294" lon="6.22799">
        <ele>2242.0864</ele>
        <time>2020-09-15 14:25:28</time>
      </trkpt>
      <trkpt lat="45.68294" lon="6.22799">
        <ele>2241.9329</ele>
        <time>2020-09-15 14:25:29</time>
      </trkpt>
      <trkpt lat="45.68293" lon="6.228">
        <ele>2241.3523</ele>
        <time>2020-09-15 14:25:40</time>
      </trkpt>
      <trkpt lat="45.68293" lon="6.22799">
        <ele>2242.0366</ele>
        <time>2020-09-15 14:25:43</time>
      </trkpt>
      <trkpt lat="45.68293" lon="6.22798">
        <ele>2241.2637</ele>
        <time>2020-09-15 14:25:48</time>
      </trkpt>
      <trkpt lat="45.68292" lon="6.22798">
        <ele>2241.3694</ele>
        <time>2020-09-15 14:25:49</time>
      </trkpt>
      <trkpt lat="45.68292" lon="6.22798">
        <ele>2242.0051</ele>
        <time>2020-09-15 14:25:56</time>
      </trkpt>
      <trkpt lat="45.68291" lon="6.22797">
        <ele>2242.5964</ele>
        <time>2020-09-15 14:25:59</time>
      </trkpt>
      <trkpt lat="45.68291" lon="6.22797">
        <ele>2242.5557</ele>
        <time>2020-09-15 14:26:00</time>
      </trkpt>
      <trkpt lat="45.68291" lon="6.22797">
        <ele>2242.157</ele>
        <time>2020-09-15 14:26:05</time>
      </trkpt>
      <trkpt lat="45.6829" lon="6.22797">
        <ele>2242.0237</ele>
        <time>2020-09-15 14:26:06</time>
      </trkpt>
      <trkpt lat="45.6829" lon="6.22797">
        <ele>2241.7378</ele>
        <time>2020-09-15 14:26:08</time>
      </trkpt>
      <trkpt lat="45.6829" lon="6.22797">
        <ele>2241.9966</ele>
        <time>2020-09-15 14:26:09</time>
      </trkpt>
      <trkpt lat="45.6829" lon="6.22797">
        <ele>2242.6477</ele>
        <time>2020-09-15 14:26:11</time>
      </trkpt>
      <trkpt lat="45.68289" lon="6.22797">
        <ele>2242.9548</ele>
        <time>2020-09-15 14:26:13</time>
      </trkpt>
      <trkpt lat="45.68289" lon="6.22797">
        <ele>2243.1438</ele>
        <time>2020-09-15 14:26:14</time>
      </trkpt>
      <trkpt lat="45.68289" lon="6.22797">
        <ele>2243.4944</ele>
        <time>2020-09-15 14:26:15</time>
      </trkpt>
      <trkpt lat="45.68288" lon="6.22796">
        <ele>2243.6082</ele>
        <time>2020-09-15 14:26:20</time>
      </trkpt>
      <trkpt lat="45.68288" lon="6.22796">
        <ele>2243.3342</ele>
        <time>2020-09-15 14:26:21</time>
      </trkpt>
      <trkpt lat="45.68287" lon="6.22797">
        <ele>2243.323</ele>
        <time>2020-09-15 14:26:25</time>
      </trkpt>
      <trkpt lat="45.68286" lon="6.22797">
        <ele>2243.5356</ele>
        <time>2020-09-15 14:26:30</time>
      </trkpt>
      <trkpt lat="45.68286" lon="6.22797">
        <ele>2243.4917</ele>
        <time>2020-09-15 14:26:32</time>
      </trkpt>
      <trkpt lat="45.68286" lon="6.22796">
        <ele>2243.5703</ele>
        <time>2020-09-15 14:26:37</time>
      </trkpt>
      <trkpt lat="45.68286" lon="6.22796">
        <ele>2243.952</ele>
        <time>2020-09-15 14:26:38</time>
      </trkpt>
      <trkpt lat="45.68285" lon="6.22796">
        <ele>2244.3364</ele>
        <time>2020-09-15 14:26:41</time>
      </trkpt>
      <trkpt lat="45.68284" lon="6.22795">
        <ele>2243.8926</ele>
        <time>2020-09-15 14:26:47</time>
      </trkpt>
      <trkpt lat="45.68283" lon="6.22796">
        <ele>2244.1147</ele>
        <time>2020-09-15 14:27:00</time>
      </trkpt>
      <trkpt lat="45.68283" lon="6.22796">
        <ele>2243.8452</ele>
        <time>2020-09-15 14:27:01</time>
      </trkpt>
      <trkpt lat="45.68282" lon="6.22796">
        <ele>2244.3499</ele>
        <time>2020-09-15 14:27:10</time>
      </trkpt>
      <trkpt lat="45.68282" lon="6.22796">
        <ele>2243.3074</ele>
        <time>2020-09-15 14:27:11</time>
      </trkpt>
      <trkpt lat="45.68282" lon="6.22796">
        <ele>2242.9778</ele>
        <time>2020-09-15 14:27:20</time>
      </trkpt>
      <trkpt lat="45.68282" lon="6.22796">
        <ele>2243.1414</ele>
        <time>2020-09-15 14:27:21</time>
      </trkpt>
      <trkpt lat="45.68281" lon="6.22796">
        <ele>2243.3074</ele>
        <time>2020-09-15 14:27:24</time>
      </trkpt>
      <trkpt lat="45.68281" lon="6.22798">
        <ele>2243.7158</ele>
        <time>2020-09-15 14:27:28</time>
      </trkpt>
      <trkpt lat="45.68281" lon="6.22798">
        <ele>2243.363</ele>
        <time>2020-09-15 14:27:29</time>
      </trkpt>
      <trkpt lat="45.68279" lon="6.22797">
        <ele>2243.9712</ele>
        <time>2020-09-15 14:27:38</time>
      </trkpt>
      <trkpt lat="45.68279" lon="6.22798">
        <ele>2242.411</ele>
        <time>2020-09-15 14:27:42</time>
      </trkpt>
      <trkpt lat="45.68278" lon="6.22798">
        <ele>2242.3203</ele>
        <time>2020-09-15 14:27:46</time>
      </trkpt>
      <trkpt lat="45.68278" lon="6.22798">
        <ele>2242.8906</ele>
        <time>2020-09-15 14:27:50</time>
      </trkpt>
      <trkpt lat="45.68277" lon="6.22798">
        <ele>2243.653</ele>
        <time>2020-09-15 14:27:53</time>
      </trkpt>
      <trkpt lat="45.68277" lon="6.22798">
        <ele>2244.291</ele>
        <time>2020-09-15 14:27:56</time>
      </trkpt>
      <trkpt lat="45.68277" lon="6.22798">
        <ele>2244.4324</ele>
        <time>2020-09-15 14:27:57</time>
      </trkpt>
      <trkpt lat="45.68276" lon="6.22798">
        <ele>2243.8499</ele>
        <time>2020-09-15 14:28:00</time>
      </trkpt>
      <trkpt lat="45.68275" lon="6.22798">
        <ele>2244.511</ele>
        <time>2020-09-15 14:28:02</time>
      </trkpt>
      <trkpt lat="45.68275" lon="6.22798">
        <ele>2244.5383</ele>
        <time>2020-09-15 14:28:03</time>
      </trkpt>
      <trkpt lat="45.68275" lon="6.22798">
        <ele>2244.6328</ele>
        <time>2020-09-15 14:28:05</time>
      </trkpt>
      <trkpt lat="45.68275" lon="6.22797">
        <ele>2245.2068</ele>
        <time>2020-09-15 14:28:08</time>
      </trkpt>
      <trkpt lat="45.68274" lon="6.22796">
        <ele>2245.617</ele>
        <time>2020-09-15 14:28:15</time>
      </trkpt>
      <trkpt lat="45.68274" lon="6.22796">
        <ele>2245.8945</ele>
        <time>2020-09-15 14:28:16</time>
      </trkpt>
      <trkpt lat="45.68274" lon="6.22796">
        <ele>2246.5444</ele>
        <time>2020-09-15 14:28:18</time>
      </trkpt>
      <trkpt lat="45.68273" lon="6.22796">
        <ele>2247.2751</ele>
        <time>2020-09-15 14:28:21</time>
      </trkpt>
      <trkpt lat="45.68272" lon="6.22796">
        <ele>2248.0078</ele>
        <time>2020-09-15 14:28:32</time>
      </trkpt>
      <trkpt lat="45.68271" lon="6.22795">
        <ele>2249.1729</ele>
        <time>2020-09-15 14:28:42</time>
      </trkpt>
      <trkpt lat="45.68271" lon="6.22795">
        <ele>2249.3914</ele>
        <time>2020-09-15 14:28:43</time>
      </trkpt>
      <trkpt lat="45.68271" lon="6.22795">
        <ele>2249.902</ele>
        <time>2020-09-15 14:28:44</time>
      </trkpt>
      <trkpt lat="45.68271" lon="6.22795">
        <ele>2249.6406</ele>
        <time>2020-09-15 14:28:45</time>
      </trkpt>
      <trkpt lat="45.6827" lon="6.22795">
        <ele>2250.2239</ele>
        <time>2020-09-15 14:28:48</time>
      </trkpt>
      <trkpt lat="45.6827" lon="6.22795">
        <ele>2250.9717</ele>
        <time>2020-09-15 14:28:50</time>
      </trkpt>
      <trkpt lat="45.6827" lon="6.22795">
        <ele>2251.0679</ele>
        <time>2020-09-15 14:28:51</time>
      </trkpt>
      <trkpt lat="45.6827" lon="6.22795">
        <ele>2251.2783</ele>
        <time>2020-09-15 14:28:54</time>
      </trkpt>
      <trkpt lat="45.68269" lon="6.22794">
        <ele>2252.182</ele>
        <time>2020-09-15 14:28:56</time>
      </trkpt>
      <trkpt lat="45.68269" lon="6.22794">
        <ele>2251.9414</ele>
        <time>2020-09-15 14:28:57</time>
      </trkpt>
      <trkpt lat="45.68268" lon="6.22794">
        <ele>2250.2334</ele>
        <time>2020-09-15 14:28:59</time>
      </trkpt>
      <trkpt lat="45.68268" lon="6.22795">
        <ele>2251.9866</ele>
        <time>2020-09-15 14:29:02</time>
      </trkpt>
      <trkpt lat="45.68267" lon="6.22794">
        <ele>2250.8333</ele>
        <time>2020-09-15 14:29:08</time>
      </trkpt>
      <trkpt lat="45.68266" lon="6.22794">
        <ele>2252.0005</ele>
        <time>2020-09-15 14:29:10</time>
      </trkpt>
      <trkpt lat="45.68266" lon="6.22794">
        <ele>2251.005</ele>
        <time>2020-09-15 14:29:11</time>
      </trkpt>
      <trkpt lat="45.68265" lon="6.22795">
        <ele>2250.3352</ele>
        <time>2020-09-15 14:29:14</time>
      </trkpt>
      <trkpt lat="45.68265" lon="6.22796">
        <ele>2249.9575</ele>
        <time>2020-09-15 14:29:19</time>
      </trkpt>
      <trkpt lat="45.68264" lon="6.22796">
        <ele>2250.1008</ele>
        <time>2020-09-15 14:29:20</time>
      </trkpt>
      <trkpt lat="45.68261" lon="6.22796">
        <ele>2248.3142</ele>
        <time>2020-09-15 14:29:29</time>
      </trkpt>
      <trkpt lat="45.68261" lon="6.22797">
        <ele>2247.8792</ele>
        <time>2020-09-15 14:29:30</time>
      </trkpt>
      <trkpt lat="45.6826" lon="6.22796">
        <ele>2248.167</ele>
        <time>2020-09-15 14:29:32</time>
      </trkpt>
      <trkpt lat="45.68259" lon="6.22797">
        <ele>2247.4487</ele>
        <time>2020-09-15 14:29:56</time>
      </trkpt>
      <trkpt lat="45.68259" lon="6.22797">
        <ele>2247.351</ele>
        <time>2020-09-15 14:29:57</time>
      </trkpt>
      <trkpt lat="45.68258" lon="6.22798">
        <ele>2246.459</ele>
        <time>2020-09-15 14:30:10</time>
      </trkpt>
      <trkpt lat="45.68257" lon="6.22799">
        <ele>2246.756</ele>
        <time>2020-09-15 14:30:13</time>
      </trkpt>
      <trkpt lat="45.68257" lon="6.22798">
        <ele>2246.914</ele>
        <time>2020-09-15 14:30:14</time>
      </trkpt>
      <trkpt lat="45.68257" lon="6.22798">
        <ele>2246.8374</ele>
        <time>2020-09-15 14:30:15</time>
      </trkpt>
      <trkpt lat="45.68256" lon="6.22799">
        <ele>2247.0242</ele>
        <time>2020-09-15 14:30:20</time>
      </trkpt>
      <trkpt lat="45.68256" lon="6.22799">
        <ele>2246.459</ele>
        <time>2020-09-15 14:30:22</time>
      </trkpt>
      <trkpt lat="45.68256" lon="6.228">
        <ele>2245.9258</ele>
        <time>2020-09-15 14:30:25</time>
      </trkpt>
      <trkpt lat="45.68255" lon="6.228">
        <ele>2246.0364</ele>
        <time>2020-09-15 14:30:27</time>
      </trkpt>
      <trkpt lat="45.68255" lon="6.228">
        <ele>2245.4417</ele>
        <time>2020-09-15 14:30:28</time>
      </trkpt>
      <trkpt lat="45.68252" lon="6.228">
        <ele>2246.5088</ele>
        <time>2020-09-15 14:30:35</time>
      </trkpt>
      <trkpt lat="45.68252" lon="6.22799">
        <ele>2246.466</ele>
        <time>2020-09-15 14:30:44</time>
      </trkpt>
      <trkpt lat="45.68252" lon="6.228">
        <ele>2246.1145</ele>
        <time>2020-09-15 14:30:48</time>
      </trkpt>
      <trkpt lat="45.68251" lon="6.228">
        <ele>2246.6719</ele>
        <time>2020-09-15 14:30:51</time>
      </trkpt>
      <trkpt lat="45.68251" lon="6.228">
        <ele>2246.7922</ele>
        <time>2020-09-15 14:30:54</time>
      </trkpt>
      <trkpt lat="45.68251" lon="6.228">
        <ele>2246.7534</ele>
        <time>2020-09-15 14:30:55</time>
      </trkpt>
      <trkpt lat="45.68251" lon="6.228">
        <ele>2246.7537</ele>
        <time>2020-09-15 14:30:56</time>
      </trkpt>
      <trkpt lat="45.68251" lon="6.228">
        <ele>2246.573</ele>
        <time>2020-09-15 14:30:58</time>
      </trkpt>
      <trkpt lat="45.68251" lon="6.228">
        <ele>2246.9866</ele>
        <time>2020-09-15 14:31:00</time>
      </trkpt>
      <trkpt lat="45.6825" lon="6.228">
        <ele>2246.971</ele>
        <time>2020-09-15 14:31:03</time>
      </trkpt>
      <trkpt lat="45.6825" lon="6.228">
        <ele>2246.9744</ele>
        <time>2020-09-15 14:31:04</time>
      </trkpt>
      <trkpt lat="45.68251" lon="6.228">
        <ele>2247.538</ele>
        <time>2020-09-15 14:31:15</time>
      </trkpt>
      <trkpt lat="45.6825" lon="6.228">
        <ele>2248.7415</ele>
        <time>2020-09-15 14:31:17</time>
      </trkpt>
      <trkpt lat="45.6825" lon="6.228">
        <ele>2248.071</ele>
        <time>2020-09-15 14:31:18</time>
      </trkpt>
      <trkpt lat="45.6825" lon="6.228">
        <ele>2249.9543</ele>
        <time>2020-09-15 14:31:20</time>
      </trkpt>
      <trkpt lat="45.6825" lon="6.228">
        <ele>2250.2095</ele>
        <time>2020-09-15 14:31:21</time>
      </trkpt>
      <trkpt lat="45.68249" lon="6.22801">
        <ele>2250.9807</ele>
        <time>2020-09-15 14:31:24</time>
      </trkpt>
      <trkpt lat="45.68249" lon="6.22801">
        <ele>2247.7158</ele>
        <time>2020-09-15 14:31:25</time>
      </trkpt>
      <trkpt lat="45.68248" lon="6.22801">
        <ele>2251.5955</ele>
        <time>2020-09-15 14:31:26</time>
      </trkpt>
      <trkpt lat="45.68248" lon="6.22801">
        <ele>2252.1052</ele>
        <time>2020-09-15 14:31:28</time>
      </trkpt>
      <trkpt lat="45.68248" lon="6.22801">
        <ele>2251.7192</ele>
        <time>2020-09-15 14:31:43</time>
      </trkpt>
      <trkpt lat="45.68246" lon="6.22801">
        <ele>2252.3184</ele>
        <time>2020-09-15 14:31:48</time>
      </trkpt>
      <trkpt lat="45.68246" lon="6.22802">
        <ele>2251.19</ele>
        <time>2020-09-15 14:31:51</time>
      </trkpt>
      <trkpt lat="45.68246" lon="6.22802">
        <ele>2251.8105</ele>
        <time>2020-09-15 14:31:54</time>
      </trkpt>
      <trkpt lat="45.68245" lon="6.22802">
        <ele>2251.5662</ele>
        <time>2020-09-15 14:31:55</time>
      </trkpt>
      <trkpt lat="45.68243" lon="6.22802">
        <ele>2253.1292</ele>
        <time>2020-09-15 14:32:02</time>
      </trkpt>
      <trkpt lat="45.68243" lon="6.22802">
        <ele>2252.908</ele>
        <time>2020-09-15 14:32:09</time>
      </trkpt>
      <trkpt lat="45.68243" lon="6.22802">
        <ele>2252.6404</ele>
        <time>2020-09-15 14:32:11</time>
      </trkpt>
      <trkpt lat="45.68243" lon="6.22802">
        <ele>2252.7346</ele>
        <time>2020-09-15 14:32:17</time>
      </trkpt>
      <trkpt lat="45.68243" lon="6.22802">
        <ele>2252.8213</ele>
        <time>2020-09-15 14:32:18</time>
      </trkpt>
      <trkpt lat="45.68242" lon="6.22803">
        <ele>2253.3772</ele>
        <time>2020-09-15 14:32:23</time>
      </trkpt>
      <trkpt lat="45.68242" lon="6.22803">
        <ele>2253.9358</ele>
        <time>2020-09-15 14:32:24</time>
      </trkpt>
      <trkpt lat="45.68242" lon="6.22802">
        <ele>2254.6233</ele>
        <time>2020-09-15 14:32:26</time>
      </trkpt>
      <trkpt lat="45.68241" lon="6.22801">
        <ele>2255.181</ele>
        <time>2020-09-15 14:32:28</time>
      </trkpt>
      <trkpt lat="45.68241" lon="6.22801">
        <ele>2255.682</ele>
        <time>2020-09-15 14:32:35</time>
      </trkpt>
      <trkpt lat="45.68241" lon="6.22801">
        <ele>2255.7122</ele>
        <time>2020-09-15 14:32:36</time>
      </trkpt>
      <trkpt lat="45.68241" lon="6.22802">
        <ele>2255.4001</ele>
        <time>2020-09-15 14:32:39</time>
      </trkpt>
      <trkpt lat="45.68241" lon="6.22802">
        <ele>2255.4077</ele>
        <time>2020-09-15 14:32:40</time>
      </trkpt>
      <trkpt lat="45.6824" lon="6.22803">
        <ele>2256.1687</ele>
        <time>2020-09-15 14:32:45</time>
      </trkpt>
      <trkpt lat="45.6824" lon="6.22803">
        <ele>2256.1514</ele>
        <time>2020-09-15 14:32:46</time>
      </trkpt>
      <trkpt lat="45.68239" lon="6.22802">
        <ele>2257.159</ele>
        <time>2020-09-15 14:32:58</time>
      </trkpt>
      <trkpt lat="45.68239" lon="6.22802">
        <ele>2257.234</ele>
        <time>2020-09-15 14:33:00</time>
      </trkpt>
      <trkpt lat="45.68239" lon="6.22802">
        <ele>2257.1353</ele>
        <time>2020-09-15 14:33:01</time>
      </trkpt>
      <trkpt lat="45.68238" lon="6.22802">
        <ele>2257.2847</ele>
        <time>2020-09-15 14:33:03</time>
      </trkpt>
      <trkpt lat="45.68237" lon="6.22801">
        <ele>2257.585</ele>
        <time>2020-09-15 14:33:09</time>
      </trkpt>
      <trkpt lat="45.68237" lon="6.22801">
        <ele>2257.549</ele>
        <time>2020-09-15 14:33:10</time>
      </trkpt>
      <trkpt lat="45.68237" lon="6.22801">
        <ele>2258.0205</ele>
        <time>2020-09-15 14:33:11</time>
      </trkpt>
      <trkpt lat="45.68237" lon="6.22802">
        <ele>2258.224</ele>
        <time>2020-09-15 14:33:12</time>
      </trkpt>
      <trkpt lat="45.68238" lon="6.22802">
        <ele>2259.6675</ele>
        <time>2020-09-15 14:33:14</time>
      </trkpt>
      <trkpt lat="45.68238" lon="6.22802">
        <ele>2259.8406</ele>
        <time>2020-09-15 14:33:15</time>
      </trkpt>
      <trkpt lat="45.68238" lon="6.22802">
        <ele>2259.5383</ele>
        <time>2020-09-15 14:33:17</time>
      </trkpt>
      <trkpt lat="45.68239" lon="6.22803">
        <ele>2259.5876</ele>
        <time>2020-09-15 14:33:18</time>
      </trkpt>
      <trkpt lat="45.68239" lon="6.22804">
        <ele>2260.792</ele>
        <time>2020-09-15 14:33:22</time>
      </trkpt>
      <trkpt lat="45.68239" lon="6.22805">
        <ele>2260.978</ele>
        <time>2020-09-15 14:33:24</time>
      </trkpt>
      <trkpt lat="45.68237" lon="6.22805">
        <ele>2262.5542</ele>
        <time>2020-09-15 14:33:34</time>
      </trkpt>
      <trkpt lat="45.68237" lon="6.22804">
        <ele>2260.978</ele>
        <time>2020-09-15 14:33:36</time>
      </trkpt>
      <trkpt lat="45.68237" lon="6.22804">
        <ele>2261.7568</ele>
        <time>2020-09-15 14:33:38</time>
      </trkpt>
      <trkpt lat="45.68236" lon="6.22805">
        <ele>2261.1304</ele>
        <time>2020-09-15 14:33:41</time>
      </trkpt>
      <trkpt lat="45.68236" lon="6.22805">
        <ele>2260.9832</ele>
        <time>2020-09-15 14:33:43</time>
      </trkpt>
      <trkpt lat="45.68236" lon="6.22805">
        <ele>2260.6616</ele>
        <time>2020-09-15 14:33:45</time>
      </trkpt>
      <trkpt lat="45.68235" lon="6.22805">
        <ele>2260.701</ele>
        <time>2020-09-15 14:33:47</time>
      </trkpt>
      <trkpt lat="45.68235" lon="6.22805">
        <ele>2262.055</ele>
        <time>2020-09-15 14:33:49</time>
      </trkpt>
      <trkpt lat="45.68233" lon="6.22806">
        <ele>2261.0447</ele>
        <time>2020-09-15 14:33:55</time>
      </trkpt>
      <trkpt lat="45.68231" lon="6.22806">
        <ele>2261.7012</ele>
        <time>2020-09-15 14:33:59</time>
      </trkpt>
      <trkpt lat="45.68231" lon="6.22805">
        <ele>2261.729</ele>
        <time>2020-09-15 14:34:00</time>
      </trkpt>
      <trkpt lat="45.6823" lon="6.22805">
        <ele>2260.5886</ele>
        <time>2020-09-15 14:34:01</time>
      </trkpt>
      <trkpt lat="45.6823" lon="6.22805">
        <ele>2261.7585</ele>
        <time>2020-09-15 14:34:07</time>
      </trkpt>
      <trkpt lat="45.68226" lon="6.22808">
        <ele>2261.5244</ele>
        <time>2020-09-15 14:34:21</time>
      </trkpt>
      <trkpt lat="45.68226" lon="6.22808">
        <ele>2261.905</ele>
        <time>2020-09-15 14:34:23</time>
      </trkpt>
      <trkpt lat="45.68226" lon="6.22808">
        <ele>2262.0173</ele>
        <time>2020-09-15 14:34:24</time>
      </trkpt>
      <trkpt lat="45.68225" lon="6.22807">
        <ele>2262.7612</ele>
        <time>2020-09-15 14:34:28</time>
      </trkpt>
      <trkpt lat="45.68225" lon="6.22807">
        <ele>2263.7527</ele>
        <time>2020-09-15 14:34:33</time>
      </trkpt>
      <trkpt lat="45.68224" lon="6.22808">
        <ele>2264.612</ele>
        <time>2020-09-15 14:34:37</time>
      </trkpt>
      <trkpt lat="45.68224" lon="6.22808">
        <ele>2264.477</ele>
        <time>2020-09-15 14:34:39</time>
      </trkpt>
      <trkpt lat="45.68223" lon="6.22807">
        <ele>2264.9885</ele>
        <time>2020-09-15 14:34:44</time>
      </trkpt>
      <trkpt lat="45.68223" lon="6.22807">
        <ele>2264.8733</ele>
        <time>2020-09-15 14:34:49</time>
      </trkpt>
      <trkpt lat="45.68222" lon="6.22807">
        <ele>2264.8171</ele>
        <time>2020-09-15 14:34:51</time>
      </trkpt>
      <trkpt lat="45.68221" lon="6.22806">
        <ele>2264.7954</ele>
        <time>2020-09-15 14:34:55</time>
      </trkpt>
      <trkpt lat="45.6822" lon="6.22806">
        <ele>2264.8733</ele>
        <time>2020-09-15 14:35:01</time>
      </trkpt>
      <trkpt lat="45.6822" lon="6.22806">
        <ele>2265.6558</ele>
        <time>2020-09-15 14:35:02</time>
      </trkpt>
      <trkpt lat="45.68215" lon="6.22807">
        <ele>2264.3699</ele>
        <time>2020-09-15 14:35:16</time>
      </trkpt>
      <trkpt lat="45.68215" lon="6.22808">
        <ele>2264.4065</ele>
        <time>2020-09-15 14:35:23</time>
      </trkpt>
      <trkpt lat="45.68214" lon="6.22808">
        <ele>2264.6082</ele>
        <time>2020-09-15 14:35:26</time>
      </trkpt>
      <trkpt lat="45.68214" lon="6.22808">
        <ele>2264.8145</ele>
        <time>2020-09-15 14:35:27</time>
      </trkpt>
      <trkpt lat="45.68214" lon="6.22808">
        <ele>2264.3699</ele>
        <time>2020-09-15 14:35:28</time>
      </trkpt>
      <trkpt lat="45.68213" lon="6.22807">
        <ele>2265.151</ele>
        <time>2020-09-15 14:35:30</time>
      </trkpt>
      <trkpt lat="45.68213" lon="6.22807">
        <ele>2265.7336</ele>
        <time>2020-09-15 14:35:34</time>
      </trkpt>
      <trkpt lat="45.68212" lon="6.22807">
        <ele>2266.278</ele>
        <time>2020-09-15 14:35:37</time>
      </trkpt>
      <trkpt lat="45.68212" lon="6.22807">
        <ele>2266.508</ele>
        <time>2020-09-15 14:35:39</time>
      </trkpt>
      <trkpt lat="45.68212" lon="6.22807">
        <ele>2266.593</ele>
        <time>2020-09-15 14:35:44</time>
      </trkpt>
      <trkpt lat="45.68212" lon="6.22807">
        <ele>2266.4207</ele>
        <time>2020-09-15 14:35:45</time>
      </trkpt>
      <trkpt lat="45.68211" lon="6.22807">
        <ele>2265.356</ele>
        <time>2020-09-15 14:35:53</time>
      </trkpt>
      <trkpt lat="45.6821" lon="6.22807">
        <ele>2265.1428</ele>
        <time>2020-09-15 14:35:54</time>
      </trkpt>
      <trkpt lat="45.6821" lon="6.22807">
        <ele>2266.0361</ele>
        <time>2020-09-15 14:35:57</time>
      </trkpt>
      <trkpt lat="45.6821" lon="6.22807">
        <ele>2265.9404</ele>
        <time>2020-09-15 14:35:58</time>
      </trkpt>
      <trkpt lat="45.68209" lon="6.22807">
        <ele>2265.1765</ele>
        <time>2020-09-15 14:36:00</time>
      </trkpt>
      <trkpt lat="45.68209" lon="6.22807">
        <ele>2265.3552</ele>
        <time>2020-09-15 14:36:01</time>
      </trkpt>
      <trkpt lat="45.68209" lon="6.22807">
        <ele>2264.6877</ele>
        <time>2020-09-15 14:36:06</time>
      </trkpt>
      <trkpt lat="45.68208" lon="6.22807">
        <ele>2265.0076</ele>
        <time>2020-09-15 14:36:08</time>
      </trkpt>
      <trkpt lat="45.68208" lon="6.22807">
        <ele>2266.0361</ele>
        <time>2020-09-15 14:36:09</time>
      </trkpt>
      <trkpt lat="45.68208" lon="6.22807">
        <ele>2264.448</ele>
        <time>2020-09-15 14:36:10</time>
      </trkpt>
      <trkpt lat="45.68207" lon="6.22807">
        <ele>2265.6272</ele>
        <time>2020-09-15 14:36:25</time>
      </trkpt>
      <trkpt lat="45.68206" lon="6.22806">
        <ele>2265.8284</ele>
        <time>2020-09-15 14:36:28</time>
      </trkpt>
      <trkpt lat="45.68206" lon="6.22807">
        <ele>2265.6562</ele>
        <time>2020-09-15 14:36:29</time>
      </trkpt>
      <trkpt lat="45.68204" lon="6.22807">
        <ele>2266.7324</ele>
        <time>2020-09-15 14:36:38</time>
      </trkpt>
      <trkpt lat="45.68204" lon="6.22807">
        <ele>2266.7004</ele>
        <time>2020-09-15 14:36:39</time>
      </trkpt>
      <trkpt lat="45.68204" lon="6.22807">
        <ele>2266.759</ele>
        <time>2020-09-15 14:36:40</time>
      </trkpt>
      <trkpt lat="45.68202" lon="6.22806">
        <ele>2267.69</ele>
        <time>2020-09-15 14:36:46</time>
      </trkpt>
      <trkpt lat="45.68201" lon="6.22806">
        <ele>2266.7324</ele>
        <time>2020-09-15 14:36:47</time>
      </trkpt>
      <trkpt lat="45.68201" lon="6.22805">
        <ele>2267.8147</ele>
        <time>2020-09-15 14:36:48</time>
      </trkpt>
      <trkpt lat="45.68201" lon="6.22805">
        <ele>2269.4553</ele>
        <time>2020-09-15 14:37:10</time>
      </trkpt>
      <trkpt lat="45.68198" lon="6.22805">
        <ele>2269.2532</ele>
        <time>2020-09-15 14:37:17</time>
      </trkpt>
      <trkpt lat="45.68198" lon="6.22805">
        <ele>2269.0715</ele>
        <time>2020-09-15 14:37:18</time>
      </trkpt>
      <trkpt lat="45.68196" lon="6.22804">
        <ele>2268.5332</ele>
        <time>2020-09-15 14:37:22</time>
      </trkpt>
      <trkpt lat="45.68195" lon="6.22804">
        <ele>2267.2646</ele>
        <time>2020-09-15 14:37:27</time>
      </trkpt>
      <trkpt lat="45.68195" lon="6.22804">
        <ele>2267.3398</ele>
        <time>2020-09-15 14:37:28</time>
      </trkpt>
      <trkpt lat="45.68195" lon="6.22804">
        <ele>2267.4749</ele>
        <time>2020-09-15 14:37:29</time>
      </trkpt>
      <trkpt lat="45.68195" lon="6.22804">
        <ele>2267.5793</ele>
        <time>2020-09-15 14:37:31</time>
      </trkpt>
      <trkpt lat="45.68194" lon="6.22804">
        <ele>2267.6113</ele>
        <time>2020-09-15 14:37:32</time>
      </trkpt>
      <trkpt lat="45.68194" lon="6.22804">
        <ele>2267.719</ele>
        <time>2020-09-15 14:37:35</time>
      </trkpt>
      <trkpt lat="45.68193" lon="6.22804">
        <ele>2268.2935</ele>
        <time>2020-09-15 14:37:37</time>
      </trkpt>
      <trkpt lat="45.68192" lon="6.22805">
        <ele>2269.187</ele>
        <time>2020-09-15 14:37:41</time>
      </trkpt>
      <trkpt lat="45.68192" lon="6.22806">
        <ele>2269.4197</ele>
        <time>2020-09-15 14:37:43</time>
      </trkpt>
      <trkpt lat="45.68192" lon="6.22806">
        <ele>2269.6243</ele>
        <time>2020-09-15 14:37:44</time>
      </trkpt>
      <trkpt lat="45.68192" lon="6.22806">
        <ele>2269.4546</ele>
        <time>2020-09-15 14:37:46</time>
      </trkpt>
      <trkpt lat="45.68192" lon="6.22806">
        <ele>2270.0742</ele>
        <time>2020-09-15 14:37:49</time>
      </trkpt>
      <trkpt lat="45.68192" lon="6.22805">
        <ele>2269.896</ele>
        <time>2020-09-15 14:37:50</time>
      </trkpt>
      <trkpt lat="45.68192" lon="6.22806">
        <ele>2268.2798</ele>
        <time>2020-09-15 14:37:52</time>
      </trkpt>
      <trkpt lat="45.68192" lon="6.22805">
        <ele>2270.2773</ele>
        <time>2020-09-15 14:38:03</time>
      </trkpt>
      <trkpt lat="45.68191" lon="6.22804">
        <ele>2270.1235</ele>
        <time>2020-09-15 14:38:06</time>
      </trkpt>
      <trkpt lat="45.68191" lon="6.22804">
        <ele>2269.1523</ele>
        <time>2020-09-15 14:38:09</time>
      </trkpt>
      <trkpt lat="45.6819" lon="6.22804">
        <ele>2268.6094</ele>
        <time>2020-09-15 14:38:11</time>
      </trkpt>
      <trkpt lat="45.6819" lon="6.22805">
        <ele>2267.6807</ele>
        <time>2020-09-15 14:38:17</time>
      </trkpt>
      <trkpt lat="45.68189" lon="6.22805">
        <ele>2267.6846</ele>
        <time>2020-09-15 14:38:22</time>
      </trkpt>
      <trkpt lat="45.68188" lon="6.22805">
        <ele>2267.2827</ele>
        <time>2020-09-15 14:38:29</time>
      </trkpt>
      <trkpt lat="45.68188" lon="6.22805">
        <ele>2266.8306</ele>
        <time>2020-09-15 14:38:31</time>
      </trkpt>
      <trkpt lat="45.68188" lon="6.22805">
        <ele>2267.2573</ele>
        <time>2020-09-15 14:38:32</time>
      </trkpt>
      <trkpt lat="45.68188" lon="6.22805">
        <ele>2266.3945</ele>
        <time>2020-09-15 14:38:34</time>
      </trkpt>
      <trkpt lat="45.68187" lon="6.22805">
        <ele>2266.4001</ele>
        <time>2020-09-15 14:38:40</time>
      </trkpt>
      <trkpt lat="45.68187" lon="6.22805">
        <ele>2266.4307</ele>
        <time>2020-09-15 14:38:41</time>
      </trkpt>
      <trkpt lat="45.68187" lon="6.22805">
        <ele>2266.807</ele>
        <time>2020-09-15 14:38:42</time>
      </trkpt>
      <trkpt lat="45.68186" lon="6.22806">
        <ele>2266.1858</ele>
        <time>2020-09-15 14:38:45</time>
      </trkpt>
      <trkpt lat="45.68186" lon="6.22806">
        <ele>2266.3945</ele>
        <time>2020-09-15 14:38:46</time>
      </trkpt>
      <trkpt lat="45.68185" lon="6.22806">
        <ele>2266.5195</ele>
        <time>2020-09-15 14:38:49</time>
      </trkpt>
      <trkpt lat="45.68185" lon="6.22807">
        <ele>2266.9731</ele>
        <time>2020-09-15 14:38:52</time>
      </trkpt>
      <trkpt lat="45.68182" lon="6.22807">
        <ele>2267.6313</ele>
        <time>2020-09-15 14:38:59</time>
      </trkpt>
      <trkpt lat="45.68181" lon="6.22807">
        <ele>2267.8628</ele>
        <time>2020-09-15 14:39:05</time>
      </trkpt>
      <trkpt lat="45.68179" lon="6.22808">
        <ele>2268.0151</ele>
        <time>2020-09-15 14:39:12</time>
      </trkpt>
      <trkpt lat="45.68179" lon="6.22808">
        <ele>2267.7314</ele>
        <time>2020-09-15 14:39:14</time>
      </trkpt>
      <trkpt lat="45.68178" lon="6.22807">
        <ele>2269.0664</ele>
        <time>2020-09-15 14:39:16</time>
      </trkpt>
      <trkpt lat="45.68178" lon="6.22807">
        <ele>2269.36</ele>
        <time>2020-09-15 14:39:17</time>
      </trkpt>
      <trkpt lat="45.68176" lon="6.22809">
        <ele>2269.2114</ele>
        <time>2020-09-15 14:39:23</time>
      </trkpt>
      <trkpt lat="45.68176" lon="6.22809">
        <ele>2269.4265</ele>
        <time>2020-09-15 14:39:24</time>
      </trkpt>
      <trkpt lat="45.68176" lon="6.22809">
        <ele>2269.565</ele>
        <time>2020-09-15 14:39:25</time>
      </trkpt>
      <trkpt lat="45.68176" lon="6.22809">
        <ele>2269.0757</ele>
        <time>2020-09-15 14:39:26</time>
      </trkpt>
      <trkpt lat="45.68176" lon="6.2281">
        <ele>2269.1267</ele>
        <time>2020-09-15 14:39:28</time>
      </trkpt>
      <trkpt lat="45.68176" lon="6.2281">
        <ele>2268.912</ele>
        <time>2020-09-15 14:39:30</time>
      </trkpt>
      <trkpt lat="45.68176" lon="6.22811">
        <ele>2268.448</ele>
        <time>2020-09-15 14:39:32</time>
      </trkpt>
      <trkpt lat="45.68176" lon="6.22811">
        <ele>2268.3945</ele>
        <time>2020-09-15 14:39:33</time>
      </trkpt>
      <trkpt lat="45.68175" lon="6.22811">
        <ele>2269.2666</ele>
        <time>2020-09-15 14:39:37</time>
      </trkpt>
      <trkpt lat="45.68174" lon="6.22811">
        <ele>2269.5703</ele>
        <time>2020-09-15 14:39:39</time>
      </trkpt>
      <trkpt lat="45.68174" lon="6.22811">
        <ele>2269.1267</ele>
        <time>2020-09-15 14:39:40</time>
      </trkpt>
      <trkpt lat="45.68174" lon="6.22811">
        <ele>2269.9722</ele>
        <time>2020-09-15 14:39:43</time>
      </trkpt>
      <trkpt lat="45.68173" lon="6.2281">
        <ele>2270.446</ele>
        <time>2020-09-15 14:39:46</time>
      </trkpt>
      <trkpt lat="45.68173" lon="6.2281">
        <ele>2271.2378</ele>
        <time>2020-09-15 14:39:52</time>
      </trkpt>
      <trkpt lat="45.68172" lon="6.2281">
        <ele>2272.2798</ele>
        <time>2020-09-15 14:39:57</time>
      </trkpt>
      <trkpt lat="45.68171" lon="6.22809">
        <ele>2273.4875</ele>
        <time>2020-09-15 14:40:03</time>
      </trkpt>
      <trkpt lat="45.68171" lon="6.22809">
        <ele>2273.351</ele>
        <time>2020-09-15 14:40:04</time>
      </trkpt>
      <trkpt lat="45.68171" lon="6.22811">
        <ele>2272.0793</ele>
        <time>2020-09-15 14:40:07</time>
      </trkpt>
      <trkpt lat="45.68172" lon="6.22811">
        <ele>2272.9985</ele>
        <time>2020-09-15 14:40:09</time>
      </trkpt>
      <trkpt lat="45.68172" lon="6.22811">
        <ele>2272.7793</ele>
        <time>2020-09-15 14:40:13</time>
      </trkpt>
      <trkpt lat="45.68171" lon="6.22809">
        <ele>2272.7966</ele>
        <time>2020-09-15 14:40:16</time>
      </trkpt>
      <trkpt lat="45.6817" lon="6.22809">
        <ele>2273.1633</ele>
        <time>2020-09-15 14:40:33</time>
      </trkpt>
      <trkpt lat="45.6817" lon="6.22809">
        <ele>2272.57</ele>
        <time>2020-09-15 14:40:35</time>
      </trkpt>
      <trkpt lat="45.68171" lon="6.22809">
        <ele>2271.5771</ele>
        <time>2020-09-15 14:40:43</time>
      </trkpt>
      <trkpt lat="45.68171" lon="6.22809">
        <ele>2270.4768</ele>
        <time>2020-09-15 14:40:46</time>
      </trkpt>
      <trkpt lat="45.68169" lon="6.22808">
        <ele>2271.741</ele>
        <time>2020-09-15 15:02:46</time>
      </trkpt>
      <trkpt lat="45.6817" lon="6.22809">
        <ele>2269.3713</ele>
        <time>2020-09-15 15:04:07</time>
      </trkpt>
      <trkpt lat="45.6817" lon="6.22809">
        <ele>2268.7559</ele>
        <time>2020-09-15 15:04:09</time>
      </trkpt>
      <trkpt lat="45.68171" lon="6.2281">
        <ele>2267.8103</ele>
        <time>2020-09-15 15:04:11</time>
      </trkpt>
      <trkpt lat="45.68171" lon="6.22809">
        <ele>2267.468</ele>
        <time>2020-09-15 15:04:13</time>
      </trkpt>
      <trkpt lat="45.68171" lon="6.22809">
        <ele>2266.8022</ele>
        <time>2020-09-15 15:04:14</time>
      </trkpt>
      <trkpt lat="45.68171" lon="6.22809">
        <ele>2266.4885</ele>
        <time>2020-09-15 15:04:17</time>
      </trkpt>
      <trkpt lat="45.68171" lon="6.22809">
        <ele>2266.693</ele>
        <time>2020-09-15 15:04:18</time>
      </trkpt>
      <trkpt lat="45.68169" lon="6.22809">
        <ele>2267.9739</ele>
        <time>2020-09-15 15:05:02</time>
      </trkpt>
      <trkpt lat="45.6817" lon="6.22809">
        <ele>2268.4602</ele>
        <time>2020-09-15 15:05:24</time>
      </trkpt>
      <trkpt lat="45.6817" lon="6.22809">
        <ele>2268.5662</ele>
        <time>2020-09-15 15:05:25</time>
      </trkpt>
      <trkpt lat="45.68169" lon="6.22809">
        <ele>2267.9143</ele>
        <time>2020-09-15 15:06:08</time>
      </trkpt>
      <trkpt lat="45.68169" lon="6.22808">
        <ele>2267.913</ele>
        <time>2020-09-15 15:06:17</time>
      </trkpt>
      <trkpt lat="45.68169" lon="6.22808">
        <ele>2267.877</ele>
        <time>2020-09-15 15:06:18</time>
      </trkpt>
      <trkpt lat="45.68169" lon="6.22807">
        <ele>2267.77</ele>
        <time>2020-09-15 15:06:51</time>
      </trkpt>
      <trkpt lat="45.68169" lon="6.22807">
        <ele>2267.6675</ele>
        <time>2020-09-15 15:06:52</time>
      </trkpt>
      <trkpt lat="45.68169" lon="6.22807">
        <ele>2267.8994</ele>
        <time>2020-09-15 15:06:53</time>
      </trkpt>
      <trkpt lat="45.68169" lon="6.22807">
        <ele>2267.9053</ele>
        <time>2020-09-15 15:06:54</time>
      </trkpt>
      <trkpt lat="45.68169" lon="6.22807">
        <ele>2268.0095</ele>
        <time>2020-09-15 15:06:58</time>
      </trkpt>
      <trkpt lat="45.68169" lon="6.22807">
        <ele>2267.7737</ele>
        <time>2020-09-15 15:07:00</time>
      </trkpt>
      <trkpt lat="45.6817" lon="6.22808">
        <ele>2268.4683</ele>
        <time>2020-09-15 15:07:14</time>
      </trkpt>
      <trkpt lat="45.6817" lon="6.22808">
        <ele>2268.713</ele>
        <time>2020-09-15 15:07:15</time>
      </trkpt>
      <trkpt lat="45.6817" lon="6.22808">
        <ele>2269.049</ele>
        <time>2020-09-15 15:07:53</time>
      </trkpt>
      <trkpt lat="45.6817" lon="6.22808">
        <ele>2269.0383</ele>
        <time>2020-09-15 15:07:54</time>
      </trkpt>
      <trkpt lat="45.6817" lon="6.22808">
        <ele>2269.1362</ele>
        <time>2020-09-15 15:07:56</time>
      </trkpt>
      <trkpt lat="45.6817" lon="6.22808">
        <ele>2268.995</ele>
        <time>2020-09-15 15:07:58</time>
      </trkpt>
      <trkpt lat="45.6817" lon="6.22809">
        <ele>2269.3335</ele>
        <time>2020-09-15 15:08:36</time>
      </trkpt>
      <trkpt lat="45.6817" lon="6.22809">
        <ele>2269.4429</ele>
        <time>2020-09-15 15:08:37</time>
      </trkpt>
      <trkpt lat="45.68172" lon="6.22808">
        <ele>2269.8813</ele>
        <time>2020-09-15 15:09:09</time>
      </trkpt>
      <trkpt lat="45.68171" lon="6.22808">
        <ele>2269.7092</ele>
        <time>2020-09-15 15:09:11</time>
      </trkpt>
      <trkpt lat="45.6817" lon="6.22808">
        <ele>2269.788</ele>
        <time>2020-09-15 15:09:14</time>
      </trkpt>
      <trkpt lat="45.6817" lon="6.22808">
        <ele>2269.8296</ele>
        <time>2020-09-15 15:09:16</time>
      </trkpt>
      <trkpt lat="45.68169" lon="6.22808">
        <ele>2269.4932</ele>
        <time>2020-09-15 15:09:17</time>
      </trkpt>
      <trkpt lat="45.68169" lon="6.22809">
        <ele>2269.7651</ele>
        <time>2020-09-15 15:09:19</time>
      </trkpt>
      <trkpt lat="45.68167" lon="6.2281">
        <ele>2268.7954</ele>
        <time>2020-09-15 15:09:22</time>
      </trkpt>
      <trkpt lat="45.68166" lon="6.22809">
        <ele>2268.9434</ele>
        <time>2020-09-15 15:09:26</time>
      </trkpt>
      <trkpt lat="45.68165" lon="6.2281">
        <ele>2268.6775</ele>
        <time>2020-09-15 15:09:27</time>
      </trkpt>
      <trkpt lat="45.68161" lon="6.22808">
        <ele>2268.797</ele>
        <time>2020-09-15 15:09:35</time>
      </trkpt>
      <trkpt lat="45.68161" lon="6.22807">
        <ele>2267.32</ele>
        <time>2020-09-15 15:09:39</time>
      </trkpt>
      <trkpt lat="45.6816" lon="6.22807">
        <ele>2267.5132</ele>
        <time>2020-09-15 15:09:40</time>
      </trkpt>
      <trkpt lat="45.6816" lon="6.22807">
        <ele>2267.9355</ele>
        <time>2020-09-15 15:09:43</time>
      </trkpt>
      <trkpt lat="45.6816" lon="6.22807">
        <ele>2268.2998</ele>
        <time>2020-09-15 15:09:48</time>
      </trkpt>
      <trkpt lat="45.68159" lon="6.22807">
        <ele>2268.501</ele>
        <time>2020-09-15 15:09:50</time>
      </trkpt>
      <trkpt lat="45.68159" lon="6.22807">
        <ele>2268.0942</ele>
        <time>2020-09-15 15:09:52</time>
      </trkpt>
      <trkpt lat="45.68159" lon="6.22807">
        <ele>2267.8604</ele>
        <time>2020-09-15 15:09:55</time>
      </trkpt>
      <trkpt lat="45.68158" lon="6.22807">
        <ele>2268.0796</ele>
        <time>2020-09-15 15:09:57</time>
      </trkpt>
      <trkpt lat="45.68157" lon="6.22808">
        <ele>2266.9702</ele>
        <time>2020-09-15 15:10:04</time>
      </trkpt>
      <trkpt lat="45.68157" lon="6.22809">
        <ele>2266.8013</ele>
        <time>2020-09-15 15:10:07</time>
      </trkpt>
      <trkpt lat="45.68157" lon="6.2281">
        <ele>2265.8984</ele>
        <time>2020-09-15 15:10:15</time>
      </trkpt>
      <trkpt lat="45.68157" lon="6.22812">
        <ele>2265.3916</ele>
        <time>2020-09-15 15:10:19</time>
      </trkpt>
      <trkpt lat="45.68156" lon="6.22812">
        <ele>2265.209</ele>
        <time>2020-09-15 15:10:22</time>
      </trkpt>
      <trkpt lat="45.68156" lon="6.22813">
        <ele>2264.4976</ele>
        <time>2020-09-15 15:10:25</time>
      </trkpt>
      <trkpt lat="45.68156" lon="6.22813">
        <ele>2264.569</ele>
        <time>2020-09-15 15:10:26</time>
      </trkpt>
      <trkpt lat="45.68155" lon="6.22813">
        <ele>2264.809</ele>
        <time>2020-09-15 15:10:34</time>
      </trkpt>
      <trkpt lat="45.68153" lon="6.22813">
        <ele>2264.4958</ele>
        <time>2020-09-15 15:10:40</time>
      </trkpt>
      <trkpt lat="45.6815" lon="6.22812">
        <ele>2264.5088</ele>
        <time>2020-09-15 15:10:47</time>
      </trkpt>
      <trkpt lat="45.6815" lon="6.22811">
        <ele>2264.7278</ele>
        <time>2020-09-15 15:10:57</time>
      </trkpt>
      <trkpt lat="45.6815" lon="6.22811">
        <ele>2264.84</ele>
        <time>2020-09-15 15:10:59</time>
      </trkpt>
      <trkpt lat="45.68149" lon="6.22811">
        <ele>2264.7722</ele>
        <time>2020-09-15 15:11:00</time>
      </trkpt>
      <trkpt lat="45.68149" lon="6.22811">
        <ele>2264.8037</ele>
        <time>2020-09-15 15:11:01</time>
      </trkpt>
      <trkpt lat="45.68149" lon="6.22811">
        <ele>2264.904</ele>
        <time>2020-09-15 15:11:09</time>
      </trkpt>
      <trkpt lat="45.68149" lon="6.22811">
        <ele>2265.0115</ele>
        <time>2020-09-15 15:11:10</time>
      </trkpt>
      <trkpt lat="45.68149" lon="6.22811">
        <ele>2265.484</ele>
        <time>2020-09-15 15:11:14</time>
      </trkpt>
      <trkpt lat="45.68149" lon="6.22811">
        <ele>2265.8345</ele>
        <time>2020-09-15 15:11:17</time>
      </trkpt>
      <trkpt lat="45.68148" lon="6.22811">
        <ele>2264.732</ele>
        <time>2020-09-15 15:11:20</time>
      </trkpt>
      <trkpt lat="45.68147" lon="6.2281">
        <ele>2264.3865</ele>
        <time>2020-09-15 15:11:32</time>
      </trkpt>
      <trkpt lat="45.68147" lon="6.2281">
        <ele>2265.734</ele>
        <time>2020-09-15 15:11:34</time>
      </trkpt>
      <trkpt lat="45.68147" lon="6.22811">
        <ele>2264.3171</ele>
        <time>2020-09-15 15:11:36</time>
      </trkpt>
      <trkpt lat="45.68146" lon="6.2281">
        <ele>2262.636</ele>
        <time>2020-09-15 15:11:43</time>
      </trkpt>
      <trkpt lat="45.68146" lon="6.2281">
        <ele>2262.2996</ele>
        <time>2020-09-15 15:11:45</time>
      </trkpt>
      <trkpt lat="45.68146" lon="6.2281">
        <ele>2262.5874</ele>
        <time>2020-09-15 15:11:48</time>
      </trkpt>
      <trkpt lat="45.68146" lon="6.2281">
        <ele>2264.3171</ele>
        <time>2020-09-15 15:11:49</time>
      </trkpt>
      <trkpt lat="45.68145" lon="6.22811">
        <ele>2262.9746</ele>
        <time>2020-09-15 15:11:55</time>
      </trkpt>
      <trkpt lat="45.68145" lon="6.2281">
        <ele>2263.4338</ele>
        <time>2020-09-15 15:11:56</time>
      </trkpt>
      <trkpt lat="45.6814" lon="6.22809">
        <ele>2262.0962</ele>
        <time>2020-09-15 15:12:11</time>
      </trkpt>
      <trkpt lat="45.68139" lon="6.22809">
        <ele>2262.458</ele>
        <time>2020-09-15 15:12:15</time>
      </trkpt>
      <trkpt lat="45.68138" lon="6.22809">
        <ele>2262.1885</ele>
        <time>2020-09-15 15:12:17</time>
      </trkpt>
      <trkpt lat="45.68135" lon="6.22807">
        <ele>2261.7058</ele>
        <time>2020-09-15 15:12:23</time>
      </trkpt>
      <trkpt lat="45.68134" lon="6.2281">
        <ele>2257.723</ele>
        <time>2020-09-15 15:12:54</time>
      </trkpt>
      <trkpt lat="45.68131" lon="6.22811">
        <ele>2255.2883</ele>
        <time>2020-09-15 15:13:31</time>
      </trkpt>
      <trkpt lat="45.68126" lon="6.22818">
        <ele>2251.595</ele>
        <time>2020-09-15 15:14:10</time>
      </trkpt>
      <trkpt lat="45.68124" lon="6.2282">
        <ele>2250.1333</ele>
        <time>2020-09-15 15:14:46</time>
      </trkpt>
      <trkpt lat="45.68124" lon="6.2282">
        <ele>2249.6218</ele>
        <time>2020-09-15 15:14:48</time>
      </trkpt>
      <trkpt lat="45.68124" lon="6.22819">
        <ele>2249.7402</ele>
        <time>2020-09-15 15:14:49</time>
      </trkpt>
      <trkpt lat="45.68124" lon="6.22819">
        <ele>2250.1729</ele>
        <time>2020-09-15 15:14:51</time>
      </trkpt>
      <trkpt lat="45.68124" lon="6.22818">
        <ele>2249.72</ele>
        <time>2020-09-15 15:14:53</time>
      </trkpt>
      <trkpt lat="45.68124" lon="6.22817">
        <ele>2249.4524</ele>
        <time>2020-09-15 15:14:56</time>
      </trkpt>
      <trkpt lat="45.68124" lon="6.22817">
        <ele>2249.1333</ele>
        <time>2020-09-15 15:15:13</time>
      </trkpt>
      <trkpt lat="45.68123" lon="6.22817">
        <ele>2249.3545</ele>
        <time>2020-09-15 15:15:14</time>
      </trkpt>
      <trkpt lat="45.68123" lon="6.22817">
        <ele>2249.056</ele>
        <time>2020-09-15 15:15:16</time>
      </trkpt>
      <trkpt lat="45.68123" lon="6.22817">
        <ele>2248.787</ele>
        <time>2020-09-15 15:15:17</time>
      </trkpt>
      <trkpt lat="45.68123" lon="6.22818">
        <ele>2248.4343</ele>
        <time>2020-09-15 15:15:18</time>
      </trkpt>
      <trkpt lat="45.68123" lon="6.22818">
        <ele>2248.4028</ele>
        <time>2020-09-15 15:15:19</time>
      </trkpt>
      <trkpt lat="45.68123" lon="6.22817">
        <ele>2247.9167</ele>
        <time>2020-09-15 15:15:23</time>
      </trkpt>
      <trkpt lat="45.68123" lon="6.22818">
        <ele>2246.8965</ele>
        <time>2020-09-15 15:15:26</time>
      </trkpt>
      <trkpt lat="45.68123" lon="6.22818">
        <ele>2246.501</ele>
        <time>2020-09-15 15:15:27</time>
      </trkpt>
      <trkpt lat="45.68123" lon="6.22818">
        <ele>2245.5215</ele>
        <time>2020-09-15 15:15:30</time>
      </trkpt>
      <trkpt lat="45.68123" lon="6.22818">
        <ele>2244.8872</ele>
        <time>2020-09-15 15:15:34</time>
      </trkpt>
      <trkpt lat="45.68123" lon="6.22818">
        <ele>2247.9167</ele>
        <time>2020-09-15 15:15:35</time>
      </trkpt>
      <trkpt lat="45.68123" lon="6.22818">
        <ele>2244.1807</ele>
        <time>2020-09-15 15:15:38</time>
      </trkpt>
      <trkpt lat="45.68123" lon="6.22817">
        <ele>2242.6602</ele>
        <time>2020-09-15 15:15:41</time>
      </trkpt>
      <trkpt lat="45.68124" lon="6.22818">
        <ele>2242.2305</ele>
        <time>2020-09-15 15:15:42</time>
      </trkpt>
      <trkpt lat="45.68124" lon="6.22818">
        <ele>2242.22</ele>
        <time>2020-09-15 15:15:43</time>
      </trkpt>
      <trkpt lat="45.68123" lon="6.22818">
        <ele>2242.432</ele>
        <time>2020-09-15 15:15:48</time>
      </trkpt>
      <trkpt lat="45.68124" lon="6.22818">
        <ele>2242.7437</ele>
        <time>2020-09-15 15:15:49</time>
      </trkpt>
      <trkpt lat="45.68123" lon="6.22818">
        <ele>2242.7554</ele>
        <time>2020-09-15 15:15:50</time>
      </trkpt>
      <trkpt lat="45.68123" lon="6.22818">
        <ele>2243.0442</ele>
        <time>2020-09-15 15:15:51</time>
      </trkpt>
      <trkpt lat="45.68123" lon="6.22819">
        <ele>2243.713</ele>
        <time>2020-09-15 15:15:55</time>
      </trkpt>
      <trkpt lat="45.68123" lon="6.22819">
        <ele>2244.3079</ele>
        <time>2020-09-15 15:15:58</time>
      </trkpt>
      <trkpt lat="45.68123" lon="6.22819">
        <ele>2243.9858</ele>
        <time>2020-09-15 15:15:59</time>
      </trkpt>
      <trkpt lat="45.68123" lon="6.2282">
        <ele>2243.9656</ele>
        <time>2020-09-15 15:16:01</time>
      </trkpt>
      <trkpt lat="45.68123" lon="6.2282">
        <ele>2244.652</ele>
        <time>2020-09-15 15:16:08</time>
      </trkpt>
      <trkpt lat="45.68123" lon="6.22821">
        <ele>2244.2566</ele>
        <time>2020-09-15 15:16:10</time>
      </trkpt>
      <trkpt lat="45.68123" lon="6.2282">
        <ele>2244.6719</ele>
        <time>2020-09-15 15:16:17</time>
      </trkpt>
      <trkpt lat="45.68122" lon="6.22821">
        <ele>2243.6677</ele>
        <time>2020-09-15 15:16:20</time>
      </trkpt>
      <trkpt lat="45.68122" lon="6.22821">
        <ele>2243.0112</ele>
        <time>2020-09-15 15:16:23</time>
      </trkpt>
      <trkpt lat="45.68122" lon="6.2282">
        <ele>2243.1418</ele>
        <time>2020-09-15 15:16:25</time>
      </trkpt>
      <trkpt lat="45.68122" lon="6.2282">
        <ele>2242.7234</ele>
        <time>2020-09-15 15:16:33</time>
      </trkpt>
      <trkpt lat="45.68121" lon="6.22821">
        <ele>2242.1204</ele>
        <time>2020-09-15 15:16:37</time>
      </trkpt>
      <trkpt lat="45.68121" lon="6.22821">
        <ele>2242.7383</ele>
        <time>2020-09-15 15:16:45</time>
      </trkpt>
      <trkpt lat="45.6812" lon="6.2282">
        <ele>2243.3757</ele>
        <time>2020-09-15 15:16:48</time>
      </trkpt>
      <trkpt lat="45.68119" lon="6.2282">
        <ele>2242.6272</ele>
        <time>2020-09-15 15:16:51</time>
      </trkpt>
      <trkpt lat="45.68119" lon="6.2282">
        <ele>2241.8196</ele>
        <time>2020-09-15 15:16:52</time>
      </trkpt>
      <trkpt lat="45.68118" lon="6.22821">
        <ele>2241.6516</ele>
        <time>2020-09-15 15:16:54</time>
      </trkpt>
      <trkpt lat="45.68118" lon="6.22821">
        <ele>2241.3691</ele>
        <time>2020-09-15 15:16:56</time>
      </trkpt>
      <trkpt lat="45.68118" lon="6.22821">
        <ele>2240.1367</ele>
        <time>2020-09-15 15:16:57</time>
      </trkpt>
      <trkpt lat="45.6812" lon="6.22823">
        <ele>2238.2825</ele>
        <time>2020-09-15 15:17:07</time>
      </trkpt>
      <trkpt lat="45.68121" lon="6.22823">
        <ele>2238.0469</ele>
        <time>2020-09-15 15:17:08</time>
      </trkpt>
      <trkpt lat="45.68121" lon="6.22823">
        <ele>2237.0908</ele>
        <time>2020-09-15 15:17:11</time>
      </trkpt>
      <trkpt lat="45.68124" lon="6.22824">
        <ele>2234.8909</ele>
        <time>2020-09-15 15:17:19</time>
      </trkpt>
      <trkpt lat="45.68124" lon="6.22825">
        <ele>2233.8582</ele>
        <time>2020-09-15 15:17:23</time>
      </trkpt>
      <trkpt lat="45.68125" lon="6.22825">
        <ele>2234.584</ele>
        <time>2020-09-15 15:17:27</time>
      </trkpt>
      <trkpt lat="45.68125" lon="6.22826">
        <ele>2233.504</ele>
        <time>2020-09-15 15:17:28</time>
      </trkpt>
      <trkpt lat="45.68125" lon="6.22829">
        <ele>2234.2783</ele>
        <time>2020-09-15 15:17:37</time>
      </trkpt>
      <trkpt lat="45.68124" lon="6.22829">
        <ele>2233.8882</ele>
        <time>2020-09-15 15:17:40</time>
      </trkpt>
      <trkpt lat="45.68124" lon="6.22829">
        <ele>2233.3215</ele>
        <time>2020-09-15 15:17:42</time>
      </trkpt>
      <trkpt lat="45.68124" lon="6.2283">
        <ele>2233.24</ele>
        <time>2020-09-15 15:17:43</time>
      </trkpt>
      <trkpt lat="45.68123" lon="6.2283">
        <ele>2233.3586</ele>
        <time>2020-09-15 15:17:45</time>
      </trkpt>
      <trkpt lat="45.68123" lon="6.2283">
        <ele>2234.27</ele>
        <time>2020-09-15 15:17:50</time>
      </trkpt>
      <trkpt lat="45.68123" lon="6.2283">
        <ele>2233.7004</ele>
        <time>2020-09-15 15:17:51</time>
      </trkpt>
      <trkpt lat="45.6812" lon="6.22832">
        <ele>2231.6494</ele>
        <time>2020-09-15 15:18:21</time>
      </trkpt>
      <trkpt lat="45.6812" lon="6.22833">
        <ele>2231.3086</ele>
        <time>2020-09-15 15:18:22</time>
      </trkpt>
      <trkpt lat="45.68121" lon="6.22831">
        <ele>2231.7415</ele>
        <time>2020-09-15 15:18:36</time>
      </trkpt>
      <trkpt lat="45.68121" lon="6.22831">
        <ele>2231.5889</ele>
        <time>2020-09-15 15:18:37</time>
      </trkpt>
      <trkpt lat="45.68123" lon="6.2283">
        <ele>2231.8804</ele>
        <time>2020-09-15 15:18:47</time>
      </trkpt>
      <trkpt lat="45.68123" lon="6.2283">
        <ele>2231.8599</ele>
        <time>2020-09-15 15:18:48</time>
      </trkpt>
      <trkpt lat="45.68123" lon="6.22831">
        <ele>2231.4243</ele>
        <time>2020-09-15 15:18:54</time>
      </trkpt>
      <trkpt lat="45.68123" lon="6.22831">
        <ele>2231.219</ele>
        <time>2020-09-15 15:18:55</time>
      </trkpt>
      <trkpt lat="45.68123" lon="6.22831">
        <ele>2230.665</ele>
        <time>2020-09-15 15:18:56</time>
      </trkpt>
      <trkpt lat="45.68123" lon="6.22833">
        <ele>2230.3643</ele>
        <time>2020-09-15 15:18:59</time>
      </trkpt>
      <trkpt lat="45.68123" lon="6.22833">
        <ele>2230.0894</ele>
        <time>2020-09-15 15:19:00</time>
      </trkpt>
      <trkpt lat="45.68123" lon="6.22834">
        <ele>2230.0044</ele>
        <time>2020-09-15 15:19:02</time>
      </trkpt>
      <trkpt lat="45.68123" lon="6.22834">
        <ele>2230.1973</ele>
        <time>2020-09-15 15:19:03</time>
      </trkpt>
      <trkpt lat="45.68123" lon="6.22834">
        <ele>2229.9753</ele>
        <time>2020-09-15 15:19:07</time>
      </trkpt>
      <trkpt lat="45.68124" lon="6.22836">
        <ele>2228.9321</ele>
        <time>2020-09-15 15:19:11</time>
      </trkpt>
      <trkpt lat="45.68124" lon="6.22836">
        <ele>2229.5933</ele>
        <time>2020-09-15 15:19:14</time>
      </trkpt>
      <trkpt lat="45.68124" lon="6.22836">
        <ele>2229.7751</ele>
        <time>2020-09-15 15:19:16</time>
      </trkpt>
      <trkpt lat="45.68124" lon="6.22836">
        <ele>2229.5264</ele>
        <time>2020-09-15 15:19:17</time>
      </trkpt>
      <trkpt lat="45.68123" lon="6.22837">
        <ele>2229.2651</ele>
        <time>2020-09-15 15:19:19</time>
      </trkpt>
      <trkpt lat="45.68123" lon="6.22836">
        <ele>2229.0212</ele>
        <time>2020-09-15 15:19:20</time>
      </trkpt>
      <trkpt lat="45.68123" lon="6.22837">
        <ele>2229.0908</ele>
        <time>2020-09-15 15:19:21</time>
      </trkpt>
      <trkpt lat="45.68125" lon="6.22838">
        <ele>2226.165</ele>
        <time>2020-09-15 15:19:31</time>
      </trkpt>
      <trkpt lat="45.68126" lon="6.22838">
        <ele>2226.578</ele>
        <time>2020-09-15 15:19:32</time>
      </trkpt>
      <trkpt lat="45.68126" lon="6.22838">
        <ele>2226.7544</ele>
        <time>2020-09-15 15:19:34</time>
      </trkpt>
      <trkpt lat="45.68126" lon="6.22838">
        <ele>2226.0073</ele>
        <time>2020-09-15 15:19:39</time>
      </trkpt>
      <trkpt lat="45.68126" lon="6.22838">
        <ele>2226.1597</ele>
        <time>2020-09-15 15:19:40</time>
      </trkpt>
      <trkpt lat="45.68126" lon="6.22839">
        <ele>2226.1975</ele>
        <time>2020-09-15 15:19:42</time>
      </trkpt>
      <trkpt lat="45.68127" lon="6.22839">
        <ele>2225.8267</ele>
        <time>2020-09-15 15:19:43</time>
      </trkpt>
      <trkpt lat="45.68127" lon="6.22839">
        <ele>2225.7085</ele>
        <time>2020-09-15 15:19:46</time>
      </trkpt>
      <trkpt lat="45.68129" lon="6.22842">
        <ele>2224.1128</ele>
        <time>2020-09-15 15:19:53</time>
      </trkpt>
      <trkpt lat="45.68132" lon="6.22845">
        <ele>2223.841</ele>
        <time>2020-09-15 15:20:01</time>
      </trkpt>
      <trkpt lat="45.68133" lon="6.22848">
        <ele>2222.3613</ele>
        <time>2020-09-15 15:20:05</time>
      </trkpt>
      <trkpt lat="45.68134" lon="6.2285">
        <ele>2222.158</ele>
        <time>2020-09-15 15:20:08</time>
      </trkpt>
      <trkpt lat="45.68134" lon="6.2285">
        <ele>2221.9504</ele>
        <time>2020-09-15 15:20:09</time>
      </trkpt>
      <trkpt lat="45.68134" lon="6.22851">
        <ele>2222.1963</ele>
        <time>2020-09-15 15:20:11</time>
      </trkpt>
      <trkpt lat="45.68134" lon="6.22851">
        <ele>2223.049</ele>
        <time>2020-09-15 15:20:14</time>
      </trkpt>
      <trkpt lat="45.68134" lon="6.22851">
        <ele>2223.1636</ele>
        <time>2020-09-15 15:20:15</time>
      </trkpt>
      <trkpt lat="45.68134" lon="6.22851">
        <ele>2222.7097</ele>
        <time>2020-09-15 15:20:17</time>
      </trkpt>
      <trkpt lat="45.68134" lon="6.22852">
        <ele>2223.0103</ele>
        <time>2020-09-15 15:20:18</time>
      </trkpt>
      <trkpt lat="45.68135" lon="6.22852">
        <ele>2221.9917</ele>
        <time>2020-09-15 15:20:19</time>
      </trkpt>
      <trkpt lat="45.68135" lon="6.22852">
        <ele>2222.5662</ele>
        <time>2020-09-15 15:20:21</time>
      </trkpt>
      <trkpt lat="45.68136" lon="6.22852">
        <ele>2222.6482</ele>
        <time>2020-09-15 15:20:25</time>
      </trkpt>
      <trkpt lat="45.68136" lon="6.22853">
        <ele>2222.8086</ele>
        <time>2020-09-15 15:20:26</time>
      </trkpt>
      <trkpt lat="45.68136" lon="6.22854">
        <ele>2222.2537</ele>
        <time>2020-09-15 15:20:31</time>
      </trkpt>
      <trkpt lat="45.68136" lon="6.22854">
        <ele>2222.1077</ele>
        <time>2020-09-15 15:20:32</time>
      </trkpt>
      <trkpt lat="45.68136" lon="6.22855">
        <ele>2221.5623</ele>
        <time>2020-09-15 15:20:34</time>
      </trkpt>
      <trkpt lat="45.68137" lon="6.22855">
        <ele>2221.581</ele>
        <time>2020-09-15 15:20:36</time>
      </trkpt>
      <trkpt lat="45.6814" lon="6.22858">
        <ele>2218.5964</ele>
        <time>2020-09-15 15:20:42</time>
      </trkpt>
      <trkpt lat="45.68141" lon="6.2286">
        <ele>2218.1501</ele>
        <time>2020-09-15 15:20:46</time>
      </trkpt>
      <trkpt lat="45.68141" lon="6.2286">
        <ele>2217.8613</ele>
        <time>2020-09-15 15:20:53</time>
      </trkpt>
      <trkpt lat="45.68142" lon="6.22861">
        <ele>2217.6814</ele>
        <time>2020-09-15 15:20:55</time>
      </trkpt>
      <trkpt lat="45.68144" lon="6.22862">
        <ele>2217.089</ele>
        <time>2020-09-15 15:20:59</time>
      </trkpt>
      <trkpt lat="45.68144" lon="6.22863">
        <ele>2217.3857</ele>
        <time>2020-09-15 15:21:03</time>
      </trkpt>
      <trkpt lat="45.68144" lon="6.22863">
        <ele>2216.8413</ele>
        <time>2020-09-15 15:21:04</time>
      </trkpt>
      <trkpt lat="45.68145" lon="6.22864">
        <ele>2215.6587</ele>
        <time>2020-09-15 15:21:08</time>
      </trkpt>
      <trkpt lat="45.68143" lon="6.22866">
        <ele>2214.8623</ele>
        <time>2020-09-15 15:21:12</time>
      </trkpt>
      <trkpt lat="45.68137" lon="6.22868">
        <ele>2212.8735</ele>
        <time>2020-09-15 15:21:22</time>
      </trkpt>
      <trkpt lat="45.68134" lon="6.2287">
        <ele>2211.59</ele>
        <time>2020-09-15 15:21:26</time>
      </trkpt>
      <trkpt lat="45.68134" lon="6.2287">
        <ele>2211.916</ele>
        <time>2020-09-15 15:21:27</time>
      </trkpt>
      <trkpt lat="45.68133" lon="6.2287">
        <ele>2212.5842</ele>
        <time>2020-09-15 15:21:29</time>
      </trkpt>
      <trkpt lat="45.68133" lon="6.2287">
        <ele>2213.0374</ele>
        <time>2020-09-15 15:21:30</time>
      </trkpt>
      <trkpt lat="45.68132" lon="6.22871">
        <ele>2212.4412</ele>
        <time>2020-09-15 15:21:33</time>
      </trkpt>
      <trkpt lat="45.68131" lon="6.22871">
        <ele>2212.432</ele>
        <time>2020-09-15 15:21:34</time>
      </trkpt>
      <trkpt lat="45.68131" lon="6.22871">
        <ele>2212.4822</ele>
        <time>2020-09-15 15:21:36</time>
      </trkpt>
      <trkpt lat="45.6813" lon="6.22871">
        <ele>2211.9197</ele>
        <time>2020-09-15 15:21:37</time>
      </trkpt>
      <trkpt lat="45.6813" lon="6.22872">
        <ele>2212.1355</ele>
        <time>2020-09-15 15:21:38</time>
      </trkpt>
      <trkpt lat="45.6813" lon="6.22872">
        <ele>2212.36</ele>
        <time>2020-09-15 15:21:40</time>
      </trkpt>
      <trkpt lat="45.68133" lon="6.22874">
        <ele>2211.2788</ele>
        <time>2020-09-15 15:21:45</time>
      </trkpt>
      <trkpt lat="45.68134" lon="6.22874">
        <ele>2211.0745</ele>
        <time>2020-09-15 15:21:47</time>
      </trkpt>
      <trkpt lat="45.68134" lon="6.22874">
        <ele>2210.7844</ele>
        <time>2020-09-15 15:21:48</time>
      </trkpt>
      <trkpt lat="45.68134" lon="6.22874">
        <ele>2210.7678</ele>
        <time>2020-09-15 15:21:50</time>
      </trkpt>
      <trkpt lat="45.68133" lon="6.22876">
        <ele>2210.8835</ele>
        <time>2020-09-15 15:21:52</time>
      </trkpt>
      <trkpt lat="45.68133" lon="6.22876">
        <ele>2210.8606</ele>
        <time>2020-09-15 15:21:55</time>
      </trkpt>
      <trkpt lat="45.68133" lon="6.22876">
        <ele>2211.1165</ele>
        <time>2020-09-15 15:21:57</time>
      </trkpt>
      <trkpt lat="45.68134" lon="6.22876">
        <ele>2210.6338</ele>
        <time>2020-09-15 15:22:05</time>
      </trkpt>
      <trkpt lat="45.68134" lon="6.22876">
        <ele>2210.5383</ele>
        <time>2020-09-15 15:22:06</time>
      </trkpt>
      <trkpt lat="45.68135" lon="6.22877">
        <ele>2209.8118</ele>
        <time>2020-09-15 15:22:09</time>
      </trkpt>
      <trkpt lat="45.68136" lon="6.22878">
        <ele>2210.0906</ele>
        <time>2020-09-15 15:22:12</time>
      </trkpt>
      <trkpt lat="45.68135" lon="6.22879">
        <ele>2210.023</ele>
        <time>2020-09-15 15:22:13</time>
      </trkpt>
      <trkpt lat="45.68135" lon="6.2288">
        <ele>2210.3455</ele>
        <time>2020-09-15 15:22:16</time>
      </trkpt>
      <trkpt lat="45.68135" lon="6.2288">
        <ele>2209.9104</ele>
        <time>2020-09-15 15:22:20</time>
      </trkpt>
      <trkpt lat="45.68136" lon="6.2288">
        <ele>2209.1042</ele>
        <time>2020-09-15 15:22:24</time>
      </trkpt>
      <trkpt lat="45.68137" lon="6.2288">
        <ele>2208.4707</ele>
        <time>2020-09-15 15:22:26</time>
      </trkpt>
      <trkpt lat="45.68137" lon="6.22881">
        <ele>2208.1968</ele>
        <time>2020-09-15 15:22:27</time>
      </trkpt>
      <trkpt lat="45.68137" lon="6.22882">
        <ele>2206.7441</ele>
        <time>2020-09-15 15:22:29</time>
      </trkpt>
      <trkpt lat="45.68141" lon="6.22886">
        <ele>2203.8572</ele>
        <time>2020-09-15 15:22:41</time>
      </trkpt>
      <trkpt lat="45.68141" lon="6.22886">
        <ele>2203.7</ele>
        <time>2020-09-15 15:22:44</time>
      </trkpt>
      <trkpt lat="45.68142" lon="6.22886">
        <ele>2202.9292</ele>
        <time>2020-09-15 15:22:47</time>
      </trkpt>
      <trkpt lat="45.68142" lon="6.22887">
        <ele>2202.4165</ele>
        <time>2020-09-15 15:22:51</time>
      </trkpt>
      <trkpt lat="45.68142" lon="6.22887">
        <ele>2202.2456</ele>
        <time>2020-09-15 15:22:52</time>
      </trkpt>
      <trkpt lat="45.68143" lon="6.22888">
        <ele>2201.8792</ele>
        <time>2020-09-15 15:22:54</time>
      </trkpt>
      <trkpt lat="45.68143" lon="6.22888">
        <ele>2201.5166</ele>
        <time>2020-09-15 15:22:58</time>
      </trkpt>
      <trkpt lat="45.68143" lon="6.22889">
        <ele>2201.365</ele>
        <time>2020-09-15 15:23:01</time>
      </trkpt>
      <trkpt lat="45.68141" lon="6.2289">
        <ele>2201.792</ele>
        <time>2020-09-15 15:23:07</time>
      </trkpt>
      <trkpt lat="45.68142" lon="6.22891">
        <ele>2202.3328</ele>
        <time>2020-09-15 15:23:10</time>
      </trkpt>
      <trkpt lat="45.68142" lon="6.22891">
        <ele>2202.3325</ele>
        <time>2020-09-15 15:23:11</time>
      </trkpt>
      <trkpt lat="45.68144" lon="6.22892">
        <ele>2201.404</ele>
        <time>2020-09-15 15:23:18</time>
      </trkpt>
      <trkpt lat="45.68144" lon="6.22893">
        <ele>2201.2656</ele>
        <time>2020-09-15 15:23:20</time>
      </trkpt>
      <trkpt lat="45.68144" lon="6.22894">
        <ele>2200.685</ele>
        <time>2020-09-15 15:23:21</time>
      </trkpt>
      <trkpt lat="45.68146" lon="6.22893">
        <ele>2198.381</ele>
        <time>2020-09-15 15:23:24</time>
      </trkpt>
      <trkpt lat="45.6815" lon="6.22895">
        <ele>2197.141</ele>
        <time>2020-09-15 15:23:33</time>
      </trkpt>
      <trkpt lat="45.68153" lon="6.22897">
        <ele>2194.5464</ele>
        <time>2020-09-15 15:23:44</time>
      </trkpt>
      <trkpt lat="45.68153" lon="6.22897">
        <ele>2194.349</ele>
        <time>2020-09-15 15:23:45</time>
      </trkpt>
      <trkpt lat="45.68154" lon="6.22896">
        <ele>2194.4314</ele>
        <time>2020-09-15 15:23:47</time>
      </trkpt>
      <trkpt lat="45.68154" lon="6.22896">
        <ele>2194.5088</ele>
        <time>2020-09-15 15:23:48</time>
      </trkpt>
      <trkpt lat="45.68154" lon="6.22896">
        <ele>2194.6313</ele>
        <time>2020-09-15 15:23:49</time>
      </trkpt>
      <trkpt lat="45.68154" lon="6.22897">
        <ele>2194.6572</ele>
        <time>2020-09-15 15:23:51</time>
      </trkpt>
      <trkpt lat="45.68154" lon="6.22897">
        <ele>2194.9155</ele>
        <time>2020-09-15 15:23:53</time>
      </trkpt>
      <trkpt lat="45.68154" lon="6.22897">
        <ele>2195.2598</ele>
        <time>2020-09-15 15:23:55</time>
      </trkpt>
      <trkpt lat="45.68154" lon="6.22897">
        <ele>2195.229</ele>
        <time>2020-09-15 15:23:56</time>
      </trkpt>
      <trkpt lat="45.68154" lon="6.22898">
        <ele>2195.3816</ele>
        <time>2020-09-15 15:23:59</time>
      </trkpt>
      <trkpt lat="45.68154" lon="6.22899">
        <ele>2194.839</ele>
        <time>2020-09-15 15:24:01</time>
      </trkpt>
      <trkpt lat="45.68154" lon="6.22899">
        <ele>2194.9685</ele>
        <time>2020-09-15 15:24:02</time>
      </trkpt>
      <trkpt lat="45.68154" lon="6.229">
        <ele>2195.099</ele>
        <time>2020-09-15 15:24:07</time>
      </trkpt>
      <trkpt lat="45.68154" lon="6.229">
        <ele>2195.4758</ele>
        <time>2020-09-15 15:24:08</time>
      </trkpt>
      <trkpt lat="45.68154" lon="6.22901">
        <ele>2195.448</ele>
        <time>2020-09-15 15:24:10</time>
      </trkpt>
      <trkpt lat="45.68155" lon="6.22902">
        <ele>2193.7642</ele>
        <time>2020-09-15 15:24:17</time>
      </trkpt>
      <trkpt lat="45.68155" lon="6.22902">
        <ele>2194.196</ele>
        <time>2020-09-15 15:24:18</time>
      </trkpt>
      <trkpt lat="45.68156" lon="6.22902">
        <ele>2194.489</ele>
        <time>2020-09-15 15:24:20</time>
      </trkpt>
      <trkpt lat="45.68154" lon="6.22902">
        <ele>2195.028</ele>
        <time>2020-09-15 15:24:24</time>
      </trkpt>
      <trkpt lat="45.68154" lon="6.22902">
        <ele>2195.4077</ele>
        <time>2020-09-15 15:24:26</time>
      </trkpt>
      <trkpt lat="45.68154" lon="6.22905">
        <ele>2193.1187</ele>
        <time>2020-09-15 15:24:32</time>
      </trkpt>
      <trkpt lat="45.68154" lon="6.22905">
        <ele>2192.434</ele>
        <time>2020-09-15 15:24:33</time>
      </trkpt>
      <trkpt lat="45.68156" lon="6.22905">
        <ele>2191.0562</ele>
        <time>2020-09-15 15:24:36</time>
      </trkpt>
      <trkpt lat="45.68156" lon="6.22905">
        <ele>2191.0898</ele>
        <time>2020-09-15 15:24:37</time>
      </trkpt>
      <trkpt lat="45.68156" lon="6.22906">
        <ele>2190.8398</ele>
        <time>2020-09-15 15:24:41</time>
      </trkpt>
      <trkpt lat="45.68156" lon="6.22906">
        <ele>2190.0386</ele>
        <time>2020-09-15 15:24:43</time>
      </trkpt>
      <trkpt lat="45.68156" lon="6.22906">
        <ele>2189.66</ele>
        <time>2020-09-15 15:24:46</time>
      </trkpt>
      <trkpt lat="45.68156" lon="6.22906">
        <ele>2189.765</ele>
        <time>2020-09-15 15:24:47</time>
      </trkpt>
      <trkpt lat="45.68157" lon="6.22907">
        <ele>2189.6504</ele>
        <time>2020-09-15 15:24:51</time>
      </trkpt>
      <trkpt lat="45.68157" lon="6.22907">
        <ele>2188.81</ele>
        <time>2020-09-15 15:24:55</time>
      </trkpt>
      <trkpt lat="45.68158" lon="6.22907">
        <ele>2189.2031</ele>
        <time>2020-09-15 15:24:59</time>
      </trkpt>
      <trkpt lat="45.68157" lon="6.22907">
        <ele>2189.4036</ele>
        <time>2020-09-15 15:25:00</time>
      </trkpt>
      <trkpt lat="45.68158" lon="6.22908">
        <ele>2189.3872</ele>
        <time>2020-09-15 15:25:08</time>
      </trkpt>
      <trkpt lat="45.68158" lon="6.22908">
        <ele>2188.6921</ele>
        <time>2020-09-15 15:25:10</time>
      </trkpt>
      <trkpt lat="45.68158" lon="6.22908">
        <ele>2188.9834</ele>
        <time>2020-09-15 15:25:11</time>
      </trkpt>
      <trkpt lat="45.68158" lon="6.22909">
        <ele>2189.8916</ele>
        <time>2020-09-15 15:25:13</time>
      </trkpt>
      <trkpt lat="45.68158" lon="6.2291">
        <ele>2189.699</ele>
        <time>2020-09-15 15:25:16</time>
      </trkpt>
      <trkpt lat="45.68158" lon="6.2291">
        <ele>2189.4714</ele>
        <time>2020-09-15 15:25:19</time>
      </trkpt>
      <trkpt lat="45.68158" lon="6.2291">
        <ele>2189.2036</ele>
        <time>2020-09-15 15:25:21</time>
      </trkpt>
      <trkpt lat="45.68158" lon="6.22911">
        <ele>2188.8916</ele>
        <time>2020-09-15 15:25:22</time>
      </trkpt>
      <trkpt lat="45.68157" lon="6.22912">
        <ele>2188.9712</ele>
        <time>2020-09-15 15:25:27</time>
      </trkpt>
      <trkpt lat="45.68157" lon="6.22912">
        <ele>2189.1028</ele>
        <time>2020-09-15 15:25:31</time>
      </trkpt>
      <trkpt lat="45.68157" lon="6.22912">
        <ele>2189.4229</ele>
        <time>2020-09-15 15:25:32</time>
      </trkpt>
      <trkpt lat="45.68157" lon="6.22913">
        <ele>2188.876</ele>
        <time>2020-09-15 15:25:35</time>
      </trkpt>
      <trkpt lat="45.68157" lon="6.22913">
        <ele>2188.602</ele>
        <time>2020-09-15 15:25:38</time>
      </trkpt>
      <trkpt lat="45.68157" lon="6.22913">
        <ele>2188.6658</ele>
        <time>2020-09-15 15:25:39</time>
      </trkpt>
      <trkpt lat="45.68158" lon="6.22913">
        <ele>2188.5552</ele>
        <time>2020-09-15 15:25:41</time>
      </trkpt>
      <trkpt lat="45.68159" lon="6.22913">
        <ele>2188.9531</ele>
        <time>2020-09-15 15:25:42</time>
      </trkpt>
      <trkpt lat="45.68159" lon="6.22913">
        <ele>2188.8562</ele>
        <time>2020-09-15 15:25:44</time>
      </trkpt>
      <trkpt lat="45.68158" lon="6.22913">
        <ele>2188.5525</ele>
        <time>2020-09-15 15:25:45</time>
      </trkpt>
      <trkpt lat="45.68158" lon="6.22913">
        <ele>2188.6445</ele>
        <time>2020-09-15 15:25:46</time>
      </trkpt>
      <trkpt lat="45.68158" lon="6.22914">
        <ele>2188.243</ele>
        <time>2020-09-15 15:25:48</time>
      </trkpt>
      <trkpt lat="45.68158" lon="6.22914">
        <ele>2188.181</ele>
        <time>2020-09-15 15:25:49</time>
      </trkpt>
      <trkpt lat="45.68157" lon="6.22915">
        <ele>2187.7908</ele>
        <time>2020-09-15 15:25:51</time>
      </trkpt>
      <trkpt lat="45.68157" lon="6.22915">
        <ele>2187.5723</ele>
        <time>2020-09-15 15:25:52</time>
      </trkpt>
      <trkpt lat="45.68157" lon="6.22915">
        <ele>2187.4827</ele>
        <time>2020-09-15 15:26:05</time>
      </trkpt>
      <trkpt lat="45.68157" lon="6.22915">
        <ele>2187.3174</ele>
        <time>2020-09-15 15:26:06</time>
      </trkpt>
      <trkpt lat="45.68157" lon="6.22916">
        <ele>2186.2517</ele>
        <time>2020-09-15 15:26:09</time>
      </trkpt>
      <trkpt lat="45.68157" lon="6.22916">
        <ele>2185.577</ele>
        <time>2020-09-15 15:26:11</time>
      </trkpt>
      <trkpt lat="45.68156" lon="6.22917">
        <ele>2184.9158</ele>
        <time>2020-09-15 15:26:24</time>
      </trkpt>
      <trkpt lat="45.68157" lon="6.22917">
        <ele>2184.655</ele>
        <time>2020-09-15 15:26:25</time>
      </trkpt>
      <trkpt lat="45.68156" lon="6.22917">
        <ele>2184.6814</ele>
        <time>2020-09-15 15:26:27</time>
      </trkpt>
      <trkpt lat="45.68156" lon="6.22917">
        <ele>2184.5867</ele>
        <time>2020-09-15 15:26:28</time>
      </trkpt>
      <trkpt lat="45.68156" lon="6.22918">
        <ele>2183.8733</ele>
        <time>2020-09-15 15:26:38</time>
      </trkpt>
      <trkpt lat="45.68156" lon="6.22919">
        <ele>2183.4558</ele>
        <time>2020-09-15 15:26:42</time>
      </trkpt>
      <trkpt lat="45.68155" lon="6.2292">
        <ele>2182.8887</ele>
        <time>2020-09-15 15:26:50</time>
      </trkpt>
      <trkpt lat="45.68155" lon="6.2292">
        <ele>2182.0964</ele>
        <time>2020-09-15 15:26:52</time>
      </trkpt>
      <trkpt lat="45.68155" lon="6.22921">
        <ele>2182.1355</ele>
        <time>2020-09-15 15:26:55</time>
      </trkpt>
      <trkpt lat="45.68156" lon="6.22923">
        <ele>2181.177</ele>
        <time>2020-09-15 15:27:01</time>
      </trkpt>
      <trkpt lat="45.68156" lon="6.22923">
        <ele>2180.965</ele>
        <time>2020-09-15 15:27:02</time>
      </trkpt>
      <trkpt lat="45.68157" lon="6.22923">
        <ele>2181.315</ele>
        <time>2020-09-15 15:27:03</time>
      </trkpt>
      <trkpt lat="45.68157" lon="6.22923">
        <ele>2182.0525</ele>
        <time>2020-09-15 15:27:05</time>
      </trkpt>
      <trkpt lat="45.68158" lon="6.22923">
        <ele>2182.1497</ele>
        <time>2020-09-15 15:27:06</time>
      </trkpt>
      <trkpt lat="45.68158" lon="6.22923">
        <ele>2181.7258</ele>
        <time>2020-09-15 15:27:08</time>
      </trkpt>
      <trkpt lat="45.68158" lon="6.22923">
        <ele>2180.483</ele>
        <time>2020-09-15 15:27:09</time>
      </trkpt>
      <trkpt lat="45.68159" lon="6.22923">
        <ele>2180.3806</ele>
        <time>2020-09-15 15:27:11</time>
      </trkpt>
      <trkpt lat="45.68159" lon="6.22923">
        <ele>2180.2605</ele>
        <time>2020-09-15 15:27:13</time>
      </trkpt>
      <trkpt lat="45.68159" lon="6.22924">
        <ele>2180.306</ele>
        <time>2020-09-15 15:27:15</time>
      </trkpt>
      <trkpt lat="45.68159" lon="6.22924">
        <ele>2179.6865</ele>
        <time>2020-09-15 15:27:18</time>
      </trkpt>
      <trkpt lat="45.68159" lon="6.22925">
        <ele>2179.237</ele>
        <time>2020-09-15 15:27:19</time>
      </trkpt>
      <trkpt lat="45.6816" lon="6.22925">
        <ele>2179.0264</ele>
        <time>2020-09-15 15:27:22</time>
      </trkpt>
      <trkpt lat="45.6816" lon="6.22925">
        <ele>2177.9502</ele>
        <time>2020-09-15 15:27:32</time>
      </trkpt>
      <trkpt lat="45.68161" lon="6.22925">
        <ele>2177.2732</ele>
        <time>2020-09-15 15:27:33</time>
      </trkpt>
      <trkpt lat="45.6816" lon="6.22927">
        <ele>2178.1287</ele>
        <time>2020-09-15 15:27:56</time>
      </trkpt>
      <trkpt lat="45.68159" lon="6.22928">
        <ele>2177.1821</ele>
        <time>2020-09-15 15:27:59</time>
      </trkpt>
      <trkpt lat="45.68159" lon="6.22929">
        <ele>2177.2156</ele>
        <time>2020-09-15 15:28:10</time>
      </trkpt>
      <trkpt lat="45.68159" lon="6.22929">
        <ele>2176.9314</ele>
        <time>2020-09-15 15:28:12</time>
      </trkpt>
      <trkpt lat="45.68159" lon="6.2293">
        <ele>2176.3254</ele>
        <time>2020-09-15 15:28:19</time>
      </trkpt>
      <trkpt lat="45.68159" lon="6.2293">
        <ele>2176.2048</ele>
        <time>2020-09-15 15:28:20</time>
      </trkpt>
      <trkpt lat="45.68158" lon="6.22931">
        <ele>2175.4192</ele>
        <time>2020-09-15 15:28:22</time>
      </trkpt>
      <trkpt lat="45.68159" lon="6.22933">
        <ele>2173.36</ele>
        <time>2020-09-15 15:28:31</time>
      </trkpt>
      <trkpt lat="45.68159" lon="6.22933">
        <ele>2172.9814</ele>
        <time>2020-09-15 15:28:32</time>
      </trkpt>
      <trkpt lat="45.68157" lon="6.22934">
        <ele>2172.7236</ele>
        <time>2020-09-15 15:28:35</time>
      </trkpt>
      <trkpt lat="45.68156" lon="6.22934">
        <ele>2172.6792</ele>
        <time>2020-09-15 15:28:43</time>
      </trkpt>
      <trkpt lat="45.68155" lon="6.22934">
        <ele>2172.5923</ele>
        <time>2020-09-15 15:28:47</time>
      </trkpt>
      <trkpt lat="45.68154" lon="6.22933">
        <ele>2172.472</ele>
        <time>2020-09-15 15:28:50</time>
      </trkpt>
      <trkpt lat="45.68154" lon="6.22933">
        <ele>2172.024</ele>
        <time>2020-09-15 15:28:51</time>
      </trkpt>
      <trkpt lat="45.68154" lon="6.22933">
        <ele>2172.2837</ele>
        <time>2020-09-15 15:28:52</time>
      </trkpt>
      <trkpt lat="45.68153" lon="6.22934">
        <ele>2171.9314</ele>
        <time>2020-09-15 15:28:54</time>
      </trkpt>
      <trkpt lat="45.68153" lon="6.22934">
        <ele>2171.8625</ele>
        <time>2020-09-15 15:28:55</time>
      </trkpt>
      <trkpt lat="45.68154" lon="6.22935">
        <ele>2170.8464</ele>
        <time>2020-09-15 15:28:57</time>
      </trkpt>
      <trkpt lat="45.68154" lon="6.2294">
        <ele>2169.529</ele>
        <time>2020-09-15 15:29:07</time>
      </trkpt>
      <trkpt lat="45.68154" lon="6.2294">
        <ele>2168.5667</ele>
        <time>2020-09-15 15:29:08</time>
      </trkpt>
      <trkpt lat="45.68156" lon="6.2294">
        <ele>2168.3386</ele>
        <time>2020-09-15 15:29:14</time>
      </trkpt>
      <trkpt lat="45.68157" lon="6.2294">
        <ele>2167.4397</ele>
        <time>2020-09-15 15:29:17</time>
      </trkpt>
      <trkpt lat="45.68157" lon="6.22941">
        <ele>2168.0376</ele>
        <time>2020-09-15 15:29:19</time>
      </trkpt>
      <trkpt lat="45.68157" lon="6.22942">
        <ele>2167.7605</ele>
        <time>2020-09-15 15:29:24</time>
      </trkpt>
      <trkpt lat="45.68156" lon="6.22943">
        <ele>2166.799</ele>
        <time>2020-09-15 15:29:30</time>
      </trkpt>
      <trkpt lat="45.68156" lon="6.22943">
        <ele>2166.9312</ele>
        <time>2020-09-15 15:29:31</time>
      </trkpt>
      <trkpt lat="45.68155" lon="6.22944">
        <ele>2166.794</ele>
        <time>2020-09-15 15:29:32</time>
      </trkpt>
      <trkpt lat="45.68157" lon="6.22947">
        <ele>2165.3123</ele>
        <time>2020-09-15 15:29:39</time>
      </trkpt>
      <trkpt lat="45.68157" lon="6.22947">
        <ele>2164.6602</ele>
        <time>2020-09-15 15:29:40</time>
      </trkpt>
      <trkpt lat="45.68158" lon="6.22948">
        <ele>2164.2349</ele>
        <time>2020-09-15 15:29:45</time>
      </trkpt>
      <trkpt lat="45.6816" lon="6.22947">
        <ele>2162.629</ele>
        <time>2020-09-15 15:29:50</time>
      </trkpt>
      <trkpt lat="45.6816" lon="6.22947">
        <ele>2162.5962</ele>
        <time>2020-09-15 15:29:57</time>
      </trkpt>
      <trkpt lat="45.6816" lon="6.22947">
        <ele>2162.6086</ele>
        <time>2020-09-15 15:29:58</time>
      </trkpt>
      <trkpt lat="45.6816" lon="6.22948">
        <ele>2161.5332</ele>
        <time>2020-09-15 15:30:00</time>
      </trkpt>
      <trkpt lat="45.68165" lon="6.22948">
        <ele>2157.545</ele>
        <time>2020-09-15 15:30:14</time>
      </trkpt>
      <trkpt lat="45.68166" lon="6.22949">
        <ele>2157.271</ele>
        <time>2020-09-15 15:30:16</time>
      </trkpt>
      <trkpt lat="45.68167" lon="6.2295">
        <ele>2156.8093</ele>
        <time>2020-09-15 15:30:25</time>
      </trkpt>
      <trkpt lat="45.68168" lon="6.2295">
        <ele>2156.2644</ele>
        <time>2020-09-15 15:30:31</time>
      </trkpt>
      <trkpt lat="45.68168" lon="6.2295">
        <ele>2156.6716</ele>
        <time>2020-09-15 15:30:35</time>
      </trkpt>
      <trkpt lat="45.68168" lon="6.2295">
        <ele>2156.1562</ele>
        <time>2020-09-15 15:30:37</time>
      </trkpt>
      <trkpt lat="45.68168" lon="6.22951">
        <ele>2155.9426</ele>
        <time>2020-09-15 15:30:41</time>
      </trkpt>
      <trkpt lat="45.68168" lon="6.22951">
        <ele>2155.4438</ele>
        <time>2020-09-15 15:30:43</time>
      </trkpt>
      <trkpt lat="45.68169" lon="6.22956">
        <ele>2154.0378</ele>
        <time>2020-09-15 15:30:52</time>
      </trkpt>
      <trkpt lat="45.68169" lon="6.22956">
        <ele>2153.205</ele>
        <time>2020-09-15 15:30:54</time>
      </trkpt>
      <trkpt lat="45.68169" lon="6.22957">
        <ele>2152.8342</ele>
        <time>2020-09-15 15:30:55</time>
      </trkpt>
      <trkpt lat="45.6817" lon="6.22957">
        <ele>2152.004</ele>
        <time>2020-09-15 15:30:57</time>
      </trkpt>
      <trkpt lat="45.68172" lon="6.22958">
        <ele>2150.6396</ele>
        <time>2020-09-15 15:31:07</time>
      </trkpt>
      <trkpt lat="45.68172" lon="6.22958">
        <ele>2150.0454</ele>
        <time>2020-09-15 15:31:13</time>
      </trkpt>
      <trkpt lat="45.68173" lon="6.22958">
        <ele>2149.8855</ele>
        <time>2020-09-15 15:31:16</time>
      </trkpt>
      <trkpt lat="45.68173" lon="6.22958">
        <ele>2149.8003</ele>
        <time>2020-09-15 15:31:17</time>
      </trkpt>
      <trkpt lat="45.68173" lon="6.22958">
        <ele>2149.7183</ele>
        <time>2020-09-15 15:31:18</time>
      </trkpt>
      <trkpt lat="45.68174" lon="6.22958">
        <ele>2148.837</ele>
        <time>2020-09-15 15:31:21</time>
      </trkpt>
      <trkpt lat="45.68174" lon="6.22959">
        <ele>2148.4663</ele>
        <time>2020-09-15 15:31:24</time>
      </trkpt>
      <trkpt lat="45.68174" lon="6.22959">
        <ele>2148.3206</ele>
        <time>2020-09-15 15:31:25</time>
      </trkpt>
      <trkpt lat="45.68174" lon="6.2296">
        <ele>2148.5034</ele>
        <time>2020-09-15 15:31:27</time>
      </trkpt>
      <trkpt lat="45.68175" lon="6.22961">
        <ele>2148.0317</ele>
        <time>2020-09-15 15:31:31</time>
      </trkpt>
      <trkpt lat="45.68176" lon="6.22962">
        <ele>2146.8513</ele>
        <time>2020-09-15 15:31:35</time>
      </trkpt>
      <trkpt lat="45.68175" lon="6.22962">
        <ele>2146.6365</ele>
        <time>2020-09-15 15:31:36</time>
      </trkpt>
      <trkpt lat="45.68175" lon="6.22964">
        <ele>2146.5002</ele>
        <time>2020-09-15 15:31:40</time>
      </trkpt>
      <trkpt lat="45.68176" lon="6.22965">
        <ele>2145.4517</ele>
        <time>2020-09-15 15:31:42</time>
      </trkpt>
      <trkpt lat="45.68176" lon="6.22965">
        <ele>2144.1643</ele>
        <time>2020-09-15 15:31:43</time>
      </trkpt>
      <trkpt lat="45.68179" lon="6.22965">
        <ele>2142.0623</ele>
        <time>2020-09-15 15:31:48</time>
      </trkpt>
      <trkpt lat="45.68184" lon="6.22969">
        <ele>2140.0867</ele>
        <time>2020-09-15 15:32:31</time>
      </trkpt>
      <trkpt lat="45.68184" lon="6.22968">
        <ele>2139.8027</ele>
        <time>2020-09-15 15:32:32</time>
      </trkpt>
      <trkpt lat="45.68184" lon="6.22969">
        <ele>2139.261</ele>
        <time>2020-09-15 15:32:35</time>
      </trkpt>
      <trkpt lat="45.68184" lon="6.22969">
        <ele>2139.133</ele>
        <time>2020-09-15 15:32:36</time>
      </trkpt>
      <trkpt lat="45.68185" lon="6.22969">
        <ele>2138.6077</ele>
        <time>2020-09-15 15:32:39</time>
      </trkpt>
      <trkpt lat="45.68185" lon="6.22969">
        <ele>2138.4675</ele>
        <time>2020-09-15 15:32:41</time>
      </trkpt>
      <trkpt lat="45.68185" lon="6.2297">
        <ele>2138.2634</ele>
        <time>2020-09-15 15:32:42</time>
      </trkpt>
      <trkpt lat="45.68185" lon="6.2297">
        <ele>2138.308</ele>
        <time>2020-09-15 15:32:44</time>
      </trkpt>
      <trkpt lat="45.68186" lon="6.2297">
        <ele>2138.0215</ele>
        <time>2020-09-15 15:32:45</time>
      </trkpt>
      <trkpt lat="45.68186" lon="6.22971">
        <ele>2138.0327</ele>
        <time>2020-09-15 15:32:47</time>
      </trkpt>
      <trkpt lat="45.68186" lon="6.22971">
        <ele>2137.6516</ele>
        <time>2020-09-15 15:32:48</time>
      </trkpt>
      <trkpt lat="45.68186" lon="6.22972">
        <ele>2137.3606</ele>
        <time>2020-09-15 15:32:49</time>
      </trkpt>
      <trkpt lat="45.68186" lon="6.22972">
        <ele>2137.2754</ele>
        <time>2020-09-15 15:32:56</time>
      </trkpt>
      <trkpt lat="45.68187" lon="6.22973">
        <ele>2135.8743</ele>
        <time>2020-09-15 15:32:59</time>
      </trkpt>
      <trkpt lat="45.68188" lon="6.22973">
        <ele>2135.755</ele>
        <time>2020-09-15 15:33:12</time>
      </trkpt>
      <trkpt lat="45.68188" lon="6.22974">
        <ele>2135.4229</ele>
        <time>2020-09-15 15:33:14</time>
      </trkpt>
      <trkpt lat="45.68188" lon="6.22974">
        <ele>2135.2434</ele>
        <time>2020-09-15 15:33:18</time>
      </trkpt>
      <trkpt lat="45.68188" lon="6.22974">
        <ele>2135.0623</ele>
        <time>2020-09-15 15:33:20</time>
      </trkpt>
      <trkpt lat="45.68189" lon="6.22974">
        <ele>2134.992</ele>
        <time>2020-09-15 15:33:23</time>
      </trkpt>
      <trkpt lat="45.68189" lon="6.22975">
        <ele>2134.7083</ele>
        <time>2020-09-15 15:33:24</time>
      </trkpt>
      <trkpt lat="45.68189" lon="6.22974">
        <ele>2133.7722</ele>
        <time>2020-09-15 15:33:30</time>
      </trkpt>
      <trkpt lat="45.68189" lon="6.22975">
        <ele>2133.9695</ele>
        <time>2020-09-15 15:33:32</time>
      </trkpt>
      <trkpt lat="45.68189" lon="6.22975">
        <ele>2134.4187</ele>
        <time>2020-09-15 15:33:33</time>
      </trkpt>
      <trkpt lat="45.68189" lon="6.22976">
        <ele>2134.4412</ele>
        <time>2020-09-15 15:33:35</time>
      </trkpt>
      <trkpt lat="45.68189" lon="6.22976">
        <ele>2134.347</ele>
        <time>2020-09-15 15:33:39</time>
      </trkpt>
      <trkpt lat="45.68189" lon="6.22976">
        <ele>2134.511</ele>
        <time>2020-09-15 15:33:40</time>
      </trkpt>
      <trkpt lat="45.68189" lon="6.22976">
        <ele>2134.567</ele>
        <time>2020-09-15 15:33:43</time>
      </trkpt>
      <trkpt lat="45.68189" lon="6.22977">
        <ele>2133.7397</ele>
        <time>2020-09-15 15:33:46</time>
      </trkpt>
      <trkpt lat="45.68189" lon="6.22978">
        <ele>2134.39</ele>
        <time>2020-09-15 15:33:55</time>
      </trkpt>
      <trkpt lat="45.68189" lon="6.22979">
        <ele>2134.6614</ele>
        <time>2020-09-15 15:33:56</time>
      </trkpt>
      <trkpt lat="45.68188" lon="6.22981">
        <ele>2134.9087</ele>
        <time>2020-09-15 15:34:06</time>
      </trkpt>
      <trkpt lat="45.68189" lon="6.22982">
        <ele>2134.435</ele>
        <time>2020-09-15 15:34:08</time>
      </trkpt>
      <trkpt lat="45.68189" lon="6.22982">
        <ele>2134.3333</ele>
        <time>2020-09-15 15:34:09</time>
      </trkpt>
      <trkpt lat="45.68189" lon="6.22983">
        <ele>2134.657</ele>
        <time>2020-09-15 15:34:11</time>
      </trkpt>
      <trkpt lat="45.68188" lon="6.22984">
        <ele>2133.9985</ele>
        <time>2020-09-15 15:34:17</time>
      </trkpt>
      <trkpt lat="45.68188" lon="6.22985">
        <ele>2133.2683</ele>
        <time>2020-09-15 15:34:19</time>
      </trkpt>
      <trkpt lat="45.68188" lon="6.22986">
        <ele>2133.8826</ele>
        <time>2020-09-15 15:34:34</time>
      </trkpt>
      <trkpt lat="45.68188" lon="6.22988">
        <ele>2134.5571</ele>
        <time>2020-09-15 15:34:37</time>
      </trkpt>
      <trkpt lat="45.68188" lon="6.22988">
        <ele>2133.807</ele>
        <time>2020-09-15 15:34:39</time>
      </trkpt>
      <trkpt lat="45.68188" lon="6.22989">
        <ele>2133.2505</ele>
        <time>2020-09-15 15:34:43</time>
      </trkpt>
      <trkpt lat="45.68189" lon="6.2299">
        <ele>2133.5127</ele>
        <time>2020-09-15 15:34:46</time>
      </trkpt>
      <trkpt lat="45.68189" lon="6.2299">
        <ele>2133.4397</ele>
        <time>2020-09-15 15:34:47</time>
      </trkpt>
      <trkpt lat="45.68189" lon="6.2299">
        <ele>2133.3662</ele>
        <time>2020-09-15 15:34:48</time>
      </trkpt>
      <trkpt lat="45.68189" lon="6.2299">
        <ele>2134.3054</ele>
        <time>2020-09-15 15:34:51</time>
      </trkpt>
      <trkpt lat="45.68189" lon="6.22991">
        <ele>2135.3345</ele>
        <time>2020-09-15 15:35:18</time>
      </trkpt>
      <trkpt lat="45.68189" lon="6.22992">
        <ele>2136.0908</ele>
        <time>2020-09-15 15:35:20</time>
      </trkpt>
      <trkpt lat="45.68189" lon="6.22992">
        <ele>2135.5315</ele>
        <time>2020-09-15 15:35:21</time>
      </trkpt>
      <trkpt lat="45.68189" lon="6.22993">
        <ele>2135.1877</ele>
        <time>2020-09-15 15:35:24</time>
      </trkpt>
      <trkpt lat="45.68189" lon="6.22992">
        <ele>2134.618</ele>
        <time>2020-09-15 15:35:25</time>
      </trkpt>
      <trkpt lat="45.68189" lon="6.22993">
        <ele>2134.9417</ele>
        <time>2020-09-15 15:35:29</time>
      </trkpt>
      <trkpt lat="45.6819" lon="6.22992">
        <ele>2133.8555</ele>
        <time>2020-09-15 15:35:31</time>
      </trkpt>
      <trkpt lat="45.6819" lon="6.22992">
        <ele>2133.9973</ele>
        <time>2020-09-15 15:35:32</time>
      </trkpt>
      <trkpt lat="45.6819" lon="6.22992">
        <ele>2133.5017</ele>
        <time>2020-09-15 15:35:33</time>
      </trkpt>
      <trkpt lat="45.6819" lon="6.22991">
        <ele>2133.3916</ele>
        <time>2020-09-15 15:35:35</time>
      </trkpt>
      <trkpt lat="45.68191" lon="6.22991">
        <ele>2133.1533</ele>
        <time>2020-09-15 15:35:36</time>
      </trkpt>
      <trkpt lat="45.68191" lon="6.22991">
        <ele>2133.0698</ele>
        <time>2020-09-15 15:35:37</time>
      </trkpt>
      <trkpt lat="45.68191" lon="6.22991">
        <ele>2132.6873</ele>
        <time>2020-09-15 15:35:40</time>
      </trkpt>
      <trkpt lat="45.6819" lon="6.22992">
        <ele>2132.3877</ele>
        <time>2020-09-15 15:35:44</time>
      </trkpt>
      <trkpt lat="45.68191" lon="6.22992">
        <ele>2132.1218</ele>
        <time>2020-09-15 15:35:47</time>
      </trkpt>
      <trkpt lat="45.68191" lon="6.22992">
        <ele>2130.4436</ele>
        <time>2020-09-15 15:35:51</time>
      </trkpt>
      <trkpt lat="45.68191" lon="6.22992">
        <ele>2130.1868</ele>
        <time>2020-09-15 15:35:53</time>
      </trkpt>
      <trkpt lat="45.68195" lon="6.22989">
        <ele>2123.6611</ele>
        <time>2020-09-15 15:36:57</time>
      </trkpt>
      <trkpt lat="45.68195" lon="6.22989">
        <ele>2124.3372</ele>
        <time>2020-09-15 15:36:58</time>
      </trkpt>
      <trkpt lat="45.68195" lon="6.22989">
        <ele>2124.3777</ele>
        <time>2020-09-15 15:36:59</time>
      </trkpt>
      <trkpt lat="45.68195" lon="6.22989">
        <ele>2124.119</ele>
        <time>2020-09-15 15:37:00</time>
      </trkpt>
      <trkpt lat="45.68195" lon="6.22988">
        <ele>2123.1313</ele>
        <time>2020-09-15 15:37:01</time>
      </trkpt>
      <trkpt lat="45.68195" lon="6.22988">
        <ele>2123.1064</ele>
        <time>2020-09-15 15:37:02</time>
      </trkpt>
      <trkpt lat="45.68195" lon="6.22988">
        <ele>2123.1638</ele>
        <time>2020-09-15 15:37:05</time>
      </trkpt>
      <trkpt lat="45.68195" lon="6.22988">
        <ele>2123.0938</ele>
        <time>2020-09-15 15:37:06</time>
      </trkpt>
      <trkpt lat="45.68195" lon="6.22991">
        <ele>2124.7249</ele>
        <time>2020-09-15 15:37:23</time>
      </trkpt>
      <trkpt lat="45.68196" lon="6.22993">
        <ele>2125.151</ele>
        <time>2020-09-15 15:37:26</time>
      </trkpt>
      <trkpt lat="45.68195" lon="6.22992">
        <ele>2125.2263</ele>
        <time>2020-09-15 15:37:38</time>
      </trkpt>
      <trkpt lat="45.68195" lon="6.22992">
        <ele>2125.2114</ele>
        <time>2020-09-15 15:37:39</time>
      </trkpt>
      <trkpt lat="45.68195" lon="6.22993">
        <ele>2124.9893</ele>
        <time>2020-09-15 15:37:43</time>
      </trkpt>
      <trkpt lat="45.68195" lon="6.22993">
        <ele>2124.6213</ele>
        <time>2020-09-15 15:37:46</time>
      </trkpt>
      <trkpt lat="45.68195" lon="6.22993">
        <ele>2124.6643</ele>
        <time>2020-09-15 15:37:48</time>
      </trkpt>
      <trkpt lat="45.68196" lon="6.22994">
        <ele>2124.6506</ele>
        <time>2020-09-15 15:37:51</time>
      </trkpt>
      <trkpt lat="45.68196" lon="6.22994">
        <ele>2123.6309</ele>
        <time>2020-09-15 15:37:54</time>
      </trkpt>
      <trkpt lat="45.68197" lon="6.22994">
        <ele>2122.955</ele>
        <time>2020-09-15 15:37:57</time>
      </trkpt>
      <trkpt lat="45.68197" lon="6.22994">
        <ele>2123.139</ele>
        <time>2020-09-15 15:37:58</time>
      </trkpt>
      <trkpt lat="45.68197" lon="6.22995">
        <ele>2122.8774</ele>
        <time>2020-09-15 15:38:00</time>
      </trkpt>
      <trkpt lat="45.68197" lon="6.22995">
        <ele>2123.0413</ele>
        <time>2020-09-15 15:38:03</time>
      </trkpt>
      <trkpt lat="45.68196" lon="6.22998">
        <ele>2121.7766</ele>
        <time>2020-09-15 15:38:10</time>
      </trkpt>
      <trkpt lat="45.68197" lon="6.22998">
        <ele>2121.8262</ele>
        <time>2020-09-15 15:38:11</time>
      </trkpt>
      <trkpt lat="45.68197" lon="6.22998">
        <ele>2120.9573</ele>
        <time>2020-09-15 15:38:12</time>
      </trkpt>
      <trkpt lat="45.68198" lon="6.22998">
        <ele>2121.182</ele>
        <time>2020-09-15 15:38:13</time>
      </trkpt>
      <trkpt lat="45.68198" lon="6.22997">
        <ele>2121.0479</ele>
        <time>2020-09-15 15:38:14</time>
      </trkpt>
      <trkpt lat="45.68198" lon="6.22998">
        <ele>2121.4988</ele>
        <time>2020-09-15 15:38:16</time>
      </trkpt>
      <trkpt lat="45.68197" lon="6.23">
        <ele>2120.936</ele>
        <time>2020-09-15 15:38:24</time>
      </trkpt>
      <trkpt lat="45.68197" lon="6.23">
        <ele>2121.1765</ele>
        <time>2020-09-15 15:38:25</time>
      </trkpt>
      <trkpt lat="45.68198" lon="6.23001">
        <ele>2120.6106</ele>
        <time>2020-09-15 15:38:28</time>
      </trkpt>
      <trkpt lat="45.68198" lon="6.23003">
        <ele>2121.6624</ele>
        <time>2020-09-15 15:38:31</time>
      </trkpt>
      <trkpt lat="45.68199" lon="6.23004">
        <ele>2121.6934</ele>
        <time>2020-09-15 15:38:32</time>
      </trkpt>
      <trkpt lat="45.68199" lon="6.23004">
        <ele>2121.3955</ele>
        <time>2020-09-15 15:38:35</time>
      </trkpt>
      <trkpt lat="45.68193" lon="6.23008">
        <ele>2116.3406</ele>
        <time>2020-09-15 15:38:49</time>
      </trkpt>
      <trkpt lat="45.68192" lon="6.23008">
        <ele>2116.4126</ele>
        <time>2020-09-15 15:38:50</time>
      </trkpt>
      <trkpt lat="45.68191" lon="6.23009">
        <ele>2115.806</ele>
        <time>2020-09-15 15:38:52</time>
      </trkpt>
      <trkpt lat="45.68191" lon="6.23009">
        <ele>2114.723</ele>
        <time>2020-09-15 15:38:55</time>
      </trkpt>
      <trkpt lat="45.6819" lon="6.2301">
        <ele>2114.6665</ele>
        <time>2020-09-15 15:38:58</time>
      </trkpt>
      <trkpt lat="45.6819" lon="6.2301">
        <ele>2114.6826</ele>
        <time>2020-09-15 15:38:59</time>
      </trkpt>
      <trkpt lat="45.68187" lon="6.23013">
        <ele>2115.372</ele>
        <time>2020-09-15 15:39:03</time>
      </trkpt>
      <trkpt lat="45.68187" lon="6.23014">
        <ele>2114.4294</ele>
        <time>2020-09-15 15:39:06</time>
      </trkpt>
      <trkpt lat="45.68187" lon="6.23014">
        <ele>2114.045</ele>
        <time>2020-09-15 15:39:07</time>
      </trkpt>
      <trkpt lat="45.68185" lon="6.23017">
        <ele>2113.8118</ele>
        <time>2020-09-15 15:39:11</time>
      </trkpt>
      <trkpt lat="45.68185" lon="6.23017">
        <ele>2114.1467</ele>
        <time>2020-09-15 15:39:12</time>
      </trkpt>
      <trkpt lat="45.68183" lon="6.23017">
        <ele>2113.5051</ele>
        <time>2020-09-15 15:39:15</time>
      </trkpt>
      <trkpt lat="45.68183" lon="6.23016">
        <ele>2113.761</ele>
        <time>2020-09-15 15:39:16</time>
      </trkpt>
      <trkpt lat="45.68183" lon="6.23016">
        <ele>2113.0896</ele>
        <time>2020-09-15 15:39:18</time>
      </trkpt>
      <trkpt lat="45.68183" lon="6.23017">
        <ele>2110.8215</ele>
        <time>2020-09-15 15:39:22</time>
      </trkpt>
      <trkpt lat="45.68183" lon="6.23017">
        <ele>2109.913</ele>
        <time>2020-09-15 15:39:23</time>
      </trkpt>
      <trkpt lat="45.68184" lon="6.23017">
        <ele>2109.5728</ele>
        <time>2020-09-15 15:39:25</time>
      </trkpt>
      <trkpt lat="45.68185" lon="6.23017">
        <ele>2109.3027</ele>
        <time>2020-09-15 15:39:29</time>
      </trkpt>
      <trkpt lat="45.68184" lon="6.23019">
        <ele>2108.8208</ele>
        <time>2020-09-15 15:39:31</time>
      </trkpt>
      <trkpt lat="45.68184" lon="6.2302">
        <ele>2109.115</ele>
        <time>2020-09-15 15:39:33</time>
      </trkpt>
      <trkpt lat="45.68185" lon="6.23019">
        <ele>2107.161</ele>
        <time>2020-09-15 15:39:37</time>
      </trkpt>
      <trkpt lat="45.68185" lon="6.23018">
        <ele>2106.457</ele>
        <time>2020-09-15 15:39:39</time>
      </trkpt>
      <trkpt lat="45.68184" lon="6.23019">
        <ele>2104.681</ele>
        <time>2020-09-15 15:39:47</time>
      </trkpt>
      <trkpt lat="45.68183" lon="6.23019">
        <ele>2104.1843</ele>
        <time>2020-09-15 15:39:48</time>
      </trkpt>
      <trkpt lat="45.68183" lon="6.23019">
        <ele>2104.2427</ele>
        <time>2020-09-15 15:39:50</time>
      </trkpt>
      <trkpt lat="45.68183" lon="6.23019">
        <ele>2104.444</ele>
        <time>2020-09-15 15:39:51</time>
      </trkpt>
      <trkpt lat="45.68185" lon="6.23019">
        <ele>2102.8337</ele>
        <time>2020-09-15 15:39:54</time>
      </trkpt>
      <trkpt lat="45.68188" lon="6.23019">
        <ele>2100.0654</ele>
        <time>2020-09-15 15:40:01</time>
      </trkpt>
      <trkpt lat="45.68188" lon="6.23019">
        <ele>2098.5303</ele>
        <time>2020-09-15 15:40:02</time>
      </trkpt>
      <trkpt lat="45.68188" lon="6.23019">
        <ele>2098.4883</ele>
        <time>2020-09-15 15:40:03</time>
      </trkpt>
      <trkpt lat="45.68189" lon="6.23019">
        <ele>2097.9912</ele>
        <time>2020-09-15 15:40:05</time>
      </trkpt>
      <trkpt lat="45.6819" lon="6.2302">
        <ele>2096.2493</ele>
        <time>2020-09-15 15:40:08</time>
      </trkpt>
      <trkpt lat="45.6819" lon="6.23021">
        <ele>2094.3655</ele>
        <time>2020-09-15 15:40:10</time>
      </trkpt>
      <trkpt lat="45.6819" lon="6.23021">
        <ele>2093.9092</ele>
        <time>2020-09-15 15:40:11</time>
      </trkpt>
      <trkpt lat="45.6819" lon="6.23022">
        <ele>2091.4065</ele>
        <time>2020-09-15 15:40:14</time>
      </trkpt>
      <trkpt lat="45.68189" lon="6.23022">
        <ele>2091.1091</ele>
        <time>2020-09-15 15:40:16</time>
      </trkpt>
      <trkpt lat="45.68189" lon="6.23022">
        <ele>2090.4973</ele>
        <time>2020-09-15 15:40:18</time>
      </trkpt>
      <trkpt lat="45.68188" lon="6.23023">
        <ele>2091.687</ele>
        <time>2020-09-15 15:40:21</time>
      </trkpt>
      <trkpt lat="45.68188" lon="6.23023">
        <ele>2091.6038</ele>
        <time>2020-09-15 15:40:22</time>
      </trkpt>
      <trkpt lat="45.68188" lon="6.23023">
        <ele>2090.7217</ele>
        <time>2020-09-15 15:40:25</time>
      </trkpt>
      <trkpt lat="45.68188" lon="6.23023">
        <ele>2090.5515</ele>
        <time>2020-09-15 15:40:26</time>
      </trkpt>
      <trkpt lat="45.68188" lon="6.23023">
        <ele>2090.5466</ele>
        <time>2020-09-15 15:40:27</time>
      </trkpt>
      <trkpt lat="45.68189" lon="6.23023">
        <ele>2090.9202</ele>
        <time>2020-09-15 15:40:45</time>
      </trkpt>
      <trkpt lat="45.68189" lon="6.23024">
        <ele>2090.8354</ele>
        <time>2020-09-15 15:40:48</time>
      </trkpt>
      <trkpt lat="45.68189" lon="6.23025">
        <ele>2090.7231</ele>
        <time>2020-09-15 15:40:51</time>
      </trkpt>
      <trkpt lat="45.68189" lon="6.23025">
        <ele>2090.6519</ele>
        <time>2020-09-15 15:40:52</time>
      </trkpt>
      <trkpt lat="45.68189" lon="6.23026">
        <ele>2090.5388</ele>
        <time>2020-09-15 15:40:55</time>
      </trkpt>
      <trkpt lat="45.68189" lon="6.23026">
        <ele>2090.782</ele>
        <time>2020-09-15 15:40:57</time>
      </trkpt>
      <trkpt lat="45.68189" lon="6.23027">
        <ele>2090.3367</ele>
        <time>2020-09-15 15:41:15</time>
      </trkpt>
      <trkpt lat="45.68188" lon="6.23028">
        <ele>2090.0183</ele>
        <time>2020-09-15 15:41:17</time>
      </trkpt>
      <trkpt lat="45.68188" lon="6.23028">
        <ele>2090.06</ele>
        <time>2020-09-15 15:41:19</time>
      </trkpt>
      <trkpt lat="45.68188" lon="6.23028">
        <ele>2090.3171</ele>
        <time>2020-09-15 15:41:20</time>
      </trkpt>
      <trkpt lat="45.68189" lon="6.23028">
        <ele>2089.9343</ele>
        <time>2020-09-15 15:41:23</time>
      </trkpt>
      <trkpt lat="45.6819" lon="6.23034">
        <ele>2088.7625</ele>
        <time>2020-09-15 15:41:34</time>
      </trkpt>
      <trkpt lat="45.6819" lon="6.23035">
        <ele>2088.3188</ele>
        <time>2020-09-15 15:41:35</time>
      </trkpt>
      <trkpt lat="45.6819" lon="6.23035">
        <ele>2087.426</ele>
        <time>2020-09-15 15:41:36</time>
      </trkpt>
      <trkpt lat="45.68189" lon="6.23035">
        <ele>2087.0999</ele>
        <time>2020-09-15 15:41:37</time>
      </trkpt>
      <trkpt lat="45.68189" lon="6.23035">
        <ele>2086.5193</ele>
        <time>2020-09-15 15:41:39</time>
      </trkpt>
      <trkpt lat="45.68189" lon="6.23035">
        <ele>2086.4373</ele>
        <time>2020-09-15 15:41:40</time>
      </trkpt>
      <trkpt lat="45.68189" lon="6.23035">
        <ele>2086.1018</ele>
        <time>2020-09-15 15:41:41</time>
      </trkpt>
      <trkpt lat="45.68189" lon="6.23035">
        <ele>2086.3657</ele>
        <time>2020-09-15 15:41:43</time>
      </trkpt>
      <trkpt lat="45.68188" lon="6.23036">
        <ele>2085.96</ele>
        <time>2020-09-15 15:41:48</time>
      </trkpt>
      <trkpt lat="45.68188" lon="6.23036">
        <ele>2086.7678</ele>
        <time>2020-09-15 15:41:51</time>
      </trkpt>
      <trkpt lat="45.68188" lon="6.23036">
        <ele>2086.6406</ele>
        <time>2020-09-15 15:41:52</time>
      </trkpt>
      <trkpt lat="45.68187" lon="6.23037">
        <ele>2086.0715</ele>
        <time>2020-09-15 15:41:54</time>
      </trkpt>
      <trkpt lat="45.68186" lon="6.23039">
        <ele>2084.959</ele>
        <time>2020-09-15 15:42:02</time>
      </trkpt>
      <trkpt lat="45.68187" lon="6.2304">
        <ele>2083.086</ele>
        <time>2020-09-15 15:42:06</time>
      </trkpt>
      <trkpt lat="45.68186" lon="6.23041">
        <ele>2082.9988</ele>
        <time>2020-09-15 15:42:13</time>
      </trkpt>
      <trkpt lat="45.68187" lon="6.23042">
        <ele>2082.8403</ele>
        <time>2020-09-15 15:42:16</time>
      </trkpt>
      <trkpt lat="45.68187" lon="6.23042">
        <ele>2083.053</ele>
        <time>2020-09-15 15:42:17</time>
      </trkpt>
      <trkpt lat="45.68187" lon="6.23042">
        <ele>2082.5425</ele>
        <time>2020-09-15 15:42:19</time>
      </trkpt>
      <trkpt lat="45.68188" lon="6.23044">
        <ele>2081.103</ele>
        <time>2020-09-15 15:42:23</time>
      </trkpt>
      <trkpt lat="45.68189" lon="6.23045">
        <ele>2081.915</ele>
        <time>2020-09-15 15:42:26</time>
      </trkpt>
      <trkpt lat="45.68189" lon="6.23046">
        <ele>2081.6929</ele>
        <time>2020-09-15 15:42:27</time>
      </trkpt>
      <trkpt lat="45.68189" lon="6.23046">
        <ele>2081.2551</ele>
        <time>2020-09-15 15:42:29</time>
      </trkpt>
      <trkpt lat="45.68189" lon="6.23047">
        <ele>2079.6013</ele>
        <time>2020-09-15 15:42:47</time>
      </trkpt>
      <trkpt lat="45.68188" lon="6.23048">
        <ele>2080.1438</ele>
        <time>2020-09-15 15:42:50</time>
      </trkpt>
      <trkpt lat="45.68188" lon="6.23048">
        <ele>2079.951</ele>
        <time>2020-09-15 15:42:52</time>
      </trkpt>
      <trkpt lat="45.68188" lon="6.23049">
        <ele>2078.4717</ele>
        <time>2020-09-15 15:42:54</time>
      </trkpt>
      <trkpt lat="45.68188" lon="6.23049">
        <ele>2077.777</ele>
        <time>2020-09-15 15:42:56</time>
      </trkpt>
      <trkpt lat="45.68191" lon="6.23051">
        <ele>2074.6807</ele>
        <time>2020-09-15 15:43:05</time>
      </trkpt>
      <trkpt lat="45.68191" lon="6.23051">
        <ele>2074.564</ele>
        <time>2020-09-15 15:43:06</time>
      </trkpt>
      <trkpt lat="45.68192" lon="6.23054">
        <ele>2073.143</ele>
        <time>2020-09-15 15:43:15</time>
      </trkpt>
      <trkpt lat="45.68192" lon="6.23055">
        <ele>2072.9526</ele>
        <time>2020-09-15 15:43:17</time>
      </trkpt>
      <trkpt lat="45.68192" lon="6.23056">
        <ele>2072.6614</ele>
        <time>2020-09-15 15:43:18</time>
      </trkpt>
      <trkpt lat="45.68192" lon="6.23056">
        <ele>2072.6055</ele>
        <time>2020-09-15 15:43:19</time>
      </trkpt>
      <trkpt lat="45.68191" lon="6.23056">
        <ele>2072.208</ele>
        <time>2020-09-15 15:43:28</time>
      </trkpt>
      <trkpt lat="45.6819" lon="6.23056">
        <ele>2072.1318</ele>
        <time>2020-09-15 15:43:31</time>
      </trkpt>
      <trkpt lat="45.68189" lon="6.23058">
        <ele>2072.2715</ele>
        <time>2020-09-15 15:43:34</time>
      </trkpt>
      <trkpt lat="45.68189" lon="6.23058">
        <ele>2071.8813</ele>
        <time>2020-09-15 15:43:35</time>
      </trkpt>
      <trkpt lat="45.68187" lon="6.23058">
        <ele>2070.816</ele>
        <time>2020-09-15 15:43:39</time>
      </trkpt>
      <trkpt lat="45.68187" lon="6.23059">
        <ele>2070.1033</ele>
        <time>2020-09-15 15:43:41</time>
      </trkpt>
      <trkpt lat="45.68186" lon="6.23059">
        <ele>2069.6934</ele>
        <time>2020-09-15 15:43:42</time>
      </trkpt>
      <trkpt lat="45.68185" lon="6.2306">
        <ele>2069.051</ele>
        <time>2020-09-15 15:43:48</time>
      </trkpt>
      <trkpt lat="45.68184" lon="6.2306">
        <ele>2068.5876</ele>
        <time>2020-09-15 15:44:02</time>
      </trkpt>
      <trkpt lat="45.68181" lon="6.2306">
        <ele>2067.3936</ele>
        <time>2020-09-15 15:44:09</time>
      </trkpt>
      <trkpt lat="45.68177" lon="6.23061">
        <ele>2067.5222</ele>
        <time>2020-09-15 15:44:16</time>
      </trkpt>
      <trkpt lat="45.68176" lon="6.23061">
        <ele>2067.2808</ele>
        <time>2020-09-15 15:44:20</time>
      </trkpt>
      <trkpt lat="45.68175" lon="6.23061">
        <ele>2067.5032</ele>
        <time>2020-09-15 15:44:25</time>
      </trkpt>
      <trkpt lat="45.68174" lon="6.23061">
        <ele>2067.7207</ele>
        <time>2020-09-15 15:44:31</time>
      </trkpt>
      <trkpt lat="45.68174" lon="6.23061">
        <ele>2066.4377</ele>
        <time>2020-09-15 15:44:34</time>
      </trkpt>
      <trkpt lat="45.68173" lon="6.23061">
        <ele>2066.2363</ele>
        <time>2020-09-15 15:44:35</time>
      </trkpt>
      <trkpt lat="45.68173" lon="6.23061">
        <ele>2066.162</ele>
        <time>2020-09-15 15:44:40</time>
      </trkpt>
      <trkpt lat="45.68173" lon="6.23061">
        <ele>2066.296</ele>
        <time>2020-09-15 15:44:41</time>
      </trkpt>
      <trkpt lat="45.68173" lon="6.23061">
        <ele>2066.2537</ele>
        <time>2020-09-15 15:44:45</time>
      </trkpt>
      <trkpt lat="45.68173" lon="6.23061">
        <ele>2066.1265</ele>
        <time>2020-09-15 15:44:46</time>
      </trkpt>
      <trkpt lat="45.68173" lon="6.23062">
        <ele>2065.3242</ele>
        <time>2020-09-15 15:44:48</time>
      </trkpt>
      <trkpt lat="45.68173" lon="6.23062">
        <ele>2065.4932</ele>
        <time>2020-09-15 15:44:50</time>
      </trkpt>
      <trkpt lat="45.68173" lon="6.23062">
        <ele>2065.6565</ele>
        <time>2020-09-15 15:44:52</time>
      </trkpt>
      <trkpt lat="45.68173" lon="6.23063">
        <ele>2066.3074</ele>
        <time>2020-09-15 15:44:53</time>
      </trkpt>
      <trkpt lat="45.68173" lon="6.23063">
        <ele>2066.4038</ele>
        <time>2020-09-15 15:44:57</time>
      </trkpt>
      <trkpt lat="45.68172" lon="6.23063">
        <ele>2065.6245</ele>
        <time>2020-09-15 15:45:00</time>
      </trkpt>
      <trkpt lat="45.68172" lon="6.23063">
        <ele>2065.4343</ele>
        <time>2020-09-15 15:45:03</time>
      </trkpt>
      <trkpt lat="45.68172" lon="6.23064">
        <ele>2065.3862</ele>
        <time>2020-09-15 15:45:04</time>
      </trkpt>
      <trkpt lat="45.68172" lon="6.23064">
        <ele>2064.0085</ele>
        <time>2020-09-15 15:45:12</time>
      </trkpt>
      <trkpt lat="45.68171" lon="6.23065">
        <ele>2064.5051</ele>
        <time>2020-09-15 15:45:17</time>
      </trkpt>
      <trkpt lat="45.68171" lon="6.23065">
        <ele>2064.5476</ele>
        <time>2020-09-15 15:45:18</time>
      </trkpt>
      <trkpt lat="45.68171" lon="6.23065">
        <ele>2064.561</ele>
        <time>2020-09-15 15:45:19</time>
      </trkpt>
      <trkpt lat="45.68171" lon="6.23065">
        <ele>2063.8894</ele>
        <time>2020-09-15 15:45:22</time>
      </trkpt>
      <trkpt lat="45.68171" lon="6.23067">
        <ele>2064.0786</ele>
        <time>2020-09-15 15:45:26</time>
      </trkpt>
      <trkpt lat="45.6817" lon="6.23066">
        <ele>2063.8267</ele>
        <time>2020-09-15 15:45:28</time>
      </trkpt>
      <trkpt lat="45.6817" lon="6.23067">
        <ele>2062.834</ele>
        <time>2020-09-15 15:45:31</time>
      </trkpt>
      <trkpt lat="45.68168" lon="6.23069">
        <ele>2061.3982</ele>
        <time>2020-09-15 15:45:37</time>
      </trkpt>
      <trkpt lat="45.68169" lon="6.2307">
        <ele>2061.3115</ele>
        <time>2020-09-15 15:45:42</time>
      </trkpt>
      <trkpt lat="45.68169" lon="6.23071">
        <ele>2061.2012</ele>
        <time>2020-09-15 15:45:43</time>
      </trkpt>
      <trkpt lat="45.68169" lon="6.23071">
        <ele>2061.156</ele>
        <time>2020-09-15 15:45:46</time>
      </trkpt>
      <trkpt lat="45.6817" lon="6.23072">
        <ele>2061.2676</ele>
        <time>2020-09-15 15:45:51</time>
      </trkpt>
      <trkpt lat="45.6817" lon="6.23072">
        <ele>2060.8923</ele>
        <time>2020-09-15 15:45:53</time>
      </trkpt>
      <trkpt lat="45.68171" lon="6.23072">
        <ele>2060.3914</ele>
        <time>2020-09-15 15:45:55</time>
      </trkpt>
      <trkpt lat="45.68171" lon="6.23072">
        <ele>2060.3308</ele>
        <time>2020-09-15 15:45:58</time>
      </trkpt>
      <trkpt lat="45.68171" lon="6.23073">
        <ele>2060.0364</ele>
        <time>2020-09-15 15:45:59</time>
      </trkpt>
      <trkpt lat="45.68171" lon="6.23073">
        <ele>2058.5227</ele>
        <time>2020-09-15 15:46:02</time>
      </trkpt>
      <trkpt lat="45.6817" lon="6.23073">
        <ele>2058.5378</ele>
        <time>2020-09-15 15:46:07</time>
      </trkpt>
      <trkpt lat="45.6817" lon="6.23073">
        <ele>2058.431</ele>
        <time>2020-09-15 15:46:08</time>
      </trkpt>
      <trkpt lat="45.6817" lon="6.23074">
        <ele>2057.809</ele>
        <time>2020-09-15 15:46:25</time>
      </trkpt>
      <trkpt lat="45.68171" lon="6.23075">
        <ele>2057.3652</ele>
        <time>2020-09-15 15:46:28</time>
      </trkpt>
      <trkpt lat="45.68171" lon="6.23076">
        <ele>2057.1956</ele>
        <time>2020-09-15 15:46:29</time>
      </trkpt>
      <trkpt lat="45.68171" lon="6.23076">
        <ele>2056.891</ele>
        <time>2020-09-15 15:46:30</time>
      </trkpt>
      <trkpt lat="45.68171" lon="6.23077">
        <ele>2057.7642</ele>
        <time>2020-09-15 15:46:32</time>
      </trkpt>
      <trkpt lat="45.68171" lon="6.23077">
        <ele>2057.3374</ele>
        <time>2020-09-15 15:46:33</time>
      </trkpt>
      <trkpt lat="45.68171" lon="6.23078">
        <ele>2056.7092</ele>
        <time>2020-09-15 15:46:35</time>
      </trkpt>
      <trkpt lat="45.68171" lon="6.23079">
        <ele>2055.594</ele>
        <time>2020-09-15 15:46:37</time>
      </trkpt>
      <trkpt lat="45.68171" lon="6.23079">
        <ele>2055.825</ele>
        <time>2020-09-15 15:46:38</time>
      </trkpt>
      <trkpt lat="45.68171" lon="6.2308">
        <ele>2055.5679</ele>
        <time>2020-09-15 15:46:42</time>
      </trkpt>
      <trkpt lat="45.68171" lon="6.2308">
        <ele>2055.6936</ele>
        <time>2020-09-15 15:46:43</time>
      </trkpt>
      <trkpt lat="45.68172" lon="6.2308">
        <ele>2055.5168</ele>
        <time>2020-09-15 15:46:46</time>
      </trkpt>
      <trkpt lat="45.68173" lon="6.23078">
        <ele>2054.909</ele>
        <time>2020-09-15 15:46:52</time>
      </trkpt>
      <trkpt lat="45.68173" lon="6.23078">
        <ele>2054.9834</ele>
        <time>2020-09-15 15:47:05</time>
      </trkpt>
      <trkpt lat="45.68174" lon="6.23078">
        <ele>2053.9255</ele>
        <time>2020-09-15 15:47:09</time>
      </trkpt>
      <trkpt lat="45.68174" lon="6.23079">
        <ele>2052.9001</ele>
        <time>2020-09-15 15:47:22</time>
      </trkpt>
      <trkpt lat="45.68174" lon="6.23079">
        <ele>2052.936</ele>
        <time>2020-09-15 15:47:23</time>
      </trkpt>
      <trkpt lat="45.68174" lon="6.2308">
        <ele>2052.8196</ele>
        <time>2020-09-15 15:47:24</time>
      </trkpt>
      <trkpt lat="45.68174" lon="6.23081">
        <ele>2052.8635</ele>
        <time>2020-09-15 15:47:27</time>
      </trkpt>
      <trkpt lat="45.68174" lon="6.23081">
        <ele>2052.6184</ele>
        <time>2020-09-15 15:47:28</time>
      </trkpt>
      <trkpt lat="45.68174" lon="6.23082">
        <ele>2051.781</ele>
        <time>2020-09-15 15:47:31</time>
      </trkpt>
      <trkpt lat="45.68174" lon="6.23083">
        <ele>2051.275</ele>
        <time>2020-09-15 15:47:36</time>
      </trkpt>
      <trkpt lat="45.68175" lon="6.23084">
        <ele>2051.3486</ele>
        <time>2020-09-15 15:47:39</time>
      </trkpt>
      <trkpt lat="45.68175" lon="6.23084">
        <ele>2051.304</ele>
        <time>2020-09-15 15:47:40</time>
      </trkpt>
      <trkpt lat="45.68175" lon="6.23084">
        <ele>2050.9937</ele>
        <time>2020-09-15 15:47:41</time>
      </trkpt>
      <trkpt lat="45.68175" lon="6.23085">
        <ele>2052.3071</ele>
        <time>2020-09-15 15:47:42</time>
      </trkpt>
      <trkpt lat="45.68175" lon="6.23086">
        <ele>2049.9165</ele>
        <time>2020-09-15 15:47:44</time>
      </trkpt>
      <trkpt lat="45.68185" lon="6.23091">
        <ele>2046.1902</ele>
        <time>2020-09-15 15:48:01</time>
      </trkpt>
      <trkpt lat="45.68186" lon="6.23091">
        <ele>2046.0303</ele>
        <time>2020-09-15 15:48:02</time>
      </trkpt>
      <trkpt lat="45.68189" lon="6.23091">
        <ele>2044.3169</ele>
        <time>2020-09-15 15:48:16</time>
      </trkpt>
      <trkpt lat="45.68189" lon="6.23091">
        <ele>2045.6934</ele>
        <time>2020-09-15 15:48:18</time>
      </trkpt>
      <trkpt lat="45.68189" lon="6.23092">
        <ele>2043.8826</ele>
        <time>2020-09-15 15:48:19</time>
      </trkpt>
      <trkpt lat="45.6819" lon="6.23092">
        <ele>2044.0049</ele>
        <time>2020-09-15 15:48:20</time>
      </trkpt>
      <trkpt lat="45.6819" lon="6.23092">
        <ele>2042.6584</ele>
        <time>2020-09-15 15:48:28</time>
      </trkpt>
      <trkpt lat="45.68191" lon="6.23093">
        <ele>2042.0984</ele>
        <time>2020-09-15 15:48:30</time>
      </trkpt>
      <trkpt lat="45.68193" lon="6.23095">
        <ele>2039.4663</ele>
        <time>2020-09-15 15:48:55</time>
      </trkpt>
      <trkpt lat="45.68193" lon="6.23095">
        <ele>2039.4248</ele>
        <time>2020-09-15 15:48:57</time>
      </trkpt>
      <trkpt lat="45.68193" lon="6.23099">
        <ele>2037.8506</ele>
        <time>2020-09-15 15:49:28</time>
      </trkpt>
      <trkpt lat="45.68193" lon="6.23099">
        <ele>2037.9307</ele>
        <time>2020-09-15 15:49:29</time>
      </trkpt>
      <trkpt lat="45.68193" lon="6.231">
        <ele>2037.1824</ele>
        <time>2020-09-15 15:49:42</time>
      </trkpt>
      <trkpt lat="45.68193" lon="6.23099">
        <ele>2037.1108</ele>
        <time>2020-09-15 15:49:44</time>
      </trkpt>
      <trkpt lat="45.68193" lon="6.23099">
        <ele>2036.6475</ele>
        <time>2020-09-15 15:49:45</time>
      </trkpt>
      <trkpt lat="45.68193" lon="6.23099">
        <ele>2036.7192</ele>
        <time>2020-09-15 15:49:47</time>
      </trkpt>
      <trkpt lat="45.68193" lon="6.23099">
        <ele>2037.3728</ele>
        <time>2020-09-15 15:50:08</time>
      </trkpt>
      <trkpt lat="45.68193" lon="6.23099">
        <ele>2037.4629</ele>
        <time>2020-09-15 15:50:09</time>
      </trkpt>
      <trkpt lat="45.68194" lon="6.23099">
        <ele>2037.5029</ele>
        <time>2020-09-15 15:50:10</time>
      </trkpt>
      <trkpt lat="45.68193" lon="6.23099">
        <ele>2037.772</ele>
        <time>2020-09-15 15:50:11</time>
      </trkpt>
      <trkpt lat="45.68195" lon="6.23098">
        <ele>2037.3826</ele>
        <time>2020-09-15 15:50:27</time>
      </trkpt>
      <trkpt lat="45.68195" lon="6.23098">
        <ele>2037.6206</ele>
        <time>2020-09-15 15:50:29</time>
      </trkpt>
      <trkpt lat="45.68195" lon="6.23099">
        <ele>2037.8027</ele>
        <time>2020-09-15 15:50:35</time>
      </trkpt>
      <trkpt lat="45.68195" lon="6.23099">
        <ele>2037.6636</ele>
        <time>2020-09-15 15:50:36</time>
      </trkpt>
      <trkpt lat="45.68195" lon="6.23099">
        <ele>2037.3826</ele>
        <time>2020-09-15 15:50:37</time>
      </trkpt>
      <trkpt lat="45.68195" lon="6.23099">
        <ele>2037.4121</ele>
        <time>2020-09-15 15:50:39</time>
      </trkpt>
      <trkpt lat="45.68195" lon="6.23099">
        <ele>2037.0322</ele>
        <time>2020-09-15 15:50:40</time>
      </trkpt>
      <trkpt lat="45.68195" lon="6.231">
        <ele>2036.3452</ele>
        <time>2020-09-15 15:50:43</time>
      </trkpt>
      <trkpt lat="45.68195" lon="6.231">
        <ele>2036.3164</ele>
        <time>2020-09-15 15:50:44</time>
      </trkpt>
      <trkpt lat="45.68195" lon="6.231">
        <ele>2036.2207</ele>
        <time>2020-09-15 15:50:45</time>
      </trkpt>
      <trkpt lat="45.68195" lon="6.231">
        <ele>2035.9868</ele>
        <time>2020-09-15 15:50:47</time>
      </trkpt>
      <trkpt lat="45.68195" lon="6.231">
        <ele>2035.9138</ele>
        <time>2020-09-15 15:50:48</time>
      </trkpt>
      <trkpt lat="45.68196" lon="6.231">
        <ele>2035.7334</ele>
        <time>2020-09-15 15:50:50</time>
      </trkpt>
      <trkpt lat="45.68196" lon="6.231">
        <ele>2037.4121</ele>
        <time>2020-09-15 15:50:51</time>
      </trkpt>
      <trkpt lat="45.68196" lon="6.23101">
        <ele>2035.6919</ele>
        <time>2020-09-15 15:50:56</time>
      </trkpt>
      <trkpt lat="45.68196" lon="6.23101">
        <ele>2035.794</ele>
        <time>2020-09-15 15:50:57</time>
      </trkpt>
      <trkpt lat="45.68195" lon="6.23101">
        <ele>2035.4839</ele>
        <time>2020-09-15 15:51:00</time>
      </trkpt>
      <trkpt lat="45.68195" lon="6.23101">
        <ele>2035.5522</ele>
        <time>2020-09-15 15:51:02</time>
      </trkpt>
      <trkpt lat="45.68195" lon="6.23101">
        <ele>2035.2766</ele>
        <time>2020-09-15 15:51:04</time>
      </trkpt>
      <trkpt lat="45.68195" lon="6.23101">
        <ele>2035.2905</ele>
        <time>2020-09-15 15:51:07</time>
      </trkpt>
      <trkpt lat="45.68195" lon="6.23102">
        <ele>2034.812</ele>
        <time>2020-09-15 15:51:08</time>
      </trkpt>
      <trkpt lat="45.68195" lon="6.23103">
        <ele>2034.7473</ele>
        <time>2020-09-15 15:51:10</time>
      </trkpt>
      <trkpt lat="45.68195" lon="6.23103">
        <ele>2034.9866</ele>
        <time>2020-09-15 15:51:13</time>
      </trkpt>
      <trkpt lat="45.68196" lon="6.23105">
        <ele>2035.2905</ele>
        <time>2020-09-15 15:51:19</time>
      </trkpt>
      <trkpt lat="45.68197" lon="6.23106">
        <ele>2034.5947</ele>
        <time>2020-09-15 15:51:20</time>
      </trkpt>
      <trkpt lat="45.68197" lon="6.23106">
        <ele>2034.4702</ele>
        <time>2020-09-15 15:51:21</time>
      </trkpt>
      <trkpt lat="45.68198" lon="6.23106">
        <ele>2033.7358</ele>
        <time>2020-09-15 15:51:24</time>
      </trkpt>
      <trkpt lat="45.682" lon="6.23107">
        <ele>2034.4868</ele>
        <time>2020-09-15 15:51:27</time>
      </trkpt>
      <trkpt lat="45.68201" lon="6.23108">
        <ele>2033.2825</ele>
        <time>2020-09-15 15:51:32</time>
      </trkpt>
      <trkpt lat="45.68201" lon="6.23108">
        <ele>2032.4468</ele>
        <time>2020-09-15 15:51:35</time>
      </trkpt>
      <trkpt lat="45.68201" lon="6.23109">
        <ele>2032.1782</ele>
        <time>2020-09-15 15:51:37</time>
      </trkpt>
      <trkpt lat="45.68201" lon="6.23109">
        <ele>2032.0938</ele>
        <time>2020-09-15 15:51:39</time>
      </trkpt>
      <trkpt lat="45.68202" lon="6.23109">
        <ele>2031.6282</ele>
        <time>2020-09-15 15:51:40</time>
      </trkpt>
      <trkpt lat="45.68202" lon="6.2311">
        <ele>2031.2556</ele>
        <time>2020-09-15 15:51:42</time>
      </trkpt>
      <trkpt lat="45.68203" lon="6.2311">
        <ele>2031.5547</ele>
        <time>2020-09-15 15:51:43</time>
      </trkpt>
      <trkpt lat="45.68203" lon="6.23111">
        <ele>2031.0051</ele>
        <time>2020-09-15 15:51:46</time>
      </trkpt>
      <trkpt lat="45.68204" lon="6.23113">
        <ele>2030.6189</ele>
        <time>2020-09-15 15:51:49</time>
      </trkpt>
      <trkpt lat="45.68205" lon="6.23115">
        <ele>2029.8142</ele>
        <time>2020-09-15 15:51:54</time>
      </trkpt>
      <trkpt lat="45.68204" lon="6.23118">
        <ele>2028.1868</ele>
        <time>2020-09-15 15:51:59</time>
      </trkpt>
      <trkpt lat="45.68206" lon="6.2312">
        <ele>2028.3267</ele>
        <time>2020-09-15 15:52:03</time>
      </trkpt>
      <trkpt lat="45.68207" lon="6.2312">
        <ele>2028.3215</ele>
        <time>2020-09-15 15:52:04</time>
      </trkpt>
      <trkpt lat="45.68208" lon="6.23123">
        <ele>2026.9382</ele>
        <time>2020-09-15 15:52:09</time>
      </trkpt>
      <trkpt lat="45.68208" lon="6.23123">
        <ele>2027.019</ele>
        <time>2020-09-15 15:52:10</time>
      </trkpt>
      <trkpt lat="45.68208" lon="6.23125">
        <ele>2025.8545</ele>
        <time>2020-09-15 15:52:12</time>
      </trkpt>
      <trkpt lat="45.68206" lon="6.23126">
        <ele>2023.7412</ele>
        <time>2020-09-15 15:52:16</time>
      </trkpt>
      <trkpt lat="45.68206" lon="6.23127">
        <ele>2023.7705</ele>
        <time>2020-09-15 15:52:18</time>
      </trkpt>
      <trkpt lat="45.68206" lon="6.23127">
        <ele>2023.2021</ele>
        <time>2020-09-15 15:52:20</time>
      </trkpt>
      <trkpt lat="45.68205" lon="6.23129">
        <ele>2022.5015</ele>
        <time>2020-09-15 15:52:24</time>
      </trkpt>
      <trkpt lat="45.68205" lon="6.23129">
        <ele>2022.0105</ele>
        <time>2020-09-15 15:52:26</time>
      </trkpt>
      <trkpt lat="45.68206" lon="6.23132">
        <ele>2020.8413</ele>
        <time>2020-09-15 15:52:32</time>
      </trkpt>
      <trkpt lat="45.68206" lon="6.23132">
        <ele>2020.3247</ele>
        <time>2020-09-15 15:52:35</time>
      </trkpt>
      <trkpt lat="45.68207" lon="6.23132">
        <ele>2020.1685</ele>
        <time>2020-09-15 15:52:36</time>
      </trkpt>
      <trkpt lat="45.68207" lon="6.23132">
        <ele>2022.1304</ele>
        <time>2020-09-15 15:52:38</time>
      </trkpt>
      <trkpt lat="45.68207" lon="6.23131">
        <ele>2021.1641</ele>
        <time>2020-09-15 15:52:45</time>
      </trkpt>
      <trkpt lat="45.68207" lon="6.23131">
        <ele>2021.7832</ele>
        <time>2020-09-15 15:52:46</time>
      </trkpt>
      <trkpt lat="45.68207" lon="6.23132">
        <ele>2021.2612</ele>
        <time>2020-09-15 15:52:51</time>
      </trkpt>
      <trkpt lat="45.68207" lon="6.23132">
        <ele>2021.2415</ele>
        <time>2020-09-15 15:52:52</time>
      </trkpt>
      <trkpt lat="45.68207" lon="6.23132">
        <ele>2020.9624</ele>
        <time>2020-09-15 15:52:54</time>
      </trkpt>
      <trkpt lat="45.68207" lon="6.23133">
        <ele>2019.7495</ele>
        <time>2020-09-15 15:52:56</time>
      </trkpt>
      <trkpt lat="45.68207" lon="6.23133">
        <ele>2019.384</ele>
        <time>2020-09-15 15:52:57</time>
      </trkpt>
      <trkpt lat="45.68207" lon="6.23133">
        <ele>2019.0396</ele>
        <time>2020-09-15 15:52:58</time>
      </trkpt>
      <trkpt lat="45.68208" lon="6.23136">
        <ele>2018.0576</ele>
        <time>2020-09-15 15:53:06</time>
      </trkpt>
      <trkpt lat="45.68208" lon="6.23136">
        <ele>2017.9822</ele>
        <time>2020-09-15 15:53:07</time>
      </trkpt>
      <trkpt lat="45.68208" lon="6.23137">
        <ele>2018.561</ele>
        <time>2020-09-15 15:53:10</time>
      </trkpt>
      <trkpt lat="45.68207" lon="6.23137">
        <ele>2017.741</ele>
        <time>2020-09-15 15:53:11</time>
      </trkpt>
      <trkpt lat="45.68207" lon="6.2314">
        <ele>2016.2329</ele>
        <time>2020-09-15 15:53:18</time>
      </trkpt>
      <trkpt lat="45.68208" lon="6.23141">
        <ele>2016.9941</ele>
        <time>2020-09-15 15:53:21</time>
      </trkpt>
      <trkpt lat="45.68208" lon="6.23141">
        <ele>2016.3242</ele>
        <time>2020-09-15 15:53:22</time>
      </trkpt>
      <trkpt lat="45.68208" lon="6.23142">
        <ele>2016.377</ele>
        <time>2020-09-15 15:53:24</time>
      </trkpt>
      <trkpt lat="45.68208" lon="6.23143">
        <ele>2016.5344</ele>
        <time>2020-09-15 15:53:26</time>
      </trkpt>
      <trkpt lat="45.68209" lon="6.23144">
        <ele>2015.1113</ele>
        <time>2020-09-15 15:53:27</time>
      </trkpt>
      <trkpt lat="45.68212" lon="6.23151">
        <ele>2013.5881</ele>
        <time>2020-09-15 15:53:35</time>
      </trkpt>
      <trkpt lat="45.68213" lon="6.23153">
        <ele>2013.6338</ele>
        <time>2020-09-15 15:53:36</time>
      </trkpt>
      <trkpt lat="45.68213" lon="6.23155">
        <ele>2014.1807</ele>
        <time>2020-09-15 15:53:44</time>
      </trkpt>
      <trkpt lat="45.68213" lon="6.23155">
        <ele>2015.4028</ele>
        <time>2020-09-15 15:53:47</time>
      </trkpt>
      <trkpt lat="45.68212" lon="6.23155">
        <ele>2015.479</ele>
        <time>2020-09-15 15:53:53</time>
      </trkpt>
      <trkpt lat="45.68212" lon="6.23155">
        <ele>2015.2688</ele>
        <time>2020-09-15 15:53:54</time>
      </trkpt>
      <trkpt lat="45.68211" lon="6.23156">
        <ele>2015.3435</ele>
        <time>2020-09-15 15:53:58</time>
      </trkpt>
      <trkpt lat="45.68211" lon="6.23156">
        <ele>2014.2114</ele>
        <time>2020-09-15 15:53:59</time>
      </trkpt>
      <trkpt lat="45.68209" lon="6.23155">
        <ele>2011.5813</ele>
        <time>2020-09-15 15:54:14</time>
      </trkpt>
      <trkpt lat="45.68209" lon="6.23156">
        <ele>2010.4028</ele>
        <time>2020-09-15 15:54:16</time>
      </trkpt>
      <trkpt lat="45.68208" lon="6.23155">
        <ele>2009.2695</ele>
        <time>2020-09-15 15:54:20</time>
      </trkpt>
      <trkpt lat="45.68208" lon="6.23155">
        <ele>2008.69</ele>
        <time>2020-09-15 15:54:21</time>
      </trkpt>
      <trkpt lat="45.68207" lon="6.23155">
        <ele>2008.0522</ele>
        <time>2020-09-15 15:54:26</time>
      </trkpt>
      <trkpt lat="45.68207" lon="6.23155">
        <ele>2007.8865</ele>
        <time>2020-09-15 15:54:27</time>
      </trkpt>
      <trkpt lat="45.68203" lon="6.23153">
        <ele>2006.7446</ele>
        <time>2020-09-15 15:54:39</time>
      </trkpt>
      <trkpt lat="45.68203" lon="6.23153">
        <ele>2007.1831</ele>
        <time>2020-09-15 15:54:43</time>
      </trkpt>
      <trkpt lat="45.68203" lon="6.23153">
        <ele>2006.6997</ele>
        <time>2020-09-15 15:54:44</time>
      </trkpt>
      <trkpt lat="45.68203" lon="6.23153">
        <ele>2006.7925</ele>
        <time>2020-09-15 15:54:46</time>
      </trkpt>
      <trkpt lat="45.68203" lon="6.23152">
        <ele>2006.873</ele>
        <time>2020-09-15 15:54:47</time>
      </trkpt>
      <trkpt lat="45.68203" lon="6.23152">
        <ele>2006.4617</ele>
        <time>2020-09-15 15:54:48</time>
      </trkpt>
      <trkpt lat="45.68203" lon="6.23153">
        <ele>2006.5991</ele>
        <time>2020-09-15 15:54:50</time>
      </trkpt>
      <trkpt lat="45.68203" lon="6.23153">
        <ele>2006.5305</ele>
        <time>2020-09-15 15:54:51</time>
      </trkpt>
      <trkpt lat="45.68202" lon="6.23156">
        <ele>2005.1396</ele>
        <time>2020-09-15 15:54:56</time>
      </trkpt>
      <trkpt lat="45.682" lon="6.23156">
        <ele>2004.4436</ele>
        <time>2020-09-15 15:55:00</time>
      </trkpt>
      <trkpt lat="45.682" lon="6.23156">
        <ele>2004.8735</ele>
        <time>2020-09-15 15:55:03</time>
      </trkpt>
      <trkpt lat="45.682" lon="6.23155">
        <ele>2005.366</ele>
        <time>2020-09-15 15:55:04</time>
      </trkpt>
      <trkpt lat="45.682" lon="6.23155">
        <ele>2004.9043</ele>
        <time>2020-09-15 15:55:06</time>
      </trkpt>
      <trkpt lat="45.682" lon="6.23155">
        <ele>2004.6096</ele>
        <time>2020-09-15 15:55:08</time>
      </trkpt>
      <trkpt lat="45.68199" lon="6.23155">
        <ele>2004.8032</ele>
        <time>2020-09-15 15:55:09</time>
      </trkpt>
      <trkpt lat="45.68199" lon="6.23155">
        <ele>2004.374</ele>
        <time>2020-09-15 15:55:11</time>
      </trkpt>
      <trkpt lat="45.682" lon="6.23155">
        <ele>2004.542</ele>
        <time>2020-09-15 15:55:12</time>
      </trkpt>
      <trkpt lat="45.682" lon="6.23156">
        <ele>2004.8325</ele>
        <time>2020-09-15 15:55:14</time>
      </trkpt>
      <trkpt lat="45.68199" lon="6.23157">
        <ele>2003.2354</ele>
        <time>2020-09-15 15:55:15</time>
      </trkpt>
      <trkpt lat="45.68198" lon="6.23157">
        <ele>2002.991</ele>
        <time>2020-09-15 15:55:17</time>
      </trkpt>
      <trkpt lat="45.68198" lon="6.23157">
        <ele>2002.8081</ele>
        <time>2020-09-15 15:55:21</time>
      </trkpt>
      <trkpt lat="45.68198" lon="6.23157">
        <ele>2002.5635</ele>
        <time>2020-09-15 15:55:22</time>
      </trkpt>
      <trkpt lat="45.68197" lon="6.23157">
        <ele>2001.9033</ele>
        <time>2020-09-15 15:55:25</time>
      </trkpt>
      <trkpt lat="45.68197" lon="6.23157">
        <ele>2002.1719</ele>
        <time>2020-09-15 15:55:26</time>
      </trkpt>
      <trkpt lat="45.68197" lon="6.23158">
        <ele>2002.1648</ele>
        <time>2020-09-15 15:55:27</time>
      </trkpt>
      <trkpt lat="45.68197" lon="6.23158">
        <ele>2001.9951</ele>
        <time>2020-09-15 15:55:28</time>
      </trkpt>
      <trkpt lat="45.68197" lon="6.23158">
        <ele>2001.616</ele>
        <time>2020-09-15 15:55:32</time>
      </trkpt>
      <trkpt lat="45.68196" lon="6.23159">
        <ele>2001.3208</ele>
        <time>2020-09-15 15:55:35</time>
      </trkpt>
      <trkpt lat="45.68196" lon="6.23159">
        <ele>2001.0083</ele>
        <time>2020-09-15 15:55:36</time>
      </trkpt>
      <trkpt lat="45.68195" lon="6.23159">
        <ele>2000.7139</ele>
        <time>2020-09-15 15:55:38</time>
      </trkpt>
      <trkpt lat="45.68193" lon="6.23159">
        <ele>2000.092</ele>
        <time>2020-09-15 15:55:49</time>
      </trkpt>
      <trkpt lat="45.68194" lon="6.23159">
        <ele>1999.9089</ele>
        <time>2020-09-15 15:55:51</time>
      </trkpt>
      <trkpt lat="45.68194" lon="6.2316">
        <ele>1999.2654</ele>
        <time>2020-09-15 15:55:54</time>
      </trkpt>
      <trkpt lat="45.68194" lon="6.2316">
        <ele>2000.6055</ele>
        <time>2020-09-15 15:55:56</time>
      </trkpt>
      <trkpt lat="45.68195" lon="6.23162">
        <ele>1999.6926</ele>
        <time>2020-09-15 15:56:00</time>
      </trkpt>
      <trkpt lat="45.68195" lon="6.23164">
        <ele>1999.6069</ele>
        <time>2020-09-15 15:56:04</time>
      </trkpt>
      <trkpt lat="45.68195" lon="6.23164">
        <ele>1999.4402</ele>
        <time>2020-09-15 15:56:05</time>
      </trkpt>
      <trkpt lat="45.68197" lon="6.23164">
        <ele>1995.5735</ele>
        <time>2020-09-15 15:56:11</time>
      </trkpt>
      <trkpt lat="45.68197" lon="6.23164">
        <ele>1995.2495</ele>
        <time>2020-09-15 15:56:12</time>
      </trkpt>
      <trkpt lat="45.68196" lon="6.23166">
        <ele>1995.2595</ele>
        <time>2020-09-15 15:56:16</time>
      </trkpt>
      <trkpt lat="45.68195" lon="6.23166">
        <ele>1995.3584</ele>
        <time>2020-09-15 15:56:19</time>
      </trkpt>
      <trkpt lat="45.68195" lon="6.23167">
        <ele>1996.0254</ele>
        <time>2020-09-15 15:56:21</time>
      </trkpt>
      <trkpt lat="45.68195" lon="6.23168">
        <ele>1995.8572</ele>
        <time>2020-09-15 15:56:27</time>
      </trkpt>
      <trkpt lat="45.68195" lon="6.23168">
        <ele>1995.7205</ele>
        <time>2020-09-15 15:56:28</time>
      </trkpt>
      <trkpt lat="45.68195" lon="6.23169">
        <ele>1996.1096</ele>
        <time>2020-09-15 15:56:29</time>
      </trkpt>
      <trkpt lat="45.68193" lon="6.23171">
        <ele>1997.3403</ele>
        <time>2020-09-15 15:56:34</time>
      </trkpt>
      <trkpt lat="45.68193" lon="6.23172">
        <ele>1997.302</ele>
        <time>2020-09-15 15:56:38</time>
      </trkpt>
      <trkpt lat="45.68193" lon="6.23172">
        <ele>1997.0806</ele>
        <time>2020-09-15 15:56:39</time>
      </trkpt>
      <trkpt lat="45.68193" lon="6.23173">
        <ele>1997.0273</ele>
        <time>2020-09-15 15:56:44</time>
      </trkpt>
      <trkpt lat="45.68193" lon="6.23174">
        <ele>1996.6194</ele>
        <time>2020-09-15 15:56:45</time>
      </trkpt>
      <trkpt lat="45.68194" lon="6.23176">
        <ele>1995.9604</ele>
        <time>2020-09-15 15:56:57</time>
      </trkpt>
      <trkpt lat="45.68193" lon="6.23176">
        <ele>1995.8418</ele>
        <time>2020-09-15 15:56:58</time>
      </trkpt>
      <trkpt lat="45.68194" lon="6.23177">
        <ele>1994.0254</ele>
        <time>2020-09-15 15:57:01</time>
      </trkpt>
      <trkpt lat="45.68195" lon="6.23178">
        <ele>1993.9031</ele>
        <time>2020-09-15 15:57:02</time>
      </trkpt>
      <trkpt lat="45.68195" lon="6.23178">
        <ele>1993.772</ele>
        <time>2020-09-15 15:57:03</time>
      </trkpt>
      <trkpt lat="45.68195" lon="6.23178">
        <ele>1992.5334</ele>
        <time>2020-09-15 15:57:04</time>
      </trkpt>
      <trkpt lat="45.68196" lon="6.23178">
        <ele>1991.7009</ele>
        <time>2020-09-15 15:57:12</time>
      </trkpt>
      <trkpt lat="45.68196" lon="6.23178">
        <ele>1991.7012</ele>
        <time>2020-09-15 15:57:14</time>
      </trkpt>
      <trkpt lat="45.68196" lon="6.2318">
        <ele>1992.2896</ele>
        <time>2020-09-15 15:57:22</time>
      </trkpt>
      <trkpt lat="45.68196" lon="6.23181">
        <ele>1992.6555</ele>
        <time>2020-09-15 15:57:23</time>
      </trkpt>
      <trkpt lat="45.68195" lon="6.23181">
        <ele>1992.792</ele>
        <time>2020-09-15 15:57:26</time>
      </trkpt>
      <trkpt lat="45.68195" lon="6.23181">
        <ele>1992.2319</ele>
        <time>2020-09-15 15:57:27</time>
      </trkpt>
      <trkpt lat="45.68196" lon="6.23182">
        <ele>1989.7161</ele>
        <time>2020-09-15 15:57:33</time>
      </trkpt>
      <trkpt lat="45.68196" lon="6.23182">
        <ele>1989.1807</ele>
        <time>2020-09-15 15:57:34</time>
      </trkpt>
      <trkpt lat="45.68196" lon="6.23183">
        <ele>1989.2266</ele>
        <time>2020-09-15 15:57:36</time>
      </trkpt>
      <trkpt lat="45.68196" lon="6.23184">
        <ele>1992.792</ele>
        <time>2020-09-15 15:57:38</time>
      </trkpt>
      <trkpt lat="45.68196" lon="6.23184">
        <ele>1987.625</ele>
        <time>2020-09-15 15:57:40</time>
      </trkpt>
      <trkpt lat="45.68196" lon="6.23184">
        <ele>1987.9595</ele>
        <time>2020-09-15 15:57:41</time>
      </trkpt>
      <trkpt lat="45.68195" lon="6.23184">
        <ele>1987.7043</ele>
        <time>2020-09-15 15:57:42</time>
      </trkpt>
      <trkpt lat="45.68196" lon="6.23184">
        <ele>1987.7852</ele>
        <time>2020-09-15 15:57:43</time>
      </trkpt>
      <trkpt lat="45.68196" lon="6.23184">
        <ele>1986.769</ele>
        <time>2020-09-15 15:57:48</time>
      </trkpt>
      <trkpt lat="45.68196" lon="6.23184">
        <ele>1987.625</ele>
        <time>2020-09-15 15:57:50</time>
      </trkpt>
      <trkpt lat="45.68196" lon="6.23184">
        <ele>1985.7917</ele>
        <time>2020-09-15 15:57:51</time>
      </trkpt>
      <trkpt lat="45.68196" lon="6.23185">
        <ele>1984.8262</ele>
        <time>2020-09-15 15:57:57</time>
      </trkpt>
      <trkpt lat="45.68196" lon="6.23187">
        <ele>1984.5942</ele>
        <time>2020-09-15 15:58:01</time>
      </trkpt>
      <trkpt lat="45.68196" lon="6.23189">
        <ele>1986.3713</ele>
        <time>2020-09-15 15:58:05</time>
      </trkpt>
      <trkpt lat="45.68196" lon="6.2319">
        <ele>1984.8809</ele>
        <time>2020-09-15 15:58:11</time>
      </trkpt>
      <trkpt lat="45.68196" lon="6.2319">
        <ele>1984.439</ele>
        <time>2020-09-15 15:58:12</time>
      </trkpt>
      <trkpt lat="45.68195" lon="6.2319">
        <ele>1982.6973</ele>
        <time>2020-09-15 15:58:17</time>
      </trkpt>
      <trkpt lat="45.68195" lon="6.2319">
        <ele>1982.4153</ele>
        <time>2020-09-15 15:58:18</time>
      </trkpt>
      <trkpt lat="45.68194" lon="6.2319">
        <ele>1981.106</ele>
        <time>2020-09-15 15:58:22</time>
      </trkpt>
      <trkpt lat="45.68193" lon="6.2319">
        <ele>1980.3657</ele>
        <time>2020-09-15 15:58:27</time>
      </trkpt>
      <trkpt lat="45.68193" lon="6.2319">
        <ele>1980.084</ele>
        <time>2020-09-15 15:58:28</time>
      </trkpt>
      <trkpt lat="45.68192" lon="6.2319">
        <ele>1979.6594</ele>
        <time>2020-09-15 15:58:32</time>
      </trkpt>
      <trkpt lat="45.68192" lon="6.2319">
        <ele>1979.9451</ele>
        <time>2020-09-15 15:58:34</time>
      </trkpt>
      <trkpt lat="45.68194" lon="6.23199">
        <ele>1974.6855</ele>
        <time>2020-09-15 15:58:48</time>
      </trkpt>
      <trkpt lat="45.68194" lon="6.23206">
        <ele>1974.3684</ele>
        <time>2020-09-15 15:59:00</time>
      </trkpt>
      <trkpt lat="45.68193" lon="6.23206">
        <ele>1973.8047</ele>
        <time>2020-09-15 15:59:01</time>
      </trkpt>
      <trkpt lat="45.68193" lon="6.23207">
        <ele>1972.7104</ele>
        <time>2020-09-15 15:59:04</time>
      </trkpt>
      <trkpt lat="45.68193" lon="6.23209">
        <ele>1976.7854</ele>
        <time>2020-09-15 15:59:06</time>
      </trkpt>
      <trkpt lat="45.68195" lon="6.23208">
        <ele>1971.6814</ele>
        <time>2020-09-15 15:59:11</time>
      </trkpt>
      <trkpt lat="45.68195" lon="6.23208">
        <ele>1971.7236</ele>
        <time>2020-09-15 15:59:12</time>
      </trkpt>
      <trkpt lat="45.68195" lon="6.23209">
        <ele>1970.7627</ele>
        <time>2020-09-15 15:59:14</time>
      </trkpt>
      <trkpt lat="45.68195" lon="6.23214">
        <ele>1968.3406</ele>
        <time>2020-09-15 15:59:21</time>
      </trkpt>
      <trkpt lat="45.68194" lon="6.23216">
        <ele>1967.7759</ele>
        <time>2020-09-15 15:59:23</time>
      </trkpt>
      <trkpt lat="45.68193" lon="6.23217">
        <ele>1967.7329</ele>
        <time>2020-09-15 15:59:26</time>
      </trkpt>
      <trkpt lat="45.68192" lon="6.23217">
        <ele>1967.4951</ele>
        <time>2020-09-15 15:59:30</time>
      </trkpt>
      <trkpt lat="45.68196" lon="6.23224">
        <ele>1963.8491</ele>
        <time>2020-09-15 15:59:41</time>
      </trkpt>
      <trkpt lat="45.68199" lon="6.23225">
        <ele>1963.21</ele>
        <time>2020-09-15 15:59:46</time>
      </trkpt>
      <trkpt lat="45.68201" lon="6.23223">
        <ele>1962.4941</ele>
        <time>2020-09-15 15:59:51</time>
      </trkpt>
      <trkpt lat="45.68201" lon="6.23223">
        <ele>1961.9932</ele>
        <time>2020-09-15 15:59:53</time>
      </trkpt>
      <trkpt lat="45.68201" lon="6.23225">
        <ele>1963.21</ele>
        <time>2020-09-15 15:59:56</time>
      </trkpt>
      <trkpt lat="45.68201" lon="6.23226">
        <ele>1962.0352</ele>
        <time>2020-09-15 15:59:57</time>
      </trkpt>
      <trkpt lat="45.68201" lon="6.23226">
        <ele>1961.9385</ele>
        <time>2020-09-15 15:59:58</time>
      </trkpt>
      <trkpt lat="45.68202" lon="6.23227">
        <ele>1961.4756</ele>
        <time>2020-09-15 16:00:00</time>
      </trkpt>
      <trkpt lat="45.68202" lon="6.23227">
        <ele>1961.5752</ele>
        <time>2020-09-15 16:00:02</time>
      </trkpt>
      <trkpt lat="45.68203" lon="6.23227">
        <ele>1962.0352</ele>
        <time>2020-09-15 16:00:06</time>
      </trkpt>
      <trkpt lat="45.68204" lon="6.23228">
        <ele>1959.5752</ele>
        <time>2020-09-15 16:00:07</time>
      </trkpt>
      <trkpt lat="45.68206" lon="6.2323">
        <ele>1960.2998</ele>
        <time>2020-09-15 16:00:14</time>
      </trkpt>
      <trkpt lat="45.68208" lon="6.23232">
        <ele>1959.5742</ele>
        <time>2020-09-15 16:00:18</time>
      </trkpt>
      <trkpt lat="45.6821" lon="6.23233">
        <ele>1958.7476</ele>
        <time>2020-09-15 16:00:23</time>
      </trkpt>
      <trkpt lat="45.6821" lon="6.23233">
        <ele>1958.7996</ele>
        <time>2020-09-15 16:00:24</time>
      </trkpt>
      <trkpt lat="45.68211" lon="6.23233">
        <ele>1958.5356</ele>
        <time>2020-09-15 16:00:27</time>
      </trkpt>
      <trkpt lat="45.68212" lon="6.23234">
        <ele>1958.011</ele>
        <time>2020-09-15 16:00:29</time>
      </trkpt>
      <trkpt lat="45.68213" lon="6.23237">
        <ele>1959.1953</ele>
        <time>2020-09-15 16:00:33</time>
      </trkpt>
      <trkpt lat="45.68212" lon="6.23238">
        <ele>1955.3057</ele>
        <time>2020-09-15 16:00:34</time>
      </trkpt>
      <trkpt lat="45.68212" lon="6.23239">
        <ele>1954.8167</ele>
        <time>2020-09-15 16:00:37</time>
      </trkpt>
      <trkpt lat="45.68212" lon="6.23241">
        <ele>1954.7671</ele>
        <time>2020-09-15 16:00:39</time>
      </trkpt>
      <trkpt lat="45.68211" lon="6.23249">
        <ele>1950.5244</ele>
        <time>2020-09-15 16:00:54</time>
      </trkpt>
      <trkpt lat="45.68211" lon="6.23249">
        <ele>1949.6982</ele>
        <time>2020-09-15 16:00:55</time>
      </trkpt>
      <trkpt lat="45.68214" lon="6.23249">
        <ele>1948.282</ele>
        <time>2020-09-15 16:00:58</time>
      </trkpt>
      <trkpt lat="45.6822" lon="6.23252">
        <ele>1947.6895</ele>
        <time>2020-09-15 16:01:13</time>
      </trkpt>
      <trkpt lat="45.68219" lon="6.23253">
        <ele>1942.9365</ele>
        <time>2020-09-15 16:01:17</time>
      </trkpt>
      <trkpt lat="45.68219" lon="6.23253">
        <ele>1942.7698</ele>
        <time>2020-09-15 16:01:18</time>
      </trkpt>
      <trkpt lat="45.6822" lon="6.23254">
        <ele>1942.3389</ele>
        <time>2020-09-15 16:01:20</time>
      </trkpt>
      <trkpt lat="45.6822" lon="6.23254">
        <ele>1941.5645</ele>
        <time>2020-09-15 16:01:21</time>
      </trkpt>
      <trkpt lat="45.6822" lon="6.23258">
        <ele>1943.9487</ele>
        <time>2020-09-15 16:01:26</time>
      </trkpt>
      <trkpt lat="45.6822" lon="6.23259">
        <ele>1940.7542</ele>
        <time>2020-09-15 16:01:27</time>
      </trkpt>
      <trkpt lat="45.68221" lon="6.23259">
        <ele>1940.4575</ele>
        <time>2020-09-15 16:01:28</time>
      </trkpt>
      <trkpt lat="45.68222" lon="6.23258">
        <ele>1939.5186</ele>
        <time>2020-09-15 16:01:33</time>
      </trkpt>
      <trkpt lat="45.68223" lon="6.23258">
        <ele>1939.1877</ele>
        <time>2020-09-15 16:01:35</time>
      </trkpt>
      <trkpt lat="45.68223" lon="6.23258">
        <ele>1940.7542</ele>
        <time>2020-09-15 16:01:38</time>
      </trkpt>
      <trkpt lat="45.68223" lon="6.23258">
        <ele>1939.4116</ele>
        <time>2020-09-15 16:01:39</time>
      </trkpt>
      <trkpt lat="45.68223" lon="6.23263">
        <ele>1938.9277</ele>
        <time>2020-09-15 16:01:46</time>
      </trkpt>
      <trkpt lat="45.68222" lon="6.23269">
        <ele>1939.1514</ele>
        <time>2020-09-15 16:01:57</time>
      </trkpt>
      <trkpt lat="45.68222" lon="6.23269">
        <ele>1938.9749</ele>
        <time>2020-09-15 16:01:58</time>
      </trkpt>
      <trkpt lat="45.68222" lon="6.23269">
        <ele>1938.9055</ele>
        <time>2020-09-15 16:01:59</time>
      </trkpt>
      <trkpt lat="45.68223" lon="6.23269">
        <ele>1939.2734</ele>
        <time>2020-09-15 16:02:00</time>
      </trkpt>
      <trkpt lat="45.68223" lon="6.23269">
        <ele>1938.0303</ele>
        <time>2020-09-15 16:02:01</time>
      </trkpt>
      <trkpt lat="45.68223" lon="6.23268">
        <ele>1938.7986</ele>
        <time>2020-09-15 16:02:04</time>
      </trkpt>
      <trkpt lat="45.68226" lon="6.23268">
        <ele>1937.5974</ele>
        <time>2020-09-15 16:02:08</time>
      </trkpt>
      <trkpt lat="45.68228" lon="6.23268">
        <ele>1937.1382</ele>
        <time>2020-09-15 16:02:11</time>
      </trkpt>
      <trkpt lat="45.68228" lon="6.2327">
        <ele>1937.0408</ele>
        <time>2020-09-15 16:02:13</time>
      </trkpt>
      <trkpt lat="45.68227" lon="6.23272">
        <ele>1936.4231</ele>
        <time>2020-09-15 16:02:16</time>
      </trkpt>
      <trkpt lat="45.68226" lon="6.23275">
        <ele>1935.3059</ele>
        <time>2020-09-15 16:02:19</time>
      </trkpt>
      <trkpt lat="45.68227" lon="6.23275">
        <ele>1934.6494</ele>
        <time>2020-09-15 16:02:24</time>
      </trkpt>
      <trkpt lat="45.68228" lon="6.23275">
        <ele>1934.3535</ele>
        <time>2020-09-15 16:02:27</time>
      </trkpt>
      <trkpt lat="45.68232" lon="6.23274">
        <ele>1933.4963</ele>
        <time>2020-09-15 16:02:34</time>
      </trkpt>
      <trkpt lat="45.68232" lon="6.23275">
        <ele>1932.8018</ele>
        <time>2020-09-15 16:02:36</time>
      </trkpt>
      <trkpt lat="45.68233" lon="6.23275">
        <ele>1932.2095</ele>
        <time>2020-09-15 16:02:37</time>
      </trkpt>
      <trkpt lat="45.68233" lon="6.23275">
        <ele>1931.8481</ele>
        <time>2020-09-15 16:02:38</time>
      </trkpt>
      <trkpt lat="45.68232" lon="6.23278">
        <ele>1929.8105</ele>
        <time>2020-09-15 16:02:41</time>
      </trkpt>
      <trkpt lat="45.68232" lon="6.23281">
        <ele>1926.8506</ele>
        <time>2020-09-15 16:02:46</time>
      </trkpt>
      <trkpt lat="45.68226" lon="6.2329">
        <ele>1922.3071</ele>
        <time>2020-09-15 16:03:04</time>
      </trkpt>
      <trkpt lat="45.68225" lon="6.23292">
        <ele>1922.21</ele>
        <time>2020-09-15 16:03:09</time>
      </trkpt>
      <trkpt lat="45.68222" lon="6.23294">
        <ele>1922.2266</ele>
        <time>2020-09-15 16:03:16</time>
      </trkpt>
      <trkpt lat="45.68222" lon="6.23295">
        <ele>1922.1365</ele>
        <time>2020-09-15 16:03:17</time>
      </trkpt>
      <trkpt lat="45.68223" lon="6.23296">
        <ele>1922.1306</ele>
        <time>2020-09-15 16:03:19</time>
      </trkpt>
      <trkpt lat="45.68224" lon="6.233">
        <ele>1921.1589</ele>
        <time>2020-09-15 16:03:23</time>
      </trkpt>
      <trkpt lat="45.68224" lon="6.23306">
        <ele>1918.0667</ele>
        <time>2020-09-15 16:03:36</time>
      </trkpt>
      <trkpt lat="45.68223" lon="6.23307">
        <ele>1917.458</ele>
        <time>2020-09-15 16:03:39</time>
      </trkpt>
      <trkpt lat="45.68222" lon="6.23307">
        <ele>1917.0984</ele>
        <time>2020-09-15 16:03:40</time>
      </trkpt>
      <trkpt lat="45.68221" lon="6.23307">
        <ele>1915.852</ele>
        <time>2020-09-15 16:03:42</time>
      </trkpt>
      <trkpt lat="45.6822" lon="6.23308">
        <ele>1915.7693</ele>
        <time>2020-09-15 16:03:45</time>
      </trkpt>
      <trkpt lat="45.68221" lon="6.2331">
        <ele>1915.0515</ele>
        <time>2020-09-15 16:03:49</time>
      </trkpt>
      <trkpt lat="45.68222" lon="6.23312">
        <ele>1915.544</ele>
        <time>2020-09-15 16:03:54</time>
      </trkpt>
      <trkpt lat="45.68221" lon="6.23313">
        <ele>1915.7578</ele>
        <time>2020-09-15 16:03:57</time>
      </trkpt>
      <trkpt lat="45.6822" lon="6.23317">
        <ele>1913.1611</ele>
        <time>2020-09-15 16:04:03</time>
      </trkpt>
      <trkpt lat="45.68219" lon="6.23319">
        <ele>1912.6704</ele>
        <time>2020-09-15 16:04:06</time>
      </trkpt>
      <trkpt lat="45.68221" lon="6.23327">
        <ele>1911.1748</ele>
        <time>2020-09-15 16:04:18</time>
      </trkpt>
      <trkpt lat="45.68221" lon="6.23328">
        <ele>1911.189</ele>
        <time>2020-09-15 16:04:19</time>
      </trkpt>
      <trkpt lat="45.68222" lon="6.2333">
        <ele>1910.458</ele>
        <time>2020-09-15 16:04:22</time>
      </trkpt>
      <trkpt lat="45.6822" lon="6.23336">
        <ele>1908.874</ele>
        <time>2020-09-15 16:04:31</time>
      </trkpt>
      <trkpt lat="45.68218" lon="6.23339">
        <ele>1906.1079</ele>
        <time>2020-09-15 16:04:36</time>
      </trkpt>
      <trkpt lat="45.68217" lon="6.2334">
        <ele>1906.3281</ele>
        <time>2020-09-15 16:04:38</time>
      </trkpt>
      <trkpt lat="45.68213" lon="6.23344">
        <ele>1905.6433</ele>
        <time>2020-09-15 16:04:49</time>
      </trkpt>
      <trkpt lat="45.68211" lon="6.2334">
        <ele>1905.529</ele>
        <time>2020-09-15 16:04:56</time>
      </trkpt>
      <trkpt lat="45.6821" lon="6.23341">
        <ele>1904.9661</ele>
        <time>2020-09-15 16:04:58</time>
      </trkpt>
      <trkpt lat="45.6821" lon="6.23341">
        <ele>1905.0737</ele>
        <time>2020-09-15 16:04:59</time>
      </trkpt>
      <trkpt lat="45.68211" lon="6.23343">
        <ele>1904.3328</ele>
        <time>2020-09-15 16:05:01</time>
      </trkpt>
      <trkpt lat="45.68211" lon="6.23346">
        <ele>1905.3604</ele>
        <time>2020-09-15 16:05:07</time>
      </trkpt>
      <trkpt lat="45.68211" lon="6.23351">
        <ele>1904.2744</ele>
        <time>2020-09-15 16:05:16</time>
      </trkpt>
      <trkpt lat="45.68211" lon="6.23351">
        <ele>1904.2041</ele>
        <time>2020-09-15 16:05:20</time>
      </trkpt>
      <trkpt lat="45.68212" lon="6.23352">
        <ele>1902.3989</ele>
        <time>2020-09-15 16:05:22</time>
      </trkpt>
      <trkpt lat="45.6821" lon="6.23356">
        <ele>1902.061</ele>
        <time>2020-09-15 16:05:29</time>
      </trkpt>
      <trkpt lat="45.6821" lon="6.23358">
        <ele>1900.9854</ele>
        <time>2020-09-15 16:05:33</time>
      </trkpt>
      <trkpt lat="45.68212" lon="6.2336">
        <ele>1899.2188</ele>
        <time>2020-09-15 16:05:38</time>
      </trkpt>
      <trkpt lat="45.68211" lon="6.23361">
        <ele>1898.2905</ele>
        <time>2020-09-15 16:05:41</time>
      </trkpt>
      <trkpt lat="45.68211" lon="6.23361">
        <ele>1898.249</ele>
        <time>2020-09-15 16:05:42</time>
      </trkpt>
      <trkpt lat="45.68211" lon="6.23361">
        <ele>1897.4268</ele>
        <time>2020-09-15 16:05:43</time>
      </trkpt>
      <trkpt lat="45.6821" lon="6.23364">
        <ele>1895.7026</ele>
        <time>2020-09-15 16:05:50</time>
      </trkpt>
      <trkpt lat="45.6821" lon="6.23364">
        <ele>1894.9565</ele>
        <time>2020-09-15 16:05:53</time>
      </trkpt>
      <trkpt lat="45.68211" lon="6.23365">
        <ele>1893.3623</ele>
        <time>2020-09-15 16:05:56</time>
      </trkpt>
      <trkpt lat="45.68212" lon="6.23365">
        <ele>1892.7407</ele>
        <time>2020-09-15 16:05:59</time>
      </trkpt>
      <trkpt lat="45.68213" lon="6.23366">
        <ele>1895.9482</ele>
        <time>2020-09-15 16:06:02</time>
      </trkpt>
      <trkpt lat="45.68214" lon="6.23367">
        <ele>1892.3872</ele>
        <time>2020-09-15 16:06:07</time>
      </trkpt>
      <trkpt lat="45.68216" lon="6.23369">
        <ele>1891.6987</ele>
        <time>2020-09-15 16:06:13</time>
      </trkpt>
      <trkpt lat="45.68216" lon="6.23369">
        <ele>1891.5625</ele>
        <time>2020-09-15 16:06:14</time>
      </trkpt>
      <trkpt lat="45.68216" lon="6.2337">
        <ele>1890.8679</ele>
        <time>2020-09-15 16:06:16</time>
      </trkpt>
      <trkpt lat="45.68216" lon="6.2337">
        <ele>1890.2153</ele>
        <time>2020-09-15 16:06:18</time>
      </trkpt>
      <trkpt lat="45.68216" lon="6.23371">
        <ele>1890.3015</ele>
        <time>2020-09-15 16:06:20</time>
      </trkpt>
      <trkpt lat="45.68216" lon="6.23371">
        <ele>1890.019</ele>
        <time>2020-09-15 16:06:22</time>
      </trkpt>
      <trkpt lat="45.68216" lon="6.23373">
        <ele>1890.4265</ele>
        <time>2020-09-15 16:06:26</time>
      </trkpt>
      <trkpt lat="45.68216" lon="6.23373">
        <ele>1890.0254</ele>
        <time>2020-09-15 16:06:27</time>
      </trkpt>
      <trkpt lat="45.68217" lon="6.23376">
        <ele>1888.5874</ele>
        <time>2020-09-15 16:06:31</time>
      </trkpt>
      <trkpt lat="45.68217" lon="6.23379">
        <ele>1887.9443</ele>
        <time>2020-09-15 16:06:33</time>
      </trkpt>
      <trkpt lat="45.68218" lon="6.23391">
        <ele>1885.8325</ele>
        <time>2020-09-15 16:06:43</time>
      </trkpt>
      <trkpt lat="45.68216" lon="6.23392">
        <ele>1884.3784</ele>
        <time>2020-09-15 16:06:46</time>
      </trkpt>
      <trkpt lat="45.68212" lon="6.23391">
        <ele>1883.4707</ele>
        <time>2020-09-15 16:06:50</time>
      </trkpt>
      <trkpt lat="45.68209" lon="6.23388">
        <ele>1885.7397</ele>
        <time>2020-09-15 16:06:54</time>
      </trkpt>
      <trkpt lat="45.68208" lon="6.23394">
        <ele>1880.7512</ele>
        <time>2020-09-15 16:07:01</time>
      </trkpt>
      <trkpt lat="45.68209" lon="6.23399">
        <ele>1882.9216</ele>
        <time>2020-09-15 16:07:05</time>
      </trkpt>
      <trkpt lat="45.6821" lon="6.23402">
        <ele>1878.7026</ele>
        <time>2020-09-15 16:07:08</time>
      </trkpt>
      <trkpt lat="45.68207" lon="6.23402">
        <ele>1876.7588</ele>
        <time>2020-09-15 16:07:13</time>
      </trkpt>
      <trkpt lat="45.68207" lon="6.23406">
        <ele>1873.345</ele>
        <time>2020-09-15 16:07:22</time>
      </trkpt>
      <trkpt lat="45.68207" lon="6.23408">
        <ele>1872.3333</ele>
        <time>2020-09-15 16:07:24</time>
      </trkpt>
      <trkpt lat="45.68205" lon="6.23409">
        <ele>1871.1655</ele>
        <time>2020-09-15 16:07:26</time>
      </trkpt>
      <trkpt lat="45.68201" lon="6.23414">
        <ele>1867.8977</ele>
        <time>2020-09-15 16:07:38</time>
      </trkpt>
      <trkpt lat="45.682" lon="6.23417">
        <ele>1867.208</ele>
        <time>2020-09-15 16:07:42</time>
      </trkpt>
      <trkpt lat="45.68197" lon="6.23417">
        <ele>1865.1074</ele>
        <time>2020-09-15 16:07:48</time>
      </trkpt>
      <trkpt lat="45.68197" lon="6.23418">
        <ele>1864.624</ele>
        <time>2020-09-15 16:07:49</time>
      </trkpt>
      <trkpt lat="45.68197" lon="6.23422">
        <ele>1865.7913</ele>
        <time>2020-09-15 16:07:55</time>
      </trkpt>
      <trkpt lat="45.68193" lon="6.23423">
        <ele>1861.2056</ele>
        <time>2020-09-15 16:08:00</time>
      </trkpt>
      <trkpt lat="45.68192" lon="6.23425">
        <ele>1860.6206</ele>
        <time>2020-09-15 16:08:03</time>
      </trkpt>
      <trkpt lat="45.68191" lon="6.23428">
        <ele>1859.1265</ele>
        <time>2020-09-15 16:08:07</time>
      </trkpt>
      <trkpt lat="45.68189" lon="6.2343">
        <ele>1858.5913</ele>
        <time>2020-09-15 16:08:09</time>
      </trkpt>
      <trkpt lat="45.68187" lon="6.23432">
        <ele>1857.7109</ele>
        <time>2020-09-15 16:08:12</time>
      </trkpt>
      <trkpt lat="45.68186" lon="6.23432">
        <ele>1858.1514</ele>
        <time>2020-09-15 16:08:15</time>
      </trkpt>
      <trkpt lat="45.68186" lon="6.23432">
        <ele>1857.6252</ele>
        <time>2020-09-15 16:08:20</time>
      </trkpt>
      <trkpt lat="45.68183" lon="6.23432">
        <ele>1857.5276</ele>
        <time>2020-09-15 16:08:27</time>
      </trkpt>
      <trkpt lat="45.68185" lon="6.23433">
        <ele>1858.0012</ele>
        <time>2020-09-15 16:11:57</time>
      </trkpt>
      <trkpt lat="45.68184" lon="6.23433">
        <ele>1858.1511</ele>
        <time>2020-09-15 16:11:59</time>
      </trkpt>
      <trkpt lat="45.68184" lon="6.23433">
        <ele>1858.8411</ele>
        <time>2020-09-15 16:12:44</time>
      </trkpt>
      <trkpt lat="45.68184" lon="6.23433">
        <ele>1858.98</ele>
        <time>2020-09-15 16:12:58</time>
      </trkpt>
      <trkpt lat="45.68184" lon="6.23433">
        <ele>1859.1411</ele>
        <time>2020-09-15 16:13:00</time>
      </trkpt>
      <trkpt lat="45.68183" lon="6.23433">
        <ele>1858.5293</ele>
        <time>2020-09-15 16:13:13</time>
      </trkpt>
      <trkpt lat="45.68183" lon="6.23433">
        <ele>1858.9224</ele>
        <time>2020-09-15 16:13:14</time>
      </trkpt>
      <trkpt lat="45.68185" lon="6.23431">
        <ele>1857.5508</ele>
        <time>2020-09-15 16:13:21</time>
      </trkpt>
      <trkpt lat="45.68185" lon="6.23431">
        <ele>1857.7642</ele>
        <time>2020-09-15 16:13:23</time>
      </trkpt>
      <trkpt lat="45.68184" lon="6.23431">
        <ele>1858.3569</ele>
        <time>2020-09-15 16:13:32</time>
      </trkpt>
      <trkpt lat="45.68184" lon="6.23431">
        <ele>1857.8572</ele>
        <time>2020-09-15 16:13:33</time>
      </trkpt>
      <trkpt lat="45.68184" lon="6.23431">
        <ele>1857.7935</ele>
        <time>2020-09-15 16:13:34</time>
      </trkpt>
      <trkpt lat="45.68183" lon="6.23432">
        <ele>1858.4956</ele>
        <time>2020-09-15 16:14:52</time>
      </trkpt>
      <trkpt lat="45.68183" lon="6.23432">
        <ele>1859.03</ele>
        <time>2020-09-15 16:14:54</time>
      </trkpt>
      <trkpt lat="45.68183" lon="6.23432">
        <ele>1858.4819</ele>
        <time>2020-09-15 16:15:00</time>
      </trkpt>
      <trkpt lat="45.68183" lon="6.23432">
        <ele>1858.4893</ele>
        <time>2020-09-15 16:15:02</time>
      </trkpt>
      <trkpt lat="45.68184" lon="6.23432">
        <ele>1857.657</ele>
        <time>2020-09-15 16:15:11</time>
      </trkpt>
      <trkpt lat="45.68184" lon="6.23432">
        <ele>1857.1931</ele>
        <time>2020-09-15 16:15:12</time>
      </trkpt>
      <trkpt lat="45.68184" lon="6.23432">
        <ele>1857.94</ele>
        <time>2020-09-15 16:15:32</time>
      </trkpt>
      <trkpt lat="45.68184" lon="6.23432">
        <ele>1858.7397</ele>
        <time>2020-09-15 16:15:34</time>
      </trkpt>
      <trkpt lat="45.68184" lon="6.23432">
        <ele>1858.7561</ele>
        <time>2020-09-15 16:15:38</time>
      </trkpt>
      <trkpt lat="45.68184" lon="6.23432">
        <ele>1858.7373</ele>
        <time>2020-09-15 16:15:39</time>
      </trkpt>
      <trkpt lat="45.68185" lon="6.23431">
        <ele>1858.3286</ele>
        <time>2020-09-15 16:15:47</time>
      </trkpt>
      <trkpt lat="45.68184" lon="6.23431">
        <ele>1858.949</ele>
        <time>2020-09-15 16:15:52</time>
      </trkpt>
      <trkpt lat="45.68184" lon="6.23431">
        <ele>1859.135</ele>
        <time>2020-09-15 16:15:53</time>
      </trkpt>
      <trkpt lat="45.68184" lon="6.23431">
        <ele>1858.2307</ele>
        <time>2020-09-15 16:15:55</time>
      </trkpt>
      <trkpt lat="45.68183" lon="6.23432">
        <ele>1857.5498</ele>
        <time>2020-09-15 16:16:16</time>
      </trkpt>
      <trkpt lat="45.68183" lon="6.23432">
        <ele>1858.0222</ele>
        <time>2020-09-15 16:16:17</time>
      </trkpt>
      <trkpt lat="45.68183" lon="6.23432">
        <ele>1858.4792</ele>
        <time>2020-09-15 16:16:22</time>
      </trkpt>
      <trkpt lat="45.68183" lon="6.23431">
        <ele>1858.4976</ele>
        <time>2020-09-15 16:16:23</time>
      </trkpt>
      <trkpt lat="45.68183" lon="6.23431">
        <ele>1858.2236</ele>
        <time>2020-09-15 16:16:24</time>
      </trkpt>
      <trkpt lat="45.68183" lon="6.2343">
        <ele>1857.9207</ele>
        <time>2020-09-15 16:16:29</time>
      </trkpt>
      <trkpt lat="45.68182" lon="6.2343">
        <ele>1857.9595</ele>
        <time>2020-09-15 16:16:35</time>
      </trkpt>
      <trkpt lat="45.68182" lon="6.23429">
        <ele>1857.3196</ele>
        <time>2020-09-15 16:16:37</time>
      </trkpt>
      <trkpt lat="45.68182" lon="6.23429">
        <ele>1856.9556</ele>
        <time>2020-09-15 16:16:38</time>
      </trkpt>
      <trkpt lat="45.68181" lon="6.23428">
        <ele>1856.7883</ele>
        <time>2020-09-15 16:16:41</time>
      </trkpt>
      <trkpt lat="45.68179" lon="6.23427">
        <ele>1857.8162</ele>
        <time>2020-09-15 16:16:46</time>
      </trkpt>
      <trkpt lat="45.68178" lon="6.23427">
        <ele>1858.2996</ele>
        <time>2020-09-15 16:17:00</time>
      </trkpt>
      <trkpt lat="45.68176" lon="6.23427">
        <ele>1858.2417</ele>
        <time>2020-09-15 16:17:02</time>
      </trkpt>
      <trkpt lat="45.68174" lon="6.23424">
        <ele>1856.5771</ele>
        <time>2020-09-15 16:17:06</time>
      </trkpt>
      <trkpt lat="45.6817" lon="6.23424">
        <ele>1854.2427</ele>
        <time>2020-09-15 16:17:11</time>
      </trkpt>
      <trkpt lat="45.68167" lon="6.23421">
        <ele>1851.5249</ele>
        <time>2020-09-15 16:17:17</time>
      </trkpt>
      <trkpt lat="45.68166" lon="6.2342">
        <ele>1849.5933</ele>
        <time>2020-09-15 16:17:21</time>
      </trkpt>
      <trkpt lat="45.68162" lon="6.23416">
        <ele>1847.0322</ele>
        <time>2020-09-15 16:17:29</time>
      </trkpt>
      <trkpt lat="45.6816" lon="6.23413">
        <ele>1845.2637</ele>
        <time>2020-09-15 16:17:36</time>
      </trkpt>
      <trkpt lat="45.68156" lon="6.23409">
        <ele>1840.1975</ele>
        <time>2020-09-15 16:17:46</time>
      </trkpt>
      <trkpt lat="45.68154" lon="6.23408">
        <ele>1839.6765</ele>
        <time>2020-09-15 16:17:49</time>
      </trkpt>
      <trkpt lat="45.68154" lon="6.23408">
        <ele>1839.7236</ele>
        <time>2020-09-15 16:17:52</time>
      </trkpt>
      <trkpt lat="45.68152" lon="6.23409">
        <ele>1839.5171</ele>
        <time>2020-09-15 16:17:56</time>
      </trkpt>
      <trkpt lat="45.68151" lon="6.23411">
        <ele>1839.0283</ele>
        <time>2020-09-15 16:17:59</time>
      </trkpt>
      <trkpt lat="45.68151" lon="6.23412">
        <ele>1839.1501</ele>
        <time>2020-09-15 16:18:00</time>
      </trkpt>
      <trkpt lat="45.68151" lon="6.23412">
        <ele>1839.2158</ele>
        <time>2020-09-15 16:18:01</time>
      </trkpt>
      <trkpt lat="45.68147" lon="6.23411">
        <ele>1837.6865</ele>
        <time>2020-09-15 16:18:07</time>
      </trkpt>
      <trkpt lat="45.68146" lon="6.23412">
        <ele>1835.7192</ele>
        <time>2020-09-15 16:18:09</time>
      </trkpt>
      <trkpt lat="45.68145" lon="6.23415">
        <ele>1833.7927</ele>
        <time>2020-09-15 16:18:14</time>
      </trkpt>
      <trkpt lat="45.68142" lon="6.23416">
        <ele>1834.1274</ele>
        <time>2020-09-15 16:18:18</time>
      </trkpt>
      <trkpt lat="45.6814" lon="6.23418">
        <ele>1832.9949</ele>
        <time>2020-09-15 16:18:22</time>
      </trkpt>
      <trkpt lat="45.68139" lon="6.23416">
        <ele>1832.062</ele>
        <time>2020-09-15 16:18:26</time>
      </trkpt>
      <trkpt lat="45.68137" lon="6.23416">
        <ele>1832.7454</ele>
        <time>2020-09-15 16:18:29</time>
      </trkpt>
      <trkpt lat="45.68135" lon="6.2342">
        <ele>1829.7361</ele>
        <time>2020-09-15 16:18:38</time>
      </trkpt>
      <trkpt lat="45.68134" lon="6.23422">
        <ele>1828.5391</ele>
        <time>2020-09-15 16:18:42</time>
      </trkpt>
      <trkpt lat="45.68132" lon="6.23419">
        <ele>1827.677</ele>
        <time>2020-09-15 16:18:47</time>
      </trkpt>
      <trkpt lat="45.6813" lon="6.23423">
        <ele>1825.6177</ele>
        <time>2020-09-15 16:18:51</time>
      </trkpt>
      <trkpt lat="45.6813" lon="6.23427">
        <ele>1823.3281</ele>
        <time>2020-09-15 16:18:55</time>
      </trkpt>
      <trkpt lat="45.68127" lon="6.23431">
        <ele>1822.3921</ele>
        <time>2020-09-15 16:19:00</time>
      </trkpt>
      <trkpt lat="45.68122" lon="6.23434">
        <ele>1822.186</ele>
        <time>2020-09-15 16:19:05</time>
      </trkpt>
      <trkpt lat="45.6812" lon="6.23439">
        <ele>1820.0657</ele>
        <time>2020-09-15 16:19:10</time>
      </trkpt>
      <trkpt lat="45.68118" lon="6.23442">
        <ele>1817.8223</ele>
        <time>2020-09-15 16:19:13</time>
      </trkpt>
      <trkpt lat="45.68118" lon="6.23447">
        <ele>1817.2358</ele>
        <time>2020-09-15 16:19:16</time>
      </trkpt>
      <trkpt lat="45.68117" lon="6.23451">
        <ele>1817.2695</ele>
        <time>2020-09-15 16:19:19</time>
      </trkpt>
      <trkpt lat="45.68116" lon="6.23453">
        <ele>1816.9292</ele>
        <time>2020-09-15 16:19:21</time>
      </trkpt>
      <trkpt lat="45.68112" lon="6.23455">
        <ele>1816.2561</ele>
        <time>2020-09-15 16:19:27</time>
      </trkpt>
      <trkpt lat="45.68107" lon="6.23455">
        <ele>1813.5356</ele>
        <time>2020-09-15 16:19:35</time>
      </trkpt>
      <trkpt lat="45.68107" lon="6.23457">
        <ele>1812.4304</ele>
        <time>2020-09-15 16:19:37</time>
      </trkpt>
      <trkpt lat="45.68106" lon="6.23459">
        <ele>1811.9697</ele>
        <time>2020-09-15 16:19:40</time>
      </trkpt>
      <trkpt lat="45.68104" lon="6.23459">
        <ele>1810.8091</ele>
        <time>2020-09-15 16:19:44</time>
      </trkpt>
      <trkpt lat="45.681" lon="6.23458">
        <ele>1809.3643</ele>
        <time>2020-09-15 16:19:50</time>
      </trkpt>
      <trkpt lat="45.68097" lon="6.23461">
        <ele>1809.0989</ele>
        <time>2020-09-15 16:19:54</time>
      </trkpt>
      <trkpt lat="45.68095" lon="6.2346">
        <ele>1808.2961</ele>
        <time>2020-09-15 16:19:58</time>
      </trkpt>
      <trkpt lat="45.68093" lon="6.2346">
        <ele>1807.3345</ele>
        <time>2020-09-15 16:20:00</time>
      </trkpt>
      <trkpt lat="45.68094" lon="6.23465">
        <ele>1805.2317</ele>
        <time>2020-09-15 16:20:04</time>
      </trkpt>
      <trkpt lat="45.68095" lon="6.23468">
        <ele>1804.814</ele>
        <time>2020-09-15 16:20:06</time>
      </trkpt>
      <trkpt lat="45.68094" lon="6.23473">
        <ele>1804.2175</ele>
        <time>2020-09-15 16:20:09</time>
      </trkpt>
      <trkpt lat="45.68091" lon="6.23476">
        <ele>1803.8049</ele>
        <time>2020-09-15 16:20:13</time>
      </trkpt>
      <trkpt lat="45.68087" lon="6.23484">
        <ele>1801.5039</ele>
        <time>2020-09-15 16:20:20</time>
      </trkpt>
      <trkpt lat="45.68086" lon="6.23488">
        <ele>1800.1123</ele>
        <time>2020-09-15 16:20:23</time>
      </trkpt>
      <trkpt lat="45.68086" lon="6.23491">
        <ele>1799.7192</ele>
        <time>2020-09-15 16:20:27</time>
      </trkpt>
      <trkpt lat="45.68087" lon="6.23492">
        <ele>1798.3672</ele>
        <time>2020-09-15 16:20:29</time>
      </trkpt>
      <trkpt lat="45.68086" lon="6.23492">
        <ele>1797.9377</ele>
        <time>2020-09-15 16:20:32</time>
      </trkpt>
      <trkpt lat="45.68084" lon="6.23501">
        <ele>1794.0459</ele>
        <time>2020-09-15 16:20:38</time>
      </trkpt>
      <trkpt lat="45.68078" lon="6.23511">
        <ele>1790.5693</ele>
        <time>2020-09-15 16:20:48</time>
      </trkpt>
      <trkpt lat="45.68077" lon="6.23513">
        <ele>1789.5552</ele>
        <time>2020-09-15 16:20:51</time>
      </trkpt>
      <trkpt lat="45.68077" lon="6.23519">
        <ele>1789.0366</ele>
        <time>2020-09-15 16:20:54</time>
      </trkpt>
      <trkpt lat="45.68076" lon="6.23522">
        <ele>1788.8618</ele>
        <time>2020-09-15 16:20:56</time>
      </trkpt>
      <trkpt lat="45.68076" lon="6.23527">
        <ele>1787.7305</ele>
        <time>2020-09-15 16:20:59</time>
      </trkpt>
      <trkpt lat="45.68075" lon="6.23532">
        <ele>1787.3169</ele>
        <time>2020-09-15 16:21:02</time>
      </trkpt>
      <trkpt lat="45.68075" lon="6.23537">
        <ele>1785.8457</ele>
        <time>2020-09-15 16:21:07</time>
      </trkpt>
      <trkpt lat="45.68075" lon="6.2354">
        <ele>1785.7844</ele>
        <time>2020-09-15 16:21:10</time>
      </trkpt>
      <trkpt lat="45.68074" lon="6.23545">
        <ele>1784.7412</ele>
        <time>2020-09-15 16:21:14</time>
      </trkpt>
      <trkpt lat="45.68073" lon="6.23549">
        <ele>1783.8555</ele>
        <time>2020-09-15 16:21:18</time>
      </trkpt>
      <trkpt lat="45.68074" lon="6.23554">
        <ele>1783.8403</ele>
        <time>2020-09-15 16:21:22</time>
      </trkpt>
      <trkpt lat="45.68073" lon="6.23558">
        <ele>1784.4243</ele>
        <time>2020-09-15 16:21:26</time>
      </trkpt>
      <trkpt lat="45.68071" lon="6.23563">
        <ele>1784.05</ele>
        <time>2020-09-15 16:21:31</time>
      </trkpt>
      <trkpt lat="45.68069" lon="6.23569">
        <ele>1784.1611</ele>
        <time>2020-09-15 16:21:36</time>
      </trkpt>
      <trkpt lat="45.68069" lon="6.23577">
        <ele>1784.5005</ele>
        <time>2020-09-15 16:21:43</time>
      </trkpt>
      <trkpt lat="45.68066" lon="6.23581">
        <ele>1783.6936</ele>
        <time>2020-09-15 16:21:48</time>
      </trkpt>
      <trkpt lat="45.68064" lon="6.23582">
        <ele>1782.5264</ele>
        <time>2020-09-15 16:21:50</time>
      </trkpt>
      <trkpt lat="45.68063" lon="6.23581">
        <ele>1782.272</ele>
        <time>2020-09-15 16:21:53</time>
      </trkpt>
      <trkpt lat="45.68063" lon="6.23581">
        <ele>1784.7139</ele>
        <time>2020-09-15 16:21:54</time>
      </trkpt>
      <trkpt lat="45.68063" lon="6.23582">
        <ele>1781.6372</ele>
        <time>2020-09-15 16:21:56</time>
      </trkpt>
      <trkpt lat="45.68063" lon="6.23584">
        <ele>1781.3677</ele>
        <time>2020-09-15 16:21:58</time>
      </trkpt>
      <trkpt lat="45.68062" lon="6.23586">
        <ele>1780.8516</ele>
        <time>2020-09-15 16:22:00</time>
      </trkpt>
      <trkpt lat="45.68058" lon="6.23592">
        <ele>1779.0522</ele>
        <time>2020-09-15 16:22:08</time>
      </trkpt>
      <trkpt lat="45.68054" lon="6.23595">
        <ele>1777.6047</ele>
        <time>2020-09-15 16:22:14</time>
      </trkpt>
      <trkpt lat="45.68054" lon="6.23597">
        <ele>1776.2183</ele>
        <time>2020-09-15 16:22:16</time>
      </trkpt>
      <trkpt lat="45.68052" lon="6.236">
        <ele>1776.1558</ele>
        <time>2020-09-15 16:22:22</time>
      </trkpt>
      <trkpt lat="45.6805" lon="6.23602">
        <ele>1775.1411</ele>
        <time>2020-09-15 16:22:25</time>
      </trkpt>
      <trkpt lat="45.68049" lon="6.23606">
        <ele>1772.0645</ele>
        <time>2020-09-15 16:22:30</time>
      </trkpt>
      <trkpt lat="45.68046" lon="6.23609">
        <ele>1769.1758</ele>
        <time>2020-09-15 16:22:36</time>
      </trkpt>
      <trkpt lat="45.68045" lon="6.23613">
        <ele>1768.523</ele>
        <time>2020-09-15 16:22:42</time>
      </trkpt>
      <trkpt lat="45.68047" lon="6.23615">
        <ele>1768.1836</ele>
        <time>2020-09-15 16:22:47</time>
      </trkpt>
      <trkpt lat="45.68045" lon="6.23618">
        <ele>1765.5161</ele>
        <time>2020-09-15 16:22:53</time>
      </trkpt>
      <trkpt lat="45.68042" lon="6.2362">
        <ele>1764.6677</ele>
        <time>2020-09-15 16:22:58</time>
      </trkpt>
      <trkpt lat="45.68037" lon="6.23623">
        <ele>1760.6597</ele>
        <time>2020-09-15 16:23:10</time>
      </trkpt>
      <trkpt lat="45.68037" lon="6.23623">
        <ele>1761.1338</ele>
        <time>2020-09-15 16:23:11</time>
      </trkpt>
      <trkpt lat="45.68037" lon="6.23623">
        <ele>1760.5547</ele>
        <time>2020-09-15 16:23:12</time>
      </trkpt>
      <trkpt lat="45.68034" lon="6.23625">
        <ele>1760.0742</ele>
        <time>2020-09-15 16:23:15</time>
      </trkpt>
      <trkpt lat="45.6803" lon="6.23627">
        <ele>1758.1343</ele>
        <time>2020-09-15 16:23:21</time>
      </trkpt>
      <trkpt lat="45.68027" lon="6.23627">
        <ele>1757.3984</ele>
        <time>2020-09-15 16:23:25</time>
      </trkpt>
      <trkpt lat="45.68025" lon="6.23628">
        <ele>1756.9541</ele>
        <time>2020-09-15 16:23:29</time>
      </trkpt>
      <trkpt lat="45.68021" lon="6.2363">
        <ele>1755.4194</ele>
        <time>2020-09-15 16:23:35</time>
      </trkpt>
      <trkpt lat="45.68015" lon="6.23638">
        <ele>1751.5317</ele>
        <time>2020-09-15 16:23:50</time>
      </trkpt>
      <trkpt lat="45.68011" lon="6.2364">
        <ele>1752.4243</ele>
        <time>2020-09-15 16:23:58</time>
      </trkpt>
      <trkpt lat="45.68009" lon="6.23641">
        <ele>1748.813</ele>
        <time>2020-09-15 16:24:01</time>
      </trkpt>
      <trkpt lat="45.68006" lon="6.23643">
        <ele>1749.3452</ele>
        <time>2020-09-15 16:24:11</time>
      </trkpt>
      <trkpt lat="45.68001" lon="6.23647">
        <ele>1742.9307</ele>
        <time>2020-09-15 16:24:20</time>
      </trkpt>
      <trkpt lat="45.67996" lon="6.23646">
        <ele>1742.2996</ele>
        <time>2020-09-15 16:24:26</time>
      </trkpt>
      <trkpt lat="45.67992" lon="6.23646">
        <ele>1740.5369</ele>
        <time>2020-09-15 16:24:30</time>
      </trkpt>
      <trkpt lat="45.6799" lon="6.23646">
        <ele>1740.5498</ele>
        <time>2020-09-15 16:24:34</time>
      </trkpt>
      <trkpt lat="45.67986" lon="6.23647">
        <ele>1738.6372</ele>
        <time>2020-09-15 16:24:39</time>
      </trkpt>
      <trkpt lat="45.67982" lon="6.23645">
        <ele>1737.769</ele>
        <time>2020-09-15 16:24:44</time>
      </trkpt>
      <trkpt lat="45.6798" lon="6.23644">
        <ele>1736.8313</ele>
        <time>2020-09-15 16:24:47</time>
      </trkpt>
      <trkpt lat="45.67977" lon="6.23645">
        <ele>1738.9203</ele>
        <time>2020-09-15 16:24:51</time>
      </trkpt>
      <trkpt lat="45.6797" lon="6.23652">
        <ele>1731.8962</ele>
        <time>2020-09-15 16:25:04</time>
      </trkpt>
      <trkpt lat="45.67969" lon="6.23654">
        <ele>1730.5845</ele>
        <time>2020-09-15 16:25:07</time>
      </trkpt>
      <trkpt lat="45.67969" lon="6.23654">
        <ele>1729.8843</ele>
        <time>2020-09-15 16:25:08</time>
      </trkpt>
      <trkpt lat="45.67969" lon="6.23655">
        <ele>1729.4404</ele>
        <time>2020-09-15 16:25:09</time>
      </trkpt>
      <trkpt lat="45.6797" lon="6.23658">
        <ele>1728.7471</ele>
        <time>2020-09-15 16:25:12</time>
      </trkpt>
      <trkpt lat="45.6797" lon="6.23661">
        <ele>1730.5886</ele>
        <time>2020-09-15 16:25:17</time>
      </trkpt>
      <trkpt lat="45.67967" lon="6.23663">
        <ele>1730.1763</ele>
        <time>2020-09-15 16:25:22</time>
      </trkpt>
      <trkpt lat="45.67969" lon="6.23668">
        <ele>1728.2954</ele>
        <time>2020-09-15 16:25:29</time>
      </trkpt>
      <trkpt lat="45.67965" lon="6.23671">
        <ele>1726.2327</ele>
        <time>2020-09-15 16:25:35</time>
      </trkpt>
      <trkpt lat="45.67968" lon="6.2368">
        <ele>1723.4287</ele>
        <time>2020-09-15 16:25:48</time>
      </trkpt>
      <trkpt lat="45.67969" lon="6.23681">
        <ele>1725.9277</ele>
        <time>2020-09-15 16:25:51</time>
      </trkpt>
      <trkpt lat="45.67969" lon="6.23682">
        <ele>1722.0984</ele>
        <time>2020-09-15 16:25:52</time>
      </trkpt>
      <trkpt lat="45.67969" lon="6.23683">
        <ele>1721.3232</ele>
        <time>2020-09-15 16:25:54</time>
      </trkpt>
      <trkpt lat="45.67966" lon="6.2369">
        <ele>1718.8457</ele>
        <time>2020-09-15 16:26:04</time>
      </trkpt>
      <trkpt lat="45.67966" lon="6.23695">
        <ele>1717.581</ele>
        <time>2020-09-15 16:26:11</time>
      </trkpt>
      <trkpt lat="45.67964" lon="6.23697">
        <ele>1716.5361</ele>
        <time>2020-09-15 16:26:16</time>
      </trkpt>
      <trkpt lat="45.67964" lon="6.237">
        <ele>1715.2661</ele>
        <time>2020-09-15 16:26:19</time>
      </trkpt>
      <trkpt lat="45.67965" lon="6.23707">
        <ele>1713.457</ele>
        <time>2020-09-15 16:26:28</time>
      </trkpt>
      <trkpt lat="45.67964" lon="6.2371">
        <ele>1711.3291</ele>
        <time>2020-09-15 16:26:31</time>
      </trkpt>
      <trkpt lat="45.67961" lon="6.23711">
        <ele>1710.5088</ele>
        <time>2020-09-15 16:26:36</time>
      </trkpt>
      <trkpt lat="45.67961" lon="6.23714">
        <ele>1710.4072</ele>
        <time>2020-09-15 16:26:39</time>
      </trkpt>
      <trkpt lat="45.67961" lon="6.23717">
        <ele>1708.8652</ele>
        <time>2020-09-15 16:26:42</time>
      </trkpt>
      <trkpt lat="45.67958" lon="6.23722">
        <ele>1703.0303</ele>
        <time>2020-09-15 16:26:54</time>
      </trkpt>
      <trkpt lat="45.67957" lon="6.23724">
        <ele>1703.7734</ele>
        <time>2020-09-15 16:26:57</time>
      </trkpt>
      <trkpt lat="45.67956" lon="6.23728">
        <ele>1703.0488</ele>
        <time>2020-09-15 16:27:01</time>
      </trkpt>
      <trkpt lat="45.67953" lon="6.23735">
        <ele>1698.3398</ele>
        <time>2020-09-15 16:27:12</time>
      </trkpt>
      <trkpt lat="45.67953" lon="6.23737">
        <ele>1698.2192</ele>
        <time>2020-09-15 16:27:14</time>
      </trkpt>
      <trkpt lat="45.67954" lon="6.23743">
        <ele>1698.294</ele>
        <time>2020-09-15 16:27:20</time>
      </trkpt>
      <trkpt lat="45.67954" lon="6.23745">
        <ele>1695.698</ele>
        <time>2020-09-15 16:27:24</time>
      </trkpt>
      <trkpt lat="45.67951" lon="6.23745">
        <ele>1693.4819</ele>
        <time>2020-09-15 16:27:28</time>
      </trkpt>
      <trkpt lat="45.67947" lon="6.2375">
        <ele>1691.3547</ele>
        <time>2020-09-15 16:27:34</time>
      </trkpt>
      <trkpt lat="45.67945" lon="6.23751">
        <ele>1690.8745</ele>
        <time>2020-09-15 16:27:38</time>
      </trkpt>
      <trkpt lat="45.67945" lon="6.23751">
        <ele>1690.7476</ele>
        <time>2020-09-15 16:27:39</time>
      </trkpt>
      <trkpt lat="45.67945" lon="6.23751">
        <ele>1690.813</ele>
        <time>2020-09-15 16:27:40</time>
      </trkpt>
      <trkpt lat="45.67945" lon="6.23753">
        <ele>1689.7957</ele>
        <time>2020-09-15 16:27:43</time>
      </trkpt>
      <trkpt lat="45.67944" lon="6.23754">
        <ele>1690.019</ele>
        <time>2020-09-15 16:27:45</time>
      </trkpt>
      <trkpt lat="45.67943" lon="6.23757">
        <ele>1688.956</ele>
        <time>2020-09-15 16:27:49</time>
      </trkpt>
      <trkpt lat="45.6794" lon="6.23762">
        <ele>1686.332</ele>
        <time>2020-09-15 16:27:56</time>
      </trkpt>
      <trkpt lat="45.67939" lon="6.23765">
        <ele>1689.521</ele>
        <time>2020-09-15 16:27:59</time>
      </trkpt>
      <trkpt lat="45.67938" lon="6.2377">
        <ele>1684.0825</ele>
        <time>2020-09-15 16:28:05</time>
      </trkpt>
      <trkpt lat="45.67938" lon="6.23773">
        <ele>1683.8618</ele>
        <time>2020-09-15 16:28:08</time>
      </trkpt>
      <trkpt lat="45.67939" lon="6.23774">
        <ele>1684.1343</ele>
        <time>2020-09-15 16:28:11</time>
      </trkpt>
      <trkpt lat="45.67939" lon="6.23774">
        <ele>1684.1997</ele>
        <time>2020-09-15 16:28:13</time>
      </trkpt>
      <trkpt lat="45.67939" lon="6.23773">
        <ele>1684.4141</ele>
        <time>2020-09-15 16:28:14</time>
      </trkpt>
      <trkpt lat="45.67939" lon="6.23773">
        <ele>1684.7014</ele>
        <time>2020-09-15 16:28:19</time>
      </trkpt>
      <trkpt lat="45.6794" lon="6.23775">
        <ele>1685.3086</ele>
        <time>2020-09-15 16:28:23</time>
      </trkpt>
      <trkpt lat="45.6794" lon="6.23775">
        <ele>1685.197</ele>
        <time>2020-09-15 16:28:24</time>
      </trkpt>
      <trkpt lat="45.67941" lon="6.23777">
        <ele>1684.5359</ele>
        <time>2020-09-15 16:28:26</time>
      </trkpt>
      <trkpt lat="45.67944" lon="6.23783">
        <ele>1685.3086</ele>
        <time>2020-09-15 16:28:32</time>
      </trkpt>
      <trkpt lat="45.67949" lon="6.23797">
        <ele>1680.5923</ele>
        <time>2020-09-15 16:28:44</time>
      </trkpt>
      <trkpt lat="45.6795" lon="6.23803">
        <ele>1679.5127</ele>
        <time>2020-09-15 16:28:50</time>
      </trkpt>
      <trkpt lat="45.67951" lon="6.23807">
        <ele>1678.0854</ele>
        <time>2020-09-15 16:28:53</time>
      </trkpt>
      <trkpt lat="45.67955" lon="6.23817">
        <ele>1676.9463</ele>
        <time>2020-09-15 16:29:00</time>
      </trkpt>
      <trkpt lat="45.67956" lon="6.23821">
        <ele>1675.4539</ele>
        <time>2020-09-15 16:29:04</time>
      </trkpt>
      <trkpt lat="45.67962" lon="6.23837">
        <ele>1675.4539</ele>
        <time>2020-09-15 16:29:17</time>
      </trkpt>
      <trkpt lat="45.67962" lon="6.23839">
        <ele>1670.9067</ele>
        <time>2020-09-15 16:29:19</time>
      </trkpt>
      <trkpt lat="45.67961" lon="6.23841">
        <ele>1669.8887</ele>
        <time>2020-09-15 16:29:21</time>
      </trkpt>
      <trkpt lat="45.6796" lon="6.23848">
        <ele>1670.1367</ele>
        <time>2020-09-15 16:29:27</time>
      </trkpt>
      <trkpt lat="45.67959" lon="6.23852">
        <ele>1668.6826</ele>
        <time>2020-09-15 16:29:30</time>
      </trkpt>
      <trkpt lat="45.67958" lon="6.23854">
        <ele>1668.812</ele>
        <time>2020-09-15 16:29:32</time>
      </trkpt>
      <trkpt lat="45.67956" lon="6.23856">
        <ele>1669.5933</ele>
        <time>2020-09-15 16:29:35</time>
      </trkpt>
      <trkpt lat="45.67956" lon="6.23859">
        <ele>1668.6274</ele>
        <time>2020-09-15 16:29:37</time>
      </trkpt>
      <trkpt lat="45.67955" lon="6.23863">
        <ele>1666.7661</ele>
        <time>2020-09-15 16:29:40</time>
      </trkpt>
      <trkpt lat="45.67954" lon="6.23868">
        <ele>1664.4263</ele>
        <time>2020-09-15 16:29:44</time>
      </trkpt>
      <trkpt lat="45.67954" lon="6.23873">
        <ele>1663.6187</ele>
        <time>2020-09-15 16:29:47</time>
      </trkpt>
      <trkpt lat="45.67952" lon="6.23876">
        <ele>1663.1396</ele>
        <time>2020-09-15 16:29:50</time>
      </trkpt>
      <trkpt lat="45.67951" lon="6.2388">
        <ele>1662.4272</ele>
        <time>2020-09-15 16:29:53</time>
      </trkpt>
      <trkpt lat="45.67951" lon="6.23882">
        <ele>1661.7961</ele>
        <time>2020-09-15 16:29:55</time>
      </trkpt>
      <trkpt lat="45.67952" lon="6.23887">
        <ele>1663.3457</ele>
        <time>2020-09-15 16:29:59</time>
      </trkpt>
      <trkpt lat="45.67952" lon="6.23892">
        <ele>1662.0232</ele>
        <time>2020-09-15 16:30:03</time>
      </trkpt>
      <trkpt lat="45.67952" lon="6.23897">
        <ele>1659.9377</ele>
        <time>2020-09-15 16:30:09</time>
      </trkpt>
      <trkpt lat="45.67952" lon="6.23899">
        <ele>1660.1025</ele>
        <time>2020-09-15 16:30:10</time>
      </trkpt>
      <trkpt lat="45.67951" lon="6.23913">
        <ele>1658.3262</ele>
        <time>2020-09-15 16:30:19</time>
      </trkpt>
      <trkpt lat="45.6795" lon="6.23916">
        <ele>1657.3472</ele>
        <time>2020-09-15 16:30:21</time>
      </trkpt>
      <trkpt lat="45.6795" lon="6.23922">
        <ele>1659.5454</ele>
        <time>2020-09-15 16:30:26</time>
      </trkpt>
      <trkpt lat="45.6795" lon="6.23924">
        <ele>1656.544</ele>
        <time>2020-09-15 16:30:29</time>
      </trkpt>
      <trkpt lat="45.6795" lon="6.23924">
        <ele>1656.3687</ele>
        <time>2020-09-15 16:30:30</time>
      </trkpt>
      <trkpt lat="45.67949" lon="6.23922">
        <ele>1655.7534</ele>
        <time>2020-09-15 16:30:33</time>
      </trkpt>
      <trkpt lat="45.67947" lon="6.23918">
        <ele>1655.437</ele>
        <time>2020-09-15 16:30:36</time>
      </trkpt>
      <trkpt lat="45.67946" lon="6.23917">
        <ele>1654.8413</ele>
        <time>2020-09-15 16:30:37</time>
      </trkpt>
      <trkpt lat="45.67944" lon="6.23912">
        <ele>1654.7046</ele>
        <time>2020-09-15 16:30:41</time>
      </trkpt>
      <trkpt lat="45.6794" lon="6.2391">
        <ele>1654.502</ele>
        <time>2020-09-15 16:30:45</time>
      </trkpt>
      <trkpt lat="45.67938" lon="6.23911">
        <ele>1652.8882</ele>
        <time>2020-09-15 16:30:49</time>
      </trkpt>
      <trkpt lat="45.67934" lon="6.23915">
        <ele>1654.7046</ele>
        <time>2020-09-15 16:30:54</time>
      </trkpt>
      <trkpt lat="45.67933" lon="6.23916">
        <ele>1652.2725</ele>
        <time>2020-09-15 16:30:55</time>
      </trkpt>
      <trkpt lat="45.67932" lon="6.23917">
        <ele>1652.0928</ele>
        <time>2020-09-15 16:30:58</time>
      </trkpt>
      <trkpt lat="45.67928" lon="6.23928">
        <ele>1652.2725</ele>
        <time>2020-09-15 16:31:08</time>
      </trkpt>
      <trkpt lat="45.67924" lon="6.23934">
        <ele>1645.8779</ele>
        <time>2020-09-15 16:31:14</time>
      </trkpt>
      <trkpt lat="45.67924" lon="6.23934">
        <ele>1646.3647</ele>
        <time>2020-09-15 16:31:17</time>
      </trkpt>
      <trkpt lat="45.67925" lon="6.23934">
        <ele>1646.2812</ele>
        <time>2020-09-15 16:31:23</time>
      </trkpt>
      <trkpt lat="45.67924" lon="6.23933">
        <ele>1648.1553</ele>
        <time>2020-09-15 16:31:28</time>
      </trkpt>
      <trkpt lat="45.67922" lon="6.23933">
        <ele>1649.6279</ele>
        <time>2020-09-15 16:31:40</time>
      </trkpt>
      <trkpt lat="45.67922" lon="6.23932">
        <ele>1650.0234</ele>
        <time>2020-09-15 16:31:42</time>
      </trkpt>
      <trkpt lat="45.67921" lon="6.23933">
        <ele>1652.4316</ele>
        <time>2020-09-15 16:32:00</time>
      </trkpt>
      <trkpt lat="45.67921" lon="6.2393">
        <ele>1652.5117</ele>
        <time>2020-09-15 16:32:03</time>
      </trkpt>
      <trkpt lat="45.67918" lon="6.23923">
        <ele>1651.7095</ele>
        <time>2020-09-15 16:32:09</time>
      </trkpt>
      <trkpt lat="45.67917" lon="6.23922">
        <ele>1651.9639</ele>
        <time>2020-09-15 16:32:10</time>
      </trkpt>
      <trkpt lat="45.67913" lon="6.23916">
        <ele>1651.3481</ele>
        <time>2020-09-15 16:32:16</time>
      </trkpt>
      <trkpt lat="45.67912" lon="6.23915">
        <ele>1650.7568</ele>
        <time>2020-09-15 16:32:17</time>
      </trkpt>
      <trkpt lat="45.67911" lon="6.23911">
        <ele>1650.8179</ele>
        <time>2020-09-15 16:32:20</time>
      </trkpt>
      <trkpt lat="45.6791" lon="6.23908">
        <ele>1651.0537</ele>
        <time>2020-09-15 16:32:22</time>
      </trkpt>
      <trkpt lat="45.67909" lon="6.23906">
        <ele>1650.9629</ele>
        <time>2020-09-15 16:32:24</time>
      </trkpt>
      <trkpt lat="45.67904" lon="6.23893">
        <ele>1651.4646</ele>
        <time>2020-09-15 16:32:36</time>
      </trkpt>
      <trkpt lat="45.67899" lon="6.23885">
        <ele>1652.4153</ele>
        <time>2020-09-15 16:32:45</time>
      </trkpt>
      <trkpt lat="45.67892" lon="6.23879">
        <ele>1651.1206</ele>
        <time>2020-09-15 16:32:52</time>
      </trkpt>
      <trkpt lat="45.67891" lon="6.23877">
        <ele>1651.8242</ele>
        <time>2020-09-15 16:32:55</time>
      </trkpt>
      <trkpt lat="45.67891" lon="6.23876">
        <ele>1651.3538</ele>
        <time>2020-09-15 16:32:57</time>
      </trkpt>
      <trkpt lat="45.67891" lon="6.23876">
        <ele>1650.876</ele>
        <time>2020-09-15 16:32:58</time>
      </trkpt>
      <trkpt lat="45.6789" lon="6.23876">
        <ele>1650.957</ele>
        <time>2020-09-15 16:33:01</time>
      </trkpt>
      <trkpt lat="45.67889" lon="6.23877">
        <ele>1650.1113</ele>
        <time>2020-09-15 16:33:03</time>
      </trkpt>
      <trkpt lat="45.67887" lon="6.23876">
        <ele>1651.8242</ele>
        <time>2020-09-15 16:33:06</time>
      </trkpt>
      <trkpt lat="45.67886" lon="6.23873">
        <ele>1649.6152</ele>
        <time>2020-09-15 16:33:10</time>
      </trkpt>
      <trkpt lat="45.67886" lon="6.23873">
        <ele>1648.7329</ele>
        <time>2020-09-15 16:33:14</time>
      </trkpt>
      <trkpt lat="45.67885" lon="6.23873">
        <ele>1649.1387</ele>
        <time>2020-09-15 16:33:16</time>
      </trkpt>
      <trkpt lat="45.67885" lon="6.23873">
        <ele>1648.8538</ele>
        <time>2020-09-15 16:33:21</time>
      </trkpt>
      <trkpt lat="45.67885" lon="6.23874">
        <ele>1648.0215</ele>
        <time>2020-09-15 16:33:23</time>
      </trkpt>
      <trkpt lat="45.67883" lon="6.23874">
        <ele>1647.2058</ele>
        <time>2020-09-15 16:34:13</time>
      </trkpt>
      <trkpt lat="45.67884" lon="6.23873">
        <ele>1647.1577</ele>
        <time>2020-09-15 16:34:24</time>
      </trkpt>
      <trkpt lat="45.67884" lon="6.23873">
        <ele>1648.6914</ele>
        <time>2020-09-15 16:34:25</time>
      </trkpt>
      <trkpt lat="45.67883" lon="6.23873">
        <ele>1648.7097</ele>
        <time>2020-09-15 16:34:27</time>
      </trkpt>
      <trkpt lat="45.67883" lon="6.23872">
        <ele>1648.2266</ele>
        <time>2020-09-15 16:34:28</time>
      </trkpt>
      <trkpt lat="45.67883" lon="6.23873">
        <ele>1648.4404</ele>
        <time>2020-09-15 16:34:29</time>
      </trkpt>
      <trkpt lat="45.67883" lon="6.23873">
        <ele>1648.6152</ele>
        <time>2020-09-15 16:34:30</time>
      </trkpt>
      <trkpt lat="45.67883" lon="6.23873">
        <ele>1649.8159</ele>
        <time>2020-09-15 16:35:07</time>
      </trkpt>
      <trkpt lat="45.67883" lon="6.23874">
        <ele>1649.8159</ele>
        <time>2020-09-15 16:35:20</time>
      </trkpt>
      <trkpt lat="45.67884" lon="6.23876">
        <ele>1650.2092</ele>
        <time>2020-09-15 16:35:22</time>
      </trkpt>
      <trkpt lat="45.67887" lon="6.23876">
        <ele>1650.9243</ele>
        <time>2020-09-15 16:35:28</time>
      </trkpt>
      <trkpt lat="45.67886" lon="6.23877">
        <ele>1651.5576</ele>
        <time>2020-09-15 16:36:16</time>
      </trkpt>
      <trkpt lat="45.67886" lon="6.23877">
        <ele>1651.293</ele>
        <time>2020-09-15 16:36:17</time>
      </trkpt>
      <trkpt lat="45.67886" lon="6.23877">
        <ele>1651.7832</ele>
        <time>2020-09-15 16:36:35</time>
      </trkpt>
      <trkpt lat="45.67887" lon="6.23877">
        <ele>1651.8367</ele>
        <time>2020-09-15 16:36:37</time>
      </trkpt>
      <trkpt lat="45.67887" lon="6.23877">
        <ele>1651.6719</ele>
        <time>2020-09-15 16:36:41</time>
      </trkpt>
      <trkpt lat="45.67887" lon="6.23877">
        <ele>1651.6504</ele>
        <time>2020-09-15 16:36:42</time>
      </trkpt>
      <trkpt lat="45.67887" lon="6.23878">
        <ele>1651.3164</ele>
        <time>2020-09-15 16:37:01</time>
      </trkpt>
      <trkpt lat="45.67888" lon="6.23877">
        <ele>1651.1514</ele>
        <time>2020-09-15 16:37:04</time>
      </trkpt>
      <trkpt lat="45.67888" lon="6.23877">
        <ele>1650.6377</ele>
        <time>2020-09-15 16:37:06</time>
      </trkpt>
      <trkpt lat="45.67888" lon="6.23876">
        <ele>1650.3977</ele>
        <time>2020-09-15 16:37:07</time>
      </trkpt>
      <trkpt lat="45.67886" lon="6.23876">
        <ele>1650.1152</ele>
        <time>2020-09-15 16:37:09</time>
      </trkpt>
      <trkpt lat="45.67881" lon="6.2388">
        <ele>1649.0271</ele>
        <time>2020-09-15 16:37:14</time>
      </trkpt>
      <trkpt lat="45.67877" lon="6.23883">
        <ele>1649.7356</ele>
        <time>2020-09-15 16:37:20</time>
      </trkpt>
      <trkpt lat="45.67875" lon="6.23883">
        <ele>1649.4773</ele>
        <time>2020-09-15 16:37:22</time>
      </trkpt>
      <trkpt lat="45.67871" lon="6.23884">
        <ele>1647.894</ele>
        <time>2020-09-15 16:37:29</time>
      </trkpt>
      <trkpt lat="45.67869" lon="6.23885">
        <ele>1647.4072</ele>
        <time>2020-09-15 16:37:32</time>
      </trkpt>
      <trkpt lat="45.67868" lon="6.23887">
        <ele>1648.3857</ele>
        <time>2020-09-15 16:37:35</time>
      </trkpt>
      <trkpt lat="45.67868" lon="6.23887">
        <ele>1648.562</ele>
        <time>2020-09-15 16:37:36</time>
      </trkpt>
      <trkpt lat="45.67868" lon="6.23888">
        <ele>1648.6567</ele>
        <time>2020-09-15 16:37:37</time>
      </trkpt>
      <trkpt lat="45.67867" lon="6.23888">
        <ele>1649.0186</ele>
        <time>2020-09-15 16:37:46</time>
      </trkpt>
      <trkpt lat="45.67867" lon="6.23888">
        <ele>1649.456</ele>
        <time>2020-09-15 16:37:48</time>
      </trkpt>
      <trkpt lat="45.67867" lon="6.23889">
        <ele>1650.376</ele>
        <time>2020-09-15 16:37:53</time>
      </trkpt>
      <trkpt lat="45.67867" lon="6.23889">
        <ele>1650.4436</ele>
        <time>2020-09-15 16:37:54</time>
      </trkpt>
      <trkpt lat="45.67868" lon="6.23889">
        <ele>1648.041</ele>
        <time>2020-09-15 16:38:03</time>
      </trkpt>
      <trkpt lat="45.67868" lon="6.23889">
        <ele>1648.4019</ele>
        <time>2020-09-15 16:38:04</time>
      </trkpt>
      <trkpt lat="45.67867" lon="6.23889">
        <ele>1647.8447</ele>
        <time>2020-09-15 16:38:10</time>
      </trkpt>
      <trkpt lat="45.67866" lon="6.2389">
        <ele>1647.8772</ele>
        <time>2020-09-15 16:38:11</time>
      </trkpt>
      <trkpt lat="45.67868" lon="6.23889">
        <ele>1649.2607</ele>
        <time>2020-09-15 16:38:30</time>
      </trkpt>
      <trkpt lat="45.67868" lon="6.23889">
        <ele>1649.5518</ele>
        <time>2020-09-15 16:38:32</time>
      </trkpt>
      <trkpt lat="45.67867" lon="6.23889">
        <ele>1650.1716</ele>
        <time>2020-09-15 16:39:03</time>
      </trkpt>
      <trkpt lat="45.67867" lon="6.2389">
        <ele>1650.4839</ele>
        <time>2020-09-15 16:39:18</time>
      </trkpt>
      <trkpt lat="45.67868" lon="6.23889">
        <ele>1650.1553</ele>
        <time>2020-09-15 16:39:19</time>
      </trkpt>
      <trkpt lat="45.67868" lon="6.23889">
        <ele>1648.5903</ele>
        <time>2020-09-15 16:39:27</time>
      </trkpt>
      <trkpt lat="45.67868" lon="6.23889">
        <ele>1650.0642</ele>
        <time>2020-09-15 16:39:28</time>
      </trkpt>
      <trkpt lat="45.67867" lon="6.23888">
        <ele>1649.2583</ele>
        <time>2020-09-15 16:39:58</time>
      </trkpt>
      <trkpt lat="45.67867" lon="6.23888">
        <ele>1649.2834</ele>
        <time>2020-09-15 16:40:28</time>
      </trkpt>
      <trkpt lat="45.67866" lon="6.23888">
        <ele>1651.7534</ele>
        <time>2020-09-15 16:40:58</time>
      </trkpt>
      <trkpt lat="45.67866" lon="6.23887">
        <ele>1648.6992</ele>
        <time>2020-09-15 16:41:06</time>
      </trkpt>
      <trkpt lat="45.67866" lon="6.23887">
        <ele>1648.5693</ele>
        <time>2020-09-15 16:41:08</time>
      </trkpt>
      <trkpt lat="45.67867" lon="6.23888">
        <ele>1648.6919</ele>
        <time>2020-09-15 16:41:23</time>
      </trkpt>
      <trkpt lat="45.67867" lon="6.23888">
        <ele>1648.7529</ele>
        <time>2020-09-15 16:41:24</time>
      </trkpt>
      <trkpt lat="45.67867" lon="6.23888">
        <ele>1648.0913</ele>
        <time>2020-09-15 16:41:32</time>
      </trkpt>
      <trkpt lat="45.67867" lon="6.23888">
        <ele>1648.3623</ele>
        <time>2020-09-15 16:41:33</time>
      </trkpt>
      <trkpt lat="45.67867" lon="6.23889">
        <ele>1649.8198</ele>
        <time>2020-09-15 16:41:42</time>
      </trkpt>
      <trkpt lat="45.67868" lon="6.23889">
        <ele>1650.3965</ele>
        <time>2020-09-15 16:41:43</time>
      </trkpt>
      <trkpt lat="45.6787" lon="6.23888">
        <ele>1651.2388</ele>
        <time>2020-09-15 16:42:03</time>
      </trkpt>
      <trkpt lat="45.67867" lon="6.23887">
        <ele>1650.4299</ele>
        <time>2020-09-15 16:42:08</time>
      </trkpt>
      <trkpt lat="45.67865" lon="6.23887">
        <ele>1651.405</ele>
        <time>2020-09-15 16:42:10</time>
      </trkpt>
      <trkpt lat="45.67862" lon="6.23888">
        <ele>1649.0505</ele>
        <time>2020-09-15 16:42:13</time>
      </trkpt>
      <trkpt lat="45.67858" lon="6.23887">
        <ele>1649.2466</ele>
        <time>2020-09-15 16:42:18</time>
      </trkpt>
      <trkpt lat="45.67856" lon="6.23889">
        <ele>1648.7749</ele>
        <time>2020-09-15 16:42:21</time>
      </trkpt>
      <trkpt lat="45.67853" lon="6.23893">
        <ele>1646.0942</ele>
        <time>2020-09-15 16:42:26</time>
      </trkpt>
      <trkpt lat="45.67845" lon="6.23896">
        <ele>1646.5996</ele>
        <time>2020-09-15 16:42:36</time>
      </trkpt>
      <trkpt lat="45.67843" lon="6.23899">
        <ele>1644.5142</ele>
        <time>2020-09-15 16:42:40</time>
      </trkpt>
      <trkpt lat="45.67841" lon="6.23902">
        <ele>1643.3931</ele>
        <time>2020-09-15 16:42:43</time>
      </trkpt>
      <trkpt lat="45.67838" lon="6.23905">
        <ele>1640.6084</ele>
        <time>2020-09-15 16:42:46</time>
      </trkpt>
      <trkpt lat="45.67836" lon="6.23908">
        <ele>1639.2188</ele>
        <time>2020-09-15 16:42:50</time>
      </trkpt>
      <trkpt lat="45.67831" lon="6.23915">
        <ele>1637.7935</ele>
        <time>2020-09-15 16:42:56</time>
      </trkpt>
      <trkpt lat="45.6783" lon="6.23917">
        <ele>1638.4832</ele>
        <time>2020-09-15 16:42:58</time>
      </trkpt>
      <trkpt lat="45.67829" lon="6.23918">
        <ele>1638.728</ele>
        <time>2020-09-15 16:42:59</time>
      </trkpt>
      <trkpt lat="45.67828" lon="6.2392">
        <ele>1638.3164</ele>
        <time>2020-09-15 16:43:01</time>
      </trkpt>
      <trkpt lat="45.67827" lon="6.23921">
        <ele>1637.6753</ele>
        <time>2020-09-15 16:43:03</time>
      </trkpt>
      <trkpt lat="45.67821" lon="6.23924">
        <ele>1638.0615</ele>
        <time>2020-09-15 16:43:11</time>
      </trkpt>
      <trkpt lat="45.67817" lon="6.23925">
        <ele>1635.6475</ele>
        <time>2020-09-15 16:43:15</time>
      </trkpt>
      <trkpt lat="45.67813" lon="6.23927">
        <ele>1633.5547</ele>
        <time>2020-09-15 16:43:19</time>
      </trkpt>
      <trkpt lat="45.67807" lon="6.23929">
        <ele>1632.6035</ele>
        <time>2020-09-15 16:43:25</time>
      </trkpt>
      <trkpt lat="45.67794" lon="6.2393">
        <ele>1628.1775</ele>
        <time>2020-09-15 16:43:36</time>
      </trkpt>
      <trkpt lat="45.67775" lon="6.23934">
        <ele>1624.5371</ele>
        <time>2020-09-15 16:43:50</time>
      </trkpt>
      <trkpt lat="45.67773" lon="6.23935">
        <ele>1623.6897</ele>
        <time>2020-09-15 16:43:52</time>
      </trkpt>
      <trkpt lat="45.6777" lon="6.23935">
        <ele>1625.3257</ele>
        <time>2020-09-15 16:43:55</time>
      </trkpt>
      <trkpt lat="45.67765" lon="6.23936">
        <ele>1624.396</ele>
        <time>2020-09-15 16:44:00</time>
      </trkpt>
      <trkpt lat="45.67753" lon="6.23939">
        <ele>1623.5991</ele>
        <time>2020-09-15 16:44:10</time>
      </trkpt>
      <trkpt lat="45.67745" lon="6.2394">
        <ele>1621.041</ele>
        <time>2020-09-15 16:44:18</time>
      </trkpt>
      <trkpt lat="45.67733" lon="6.2394">
        <ele>1618.2937</ele>
        <time>2020-09-15 16:44:29</time>
      </trkpt>
      <trkpt lat="45.67727" lon="6.23943">
        <ele>1617.8511</ele>
        <time>2020-09-15 16:44:36</time>
      </trkpt>
      <trkpt lat="45.67724" lon="6.23943">
        <ele>1618.8696</ele>
        <time>2020-09-15 16:44:38</time>
      </trkpt>
      <trkpt lat="45.67715" lon="6.23944">
        <ele>1620.145</ele>
        <time>2020-09-15 16:44:46</time>
      </trkpt>
      <trkpt lat="45.67713" lon="6.23945">
        <ele>1619.0728</ele>
        <time>2020-09-15 16:44:48</time>
      </trkpt>
      <trkpt lat="45.67711" lon="6.23945">
        <ele>1615.6499</ele>
        <time>2020-09-15 16:44:51</time>
      </trkpt>
      <trkpt lat="45.67705" lon="6.23946">
        <ele>1613.7732</ele>
        <time>2020-09-15 16:44:57</time>
      </trkpt>
      <trkpt lat="45.67691" lon="6.23954">
        <ele>1616.2212</ele>
        <time>2020-09-15 16:45:13</time>
      </trkpt>
      <trkpt lat="45.67689" lon="6.23955">
        <ele>1616.0906</ele>
        <time>2020-09-15 16:45:14</time>
      </trkpt>
      <trkpt lat="45.67682" lon="6.23956">
        <ele>1613.4734</ele>
        <time>2020-09-15 16:45:20</time>
      </trkpt>
      <trkpt lat="45.67677" lon="6.23957">
        <ele>1613.667</ele>
        <time>2020-09-15 16:45:25</time>
      </trkpt>
      <trkpt lat="45.67672" lon="6.23957">
        <ele>1611.1462</ele>
        <time>2020-09-15 16:45:30</time>
      </trkpt>
      <trkpt lat="45.67672" lon="6.23956">
        <ele>1609.8911</ele>
        <time>2020-09-15 16:45:31</time>
      </trkpt>
      <trkpt lat="45.6767" lon="6.23953">
        <ele>1606.072</ele>
        <time>2020-09-15 16:45:34</time>
      </trkpt>
      <trkpt lat="45.67667" lon="6.23949">
        <ele>1605.207</ele>
        <time>2020-09-15 16:45:39</time>
      </trkpt>
      <trkpt lat="45.67665" lon="6.23948">
        <ele>1605.1323</ele>
        <time>2020-09-15 16:45:41</time>
      </trkpt>
      <trkpt lat="45.67662" lon="6.23947">
        <ele>1604.4341</ele>
        <time>2020-09-15 16:45:44</time>
      </trkpt>
      <trkpt lat="45.6766" lon="6.23946">
        <ele>1604.1929</ele>
        <time>2020-09-15 16:45:46</time>
      </trkpt>
      <trkpt lat="45.67658" lon="6.23946">
        <ele>1603.4404</ele>
        <time>2020-09-15 16:45:48</time>
      </trkpt>
      <trkpt lat="45.67652" lon="6.23945">
        <ele>1602.5088</ele>
        <time>2020-09-15 16:45:54</time>
      </trkpt>
      <trkpt lat="45.67645" lon="6.23946">
        <ele>1601.4858</ele>
        <time>2020-09-15 16:46:00</time>
      </trkpt>
      <trkpt lat="45.67642" lon="6.23947">
        <ele>1600.6187</ele>
        <time>2020-09-15 16:46:03</time>
      </trkpt>
      <trkpt lat="45.67641" lon="6.23947">
        <ele>1600.5312</ele>
        <time>2020-09-15 16:46:06</time>
      </trkpt>
      <trkpt lat="45.6764" lon="6.23946">
        <ele>1599.2576</ele>
        <time>2020-09-15 16:46:09</time>
      </trkpt>
      <trkpt lat="45.67632" lon="6.23948">
        <ele>1600.0063</ele>
        <time>2020-09-15 16:46:18</time>
      </trkpt>
      <trkpt lat="45.67631" lon="6.23948">
        <ele>1599.2783</ele>
        <time>2020-09-15 16:46:19</time>
      </trkpt>
      <trkpt lat="45.67626" lon="6.23949">
        <ele>1596.852</ele>
        <time>2020-09-15 16:46:24</time>
      </trkpt>
      <trkpt lat="45.67618" lon="6.23946">
        <ele>1595.0466</ele>
        <time>2020-09-15 16:46:33</time>
      </trkpt>
      <trkpt lat="45.67609" lon="6.23944">
        <ele>1595.565</ele>
        <time>2020-09-15 16:46:42</time>
      </trkpt>
      <trkpt lat="45.67606" lon="6.23944">
        <ele>1595.689</ele>
        <time>2020-09-15 16:46:45</time>
      </trkpt>
      <trkpt lat="45.676" lon="6.23944">
        <ele>1595.5723</ele>
        <time>2020-09-15 16:46:51</time>
      </trkpt>
      <trkpt lat="45.67599" lon="6.23944">
        <ele>1595.5225</ele>
        <time>2020-09-15 16:46:52</time>
      </trkpt>
      <trkpt lat="45.67597" lon="6.23944">
        <ele>1595.4136</ele>
        <time>2020-09-15 16:46:54</time>
      </trkpt>
      <trkpt lat="45.67589" lon="6.23944">
        <ele>1590.2163</ele>
        <time>2020-09-15 16:47:02</time>
      </trkpt>
      <trkpt lat="45.67578" lon="6.23945">
        <ele>1590.2573</ele>
        <time>2020-09-15 16:47:11</time>
      </trkpt>
      <trkpt lat="45.67578" lon="6.23945">
        <ele>1589.5518</ele>
        <time>2020-09-15 16:47:12</time>
      </trkpt>
      <trkpt lat="45.67576" lon="6.23944">
        <ele>1587.9026</ele>
        <time>2020-09-15 16:47:14</time>
      </trkpt>
      <trkpt lat="45.67574" lon="6.23943">
        <ele>1587.0349</ele>
        <time>2020-09-15 16:47:16</time>
      </trkpt>
      <trkpt lat="45.67553" lon="6.23945">
        <ele>1583.3845</ele>
        <time>2020-09-15 16:47:35</time>
      </trkpt>
      <trkpt lat="45.67543" lon="6.23941">
        <ele>1581.8223</ele>
        <time>2020-09-15 16:47:43</time>
      </trkpt>
      <trkpt lat="45.67539" lon="6.23938">
        <ele>1579.6909</ele>
        <time>2020-09-15 16:47:48</time>
      </trkpt>
      <trkpt lat="45.67533" lon="6.23935">
        <ele>1577.8745</ele>
        <time>2020-09-15 16:47:56</time>
      </trkpt>
      <trkpt lat="45.67527" lon="6.23933">
        <ele>1576.8147</ele>
        <time>2020-09-15 16:48:01</time>
      </trkpt>
      <trkpt lat="45.67526" lon="6.23933">
        <ele>1576.4534</ele>
        <time>2020-09-15 16:48:02</time>
      </trkpt>
      <trkpt lat="45.67522" lon="6.23932">
        <ele>1576.2034</ele>
        <time>2020-09-15 16:48:04</time>
      </trkpt>
      <trkpt lat="45.67517" lon="6.23929">
        <ele>1575.7971</ele>
        <time>2020-09-15 16:48:07</time>
      </trkpt>
      <trkpt lat="45.67508" lon="6.23918">
        <ele>1575.418</ele>
        <time>2020-09-15 16:48:16</time>
      </trkpt>
      <trkpt lat="45.67505" lon="6.23913">
        <ele>1576.2109</ele>
        <time>2020-09-15 16:48:20</time>
      </trkpt>
      <trkpt lat="45.67501" lon="6.23907">
        <ele>1574.6162</ele>
        <time>2020-09-15 16:48:24</time>
      </trkpt>
      <trkpt lat="45.67496" lon="6.23897">
        <ele>1572.2964</ele>
        <time>2020-09-15 16:48:34</time>
      </trkpt>
      <trkpt lat="45.67495" lon="6.23896">
        <ele>1572.165</ele>
        <time>2020-09-15 16:48:35</time>
      </trkpt>
      <trkpt lat="45.67485" lon="6.23897">
        <ele>1571.0898</ele>
        <time>2020-09-15 16:48:45</time>
      </trkpt>
      <trkpt lat="45.67475" lon="6.23896">
        <ele>1571.8938</ele>
        <time>2020-09-15 16:48:54</time>
      </trkpt>
      <trkpt lat="45.6747" lon="6.23896">
        <ele>1571.9404</ele>
        <time>2020-09-15 16:48:57</time>
      </trkpt>
      <trkpt lat="45.67467" lon="6.23895">
        <ele>1572.8672</ele>
        <time>2020-09-15 16:49:00</time>
      </trkpt>
      <trkpt lat="45.67463" lon="6.23895">
        <ele>1572.0396</ele>
        <time>2020-09-15 16:49:03</time>
      </trkpt>
      <trkpt lat="45.67462" lon="6.23894">
        <ele>1571.3574</ele>
        <time>2020-09-15 16:49:04</time>
      </trkpt>
      <trkpt lat="45.67457" lon="6.23894">
        <ele>1571.0127</ele>
        <time>2020-09-15 16:49:10</time>
      </trkpt>
      <trkpt lat="45.67447" lon="6.23894">
        <ele>1567.8301</ele>
        <time>2020-09-15 16:49:18</time>
      </trkpt>
      <trkpt lat="45.67446" lon="6.23894">
        <ele>1567.0879</ele>
        <time>2020-09-15 16:49:19</time>
      </trkpt>
      <trkpt lat="45.67444" lon="6.23892">
        <ele>1566.1848</ele>
        <time>2020-09-15 16:49:22</time>
      </trkpt>
      <trkpt lat="45.67434" lon="6.23892">
        <ele>1564.2363</ele>
        <time>2020-09-15 16:49:30</time>
      </trkpt>
      <trkpt lat="45.67431" lon="6.23893">
        <ele>1564.73</ele>
        <time>2020-09-15 16:49:32</time>
      </trkpt>
      <trkpt lat="45.67428" lon="6.23893">
        <ele>1565.1101</ele>
        <time>2020-09-15 16:49:34</time>
      </trkpt>
      <trkpt lat="45.67423" lon="6.23893">
        <ele>1564.3486</ele>
        <time>2020-09-15 16:49:37</time>
      </trkpt>
      <trkpt lat="45.67419" lon="6.23894">
        <ele>1564.2949</ele>
        <time>2020-09-15 16:49:40</time>
      </trkpt>
      <trkpt lat="45.67413" lon="6.23893">
        <ele>1563.3745</ele>
        <time>2020-09-15 16:49:45</time>
      </trkpt>
      <trkpt lat="45.67412" lon="6.23893">
        <ele>1560.6074</ele>
        <time>2020-09-15 16:49:46</time>
      </trkpt>
      <trkpt lat="45.67408" lon="6.23891">
        <ele>1559.9907</ele>
        <time>2020-09-15 16:49:49</time>
      </trkpt>
      <trkpt lat="45.67405" lon="6.23891">
        <ele>1561.4231</ele>
        <time>2020-09-15 16:49:51</time>
      </trkpt>
      <trkpt lat="45.67403" lon="6.2389">
        <ele>1561.5894</ele>
        <time>2020-09-15 16:49:53</time>
      </trkpt>
      <trkpt lat="45.67397" lon="6.23889">
        <ele>1560.7151</ele>
        <time>2020-09-15 16:49:57</time>
      </trkpt>
      <trkpt lat="45.67386" lon="6.23884">
        <ele>1560.1677</ele>
        <time>2020-09-15 16:50:06</time>
      </trkpt>
      <trkpt lat="45.67381" lon="6.23882">
        <ele>1559.7253</ele>
        <time>2020-09-15 16:50:10</time>
      </trkpt>
      <trkpt lat="45.67353" lon="6.23867">
        <ele>1557.1589</ele>
        <time>2020-09-15 16:50:35</time>
      </trkpt>
      <trkpt lat="45.67348" lon="6.23857">
        <ele>1556.9216</ele>
        <time>2020-09-15 16:50:43</time>
      </trkpt>
      <trkpt lat="45.67344" lon="6.23854">
        <ele>1559.2603</ele>
        <time>2020-09-15 16:50:46</time>
      </trkpt>
      <trkpt lat="45.67321" lon="6.23847">
        <ele>1563.3811</ele>
        <time>2020-09-15 16:51:03</time>
      </trkpt>
      <trkpt lat="45.67312" lon="6.23848">
        <ele>1560.2361</ele>
        <time>2020-09-15 16:51:09</time>
      </trkpt>
      <trkpt lat="45.67302" lon="6.23847">
        <ele>1556.4312</ele>
        <time>2020-09-15 16:51:19</time>
      </trkpt>
      <trkpt lat="45.67284" lon="6.23849">
        <ele>1554.5083</ele>
        <time>2020-09-15 16:51:37</time>
      </trkpt>
      <trkpt lat="45.6728" lon="6.2385">
        <ele>1549.8628</ele>
        <time>2020-09-15 16:51:40</time>
      </trkpt>
      <trkpt lat="45.67277" lon="6.23849">
        <ele>1547.7247</ele>
        <time>2020-09-15 16:51:43</time>
      </trkpt>
      <trkpt lat="45.67276" lon="6.2385">
        <ele>1547.6458</ele>
        <time>2020-09-15 16:51:44</time>
      </trkpt>
      <trkpt lat="45.67267" lon="6.23851">
        <ele>1550.7878</ele>
        <time>2020-09-15 16:51:52</time>
      </trkpt>
      <trkpt lat="45.67261" lon="6.23853">
        <ele>1546.8685</ele>
        <time>2020-09-15 16:51:57</time>
      </trkpt>
      <trkpt lat="45.67259" lon="6.23854">
        <ele>1547.3241</ele>
        <time>2020-09-15 16:51:59</time>
      </trkpt>
      <trkpt lat="45.67246" lon="6.23858">
        <ele>1549.1047</ele>
        <time>2020-09-15 16:52:11</time>
      </trkpt>
      <trkpt lat="45.67243" lon="6.23858">
        <ele>1549.2388</ele>
        <time>2020-09-15 16:52:15</time>
      </trkpt>
      <trkpt lat="45.6724" lon="6.23857">
        <ele>1547.2247</ele>
        <time>2020-09-15 16:52:18</time>
      </trkpt>
      <trkpt lat="45.67234" lon="6.23856">
        <ele>1546.7461</ele>
        <time>2020-09-15 16:52:22</time>
      </trkpt>
      <trkpt lat="45.67234" lon="6.23856">
        <ele>1547.2997</ele>
        <time>2020-09-15 16:52:23</time>
      </trkpt>
      <trkpt lat="45.67233" lon="6.23857">
        <ele>1546.3446</ele>
        <time>2020-09-15 16:52:25</time>
      </trkpt>
      <trkpt lat="45.67228" lon="6.23857">
        <ele>1544.698</ele>
        <time>2020-09-15 16:52:28</time>
      </trkpt>
      <trkpt lat="45.67223" lon="6.23856">
        <ele>1543.4773</ele>
        <time>2020-09-15 16:52:32</time>
      </trkpt>
      <trkpt lat="45.67219" lon="6.23857">
        <ele>1542.9694</ele>
        <time>2020-09-15 16:52:35</time>
      </trkpt>
      <trkpt lat="45.67207" lon="6.2386">
        <ele>1546.6322</ele>
        <time>2020-09-15 16:52:44</time>
      </trkpt>
      <trkpt lat="45.67202" lon="6.23863">
        <ele>1542.9694</ele>
        <time>2020-09-15 16:52:47</time>
      </trkpt>
      <trkpt lat="45.672" lon="6.23864">
        <ele>1546.3331</ele>
        <time>2020-09-15 16:52:51</time>
      </trkpt>
      <trkpt lat="45.67196" lon="6.23865">
        <ele>1546.366</ele>
        <time>2020-09-15 16:52:54</time>
      </trkpt>
      <trkpt lat="45.6719" lon="6.23869">
        <ele>1546.275</ele>
        <time>2020-09-15 16:52:59</time>
      </trkpt>
      <trkpt lat="45.67187" lon="6.2387">
        <ele>1545.7783</ele>
        <time>2020-09-15 16:53:01</time>
      </trkpt>
      <trkpt lat="45.67185" lon="6.23871">
        <ele>1545.8372</ele>
        <time>2020-09-15 16:53:03</time>
      </trkpt>
      <trkpt lat="45.67169" lon="6.23872">
        <ele>1540.965</ele>
        <time>2020-09-15 16:53:16</time>
      </trkpt>
      <trkpt lat="45.67165" lon="6.23872">
        <ele>1538.2444</ele>
        <time>2020-09-15 16:53:21</time>
      </trkpt>
      <trkpt lat="45.67159" lon="6.23874">
        <ele>1536.5244</ele>
        <time>2020-09-15 16:53:25</time>
      </trkpt>
      <trkpt lat="45.67153" lon="6.23877">
        <ele>1538.3645</ele>
        <time>2020-09-15 16:53:29</time>
      </trkpt>
      <trkpt lat="45.67147" lon="6.23878">
        <ele>1536.9391</ele>
        <time>2020-09-15 16:53:32</time>
      </trkpt>
      <trkpt lat="45.67143" lon="6.2388">
        <ele>1537.4656</ele>
        <time>2020-09-15 16:53:35</time>
      </trkpt>
      <trkpt lat="45.67143" lon="6.23879">
        <ele>1538.2405</ele>
        <time>2020-09-15 16:53:37</time>
      </trkpt>
      <trkpt lat="45.67142" lon="6.23879">
        <ele>1537.0571</ele>
        <time>2020-09-15 16:53:38</time>
      </trkpt>
      <trkpt lat="45.67138" lon="6.23881">
        <ele>1537.2238</ele>
        <time>2020-09-15 16:53:41</time>
      </trkpt>
      <trkpt lat="45.67133" lon="6.23883">
        <ele>1536.3782</ele>
        <time>2020-09-15 16:53:45</time>
      </trkpt>
      <trkpt lat="45.67131" lon="6.23883">
        <ele>1537.3547</ele>
        <time>2020-09-15 16:53:47</time>
      </trkpt>
      <trkpt lat="45.67129" lon="6.23883">
        <ele>1538.6764</ele>
        <time>2020-09-15 16:53:49</time>
      </trkpt>
      <trkpt lat="45.67123" lon="6.23885">
        <ele>1538.7687</ele>
        <time>2020-09-15 16:53:52</time>
      </trkpt>
      <trkpt lat="45.67121" lon="6.23886">
        <ele>1540.42</ele>
        <time>2020-09-15 16:53:54</time>
      </trkpt>
      <trkpt lat="45.6712" lon="6.23886">
        <ele>1540.5762</ele>
        <time>2020-09-15 16:53:55</time>
      </trkpt>
      <trkpt lat="45.67112" lon="6.23893">
        <ele>1538.0995</ele>
        <time>2020-09-15 16:54:01</time>
      </trkpt>
      <trkpt lat="45.67108" lon="6.23898">
        <ele>1538.0068</ele>
        <time>2020-09-15 16:54:05</time>
      </trkpt>
      <trkpt lat="45.67101" lon="6.23909">
        <ele>1536.3245</ele>
        <time>2020-09-15 16:54:12</time>
      </trkpt>
      <trkpt lat="45.67101" lon="6.23911">
        <ele>1538.4149</ele>
        <time>2020-09-15 16:54:13</time>
      </trkpt>
      <trkpt lat="45.67099" lon="6.23915">
        <ele>1536.3604</ele>
        <time>2020-09-15 16:54:16</time>
      </trkpt>
      <trkpt lat="45.67097" lon="6.2392">
        <ele>1536.2393</ele>
        <time>2020-09-15 16:54:19</time>
      </trkpt>
      <trkpt lat="45.67092" lon="6.2393">
        <ele>1532.983</ele>
        <time>2020-09-15 16:54:27</time>
      </trkpt>
      <trkpt lat="45.67092" lon="6.23931">
        <ele>1536.6818</ele>
        <time>2020-09-15 16:54:28</time>
      </trkpt>
      <trkpt lat="45.67091" lon="6.23931">
        <ele>1533.2335</ele>
        <time>2020-09-15 16:54:29</time>
      </trkpt>
      <trkpt lat="45.6709" lon="6.23932">
        <ele>1533.1388</ele>
        <time>2020-09-15 16:54:30</time>
      </trkpt>
      <trkpt lat="45.67089" lon="6.23934">
        <ele>1533.7771</ele>
        <time>2020-09-15 16:54:32</time>
      </trkpt>
      <trkpt lat="45.67089" lon="6.23936">
        <ele>1534.3943</ele>
        <time>2020-09-15 16:54:33</time>
      </trkpt>
      <trkpt lat="45.67087" lon="6.23939">
        <ele>1536.1191</ele>
        <time>2020-09-15 16:54:35</time>
      </trkpt>
      <trkpt lat="45.67085" lon="6.23943">
        <ele>1536.7808</ele>
        <time>2020-09-15 16:54:38</time>
      </trkpt>
      <trkpt lat="45.67082" lon="6.23949">
        <ele>1533.2335</ele>
        <time>2020-09-15 16:54:42</time>
      </trkpt>
      <trkpt lat="45.67079" lon="6.23955">
        <ele>1538.5967</ele>
        <time>2020-09-15 16:54:46</time>
      </trkpt>
      <trkpt lat="45.67079" lon="6.23957">
        <ele>1538.3562</ele>
        <time>2020-09-15 16:54:47</time>
      </trkpt>
      <trkpt lat="45.67076" lon="6.23974">
        <ele>1538.8605</ele>
        <time>2020-09-15 16:54:57</time>
      </trkpt>
      <trkpt lat="45.67076" lon="6.2398">
        <ele>1540.815</ele>
        <time>2020-09-15 16:55:00</time>
      </trkpt>
      <trkpt lat="45.67077" lon="6.23985">
        <ele>1538.9749</ele>
        <time>2020-09-15 16:55:03</time>
      </trkpt>
      <trkpt lat="45.67078" lon="6.2401">
        <ele>1542.0941</ele>
        <time>2020-09-15 16:55:18</time>
      </trkpt>
      <trkpt lat="45.67078" lon="6.24021">
        <ele>1538.0862</ele>
        <time>2020-09-15 16:55:24</time>
      </trkpt>
      <trkpt lat="45.67076" lon="6.24029">
        <ele>1535.7944</ele>
        <time>2020-09-15 16:55:29</time>
      </trkpt>
      <trkpt lat="45.6707" lon="6.24044">
        <ele>1536.041</ele>
        <time>2020-09-15 16:55:39</time>
      </trkpt>
      <trkpt lat="45.67068" lon="6.24047">
        <ele>1535.2211</ele>
        <time>2020-09-15 16:55:42</time>
      </trkpt>
      <trkpt lat="45.67059" lon="6.24059">
        <ele>1536.784</ele>
        <time>2020-09-15 16:55:51</time>
      </trkpt>
      <trkpt lat="45.67058" lon="6.24064">
        <ele>1534.6709</ele>
        <time>2020-09-15 16:55:54</time>
      </trkpt>
      <trkpt lat="45.67057" lon="6.24071">
        <ele>1532.8296</ele>
        <time>2020-09-15 16:55:59</time>
      </trkpt>
      <trkpt lat="45.67054" lon="6.24079">
        <ele>1533.485</ele>
        <time>2020-09-15 16:56:04</time>
      </trkpt>
      <trkpt lat="45.67051" lon="6.24087">
        <ele>1529.306</ele>
        <time>2020-09-15 16:56:10</time>
      </trkpt>
      <trkpt lat="45.6705" lon="6.24088">
        <ele>1527.793</ele>
        <time>2020-09-15 16:56:11</time>
      </trkpt>
      <trkpt lat="45.67048" lon="6.2409">
        <ele>1530.1178</ele>
        <time>2020-09-15 16:56:14</time>
      </trkpt>
      <trkpt lat="45.67046" lon="6.24093">
        <ele>1527.4761</ele>
        <time>2020-09-15 16:56:16</time>
      </trkpt>
      <trkpt lat="45.67043" lon="6.24095">
        <ele>1530.092</ele>
        <time>2020-09-15 16:56:20</time>
      </trkpt>
      <trkpt lat="45.67042" lon="6.24096">
        <ele>1529.0131</ele>
        <time>2020-09-15 16:56:21</time>
      </trkpt>
      <trkpt lat="45.67041" lon="6.24096">
        <ele>1528.6533</ele>
        <time>2020-09-15 16:56:24</time>
      </trkpt>
      <trkpt lat="45.6704" lon="6.24096">
        <ele>1529.1736</ele>
        <time>2020-09-15 16:56:25</time>
      </trkpt>
      <trkpt lat="45.67039" lon="6.24097">
        <ele>1529.3967</ele>
        <time>2020-09-15 16:56:26</time>
      </trkpt>
      <trkpt lat="45.67038" lon="6.24098">
        <ele>1529.9595</ele>
        <time>2020-09-15 16:56:27</time>
      </trkpt>
      <trkpt lat="45.67035" lon="6.24102">
        <ele>1530.1101</ele>
        <time>2020-09-15 16:56:30</time>
      </trkpt>
      <trkpt lat="45.67034" lon="6.24104">
        <ele>1528.3862</ele>
        <time>2020-09-15 16:56:32</time>
      </trkpt>
      <trkpt lat="45.67033" lon="6.24107">
        <ele>1528.2189</ele>
        <time>2020-09-15 16:56:35</time>
      </trkpt>
      <trkpt lat="45.67031" lon="6.24116">
        <ele>1527.6244</ele>
        <time>2020-09-15 16:56:41</time>
      </trkpt>
      <trkpt lat="45.67028" lon="6.2412">
        <ele>1524.9551</ele>
        <time>2020-09-15 16:56:44</time>
      </trkpt>
      <trkpt lat="45.67028" lon="6.24119">
        <ele>1524.9369</ele>
        <time>2020-09-15 16:56:45</time>
      </trkpt>
      <trkpt lat="45.67028" lon="6.24119">
        <ele>1523.3141</ele>
        <time>2020-09-15 16:56:46</time>
      </trkpt>
      <trkpt lat="45.67026" lon="6.24119">
        <ele>1523.3981</ele>
        <time>2020-09-15 16:56:47</time>
      </trkpt>
      <trkpt lat="45.67025" lon="6.24119">
        <ele>1522.2772</ele>
        <time>2020-09-15 16:56:48</time>
      </trkpt>
      <trkpt lat="45.67024" lon="6.24118">
        <ele>1519.6265</ele>
        <time>2020-09-15 16:56:49</time>
      </trkpt>
      <trkpt lat="45.67023" lon="6.24117">
        <ele>1518.6815</ele>
        <time>2020-09-15 16:56:50</time>
      </trkpt>
      <trkpt lat="45.67022" lon="6.24116">
        <ele>1518.3433</ele>
        <time>2020-09-15 16:56:51</time>
      </trkpt>
      <trkpt lat="45.67021" lon="6.24113">
        <ele>1515.6217</ele>
        <time>2020-09-15 16:56:54</time>
      </trkpt>
      <trkpt lat="45.6702" lon="6.2411">
        <ele>1515.5123</ele>
        <time>2020-09-15 16:56:56</time>
      </trkpt>
      <trkpt lat="45.67019" lon="6.24108">
        <ele>1514.0355</ele>
        <time>2020-09-15 16:56:58</time>
      </trkpt>
      <trkpt lat="45.67018" lon="6.24108">
        <ele>1513.9954</ele>
        <time>2020-09-15 16:56:59</time>
      </trkpt>
      <trkpt lat="45.67017" lon="6.24108">
        <ele>1513.6232</ele>
        <time>2020-09-15 16:57:00</time>
      </trkpt>
      <trkpt lat="45.67011" lon="6.24116">
        <ele>1513.7909</ele>
        <time>2020-09-15 16:57:07</time>
      </trkpt>
      <trkpt lat="45.67005" lon="6.24107">
        <ele>1514.9774</ele>
        <time>2020-09-15 16:57:16</time>
      </trkpt>
      <trkpt lat="45.66997" lon="6.24099">
        <ele>1515.2528</ele>
        <time>2020-09-15 16:57:26</time>
      </trkpt>
      <trkpt lat="45.66995" lon="6.24098">
        <ele>1514.9523</ele>
        <time>2020-09-15 16:57:28</time>
      </trkpt>
      <trkpt lat="45.66992" lon="6.24096">
        <ele>1515.7001</ele>
        <time>2020-09-15 16:57:31</time>
      </trkpt>
      <trkpt lat="45.66983" lon="6.24093">
        <ele>1513.9789</ele>
        <time>2020-09-15 16:57:37</time>
      </trkpt>
      <trkpt lat="45.66979" lon="6.24091">
        <ele>1510.4988</ele>
        <time>2020-09-15 16:57:43</time>
      </trkpt>
      <trkpt lat="45.66978" lon="6.24091">
        <ele>1510.7789</ele>
        <time>2020-09-15 16:57:44</time>
      </trkpt>
      <trkpt lat="45.66977" lon="6.24092">
        <ele>1511.2242</ele>
        <time>2020-09-15 16:57:46</time>
      </trkpt>
      <trkpt lat="45.66976" lon="6.24093">
        <ele>1511.8798</ele>
        <time>2020-09-15 16:57:47</time>
      </trkpt>
      <trkpt lat="45.66976" lon="6.24092">
        <ele>1509.1785</ele>
        <time>2020-09-15 16:57:49</time>
      </trkpt>
      <trkpt lat="45.66973" lon="6.2409">
        <ele>1507.4734</ele>
        <time>2020-09-15 16:57:52</time>
      </trkpt>
      <trkpt lat="45.66968" lon="6.24088">
        <ele>1503.8464</ele>
        <time>2020-09-15 16:57:57</time>
      </trkpt>
      <trkpt lat="45.66963" lon="6.24086">
        <ele>1502.701</ele>
        <time>2020-09-15 16:58:00</time>
      </trkpt>
      <trkpt lat="45.66959" lon="6.24084">
        <ele>1502.0577</ele>
        <time>2020-09-15 16:58:03</time>
      </trkpt>
      <trkpt lat="45.66956" lon="6.24082">
        <ele>1502.6022</ele>
        <time>2020-09-15 16:58:06</time>
      </trkpt>
      <trkpt lat="45.66956" lon="6.24082">
        <ele>1501.7113</ele>
        <time>2020-09-15 16:58:07</time>
      </trkpt>
      <trkpt lat="45.66955" lon="6.24081">
        <ele>1502.701</ele>
        <time>2020-09-15 16:58:09</time>
      </trkpt>
      <trkpt lat="45.6695" lon="6.24078">
        <ele>1500.5394</ele>
        <time>2020-09-15 16:58:15</time>
      </trkpt>
      <trkpt lat="45.66948" lon="6.24079">
        <ele>1498.4114</ele>
        <time>2020-09-15 16:58:17</time>
      </trkpt>
      <trkpt lat="45.66944" lon="6.24082">
        <ele>1501.1329</ele>
        <time>2020-09-15 16:58:21</time>
      </trkpt>
      <trkpt lat="45.66942" lon="6.24082">
        <ele>1498.5208</ele>
        <time>2020-09-15 16:58:23</time>
      </trkpt>
      <trkpt lat="45.66942" lon="6.24082">
        <ele>1499.2214</ele>
        <time>2020-09-15 16:58:24</time>
      </trkpt>
      <trkpt lat="45.66942" lon="6.24082">
        <ele>1497.8575</ele>
        <time>2020-09-15 16:58:26</time>
      </trkpt>
      <trkpt lat="45.6694" lon="6.24081">
        <ele>1497.4606</ele>
        <time>2020-09-15 16:58:28</time>
      </trkpt>
      <trkpt lat="45.66939" lon="6.2408">
        <ele>1496.0529</ele>
        <time>2020-09-15 16:58:29</time>
      </trkpt>
      <trkpt lat="45.66937" lon="6.24079">
        <ele>1493.9811</ele>
        <time>2020-09-15 16:58:30</time>
      </trkpt>
      <trkpt lat="45.66934" lon="6.24075">
        <ele>1491.8665</ele>
        <time>2020-09-15 16:58:34</time>
      </trkpt>
      <trkpt lat="45.66931" lon="6.24072">
        <ele>1491.9418</ele>
        <time>2020-09-15 16:58:37</time>
      </trkpt>
      <trkpt lat="45.66927" lon="6.24069">
        <ele>1490.2765</ele>
        <time>2020-09-15 16:58:41</time>
      </trkpt>
      <trkpt lat="45.66922" lon="6.24067">
        <ele>1488.6464</ele>
        <time>2020-09-15 16:58:45</time>
      </trkpt>
      <trkpt lat="45.66919" lon="6.24066">
        <ele>1488.5376</ele>
        <time>2020-09-15 16:58:47</time>
      </trkpt>
      <trkpt lat="45.66911" lon="6.24067">
        <ele>1488.1432</ele>
        <time>2020-09-15 16:58:53</time>
      </trkpt>
      <trkpt lat="45.669" lon="6.24069">
        <ele>1487.0625</ele>
        <time>2020-09-15 16:59:01</time>
      </trkpt>
      <trkpt lat="45.66892" lon="6.24073">
        <ele>1488.5092</ele>
        <time>2020-09-15 16:59:07</time>
      </trkpt>
      <trkpt lat="45.66886" lon="6.24075">
        <ele>1486.6063</ele>
        <time>2020-09-15 16:59:12</time>
      </trkpt>
      <trkpt lat="45.66883" lon="6.24076">
        <ele>1487.5425</ele>
        <time>2020-09-15 16:59:14</time>
      </trkpt>
      <trkpt lat="45.66881" lon="6.24078">
        <ele>1487.4167</ele>
        <time>2020-09-15 16:59:16</time>
      </trkpt>
      <trkpt lat="45.6688" lon="6.2408">
        <ele>1488.3123</ele>
        <time>2020-09-15 16:59:18</time>
      </trkpt>
      <trkpt lat="45.66876" lon="6.24085">
        <ele>1487.124</ele>
        <time>2020-09-15 16:59:22</time>
      </trkpt>
      <trkpt lat="45.66875" lon="6.24086">
        <ele>1487.3168</ele>
        <time>2020-09-15 16:59:23</time>
      </trkpt>
      <trkpt lat="45.66871" lon="6.24093">
        <ele>1485.7572</ele>
        <time>2020-09-15 16:59:28</time>
      </trkpt>
      <trkpt lat="45.66866" lon="6.24097">
        <ele>1487.2292</ele>
        <time>2020-09-15 16:59:33</time>
      </trkpt>
      <trkpt lat="45.6686" lon="6.24099">
        <ele>1485.8213</ele>
        <time>2020-09-15 16:59:39</time>
      </trkpt>
      <trkpt lat="45.66855" lon="6.24098">
        <ele>1485.5507</ele>
        <time>2020-09-15 16:59:43</time>
      </trkpt>
      <trkpt lat="45.66852" lon="6.24097">
        <ele>1481.3063</ele>
        <time>2020-09-15 16:59:46</time>
      </trkpt>
      <trkpt lat="45.66851" lon="6.24097">
        <ele>1482.1547</ele>
        <time>2020-09-15 16:59:47</time>
      </trkpt>
      <trkpt lat="45.6685" lon="6.24095">
        <ele>1482.3145</ele>
        <time>2020-09-15 16:59:49</time>
      </trkpt>
      <trkpt lat="45.66849" lon="6.24093">
        <ele>1483.2194</ele>
        <time>2020-09-15 16:59:53</time>
      </trkpt>
      <trkpt lat="45.66849" lon="6.24091">
        <ele>1483.9752</ele>
        <time>2020-09-15 16:59:54</time>
      </trkpt>
      <trkpt lat="45.66849" lon="6.2409">
        <ele>1483.8208</ele>
        <time>2020-09-15 16:59:55</time>
      </trkpt>
      <trkpt lat="45.66849" lon="6.24087">
        <ele>1482.5393</ele>
        <time>2020-09-15 16:59:57</time>
      </trkpt>
      <trkpt lat="45.66849" lon="6.24085">
        <ele>1482.3903</ele>
        <time>2020-09-15 16:59:58</time>
      </trkpt>
      <trkpt lat="45.66849" lon="6.24084">
        <ele>1482.8041</ele>
        <time>2020-09-15 16:59:59</time>
      </trkpt>
      <trkpt lat="45.66847" lon="6.24083">
        <ele>1482.3145</ele>
        <time>2020-09-15 17:00:01</time>
      </trkpt>
      <trkpt lat="45.66847" lon="6.24083">
        <ele>1481.9434</ele>
        <time>2020-09-15 17:00:02</time>
      </trkpt>
      <trkpt lat="45.66843" lon="6.24082">
        <ele>1480.7041</ele>
        <time>2020-09-15 17:00:05</time>
      </trkpt>
      <trkpt lat="45.66834" lon="6.24074">
        <ele>1477.6656</ele>
        <time>2020-09-15 17:00:14</time>
      </trkpt>
      <trkpt lat="45.66833" lon="6.24068">
        <ele>1476.7128</ele>
        <time>2020-09-15 17:00:19</time>
      </trkpt>
      <trkpt lat="45.66832" lon="6.24063">
        <ele>1478.5568</ele>
        <time>2020-09-15 17:00:22</time>
      </trkpt>
      <trkpt lat="45.66831" lon="6.24059">
        <ele>1478.5963</ele>
        <time>2020-09-15 17:00:25</time>
      </trkpt>
      <trkpt lat="45.6683" lon="6.24058">
        <ele>1477.7673</ele>
        <time>2020-09-15 17:00:27</time>
      </trkpt>
      <trkpt lat="45.66829" lon="6.24057">
        <ele>1477.8672</ele>
        <time>2020-09-15 17:00:28</time>
      </trkpt>
      <trkpt lat="45.66819" lon="6.24048">
        <ele>1478.3063</ele>
        <time>2020-09-15 17:00:36</time>
      </trkpt>
      <trkpt lat="45.66815" lon="6.24048">
        <ele>1479.4763</ele>
        <time>2020-09-15 17:00:39</time>
      </trkpt>
      <trkpt lat="45.66815" lon="6.24048">
        <ele>1478.5262</ele>
        <time>2020-09-15 17:00:40</time>
      </trkpt>
      <trkpt lat="45.66815" lon="6.24048">
        <ele>1476.6173</ele>
        <time>2020-09-15 17:00:42</time>
      </trkpt>
      <trkpt lat="45.66815" lon="6.24049">
        <ele>1477.0773</ele>
        <time>2020-09-15 17:00:43</time>
      </trkpt>
      <trkpt lat="45.66814" lon="6.2405">
        <ele>1476.4358</ele>
        <time>2020-09-15 17:00:44</time>
      </trkpt>
      <trkpt lat="45.66814" lon="6.24053">
        <ele>1474.9188</ele>
        <time>2020-09-15 17:00:47</time>
      </trkpt>
      <trkpt lat="45.66813" lon="6.24057">
        <ele>1474.8104</ele>
        <time>2020-09-15 17:00:49</time>
      </trkpt>
      <trkpt lat="45.66811" lon="6.24058">
        <ele>1475.6521</ele>
        <time>2020-09-15 17:00:50</time>
      </trkpt>
      <trkpt lat="45.66806" lon="6.24064">
        <ele>1477.2368</ele>
        <time>2020-09-15 17:00:55</time>
      </trkpt>
      <trkpt lat="45.66806" lon="6.24066">
        <ele>1477.4418</ele>
        <time>2020-09-15 17:00:57</time>
      </trkpt>
      <trkpt lat="45.66805" lon="6.24072">
        <ele>1478.545</ele>
        <time>2020-09-15 17:01:00</time>
      </trkpt>
      <trkpt lat="45.66803" lon="6.24073">
        <ele>1478.4961</ele>
        <time>2020-09-15 17:01:03</time>
      </trkpt>
      <trkpt lat="45.66802" lon="6.24074">
        <ele>1478.0498</ele>
        <time>2020-09-15 17:01:04</time>
      </trkpt>
      <trkpt lat="45.66799" lon="6.24077">
        <ele>1476.463</ele>
        <time>2020-09-15 17:01:07</time>
      </trkpt>
      <trkpt lat="45.66797" lon="6.24081">
        <ele>1476.8884</ele>
        <time>2020-09-15 17:01:09</time>
      </trkpt>
      <trkpt lat="45.66796" lon="6.24083">
        <ele>1476.5953</ele>
        <time>2020-09-15 17:01:10</time>
      </trkpt>
      <trkpt lat="45.66793" lon="6.24091">
        <ele>1476.668</ele>
        <time>2020-09-15 17:01:13</time>
      </trkpt>
      <trkpt lat="45.66792" lon="6.24093">
        <ele>1476.9773</ele>
        <time>2020-09-15 17:01:14</time>
      </trkpt>
      <trkpt lat="45.6679" lon="6.24096">
        <ele>1478.7616</ele>
        <time>2020-09-15 17:01:16</time>
      </trkpt>
      <trkpt lat="45.66789" lon="6.24097">
        <ele>1479.937</ele>
        <time>2020-09-15 17:01:18</time>
      </trkpt>
      <trkpt lat="45.66788" lon="6.24099">
        <ele>1479.5579</ele>
        <time>2020-09-15 17:01:20</time>
      </trkpt>
      <trkpt lat="45.66788" lon="6.241">
        <ele>1478.9628</ele>
        <time>2020-09-15 17:01:21</time>
      </trkpt>
      <trkpt lat="45.66788" lon="6.24103">
        <ele>1478.931</ele>
        <time>2020-09-15 17:01:23</time>
      </trkpt>
      <trkpt lat="45.66788" lon="6.24109">
        <ele>1478.6233</ele>
        <time>2020-09-15 17:01:26</time>
      </trkpt>
      <trkpt lat="45.66786" lon="6.24113">
        <ele>1478.4753</ele>
        <time>2020-09-15 17:01:28</time>
      </trkpt>
      <trkpt lat="45.66785" lon="6.24114">
        <ele>1478.0261</ele>
        <time>2020-09-15 17:01:29</time>
      </trkpt>
      <trkpt lat="45.66784" lon="6.24114">
        <ele>1477.4993</ele>
        <time>2020-09-15 17:01:30</time>
      </trkpt>
      <trkpt lat="45.6678" lon="6.24115">
        <ele>1474.1305</ele>
        <time>2020-09-15 17:01:33</time>
      </trkpt>
      <trkpt lat="45.66778" lon="6.24116">
        <ele>1475.0487</ele>
        <time>2020-09-15 17:01:34</time>
      </trkpt>
      <trkpt lat="45.66775" lon="6.24119">
        <ele>1474.6707</ele>
        <time>2020-09-15 17:01:37</time>
      </trkpt>
      <trkpt lat="45.66771" lon="6.24125">
        <ele>1477.1284</ele>
        <time>2020-09-15 17:01:42</time>
      </trkpt>
      <trkpt lat="45.66768" lon="6.24128">
        <ele>1474.3657</ele>
        <time>2020-09-15 17:01:45</time>
      </trkpt>
      <trkpt lat="45.66767" lon="6.2413">
        <ele>1473.0022</ele>
        <time>2020-09-15 17:01:47</time>
      </trkpt>
      <trkpt lat="45.66765" lon="6.24133">
        <ele>1472.2416</ele>
        <time>2020-09-15 17:01:49</time>
      </trkpt>
      <trkpt lat="45.66756" lon="6.24144">
        <ele>1467.2112</ele>
        <time>2020-09-15 17:01:56</time>
      </trkpt>
      <trkpt lat="45.66755" lon="6.24145">
        <ele>1467.6709</ele>
        <time>2020-09-15 17:01:57</time>
      </trkpt>
      <trkpt lat="45.66754" lon="6.24146">
        <ele>1465.579</ele>
        <time>2020-09-15 17:01:58</time>
      </trkpt>
      <trkpt lat="45.66752" lon="6.2415">
        <ele>1464.6006</ele>
        <time>2020-09-15 17:02:00</time>
      </trkpt>
      <trkpt lat="45.66748" lon="6.24157">
        <ele>1463.9404</ele>
        <time>2020-09-15 17:02:04</time>
      </trkpt>
      <trkpt lat="45.66747" lon="6.24161">
        <ele>1464.6384</ele>
        <time>2020-09-15 17:02:06</time>
      </trkpt>
      <trkpt lat="45.66742" lon="6.24171">
        <ele>1467.915</ele>
        <time>2020-09-15 17:02:13</time>
      </trkpt>
      <trkpt lat="45.66742" lon="6.24172">
        <ele>1468.285</ele>
        <time>2020-09-15 17:02:14</time>
      </trkpt>
      <trkpt lat="45.66741" lon="6.24173">
        <ele>1468.3842</ele>
        <time>2020-09-15 17:02:15</time>
      </trkpt>
      <trkpt lat="45.6674" lon="6.24174">
        <ele>1467.8059</ele>
        <time>2020-09-15 17:02:17</time>
      </trkpt>
      <trkpt lat="45.66739" lon="6.24175">
        <ele>1468.5488</ele>
        <time>2020-09-15 17:02:18</time>
      </trkpt>
      <trkpt lat="45.66736" lon="6.24176">
        <ele>1467.6917</ele>
        <time>2020-09-15 17:02:20</time>
      </trkpt>
      <trkpt lat="45.66726" lon="6.24179">
        <ele>1464.8046</ele>
        <time>2020-09-15 17:02:31</time>
      </trkpt>
      <trkpt lat="45.66725" lon="6.24179">
        <ele>1463.5908</ele>
        <time>2020-09-15 17:02:32</time>
      </trkpt>
      <trkpt lat="45.66722" lon="6.2418">
        <ele>1462.8057</ele>
        <time>2020-09-15 17:02:37</time>
      </trkpt>
      <trkpt lat="45.66721" lon="6.2418">
        <ele>1462.5187</ele>
        <time>2020-09-15 17:02:43</time>
      </trkpt>
      <trkpt lat="45.66716" lon="6.24181">
        <ele>1461.181</ele>
        <time>2020-09-15 17:02:47</time>
      </trkpt>
      <trkpt lat="45.66702" lon="6.24188">
        <ele>1459.8657</ele>
        <time>2020-09-15 17:02:57</time>
      </trkpt>
      <trkpt lat="45.667" lon="6.2419">
        <ele>1460.1835</ele>
        <time>2020-09-15 17:02:59</time>
      </trkpt>
      <trkpt lat="45.66699" lon="6.2419">
        <ele>1458.6218</ele>
        <time>2020-09-15 17:03:00</time>
      </trkpt>
      <trkpt lat="45.66691" lon="6.24196">
        <ele>1460.371</ele>
        <time>2020-09-15 17:03:08</time>
      </trkpt>
      <trkpt lat="45.66686" lon="6.24197">
        <ele>1454.8092</ele>
        <time>2020-09-15 17:03:11</time>
      </trkpt>
      <trkpt lat="45.66675" lon="6.242">
        <ele>1453.3954</ele>
        <time>2020-09-15 17:03:21</time>
      </trkpt>
      <trkpt lat="45.66675" lon="6.242">
        <ele>1453.7988</ele>
        <time>2020-09-15 17:03:23</time>
      </trkpt>
      <trkpt lat="45.66674" lon="6.24201">
        <ele>1453.7928</ele>
        <time>2020-09-15 17:03:24</time>
      </trkpt>
      <trkpt lat="45.66673" lon="6.24202">
        <ele>1453.7428</ele>
        <time>2020-09-15 17:03:25</time>
      </trkpt>
      <trkpt lat="45.66672" lon="6.24203">
        <ele>1453.5305</ele>
        <time>2020-09-15 17:03:26</time>
      </trkpt>
      <trkpt lat="45.66668" lon="6.2421">
        <ele>1453.4926</ele>
        <time>2020-09-15 17:03:31</time>
      </trkpt>
      <trkpt lat="45.66663" lon="6.24214">
        <ele>1450.0165</ele>
        <time>2020-09-15 17:03:34</time>
      </trkpt>
      <trkpt lat="45.6666" lon="6.24215">
        <ele>1449.4381</ele>
        <time>2020-09-15 17:03:36</time>
      </trkpt>
      <trkpt lat="45.66659" lon="6.24215">
        <ele>1449.711</ele>
        <time>2020-09-15 17:03:37</time>
      </trkpt>
      <trkpt lat="45.66655" lon="6.2422">
        <ele>1451.6877</ele>
        <time>2020-09-15 17:03:42</time>
      </trkpt>
      <trkpt lat="45.66649" lon="6.24226">
        <ele>1452.8168</ele>
        <time>2020-09-15 17:03:48</time>
      </trkpt>
      <trkpt lat="45.66648" lon="6.24226">
        <ele>1453.6167</ele>
        <time>2020-09-15 17:03:49</time>
      </trkpt>
      <trkpt lat="45.66647" lon="6.24227">
        <ele>1451.5292</ele>
        <time>2020-09-15 17:03:50</time>
      </trkpt>
      <trkpt lat="45.66644" lon="6.24231">
        <ele>1451.8806</ele>
        <time>2020-09-15 17:03:54</time>
      </trkpt>
      <trkpt lat="45.66644" lon="6.24231">
        <ele>1451.7954</ele>
        <time>2020-09-15 17:03:55</time>
      </trkpt>
      <trkpt lat="45.66642" lon="6.24232">
        <ele>1451.0768</ele>
        <time>2020-09-15 17:03:57</time>
      </trkpt>
      <trkpt lat="45.6664" lon="6.24233">
        <ele>1450.2837</ele>
        <time>2020-09-15 17:03:59</time>
      </trkpt>
      <trkpt lat="45.66633" lon="6.24234">
        <ele>1444.7006</ele>
        <time>2020-09-15 17:04:04</time>
      </trkpt>
      <trkpt lat="45.66632" lon="6.24234">
        <ele>1444.4127</ele>
        <time>2020-09-15 17:04:05</time>
      </trkpt>
      <trkpt lat="45.66627" lon="6.24232">
        <ele>1444.8049</ele>
        <time>2020-09-15 17:04:11</time>
      </trkpt>
      <trkpt lat="45.66625" lon="6.24231">
        <ele>1444.657</ele>
        <time>2020-09-15 17:04:13</time>
      </trkpt>
      <trkpt lat="45.66624" lon="6.2423">
        <ele>1444.1301</ele>
        <time>2020-09-15 17:04:14</time>
      </trkpt>
      <trkpt lat="45.66624" lon="6.24229">
        <ele>1444.2374</ele>
        <time>2020-09-15 17:04:16</time>
      </trkpt>
      <trkpt lat="45.66609" lon="6.24217">
        <ele>1440.4362</ele>
        <time>2020-09-15 17:04:29</time>
      </trkpt>
      <trkpt lat="45.66604" lon="6.24214">
        <ele>1440.458</ele>
        <time>2020-09-15 17:04:34</time>
      </trkpt>
      <trkpt lat="45.66603" lon="6.24212">
        <ele>1439.6765</ele>
        <time>2020-09-15 17:04:37</time>
      </trkpt>
      <trkpt lat="45.66602" lon="6.24211">
        <ele>1439.0194</ele>
        <time>2020-09-15 17:04:38</time>
      </trkpt>
      <trkpt lat="45.666" lon="6.2421">
        <ele>1438.5616</ele>
        <time>2020-09-15 17:04:40</time>
      </trkpt>
      <trkpt lat="45.66596" lon="6.24208">
        <ele>1437.4752</ele>
        <time>2020-09-15 17:04:44</time>
      </trkpt>
      <trkpt lat="45.66595" lon="6.24207">
        <ele>1438.3445</ele>
        <time>2020-09-15 17:04:47</time>
      </trkpt>
      <trkpt lat="45.66592" lon="6.24207">
        <ele>1435.5614</ele>
        <time>2020-09-15 17:04:50</time>
      </trkpt>
      <trkpt lat="45.66591" lon="6.24207">
        <ele>1436.6693</ele>
        <time>2020-09-15 17:04:52</time>
      </trkpt>
      <trkpt lat="45.66582" lon="6.24207">
        <ele>1438.4175</ele>
        <time>2020-09-15 17:04:59</time>
      </trkpt>
      <trkpt lat="45.6658" lon="6.24206">
        <ele>1439.1227</ele>
        <time>2020-09-15 17:05:02</time>
      </trkpt>
      <trkpt lat="45.66579" lon="6.24205">
        <ele>1439.0038</ele>
        <time>2020-09-15 17:05:04</time>
      </trkpt>
      <trkpt lat="45.66574" lon="6.24204">
        <ele>1439.6798</ele>
        <time>2020-09-15 17:05:09</time>
      </trkpt>
      <trkpt lat="45.66573" lon="6.24204">
        <ele>1439.5667</ele>
        <time>2020-09-15 17:05:10</time>
      </trkpt>
      <trkpt lat="45.66572" lon="6.24203">
        <ele>1438.7897</ele>
        <time>2020-09-15 17:05:12</time>
      </trkpt>
      <trkpt lat="45.66572" lon="6.24203">
        <ele>1437.3152</ele>
        <time>2020-09-15 17:05:13</time>
      </trkpt>
      <trkpt lat="45.66571" lon="6.24202">
        <ele>1436.0605</ele>
        <time>2020-09-15 17:05:15</time>
      </trkpt>
      <trkpt lat="45.66569" lon="6.242">
        <ele>1435.9384</ele>
        <time>2020-09-15 17:05:18</time>
      </trkpt>
      <trkpt lat="45.66567" lon="6.24199">
        <ele>1435.7671</ele>
        <time>2020-09-15 17:05:20</time>
      </trkpt>
      <trkpt lat="45.66563" lon="6.24199">
        <ele>1435.3096</ele>
        <time>2020-09-15 17:05:23</time>
      </trkpt>
      <trkpt lat="45.66562" lon="6.24199">
        <ele>1435.5469</ele>
        <time>2020-09-15 17:05:25</time>
      </trkpt>
      <trkpt lat="45.66558" lon="6.242">
        <ele>1433.3165</ele>
        <time>2020-09-15 17:05:31</time>
      </trkpt>
      <trkpt lat="45.66552" lon="6.24198">
        <ele>1433.1614</ele>
        <time>2020-09-15 17:05:35</time>
      </trkpt>
      <trkpt lat="45.66549" lon="6.24196">
        <ele>1432.978</ele>
        <time>2020-09-15 17:05:38</time>
      </trkpt>
      <trkpt lat="45.66546" lon="6.24197">
        <ele>1435.1954</ele>
        <time>2020-09-15 17:05:40</time>
      </trkpt>
      <trkpt lat="45.66536" lon="6.24197">
        <ele>1434.0233</ele>
        <time>2020-09-15 17:05:46</time>
      </trkpt>
      <trkpt lat="45.66531" lon="6.24197">
        <ele>1431.3475</ele>
        <time>2020-09-15 17:05:51</time>
      </trkpt>
      <trkpt lat="45.66529" lon="6.24197">
        <ele>1431.0991</ele>
        <time>2020-09-15 17:05:53</time>
      </trkpt>
      <trkpt lat="45.66529" lon="6.24195">
        <ele>1431.581</ele>
        <time>2020-09-15 17:05:55</time>
      </trkpt>
      <trkpt lat="45.66529" lon="6.24194">
        <ele>1431.1617</ele>
        <time>2020-09-15 17:05:56</time>
      </trkpt>
      <trkpt lat="45.6653" lon="6.24193">
        <ele>1429.9141</ele>
        <time>2020-09-15 17:05:58</time>
      </trkpt>
      <trkpt lat="45.66531" lon="6.24191">
        <ele>1430.1605</ele>
        <time>2020-09-15 17:05:59</time>
      </trkpt>
      <trkpt lat="45.66531" lon="6.2419">
        <ele>1428.806</ele>
        <time>2020-09-15 17:06:00</time>
      </trkpt>
      <trkpt lat="45.66531" lon="6.2419">
        <ele>1429.0724</ele>
        <time>2020-09-15 17:06:01</time>
      </trkpt>
      <trkpt lat="45.6653" lon="6.24189">
        <ele>1428.9198</ele>
        <time>2020-09-15 17:06:02</time>
      </trkpt>
      <trkpt lat="45.66529" lon="6.24188">
        <ele>1428.7513</ele>
        <time>2020-09-15 17:06:03</time>
      </trkpt>
      <trkpt lat="45.66528" lon="6.24188">
        <ele>1428.7032</ele>
        <time>2020-09-15 17:06:04</time>
      </trkpt>
      <trkpt lat="45.66526" lon="6.24188">
        <ele>1429.2803</ele>
        <time>2020-09-15 17:06:05</time>
      </trkpt>
      <trkpt lat="45.66524" lon="6.24188">
        <ele>1428.7517</ele>
        <time>2020-09-15 17:06:06</time>
      </trkpt>
      <trkpt lat="45.66512" lon="6.24189">
        <ele>1427.0332</ele>
        <time>2020-09-15 17:06:14</time>
      </trkpt>
      <trkpt lat="45.66512" lon="6.2419">
        <ele>1424.9116</ele>
        <time>2020-09-15 17:06:16</time>
      </trkpt>
      <trkpt lat="45.66508" lon="6.24191">
        <ele>1427.0288</ele>
        <time>2020-09-15 17:06:19</time>
      </trkpt>
      <trkpt lat="45.66505" lon="6.24191">
        <ele>1426.5955</ele>
        <time>2020-09-15 17:06:23</time>
      </trkpt>
      <trkpt lat="45.66499" lon="6.24193">
        <ele>1421.5363</ele>
        <time>2020-09-15 17:06:29</time>
      </trkpt>
      <trkpt lat="45.66498" lon="6.24193">
        <ele>1421.9097</ele>
        <time>2020-09-15 17:06:30</time>
      </trkpt>
      <trkpt lat="45.66496" lon="6.24193">
        <ele>1422.641</ele>
        <time>2020-09-15 17:06:32</time>
      </trkpt>
      <trkpt lat="45.66495" lon="6.24193">
        <ele>1420.7267</ele>
        <time>2020-09-15 17:06:33</time>
      </trkpt>
      <trkpt lat="45.66494" lon="6.24193">
        <ele>1420.4211</ele>
        <time>2020-09-15 17:06:34</time>
      </trkpt>
      <trkpt lat="45.66492" lon="6.24193">
        <ele>1419.5527</ele>
        <time>2020-09-15 17:06:36</time>
      </trkpt>
      <trkpt lat="45.66488" lon="6.24194">
        <ele>1420.4983</ele>
        <time>2020-09-15 17:06:39</time>
      </trkpt>
      <trkpt lat="45.66484" lon="6.24194">
        <ele>1420.2341</ele>
        <time>2020-09-15 17:06:42</time>
      </trkpt>
      <trkpt lat="45.66478" lon="6.24196">
        <ele>1418.6642</ele>
        <time>2020-09-15 17:06:45</time>
      </trkpt>
      <trkpt lat="45.6647" lon="6.24197">
        <ele>1415.389</ele>
        <time>2020-09-15 17:06:50</time>
      </trkpt>
      <trkpt lat="45.66447" lon="6.24194">
        <ele>1411.3502</ele>
        <time>2020-09-15 17:07:12</time>
      </trkpt>
      <trkpt lat="45.66446" lon="6.24195">
        <ele>1411.5804</ele>
        <time>2020-09-15 17:07:15</time>
      </trkpt>
      <trkpt lat="45.66446" lon="6.24195">
        <ele>1411.338</ele>
        <time>2020-09-15 17:07:16</time>
      </trkpt>
      <trkpt lat="45.66446" lon="6.24195">
        <ele>1410.2922</ele>
        <time>2020-09-15 17:07:20</time>
      </trkpt>
      <trkpt lat="45.66443" lon="6.24195">
        <ele>1410.9869</ele>
        <time>2020-09-15 17:07:23</time>
      </trkpt>
      <trkpt lat="45.66442" lon="6.24196">
        <ele>1410.1027</ele>
        <time>2020-09-15 17:07:24</time>
      </trkpt>
      <trkpt lat="45.66441" lon="6.24196">
        <ele>1409.752</ele>
        <time>2020-09-15 17:07:25</time>
      </trkpt>
      <trkpt lat="45.6644" lon="6.24197">
        <ele>1409.7653</ele>
        <time>2020-09-15 17:07:27</time>
      </trkpt>
      <trkpt lat="45.66439" lon="6.24198">
        <ele>1409.8324</ele>
        <time>2020-09-15 17:07:28</time>
      </trkpt>
      <trkpt lat="45.66436" lon="6.24199">
        <ele>1410.5425</ele>
        <time>2020-09-15 17:07:30</time>
      </trkpt>
      <trkpt lat="45.66436" lon="6.24199">
        <ele>1409.9413</ele>
        <time>2020-09-15 17:07:31</time>
      </trkpt>
      <trkpt lat="45.66434" lon="6.242">
        <ele>1410.8688</ele>
        <time>2020-09-15 17:07:33</time>
      </trkpt>
      <trkpt lat="45.66434" lon="6.242">
        <ele>1411.153</ele>
        <time>2020-09-15 17:07:34</time>
      </trkpt>
      <trkpt lat="45.66432" lon="6.242">
        <ele>1410.7678</ele>
        <time>2020-09-15 17:07:36</time>
      </trkpt>
      <trkpt lat="45.66429" lon="6.24201">
        <ele>1406.8329</ele>
        <time>2020-09-15 17:07:39</time>
      </trkpt>
      <trkpt lat="45.66423" lon="6.24202">
        <ele>1407.299</ele>
        <time>2020-09-15 17:07:43</time>
      </trkpt>
      <trkpt lat="45.66419" lon="6.24203">
        <ele>1404.1008</ele>
        <time>2020-09-15 17:07:46</time>
      </trkpt>
      <trkpt lat="45.66415" lon="6.24203">
        <ele>1401.8475</ele>
        <time>2020-09-15 17:07:48</time>
      </trkpt>
      <trkpt lat="45.66413" lon="6.24204">
        <ele>1400.7465</ele>
        <time>2020-09-15 17:07:49</time>
      </trkpt>
      <trkpt lat="45.66406" lon="6.24205">
        <ele>1400.8708</ele>
        <time>2020-09-15 17:07:54</time>
      </trkpt>
      <trkpt lat="45.66401" lon="6.24206">
        <ele>1403.3452</ele>
        <time>2020-09-15 17:07:59</time>
      </trkpt>
      <trkpt lat="45.66398" lon="6.24208">
        <ele>1402.2283</ele>
        <time>2020-09-15 17:08:02</time>
      </trkpt>
      <trkpt lat="45.66398" lon="6.24208">
        <ele>1402.7987</ele>
        <time>2020-09-15 17:08:03</time>
      </trkpt>
      <trkpt lat="45.66396" lon="6.24209">
        <ele>1400.9934</ele>
        <time>2020-09-15 17:08:05</time>
      </trkpt>
      <trkpt lat="45.6639" lon="6.24212">
        <ele>1399.6962</ele>
        <time>2020-09-15 17:08:11</time>
      </trkpt>
      <trkpt lat="45.66388" lon="6.24213">
        <ele>1399.2498</ele>
        <time>2020-09-15 17:08:14</time>
      </trkpt>
      <trkpt lat="45.66387" lon="6.24213">
        <ele>1400.3269</ele>
        <time>2020-09-15 17:08:19</time>
      </trkpt>
      <trkpt lat="45.66381" lon="6.24216">
        <ele>1398.8102</ele>
        <time>2020-09-15 17:08:22</time>
      </trkpt>
      <trkpt lat="45.66379" lon="6.24216">
        <ele>1398.9021</ele>
        <time>2020-09-15 17:08:23</time>
      </trkpt>
      <trkpt lat="45.66377" lon="6.24217">
        <ele>1399.029</ele>
        <time>2020-09-15 17:08:24</time>
      </trkpt>
      <trkpt lat="45.66373" lon="6.24221">
        <ele>1396.5573</ele>
        <time>2020-09-15 17:08:27</time>
      </trkpt>
      <trkpt lat="45.66368" lon="6.24225">
        <ele>1397.4819</ele>
        <time>2020-09-15 17:08:31</time>
      </trkpt>
      <trkpt lat="45.66363" lon="6.24228">
        <ele>1397.8401</ele>
        <time>2020-09-15 17:08:35</time>
      </trkpt>
      <trkpt lat="45.66354" lon="6.24233">
        <ele>1401.2153</ele>
        <time>2020-09-15 17:08:45</time>
      </trkpt>
      <trkpt lat="45.66353" lon="6.24234">
        <ele>1400.058</ele>
        <time>2020-09-15 17:08:47</time>
      </trkpt>
      <trkpt lat="45.6635" lon="6.24235">
        <ele>1397.3724</ele>
        <time>2020-09-15 17:08:50</time>
      </trkpt>
      <trkpt lat="45.66349" lon="6.24236">
        <ele>1395.5903</ele>
        <time>2020-09-15 17:08:51</time>
      </trkpt>
      <trkpt lat="45.66345" lon="6.24237">
        <ele>1392.4022</ele>
        <time>2020-09-15 17:08:53</time>
      </trkpt>
      <trkpt lat="45.66344" lon="6.24238">
        <ele>1392.6305</ele>
        <time>2020-09-15 17:08:54</time>
      </trkpt>
      <trkpt lat="45.66341" lon="6.24239">
        <ele>1392.0833</ele>
        <time>2020-09-15 17:08:56</time>
      </trkpt>
      <trkpt lat="45.66338" lon="6.2424">
        <ele>1391.1537</ele>
        <time>2020-09-15 17:08:59</time>
      </trkpt>
      <trkpt lat="45.66335" lon="6.24241">
        <ele>1391.492</ele>
        <time>2020-09-15 17:09:01</time>
      </trkpt>
      <trkpt lat="45.66335" lon="6.24241">
        <ele>1393.6997</ele>
        <time>2020-09-15 17:09:02</time>
      </trkpt>
      <trkpt lat="45.66334" lon="6.24241">
        <ele>1392.4612</ele>
        <time>2020-09-15 17:09:03</time>
      </trkpt>
      <trkpt lat="45.66324" lon="6.24242">
        <ele>1390.464</ele>
        <time>2020-09-15 17:09:13</time>
      </trkpt>
      <trkpt lat="45.66316" lon="6.24243">
        <ele>1386.0585</ele>
        <time>2020-09-15 17:09:18</time>
      </trkpt>
      <trkpt lat="45.66294" lon="6.24247">
        <ele>1377.3274</ele>
        <time>2020-09-15 17:09:35</time>
      </trkpt>
      <trkpt lat="45.66292" lon="6.24247">
        <ele>1376.2354</ele>
        <time>2020-09-15 17:09:37</time>
      </trkpt>
      <trkpt lat="45.66288" lon="6.24248">
        <ele>1378.1399</ele>
        <time>2020-09-15 17:09:41</time>
      </trkpt>
      <trkpt lat="45.66278" lon="6.24249">
        <ele>1379.2487</ele>
        <time>2020-09-15 17:09:51</time>
      </trkpt>
      <trkpt lat="45.66273" lon="6.24249">
        <ele>1378.3237</ele>
        <time>2020-09-15 17:09:56</time>
      </trkpt>
      <trkpt lat="45.66262" lon="6.24247">
        <ele>1380.2737</ele>
        <time>2020-09-15 17:10:06</time>
      </trkpt>
      <trkpt lat="45.66259" lon="6.24247">
        <ele>1383.4048</ele>
        <time>2020-09-15 17:10:08</time>
      </trkpt>
      <trkpt lat="45.66255" lon="6.24247">
        <ele>1380.719</ele>
        <time>2020-09-15 17:10:12</time>
      </trkpt>
      <trkpt lat="45.66252" lon="6.24247">
        <ele>1379.2357</ele>
        <time>2020-09-15 17:10:14</time>
      </trkpt>
      <trkpt lat="45.66249" lon="6.24247">
        <ele>1377.9626</ele>
        <time>2020-09-15 17:10:16</time>
      </trkpt>
      <trkpt lat="45.66245" lon="6.24247">
        <ele>1377.0519</ele>
        <time>2020-09-15 17:10:19</time>
      </trkpt>
      <trkpt lat="45.66236" lon="6.24242">
        <ele>1379.8481</ele>
        <time>2020-09-15 17:10:26</time>
      </trkpt>
      <trkpt lat="45.66231" lon="6.24241">
        <ele>1379.4167</ele>
        <time>2020-09-15 17:10:29</time>
      </trkpt>
      <trkpt lat="45.66226" lon="6.24241">
        <ele>1378.3639</ele>
        <time>2020-09-15 17:10:33</time>
      </trkpt>
      <trkpt lat="45.66224" lon="6.24239">
        <ele>1379.6356</ele>
        <time>2020-09-15 17:10:35</time>
      </trkpt>
      <trkpt lat="45.66219" lon="6.24236">
        <ele>1378.3654</ele>
        <time>2020-09-15 17:10:39</time>
      </trkpt>
      <trkpt lat="45.66215" lon="6.24236">
        <ele>1378.0328</ele>
        <time>2020-09-15 17:10:41</time>
      </trkpt>
      <trkpt lat="45.66203" lon="6.24234">
        <ele>1376.6664</ele>
        <time>2020-09-15 17:10:48</time>
      </trkpt>
      <trkpt lat="45.66203" lon="6.24233">
        <ele>1377.0859</ele>
        <time>2020-09-15 17:10:49</time>
      </trkpt>
      <trkpt lat="45.66198" lon="6.24228">
        <ele>1377.8384</ele>
        <time>2020-09-15 17:10:55</time>
      </trkpt>
      <trkpt lat="45.66188" lon="6.24225">
        <ele>1378.4401</ele>
        <time>2020-09-15 17:11:02</time>
      </trkpt>
      <trkpt lat="45.66183" lon="6.24223">
        <ele>1376.7643</ele>
        <time>2020-09-15 17:11:08</time>
      </trkpt>
      <trkpt lat="45.66179" lon="6.24219">
        <ele>1378.3328</ele>
        <time>2020-09-15 17:11:14</time>
      </trkpt>
      <trkpt lat="45.6617" lon="6.24214">
        <ele>1373.1235</ele>
        <time>2020-09-15 17:11:23</time>
      </trkpt>
      <trkpt lat="45.66169" lon="6.24213">
        <ele>1373.7953</ele>
        <time>2020-09-15 17:11:24</time>
      </trkpt>
      <trkpt lat="45.66169" lon="6.24212">
        <ele>1374.6029</ele>
        <time>2020-09-15 17:11:25</time>
      </trkpt>
      <trkpt lat="45.66168" lon="6.24212">
        <ele>1374.4269</ele>
        <time>2020-09-15 17:11:26</time>
      </trkpt>
      <trkpt lat="45.66167" lon="6.24211">
        <ele>1374.413</ele>
        <time>2020-09-15 17:11:27</time>
      </trkpt>
      <trkpt lat="45.66163" lon="6.24208">
        <ele>1370.5662</ele>
        <time>2020-09-15 17:11:35</time>
      </trkpt>
      <trkpt lat="45.66163" lon="6.24208">
        <ele>1370.0991</ele>
        <time>2020-09-15 17:11:40</time>
      </trkpt>
      <trkpt lat="45.66159" lon="6.24203">
        <ele>1371.0249</ele>
        <time>2020-09-15 17:11:45</time>
      </trkpt>
      <trkpt lat="45.66157" lon="6.24203">
        <ele>1370.0204</ele>
        <time>2020-09-15 17:11:46</time>
      </trkpt>
      <trkpt lat="45.66152" lon="6.24204">
        <ele>1369.7013</ele>
        <time>2020-09-15 17:11:48</time>
      </trkpt>
      <trkpt lat="45.66148" lon="6.24205">
        <ele>1368.7218</ele>
        <time>2020-09-15 17:11:52</time>
      </trkpt>
      <trkpt lat="45.66147" lon="6.24205">
        <ele>1369.1003</ele>
        <time>2020-09-15 17:11:53</time>
      </trkpt>
      <trkpt lat="45.66144" lon="6.24203">
        <ele>1366.9215</ele>
        <time>2020-09-15 17:11:56</time>
      </trkpt>
      <trkpt lat="45.66144" lon="6.24201">
        <ele>1366.0271</ele>
        <time>2020-09-15 17:11:58</time>
      </trkpt>
      <trkpt lat="45.66144" lon="6.242">
        <ele>1365.3877</ele>
        <time>2020-09-15 17:11:59</time>
      </trkpt>
      <trkpt lat="45.66144" lon="6.242">
        <ele>1365.8918</ele>
        <time>2020-09-15 17:12:00</time>
      </trkpt>
      <trkpt lat="45.66143" lon="6.24199">
        <ele>1366.3127</ele>
        <time>2020-09-15 17:12:01</time>
      </trkpt>
      <trkpt lat="45.66142" lon="6.24199">
        <ele>1366.6881</ele>
        <time>2020-09-15 17:12:05</time>
      </trkpt>
      <trkpt lat="45.66142" lon="6.24199">
        <ele>1366.5657</ele>
        <time>2020-09-15 17:12:06</time>
      </trkpt>
      <trkpt lat="45.66141" lon="6.24199">
        <ele>1366.0492</ele>
        <time>2020-09-15 17:12:07</time>
      </trkpt>
      <trkpt lat="45.6614" lon="6.24199">
        <ele>1364.9799</ele>
        <time>2020-09-15 17:12:09</time>
      </trkpt>
      <trkpt lat="45.66136" lon="6.24196">
        <ele>1364.6489</ele>
        <time>2020-09-15 17:12:13</time>
      </trkpt>
      <trkpt lat="45.66131" lon="6.24194">
        <ele>1367.937</ele>
        <time>2020-09-15 17:12:18</time>
      </trkpt>
      <trkpt lat="45.6613" lon="6.24194">
        <ele>1367.8143</ele>
        <time>2020-09-15 17:12:19</time>
      </trkpt>
      <trkpt lat="45.66128" lon="6.24192">
        <ele>1368.573</ele>
        <time>2020-09-15 17:12:21</time>
      </trkpt>
      <trkpt lat="45.66125" lon="6.2419">
        <ele>1367.73</ele>
        <time>2020-09-15 17:12:23</time>
      </trkpt>
      <trkpt lat="45.66124" lon="6.24189">
        <ele>1368.1096</ele>
        <time>2020-09-15 17:12:24</time>
      </trkpt>
      <trkpt lat="45.66118" lon="6.24186">
        <ele>1365.8788</ele>
        <time>2020-09-15 17:12:29</time>
      </trkpt>
      <trkpt lat="45.66117" lon="6.24185">
        <ele>1366.0007</ele>
        <time>2020-09-15 17:12:30</time>
      </trkpt>
      <trkpt lat="45.66111" lon="6.24183">
        <ele>1364.3002</ele>
        <time>2020-09-15 17:12:35</time>
      </trkpt>
      <trkpt lat="45.66106" lon="6.24181">
        <ele>1363.7965</ele>
        <time>2020-09-15 17:12:38</time>
      </trkpt>
      <trkpt lat="45.66088" lon="6.24176">
        <ele>1363.2445</ele>
        <time>2020-09-15 17:12:55</time>
      </trkpt>
      <trkpt lat="45.66082" lon="6.24171">
        <ele>1364.4626</ele>
        <time>2020-09-15 17:13:01</time>
      </trkpt>
      <trkpt lat="45.66078" lon="6.2417">
        <ele>1363.9998</ele>
        <time>2020-09-15 17:13:04</time>
      </trkpt>
      <trkpt lat="45.66074" lon="6.24169">
        <ele>1365.9443</ele>
        <time>2020-09-15 17:13:07</time>
      </trkpt>
      <trkpt lat="45.66073" lon="6.24169">
        <ele>1364.655</ele>
        <time>2020-09-15 17:13:08</time>
      </trkpt>
      <trkpt lat="45.66071" lon="6.24167">
        <ele>1361.1904</ele>
        <time>2020-09-15 17:13:11</time>
      </trkpt>
      <trkpt lat="45.66069" lon="6.24166">
        <ele>1360.933</ele>
        <time>2020-09-15 17:13:13</time>
      </trkpt>
      <trkpt lat="45.66061" lon="6.24165">
        <ele>1360.3905</ele>
        <time>2020-09-15 17:13:19</time>
      </trkpt>
      <trkpt lat="45.66057" lon="6.24165">
        <ele>1361.1542</ele>
        <time>2020-09-15 17:13:22</time>
      </trkpt>
      <trkpt lat="45.66055" lon="6.24165">
        <ele>1361.2867</ele>
        <time>2020-09-15 17:13:24</time>
      </trkpt>
      <trkpt lat="45.6605" lon="6.24163">
        <ele>1362.9923</ele>
        <time>2020-09-15 17:13:29</time>
      </trkpt>
      <trkpt lat="45.66047" lon="6.2416">
        <ele>1362.5485</ele>
        <time>2020-09-15 17:13:32</time>
      </trkpt>
      <trkpt lat="45.66044" lon="6.24158">
        <ele>1363.678</ele>
        <time>2020-09-15 17:13:36</time>
      </trkpt>
      <trkpt lat="45.66043" lon="6.24157">
        <ele>1364.4436</ele>
        <time>2020-09-15 17:13:38</time>
      </trkpt>
      <trkpt lat="45.66043" lon="6.24157">
        <ele>1364.8431</ele>
        <time>2020-09-15 17:13:39</time>
      </trkpt>
      <trkpt lat="45.66041" lon="6.24157">
        <ele>1366.7551</ele>
        <time>2020-09-15 17:13:42</time>
      </trkpt>
      <trkpt lat="45.6604" lon="6.24157">
        <ele>1367.3282</ele>
        <time>2020-09-15 17:13:43</time>
      </trkpt>
      <trkpt lat="45.66039" lon="6.24155">
        <ele>1369.8687</ele>
        <time>2020-09-15 17:13:45</time>
      </trkpt>
      <trkpt lat="45.66036" lon="6.24156">
        <ele>1370.4514</ele>
        <time>2020-09-15 17:13:48</time>
      </trkpt>
      <trkpt lat="45.66034" lon="6.24156">
        <ele>1370.0488</ele>
        <time>2020-09-15 17:13:51</time>
      </trkpt>
      <trkpt lat="45.66033" lon="6.24156">
        <ele>1370.5931</ele>
        <time>2020-09-15 17:13:52</time>
      </trkpt>
      <trkpt lat="45.66031" lon="6.24155">
        <ele>1371.7045</ele>
        <time>2020-09-15 17:13:55</time>
      </trkpt>
      <trkpt lat="45.66029" lon="6.24153">
        <ele>1372.3813</ele>
        <time>2020-09-15 17:13:57</time>
      </trkpt>
      <trkpt lat="45.66029" lon="6.24152">
        <ele>1370.1014</ele>
        <time>2020-09-15 17:13:58</time>
      </trkpt>
      <trkpt lat="45.66024" lon="6.24149">
        <ele>1366.9893</ele>
        <time>2020-09-15 17:14:03</time>
      </trkpt>
      <trkpt lat="45.66023" lon="6.24149">
        <ele>1365.8395</ele>
        <time>2020-09-15 17:14:04</time>
      </trkpt>
      <trkpt lat="45.66019" lon="6.24146">
        <ele>1367.4069</ele>
        <time>2020-09-15 17:14:07</time>
      </trkpt>
      <trkpt lat="45.66018" lon="6.24145">
        <ele>1368.0815</ele>
        <time>2020-09-15 17:14:09</time>
      </trkpt>
      <trkpt lat="45.66017" lon="6.24145">
        <ele>1367.3304</ele>
        <time>2020-09-15 17:14:10</time>
      </trkpt>
      <trkpt lat="45.66016" lon="6.24145">
        <ele>1366.9445</ele>
        <time>2020-09-15 17:14:11</time>
      </trkpt>
      <trkpt lat="45.66016" lon="6.24145">
        <ele>1367.99</ele>
        <time>2020-09-15 17:14:12</time>
      </trkpt>
      <trkpt lat="45.66014" lon="6.24144">
        <ele>1366.5925</ele>
        <time>2020-09-15 17:14:14</time>
      </trkpt>
      <trkpt lat="45.66013" lon="6.24143">
        <ele>1366.9048</ele>
        <time>2020-09-15 17:14:15</time>
      </trkpt>
      <trkpt lat="45.66009" lon="6.24143">
        <ele>1367.8257</ele>
        <time>2020-09-15 17:14:17</time>
      </trkpt>
      <trkpt lat="45.66" lon="6.24141">
        <ele>1369.1605</ele>
        <time>2020-09-15 17:14:24</time>
      </trkpt>
      <trkpt lat="45.65999" lon="6.24139">
        <ele>1369.212</ele>
        <time>2020-09-15 17:14:25</time>
      </trkpt>
      <trkpt lat="45.65996" lon="6.24136">
        <ele>1368.0621</ele>
        <time>2020-09-15 17:14:27</time>
      </trkpt>
      <trkpt lat="45.65995" lon="6.24135">
        <ele>1367.197</ele>
        <time>2020-09-15 17:14:28</time>
      </trkpt>
      <trkpt lat="45.6599" lon="6.24132">
        <ele>1365.4147</ele>
        <time>2020-09-15 17:14:31</time>
      </trkpt>
      <trkpt lat="45.65988" lon="6.24131">
        <ele>1365.0327</ele>
        <time>2020-09-15 17:14:33</time>
      </trkpt>
      <trkpt lat="45.65986" lon="6.24131">
        <ele>1366.1168</ele>
        <time>2020-09-15 17:14:34</time>
      </trkpt>
      <trkpt lat="45.65984" lon="6.24129">
        <ele>1367.727</ele>
        <time>2020-09-15 17:14:37</time>
      </trkpt>
      <trkpt lat="45.65983" lon="6.24127">
        <ele>1368.944</ele>
        <time>2020-09-15 17:14:38</time>
      </trkpt>
      <trkpt lat="45.65982" lon="6.24124">
        <ele>1366.4202</ele>
        <time>2020-09-15 17:14:41</time>
      </trkpt>
      <trkpt lat="45.6598" lon="6.24123">
        <ele>1367.413</ele>
        <time>2020-09-15 17:14:43</time>
      </trkpt>
      <trkpt lat="45.6598" lon="6.24122">
        <ele>1366.615</ele>
        <time>2020-09-15 17:14:44</time>
      </trkpt>
      <trkpt lat="45.65978" lon="6.24121">
        <ele>1366.6838</ele>
        <time>2020-09-15 17:14:46</time>
      </trkpt>
      <trkpt lat="45.65977" lon="6.2412">
        <ele>1367.4047</ele>
        <time>2020-09-15 17:14:47</time>
      </trkpt>
      <trkpt lat="45.65975" lon="6.24119">
        <ele>1367.2655</ele>
        <time>2020-09-15 17:14:49</time>
      </trkpt>
      <trkpt lat="45.65974" lon="6.24118">
        <ele>1367.4938</ele>
        <time>2020-09-15 17:14:50</time>
      </trkpt>
      <trkpt lat="45.65973" lon="6.24114">
        <ele>1366.0465</ele>
        <time>2020-09-15 17:14:52</time>
      </trkpt>
      <trkpt lat="45.65972" lon="6.24113">
        <ele>1365.7391</ele>
        <time>2020-09-15 17:14:53</time>
      </trkpt>
      <trkpt lat="45.65971" lon="6.24113">
        <ele>1364.055</ele>
        <time>2020-09-15 17:14:54</time>
      </trkpt>
      <trkpt lat="45.65968" lon="6.24109">
        <ele>1364.1671</ele>
        <time>2020-09-15 17:14:57</time>
      </trkpt>
      <trkpt lat="45.65967" lon="6.24107">
        <ele>1362.437</ele>
        <time>2020-09-15 17:14:58</time>
      </trkpt>
      <trkpt lat="45.65966" lon="6.24105">
        <ele>1362.6337</ele>
        <time>2020-09-15 17:15:00</time>
      </trkpt>
      <trkpt lat="45.65966" lon="6.24104">
        <ele>1362.069</ele>
        <time>2020-09-15 17:15:01</time>
      </trkpt>
      <trkpt lat="45.65965" lon="6.24104">
        <ele>1362.0936</ele>
        <time>2020-09-15 17:15:02</time>
      </trkpt>
      <trkpt lat="45.65962" lon="6.24101">
        <ele>1363.3685</ele>
        <time>2020-09-15 17:15:07</time>
      </trkpt>
      <trkpt lat="45.65961" lon="6.241">
        <ele>1363.4642</ele>
        <time>2020-09-15 17:15:08</time>
      </trkpt>
      <trkpt lat="45.6596" lon="6.24098">
        <ele>1364.0292</ele>
        <time>2020-09-15 17:15:10</time>
      </trkpt>
      <trkpt lat="45.65958" lon="6.24096">
        <ele>1363.2144</ele>
        <time>2020-09-15 17:15:12</time>
      </trkpt>
      <trkpt lat="45.65958" lon="6.24095">
        <ele>1363.0072</ele>
        <time>2020-09-15 17:15:13</time>
      </trkpt>
      <trkpt lat="45.65956" lon="6.24092">
        <ele>1361.706</ele>
        <time>2020-09-15 17:15:16</time>
      </trkpt>
      <trkpt lat="45.6595" lon="6.24088">
        <ele>1364.3983</ele>
        <time>2020-09-15 17:15:21</time>
      </trkpt>
      <trkpt lat="45.65937" lon="6.24079">
        <ele>1369.2084</ele>
        <time>2020-09-15 17:15:35</time>
      </trkpt>
      <trkpt lat="45.65937" lon="6.24078">
        <ele>1369.5176</ele>
        <time>2020-09-15 17:15:36</time>
      </trkpt>
      <trkpt lat="45.65934" lon="6.24074">
        <ele>1367.5448</ele>
        <time>2020-09-15 17:15:39</time>
      </trkpt>
      <trkpt lat="45.65931" lon="6.24071">
        <ele>1364.8545</ele>
        <time>2020-09-15 17:15:42</time>
      </trkpt>
      <trkpt lat="45.65931" lon="6.2407">
        <ele>1364.5214</ele>
        <time>2020-09-15 17:15:43</time>
      </trkpt>
      <trkpt lat="45.6593" lon="6.24069">
        <ele>1363.5002</ele>
        <time>2020-09-15 17:15:44</time>
      </trkpt>
      <trkpt lat="45.65929" lon="6.24068">
        <ele>1364.57</ele>
        <time>2020-09-15 17:15:45</time>
      </trkpt>
      <trkpt lat="45.65929" lon="6.24068">
        <ele>1362.001</ele>
        <time>2020-09-15 17:15:46</time>
      </trkpt>
      <trkpt lat="45.65928" lon="6.24067">
        <ele>1361.0312</ele>
        <time>2020-09-15 17:15:48</time>
      </trkpt>
      <trkpt lat="45.65926" lon="6.24065">
        <ele>1357.8983</ele>
        <time>2020-09-15 17:15:51</time>
      </trkpt>
      <trkpt lat="45.65926" lon="6.24064">
        <ele>1355.9523</ele>
        <time>2020-09-15 17:15:52</time>
      </trkpt>
      <trkpt lat="45.65925" lon="6.24063">
        <ele>1356.0425</ele>
        <time>2020-09-15 17:15:53</time>
      </trkpt>
      <trkpt lat="45.65924" lon="6.24062">
        <ele>1356.525</ele>
        <time>2020-09-15 17:15:55</time>
      </trkpt>
      <trkpt lat="45.65922" lon="6.24062">
        <ele>1356.4418</ele>
        <time>2020-09-15 17:15:56</time>
      </trkpt>
      <trkpt lat="45.65918" lon="6.24062">
        <ele>1353.4749</ele>
        <time>2020-09-15 17:15:58</time>
      </trkpt>
      <trkpt lat="45.65915" lon="6.24062">
        <ele>1351.506</ele>
        <time>2020-09-15 17:16:01</time>
      </trkpt>
      <trkpt lat="45.65915" lon="6.24061">
        <ele>1350.5408</ele>
        <time>2020-09-15 17:16:02</time>
      </trkpt>
      <trkpt lat="45.65912" lon="6.24059">
        <ele>1352.5659</ele>
        <time>2020-09-15 17:16:05</time>
      </trkpt>
      <trkpt lat="45.65909" lon="6.24058">
        <ele>1351.9021</ele>
        <time>2020-09-15 17:16:08</time>
      </trkpt>
      <trkpt lat="45.65903" lon="6.24054">
        <ele>1351.7429</ele>
        <time>2020-09-15 17:16:13</time>
      </trkpt>
      <trkpt lat="45.65901" lon="6.24053">
        <ele>1350.395</ele>
        <time>2020-09-15 17:16:15</time>
      </trkpt>
      <trkpt lat="45.65899" lon="6.24053">
        <ele>1350.4086</ele>
        <time>2020-09-15 17:16:16</time>
      </trkpt>
      <trkpt lat="45.65895" lon="6.24054">
        <ele>1347.8872</ele>
        <time>2020-09-15 17:16:18</time>
      </trkpt>
      <trkpt lat="45.65893" lon="6.24055">
        <ele>1348.3591</ele>
        <time>2020-09-15 17:16:19</time>
      </trkpt>
      <trkpt lat="45.65888" lon="6.24058">
        <ele>1347.5806</ele>
        <time>2020-09-15 17:16:22</time>
      </trkpt>
      <trkpt lat="45.65885" lon="6.2406">
        <ele>1348.2031</ele>
        <time>2020-09-15 17:16:25</time>
      </trkpt>
      <trkpt lat="45.65883" lon="6.24059">
        <ele>1349.3032</ele>
        <time>2020-09-15 17:16:26</time>
      </trkpt>
      <trkpt lat="45.65881" lon="6.24059">
        <ele>1350.7809</ele>
        <time>2020-09-15 17:16:28</time>
      </trkpt>
      <trkpt lat="45.65877" lon="6.24059">
        <ele>1350.6108</ele>
        <time>2020-09-15 17:16:31</time>
      </trkpt>
      <trkpt lat="45.65875" lon="6.24059">
        <ele>1350.0537</ele>
        <time>2020-09-15 17:16:33</time>
      </trkpt>
      <trkpt lat="45.65874" lon="6.24059">
        <ele>1350.0612</ele>
        <time>2020-09-15 17:16:34</time>
      </trkpt>
      <trkpt lat="45.65867" lon="6.2406">
        <ele>1347.639</ele>
        <time>2020-09-15 17:16:39</time>
      </trkpt>
      <trkpt lat="45.65865" lon="6.24059">
        <ele>1348.9922</ele>
        <time>2020-09-15 17:16:41</time>
      </trkpt>
      <trkpt lat="45.65863" lon="6.24059">
        <ele>1347.3325</ele>
        <time>2020-09-15 17:16:42</time>
      </trkpt>
      <trkpt lat="45.65861" lon="6.24059">
        <ele>1347.965</ele>
        <time>2020-09-15 17:16:44</time>
      </trkpt>
      <trkpt lat="45.65857" lon="6.24058">
        <ele>1347.2008</ele>
        <time>2020-09-15 17:16:52</time>
      </trkpt>
      <trkpt lat="45.65856" lon="6.24058">
        <ele>1348.583</ele>
        <time>2020-09-15 17:16:53</time>
      </trkpt>
      <trkpt lat="45.65855" lon="6.24057">
        <ele>1349.5385</ele>
        <time>2020-09-15 17:16:55</time>
      </trkpt>
      <trkpt lat="45.65854" lon="6.24057">
        <ele>1348.3672</ele>
        <time>2020-09-15 17:16:56</time>
      </trkpt>
      <trkpt lat="45.65851" lon="6.24057">
        <ele>1347.7235</ele>
        <time>2020-09-15 17:16:58</time>
      </trkpt>
      <trkpt lat="45.6585" lon="6.24058">
        <ele>1348.0153</ele>
        <time>2020-09-15 17:16:59</time>
      </trkpt>
      <trkpt lat="45.65847" lon="6.24058">
        <ele>1348.1617</ele>
        <time>2020-09-15 17:17:01</time>
      </trkpt>
      <trkpt lat="45.65844" lon="6.24059">
        <ele>1348.4069</ele>
        <time>2020-09-15 17:17:04</time>
      </trkpt>
      <trkpt lat="45.65843" lon="6.24059">
        <ele>1348.6166</ele>
        <time>2020-09-15 17:17:05</time>
      </trkpt>
      <trkpt lat="45.65841" lon="6.2406">
        <ele>1347.9188</ele>
        <time>2020-09-15 17:17:07</time>
      </trkpt>
      <trkpt lat="45.65841" lon="6.2406">
        <ele>1346.2974</ele>
        <time>2020-09-15 17:17:08</time>
      </trkpt>
      <trkpt lat="45.6584" lon="6.2406">
        <ele>1346.7292</ele>
        <time>2020-09-15 17:17:09</time>
      </trkpt>
      <trkpt lat="45.65839" lon="6.2406">
        <ele>1346.3412</ele>
        <time>2020-09-15 17:17:10</time>
      </trkpt>
      <trkpt lat="45.65837" lon="6.2406">
        <ele>1346.0197</ele>
        <time>2020-09-15 17:17:11</time>
      </trkpt>
      <trkpt lat="45.65833" lon="6.24062">
        <ele>1342.8525</ele>
        <time>2020-09-15 17:17:13</time>
      </trkpt>
      <trkpt lat="45.65829" lon="6.24064">
        <ele>1343.4152</ele>
        <time>2020-09-15 17:17:16</time>
      </trkpt>
      <trkpt lat="45.65828" lon="6.24064">
        <ele>1342.0049</ele>
        <time>2020-09-15 17:17:17</time>
      </trkpt>
      <trkpt lat="45.65826" lon="6.24064">
        <ele>1342.1401</ele>
        <time>2020-09-15 17:17:19</time>
      </trkpt>
      <trkpt lat="45.65825" lon="6.24064">
        <ele>1342.2291</ele>
        <time>2020-09-15 17:17:20</time>
      </trkpt>
      <trkpt lat="45.65823" lon="6.24064">
        <ele>1342.0555</ele>
        <time>2020-09-15 17:17:21</time>
      </trkpt>
      <trkpt lat="45.65823" lon="6.24063">
        <ele>1338.8632</ele>
        <time>2020-09-15 17:17:22</time>
      </trkpt>
      <trkpt lat="45.65822" lon="6.24062">
        <ele>1338.695</ele>
        <time>2020-09-15 17:17:23</time>
      </trkpt>
      <trkpt lat="45.65821" lon="6.24061">
        <ele>1339.8193</ele>
        <time>2020-09-15 17:17:25</time>
      </trkpt>
      <trkpt lat="45.65821" lon="6.24061">
        <ele>1338.6888</ele>
        <time>2020-09-15 17:17:26</time>
      </trkpt>
      <trkpt lat="45.65819" lon="6.24061">
        <ele>1338.3351</ele>
        <time>2020-09-15 17:17:29</time>
      </trkpt>
      <trkpt lat="45.65817" lon="6.24062">
        <ele>1338.6122</ele>
        <time>2020-09-15 17:17:31</time>
      </trkpt>
      <trkpt lat="45.65815" lon="6.24062">
        <ele>1338.8933</ele>
        <time>2020-09-15 17:17:32</time>
      </trkpt>
      <trkpt lat="45.65808" lon="6.24063">
        <ele>1338.2255</ele>
        <time>2020-09-15 17:17:48</time>
      </trkpt>
      <trkpt lat="45.65803" lon="6.24062">
        <ele>1335.2727</ele>
        <time>2020-09-15 17:17:51</time>
      </trkpt>
      <trkpt lat="45.65795" lon="6.24064">
        <ele>1331.265</ele>
        <time>2020-09-15 17:17:57</time>
      </trkpt>
      <trkpt lat="45.65794" lon="6.24064">
        <ele>1331.5176</ele>
        <time>2020-09-15 17:17:59</time>
      </trkpt>
      <trkpt lat="45.65793" lon="6.24063">
        <ele>1330.6744</ele>
        <time>2020-09-15 17:18:00</time>
      </trkpt>
      <trkpt lat="45.65792" lon="6.24063">
        <ele>1330.4309</ele>
        <time>2020-09-15 17:18:01</time>
      </trkpt>
      <trkpt lat="45.65788" lon="6.24062">
        <ele>1330.4268</ele>
        <time>2020-09-15 17:18:11</time>
      </trkpt>
      <trkpt lat="45.65787" lon="6.24061">
        <ele>1331.5632</ele>
        <time>2020-09-15 17:18:12</time>
      </trkpt>
      <trkpt lat="45.65786" lon="6.24061">
        <ele>1329.3748</ele>
        <time>2020-09-15 17:18:13</time>
      </trkpt>
      <trkpt lat="45.65784" lon="6.24057">
        <ele>1325.6049</ele>
        <time>2020-09-15 17:18:16</time>
      </trkpt>
      <trkpt lat="45.65781" lon="6.24057">
        <ele>1324.9296</ele>
        <time>2020-09-15 17:18:19</time>
      </trkpt>
      <trkpt lat="45.65779" lon="6.24058">
        <ele>1324.5889</ele>
        <time>2020-09-15 17:18:20</time>
      </trkpt>
      <trkpt lat="45.65777" lon="6.2406">
        <ele>1324.4436</ele>
        <time>2020-09-15 17:18:22</time>
      </trkpt>
      <trkpt lat="45.65776" lon="6.24061">
        <ele>1324.0963</ele>
        <time>2020-09-15 17:18:23</time>
      </trkpt>
      <trkpt lat="45.65771" lon="6.24062">
        <ele>1324.6958</ele>
        <time>2020-09-15 17:18:26</time>
      </trkpt>
      <trkpt lat="45.65762" lon="6.24062">
        <ele>1321.1774</ele>
        <time>2020-09-15 17:18:32</time>
      </trkpt>
      <trkpt lat="45.65759" lon="6.24062">
        <ele>1317.6898</ele>
        <time>2020-09-15 17:18:46</time>
      </trkpt>
      <trkpt lat="45.65758" lon="6.24062">
        <ele>1317.9636</ele>
        <time>2020-09-15 17:18:47</time>
      </trkpt>
      <trkpt lat="45.65756" lon="6.24062">
        <ele>1318.3417</ele>
        <time>2020-09-15 17:18:48</time>
      </trkpt>
      <trkpt lat="45.65739" lon="6.24063">
        <ele>1318.6029</ele>
        <time>2020-09-15 17:18:57</time>
      </trkpt>
      <trkpt lat="45.65737" lon="6.24063">
        <ele>1319.8906</ele>
        <time>2020-09-15 17:18:58</time>
      </trkpt>
      <trkpt lat="45.65734" lon="6.24064">
        <ele>1320.2557</ele>
        <time>2020-09-15 17:18:59</time>
      </trkpt>
      <trkpt lat="45.65732" lon="6.24065">
        <ele>1319.0731</ele>
        <time>2020-09-15 17:19:00</time>
      </trkpt>
      <trkpt lat="45.65729" lon="6.24067">
        <ele>1319.411</ele>
        <time>2020-09-15 17:19:02</time>
      </trkpt>
      <trkpt lat="45.65724" lon="6.24067">
        <ele>1317.0127</ele>
        <time>2020-09-15 17:19:08</time>
      </trkpt>
      <trkpt lat="45.65723" lon="6.24066">
        <ele>1315.411</ele>
        <time>2020-09-15 17:19:09</time>
      </trkpt>
      <trkpt lat="45.65721" lon="6.24066">
        <ele>1314.0242</ele>
        <time>2020-09-15 17:19:11</time>
      </trkpt>
      <trkpt lat="45.6572" lon="6.24066">
        <ele>1312.4845</ele>
        <time>2020-09-15 17:19:14</time>
      </trkpt>
      <trkpt lat="45.65719" lon="6.24065">
        <ele>1312.334</ele>
        <time>2020-09-15 17:19:15</time>
      </trkpt>
      <trkpt lat="45.65717" lon="6.24064">
        <ele>1311.4933</ele>
        <time>2020-09-15 17:19:18</time>
      </trkpt>
      <trkpt lat="45.65714" lon="6.24062">
        <ele>1310.3429</ele>
        <time>2020-09-15 17:19:20</time>
      </trkpt>
      <trkpt lat="45.65709" lon="6.24061">
        <ele>1311.826</ele>
        <time>2020-09-15 17:19:25</time>
      </trkpt>
      <trkpt lat="45.65709" lon="6.2406">
        <ele>1311.6248</ele>
        <time>2020-09-15 17:19:26</time>
      </trkpt>
      <trkpt lat="45.65708" lon="6.2406">
        <ele>1313.6396</ele>
        <time>2020-09-15 17:19:27</time>
      </trkpt>
      <trkpt lat="45.65707" lon="6.2406">
        <ele>1313.2542</ele>
        <time>2020-09-15 17:19:28</time>
      </trkpt>
      <trkpt lat="45.65706" lon="6.24058">
        <ele>1314.3345</ele>
        <time>2020-09-15 17:19:31</time>
      </trkpt>
      <trkpt lat="45.65705" lon="6.24057">
        <ele>1314.0027</ele>
        <time>2020-09-15 17:19:32</time>
      </trkpt>
      <trkpt lat="45.65702" lon="6.24055">
        <ele>1312.932</ele>
        <time>2020-09-15 17:19:35</time>
      </trkpt>
      <trkpt lat="45.657" lon="6.24055">
        <ele>1312.313</ele>
        <time>2020-09-15 17:19:36</time>
      </trkpt>
      <trkpt lat="45.65698" lon="6.24055">
        <ele>1313.2756</ele>
        <time>2020-09-15 17:19:37</time>
      </trkpt>
      <trkpt lat="45.65691" lon="6.24055">
        <ele>1314.1904</ele>
        <time>2020-09-15 17:19:42</time>
      </trkpt>
      <trkpt lat="45.65682" lon="6.24055">
        <ele>1312.9016</ele>
        <time>2020-09-15 17:19:49</time>
      </trkpt>
      <trkpt lat="45.65682" lon="6.24053">
        <ele>1311.4176</ele>
        <time>2020-09-15 17:19:52</time>
      </trkpt>
      <trkpt lat="45.65681" lon="6.24053">
        <ele>1310.3617</ele>
        <time>2020-09-15 17:19:53</time>
      </trkpt>
      <trkpt lat="45.6568" lon="6.24052">
        <ele>1309.2236</ele>
        <time>2020-09-15 17:19:54</time>
      </trkpt>
      <trkpt lat="45.65679" lon="6.2405">
        <ele>1309.5823</ele>
        <time>2020-09-15 17:19:55</time>
      </trkpt>
      <trkpt lat="45.65679" lon="6.24049">
        <ele>1308.571</ele>
        <time>2020-09-15 17:19:56</time>
      </trkpt>
      <trkpt lat="45.65675" lon="6.24046">
        <ele>1306.5828</ele>
        <time>2020-09-15 17:19:59</time>
      </trkpt>
      <trkpt lat="45.65673" lon="6.24045">
        <ele>1306.9155</ele>
        <time>2020-09-15 17:20:01</time>
      </trkpt>
      <trkpt lat="45.65672" lon="6.24044">
        <ele>1307.1333</ele>
        <time>2020-09-15 17:20:02</time>
      </trkpt>
      <trkpt lat="45.65671" lon="6.24043">
        <ele>1308.5122</ele>
        <time>2020-09-15 17:20:05</time>
      </trkpt>
      <trkpt lat="45.6567" lon="6.24042">
        <ele>1307.9863</ele>
        <time>2020-09-15 17:20:06</time>
      </trkpt>
      <trkpt lat="45.65669" lon="6.2404">
        <ele>1306.3723</ele>
        <time>2020-09-15 17:20:09</time>
      </trkpt>
      <trkpt lat="45.65667" lon="6.24038">
        <ele>1304.16</ele>
        <time>2020-09-15 17:20:11</time>
      </trkpt>
      <trkpt lat="45.65667" lon="6.24037">
        <ele>1305.4121</ele>
        <time>2020-09-15 17:20:12</time>
      </trkpt>
      <trkpt lat="45.65666" lon="6.24037">
        <ele>1305.2759</ele>
        <time>2020-09-15 17:20:13</time>
      </trkpt>
      <trkpt lat="45.65664" lon="6.24036">
        <ele>1304.8048</ele>
        <time>2020-09-15 17:20:15</time>
      </trkpt>
      <trkpt lat="45.65662" lon="6.24036">
        <ele>1302.6261</ele>
        <time>2020-09-15 17:20:17</time>
      </trkpt>
      <trkpt lat="45.65657" lon="6.24034">
        <ele>1302.1266</ele>
        <time>2020-09-15 17:20:21</time>
      </trkpt>
      <trkpt lat="45.65656" lon="6.24034">
        <ele>1301.6307</ele>
        <time>2020-09-15 17:20:22</time>
      </trkpt>
      <trkpt lat="45.6565" lon="6.24034">
        <ele>1302.5419</ele>
        <time>2020-09-15 17:20:26</time>
      </trkpt>
      <trkpt lat="45.65649" lon="6.24034">
        <ele>1301.698</ele>
        <time>2020-09-15 17:20:27</time>
      </trkpt>
      <trkpt lat="45.65646" lon="6.24034">
        <ele>1303.1833</ele>
        <time>2020-09-15 17:20:29</time>
      </trkpt>
      <trkpt lat="45.65645" lon="6.24034">
        <ele>1302.6512</ele>
        <time>2020-09-15 17:20:30</time>
      </trkpt>
      <trkpt lat="45.65642" lon="6.24033">
        <ele>1301.9617</ele>
        <time>2020-09-15 17:20:32</time>
      </trkpt>
      <trkpt lat="45.6564" lon="6.24031">
        <ele>1298.8062</ele>
        <time>2020-09-15 17:20:35</time>
      </trkpt>
      <trkpt lat="45.6564" lon="6.24031">
        <ele>1298.8616</ele>
        <time>2020-09-15 17:20:36</time>
      </trkpt>
      <trkpt lat="45.65638" lon="6.24031">
        <ele>1300.035</ele>
        <time>2020-09-15 17:20:38</time>
      </trkpt>
      <trkpt lat="45.65635" lon="6.24029">
        <ele>1301.0138</ele>
        <time>2020-09-15 17:20:41</time>
      </trkpt>
      <trkpt lat="45.65634" lon="6.24029">
        <ele>1301.592</ele>
        <time>2020-09-15 17:20:42</time>
      </trkpt>
      <trkpt lat="45.65633" lon="6.24028">
        <ele>1301.6052</ele>
        <time>2020-09-15 17:20:43</time>
      </trkpt>
      <trkpt lat="45.65632" lon="6.24028">
        <ele>1302.562</ele>
        <time>2020-09-15 17:20:44</time>
      </trkpt>
      <trkpt lat="45.65583" lon="6.24036">
        <ele>1293.8304</ele>
        <time>2020-09-15 17:21:14</time>
      </trkpt>
      <trkpt lat="45.65582" lon="6.24036">
        <ele>1293.8269</ele>
        <time>2020-09-15 17:21:15</time>
      </trkpt>
      <trkpt lat="45.65575" lon="6.2404">
        <ele>1290.0653</ele>
        <time>2020-09-15 17:21:22</time>
      </trkpt>
      <trkpt lat="45.65569" lon="6.24042">
        <ele>1285.7615</ele>
        <time>2020-09-15 17:21:26</time>
      </trkpt>
      <trkpt lat="45.65568" lon="6.24042">
        <ele>1285.6863</ele>
        <time>2020-09-15 17:21:27</time>
      </trkpt>
      <trkpt lat="45.65566" lon="6.24043">
        <ele>1286.3872</ele>
        <time>2020-09-15 17:21:30</time>
      </trkpt>
      <trkpt lat="45.65565" lon="6.24042">
        <ele>1284.4592</ele>
        <time>2020-09-15 17:21:31</time>
      </trkpt>
      <trkpt lat="45.65562" lon="6.24042">
        <ele>1283.5424</ele>
        <time>2020-09-15 17:21:34</time>
      </trkpt>
      <trkpt lat="45.6555" lon="6.24045">
        <ele>1278.016</ele>
        <time>2020-09-15 17:21:43</time>
      </trkpt>
      <trkpt lat="45.65542" lon="6.24054">
        <ele>1279.4316</ele>
        <time>2020-09-15 17:21:58</time>
      </trkpt>
      <trkpt lat="45.65541" lon="6.24054">
        <ele>1279.924</ele>
        <time>2020-09-15 17:21:59</time>
      </trkpt>
      <trkpt lat="45.65541" lon="6.24054">
        <ele>1279.9155</ele>
        <time>2020-09-15 17:22:00</time>
      </trkpt>
      <trkpt lat="45.65541" lon="6.24054">
        <ele>1279.8236</ele>
        <time>2020-09-15 17:22:02</time>
      </trkpt>
      <trkpt lat="45.65541" lon="6.24054">
        <ele>1278.5052</ele>
        <time>2020-09-15 17:22:05</time>
      </trkpt>
      <trkpt lat="45.65541" lon="6.24055">
        <ele>1278.5831</ele>
        <time>2020-09-15 17:22:06</time>
      </trkpt>
      <trkpt lat="45.6554" lon="6.24056">
        <ele>1278.8018</ele>
        <time>2020-09-15 17:22:07</time>
      </trkpt>
      <trkpt lat="45.65538" lon="6.24057">
        <ele>1279.0073</ele>
        <time>2020-09-15 17:22:09</time>
      </trkpt>
      <trkpt lat="45.65537" lon="6.24057">
        <ele>1277.7448</ele>
        <time>2020-09-15 17:22:10</time>
      </trkpt>
      <trkpt lat="45.65534" lon="6.24059">
        <ele>1278.9606</ele>
        <time>2020-09-15 17:22:13</time>
      </trkpt>
      <trkpt lat="45.65531" lon="6.24062">
        <ele>1279.8344</ele>
        <time>2020-09-15 17:22:15</time>
      </trkpt>
      <trkpt lat="45.65528" lon="6.24063">
        <ele>1279.2462</ele>
        <time>2020-09-15 17:22:19</time>
      </trkpt>
      <trkpt lat="45.65527" lon="6.24064">
        <ele>1280.6149</ele>
        <time>2020-09-15 17:22:21</time>
      </trkpt>
      <trkpt lat="45.65526" lon="6.24066">
        <ele>1280.3223</ele>
        <time>2020-09-15 17:22:25</time>
      </trkpt>
      <trkpt lat="45.65525" lon="6.24066">
        <ele>1279.9647</ele>
        <time>2020-09-15 17:22:26</time>
      </trkpt>
      <trkpt lat="45.65524" lon="6.24067">
        <ele>1280.7317</ele>
        <time>2020-09-15 17:22:27</time>
      </trkpt>
      <trkpt lat="45.65517" lon="6.24072">
        <ele>1278.4196</ele>
        <time>2020-09-15 17:22:43</time>
      </trkpt>
      <trkpt lat="45.65516" lon="6.24071">
        <ele>1277.98</ele>
        <time>2020-09-15 17:22:44</time>
      </trkpt>
      <trkpt lat="45.65513" lon="6.24074">
        <ele>1278.2067</ele>
        <time>2020-09-15 17:22:53</time>
      </trkpt>
      <trkpt lat="45.65512" lon="6.24075">
        <ele>1278.6891</ele>
        <time>2020-09-15 17:22:54</time>
      </trkpt>
      <trkpt lat="45.65511" lon="6.24076">
        <ele>1278.4083</ele>
        <time>2020-09-15 17:22:55</time>
      </trkpt>
      <trkpt lat="45.6551" lon="6.24077">
        <ele>1277.9048</ele>
        <time>2020-09-15 17:22:56</time>
      </trkpt>
      <trkpt lat="45.6551" lon="6.24077">
        <ele>1276.1987</ele>
        <time>2020-09-15 17:22:57</time>
      </trkpt>
      <trkpt lat="45.65509" lon="6.24077">
        <ele>1275.7878</ele>
        <time>2020-09-15 17:22:58</time>
      </trkpt>
      <trkpt lat="45.65504" lon="6.24078">
        <ele>1274.1846</ele>
        <time>2020-09-15 17:23:02</time>
      </trkpt>
      <trkpt lat="45.65503" lon="6.24079">
        <ele>1273.0562</ele>
        <time>2020-09-15 17:23:03</time>
      </trkpt>
      <trkpt lat="45.65503" lon="6.24079">
        <ele>1272.7971</ele>
        <time>2020-09-15 17:23:04</time>
      </trkpt>
      <trkpt lat="45.65502" lon="6.2408">
        <ele>1272.1154</ele>
        <time>2020-09-15 17:23:05</time>
      </trkpt>
      <trkpt lat="45.65502" lon="6.24081">
        <ele>1267.4126</ele>
        <time>2020-09-15 17:23:06</time>
      </trkpt>
      <trkpt lat="45.65501" lon="6.24081">
        <ele>1267.4984</ele>
        <time>2020-09-15 17:23:07</time>
      </trkpt>
      <trkpt lat="45.655" lon="6.24083">
        <ele>1268.1747</ele>
        <time>2020-09-15 17:23:08</time>
      </trkpt>
      <trkpt lat="45.65499" lon="6.24084">
        <ele>1267.262</ele>
        <time>2020-09-15 17:23:09</time>
      </trkpt>
      <trkpt lat="45.65497" lon="6.24085">
        <ele>1267.6312</ele>
        <time>2020-09-15 17:23:10</time>
      </trkpt>
      <trkpt lat="45.65494" lon="6.24087">
        <ele>1269.1093</ele>
        <time>2020-09-15 17:23:12</time>
      </trkpt>
      <trkpt lat="45.65493" lon="6.24088">
        <ele>1268.4652</ele>
        <time>2020-09-15 17:23:13</time>
      </trkpt>
      <trkpt lat="45.65493" lon="6.24089">
        <ele>1268.7252</ele>
        <time>2020-09-15 17:23:14</time>
      </trkpt>
      <trkpt lat="45.65492" lon="6.24089">
        <ele>1267.7076</ele>
        <time>2020-09-15 17:23:15</time>
      </trkpt>
      <trkpt lat="45.6549" lon="6.24091">
        <ele>1269.7169</ele>
        <time>2020-09-15 17:23:17</time>
      </trkpt>
      <trkpt lat="45.65487" lon="6.24093">
        <ele>1269.923</ele>
        <time>2020-09-15 17:23:19</time>
      </trkpt>
      <trkpt lat="45.65487" lon="6.24093">
        <ele>1270.0638</ele>
        <time>2020-09-15 17:23:20</time>
      </trkpt>
      <trkpt lat="45.65485" lon="6.24095">
        <ele>1267.2603</ele>
        <time>2020-09-15 17:23:23</time>
      </trkpt>
      <trkpt lat="45.65484" lon="6.24095">
        <ele>1267.2251</ele>
        <time>2020-09-15 17:23:24</time>
      </trkpt>
      <trkpt lat="45.65481" lon="6.24097">
        <ele>1265.1799</ele>
        <time>2020-09-15 17:23:28</time>
      </trkpt>
      <trkpt lat="45.65479" lon="6.24097">
        <ele>1263.3129</ele>
        <time>2020-09-15 17:23:30</time>
      </trkpt>
      <trkpt lat="45.65478" lon="6.24098">
        <ele>1262.6403</ele>
        <time>2020-09-15 17:23:31</time>
      </trkpt>
      <trkpt lat="45.65476" lon="6.24099">
        <ele>1261.677</ele>
        <time>2020-09-15 17:23:32</time>
      </trkpt>
      <trkpt lat="45.65475" lon="6.24099">
        <ele>1260.8717</ele>
        <time>2020-09-15 17:23:33</time>
      </trkpt>
      <trkpt lat="45.65471" lon="6.24102">
        <ele>1257.418</ele>
        <time>2020-09-15 17:23:36</time>
      </trkpt>
      <trkpt lat="45.65467" lon="6.24103">
        <ele>1256.9769</ele>
        <time>2020-09-15 17:23:40</time>
      </trkpt>
      <trkpt lat="45.65456" lon="6.24104">
        <ele>1251.8204</ele>
        <time>2020-09-15 17:23:50</time>
      </trkpt>
      <trkpt lat="45.65456" lon="6.24104">
        <ele>1250.0044</ele>
        <time>2020-09-15 17:23:52</time>
      </trkpt>
      <trkpt lat="45.65455" lon="6.24105">
        <ele>1247.6528</ele>
        <time>2020-09-15 17:23:56</time>
      </trkpt>
      <trkpt lat="45.65453" lon="6.24105">
        <ele>1246.9396</ele>
        <time>2020-09-15 17:23:59</time>
      </trkpt>
      <trkpt lat="45.65451" lon="6.24105">
        <ele>1246.1357</ele>
        <time>2020-09-15 17:24:01</time>
      </trkpt>
      <trkpt lat="45.6545" lon="6.24105">
        <ele>1245.9459</ele>
        <time>2020-09-15 17:24:02</time>
      </trkpt>
      <trkpt lat="45.65446" lon="6.24108">
        <ele>1246.0403</ele>
        <time>2020-09-15 17:24:06</time>
      </trkpt>
      <trkpt lat="45.65446" lon="6.24108">
        <ele>1245.4108</ele>
        <time>2020-09-15 17:24:07</time>
      </trkpt>
      <trkpt lat="45.65446" lon="6.24108">
        <ele>1245.2417</ele>
        <time>2020-09-15 17:24:08</time>
      </trkpt>
      <trkpt lat="45.65445" lon="6.24108">
        <ele>1246.2361</ele>
        <time>2020-09-15 17:24:10</time>
      </trkpt>
      <trkpt lat="45.65444" lon="6.24107">
        <ele>1244.9918</ele>
        <time>2020-09-15 17:24:12</time>
      </trkpt>
      <trkpt lat="45.65444" lon="6.24107">
        <ele>1245.7866</ele>
        <time>2020-09-15 17:24:13</time>
      </trkpt>
      <trkpt lat="45.65444" lon="6.24105">
        <ele>1245.7024</ele>
        <time>2020-09-15 17:24:14</time>
      </trkpt>
      <trkpt lat="45.65443" lon="6.24104">
        <ele>1246.6808</ele>
        <time>2020-09-15 17:24:16</time>
      </trkpt>
      <trkpt lat="45.65443" lon="6.24103">
        <ele>1246.8939</ele>
        <time>2020-09-15 17:24:17</time>
      </trkpt>
      <trkpt lat="45.65442" lon="6.24102">
        <ele>1247.1248</ele>
        <time>2020-09-15 17:24:18</time>
      </trkpt>
      <trkpt lat="45.65441" lon="6.24102">
        <ele>1247.3223</ele>
        <time>2020-09-15 17:24:19</time>
      </trkpt>
      <trkpt lat="45.6544" lon="6.24102">
        <ele>1248.0172</ele>
        <time>2020-09-15 17:24:20</time>
      </trkpt>
      <trkpt lat="45.65439" lon="6.24102">
        <ele>1247.4119</ele>
        <time>2020-09-15 17:24:21</time>
      </trkpt>
      <trkpt lat="45.65437" lon="6.24103">
        <ele>1246.7931</ele>
        <time>2020-09-15 17:24:23</time>
      </trkpt>
      <trkpt lat="45.65435" lon="6.24103">
        <ele>1246.1594</ele>
        <time>2020-09-15 17:24:24</time>
      </trkpt>
      <trkpt lat="45.65432" lon="6.24103">
        <ele>1245.0137</ele>
        <time>2020-09-15 17:24:26</time>
      </trkpt>
      <trkpt lat="45.65427" lon="6.24103">
        <ele>1244.8484</ele>
        <time>2020-09-15 17:24:29</time>
      </trkpt>
      <trkpt lat="45.65426" lon="6.24103">
        <ele>1245.041</ele>
        <time>2020-09-15 17:24:30</time>
      </trkpt>
      <trkpt lat="45.65424" lon="6.24103">
        <ele>1245.2607</ele>
        <time>2020-09-15 17:24:31</time>
      </trkpt>
      <trkpt lat="45.65422" lon="6.24102">
        <ele>1244.7036</ele>
        <time>2020-09-15 17:24:33</time>
      </trkpt>
      <trkpt lat="45.65421" lon="6.24102">
        <ele>1243.661</ele>
        <time>2020-09-15 17:24:34</time>
      </trkpt>
      <trkpt lat="45.65419" lon="6.241">
        <ele>1241.3428</ele>
        <time>2020-09-15 17:24:37</time>
      </trkpt>
      <trkpt lat="45.65419" lon="6.24099">
        <ele>1241.0878</ele>
        <time>2020-09-15 17:24:38</time>
      </trkpt>
      <trkpt lat="45.6542" lon="6.24098">
        <ele>1240.1532</ele>
        <time>2020-09-15 17:24:39</time>
      </trkpt>
      <trkpt lat="45.6542" lon="6.24097">
        <ele>1239.0421</ele>
        <time>2020-09-15 17:24:40</time>
      </trkpt>
      <trkpt lat="45.6542" lon="6.24096">
        <ele>1237.4073</ele>
        <time>2020-09-15 17:24:41</time>
      </trkpt>
      <trkpt lat="45.65419" lon="6.24096">
        <ele>1237.4662</ele>
        <time>2020-09-15 17:24:42</time>
      </trkpt>
      <trkpt lat="45.65418" lon="6.24096">
        <ele>1236.5581</ele>
        <time>2020-09-15 17:24:43</time>
      </trkpt>
      <trkpt lat="45.65417" lon="6.24097">
        <ele>1237.1582</ele>
        <time>2020-09-15 17:24:45</time>
      </trkpt>
      <trkpt lat="45.65417" lon="6.24097">
        <ele>1236.7393</ele>
        <time>2020-09-15 17:24:46</time>
      </trkpt>
      <trkpt lat="45.65417" lon="6.24096">
        <ele>1237.2963</ele>
        <time>2020-09-15 17:24:47</time>
      </trkpt>
      <trkpt lat="45.65415" lon="6.24096">
        <ele>1237.8354</ele>
        <time>2020-09-15 17:24:48</time>
      </trkpt>
      <trkpt lat="45.65414" lon="6.24096">
        <ele>1236.4739</ele>
        <time>2020-09-15 17:24:49</time>
      </trkpt>
      <trkpt lat="45.65413" lon="6.24097">
        <ele>1236.6815</ele>
        <time>2020-09-15 17:24:50</time>
      </trkpt>
      <trkpt lat="45.65413" lon="6.24097">
        <ele>1235.3684</ele>
        <time>2020-09-15 17:24:51</time>
      </trkpt>
      <trkpt lat="45.65413" lon="6.24096">
        <ele>1235.7946</ele>
        <time>2020-09-15 17:24:52</time>
      </trkpt>
      <trkpt lat="45.65411" lon="6.24096">
        <ele>1234.9237</ele>
        <time>2020-09-15 17:24:54</time>
      </trkpt>
      <trkpt lat="45.6541" lon="6.24096">
        <ele>1234.4601</ele>
        <time>2020-09-15 17:24:56</time>
      </trkpt>
      <trkpt lat="45.6541" lon="6.24096">
        <ele>1234.3322</ele>
        <time>2020-09-15 17:24:57</time>
      </trkpt>
      <trkpt lat="45.6541" lon="6.24096">
        <ele>1233.603</ele>
        <time>2020-09-15 17:24:58</time>
      </trkpt>
      <trkpt lat="45.65409" lon="6.24096">
        <ele>1233.422</ele>
        <time>2020-09-15 17:24:59</time>
      </trkpt>
      <trkpt lat="45.65407" lon="6.24096">
        <ele>1233.6555</ele>
        <time>2020-09-15 17:25:00</time>
      </trkpt>
      <trkpt lat="45.65404" lon="6.24095">
        <ele>1234.5795</ele>
        <time>2020-09-15 17:25:03</time>
      </trkpt>
      <trkpt lat="45.65403" lon="6.24095">
        <ele>1234.6016</ele>
        <time>2020-09-15 17:25:04</time>
      </trkpt>
      <trkpt lat="45.65403" lon="6.24095">
        <ele>1230.5605</ele>
        <time>2020-09-15 17:25:05</time>
      </trkpt>
      <trkpt lat="45.65392" lon="6.2409">
        <ele>1228.3301</ele>
        <time>2020-09-15 17:25:14</time>
      </trkpt>
      <trkpt lat="45.65391" lon="6.24091">
        <ele>1229.1862</ele>
        <time>2020-09-15 17:25:15</time>
      </trkpt>
      <trkpt lat="45.65389" lon="6.24091">
        <ele>1230.0614</ele>
        <time>2020-09-15 17:25:18</time>
      </trkpt>
      <trkpt lat="45.65388" lon="6.2409">
        <ele>1230.0055</ele>
        <time>2020-09-15 17:25:19</time>
      </trkpt>
      <trkpt lat="45.65387" lon="6.24089">
        <ele>1230.4742</ele>
        <time>2020-09-15 17:25:20</time>
      </trkpt>
      <trkpt lat="45.65386" lon="6.24088">
        <ele>1230.4446</ele>
        <time>2020-09-15 17:25:21</time>
      </trkpt>
      <trkpt lat="45.65385" lon="6.24085">
        <ele>1230.3718</ele>
        <time>2020-09-15 17:25:23</time>
      </trkpt>
      <trkpt lat="45.65386" lon="6.24083">
        <ele>1230.3738</ele>
        <time>2020-09-15 17:25:24</time>
      </trkpt>
      <trkpt lat="45.65386" lon="6.24082">
        <ele>1230.6467</ele>
        <time>2020-09-15 17:25:25</time>
      </trkpt>
      <trkpt lat="45.65385" lon="6.2408">
        <ele>1229.6044</ele>
        <time>2020-09-15 17:25:27</time>
      </trkpt>
      <trkpt lat="45.65385" lon="6.2408">
        <ele>1229.428</ele>
        <time>2020-09-15 17:25:28</time>
      </trkpt>
      <trkpt lat="45.65384" lon="6.2408">
        <ele>1229.2561</ele>
        <time>2020-09-15 17:25:29</time>
      </trkpt>
      <trkpt lat="45.65383" lon="6.2408">
        <ele>1228.574</ele>
        <time>2020-09-15 17:25:30</time>
      </trkpt>
      <trkpt lat="45.65381" lon="6.2408">
        <ele>1228.5735</ele>
        <time>2020-09-15 17:25:32</time>
      </trkpt>
      <trkpt lat="45.6538" lon="6.2408">
        <ele>1228.6655</ele>
        <time>2020-09-15 17:25:33</time>
      </trkpt>
      <trkpt lat="45.65379" lon="6.2408">
        <ele>1229.0623</ele>
        <time>2020-09-15 17:25:35</time>
      </trkpt>
      <trkpt lat="45.65378" lon="6.2408">
        <ele>1229.1416</ele>
        <time>2020-09-15 17:25:36</time>
      </trkpt>
      <trkpt lat="45.65377" lon="6.2408">
        <ele>1229.1602</ele>
        <time>2020-09-15 17:25:37</time>
      </trkpt>
      <trkpt lat="45.65376" lon="6.2408">
        <ele>1228.5508</ele>
        <time>2020-09-15 17:25:38</time>
      </trkpt>
      <trkpt lat="45.65375" lon="6.2408">
        <ele>1228.4663</ele>
        <time>2020-09-15 17:25:39</time>
      </trkpt>
      <trkpt lat="45.65375" lon="6.24079">
        <ele>1227.8943</ele>
        <time>2020-09-15 17:25:40</time>
      </trkpt>
      <trkpt lat="45.65373" lon="6.24079">
        <ele>1228.2722</ele>
        <time>2020-09-15 17:25:42</time>
      </trkpt>
      <trkpt lat="45.65372" lon="6.24076">
        <ele>1226.5337</ele>
        <time>2020-09-15 17:25:44</time>
      </trkpt>
      <trkpt lat="45.6537" lon="6.24075">
        <ele>1226.3104</ele>
        <time>2020-09-15 17:25:45</time>
      </trkpt>
      <trkpt lat="45.65363" lon="6.24072">
        <ele>1221.6401</ele>
        <time>2020-09-15 17:25:54</time>
      </trkpt>
      <trkpt lat="45.65363" lon="6.24072">
        <ele>1222.3204</ele>
        <time>2020-09-15 17:25:55</time>
      </trkpt>
      <trkpt lat="45.65361" lon="6.24072">
        <ele>1220.4275</ele>
        <time>2020-09-15 17:25:57</time>
      </trkpt>
      <trkpt lat="45.65359" lon="6.24071">
        <ele>1219.0583</ele>
        <time>2020-09-15 17:26:01</time>
      </trkpt>
      <trkpt lat="45.6536" lon="6.2407">
        <ele>1215.113</ele>
        <time>2020-09-15 17:26:03</time>
      </trkpt>
      <trkpt lat="45.6536" lon="6.24069">
        <ele>1215.7424</ele>
        <time>2020-09-15 17:26:04</time>
      </trkpt>
      <trkpt lat="45.65359" lon="6.24069">
        <ele>1216.7429</ele>
        <time>2020-09-15 17:26:05</time>
      </trkpt>
      <trkpt lat="45.65358" lon="6.24069">
        <ele>1217.578</ele>
        <time>2020-09-15 17:26:08</time>
      </trkpt>
      <trkpt lat="45.65357" lon="6.24069">
        <ele>1218.5679</ele>
        <time>2020-09-15 17:26:09</time>
      </trkpt>
      <trkpt lat="45.65354" lon="6.2407">
        <ele>1220.0483</ele>
        <time>2020-09-15 17:26:11</time>
      </trkpt>
      <trkpt lat="45.65353" lon="6.24071">
        <ele>1220.8102</ele>
        <time>2020-09-15 17:26:12</time>
      </trkpt>
      <trkpt lat="45.65351" lon="6.24071">
        <ele>1220.2158</ele>
        <time>2020-09-15 17:26:13</time>
      </trkpt>
      <trkpt lat="45.6534" lon="6.2407">
        <ele>1213.2904</ele>
        <time>2020-09-15 17:26:25</time>
      </trkpt>
      <trkpt lat="45.65338" lon="6.24071">
        <ele>1210.5597</ele>
        <time>2020-09-15 17:26:27</time>
      </trkpt>
      <trkpt lat="45.65323" lon="6.24072">
        <ele>1206.3954</ele>
        <time>2020-09-15 17:26:38</time>
      </trkpt>
      <trkpt lat="45.65322" lon="6.24072">
        <ele>1206.7485</ele>
        <time>2020-09-15 17:26:39</time>
      </trkpt>
      <trkpt lat="45.65321" lon="6.24073">
        <ele>1206.5039</ele>
        <time>2020-09-15 17:26:40</time>
      </trkpt>
      <trkpt lat="45.65319" lon="6.24074">
        <ele>1206.7903</ele>
        <time>2020-09-15 17:26:42</time>
      </trkpt>
      <trkpt lat="45.65317" lon="6.24075">
        <ele>1206.0394</ele>
        <time>2020-09-15 17:26:44</time>
      </trkpt>
      <trkpt lat="45.65316" lon="6.24076">
        <ele>1206.2579</ele>
        <time>2020-09-15 17:26:45</time>
      </trkpt>
      <trkpt lat="45.65314" lon="6.24075">
        <ele>1205.5778</ele>
        <time>2020-09-15 17:26:48</time>
      </trkpt>
      <trkpt lat="45.65312" lon="6.24075">
        <ele>1205.5924</ele>
        <time>2020-09-15 17:26:50</time>
      </trkpt>
      <trkpt lat="45.65311" lon="6.24075">
        <ele>1205.2427</ele>
        <time>2020-09-15 17:26:51</time>
      </trkpt>
      <trkpt lat="45.6531" lon="6.24076">
        <ele>1206.0507</ele>
        <time>2020-09-15 17:26:52</time>
      </trkpt>
      <trkpt lat="45.65309" lon="6.24076">
        <ele>1207.6533</ele>
        <time>2020-09-15 17:26:53</time>
      </trkpt>
      <trkpt lat="45.65305" lon="6.24079">
        <ele>1205.826</ele>
        <time>2020-09-15 17:26:56</time>
      </trkpt>
      <trkpt lat="45.65302" lon="6.2408">
        <ele>1206.0122</ele>
        <time>2020-09-15 17:26:58</time>
      </trkpt>
      <trkpt lat="45.65302" lon="6.2408">
        <ele>1205.7874</ele>
        <time>2020-09-15 17:26:59</time>
      </trkpt>
      <trkpt lat="45.65299" lon="6.24081">
        <ele>1204.9316</ele>
        <time>2020-09-15 17:27:01</time>
      </trkpt>
      <trkpt lat="45.65293" lon="6.24081">
        <ele>1202.548</ele>
        <time>2020-09-15 17:27:05</time>
      </trkpt>
      <trkpt lat="45.6529" lon="6.2408">
        <ele>1200.4346</ele>
        <time>2020-09-15 17:27:08</time>
      </trkpt>
      <trkpt lat="45.65286" lon="6.24079">
        <ele>1199.5458</ele>
        <time>2020-09-15 17:27:11</time>
      </trkpt>
      <trkpt lat="45.6528" lon="6.24079">
        <ele>1198.5891</ele>
        <time>2020-09-15 17:27:15</time>
      </trkpt>
      <trkpt lat="45.65273" lon="6.24081">
        <ele>1196.9122</ele>
        <time>2020-09-15 17:27:22</time>
      </trkpt>
      <trkpt lat="45.65269" lon="6.24081">
        <ele>1198.0376</ele>
        <time>2020-09-15 17:27:28</time>
      </trkpt>
      <trkpt lat="45.65266" lon="6.24082">
        <ele>1196.8306</ele>
        <time>2020-09-15 17:27:31</time>
      </trkpt>
      <trkpt lat="45.65253" lon="6.24092">
        <ele>1196.1561</ele>
        <time>2020-09-15 17:27:52</time>
      </trkpt>
      <trkpt lat="45.65252" lon="6.24092">
        <ele>1195.3903</ele>
        <time>2020-09-15 17:27:53</time>
      </trkpt>
      <trkpt lat="45.6525" lon="6.24096">
        <ele>1193.825</ele>
        <time>2020-09-15 17:27:57</time>
      </trkpt>
      <trkpt lat="45.65248" lon="6.24098">
        <ele>1192.5973</ele>
        <time>2020-09-15 17:27:59</time>
      </trkpt>
      <trkpt lat="45.65246" lon="6.24098">
        <ele>1191.9711</ele>
        <time>2020-09-15 17:28:00</time>
      </trkpt>
      <trkpt lat="45.65244" lon="6.24099">
        <ele>1191.8433</ele>
        <time>2020-09-15 17:28:01</time>
      </trkpt>
      <trkpt lat="45.65241" lon="6.241">
        <ele>1192.2307</ele>
        <time>2020-09-15 17:28:03</time>
      </trkpt>
      <trkpt lat="45.65236" lon="6.24104">
        <ele>1188.3856</ele>
        <time>2020-09-15 17:28:09</time>
      </trkpt>
      <trkpt lat="45.65234" lon="6.24104">
        <ele>1186.9933</ele>
        <time>2020-09-15 17:28:10</time>
      </trkpt>
      <trkpt lat="45.65231" lon="6.24105">
        <ele>1186.3568</ele>
        <time>2020-09-15 17:28:14</time>
      </trkpt>
      <trkpt lat="45.6523" lon="6.24105">
        <ele>1186.1125</ele>
        <time>2020-09-15 17:28:15</time>
      </trkpt>
      <trkpt lat="45.65228" lon="6.24106">
        <ele>1184.788</ele>
        <time>2020-09-15 17:28:17</time>
      </trkpt>
      <trkpt lat="45.65227" lon="6.24106">
        <ele>1183.6802</ele>
        <time>2020-09-15 17:28:18</time>
      </trkpt>
      <trkpt lat="45.65224" lon="6.2411">
        <ele>1183.0553</ele>
        <time>2020-09-15 17:28:22</time>
      </trkpt>
      <trkpt lat="45.65223" lon="6.24111">
        <ele>1183.3792</ele>
        <time>2020-09-15 17:28:23</time>
      </trkpt>
      <trkpt lat="45.65219" lon="6.24112">
        <ele>1186.0697</ele>
        <time>2020-09-15 17:28:31</time>
      </trkpt>
      <trkpt lat="45.65218" lon="6.24113">
        <ele>1185.9512</ele>
        <time>2020-09-15 17:28:32</time>
      </trkpt>
      <trkpt lat="45.65218" lon="6.24114">
        <ele>1185.4551</ele>
        <time>2020-09-15 17:28:34</time>
      </trkpt>
      <trkpt lat="45.65217" lon="6.24115">
        <ele>1185.5735</ele>
        <time>2020-09-15 17:28:35</time>
      </trkpt>
      <trkpt lat="45.65214" lon="6.24116">
        <ele>1185.6875</ele>
        <time>2020-09-15 17:28:37</time>
      </trkpt>
      <trkpt lat="45.65213" lon="6.24117">
        <ele>1185.6152</ele>
        <time>2020-09-15 17:28:38</time>
      </trkpt>
      <trkpt lat="45.65211" lon="6.24119">
        <ele>1184.5643</ele>
        <time>2020-09-15 17:28:40</time>
      </trkpt>
      <trkpt lat="45.65204" lon="6.24123">
        <ele>1183.1033</ele>
        <time>2020-09-15 17:28:46</time>
      </trkpt>
      <trkpt lat="45.65203" lon="6.24124">
        <ele>1182.9396</ele>
        <time>2020-09-15 17:28:47</time>
      </trkpt>
      <trkpt lat="45.65197" lon="6.24128">
        <ele>1181.6737</ele>
        <time>2020-09-15 17:28:51</time>
      </trkpt>
      <trkpt lat="45.65195" lon="6.24129">
        <ele>1181.1263</ele>
        <time>2020-09-15 17:28:53</time>
      </trkpt>
      <trkpt lat="45.65194" lon="6.2413">
        <ele>1180.9177</ele>
        <time>2020-09-15 17:28:54</time>
      </trkpt>
      <trkpt lat="45.65191" lon="6.24131">
        <ele>1180.9258</ele>
        <time>2020-09-15 17:28:56</time>
      </trkpt>
      <trkpt lat="45.65188" lon="6.2413">
        <ele>1180.461</ele>
        <time>2020-09-15 17:28:58</time>
      </trkpt>
      <trkpt lat="45.65185" lon="6.2413">
        <ele>1179.1284</ele>
        <time>2020-09-15 17:29:00</time>
      </trkpt>
      <trkpt lat="45.65172" lon="6.24129">
        <ele>1175.6475</ele>
        <time>2020-09-15 17:29:07</time>
      </trkpt>
      <trkpt lat="45.65167" lon="6.24128">
        <ele>1177.6222</ele>
        <time>2020-09-15 17:29:10</time>
      </trkpt>
      <trkpt lat="45.65162" lon="6.24127">
        <ele>1177.1035</ele>
        <time>2020-09-15 17:29:13</time>
      </trkpt>
      <trkpt lat="45.65157" lon="6.24127">
        <ele>1177.0159</ele>
        <time>2020-09-15 17:29:17</time>
      </trkpt>
      <trkpt lat="45.65155" lon="6.24125">
        <ele>1174.954</ele>
        <time>2020-09-15 17:29:19</time>
      </trkpt>
      <trkpt lat="45.65153" lon="6.2412">
        <ele>1174.7964</ele>
        <time>2020-09-15 17:29:23</time>
      </trkpt>
      <trkpt lat="45.65151" lon="6.24119">
        <ele>1175.8484</ele>
        <time>2020-09-15 17:29:25</time>
      </trkpt>
      <trkpt lat="45.65148" lon="6.24117">
        <ele>1176.1864</ele>
        <time>2020-09-15 17:29:29</time>
      </trkpt>
      <trkpt lat="45.65142" lon="6.24119">
        <ele>1176.31</ele>
        <time>2020-09-15 17:29:38</time>
      </trkpt>
      <trkpt lat="45.65141" lon="6.24119">
        <ele>1176.2345</ele>
        <time>2020-09-15 17:29:39</time>
      </trkpt>
      <trkpt lat="45.65138" lon="6.24121">
        <ele>1175.8635</ele>
        <time>2020-09-15 17:29:42</time>
      </trkpt>
      <trkpt lat="45.65136" lon="6.24121">
        <ele>1175.4993</ele>
        <time>2020-09-15 17:29:44</time>
      </trkpt>
      <trkpt lat="45.6513" lon="6.24121">
        <ele>1174.2014</ele>
        <time>2020-09-15 17:29:51</time>
      </trkpt>
      <trkpt lat="45.65127" lon="6.24122">
        <ele>1173.219</ele>
        <time>2020-09-15 17:29:54</time>
      </trkpt>
      <trkpt lat="45.65125" lon="6.24122">
        <ele>1174.2074</ele>
        <time>2020-09-15 17:29:58</time>
      </trkpt>
      <trkpt lat="45.65121" lon="6.24121">
        <ele>1173.8782</ele>
        <time>2020-09-15 17:30:01</time>
      </trkpt>
      <trkpt lat="45.65114" lon="6.24115">
        <ele>1171.1184</ele>
        <time>2020-09-15 17:30:11</time>
      </trkpt>
      <trkpt lat="45.65112" lon="6.24116">
        <ele>1171.0585</ele>
        <time>2020-09-15 17:30:12</time>
      </trkpt>
      <trkpt lat="45.65105" lon="6.24115">
        <ele>1169.719</ele>
        <time>2020-09-15 17:30:17</time>
      </trkpt>
      <trkpt lat="45.65102" lon="6.24115">
        <ele>1170.8962</ele>
        <time>2020-09-15 17:30:19</time>
      </trkpt>
      <trkpt lat="45.651" lon="6.24115">
        <ele>1170.943</ele>
        <time>2020-09-15 17:30:20</time>
      </trkpt>
      <trkpt lat="45.65096" lon="6.24116">
        <ele>1168.6942</ele>
        <time>2020-09-15 17:30:22</time>
      </trkpt>
      <trkpt lat="45.65087" lon="6.24109">
        <ele>1170.1538</ele>
        <time>2020-09-15 17:30:29</time>
      </trkpt>
      <trkpt lat="45.65084" lon="6.24107">
        <ele>1170.4933</ele>
        <time>2020-09-15 17:30:32</time>
      </trkpt>
      <trkpt lat="45.65081" lon="6.24106">
        <ele>1169.7614</ele>
        <time>2020-09-15 17:30:35</time>
      </trkpt>
      <trkpt lat="45.65075" lon="6.24096">
        <ele>1166.434</ele>
        <time>2020-09-15 17:30:45</time>
      </trkpt>
      <trkpt lat="45.65074" lon="6.24094">
        <ele>1166.4255</ele>
        <time>2020-09-15 17:30:47</time>
      </trkpt>
      <trkpt lat="45.65073" lon="6.24094">
        <ele>1167.3412</ele>
        <time>2020-09-15 17:30:48</time>
      </trkpt>
      <trkpt lat="45.65071" lon="6.24092">
        <ele>1168.1345</ele>
        <time>2020-09-15 17:30:51</time>
      </trkpt>
      <trkpt lat="45.6507" lon="6.24089">
        <ele>1168.3593</ele>
        <time>2020-09-15 17:30:53</time>
      </trkpt>
      <trkpt lat="45.65066" lon="6.24083">
        <ele>1164.2977</ele>
        <time>2020-09-15 17:30:58</time>
      </trkpt>
      <trkpt lat="45.65063" lon="6.24083">
        <ele>1165.4214</ele>
        <time>2020-09-15 17:31:00</time>
      </trkpt>
      <trkpt lat="45.6506" lon="6.24083">
        <ele>1165.122</ele>
        <time>2020-09-15 17:31:02</time>
      </trkpt>
      <trkpt lat="45.65056" lon="6.24083">
        <ele>1164.0586</ele>
        <time>2020-09-15 17:31:04</time>
      </trkpt>
      <trkpt lat="45.65052" lon="6.24081">
        <ele>1163.2305</ele>
        <time>2020-09-15 17:31:11</time>
      </trkpt>
      <trkpt lat="45.6505" lon="6.24082">
        <ele>1163.8627</ele>
        <time>2020-09-15 17:31:13</time>
      </trkpt>
      <trkpt lat="45.65044" lon="6.24083">
        <ele>1161.3716</ele>
        <time>2020-09-15 17:31:22</time>
      </trkpt>
      <trkpt lat="45.65044" lon="6.24083">
        <ele>1160.9873</ele>
        <time>2020-09-15 17:31:23</time>
      </trkpt>
      <trkpt lat="45.65041" lon="6.24085">
        <ele>1161.244</ele>
        <time>2020-09-15 17:31:25</time>
      </trkpt>
      <trkpt lat="45.65037" lon="6.24087">
        <ele>1162.4728</ele>
        <time>2020-09-15 17:31:28</time>
      </trkpt>
      <trkpt lat="45.65036" lon="6.24087">
        <ele>1162.34</ele>
        <time>2020-09-15 17:31:29</time>
      </trkpt>
      <trkpt lat="45.65031" lon="6.24091">
        <ele>1159.4945</ele>
        <time>2020-09-15 17:31:36</time>
      </trkpt>
      <trkpt lat="45.65028" lon="6.24092">
        <ele>1159.5876</ele>
        <time>2020-09-15 17:31:38</time>
      </trkpt>
      <trkpt lat="45.65011" lon="6.24094">
        <ele>1156.5618</ele>
        <time>2020-09-15 17:31:47</time>
      </trkpt>
      <trkpt lat="45.65006" lon="6.24096">
        <ele>1157.0009</ele>
        <time>2020-09-15 17:31:56</time>
      </trkpt>
      <trkpt lat="45.65004" lon="6.24097">
        <ele>1157.1255</ele>
        <time>2020-09-15 17:31:58</time>
      </trkpt>
      <trkpt lat="45.65001" lon="6.24096">
        <ele>1154.0238</ele>
        <time>2020-09-15 17:32:00</time>
      </trkpt>
      <trkpt lat="45.64998" lon="6.24096">
        <ele>1149.7496</ele>
        <time>2020-09-15 17:32:03</time>
      </trkpt>
      <trkpt lat="45.64995" lon="6.24095">
        <ele>1150.0552</ele>
        <time>2020-09-15 17:32:05</time>
      </trkpt>
      <trkpt lat="45.64994" lon="6.24095">
        <ele>1149.9231</ele>
        <time>2020-09-15 17:32:06</time>
      </trkpt>
      <trkpt lat="45.64992" lon="6.24095">
        <ele>1150.9121</ele>
        <time>2020-09-15 17:32:07</time>
      </trkpt>
      <trkpt lat="45.64968" lon="6.24093">
        <ele>1155.7365</ele>
        <time>2020-09-15 17:32:25</time>
      </trkpt>
      <trkpt lat="45.64967" lon="6.24091">
        <ele>1156.0144</ele>
        <time>2020-09-15 17:32:26</time>
      </trkpt>
      <trkpt lat="45.64965" lon="6.24089">
        <ele>1154.8467</ele>
        <time>2020-09-15 17:32:28</time>
      </trkpt>
      <trkpt lat="45.64963" lon="6.24088">
        <ele>1154.9523</ele>
        <time>2020-09-15 17:32:29</time>
      </trkpt>
      <trkpt lat="45.64955" lon="6.24084">
        <ele>1151.2365</ele>
        <time>2020-09-15 17:32:35</time>
      </trkpt>
      <trkpt lat="45.64954" lon="6.24081">
        <ele>1151.0214</ele>
        <time>2020-09-15 17:32:37</time>
      </trkpt>
      <trkpt lat="45.64953" lon="6.2408">
        <ele>1151.8004</ele>
        <time>2020-09-15 17:32:38</time>
      </trkpt>
      <trkpt lat="45.64951" lon="6.24079">
        <ele>1152.1284</ele>
        <time>2020-09-15 17:32:40</time>
      </trkpt>
      <trkpt lat="45.64951" lon="6.24078">
        <ele>1152.1985</ele>
        <time>2020-09-15 17:32:41</time>
      </trkpt>
      <trkpt lat="45.64949" lon="6.24076">
        <ele>1152.1884</ele>
        <time>2020-09-15 17:32:43</time>
      </trkpt>
      <trkpt lat="45.64948" lon="6.24075">
        <ele>1151.642</ele>
        <time>2020-09-15 17:32:44</time>
      </trkpt>
      <trkpt lat="45.64944" lon="6.2407">
        <ele>1150.074</ele>
        <time>2020-09-15 17:32:49</time>
      </trkpt>
      <trkpt lat="45.64932" lon="6.24066">
        <ele>1144.194</ele>
        <time>2020-09-15 17:32:58</time>
      </trkpt>
      <trkpt lat="45.64922" lon="6.24059">
        <ele>1139.583</ele>
        <time>2020-09-15 17:33:10</time>
      </trkpt>
      <trkpt lat="45.64921" lon="6.24058">
        <ele>1139.3325</ele>
        <time>2020-09-15 17:33:11</time>
      </trkpt>
      <trkpt lat="45.64918" lon="6.24059">
        <ele>1139.757</ele>
        <time>2020-09-15 17:33:13</time>
      </trkpt>
      <trkpt lat="45.64917" lon="6.24059">
        <ele>1139.3993</ele>
        <time>2020-09-15 17:33:15</time>
      </trkpt>
      <trkpt lat="45.64915" lon="6.24058">
        <ele>1139.5353</ele>
        <time>2020-09-15 17:33:17</time>
      </trkpt>
      <trkpt lat="45.6491" lon="6.24052">
        <ele>1139.3218</ele>
        <time>2020-09-15 17:33:24</time>
      </trkpt>
      <trkpt lat="45.64909" lon="6.24049">
        <ele>1137.6392</ele>
        <time>2020-09-15 17:33:26</time>
      </trkpt>
      <trkpt lat="45.64908" lon="6.24049">
        <ele>1137.5111</ele>
        <time>2020-09-15 17:33:27</time>
      </trkpt>
      <trkpt lat="45.64905" lon="6.24048">
        <ele>1137.5308</ele>
        <time>2020-09-15 17:33:29</time>
      </trkpt>
      <trkpt lat="45.64905" lon="6.24048">
        <ele>1137.1079</ele>
        <time>2020-09-15 17:33:30</time>
      </trkpt>
      <trkpt lat="45.64899" lon="6.24044">
        <ele>1136.7904</ele>
        <time>2020-09-15 17:33:35</time>
      </trkpt>
      <trkpt lat="45.64897" lon="6.24044">
        <ele>1136.1213</ele>
        <time>2020-09-15 17:33:36</time>
      </trkpt>
      <trkpt lat="45.64896" lon="6.24044">
        <ele>1135.5613</ele>
        <time>2020-09-15 17:33:38</time>
      </trkpt>
      <trkpt lat="45.64895" lon="6.24044">
        <ele>1137.1786</ele>
        <time>2020-09-15 17:33:39</time>
      </trkpt>
      <trkpt lat="45.64894" lon="6.24043">
        <ele>1135.8286</ele>
        <time>2020-09-15 17:33:43</time>
      </trkpt>
      <trkpt lat="45.64893" lon="6.24042">
        <ele>1135.7186</ele>
        <time>2020-09-15 17:33:44</time>
      </trkpt>
      <trkpt lat="45.64891" lon="6.24042">
        <ele>1137.6138</ele>
        <time>2020-09-15 17:33:46</time>
      </trkpt>
      <trkpt lat="45.64889" lon="6.24041">
        <ele>1135.5272</ele>
        <time>2020-09-15 17:33:49</time>
      </trkpt>
      <trkpt lat="45.64888" lon="6.2404">
        <ele>1134.5294</ele>
        <time>2020-09-15 17:33:50</time>
      </trkpt>
      <trkpt lat="45.64886" lon="6.24039">
        <ele>1134.2546</ele>
        <time>2020-09-15 17:33:51</time>
      </trkpt>
      <trkpt lat="45.64877" lon="6.24039">
        <ele>1131.0205</ele>
        <time>2020-09-15 17:33:58</time>
      </trkpt>
      <trkpt lat="45.64873" lon="6.24038">
        <ele>1128.6876</ele>
        <time>2020-09-15 17:34:05</time>
      </trkpt>
      <trkpt lat="45.64871" lon="6.24038">
        <ele>1128.8519</ele>
        <time>2020-09-15 17:34:06</time>
      </trkpt>
      <trkpt lat="45.64869" lon="6.24036">
        <ele>1128.0363</ele>
        <time>2020-09-15 17:34:08</time>
      </trkpt>
      <trkpt lat="45.64855" lon="6.24026">
        <ele>1128.0918</ele>
        <time>2020-09-15 17:34:21</time>
      </trkpt>
      <trkpt lat="45.64852" lon="6.24026">
        <ele>1127.5338</ele>
        <time>2020-09-15 17:34:24</time>
      </trkpt>
      <trkpt lat="45.64847" lon="6.24025">
        <ele>1127.8848</ele>
        <time>2020-09-15 17:34:30</time>
      </trkpt>
      <trkpt lat="45.64846" lon="6.24024">
        <ele>1126.4377</ele>
        <time>2020-09-15 17:34:31</time>
      </trkpt>
      <trkpt lat="45.64838" lon="6.24022">
        <ele>1123.5463</ele>
        <time>2020-09-15 17:34:36</time>
      </trkpt>
      <trkpt lat="45.64836" lon="6.24021">
        <ele>1122.6495</ele>
        <time>2020-09-15 17:34:39</time>
      </trkpt>
      <trkpt lat="45.64835" lon="6.2402">
        <ele>1121.9799</ele>
        <time>2020-09-15 17:34:40</time>
      </trkpt>
      <trkpt lat="45.64831" lon="6.24016">
        <ele>1120.3995</ele>
        <time>2020-09-15 17:34:43</time>
      </trkpt>
      <trkpt lat="45.64831" lon="6.24015">
        <ele>1120.0948</ele>
        <time>2020-09-15 17:34:44</time>
      </trkpt>
      <trkpt lat="45.64829" lon="6.24014">
        <ele>1118.6239</ele>
        <time>2020-09-15 17:34:45</time>
      </trkpt>
      <trkpt lat="45.64826" lon="6.24013">
        <ele>1117.6777</ele>
        <time>2020-09-15 17:34:50</time>
      </trkpt>
      <trkpt lat="45.64825" lon="6.24013">
        <ele>1117.9111</ele>
        <time>2020-09-15 17:34:51</time>
      </trkpt>
      <trkpt lat="45.64824" lon="6.24013">
        <ele>1118.479</ele>
        <time>2020-09-15 17:34:52</time>
      </trkpt>
      <trkpt lat="45.64821" lon="6.24012">
        <ele>1118.1351</ele>
        <time>2020-09-15 17:34:54</time>
      </trkpt>
      <trkpt lat="45.6482" lon="6.24012">
        <ele>1117.653</ele>
        <time>2020-09-15 17:34:55</time>
      </trkpt>
      <trkpt lat="45.64819" lon="6.2401">
        <ele>1117.1506</ele>
        <time>2020-09-15 17:34:57</time>
      </trkpt>
      <trkpt lat="45.64817" lon="6.2401">
        <ele>1116.9141</ele>
        <time>2020-09-15 17:34:58</time>
      </trkpt>
      <trkpt lat="45.64815" lon="6.2401">
        <ele>1115.9088</ele>
        <time>2020-09-15 17:35:00</time>
      </trkpt>
      <trkpt lat="45.64814" lon="6.2401">
        <ele>1116.0208</ele>
        <time>2020-09-15 17:35:01</time>
      </trkpt>
      <trkpt lat="45.64812" lon="6.2401">
        <ele>1114.506</ele>
        <time>2020-09-15 17:35:03</time>
      </trkpt>
      <trkpt lat="45.64811" lon="6.24009">
        <ele>1113.3937</ele>
        <time>2020-09-15 17:35:06</time>
      </trkpt>
      <trkpt lat="45.6481" lon="6.2401">
        <ele>1113.304</ele>
        <time>2020-09-15 17:35:07</time>
      </trkpt>
      <trkpt lat="45.64807" lon="6.24011">
        <ele>1112.5541</ele>
        <time>2020-09-15 17:35:10</time>
      </trkpt>
      <trkpt lat="45.64806" lon="6.24005">
        <ele>1104.1456</ele>
        <time>2020-09-15 17:35:12</time>
      </trkpt>
      <trkpt lat="45.64805" lon="6.24002">
        <ele>1104.644</ele>
        <time>2020-09-15 17:35:13</time>
      </trkpt>
      <trkpt lat="45.64803" lon="6.23999">
        <ele>1103.532</ele>
        <time>2020-09-15 17:35:15</time>
      </trkpt>
      <trkpt lat="45.64803" lon="6.23998">
        <ele>1103.1708</ele>
        <time>2020-09-15 17:35:16</time>
      </trkpt>
      <trkpt lat="45.64801" lon="6.23995">
        <ele>1101.7255</ele>
        <time>2020-09-15 17:35:18</time>
      </trkpt>
      <trkpt lat="45.64801" lon="6.23992">
        <ele>1098.8533</ele>
        <time>2020-09-15 17:35:19</time>
      </trkpt>
      <trkpt lat="45.64798" lon="6.2399">
        <ele>1097.4858</ele>
        <time>2020-09-15 17:35:23</time>
      </trkpt>
      <trkpt lat="45.64793" lon="6.23989">
        <ele>1095.1565</ele>
        <time>2020-09-15 17:35:26</time>
      </trkpt>
      <trkpt lat="45.64792" lon="6.23988">
        <ele>1094.1976</ele>
        <time>2020-09-15 17:35:27</time>
      </trkpt>
      <trkpt lat="45.64785" lon="6.23985">
        <ele>1090.9474</ele>
        <time>2020-09-15 17:35:32</time>
      </trkpt>
      <trkpt lat="45.64783" lon="6.23982">
        <ele>1087.8086</ele>
        <time>2020-09-15 17:35:35</time>
      </trkpt>
      <trkpt lat="45.64781" lon="6.23981">
        <ele>1086.8916</ele>
        <time>2020-09-15 17:35:38</time>
      </trkpt>
      <trkpt lat="45.64779" lon="6.23982">
        <ele>1087.0742</ele>
        <time>2020-09-15 17:35:39</time>
      </trkpt>
      <trkpt lat="45.64773" lon="6.23985">
        <ele>1085.8286</ele>
        <time>2020-09-15 17:35:43</time>
      </trkpt>
      <trkpt lat="45.64769" lon="6.23986">
        <ele>1084.1042</ele>
        <time>2020-09-15 17:35:50</time>
      </trkpt>
      <trkpt lat="45.64767" lon="6.23982">
        <ele>1084.162</ele>
        <time>2020-09-15 17:35:54</time>
      </trkpt>
      <trkpt lat="45.64766" lon="6.2398">
        <ele>1083.7036</ele>
        <time>2020-09-15 17:35:56</time>
      </trkpt>
      <trkpt lat="45.64764" lon="6.23973">
        <ele>1084.6917</ele>
        <time>2020-09-15 17:36:01</time>
      </trkpt>
      <trkpt lat="45.64763" lon="6.23972">
        <ele>1084.925</ele>
        <time>2020-09-15 17:36:02</time>
      </trkpt>
      <trkpt lat="45.64762" lon="6.23969">
        <ele>1085.3612</ele>
        <time>2020-09-15 17:36:04</time>
      </trkpt>
      <trkpt lat="45.64761" lon="6.23963">
        <ele>1085.6624</ele>
        <time>2020-09-15 17:36:09</time>
      </trkpt>
      <trkpt lat="45.6476" lon="6.2396">
        <ele>1085.3405</ele>
        <time>2020-09-15 17:36:11</time>
      </trkpt>
      <trkpt lat="45.64759" lon="6.23959">
        <ele>1085.3033</ele>
        <time>2020-09-15 17:36:12</time>
      </trkpt>
      <trkpt lat="45.64756" lon="6.23945">
        <ele>1085.5657</ele>
        <time>2020-09-15 17:36:22</time>
      </trkpt>
      <trkpt lat="45.64756" lon="6.23943">
        <ele>1085.0536</ele>
        <time>2020-09-15 17:36:23</time>
      </trkpt>
      <trkpt lat="45.64751" lon="6.23933">
        <ele>1084.5875</ele>
        <time>2020-09-15 17:36:31</time>
      </trkpt>
      <trkpt lat="45.6475" lon="6.23931">
        <ele>1085.6509</ele>
        <time>2020-09-15 17:36:33</time>
      </trkpt>
      <trkpt lat="45.64747" lon="6.2392">
        <ele>1083.1259</ele>
        <time>2020-09-15 17:36:42</time>
      </trkpt>
      <trkpt lat="45.64745" lon="6.23916">
        <ele>1083.2675</ele>
        <time>2020-09-15 17:36:45</time>
      </trkpt>
      <trkpt lat="45.64731" lon="6.23903">
        <ele>1088.2671</ele>
        <time>2020-09-15 17:36:57</time>
      </trkpt>
      <trkpt lat="45.6473" lon="6.23902">
        <ele>1087.8309</ele>
        <time>2020-09-15 17:36:58</time>
      </trkpt>
      <trkpt lat="45.64726" lon="6.23894">
        <ele>1088.0242</ele>
        <time>2020-09-15 17:37:03</time>
      </trkpt>
      <trkpt lat="45.64722" lon="6.23889">
        <ele>1086.3682</ele>
        <time>2020-09-15 17:37:07</time>
      </trkpt>
      <trkpt lat="45.64721" lon="6.23887">
        <ele>1085.0043</ele>
        <time>2020-09-15 17:37:09</time>
      </trkpt>
      <trkpt lat="45.64717" lon="6.23877">
        <ele>1084.0762</ele>
        <time>2020-09-15 17:37:17</time>
      </trkpt>
      <trkpt lat="45.64716" lon="6.23876">
        <ele>1083.0242</ele>
        <time>2020-09-15 17:37:18</time>
      </trkpt>
      <trkpt lat="45.64711" lon="6.23868">
        <ele>1080.6556</ele>
        <time>2020-09-15 17:37:23</time>
      </trkpt>
      <trkpt lat="45.6471" lon="6.23867">
        <ele>1080.1143</ele>
        <time>2020-09-15 17:37:24</time>
      </trkpt>
      <trkpt lat="45.64708" lon="6.23863">
        <ele>1080.771</ele>
        <time>2020-09-15 17:37:27</time>
      </trkpt>
      <trkpt lat="45.64701" lon="6.2385">
        <ele>1079.5459</ele>
        <time>2020-09-15 17:37:36</time>
      </trkpt>
      <trkpt lat="45.64697" lon="6.23845">
        <ele>1079.5387</ele>
        <time>2020-09-15 17:37:40</time>
      </trkpt>
      <trkpt lat="45.64696" lon="6.23842">
        <ele>1080.8281</ele>
        <time>2020-09-15 17:37:42</time>
      </trkpt>
      <trkpt lat="45.64695" lon="6.23838">
        <ele>1079.2756</ele>
        <time>2020-09-15 17:37:45</time>
      </trkpt>
      <trkpt lat="45.64691" lon="6.23833">
        <ele>1076.3422</ele>
        <time>2020-09-15 17:37:50</time>
      </trkpt>
      <trkpt lat="45.6469" lon="6.23832">
        <ele>1076.5264</ele>
        <time>2020-09-15 17:37:51</time>
      </trkpt>
      <trkpt lat="45.64689" lon="6.23829">
        <ele>1075.6871</ele>
        <time>2020-09-15 17:37:53</time>
      </trkpt>
      <trkpt lat="45.64688" lon="6.23828">
        <ele>1075.4966</ele>
        <time>2020-09-15 17:37:54</time>
      </trkpt>
      <trkpt lat="45.64685" lon="6.23825">
        <ele>1074.221</ele>
        <time>2020-09-15 17:37:57</time>
      </trkpt>
      <trkpt lat="45.6468" lon="6.23823">
        <ele>1073.459</ele>
        <time>2020-09-15 17:38:02</time>
      </trkpt>
      <trkpt lat="45.64679" lon="6.23823">
        <ele>1073.3542</ele>
        <time>2020-09-15 17:38:03</time>
      </trkpt>
      <trkpt lat="45.64675" lon="6.23824">
        <ele>1073.2706</ele>
        <time>2020-09-15 17:38:06</time>
      </trkpt>
      <trkpt lat="45.64674" lon="6.23824">
        <ele>1072.178</ele>
        <time>2020-09-15 17:38:07</time>
      </trkpt>
      <trkpt lat="45.64673" lon="6.23824">
        <ele>1072.5679</ele>
        <time>2020-09-15 17:38:08</time>
      </trkpt>
      <trkpt lat="45.64671" lon="6.23823">
        <ele>1074.224</ele>
        <time>2020-09-15 17:38:10</time>
      </trkpt>
      <trkpt lat="45.6467" lon="6.23824">
        <ele>1073.8997</ele>
        <time>2020-09-15 17:38:11</time>
      </trkpt>
      <trkpt lat="45.64667" lon="6.23824">
        <ele>1073.0905</ele>
        <time>2020-09-15 17:38:13</time>
      </trkpt>
      <trkpt lat="45.64667" lon="6.23824">
        <ele>1073.0961</ele>
        <time>2020-09-15 17:38:14</time>
      </trkpt>
      <trkpt lat="45.64664" lon="6.23824">
        <ele>1074.9094</ele>
        <time>2020-09-15 17:38:16</time>
      </trkpt>
      <trkpt lat="45.64662" lon="6.23824">
        <ele>1075.3993</ele>
        <time>2020-09-15 17:38:17</time>
      </trkpt>
      <trkpt lat="45.64661" lon="6.23824">
        <ele>1074.7375</ele>
        <time>2020-09-15 17:38:18</time>
      </trkpt>
      <trkpt lat="45.6466" lon="6.23825">
        <ele>1076.51</ele>
        <time>2020-09-15 17:38:19</time>
      </trkpt>
      <trkpt lat="45.64658" lon="6.23824">
        <ele>1076.75</ele>
        <time>2020-09-15 17:38:20</time>
      </trkpt>
      <trkpt lat="45.64657" lon="6.23823">
        <ele>1077.0249</ele>
        <time>2020-09-15 17:38:21</time>
      </trkpt>
      <trkpt lat="45.64654" lon="6.23821">
        <ele>1076.6711</ele>
        <time>2020-09-15 17:38:23</time>
      </trkpt>
      <trkpt lat="45.64652" lon="6.2382">
        <ele>1077.4846</ele>
        <time>2020-09-15 17:38:25</time>
      </trkpt>
      <trkpt lat="45.64649" lon="6.23818">
        <ele>1076.553</ele>
        <time>2020-09-15 17:38:27</time>
      </trkpt>
      <trkpt lat="45.64645" lon="6.23817">
        <ele>1076.716</ele>
        <time>2020-09-15 17:38:30</time>
      </trkpt>
      <trkpt lat="45.64645" lon="6.23816">
        <ele>1077.1132</ele>
        <time>2020-09-15 17:38:31</time>
      </trkpt>
      <trkpt lat="45.64644" lon="6.23814">
        <ele>1076.5227</ele>
        <time>2020-09-15 17:38:37</time>
      </trkpt>
      <trkpt lat="45.64643" lon="6.23812">
        <ele>1076.6979</ele>
        <time>2020-09-15 17:38:38</time>
      </trkpt>
      <trkpt lat="45.64635" lon="6.238">
        <ele>1075.6677</ele>
        <time>2020-09-15 17:38:46</time>
      </trkpt>
      <trkpt lat="45.6463" lon="6.2379">
        <ele>1077.2157</ele>
        <time>2020-09-15 17:38:52</time>
      </trkpt>
      <trkpt lat="45.64629" lon="6.23787">
        <ele>1076.9559</ele>
        <time>2020-09-15 17:38:54</time>
      </trkpt>
      <trkpt lat="45.64628" lon="6.23785">
        <ele>1075.1904</ele>
        <time>2020-09-15 17:38:55</time>
      </trkpt>
      <trkpt lat="45.64622" lon="6.23777">
        <ele>1074.0411</ele>
        <time>2020-09-15 17:39:01</time>
      </trkpt>
      <trkpt lat="45.64621" lon="6.23777">
        <ele>1073.9493</ele>
        <time>2020-09-15 17:39:02</time>
      </trkpt>
      <trkpt lat="45.6462" lon="6.23776">
        <ele>1073.6531</ele>
        <time>2020-09-15 17:39:03</time>
      </trkpt>
      <trkpt lat="45.64619" lon="6.23775">
        <ele>1073.2736</ele>
        <time>2020-09-15 17:39:04</time>
      </trkpt>
      <trkpt lat="45.64618" lon="6.23773">
        <ele>1072.5574</ele>
        <time>2020-09-15 17:39:05</time>
      </trkpt>
      <trkpt lat="45.64616" lon="6.23771">
        <ele>1072.6549</ele>
        <time>2020-09-15 17:39:07</time>
      </trkpt>
      <trkpt lat="45.64614" lon="6.23769">
        <ele>1072.3036</ele>
        <time>2020-09-15 17:39:09</time>
      </trkpt>
      <trkpt lat="45.64611" lon="6.23766">
        <ele>1072.0006</ele>
        <time>2020-09-15 17:39:12</time>
      </trkpt>
      <trkpt lat="45.64609" lon="6.23761">
        <ele>1071.6228</ele>
        <time>2020-09-15 17:39:15</time>
      </trkpt>
      <trkpt lat="45.64609" lon="6.23759">
        <ele>1071.922</ele>
        <time>2020-09-15 17:39:16</time>
      </trkpt>
      <trkpt lat="45.64609" lon="6.23756">
        <ele>1071.2295</ele>
        <time>2020-09-15 17:39:18</time>
      </trkpt>
      <trkpt lat="45.64608" lon="6.23755">
        <ele>1070.783</ele>
        <time>2020-09-15 17:39:19</time>
      </trkpt>
      <trkpt lat="45.64608" lon="6.23754">
        <ele>1072.0891</ele>
        <time>2020-09-15 17:39:21</time>
      </trkpt>
      <trkpt lat="45.64607" lon="6.23753">
        <ele>1072.4175</ele>
        <time>2020-09-15 17:39:22</time>
      </trkpt>
      <trkpt lat="45.64606" lon="6.23752">
        <ele>1072.8584</ele>
        <time>2020-09-15 17:39:24</time>
      </trkpt>
      <trkpt lat="45.64605" lon="6.23752">
        <ele>1073.3042</ele>
        <time>2020-09-15 17:39:25</time>
      </trkpt>
      <trkpt lat="45.64603" lon="6.23747">
        <ele>1069.7054</ele>
        <time>2020-09-15 17:39:29</time>
      </trkpt>
      <trkpt lat="45.64601" lon="6.23736">
        <ele>1064.4551</ele>
        <time>2020-09-15 17:39:34</time>
      </trkpt>
      <trkpt lat="45.64596" lon="6.23729">
        <ele>1062.5212</ele>
        <time>2020-09-15 17:39:39</time>
      </trkpt>
      <trkpt lat="45.64592" lon="6.23722">
        <ele>1060.3538</ele>
        <time>2020-09-15 17:39:44</time>
      </trkpt>
      <trkpt lat="45.64588" lon="6.23717">
        <ele>1060.5693</ele>
        <time>2020-09-15 17:39:48</time>
      </trkpt>
      <trkpt lat="45.64586" lon="6.23715">
        <ele>1059.8776</ele>
        <time>2020-09-15 17:39:50</time>
      </trkpt>
      <trkpt lat="45.6458" lon="6.23714">
        <ele>1062.3848</ele>
        <time>2020-09-15 17:39:55</time>
      </trkpt>
      <trkpt lat="45.64576" lon="6.23714">
        <ele>1061.7279</ele>
        <time>2020-09-15 17:39:58</time>
      </trkpt>
      <trkpt lat="45.64575" lon="6.23713">
        <ele>1061.2051</ele>
        <time>2020-09-15 17:39:59</time>
      </trkpt>
      <trkpt lat="45.64573" lon="6.23709">
        <ele>1060.261</ele>
        <time>2020-09-15 17:40:02</time>
      </trkpt>
      <trkpt lat="45.64569" lon="6.23703">
        <ele>1061.2836</ele>
        <time>2020-09-15 17:40:09</time>
      </trkpt>
      <trkpt lat="45.64569" lon="6.23703">
        <ele>1061.5762</ele>
        <time>2020-09-15 17:40:11</time>
      </trkpt>
      <trkpt lat="45.64569" lon="6.23701">
        <ele>1061.1107</ele>
        <time>2020-09-15 17:40:14</time>
      </trkpt>
      <trkpt lat="45.64569" lon="6.23699">
        <ele>1059.5067</ele>
        <time>2020-09-15 17:40:15</time>
      </trkpt>
      <trkpt lat="45.64569" lon="6.23698">
        <ele>1059.9336</ele>
        <time>2020-09-15 17:40:17</time>
      </trkpt>
      <trkpt lat="45.64571" lon="6.23686">
        <ele>1055.8326</ele>
        <time>2020-09-15 17:40:26</time>
      </trkpt>
      <trkpt lat="45.64571" lon="6.23685">
        <ele>1055.7018</ele>
        <time>2020-09-15 17:40:27</time>
      </trkpt>
      <trkpt lat="45.64572" lon="6.23684">
        <ele>1056.1946</ele>
        <time>2020-09-15 17:40:29</time>
      </trkpt>
      <trkpt lat="45.64573" lon="6.23682">
        <ele>1054.3889</ele>
        <time>2020-09-15 17:40:31</time>
      </trkpt>
      <trkpt lat="45.64573" lon="6.23675">
        <ele>1049.5596</ele>
        <time>2020-09-15 17:41:12</time>
      </trkpt>
      <trkpt lat="45.64573" lon="6.23675">
        <ele>1050.3575</ele>
        <time>2020-09-15 17:41:42</time>
      </trkpt>
      <trkpt lat="45.64572" lon="6.23675">
        <ele>1050.8062</ele>
        <time>2020-09-15 17:41:56</time>
      </trkpt>
      <trkpt lat="45.64572" lon="6.23675">
        <ele>1051.4</ele>
        <time>2020-09-15 17:41:57</time>
      </trkpt>
      <trkpt lat="45.64572" lon="6.23674">
        <ele>1053.5559</ele>
        <time>2020-09-15 17:42:36</time>
      </trkpt>
      <trkpt lat="45.64572" lon="6.23673">
        <ele>1052.171</ele>
        <time>2020-09-15 17:43:01</time>
      </trkpt>
      <trkpt lat="45.64572" lon="6.23674">
        <ele>1051.7007</ele>
        <time>2020-09-15 17:43:03</time>
      </trkpt>
      <trkpt lat="45.64569" lon="6.23674">
        <ele>1054.0024</ele>
        <time>2020-09-15 17:43:15</time>
      </trkpt>
      <trkpt lat="45.64569" lon="6.23675">
        <ele>1053.3602</ele>
        <time>2020-09-15 17:43:17</time>
      </trkpt>
      <trkpt lat="45.6457" lon="6.23677">
        <ele>1052.0752</ele>
        <time>2020-09-15 17:43:20</time>
      </trkpt>
      <trkpt lat="45.6457" lon="6.23678">
        <ele>1051.4453</ele>
        <time>2020-09-15 17:43:21</time>
      </trkpt>
      <trkpt lat="45.64568" lon="6.23682">
        <ele>1055.36</ele>
        <time>2020-09-15 17:46:19</time>
      </trkpt>
      <trkpt lat="45.64567" lon="6.23687">
        <ele>1049.9136</ele>
        <time>2020-09-15 17:47:34</time>
      </trkpt>
      <trkpt lat="45.64567" lon="6.23686">
        <ele>1049.0342</ele>
        <time>2020-09-15 17:47:35</time>
      </trkpt>
      <trkpt lat="45.64567" lon="6.23686">
        <ele>1048.6277</ele>
        <time>2020-09-15 17:47:49</time>
      </trkpt>
      <trkpt lat="45.64567" lon="6.23686">
        <ele>1048.4559</ele>
        <time>2020-09-15 17:47:50</time>
      </trkpt>
      <trkpt lat="45.64568" lon="6.23686">
        <ele>1047.4537</ele>
        <time>2020-09-15 17:47:52</time>
      </trkpt>
      <trkpt lat="45.64567" lon="6.23686">
        <ele>1047.9215</ele>
        <time>2020-09-15 17:47:53</time>
      </trkpt>
      <trkpt lat="45.64566" lon="6.23685">
        <ele>1049.6337</ele>
        <time>2020-09-15 17:48:33</time>
      </trkpt>
      <trkpt lat="45.64566" lon="6.23685">
        <ele>1049.5703</ele>
        <time>2020-09-15 17:49:03</time>
      </trkpt>
    </trkseg>
  </trk>
</gpx>